<?xml version='1.0' encoding='UTF-8'?><gpx version="1.1" creator="JPX - https://github.com/jenetics/jpx" xmlns="http://www.topografix.com/GPX/1/1"><trk><trkseg><trkpt lat="39.8455588" lon="16.3716758"><ele>1041.0</ele><time>2026-05-03T07:41:26.632Z</time></trkpt><trkpt lat="39.8455906" lon="16.3715723"><ele>1041.0</ele><time>2026-05-03T07:41:28.629Z</time></trkpt><trkpt lat="39.8455989" lon="16.3714264"><ele>1041.0</ele><time>2026-05-03T07:41:30.634Z</time></trkpt><trkpt lat="39.8455865" lon="16.3713013"><ele>1041.0</ele><time>2026-05-03T07:41:32.621Z</time></trkpt><trkpt lat="39.8455359" lon="16.3712062"><ele>1041.0</ele><time>2026-05-03T07:41:35.633Z</time></trkpt><trkpt lat="39.8454683" lon="16.3711446"><ele>1042.8</ele><time>2026-05-03T07:41:37.625Z</time></trkpt><trkpt lat="39.8453635" lon="16.3710922"><ele>1044.6</ele><time>2026-05-03T07:41:39.617Z</time></trkpt><trkpt lat="39.8452407" lon="16.3710275"><ele>1046.4</ele><time>2026-05-03T07:41:41.618Z</time></trkpt><trkpt lat="39.8451659" lon="16.3709902"><ele>1048.2</ele><time>2026-05-03T07:41:42.626Z</time></trkpt><trkpt lat="39.8450851" lon="16.3709437"><ele>1050.0</ele><time>2026-05-03T07:41:43.623Z</time></trkpt><trkpt lat="39.8450008" lon="16.3708954"><ele>1045.4</ele><time>2026-05-03T07:41:44.625Z</time></trkpt><trkpt lat="39.8449151" lon="16.3708492"><ele>1040.8</ele><time>2026-05-03T07:41:45.617Z</time></trkpt><trkpt lat="39.8448259" lon="16.3708033"><ele>1036.2</ele><time>2026-05-03T07:41:46.633Z</time></trkpt><trkpt lat="39.8447373" lon="16.3707556"><ele>1031.6</ele><time>2026-05-03T07:41:47.628Z</time></trkpt><trkpt lat="39.8446548" lon="16.3707027"><ele>1027.0</ele><time>2026-05-03T07:41:48.631Z</time></trkpt><trkpt lat="39.8445777" lon="16.3706544"><ele>1027.0</ele><time>2026-05-03T07:41:49.62Z</time></trkpt><trkpt lat="39.844506" lon="16.3706036"><ele>1027.0</ele><time>2026-05-03T07:41:50.624Z</time></trkpt><trkpt lat="39.8444403" lon="16.3705625"><ele>1027.0</ele><time>2026-05-03T07:41:51.627Z</time></trkpt><trkpt lat="39.8443766" lon="16.3705308"><ele>1027.0</ele><time>2026-05-03T07:41:52.639Z</time></trkpt><trkpt lat="39.8443153" lon="16.3705004"><ele>1027.0</ele><time>2026-05-03T07:41:53.621Z</time></trkpt><trkpt lat="39.8442108" lon="16.3704321"><ele>1027.0</ele><time>2026-05-03T07:41:55.623Z</time></trkpt><trkpt lat="39.8441603" lon="16.3703812"><ele>1027.0</ele><time>2026-05-03T07:41:56.631Z</time></trkpt><trkpt lat="39.8441137" lon="16.3703154"><ele>1027.0</ele><time>2026-05-03T07:41:57.62Z</time></trkpt><trkpt lat="39.8440648" lon="16.3702441"><ele>1027.0</ele><time>2026-05-03T07:41:58.63Z</time></trkpt><trkpt lat="39.8440215" lon="16.3701684"><ele>1027.0</ele><time>2026-05-03T07:41:59.618Z</time></trkpt><trkpt lat="39.8439777" lon="16.3700843"><ele>1027.0</ele><time>2026-05-03T07:42:00.627Z</time></trkpt><trkpt lat="39.8439337" lon="16.3700025"><ele>1027.0</ele><time>2026-05-03T07:42:01.618Z</time></trkpt><trkpt lat="39.8438899" lon="16.3699179"><ele>1027.0</ele><time>2026-05-03T07:42:02.622Z</time></trkpt><trkpt lat="39.8438464" lon="16.3698299"><ele>1027.0</ele><time>2026-05-03T07:42:03.632Z</time></trkpt><trkpt lat="39.8438069" lon="16.3697405"><ele>1027.0</ele><time>2026-05-03T07:42:04.63Z</time></trkpt><trkpt lat="39.8437654" lon="16.369648"><ele>1027.0</ele><time>2026-05-03T07:42:05.637Z</time></trkpt><trkpt lat="39.8437216" lon="16.3695582"><ele>1027.0</ele><time>2026-05-03T07:42:06.636Z</time></trkpt><trkpt lat="39.843683" lon="16.3694659"><ele>1027.0</ele><time>2026-05-03T07:42:07.627Z</time></trkpt><trkpt lat="39.8436341" lon="16.3693632"><ele>1027.0</ele><time>2026-05-03T07:42:08.626Z</time></trkpt><trkpt lat="39.8435947" lon="16.3692621"><ele>1025.6</ele><time>2026-05-03T07:42:09.622Z</time></trkpt><trkpt lat="39.8435432" lon="16.3691682"><ele>1024.2</ele><time>2026-05-03T07:42:10.646Z</time></trkpt><trkpt lat="39.8434854" lon="16.3690748"><ele>1022.8</ele><time>2026-05-03T07:42:11.631Z</time></trkpt><trkpt lat="39.8434249" lon="16.3689801"><ele>1021.4</ele><time>2026-05-03T07:42:12.629Z</time></trkpt><trkpt lat="39.8433598" lon="16.3688893"><ele>1020.0</ele><time>2026-05-03T07:42:13.615Z</time></trkpt><trkpt lat="39.8432874" lon="16.3687867"><ele>1020.0</ele><time>2026-05-03T07:42:14.626Z</time></trkpt><trkpt lat="39.843212" lon="16.3686872"><ele>1020.0</ele><time>2026-05-03T07:42:15.624Z</time></trkpt><trkpt lat="39.843147" lon="16.3686051"><ele>1020.0</ele><time>2026-05-03T07:42:16.629Z</time></trkpt><trkpt lat="39.8430971" lon="16.3685298"><ele>1020.0</ele><time>2026-05-03T07:42:17.609Z</time></trkpt><trkpt lat="39.8430479" lon="16.3684594"><ele>1020.0</ele><time>2026-05-03T07:42:18.637Z</time></trkpt><trkpt lat="39.8430031" lon="16.3683819"><ele>1020.0</ele><time>2026-05-03T07:42:19.612Z</time></trkpt><trkpt lat="39.8429699" lon="16.3682942"><ele>1020.0</ele><time>2026-05-03T07:42:20.624Z</time></trkpt><trkpt lat="39.8429554" lon="16.368207"><ele>1020.0</ele><time>2026-05-03T07:42:21.619Z</time></trkpt><trkpt lat="39.8429563" lon="16.3681171"><ele>1020.0</ele><time>2026-05-03T07:42:22.628Z</time></trkpt><trkpt lat="39.8429691" lon="16.3680137"><ele>1020.0</ele><time>2026-05-03T07:42:23.65Z</time></trkpt><trkpt lat="39.8429955" lon="16.3679075"><ele>1020.0</ele><time>2026-05-03T07:42:24.617Z</time></trkpt><trkpt lat="39.843028" lon="16.3677901"><ele>1020.0</ele><time>2026-05-03T07:42:25.627Z</time></trkpt><trkpt lat="39.8430673" lon="16.3676646"><ele>1020.0</ele><time>2026-05-03T07:42:26.634Z</time></trkpt><trkpt lat="39.8431112" lon="16.3675287"><ele>1020.0</ele><time>2026-05-03T07:42:27.62Z</time></trkpt><trkpt lat="39.8431495" lon="16.367382"><ele>1020.0</ele><time>2026-05-03T07:42:28.627Z</time></trkpt><trkpt lat="39.8431715" lon="16.3672208"><ele>1020.0</ele><time>2026-05-03T07:42:29.629Z</time></trkpt><trkpt lat="39.8431851" lon="16.3670557"><ele>1019.75</ele><time>2026-05-03T07:42:30.634Z</time></trkpt><trkpt lat="39.8431963" lon="16.3668888"><ele>1019.5</ele><time>2026-05-03T07:42:31.63Z</time></trkpt><trkpt lat="39.8432005" lon="16.3667149"><ele>1019.25</ele><time>2026-05-03T07:42:32.635Z</time></trkpt><trkpt lat="39.8432051" lon="16.3665405"><ele>1019.0</ele><time>2026-05-03T07:42:33.623Z</time></trkpt><trkpt lat="39.8432077" lon="16.366364"><ele>1020.0</ele><time>2026-05-03T07:42:34.625Z</time></trkpt><trkpt lat="39.8431994" lon="16.3661903"><ele>1021.0</ele><time>2026-05-03T07:42:35.622Z</time></trkpt><trkpt lat="39.8431734" lon="16.366019"><ele>1022.0</ele><time>2026-05-03T07:42:36.628Z</time></trkpt><trkpt lat="39.8431365" lon="16.3658452"><ele>1023.0</ele><time>2026-05-03T07:42:37.629Z</time></trkpt><trkpt lat="39.8431129" lon="16.3656656"><ele>1023.75</ele><time>2026-05-03T07:42:38.636Z</time></trkpt><trkpt lat="39.8430961" lon="16.365475"><ele>1024.5</ele><time>2026-05-03T07:42:39.62Z</time></trkpt><trkpt lat="39.8430874" lon="16.3652829"><ele>1025.25</ele><time>2026-05-03T07:42:40.637Z</time></trkpt><trkpt lat="39.8430837" lon="16.3650879"><ele>1026.0</ele><time>2026-05-03T07:42:41.622Z</time></trkpt><trkpt lat="39.8430772" lon="16.3649037"><ele>1026.0</ele><time>2026-05-03T07:42:42.626Z</time></trkpt><trkpt lat="39.8430777" lon="16.3647483"><ele>1026.0</ele><time>2026-05-03T07:42:43.616Z</time></trkpt><trkpt lat="39.8430867" lon="16.3646137"><ele>1026.0</ele><time>2026-05-03T07:42:44.62Z</time></trkpt><trkpt lat="39.843099" lon="16.3644904"><ele>1026.0</ele><time>2026-05-03T07:42:45.614Z</time></trkpt><trkpt lat="39.8431238" lon="16.364374"><ele>1026.0</ele><time>2026-05-03T07:42:46.626Z</time></trkpt><trkpt lat="39.8431746" lon="16.3642589"><ele>1026.0</ele><time>2026-05-03T07:42:47.634Z</time></trkpt><trkpt lat="39.8432444" lon="16.3641452"><ele>1026.0</ele><time>2026-05-03T07:42:48.624Z</time></trkpt><trkpt lat="39.8433256" lon="16.3640434"><ele>1026.0</ele><time>2026-05-03T07:42:49.625Z</time></trkpt><trkpt lat="39.8434093" lon="16.3639462"><ele>1026.0</ele><time>2026-05-03T07:42:50.637Z</time></trkpt><trkpt lat="39.8434803" lon="16.3638637"><ele>1026.0</ele><time>2026-05-03T07:42:51.62Z</time></trkpt><trkpt lat="39.8435398" lon="16.3637853"><ele>1026.0</ele><time>2026-05-03T07:42:52.62Z</time></trkpt><trkpt lat="39.8436089" lon="16.3637094"><ele>1026.0</ele><time>2026-05-03T07:42:53.606Z</time></trkpt><trkpt lat="39.8436708" lon="16.3636282"><ele>1026.0</ele><time>2026-05-03T07:42:54.635Z</time></trkpt><trkpt lat="39.8437328" lon="16.3635431"><ele>1026.0</ele><time>2026-05-03T07:42:55.625Z</time></trkpt><trkpt lat="39.8437837" lon="16.3634664"><ele>1026.0</ele><time>2026-05-03T07:42:56.634Z</time></trkpt><trkpt lat="39.8438675" lon="16.3633582"><ele>1026.0</ele><time>2026-05-03T07:42:58.627Z</time></trkpt><trkpt lat="39.8439615" lon="16.3632814"><ele>1026.0</ele><time>2026-05-03T07:43:00.628Z</time></trkpt><trkpt lat="39.844021" lon="16.3632368"><ele>1026.0</ele><time>2026-05-03T07:43:01.638Z</time></trkpt><trkpt lat="39.8440853" lon="16.3631843"><ele>1026.0</ele><time>2026-05-03T07:43:02.631Z</time></trkpt><trkpt lat="39.8441504" lon="16.3631077"><ele>1026.0</ele><time>2026-05-03T07:43:03.629Z</time></trkpt><trkpt lat="39.8442261" lon="16.3630195"><ele>1026.0</ele><time>2026-05-03T07:43:04.637Z</time></trkpt><trkpt lat="39.8443227" lon="16.3629296"><ele>1023.0</ele><time>2026-05-03T07:43:05.634Z</time></trkpt><trkpt lat="39.8444346" lon="16.3628388"><ele>1020.0</ele><time>2026-05-03T07:43:06.607Z</time></trkpt><trkpt lat="39.8445572" lon="16.3627414"><ele>1017.0</ele><time>2026-05-03T07:43:07.613Z</time></trkpt><trkpt lat="39.8446901" lon="16.3626426"><ele>1014.0</ele><time>2026-05-03T07:43:08.633Z</time></trkpt><trkpt lat="39.8448204" lon="16.3625356"><ele>1014.0</ele><time>2026-05-03T07:43:09.625Z</time></trkpt><trkpt lat="39.8449367" lon="16.3624386"><ele>1014.0</ele><time>2026-05-03T07:43:10.632Z</time></trkpt><trkpt lat="39.8450482" lon="16.3623757"><ele>1014.0</ele><time>2026-05-03T07:43:11.624Z</time></trkpt><trkpt lat="39.8451723" lon="16.3623132"><ele>1014.0</ele><time>2026-05-03T07:43:12.623Z</time></trkpt><trkpt lat="39.8453101" lon="16.3622542"><ele>1012.0</ele><time>2026-05-03T07:43:13.634Z</time></trkpt><trkpt lat="39.845445" lon="16.3621933"><ele>1010.0</ele><time>2026-05-03T07:43:14.633Z</time></trkpt><trkpt lat="39.8455796" lon="16.3621258"><ele>1008.0</ele><time>2026-05-03T07:43:15.625Z</time></trkpt><trkpt lat="39.8457064" lon="16.362063"><ele>1006.0</ele><time>2026-05-03T07:43:16.627Z</time></trkpt><trkpt lat="39.8458366" lon="16.3620022"><ele>1006.75</ele><time>2026-05-03T07:43:17.622Z</time></trkpt><trkpt lat="39.8459662" lon="16.3619415"><ele>1007.5</ele><time>2026-05-03T07:43:18.623Z</time></trkpt><trkpt lat="39.8461038" lon="16.3618811"><ele>1008.25</ele><time>2026-05-03T07:43:19.628Z</time></trkpt><trkpt lat="39.8462412" lon="16.3618167"><ele>1009.0</ele><time>2026-05-03T07:43:20.628Z</time></trkpt><trkpt lat="39.8463658" lon="16.3617523"><ele>1009.0</ele><time>2026-05-03T07:43:21.617Z</time></trkpt><trkpt lat="39.846487" lon="16.3616783"><ele>1009.0</ele><time>2026-05-03T07:43:22.622Z</time></trkpt><trkpt lat="39.8465959" lon="16.3615868"><ele>1009.0</ele><time>2026-05-03T07:43:23.629Z</time></trkpt><trkpt lat="39.8467005" lon="16.3614762"><ele>1009.0</ele><time>2026-05-03T07:43:24.629Z</time></trkpt><trkpt lat="39.8467971" lon="16.3613471"><ele>1015.6666666666666</ele><time>2026-05-03T07:43:25.629Z</time></trkpt><trkpt lat="39.8468803" lon="16.361188"><ele>1022.3333333333333</ele><time>2026-05-03T07:43:26.63Z</time></trkpt><trkpt lat="39.8469555" lon="16.3610142"><ele>1029.0</ele><time>2026-05-03T07:43:27.627Z</time></trkpt><trkpt lat="39.8470256" lon="16.3608339"><ele>1029.0</ele><time>2026-05-03T07:43:28.631Z</time></trkpt><trkpt lat="39.8470975" lon="16.3606631"><ele>1029.0</ele><time>2026-05-03T07:43:29.622Z</time></trkpt><trkpt lat="39.8471677" lon="16.3605097"><ele>1029.0</ele><time>2026-05-03T07:43:30.632Z</time></trkpt><trkpt lat="39.8472412" lon="16.3603805"><ele>1029.0</ele><time>2026-05-03T07:43:31.623Z</time></trkpt><trkpt lat="39.8473014" lon="16.3602496"><ele>1025.0</ele><time>2026-05-03T07:43:32.637Z</time></trkpt><trkpt lat="39.8473454" lon="16.3601178"><ele>1021.0</ele><time>2026-05-03T07:43:33.621Z</time></trkpt><trkpt lat="39.8473684" lon="16.3599647"><ele>1017.0</ele><time>2026-05-03T07:43:34.64Z</time></trkpt><trkpt lat="39.8473764" lon="16.3597994"><ele>1013.0</ele><time>2026-05-03T07:43:35.624Z</time></trkpt><trkpt lat="39.8473741" lon="16.3596304"><ele>1011.25</ele><time>2026-05-03T07:43:36.625Z</time></trkpt><trkpt lat="39.8473727" lon="16.359455"><ele>1009.5</ele><time>2026-05-03T07:43:37.631Z</time></trkpt><trkpt lat="39.8473845" lon="16.3592629"><ele>1007.75</ele><time>2026-05-03T07:43:38.631Z</time></trkpt><trkpt lat="39.847395" lon="16.359076"><ele>1006.0</ele><time>2026-05-03T07:43:39.633Z</time></trkpt><trkpt lat="39.8474033" lon="16.3588983"><ele>1005.5</ele><time>2026-05-03T07:43:40.631Z</time></trkpt><trkpt lat="39.8474213" lon="16.3587389"><ele>1005.0</ele><time>2026-05-03T07:43:41.627Z</time></trkpt><trkpt lat="39.8474629" lon="16.358589"><ele>1004.5</ele><time>2026-05-03T07:43:42.625Z</time></trkpt><trkpt lat="39.8475227" lon="16.358455"><ele>1004.0</ele><time>2026-05-03T07:43:43.626Z</time></trkpt><trkpt lat="39.8476116" lon="16.3583414"><ele>1007.25</ele><time>2026-05-03T07:43:44.631Z</time></trkpt><trkpt lat="39.8477064" lon="16.3582353"><ele>1010.5</ele><time>2026-05-03T07:43:45.61Z</time></trkpt><trkpt lat="39.8477954" lon="16.3581239"><ele>1013.75</ele><time>2026-05-03T07:43:46.626Z</time></trkpt><trkpt lat="39.847892" lon="16.358018"><ele>1017.0</ele><time>2026-05-03T07:43:47.623Z</time></trkpt><trkpt lat="39.8479946" lon="16.3579325"><ele>1017.0</ele><time>2026-05-03T07:43:48.631Z</time></trkpt><trkpt lat="39.8481024" lon="16.3578553"><ele>1017.0</ele><time>2026-05-03T07:43:49.624Z</time></trkpt><trkpt lat="39.8482207" lon="16.3577865"><ele>1017.0</ele><time>2026-05-03T07:43:50.627Z</time></trkpt><trkpt lat="39.8483364" lon="16.3577196"><ele>1017.0</ele><time>2026-05-03T07:43:51.613Z</time></trkpt><trkpt lat="39.8484459" lon="16.3576512"><ele>1019.0</ele><time>2026-05-03T07:43:52.625Z</time></trkpt><trkpt lat="39.8485552" lon="16.3575989"><ele>1021.0</ele><time>2026-05-03T07:43:53.616Z</time></trkpt><trkpt lat="39.8486571" lon="16.3575609"><ele>1023.0</ele><time>2026-05-03T07:43:54.627Z</time></trkpt><trkpt lat="39.8487404" lon="16.3575014"><ele>1025.0</ele><time>2026-05-03T07:43:55.62Z</time></trkpt><trkpt lat="39.8488064" lon="16.3574218"><ele>1027.0</ele><time>2026-05-03T07:43:56.626Z</time></trkpt><trkpt lat="39.8488432" lon="16.3573267"><ele>1027.0</ele><time>2026-05-03T07:43:57.62Z</time></trkpt><trkpt lat="39.8488546" lon="16.3572192"><ele>1027.0</ele><time>2026-05-03T07:43:58.623Z</time></trkpt><trkpt lat="39.8488577" lon="16.3571117"><ele>1027.0</ele><time>2026-05-03T07:43:59.612Z</time></trkpt><trkpt lat="39.8488677" lon="16.3570004"><ele>1027.0</ele><time>2026-05-03T07:44:00.622Z</time></trkpt><trkpt lat="39.8488827" lon="16.3568701"><ele>1027.0</ele><time>2026-05-03T07:44:01.628Z</time></trkpt><trkpt lat="39.848897" lon="16.356726"><ele>1028.0</ele><time>2026-05-03T07:44:02.628Z</time></trkpt><trkpt lat="39.8489049" lon="16.3565779"><ele>1029.0</ele><time>2026-05-03T07:44:03.612Z</time></trkpt><trkpt lat="39.8489163" lon="16.3564254"><ele>1030.0</ele><time>2026-05-03T07:44:04.64Z</time></trkpt><trkpt lat="39.8489271" lon="16.3562692"><ele>1031.0</ele><time>2026-05-03T07:44:05.629Z</time></trkpt><trkpt lat="39.848934" lon="16.356112"><ele>1032.0</ele><time>2026-05-03T07:44:06.63Z</time></trkpt><trkpt lat="39.8489387" lon="16.355959"><ele>1033.0</ele><time>2026-05-03T07:44:07.627Z</time></trkpt><trkpt lat="39.8489469" lon="16.3558109"><ele>1034.0</ele><time>2026-05-03T07:44:08.624Z</time></trkpt><trkpt lat="39.8489679" lon="16.355674"><ele>1035.0</ele><time>2026-05-03T07:44:09.615Z</time></trkpt><trkpt lat="39.8490168" lon="16.3555657"><ele>1036.0</ele><time>2026-05-03T07:44:10.626Z</time></trkpt><trkpt lat="39.8490816" lon="16.3554842"><ele>1036.0</ele><time>2026-05-03T07:44:11.627Z</time></trkpt><trkpt lat="39.8491529" lon="16.3554152"><ele>1036.0</ele><time>2026-05-03T07:44:12.639Z</time></trkpt><trkpt lat="39.8492328" lon="16.3553486"><ele>1036.0</ele><time>2026-05-03T07:44:13.628Z</time></trkpt><trkpt lat="39.8493131" lon="16.3552839"><ele>1036.0</ele><time>2026-05-03T07:44:14.655Z</time></trkpt><trkpt lat="39.8494002" lon="16.3552125"><ele>1036.0</ele><time>2026-05-03T07:44:15.627Z</time></trkpt><trkpt lat="39.8494919" lon="16.3551282"><ele>1039.6</ele><time>2026-05-03T07:44:16.632Z</time></trkpt><trkpt lat="39.8495886" lon="16.3550492"><ele>1043.1999999999998</ele><time>2026-05-03T07:44:17.63Z</time></trkpt><trkpt lat="39.8496917" lon="16.3549876"><ele>1046.8000000000002</ele><time>2026-05-03T07:44:18.63Z</time></trkpt><trkpt lat="39.8497968" lon="16.3549301"><ele>1050.4</ele><time>2026-05-03T07:44:19.62Z</time></trkpt><trkpt lat="39.8498919" lon="16.3548717"><ele>1054.0</ele><time>2026-05-03T07:44:20.63Z</time></trkpt><trkpt lat="39.8499736" lon="16.3548143"><ele>1054.0</ele><time>2026-05-03T07:44:21.634Z</time></trkpt><trkpt lat="39.8500441" lon="16.3547456"><ele>1054.0</ele><time>2026-05-03T07:44:22.637Z</time></trkpt><trkpt lat="39.8501048" lon="16.354659"><ele>1054.0</ele><time>2026-05-03T07:44:23.616Z</time></trkpt><trkpt lat="39.850144" lon="16.354551"><ele>1054.0</ele><time>2026-05-03T07:44:24.618Z</time></trkpt><trkpt lat="39.8501636" lon="16.3544311"><ele>1054.0</ele><time>2026-05-03T07:44:25.631Z</time></trkpt><trkpt lat="39.8501705" lon="16.3543031"><ele>1054.2</ele><time>2026-05-03T07:44:26.627Z</time></trkpt><trkpt lat="39.8501577" lon="16.3541827"><ele>1054.4</ele><time>2026-05-03T07:44:27.642Z</time></trkpt><trkpt lat="39.8501158" lon="16.354088"><ele>1054.6</ele><time>2026-05-03T07:44:28.622Z</time></trkpt><trkpt lat="39.8500596" lon="16.3540096"><ele>1054.8</ele><time>2026-05-03T07:44:29.622Z</time></trkpt><trkpt lat="39.849988" lon="16.3539323"><ele>1055.0</ele><time>2026-05-03T07:44:30.643Z</time></trkpt><trkpt lat="39.8499248" lon="16.3538326"><ele>1056.0</ele><time>2026-05-03T07:44:31.618Z</time></trkpt><trkpt lat="39.8498712" lon="16.3537134"><ele>1057.0</ele><time>2026-05-03T07:44:32.63Z</time></trkpt><trkpt lat="39.8498417" lon="16.3535851"><ele>1058.0</ele><time>2026-05-03T07:44:33.63Z</time></trkpt><trkpt lat="39.8498226" lon="16.3534702"><ele>1059.0</ele><time>2026-05-03T07:44:34.63Z</time></trkpt><trkpt lat="39.8498377" lon="16.353367"><ele>1060.0</ele><time>2026-05-03T07:44:35.621Z</time></trkpt><trkpt lat="39.8498722" lon="16.353268"><ele>1060.0</ele><time>2026-05-03T07:44:36.635Z</time></trkpt><trkpt lat="39.8499321" lon="16.353172"><ele>1060.0</ele><time>2026-05-03T07:44:37.625Z</time></trkpt><trkpt lat="39.8499812" lon="16.3530801"><ele>1060.0</ele><time>2026-05-03T07:44:38.627Z</time></trkpt><trkpt lat="39.8500217" lon="16.3530122"><ele>1060.0</ele><time>2026-05-03T07:44:39.631Z</time></trkpt><trkpt lat="39.8499996" lon="16.3529277"><ele>1060.0</ele><time>2026-05-03T07:44:40.63Z</time></trkpt><trkpt lat="39.8499354" lon="16.3528448"><ele>1060.0</ele><time>2026-05-03T07:44:41.621Z</time></trkpt><trkpt lat="39.8498608" lon="16.3527832"><ele>1060.6666666666665</ele><time>2026-05-03T07:44:42.63Z</time></trkpt><trkpt lat="39.8497849" lon="16.3527221"><ele>1061.3333333333333</ele><time>2026-05-03T07:44:43.63Z</time></trkpt><trkpt lat="39.8497284" lon="16.3526375"><ele>1062.0</ele><time>2026-05-03T07:44:44.624Z</time></trkpt><trkpt lat="39.8497067" lon="16.3525383"><ele>1062.6666666666667</ele><time>2026-05-03T07:44:45.62Z</time></trkpt><trkpt lat="39.8497111" lon="16.3524188"><ele>1063.3333333333335</ele><time>2026-05-03T07:44:46.618Z</time></trkpt><trkpt lat="39.849724" lon="16.3522936"><ele>1064.0</ele><time>2026-05-03T07:44:47.623Z</time></trkpt><trkpt lat="39.8497372" lon="16.3521551"><ele>1066.6000000000001</ele><time>2026-05-03T07:44:48.629Z</time></trkpt><trkpt lat="39.8497403" lon="16.3520173"><ele>1069.2</ele><time>2026-05-03T07:44:49.625Z</time></trkpt><trkpt lat="39.8497198" lon="16.3518763"><ele>1071.8000000000002</ele><time>2026-05-03T07:44:50.628Z</time></trkpt><trkpt lat="39.8496732" lon="16.3517579"><ele>1074.4</ele><time>2026-05-03T07:44:51.615Z</time></trkpt><trkpt lat="39.8496158" lon="16.3516401"><ele>1077.0</ele><time>2026-05-03T07:44:52.628Z</time></trkpt><trkpt lat="39.8495455" lon="16.351536"><ele>1077.0</ele><time>2026-05-03T07:44:53.624Z</time></trkpt><trkpt lat="39.8494766" lon="16.3514416"><ele>1077.0</ele><time>2026-05-03T07:44:54.626Z</time></trkpt><trkpt lat="39.849403" lon="16.351358"><ele>1077.0</ele><time>2026-05-03T07:44:55.609Z</time></trkpt><trkpt lat="39.8493259" lon="16.3512883"><ele>1077.0</ele><time>2026-05-03T07:44:56.625Z</time></trkpt><trkpt lat="39.8492371" lon="16.3512305"><ele>1077.0</ele><time>2026-05-03T07:44:57.63Z</time></trkpt><trkpt lat="39.8491355" lon="16.3511961"><ele>1077.0</ele><time>2026-05-03T07:44:58.629Z</time></trkpt><trkpt lat="39.8490265" lon="16.3511722"><ele>1077.0</ele><time>2026-05-03T07:44:59.612Z</time></trkpt><trkpt lat="39.84891" lon="16.3511574"><ele>1077.0</ele><time>2026-05-03T07:45:00.63Z</time></trkpt><trkpt lat="39.8488013" lon="16.351144"><ele>1077.0</ele><time>2026-05-03T07:45:01.614Z</time></trkpt><trkpt lat="39.8487037" lon="16.3511368"><ele>1077.0</ele><time>2026-05-03T07:45:02.622Z</time></trkpt><trkpt lat="39.8486128" lon="16.3511214"><ele>1077.0</ele><time>2026-05-03T07:45:03.615Z</time></trkpt><trkpt lat="39.8485166" lon="16.35109"><ele>1077.0</ele><time>2026-05-03T07:45:04.621Z</time></trkpt><trkpt lat="39.8484194" lon="16.3510563"><ele>1077.0</ele><time>2026-05-03T07:45:05.612Z</time></trkpt><trkpt lat="39.8483197" lon="16.3510206"><ele>1077.0</ele><time>2026-05-03T07:45:06.644Z</time></trkpt><trkpt lat="39.8482289" lon="16.3509745"><ele>1077.0</ele><time>2026-05-03T07:45:07.622Z</time></trkpt><trkpt lat="39.8481576" lon="16.3509281"><ele>1073.8</ele><time>2026-05-03T07:45:08.635Z</time></trkpt><trkpt lat="39.8481129" lon="16.3508687"><ele>1070.6</ele><time>2026-05-03T07:45:09.62Z</time></trkpt><trkpt lat="39.8480605" lon="16.3507245"><ele>1067.3999999999999</ele><time>2026-05-03T07:45:11.626Z</time></trkpt><trkpt lat="39.8481067" lon="16.3505778"><ele>1064.2</ele><time>2026-05-03T07:45:13.605Z</time></trkpt><trkpt lat="39.8482299" lon="16.3504975"><ele>1061.0</ele><time>2026-05-03T07:45:15.636Z</time></trkpt><trkpt lat="39.8483119" lon="16.3504744"><ele>1060.0</ele><time>2026-05-03T07:45:16.62Z</time></trkpt><trkpt lat="39.8483966" lon="16.3504393"><ele>1059.0</ele><time>2026-05-03T07:45:17.633Z</time></trkpt><trkpt lat="39.8484661" lon="16.3503755"><ele>1058.0</ele><time>2026-05-03T07:45:18.634Z</time></trkpt><trkpt lat="39.8485295" lon="16.3502831"><ele>1057.0</ele><time>2026-05-03T07:45:19.626Z</time></trkpt><trkpt lat="39.8485858" lon="16.3501683"><ele>1056.0</ele><time>2026-05-03T07:45:20.637Z</time></trkpt><trkpt lat="39.8486447" lon="16.3500446"><ele>1059.0</ele><time>2026-05-03T07:45:21.633Z</time></trkpt><trkpt lat="39.8487089" lon="16.3499129"><ele>1062.0</ele><time>2026-05-03T07:45:22.63Z</time></trkpt><trkpt lat="39.848769" lon="16.3497812"><ele>1065.0</ele><time>2026-05-03T07:45:23.625Z</time></trkpt><trkpt lat="39.8488259" lon="16.3496532"><ele>1068.0</ele><time>2026-05-03T07:45:24.634Z</time></trkpt><trkpt lat="39.8488766" lon="16.3495146"><ele>1068.0</ele><time>2026-05-03T07:45:25.618Z</time></trkpt><trkpt lat="39.8489176" lon="16.349363"><ele>1068.0</ele><time>2026-05-03T07:45:26.629Z</time></trkpt><trkpt lat="39.8489499" lon="16.3492016"><ele>1068.0</ele><time>2026-05-03T07:45:27.617Z</time></trkpt><trkpt lat="39.8489735" lon="16.3490355"><ele>1068.0</ele><time>2026-05-03T07:45:28.63Z</time></trkpt><trkpt lat="39.8489868" lon="16.3488699"><ele>1066.6</ele><time>2026-05-03T07:45:29.629Z</time></trkpt><trkpt lat="39.8489998" lon="16.3487215"><ele>1065.1999999999998</ele><time>2026-05-03T07:45:30.633Z</time></trkpt><trkpt lat="39.8490181" lon="16.3485823"><ele>1063.8</ele><time>2026-05-03T07:45:31.649Z</time></trkpt><trkpt lat="39.8490497" lon="16.3484489"><ele>1062.3999999999999</ele><time>2026-05-03T07:45:32.612Z</time></trkpt><trkpt lat="39.8490803" lon="16.3483161"><ele>1061.0</ele><time>2026-05-03T07:45:33.619Z</time></trkpt><trkpt lat="39.8491208" lon="16.3481747"><ele>1059.75</ele><time>2026-05-03T07:45:34.62Z</time></trkpt><trkpt lat="39.8491655" lon="16.3480318"><ele>1058.5</ele><time>2026-05-03T07:45:35.626Z</time></trkpt><trkpt lat="39.8492098" lon="16.3478777"><ele>1057.25</ele><time>2026-05-03T07:45:36.633Z</time></trkpt><trkpt lat="39.8492564" lon="16.3477267"><ele>1056.0</ele><time>2026-05-03T07:45:37.625Z</time></trkpt><trkpt lat="39.8492992" lon="16.3475702"><ele>1055.8</ele><time>2026-05-03T07:45:38.631Z</time></trkpt><trkpt lat="39.8493315" lon="16.3474261"><ele>1055.6</ele><time>2026-05-03T07:45:39.632Z</time></trkpt><trkpt lat="39.8493502" lon="16.3472885"><ele>1055.4</ele><time>2026-05-03T07:45:40.63Z</time></trkpt><trkpt lat="39.849347" lon="16.3471533"><ele>1055.2</ele><time>2026-05-03T07:45:41.631Z</time></trkpt><trkpt lat="39.8493192" lon="16.3470181"><ele>1055.0</ele><time>2026-05-03T07:45:42.631Z</time></trkpt><trkpt lat="39.8492854" lon="16.346894"><ele>1055.0</ele><time>2026-05-03T07:45:43.623Z</time></trkpt><trkpt lat="39.8492568" lon="16.3467861"><ele>1055.0</ele><time>2026-05-03T07:45:44.64Z</time></trkpt><trkpt lat="39.8492501" lon="16.3466926"><ele>1055.0</ele><time>2026-05-03T07:45:45.627Z</time></trkpt><trkpt lat="39.849306" lon="16.3465662"><ele>1055.0</ele><time>2026-05-03T07:45:47.627Z</time></trkpt><trkpt lat="39.849369" lon="16.3465534"><ele>1055.0</ele><time>2026-05-03T07:45:48.622Z</time></trkpt><trkpt lat="39.8494366" lon="16.346565"><ele>1055.0</ele><time>2026-05-03T07:45:49.618Z</time></trkpt><trkpt lat="39.8495012" lon="16.3465927"><ele>1055.0</ele><time>2026-05-03T07:45:50.62Z</time></trkpt><trkpt lat="39.8495786" lon="16.3465928"><ele>1055.0</ele><time>2026-05-03T07:45:51.63Z</time></trkpt><trkpt lat="39.8496492" lon="16.3465892"><ele>1055.0</ele><time>2026-05-03T07:45:52.636Z</time></trkpt><trkpt lat="39.849738" lon="16.346599"><ele>1055.0</ele><time>2026-05-03T07:45:54.639Z</time></trkpt><trkpt lat="39.8498168" lon="16.3465679"><ele>1055.0</ele><time>2026-05-03T07:48:21.627Z</time></trkpt><trkpt lat="39.8499356" lon="16.3465729"><ele>1055.0</ele><time>2026-05-03T07:48:24.629Z</time></trkpt><trkpt lat="39.8499983" lon="16.3465651"><ele>1055.0</ele><time>2026-05-03T07:48:25.642Z</time></trkpt><trkpt lat="39.8500841" lon="16.3465545"><ele>1055.0</ele><time>2026-05-03T07:48:26.629Z</time></trkpt><trkpt lat="39.8501864" lon="16.3465385"><ele>1055.0</ele><time>2026-05-03T07:48:27.614Z</time></trkpt><trkpt lat="39.8504166" lon="16.3464702"><ele>1055.0</ele><time>2026-05-03T07:48:29.62Z</time></trkpt><trkpt lat="39.8505302" lon="16.3464302"><ele>1056.6</ele><time>2026-05-03T07:48:30.638Z</time></trkpt><trkpt lat="39.8506384" lon="16.3463887"><ele>1058.2</ele><time>2026-05-03T07:48:31.635Z</time></trkpt><trkpt lat="39.8507386" lon="16.3463543"><ele>1059.8</ele><time>2026-05-03T07:48:32.624Z</time></trkpt><trkpt lat="39.8508284" lon="16.3463276"><ele>1061.4</ele><time>2026-05-03T07:48:33.627Z</time></trkpt><trkpt lat="39.8509013" lon="16.3463121"><ele>1063.0</ele><time>2026-05-03T07:48:34.633Z</time></trkpt><trkpt lat="39.8509688" lon="16.3463183"><ele>1062.6666666666665</ele><time>2026-05-03T07:48:35.63Z</time></trkpt><trkpt lat="39.8510395" lon="16.3463472"><ele>1062.3333333333333</ele><time>2026-05-03T07:48:36.62Z</time></trkpt><trkpt lat="39.8511095" lon="16.3463922"><ele>1062.0</ele><time>2026-05-03T07:48:37.627Z</time></trkpt><trkpt lat="39.8511821" lon="16.3464451"><ele>1061.6666666666667</ele><time>2026-05-03T07:48:38.619Z</time></trkpt><trkpt lat="39.8512527" lon="16.3464647"><ele>1061.3333333333335</ele><time>2026-05-03T07:48:39.619Z</time></trkpt><trkpt lat="39.8513322" lon="16.346464"><ele>1061.0</ele><time>2026-05-03T07:48:40.625Z</time></trkpt><trkpt lat="39.8514087" lon="16.3464338"><ele>1056.8</ele><time>2026-05-03T07:48:41.63Z</time></trkpt><trkpt lat="39.8515681" lon="16.3463172"><ele>1052.6</ele><time>2026-05-03T07:48:43.641Z</time></trkpt><trkpt lat="39.8516505" lon="16.3462533"><ele>1048.4</ele><time>2026-05-03T07:48:44.632Z</time></trkpt><trkpt lat="39.8517245" lon="16.3462059"><ele>1044.2</ele><time>2026-05-03T07:48:45.648Z</time></trkpt><trkpt lat="39.8517945" lon="16.346182"><ele>1040.0</ele><time>2026-05-03T07:48:46.642Z</time></trkpt><trkpt lat="39.8519139" lon="16.3461993"><ele>1040.8</ele><time>2026-05-03T07:48:48.645Z</time></trkpt><trkpt lat="39.8519764" lon="16.3462364"><ele>1041.6</ele><time>2026-05-03T07:48:49.63Z</time></trkpt><trkpt lat="39.8520554" lon="16.3462981"><ele>1042.4</ele><time>2026-05-03T07:48:50.638Z</time></trkpt><trkpt lat="39.8521331" lon="16.3463788"><ele>1043.2</ele><time>2026-05-03T07:48:51.623Z</time></trkpt><trkpt lat="39.8521931" lon="16.3464742"><ele>1044.0</ele><time>2026-05-03T07:48:52.631Z</time></trkpt><trkpt lat="39.8522527" lon="16.3465833"><ele>1044.0</ele><time>2026-05-03T07:48:53.615Z</time></trkpt><trkpt lat="39.8523228" lon="16.3466959"><ele>1044.0</ele><time>2026-05-03T07:48:54.624Z</time></trkpt><trkpt lat="39.8524" lon="16.3468125"><ele>1044.0</ele><time>2026-05-03T07:48:55.639Z</time></trkpt><trkpt lat="39.8524755" lon="16.3469361"><ele>1044.0</ele><time>2026-05-03T07:48:56.644Z</time></trkpt><trkpt lat="39.8525517" lon="16.3470607"><ele>1043.25</ele><time>2026-05-03T07:48:57.624Z</time></trkpt><trkpt lat="39.8526471" lon="16.3471832"><ele>1042.5</ele><time>2026-05-03T07:48:58.628Z</time></trkpt><trkpt lat="39.8527447" lon="16.3473063"><ele>1041.75</ele><time>2026-05-03T07:48:59.612Z</time></trkpt><trkpt lat="39.8528441" lon="16.3474275"><ele>1041.0</ele><time>2026-05-03T07:49:00.628Z</time></trkpt><trkpt lat="39.8529352" lon="16.3475316"><ele>1041.0</ele><time>2026-05-03T07:49:01.629Z</time></trkpt><trkpt lat="39.8530346" lon="16.3476164"><ele>1041.0</ele><time>2026-05-03T07:49:02.637Z</time></trkpt><trkpt lat="39.8531429" lon="16.3476737"><ele>1041.0</ele><time>2026-05-03T07:49:03.625Z</time></trkpt><trkpt lat="39.8532616" lon="16.3477085"><ele>1041.0</ele><time>2026-05-03T07:49:04.639Z</time></trkpt><trkpt lat="39.8533809" lon="16.3477337"><ele>1040.0</ele><time>2026-05-03T07:49:05.623Z</time></trkpt><trkpt lat="39.8534871" lon="16.3477854"><ele>1039.0</ele><time>2026-05-03T07:49:06.619Z</time></trkpt><trkpt lat="39.8535766" lon="16.3478531"><ele>1038.0</ele><time>2026-05-03T07:49:07.624Z</time></trkpt><trkpt lat="39.8536723" lon="16.3479069"><ele>1037.0</ele><time>2026-05-03T07:49:08.631Z</time></trkpt><trkpt lat="39.8537684" lon="16.3479294"><ele>1036.0</ele><time>2026-05-03T07:49:09.622Z</time></trkpt><trkpt lat="39.8538719" lon="16.3479211"><ele>1036.0</ele><time>2026-05-03T07:49:10.63Z</time></trkpt><trkpt lat="39.8539808" lon="16.3478898"><ele>1036.0</ele><time>2026-05-03T07:49:11.621Z</time></trkpt><trkpt lat="39.8540959" lon="16.3478527"><ele>1036.0</ele><time>2026-05-03T07:49:12.635Z</time></trkpt><trkpt lat="39.8542172" lon="16.3478269"><ele>1036.0</ele><time>2026-05-03T07:49:13.629Z</time></trkpt><trkpt lat="39.8543262" lon="16.3478282"><ele>1035.6</ele><time>2026-05-03T07:49:14.626Z</time></trkpt><trkpt lat="39.8544138" lon="16.3478398"><ele>1035.1999999999998</ele><time>2026-05-03T07:49:15.637Z</time></trkpt><trkpt lat="39.8544902" lon="16.3478916"><ele>1034.8000000000002</ele><time>2026-05-03T07:49:16.624Z</time></trkpt><trkpt lat="39.854556" lon="16.3479712"><ele>1034.4</ele><time>2026-05-03T07:49:17.627Z</time></trkpt><trkpt lat="39.8546311" lon="16.3480471"><ele>1034.0</ele><time>2026-05-03T07:49:18.629Z</time></trkpt><trkpt lat="39.85472" lon="16.3481028"><ele>1034.75</ele><time>2026-05-03T07:49:19.633Z</time></trkpt><trkpt lat="39.854831" lon="16.3481259"><ele>1035.5</ele><time>2026-05-03T07:49:20.618Z</time></trkpt><trkpt lat="39.8549516" lon="16.3481296"><ele>1036.25</ele><time>2026-05-03T07:49:21.632Z</time></trkpt><trkpt lat="39.8550831" lon="16.3481249"><ele>1037.0</ele><time>2026-05-03T07:49:22.628Z</time></trkpt><trkpt lat="39.8552049" lon="16.3481115"><ele>1037.0</ele><time>2026-05-03T07:49:23.625Z</time></trkpt><trkpt lat="39.8553148" lon="16.3481"><ele>1037.0</ele><time>2026-05-03T07:49:24.632Z</time></trkpt><trkpt lat="39.8554016" lon="16.3481035"><ele>1037.0</ele><time>2026-05-03T07:49:25.633Z</time></trkpt><trkpt lat="39.8554702" lon="16.3481432"><ele>1037.0</ele><time>2026-05-03T07:49:26.626Z</time></trkpt><trkpt lat="39.8555438" lon="16.3482098"><ele>1037.0</ele><time>2026-05-03T07:49:27.641Z</time></trkpt><trkpt lat="39.8556227" lon="16.3482937"><ele>1037.0</ele><time>2026-05-03T07:49:28.629Z</time></trkpt><trkpt lat="39.855688" lon="16.3484039"><ele>1037.0</ele><time>2026-05-03T07:49:29.638Z</time></trkpt><trkpt lat="39.8557633" lon="16.3485244"><ele>1037.0</ele><time>2026-05-03T07:49:30.635Z</time></trkpt><trkpt lat="39.855833" lon="16.3486512"><ele>1037.0</ele><time>2026-05-03T07:49:31.631Z</time></trkpt><trkpt lat="39.8558829" lon="16.3487824"><ele>1037.4</ele><time>2026-05-03T07:49:32.645Z</time></trkpt><trkpt lat="39.8559029" lon="16.3489036"><ele>1037.8000000000002</ele><time>2026-05-03T07:49:33.622Z</time></trkpt><trkpt lat="39.8559007" lon="16.3490368"><ele>1038.2</ele><time>2026-05-03T07:49:34.631Z</time></trkpt><trkpt lat="39.8558837" lon="16.3491873"><ele>1038.6000000000001</ele><time>2026-05-03T07:49:35.622Z</time></trkpt><trkpt lat="39.8558701" lon="16.3493482"><ele>1039.0</ele><time>2026-05-03T07:49:36.633Z</time></trkpt><trkpt lat="39.8558591" lon="16.3495218"><ele>1039.0</ele><time>2026-05-03T07:49:37.636Z</time></trkpt><trkpt lat="39.8558543" lon="16.349665"><ele>1039.0</ele><time>2026-05-03T07:49:38.625Z</time></trkpt><trkpt lat="39.8558591" lon="16.3497797"><ele>1039.0</ele><time>2026-05-03T07:49:39.634Z</time></trkpt><trkpt lat="39.8558902" lon="16.3498759"><ele>1039.0</ele><time>2026-05-03T07:49:40.642Z</time></trkpt><trkpt lat="39.8559589" lon="16.3499675"><ele>1039.0</ele><time>2026-05-03T07:49:41.631Z</time></trkpt><trkpt lat="39.8560455" lon="16.3500512"><ele>1033.5</ele><time>2026-05-03T07:49:42.63Z</time></trkpt><trkpt lat="39.8561399" lon="16.350151"><ele>1028.0</ele><time>2026-05-03T07:49:43.623Z</time></trkpt><trkpt lat="39.8562407" lon="16.3502558"><ele>1022.5</ele><time>2026-05-03T07:49:44.622Z</time></trkpt><trkpt lat="39.8563376" lon="16.3503593"><ele>1017.0</ele><time>2026-05-03T07:49:45.627Z</time></trkpt><trkpt lat="39.8564231" lon="16.350468"><ele>1019.25</ele><time>2026-05-03T07:49:46.625Z</time></trkpt><trkpt lat="39.8564969" lon="16.3505897"><ele>1021.5</ele><time>2026-05-03T07:49:47.616Z</time></trkpt><trkpt lat="39.8565507" lon="16.3507358"><ele>1023.75</ele><time>2026-05-03T07:49:48.634Z</time></trkpt><trkpt lat="39.8565895" lon="16.350894"><ele>1026.0</ele><time>2026-05-03T07:49:49.612Z</time></trkpt><trkpt lat="39.8566257" lon="16.3510595"><ele>1026.0</ele><time>2026-05-03T07:49:50.607Z</time></trkpt><trkpt lat="39.8566629" lon="16.3512253"><ele>1026.0</ele><time>2026-05-03T07:49:51.628Z</time></trkpt><trkpt lat="39.856701" lon="16.3513906"><ele>1026.0</ele><time>2026-05-03T07:49:52.615Z</time></trkpt><trkpt lat="39.856734" lon="16.3515585"><ele>1026.0</ele><time>2026-05-03T07:49:53.644Z</time></trkpt><trkpt lat="39.8567698" lon="16.3517099"><ele>1024.3999999999999</ele><time>2026-05-03T07:49:54.649Z</time></trkpt><trkpt lat="39.856813" lon="16.3518423"><ele>1022.8</ele><time>2026-05-03T07:49:55.646Z</time></trkpt><trkpt lat="39.8568643" lon="16.3519601"><ele>1021.1999999999999</ele><time>2026-05-03T07:49:56.637Z</time></trkpt><trkpt lat="39.8569213" lon="16.3520614"><ele>1019.5999999999999</ele><time>2026-05-03T07:49:57.635Z</time></trkpt><trkpt lat="39.8569869" lon="16.3521391"><ele>1018.0</ele><time>2026-05-03T07:49:58.645Z</time></trkpt><trkpt lat="39.8570735" lon="16.3521826"><ele>1018.0</ele><time>2026-05-03T07:49:59.613Z</time></trkpt><trkpt lat="39.8571758" lon="16.3521907"><ele>1018.0</ele><time>2026-05-03T07:50:00.65Z</time></trkpt><trkpt lat="39.8572847" lon="16.352183"><ele>1018.0</ele><time>2026-05-03T07:50:01.636Z</time></trkpt><trkpt lat="39.8574095" lon="16.3521781"><ele>1018.0</ele><time>2026-05-03T07:50:02.627Z</time></trkpt><trkpt lat="39.8575344" lon="16.3521848"><ele>1018.75</ele><time>2026-05-03T07:50:03.631Z</time></trkpt><trkpt lat="39.8576685" lon="16.3522048"><ele>1019.5</ele><time>2026-05-03T07:50:04.622Z</time></trkpt><trkpt lat="39.8578079" lon="16.3522353"><ele>1020.25</ele><time>2026-05-03T07:50:05.63Z</time></trkpt><trkpt lat="39.857952" lon="16.3522769"><ele>1021.0</ele><time>2026-05-03T07:50:06.623Z</time></trkpt><trkpt lat="39.8580995" lon="16.3523233"><ele>1021.0</ele><time>2026-05-03T07:50:07.637Z</time></trkpt><trkpt lat="39.8582419" lon="16.3523609"><ele>1021.0</ele><time>2026-05-03T07:50:08.635Z</time></trkpt><trkpt lat="39.8583673" lon="16.3523873"><ele>1021.0</ele><time>2026-05-03T07:50:09.652Z</time></trkpt><trkpt lat="39.8584816" lon="16.3524266"><ele>1021.0</ele><time>2026-05-03T07:50:10.658Z</time></trkpt><trkpt lat="39.8585846" lon="16.3524804"><ele>1017.5</ele><time>2026-05-03T07:50:11.653Z</time></trkpt><trkpt lat="39.8586788" lon="16.3525559"><ele>1014.0</ele><time>2026-05-03T07:50:12.643Z</time></trkpt><trkpt lat="39.8587702" lon="16.3526643"><ele>1010.5</ele><time>2026-05-03T07:50:13.626Z</time></trkpt><trkpt lat="39.858858" lon="16.3527953"><ele>1007.0</ele><time>2026-05-03T07:50:14.632Z</time></trkpt><trkpt lat="39.8589595" lon="16.352906"><ele>1007.0</ele><time>2026-05-03T07:50:15.618Z</time></trkpt><trkpt lat="39.8590796" lon="16.353"><ele>1007.0</ele><time>2026-05-03T07:50:16.63Z</time></trkpt><trkpt lat="39.8592098" lon="16.3530682"><ele>1007.0</ele><time>2026-05-03T07:50:17.629Z</time></trkpt><trkpt lat="39.8593459" lon="16.3531318"><ele>1007.0</ele><time>2026-05-03T07:50:18.639Z</time></trkpt><trkpt lat="39.8594797" lon="16.3531868"><ele>1008.0</ele><time>2026-05-03T07:50:19.633Z</time></trkpt><trkpt lat="39.8595898" lon="16.353247"><ele>1009.0</ele><time>2026-05-03T07:50:20.634Z</time></trkpt><trkpt lat="39.8596892" lon="16.3533062"><ele>1010.0</ele><time>2026-05-03T07:50:21.626Z</time></trkpt><trkpt lat="39.8597867" lon="16.353384"><ele>1011.0</ele><time>2026-05-03T07:50:22.638Z</time></trkpt><trkpt lat="39.8598757" lon="16.3534845"><ele>1011.0</ele><time>2026-05-03T07:50:23.624Z</time></trkpt><trkpt lat="39.8599483" lon="16.3535798"><ele>1010.9999999999999</ele><time>2026-05-03T07:50:24.632Z</time></trkpt><trkpt lat="39.8600236" lon="16.3536527"><ele>1010.9999999999999</ele><time>2026-05-03T07:50:25.65Z</time></trkpt><trkpt lat="39.8601235" lon="16.35369"><ele>1011.0</ele><time>2026-05-03T07:50:26.645Z</time></trkpt><trkpt lat="39.8602279" lon="16.353698"><ele>1011.0</ele><time>2026-05-03T07:50:27.634Z</time></trkpt><trkpt lat="39.860337" lon="16.3536828"><ele>1010.1999999999999</ele><time>2026-05-03T07:50:28.628Z</time></trkpt><trkpt lat="39.8604539" lon="16.3536487"><ele>1009.3999999999999</ele><time>2026-05-03T07:50:29.607Z</time></trkpt><trkpt lat="39.8605754" lon="16.3536129"><ele>1008.6</ele><time>2026-05-03T07:50:30.621Z</time></trkpt><trkpt lat="39.8606833" lon="16.3535925"><ele>1007.8</ele><time>2026-05-03T07:50:31.623Z</time></trkpt><trkpt lat="39.8607766" lon="16.3536095"><ele>1007.0</ele><time>2026-05-03T07:50:32.616Z</time></trkpt><trkpt lat="39.8608431" lon="16.3536632"><ele>1007.0</ele><time>2026-05-03T07:50:33.631Z</time></trkpt><trkpt lat="39.8608978" lon="16.3537392"><ele>1007.0</ele><time>2026-05-03T07:50:34.636Z</time></trkpt><trkpt lat="39.8609419" lon="16.3538433"><ele>1007.0</ele><time>2026-05-03T07:50:35.623Z</time></trkpt><trkpt lat="39.8609698" lon="16.3539703"><ele>1007.0</ele><time>2026-05-03T07:50:36.621Z</time></trkpt><trkpt lat="39.8609867" lon="16.3540987"><ele>1007.0</ele><time>2026-05-03T07:50:37.619Z</time></trkpt><trkpt lat="39.8610392" lon="16.354214"><ele>1004.0</ele><time>2026-05-03T07:50:38.632Z</time></trkpt><trkpt lat="39.861127" lon="16.3543155"><ele>1001.0</ele><time>2026-05-03T07:50:39.625Z</time></trkpt><trkpt lat="39.8612251" lon="16.3544127"><ele>998.0</ele><time>2026-05-03T07:50:40.628Z</time></trkpt><trkpt lat="39.8613231" lon="16.3545274"><ele>995.0</ele><time>2026-05-03T07:50:41.614Z</time></trkpt><trkpt lat="39.8614181" lon="16.3546494"><ele>997.2</ele><time>2026-05-03T07:50:42.648Z</time></trkpt><trkpt lat="39.8615058" lon="16.3547602"><ele>999.4</ele><time>2026-05-03T07:50:43.636Z</time></trkpt><trkpt lat="39.8615774" lon="16.3548573"><ele>1001.5999999999999</ele><time>2026-05-03T07:50:44.632Z</time></trkpt><trkpt lat="39.8616372" lon="16.3549563"><ele>1003.8</ele><time>2026-05-03T07:50:45.623Z</time></trkpt><trkpt lat="39.861667" lon="16.3550657"><ele>1006.0</ele><time>2026-05-03T07:50:46.633Z</time></trkpt><trkpt lat="39.8616622" lon="16.3551898"><ele>1006.0</ele><time>2026-05-03T07:50:47.631Z</time></trkpt><trkpt lat="39.8616331" lon="16.3553225"><ele>1005.9999999999999</ele><time>2026-05-03T07:50:48.639Z</time></trkpt><trkpt lat="39.8615861" lon="16.3554576"><ele>1005.9999999999999</ele><time>2026-05-03T07:50:49.633Z</time></trkpt><trkpt lat="39.86153" lon="16.3555864"><ele>1006.0</ele><time>2026-05-03T07:50:50.635Z</time></trkpt><trkpt lat="39.8614843" lon="16.355716"><ele>1006.0</ele><time>2026-05-03T07:50:51.62Z</time></trkpt><trkpt lat="39.8614723" lon="16.3558233"><ele>1004.5999999999999</ele><time>2026-05-03T07:50:52.653Z</time></trkpt><trkpt lat="39.8615059" lon="16.3558998"><ele>1003.1999999999999</ele><time>2026-05-03T07:50:53.646Z</time></trkpt><trkpt lat="39.8616082" lon="16.3559403"><ele>1001.8000000000001</ele><time>2026-05-03T07:50:55.639Z</time></trkpt><trkpt lat="39.8617056" lon="16.3558191"><ele>1000.4000000000001</ele><time>2026-05-03T07:50:57.645Z</time></trkpt><trkpt lat="39.8617445" lon="16.3557126"><ele>999.0</ele><time>2026-05-03T07:50:58.63Z</time></trkpt><trkpt lat="39.8617935" lon="16.355585"><ele>996.75</ele><time>2026-05-03T07:50:59.627Z</time></trkpt><trkpt lat="39.86185" lon="16.3554474"><ele>994.5</ele><time>2026-05-03T07:51:00.641Z</time></trkpt><trkpt lat="39.8619172" lon="16.3553227"><ele>992.25</ele><time>2026-05-03T07:51:01.63Z</time></trkpt><trkpt lat="39.8619942" lon="16.3552142"><ele>990.0</ele><time>2026-05-03T07:51:02.63Z</time></trkpt><trkpt lat="39.8620863" lon="16.3551223"><ele>990.0</ele><time>2026-05-03T07:51:03.615Z</time></trkpt><trkpt lat="39.8621828" lon="16.3550306"><ele>990.0</ele><time>2026-05-03T07:51:04.651Z</time></trkpt><trkpt lat="39.862284" lon="16.3549377"><ele>990.0</ele><time>2026-05-03T07:51:05.625Z</time></trkpt><trkpt lat="39.8623916" lon="16.3548565"><ele>990.0</ele><time>2026-05-03T07:51:06.628Z</time></trkpt><trkpt lat="39.8625075" lon="16.3547933"><ele>987.25</ele><time>2026-05-03T07:51:07.62Z</time></trkpt><trkpt lat="39.8626217" lon="16.3547397"><ele>984.5</ele><time>2026-05-03T07:51:08.629Z</time></trkpt><trkpt lat="39.8627274" lon="16.3546763"><ele>981.75</ele><time>2026-05-03T07:51:09.631Z</time></trkpt><trkpt lat="39.862819" lon="16.3545898"><ele>979.0</ele><time>2026-05-03T07:51:10.647Z</time></trkpt><trkpt lat="39.8628911" lon="16.3544998"><ele>979.0</ele><time>2026-05-03T07:51:11.642Z</time></trkpt><trkpt lat="39.862953" lon="16.3543995"><ele>979.0</ele><time>2026-05-03T07:51:12.627Z</time></trkpt><trkpt lat="39.8630063" lon="16.354267"><ele>979.0</ele><time>2026-05-03T07:51:13.63Z</time></trkpt><trkpt lat="39.8630587" lon="16.3541231"><ele>979.0</ele><time>2026-05-03T07:51:14.64Z</time></trkpt><trkpt lat="39.8631185" lon="16.35398"><ele>977.25</ele><time>2026-05-03T07:51:15.65Z</time></trkpt><trkpt lat="39.8631816" lon="16.3538406"><ele>975.5</ele><time>2026-05-03T07:51:16.641Z</time></trkpt><trkpt lat="39.8632466" lon="16.3537181"><ele>973.75</ele><time>2026-05-03T07:51:17.645Z</time></trkpt><trkpt lat="39.8633138" lon="16.3536111"><ele>972.0</ele><time>2026-05-03T07:51:18.645Z</time></trkpt><trkpt lat="39.8633921" lon="16.3535189"><ele>971.4000000000001</ele><time>2026-05-03T07:51:19.627Z</time></trkpt><trkpt lat="39.863471" lon="16.3534476"><ele>970.8000000000001</ele><time>2026-05-03T07:51:20.652Z</time></trkpt><trkpt lat="39.8635578" lon="16.3533919"><ele>970.2</ele><time>2026-05-03T07:51:21.643Z</time></trkpt><trkpt lat="39.8636549" lon="16.3533459"><ele>969.6</ele><time>2026-05-03T07:51:22.649Z</time></trkpt><trkpt lat="39.8637638" lon="16.3533143"><ele>969.0</ele><time>2026-05-03T07:51:23.641Z</time></trkpt><trkpt lat="39.8638807" lon="16.3532954"><ele>969.0</ele><time>2026-05-03T07:51:24.649Z</time></trkpt><trkpt lat="39.8639894" lon="16.3533051"><ele>969.0000000000001</ele><time>2026-05-03T07:51:25.632Z</time></trkpt><trkpt lat="39.864094" lon="16.3533281"><ele>969.0000000000001</ele><time>2026-05-03T07:51:26.631Z</time></trkpt><trkpt lat="39.8641843" lon="16.3533615"><ele>969.0</ele><time>2026-05-03T07:51:27.63Z</time></trkpt><trkpt lat="39.86427" lon="16.353405"><ele>969.0</ele><time>2026-05-03T07:51:28.643Z</time></trkpt><trkpt lat="39.864342" lon="16.3534609"><ele>969.1666666666666</ele><time>2026-05-03T07:51:29.64Z</time></trkpt><trkpt lat="39.8643986" lon="16.3535213"><ele>969.3333333333333</ele><time>2026-05-03T07:51:30.635Z</time></trkpt><trkpt lat="39.8644648" lon="16.3536159"><ele>969.5</ele><time>2026-05-03T07:51:32.644Z</time></trkpt><trkpt lat="39.8645234" lon="16.3536685"><ele>969.6666666666666</ele><time>2026-05-03T07:52:26.648Z</time></trkpt><trkpt lat="39.8645866" lon="16.3536537"><ele>969.8333333333333</ele><time>2026-05-03T07:52:54.631Z</time></trkpt><trkpt lat="39.8645713" lon="16.3535491"><ele>970.0</ele><time>2026-05-03T07:52:57.629Z</time></trkpt><trkpt lat="39.8645454" lon="16.3534129"><ele>969.9999999999999</ele><time>2026-05-03T07:52:59.618Z</time></trkpt><trkpt lat="39.8645242" lon="16.35333"><ele>970.0</ele><time>2026-05-03T07:53:00.629Z</time></trkpt><trkpt lat="39.8644958" lon="16.3532427"><ele>970.0</ele><time>2026-05-03T07:53:01.612Z</time></trkpt><trkpt lat="39.8644513" lon="16.353156"><ele>970.0</ele><time>2026-05-03T07:53:02.626Z</time></trkpt><trkpt lat="39.8643907" lon="16.353079"><ele>969.9999999999999</ele><time>2026-05-03T07:53:03.617Z</time></trkpt><trkpt lat="39.8643081" lon="16.353021"><ele>970.0</ele><time>2026-05-03T07:53:04.64Z</time></trkpt><trkpt lat="39.8642177" lon="16.3529728"><ele>967.6666666666666</ele><time>2026-05-03T07:53:05.617Z</time></trkpt><trkpt lat="39.864132" lon="16.3529332"><ele>965.3333333333333</ele><time>2026-05-03T07:53:06.632Z</time></trkpt><trkpt lat="39.8640524" lon="16.3528983"><ele>963.0</ele><time>2026-05-03T07:53:07.64Z</time></trkpt><trkpt lat="39.8639773" lon="16.3528764"><ele>960.6666666666667</ele><time>2026-05-03T07:53:08.612Z</time></trkpt><trkpt lat="39.8639081" lon="16.352851"><ele>958.3333333333334</ele><time>2026-05-03T07:53:09.609Z</time></trkpt><trkpt lat="39.8638409" lon="16.3528308"><ele>956.0</ele><time>2026-05-03T07:53:10.617Z</time></trkpt><trkpt lat="39.8637775" lon="16.3528127"><ele>956.0000000000001</ele><time>2026-05-03T07:53:11.61Z</time></trkpt><trkpt lat="39.8637098" lon="16.3528123"><ele>956.0</ele><time>2026-05-03T07:53:12.626Z</time></trkpt><trkpt lat="39.8636317" lon="16.3528341"><ele>956.0</ele><time>2026-05-03T07:53:13.641Z</time></trkpt><trkpt lat="39.863551" lon="16.3528826"><ele>956.0</ele><time>2026-05-03T07:53:14.633Z</time></trkpt><trkpt lat="39.8634768" lon="16.3529503"><ele>956.0000000000001</ele><time>2026-05-03T07:53:15.639Z</time></trkpt><trkpt lat="39.8634108" lon="16.3530341"><ele>956.0</ele><time>2026-05-03T07:53:16.622Z</time></trkpt><trkpt lat="39.8633605" lon="16.3531118"><ele>956.4</ele><time>2026-05-03T07:53:17.643Z</time></trkpt><trkpt lat="39.8633092" lon="16.3531647"><ele>956.8</ele><time>2026-05-03T07:53:18.642Z</time></trkpt><trkpt lat="39.8631979" lon="16.3531803"><ele>957.1999999999999</ele><time>2026-05-03T07:53:20.627Z</time></trkpt><trkpt lat="39.8631188" lon="16.3530649"><ele>957.5999999999999</ele><time>2026-05-03T07:53:22.633Z</time></trkpt><trkpt lat="39.8631494" lon="16.3529138"><ele>958.0</ele><time>2026-05-03T07:53:24.637Z</time></trkpt><trkpt lat="39.8632097" lon="16.3528568"><ele>958.0</ele><time>2026-05-03T07:53:25.622Z</time></trkpt><trkpt lat="39.8632784" lon="16.3527983"><ele>958.0</ele><time>2026-05-03T07:53:26.632Z</time></trkpt><trkpt lat="39.8633675" lon="16.3527267"><ele>958.0</ele><time>2026-05-03T07:53:27.634Z</time></trkpt><trkpt lat="39.8634681" lon="16.3526609"><ele>958.0</ele><time>2026-05-03T07:53:28.633Z</time></trkpt><trkpt lat="39.863565" lon="16.3526002"><ele>958.0</ele><time>2026-05-03T07:53:29.638Z</time></trkpt><trkpt lat="39.863657" lon="16.3525515"><ele>957.5999999999999</ele><time>2026-05-03T07:53:30.626Z</time></trkpt><trkpt lat="39.8637467" lon="16.3525157"><ele>957.1999999999999</ele><time>2026-05-03T07:53:31.63Z</time></trkpt><trkpt lat="39.8638353" lon="16.3524924"><ele>956.8</ele><time>2026-05-03T07:53:32.631Z</time></trkpt><trkpt lat="39.8639265" lon="16.3524766"><ele>956.4</ele><time>2026-05-03T07:53:33.63Z</time></trkpt><trkpt lat="39.8640229" lon="16.3524795"><ele>956.0</ele><time>2026-05-03T07:53:34.63Z</time></trkpt><trkpt lat="39.8641335" lon="16.3524938"><ele>956.0</ele><time>2026-05-03T07:53:35.631Z</time></trkpt><trkpt lat="39.8642534" lon="16.352528"><ele>956.0</ele><time>2026-05-03T07:53:36.638Z</time></trkpt><trkpt lat="39.8643785" lon="16.3525622"><ele>956.0</ele><time>2026-05-03T07:53:37.623Z</time></trkpt><trkpt lat="39.8645114" lon="16.3525873"><ele>956.0</ele><time>2026-05-03T07:53:38.637Z</time></trkpt><trkpt lat="39.8646479" lon="16.3526154"><ele>955.25</ele><time>2026-05-03T07:53:39.624Z</time></trkpt><trkpt lat="39.8647835" lon="16.3526405"><ele>954.5</ele><time>2026-05-03T07:53:40.624Z</time></trkpt><trkpt lat="39.864924" lon="16.3526509"><ele>953.75</ele><time>2026-05-03T07:53:41.637Z</time></trkpt><trkpt lat="39.8650683" lon="16.3526514"><ele>953.0</ele><time>2026-05-03T07:53:42.619Z</time></trkpt><trkpt lat="39.8652143" lon="16.3526562"><ele>951.75</ele><time>2026-05-03T07:53:43.632Z</time></trkpt><trkpt lat="39.8653562" lon="16.3526722"><ele>950.5</ele><time>2026-05-03T07:53:44.628Z</time></trkpt><trkpt lat="39.8654865" lon="16.3526932"><ele>949.25</ele><time>2026-05-03T07:53:45.627Z</time></trkpt><trkpt lat="39.8656061" lon="16.3527224"><ele>948.0</ele><time>2026-05-03T07:53:46.638Z</time></trkpt><trkpt lat="39.8657233" lon="16.3527407"><ele>948.0</ele><time>2026-05-03T07:53:47.631Z</time></trkpt><trkpt lat="39.8658498" lon="16.3527411"><ele>948.0</ele><time>2026-05-03T07:53:48.621Z</time></trkpt><trkpt lat="39.8659844" lon="16.3527261"><ele>948.0</ele><time>2026-05-03T07:53:49.605Z</time></trkpt><trkpt lat="39.8661165" lon="16.3527013"><ele>948.0</ele><time>2026-05-03T07:53:50.64Z</time></trkpt><trkpt lat="39.8662555" lon="16.3526877"><ele>945.75</ele><time>2026-05-03T07:53:51.626Z</time></trkpt><trkpt lat="39.8663901" lon="16.3526633"><ele>943.5</ele><time>2026-05-03T07:53:52.623Z</time></trkpt><trkpt lat="39.8665277" lon="16.3526409"><ele>941.25</ele><time>2026-05-03T07:53:53.629Z</time></trkpt><trkpt lat="39.8666744" lon="16.3526271"><ele>939.0</ele><time>2026-05-03T07:53:54.638Z</time></trkpt><trkpt lat="39.8668262" lon="16.3526107"><ele>938.5</ele><time>2026-05-03T07:53:55.629Z</time></trkpt><trkpt lat="39.8669676" lon="16.3525967"><ele>938.0</ele><time>2026-05-03T07:53:56.641Z</time></trkpt><trkpt lat="39.8671054" lon="16.3525872"><ele>937.5</ele><time>2026-05-03T07:53:57.624Z</time></trkpt><trkpt lat="39.8672437" lon="16.3525795"><ele>937.0</ele><time>2026-05-03T07:53:58.639Z</time></trkpt><trkpt lat="39.8673753" lon="16.3525706"><ele>937.0</ele><time>2026-05-03T07:53:59.637Z</time></trkpt><trkpt lat="39.8675128" lon="16.3525546"><ele>937.0</ele><time>2026-05-03T07:54:00.629Z</time></trkpt><trkpt lat="39.8676572" lon="16.3525369"><ele>937.0</ele><time>2026-05-03T07:54:01.62Z</time></trkpt><trkpt lat="39.8678099" lon="16.3525263"><ele>937.0</ele><time>2026-05-03T07:54:02.647Z</time></trkpt><trkpt lat="39.8679608" lon="16.3525084"><ele>937.25</ele><time>2026-05-03T07:54:03.619Z</time></trkpt><trkpt lat="39.868109" lon="16.3524825"><ele>937.5</ele><time>2026-05-03T07:54:04.641Z</time></trkpt><trkpt lat="39.8682498" lon="16.3524648"><ele>937.75</ele><time>2026-05-03T07:54:05.627Z</time></trkpt><trkpt lat="39.8683757" lon="16.3524306"><ele>938.0</ele><time>2026-05-03T07:54:06.639Z</time></trkpt><trkpt lat="39.8684812" lon="16.3523913"><ele>936.75</ele><time>2026-05-03T07:54:07.621Z</time></trkpt><trkpt lat="39.8685733" lon="16.3523225"><ele>935.5</ele><time>2026-05-03T07:54:08.633Z</time></trkpt><trkpt lat="39.8686574" lon="16.3522187"><ele>934.25</ele><time>2026-05-03T07:54:09.626Z</time></trkpt><trkpt lat="39.8687278" lon="16.3520912"><ele>933.0</ele><time>2026-05-03T07:54:10.634Z</time></trkpt><trkpt lat="39.8687976" lon="16.3519462"><ele>933.0</ele><time>2026-05-03T07:54:11.634Z</time></trkpt><trkpt lat="39.8688671" lon="16.3518179"><ele>933.0</ele><time>2026-05-03T07:54:12.625Z</time></trkpt><trkpt lat="39.8689383" lon="16.3517239"><ele>933.0</ele><time>2026-05-03T07:54:13.621Z</time></trkpt><trkpt lat="39.8690054" lon="16.351623"><ele>933.0</ele><time>2026-05-03T07:54:14.633Z</time></trkpt><trkpt lat="39.8690816" lon="16.3515306"><ele>933.0</ele><time>2026-05-03T07:54:15.624Z</time></trkpt><trkpt lat="39.8691675" lon="16.3514545"><ele>933.0</ele><time>2026-05-03T07:54:16.631Z</time></trkpt><trkpt lat="39.8692486" lon="16.3514246"><ele>933.0</ele><time>2026-05-03T07:54:17.62Z</time></trkpt><trkpt lat="39.8693263" lon="16.3514153"><ele>933.0</ele><time>2026-05-03T07:54:18.637Z</time></trkpt><trkpt lat="39.8693991" lon="16.3514364"><ele>933.0</ele><time>2026-05-03T07:54:19.622Z</time></trkpt><trkpt lat="39.869478" lon="16.3514869"><ele>933.0</ele><time>2026-05-03T07:54:20.633Z</time></trkpt><trkpt lat="39.8695551" lon="16.3515629"><ele>933.0</ele><time>2026-05-03T07:54:21.621Z</time></trkpt><trkpt lat="39.8696325" lon="16.3516568"><ele>930.75</ele><time>2026-05-03T07:54:22.63Z</time></trkpt><trkpt lat="39.869719" lon="16.3517667"><ele>928.5</ele><time>2026-05-03T07:54:23.636Z</time></trkpt><trkpt lat="39.8698162" lon="16.3518829"><ele>926.25</ele><time>2026-05-03T07:54:24.637Z</time></trkpt><trkpt lat="39.8699148" lon="16.3520025"><ele>924.0</ele><time>2026-05-03T07:54:25.619Z</time></trkpt><trkpt lat="39.8700062" lon="16.3521056"><ele>924.0</ele><time>2026-05-03T07:54:26.631Z</time></trkpt><trkpt lat="39.8700901" lon="16.3521861"><ele>924.0000000000001</ele><time>2026-05-03T07:54:27.637Z</time></trkpt><trkpt lat="39.8701712" lon="16.3522587"><ele>924.0000000000001</ele><time>2026-05-03T07:54:28.642Z</time></trkpt><trkpt lat="39.8702693" lon="16.352293"><ele>924.0</ele><time>2026-05-03T07:54:29.625Z</time></trkpt><trkpt lat="39.8703864" lon="16.3523029"><ele>924.0</ele><time>2026-05-03T07:54:30.622Z</time></trkpt><trkpt lat="39.8705075" lon="16.3522946"><ele>925.25</ele><time>2026-05-03T07:54:31.632Z</time></trkpt><trkpt lat="39.8706443" lon="16.3522854"><ele>926.5</ele><time>2026-05-03T07:54:32.629Z</time></trkpt><trkpt lat="39.8707744" lon="16.3522702"><ele>927.75</ele><time>2026-05-03T07:54:33.618Z</time></trkpt><trkpt lat="39.8708944" lon="16.3522598"><ele>929.0</ele><time>2026-05-03T07:54:34.633Z</time></trkpt><trkpt lat="39.8709972" lon="16.3522511"><ele>928.0</ele><time>2026-05-03T07:54:35.607Z</time></trkpt><trkpt lat="39.8710912" lon="16.3522409"><ele>927.0000000000001</ele><time>2026-05-03T07:54:36.625Z</time></trkpt><trkpt lat="39.8711867" lon="16.352207"><ele>926.0000000000001</ele><time>2026-05-03T07:54:37.628Z</time></trkpt><trkpt lat="39.8712729" lon="16.3521357"><ele>925.0</ele><time>2026-05-03T07:54:38.631Z</time></trkpt><trkpt lat="39.8713449" lon="16.3520335"><ele>924.0</ele><time>2026-05-03T07:54:39.625Z</time></trkpt><trkpt lat="39.8714088" lon="16.3519045"><ele>924.0</ele><time>2026-05-03T07:54:40.632Z</time></trkpt><trkpt lat="39.8714755" lon="16.351767"><ele>924.0</ele><time>2026-05-03T07:54:41.627Z</time></trkpt><trkpt lat="39.8715504" lon="16.3516221"><ele>924.0</ele><time>2026-05-03T07:54:42.626Z</time></trkpt><trkpt lat="39.8716365" lon="16.3514704"><ele>924.0</ele><time>2026-05-03T07:54:43.629Z</time></trkpt><trkpt lat="39.8717225" lon="16.3513083"><ele>925.25</ele><time>2026-05-03T07:54:44.64Z</time></trkpt><trkpt lat="39.8718045" lon="16.3511437"><ele>926.5</ele><time>2026-05-03T07:54:45.623Z</time></trkpt><trkpt lat="39.8718764" lon="16.3509996"><ele>927.75</ele><time>2026-05-03T07:54:46.629Z</time></trkpt><trkpt lat="39.8719485" lon="16.3508739"><ele>929.0</ele><time>2026-05-03T07:54:47.636Z</time></trkpt><trkpt lat="39.8720087" lon="16.3507428"><ele>929.0</ele><time>2026-05-03T07:54:48.635Z</time></trkpt><trkpt lat="39.8720683" lon="16.3506017"><ele>929.0</ele><time>2026-05-03T07:54:49.632Z</time></trkpt><trkpt lat="39.8721215" lon="16.3504508"><ele>929.0</ele><time>2026-05-03T07:54:50.633Z</time></trkpt><trkpt lat="39.8721613" lon="16.3502854"><ele>929.0</ele><time>2026-05-03T07:54:51.633Z</time></trkpt><trkpt lat="39.8721904" lon="16.350114"><ele>927.25</ele><time>2026-05-03T07:54:52.629Z</time></trkpt><trkpt lat="39.8722136" lon="16.3499258"><ele>925.5</ele><time>2026-05-03T07:54:53.629Z</time></trkpt><trkpt lat="39.8722405" lon="16.3497316"><ele>923.75</ele><time>2026-05-03T07:54:54.627Z</time></trkpt><trkpt lat="39.8722679" lon="16.3495439"><ele>922.0</ele><time>2026-05-03T07:54:55.636Z</time></trkpt><trkpt lat="39.8722882" lon="16.349368"><ele>919.75</ele><time>2026-05-03T07:54:56.623Z</time></trkpt><trkpt lat="39.872311" lon="16.3492049"><ele>917.5</ele><time>2026-05-03T07:54:57.631Z</time></trkpt><trkpt lat="39.8723417" lon="16.3490481"><ele>915.25</ele><time>2026-05-03T07:54:58.641Z</time></trkpt><trkpt lat="39.8723861" lon="16.3488957"><ele>913.0</ele><time>2026-05-03T07:54:59.651Z</time></trkpt><trkpt lat="39.872439" lon="16.348738"><ele>913.0</ele><time>2026-05-03T07:55:00.642Z</time></trkpt><trkpt lat="39.8724923" lon="16.3485879"><ele>913.0</ele><time>2026-05-03T07:55:01.625Z</time></trkpt><trkpt lat="39.8725342" lon="16.3484466"><ele>913.0</ele><time>2026-05-03T07:55:02.641Z</time></trkpt><trkpt lat="39.8725561" lon="16.348309"><ele>913.0</ele><time>2026-05-03T07:55:03.646Z</time></trkpt><trkpt lat="39.872559" lon="16.3481795"><ele>912.9999999999999</ele><time>2026-05-03T07:55:04.629Z</time></trkpt><trkpt lat="39.8725388" lon="16.3480663"><ele>913.0</ele><time>2026-05-03T07:55:05.643Z</time></trkpt><trkpt lat="39.8724961" lon="16.3479782"><ele>913.0</ele><time>2026-05-03T07:55:06.634Z</time></trkpt><trkpt lat="39.8724368" lon="16.3479232"><ele>913.0</ele><time>2026-05-03T07:55:07.629Z</time></trkpt><trkpt lat="39.8723495" lon="16.3479125"><ele>912.9999999999999</ele><time>2026-05-03T07:55:08.643Z</time></trkpt><trkpt lat="39.872263" lon="16.347926"><ele>913.0</ele><time>2026-05-03T07:55:09.631Z</time></trkpt><trkpt lat="39.8721726" lon="16.347974"><ele>913.0</ele><time>2026-05-03T07:55:10.635Z</time></trkpt><trkpt lat="39.8720862" lon="16.3480496"><ele>913.0</ele><time>2026-05-03T07:55:11.62Z</time></trkpt><trkpt lat="39.8719948" lon="16.3481318"><ele>913.0</ele><time>2026-05-03T07:55:12.636Z</time></trkpt><trkpt lat="39.8719186" lon="16.3482126"><ele>913.0</ele><time>2026-05-03T07:55:13.624Z</time></trkpt><trkpt lat="39.871864" lon="16.3483046"><ele>913.0</ele><time>2026-05-03T07:55:14.632Z</time></trkpt><trkpt lat="39.8718207" lon="16.3484193"><ele>913.0</ele><time>2026-05-03T07:55:15.627Z</time></trkpt><trkpt lat="39.8717887" lon="16.3485571"><ele>913.0</ele><time>2026-05-03T07:55:16.629Z</time></trkpt><trkpt lat="39.8717688" lon="16.3487102"><ele>913.0</ele><time>2026-05-03T07:55:17.636Z</time></trkpt><trkpt lat="39.8717502" lon="16.3488627"><ele>913.0</ele><time>2026-05-03T07:55:18.643Z</time></trkpt><trkpt lat="39.8717271" lon="16.3489886"><ele>913.0</ele><time>2026-05-03T07:55:19.64Z</time></trkpt><trkpt lat="39.8716991" lon="16.3490958"><ele>910.2</ele><time>2026-05-03T07:55:20.619Z</time></trkpt><trkpt lat="39.8716583" lon="16.3492008"><ele>907.4</ele><time>2026-05-03T07:55:21.625Z</time></trkpt><trkpt lat="39.8715924" lon="16.3492865"><ele>904.6000000000001</ele><time>2026-05-03T07:55:22.631Z</time></trkpt><trkpt lat="39.871508" lon="16.3493452"><ele>901.8000000000001</ele><time>2026-05-03T07:55:23.644Z</time></trkpt><trkpt lat="39.8714173" lon="16.3493631"><ele>899.0</ele><time>2026-05-03T07:55:24.633Z</time></trkpt><trkpt lat="39.8713375" lon="16.3493334"><ele>899.0</ele><time>2026-05-03T07:55:25.64Z</time></trkpt><trkpt lat="39.8712696" lon="16.3492563"><ele>899.0000000000001</ele><time>2026-05-03T07:55:26.643Z</time></trkpt><trkpt lat="39.8712311" lon="16.3491455"><ele>899.0000000000001</ele><time>2026-05-03T07:55:27.631Z</time></trkpt><trkpt lat="39.8712012" lon="16.3490131"><ele>899.0</ele><time>2026-05-03T07:55:28.643Z</time></trkpt><trkpt lat="39.871166" lon="16.3488586"><ele>899.0</ele><time>2026-05-03T07:55:29.62Z</time></trkpt><trkpt lat="39.8711277" lon="16.3486902"><ele>899.25</ele><time>2026-05-03T07:55:30.627Z</time></trkpt><trkpt lat="39.871087" lon="16.3485108"><ele>899.5</ele><time>2026-05-03T07:55:31.622Z</time></trkpt><trkpt lat="39.8710447" lon="16.3483246"><ele>899.75</ele><time>2026-05-03T07:55:32.645Z</time></trkpt><trkpt lat="39.8709959" lon="16.3481469"><ele>900.0</ele><time>2026-05-03T07:55:33.635Z</time></trkpt><trkpt lat="39.8709382" lon="16.3479817"><ele>897.0</ele><time>2026-05-03T07:55:34.642Z</time></trkpt><trkpt lat="39.8708826" lon="16.3478408"><ele>894.0</ele><time>2026-05-03T07:55:35.636Z</time></trkpt><trkpt lat="39.8708395" lon="16.3477062"><ele>891.0</ele><time>2026-05-03T07:55:36.647Z</time></trkpt><trkpt lat="39.870815" lon="16.3475765"><ele>888.0</ele><time>2026-05-03T07:55:37.636Z</time></trkpt><trkpt lat="39.8708097" lon="16.3474438"><ele>885.0</ele><time>2026-05-03T07:55:38.637Z</time></trkpt><trkpt lat="39.8708206" lon="16.3473096"><ele>885.6</ele><time>2026-05-03T07:55:39.623Z</time></trkpt><trkpt lat="39.8708546" lon="16.3471807"><ele>886.2</ele><time>2026-05-03T07:55:40.623Z</time></trkpt><trkpt lat="39.8709138" lon="16.3470665"><ele>886.8</ele><time>2026-05-03T07:55:41.633Z</time></trkpt><trkpt lat="39.8709923" lon="16.3469613"><ele>887.4</ele><time>2026-05-03T07:55:42.628Z</time></trkpt><trkpt lat="39.8710866" lon="16.3468609"><ele>888.0</ele><time>2026-05-03T07:55:43.621Z</time></trkpt><trkpt lat="39.8711927" lon="16.3467431"><ele>888.0</ele><time>2026-05-03T07:55:44.637Z</time></trkpt><trkpt lat="39.871309" lon="16.3466202"><ele>888.0</ele><time>2026-05-03T07:55:45.637Z</time></trkpt><trkpt lat="39.8714274" lon="16.3464933"><ele>888.0</ele><time>2026-05-03T07:55:46.621Z</time></trkpt><trkpt lat="39.8715447" lon="16.3463705"><ele>884.25</ele><time>2026-05-03T07:55:47.639Z</time></trkpt><trkpt lat="39.8716576" lon="16.3462587"><ele>880.5</ele><time>2026-05-03T07:55:48.642Z</time></trkpt><trkpt lat="39.8717625" lon="16.3461461"><ele>876.75</ele><time>2026-05-03T07:55:49.635Z</time></trkpt><trkpt lat="39.8718562" lon="16.3460459"><ele>873.0</ele><time>2026-05-03T07:55:50.636Z</time></trkpt><trkpt lat="39.8719445" lon="16.3459667"><ele>873.0</ele><time>2026-05-03T07:55:51.633Z</time></trkpt><trkpt lat="39.8720407" lon="16.3459184"><ele>873.0</ele><time>2026-05-03T07:55:52.634Z</time></trkpt><trkpt lat="39.8721457" lon="16.345898"><ele>873.0</ele><time>2026-05-03T07:55:53.629Z</time></trkpt><trkpt lat="39.8722632" lon="16.3458971"><ele>873.0</ele><time>2026-05-03T07:55:54.632Z</time></trkpt><trkpt lat="39.8723744" lon="16.3459106"><ele>873.0</ele><time>2026-05-03T07:55:55.622Z</time></trkpt><trkpt lat="39.8724822" lon="16.3458984"><ele>873.0</ele><time>2026-05-03T07:55:56.624Z</time></trkpt><trkpt lat="39.8725839" lon="16.3458591"><ele>873.0</ele><time>2026-05-03T07:55:57.611Z</time></trkpt><trkpt lat="39.8726695" lon="16.3457639"><ele>873.0</ele><time>2026-05-03T07:55:58.628Z</time></trkpt><trkpt lat="39.8727549" lon="16.3456226"><ele>873.0</ele><time>2026-05-03T07:55:59.62Z</time></trkpt><trkpt lat="39.8728477" lon="16.3454811"><ele>874.75</ele><time>2026-05-03T07:56:00.636Z</time></trkpt><trkpt lat="39.8729442" lon="16.3453372"><ele>876.5</ele><time>2026-05-03T07:56:01.629Z</time></trkpt><trkpt lat="39.8730496" lon="16.3452064"><ele>878.25</ele><time>2026-05-03T07:56:02.632Z</time></trkpt><trkpt lat="39.8731554" lon="16.3450786"><ele>880.0</ele><time>2026-05-03T07:56:03.622Z</time></trkpt><trkpt lat="39.8732485" lon="16.3449564"><ele>880.0</ele><time>2026-05-03T07:56:04.61Z</time></trkpt><trkpt lat="39.8733233" lon="16.3448376"><ele>880.0</ele><time>2026-05-03T07:56:05.606Z</time></trkpt><trkpt lat="39.873377" lon="16.3447172"><ele>880.0</ele><time>2026-05-03T07:56:06.619Z</time></trkpt><trkpt lat="39.8734018" lon="16.3445679"><ele>880.0</ele><time>2026-05-03T07:56:07.628Z</time></trkpt><trkpt lat="39.8734004" lon="16.344388"><ele>877.0</ele><time>2026-05-03T07:56:08.608Z</time></trkpt><trkpt lat="39.8733901" lon="16.3442047"><ele>874.0</ele><time>2026-05-03T07:56:09.66Z</time></trkpt><trkpt lat="39.8733818" lon="16.3440119"><ele>871.0</ele><time>2026-05-03T07:56:10.622Z</time></trkpt><trkpt lat="39.8733675" lon="16.3438219"><ele>868.0</ele><time>2026-05-03T07:56:11.615Z</time></trkpt><trkpt lat="39.8733469" lon="16.3436437"><ele>868.0</ele><time>2026-05-03T07:56:12.605Z</time></trkpt><trkpt lat="39.8733439" lon="16.3434706"><ele>868.0</ele><time>2026-05-03T07:56:13.629Z</time></trkpt><trkpt lat="39.8733513" lon="16.3433327"><ele>868.0</ele><time>2026-05-03T07:56:14.597Z</time></trkpt><trkpt lat="39.8733536" lon="16.3432255"><ele>868.0</ele><time>2026-05-03T07:56:15.605Z</time></trkpt><trkpt lat="39.8733266" lon="16.3431319"><ele>868.0</ele><time>2026-05-03T07:56:16.602Z</time></trkpt><trkpt lat="39.8732633" lon="16.3430786"><ele>867.9999999999999</ele><time>2026-05-03T07:56:17.618Z</time></trkpt><trkpt lat="39.8731814" lon="16.3430631"><ele>868.0</ele><time>2026-05-03T07:56:18.605Z</time></trkpt><trkpt lat="39.8730954" lon="16.3430974"><ele>868.0</ele><time>2026-05-03T07:56:19.625Z</time></trkpt><trkpt lat="39.873032" lon="16.3431752"><ele>868.0</ele><time>2026-05-03T07:56:20.625Z</time></trkpt><trkpt lat="39.8729905" lon="16.3432661"><ele>867.9999999999999</ele><time>2026-05-03T07:56:21.621Z</time></trkpt><trkpt lat="39.8729937" lon="16.3433919"><ele>868.0</ele><time>2026-05-03T07:56:22.633Z</time></trkpt><trkpt lat="39.8730283" lon="16.3435331"><ele>868.0</ele><time>2026-05-03T07:56:23.634Z</time></trkpt><trkpt lat="39.8730759" lon="16.3436847"><ele>868.0</ele><time>2026-05-03T07:56:24.629Z</time></trkpt><trkpt lat="39.8731077" lon="16.343822"><ele>868.0</ele><time>2026-05-03T07:56:25.629Z</time></trkpt><trkpt lat="39.8731317" lon="16.3439384"><ele>868.0</ele><time>2026-05-03T07:56:26.644Z</time></trkpt><trkpt lat="39.8731591" lon="16.3440302"><ele>868.0</ele><time>2026-05-03T07:56:27.63Z</time></trkpt><trkpt lat="39.8731824" lon="16.3441205"><ele>867.8333333333333</ele><time>2026-05-03T07:56:28.636Z</time></trkpt><trkpt lat="39.873192" lon="16.3442119"><ele>867.6666666666666</ele><time>2026-05-03T07:56:29.618Z</time></trkpt><trkpt lat="39.8731806" lon="16.344298"><ele>867.5</ele><time>2026-05-03T07:56:30.644Z</time></trkpt><trkpt lat="39.8730843" lon="16.3444013"><ele>867.3333333333333</ele><time>2026-05-03T07:56:32.635Z</time></trkpt><trkpt lat="39.8730122" lon="16.3443924"><ele>867.1666666666666</ele><time>2026-05-03T07:56:33.623Z</time></trkpt><trkpt lat="39.8729489" lon="16.3443483"><ele>867.0</ele><time>2026-05-03T07:56:34.635Z</time></trkpt><trkpt lat="39.872896" lon="16.3442818"><ele>867.0</ele><time>2026-05-03T07:56:35.628Z</time></trkpt><trkpt lat="39.8728774" lon="16.344199"><ele>867.0</ele><time>2026-05-03T07:56:36.628Z</time></trkpt><trkpt lat="39.8729033" lon="16.3440974"><ele>867.0</ele><time>2026-05-03T07:56:37.616Z</time></trkpt><trkpt lat="39.8729383" lon="16.3439954"><ele>867.0</ele><time>2026-05-03T07:56:38.627Z</time></trkpt><trkpt lat="39.872978" lon="16.3439125"><ele>867.0</ele><time>2026-05-03T07:56:39.621Z</time></trkpt><trkpt lat="39.8729704" lon="16.3437941"><ele>867.0</ele><time>2026-05-03T07:56:40.626Z</time></trkpt><trkpt lat="39.8729236" lon="16.3436582"><ele>867.25</ele><time>2026-05-03T07:56:41.633Z</time></trkpt><trkpt lat="39.8728637" lon="16.3435027"><ele>867.5</ele><time>2026-05-03T07:56:42.632Z</time></trkpt><trkpt lat="39.8727983" lon="16.3433392"><ele>867.75</ele><time>2026-05-03T07:56:43.632Z</time></trkpt><trkpt lat="39.8727411" lon="16.3431788"><ele>868.0</ele><time>2026-05-03T07:56:44.632Z</time></trkpt><trkpt lat="39.8726962" lon="16.3430392"><ele>868.0</ele><time>2026-05-03T07:56:45.623Z</time></trkpt><trkpt lat="39.8726791" lon="16.3429182"><ele>868.0</ele><time>2026-05-03T07:56:46.623Z</time></trkpt><trkpt lat="39.8726812" lon="16.3427848"><ele>868.0</ele><time>2026-05-03T07:56:47.629Z</time></trkpt><trkpt lat="39.8727113" lon="16.3426393"><ele>868.0</ele><time>2026-05-03T07:56:48.637Z</time></trkpt><trkpt lat="39.8727478" lon="16.3424874"><ele>868.0</ele><time>2026-05-03T07:56:49.623Z</time></trkpt><trkpt lat="39.8727812" lon="16.3423316"><ele>866.4999999999999</ele><time>2026-05-03T07:56:50.632Z</time></trkpt><trkpt lat="39.8728128" lon="16.3421839"><ele>865.0</ele><time>2026-05-03T07:56:51.631Z</time></trkpt><trkpt lat="39.8728402" lon="16.3420612"><ele>863.5</ele><time>2026-05-03T07:56:52.638Z</time></trkpt><trkpt lat="39.8728557" lon="16.3419571"><ele>862.0</ele><time>2026-05-03T07:56:53.614Z</time></trkpt><trkpt lat="39.8728363" lon="16.3418642"><ele>860.4999999999999</ele><time>2026-05-03T07:56:54.622Z</time></trkpt><trkpt lat="39.8727883" lon="16.3417936"><ele>859.0</ele><time>2026-05-03T07:56:55.614Z</time></trkpt><trkpt lat="39.8727195" lon="16.3417574"><ele>859.0</ele><time>2026-05-03T07:56:56.622Z</time></trkpt><trkpt lat="39.8726411" lon="16.3417704"><ele>859.0000000000001</ele><time>2026-05-03T07:56:57.642Z</time></trkpt><trkpt lat="39.8725706" lon="16.3418256"><ele>859.0000000000001</ele><time>2026-05-03T07:56:58.635Z</time></trkpt><trkpt lat="39.8724929" lon="16.341927"><ele>859.0</ele><time>2026-05-03T07:56:59.621Z</time></trkpt><trkpt lat="39.8724267" lon="16.3420636"><ele>859.0</ele><time>2026-05-03T07:57:00.637Z</time></trkpt><trkpt lat="39.8723614" lon="16.3422297"><ele>852.0</ele><time>2026-05-03T07:57:01.623Z</time></trkpt><trkpt lat="39.8722968" lon="16.3424115"><ele>845.0</ele><time>2026-05-03T07:57:02.632Z</time></trkpt><trkpt lat="39.8722332" lon="16.3425982"><ele>838.0</ele><time>2026-05-03T07:57:03.627Z</time></trkpt><trkpt lat="39.8721757" lon="16.3427647"><ele>838.0</ele><time>2026-05-03T07:57:04.637Z</time></trkpt><trkpt lat="39.8721207" lon="16.3429044"><ele>838.0</ele><time>2026-05-03T07:57:05.631Z</time></trkpt><trkpt lat="39.8720574" lon="16.3430082"><ele>838.0</ele><time>2026-05-03T07:57:06.641Z</time></trkpt><trkpt lat="39.8719927" lon="16.343076"><ele>838.0</ele><time>2026-05-03T07:57:07.62Z</time></trkpt><trkpt lat="39.8719208" lon="16.3431066"><ele>838.0</ele><time>2026-05-03T07:57:08.644Z</time></trkpt><trkpt lat="39.8718487" lon="16.3431077"><ele>837.9999999999999</ele><time>2026-05-03T07:57:09.625Z</time></trkpt><trkpt lat="39.8717815" lon="16.3430531"><ele>838.0</ele><time>2026-05-03T07:57:10.627Z</time></trkpt><trkpt lat="39.8717365" lon="16.3429705"><ele>838.0</ele><time>2026-05-03T07:57:11.623Z</time></trkpt><trkpt lat="39.8717244" lon="16.3428664"><ele>838.0</ele><time>2026-05-03T07:57:12.628Z</time></trkpt><trkpt lat="39.8717489" lon="16.3427578"><ele>837.9999999999999</ele><time>2026-05-03T07:57:13.612Z</time></trkpt><trkpt lat="39.8717893" lon="16.3426212"><ele>838.0</ele><time>2026-05-03T07:57:14.612Z</time></trkpt><trkpt lat="39.8718366" lon="16.3424769"><ele>838.0</ele><time>2026-05-03T07:57:15.612Z</time></trkpt><trkpt lat="39.8718762" lon="16.3423295"><ele>838.0</ele><time>2026-05-03T07:57:16.63Z</time></trkpt><trkpt lat="39.8719166" lon="16.3421928"><ele>838.0</ele><time>2026-05-03T07:57:17.627Z</time></trkpt><trkpt lat="39.8719642" lon="16.342069"><ele>838.0</ele><time>2026-05-03T07:57:18.638Z</time></trkpt><trkpt lat="39.8720226" lon="16.3419545"><ele>838.0</ele><time>2026-05-03T07:57:19.619Z</time></trkpt><trkpt lat="39.8720868" lon="16.3418363"><ele>836.4</ele><time>2026-05-03T07:57:20.644Z</time></trkpt><trkpt lat="39.872143" lon="16.341722"><ele>834.8</ele><time>2026-05-03T07:57:21.622Z</time></trkpt><trkpt lat="39.8721905" lon="16.3416173"><ele>833.2</ele><time>2026-05-03T07:57:22.624Z</time></trkpt><trkpt lat="39.8722379" lon="16.3414979"><ele>831.6</ele><time>2026-05-03T07:57:23.621Z</time></trkpt><trkpt lat="39.8722818" lon="16.341363"><ele>830.0</ele><time>2026-05-03T07:57:24.615Z</time></trkpt><trkpt lat="39.8723173" lon="16.3412319"><ele>828.25</ele><time>2026-05-03T07:57:25.614Z</time></trkpt><trkpt lat="39.8723374" lon="16.3410947"><ele>826.5</ele><time>2026-05-03T07:57:26.635Z</time></trkpt><trkpt lat="39.8723435" lon="16.3409395"><ele>824.75</ele><time>2026-05-03T07:57:27.644Z</time></trkpt><trkpt lat="39.8723429" lon="16.3407736"><ele>823.0</ele><time>2026-05-03T07:57:28.624Z</time></trkpt><trkpt lat="39.8723479" lon="16.3406136"><ele>821.5999999999999</ele><time>2026-05-03T07:57:29.635Z</time></trkpt><trkpt lat="39.8723627" lon="16.3404765"><ele>820.1999999999999</ele><time>2026-05-03T07:57:30.617Z</time></trkpt><trkpt lat="39.8723787" lon="16.3403584"><ele>818.8</ele><time>2026-05-03T07:57:31.626Z</time></trkpt><trkpt lat="39.8723935" lon="16.3402336"><ele>817.4</ele><time>2026-05-03T07:57:32.632Z</time></trkpt><trkpt lat="39.8724167" lon="16.3401065"><ele>816.0</ele><time>2026-05-03T07:57:33.633Z</time></trkpt><trkpt lat="39.8724552" lon="16.3399728"><ele>816.0</ele><time>2026-05-03T07:57:34.634Z</time></trkpt><trkpt lat="39.872504" lon="16.3398312"><ele>816.0</ele><time>2026-05-03T07:57:35.627Z</time></trkpt><trkpt lat="39.8725666" lon="16.3396867"><ele>816.0</ele><time>2026-05-03T07:57:36.639Z</time></trkpt><trkpt lat="39.8726385" lon="16.3395303"><ele>816.0</ele><time>2026-05-03T07:57:37.625Z</time></trkpt><trkpt lat="39.872716" lon="16.3393632"><ele>816.6666666666667</ele><time>2026-05-03T07:57:38.633Z</time></trkpt><trkpt lat="39.8727994" lon="16.3391903"><ele>817.3333333333334</ele><time>2026-05-03T07:57:39.637Z</time></trkpt><trkpt lat="39.8728807" lon="16.3390194"><ele>818.0</ele><time>2026-05-03T07:57:40.626Z</time></trkpt><trkpt lat="39.8729635" lon="16.3388434"><ele>818.0</ele><time>2026-05-03T07:57:41.62Z</time></trkpt><trkpt lat="39.8730443" lon="16.3386604"><ele>818.0</ele><time>2026-05-03T07:57:42.639Z</time></trkpt><trkpt lat="39.8731263" lon="16.3384798"><ele>818.0</ele><time>2026-05-03T07:57:43.63Z</time></trkpt><trkpt lat="39.8732082" lon="16.3383042"><ele>818.0</ele><time>2026-05-03T07:57:44.613Z</time></trkpt><trkpt lat="39.8732908" lon="16.3381321"><ele>818.0</ele><time>2026-05-03T07:57:45.626Z</time></trkpt><trkpt lat="39.8733772" lon="16.3379516"><ele>818.0</ele><time>2026-05-03T07:57:46.63Z</time></trkpt><trkpt lat="39.8734642" lon="16.337765"><ele>821.0</ele><time>2026-05-03T07:57:47.611Z</time></trkpt><trkpt lat="39.8735499" lon="16.3375825"><ele>824.0</ele><time>2026-05-03T07:57:48.633Z</time></trkpt><trkpt lat="39.8736354" lon="16.3374109"><ele>827.0</ele><time>2026-05-03T07:57:49.626Z</time></trkpt><trkpt lat="39.8737141" lon="16.3372536"><ele>820.25</ele><time>2026-05-03T07:57:50.61Z</time></trkpt><trkpt lat="39.8737868" lon="16.3371027"><ele>813.5</ele><time>2026-05-03T07:57:51.61Z</time></trkpt><trkpt lat="39.8738579" lon="16.3369715"><ele>806.75</ele><time>2026-05-03T07:57:52.621Z</time></trkpt><trkpt lat="39.8739225" lon="16.3368303"><ele>800.0</ele><time>2026-05-03T07:57:53.627Z</time></trkpt><trkpt lat="39.8739774" lon="16.3367038"><ele>800.0000000000001</ele><time>2026-05-03T07:57:54.631Z</time></trkpt><trkpt lat="39.8740285" lon="16.3365944"><ele>800.0</ele><time>2026-05-03T07:57:55.616Z</time></trkpt><trkpt lat="39.8740772" lon="16.3364962"><ele>800.0</ele><time>2026-05-03T07:57:56.629Z</time></trkpt><trkpt lat="39.8741306" lon="16.336418"><ele>800.0</ele><time>2026-05-03T07:57:57.611Z</time></trkpt><trkpt lat="39.8741958" lon="16.3363698"><ele>800.0000000000001</ele><time>2026-05-03T07:57:58.642Z</time></trkpt><trkpt lat="39.8742672" lon="16.336347"><ele>800.0</ele><time>2026-05-03T07:57:59.617Z</time></trkpt><trkpt lat="39.8743746" lon="16.3363451"><ele>797.1666666666667</ele><time>2026-05-03T07:58:01.638Z</time></trkpt><trkpt lat="39.874449" lon="16.3363646"><ele>794.3333333333334</ele><time>2026-05-03T07:58:11.607Z</time></trkpt><trkpt lat="39.8745156" lon="16.3363714"><ele>791.5</ele><time>2026-05-03T07:58:21.622Z</time></trkpt><trkpt lat="39.874508" lon="16.3362866"><ele>788.6666666666667</ele><time>2026-05-03T07:58:27.622Z</time></trkpt><trkpt lat="39.8744468" lon="16.3362359"><ele>785.8333333333334</ele><time>2026-05-03T07:58:31.614Z</time></trkpt><trkpt lat="39.874374" lon="16.3361929"><ele>783.0</ele><time>2026-05-03T07:58:33.634Z</time></trkpt><trkpt lat="39.8742691" lon="16.3361353"><ele>783.0</ele><time>2026-05-03T07:58:35.611Z</time></trkpt><trkpt lat="39.8741678" lon="16.3360642"><ele>783.0</ele><time>2026-05-03T07:58:37.635Z</time></trkpt><trkpt lat="39.8740638" lon="16.3359852"><ele>783.0</ele><time>2026-05-03T07:58:39.632Z</time></trkpt><trkpt lat="39.873971" lon="16.3359069"><ele>783.0</ele><time>2026-05-03T07:58:41.62Z</time></trkpt><trkpt lat="39.8738792" lon="16.3358321"><ele>783.0</ele><time>2026-05-03T07:58:43.634Z</time></trkpt><trkpt lat="39.8737995" lon="16.3357072"><ele>783.0</ele><time>2026-05-03T07:58:45.623Z</time></trkpt><trkpt lat="39.873758" lon="16.3356278"><ele>783.0</ele><time>2026-05-03T07:58:46.638Z</time></trkpt><trkpt lat="39.8737153" lon="16.3355647"><ele>783.0</ele><time>2026-05-03T07:58:47.623Z</time></trkpt><trkpt lat="39.8736569" lon="16.335452"><ele>783.0</ele><time>2026-05-03T07:58:49.628Z</time></trkpt><trkpt lat="39.873605" lon="16.3353329"><ele>780.4</ele><time>2026-05-03T07:58:51.628Z</time></trkpt><trkpt lat="39.8735816" lon="16.3351887"><ele>777.8</ele><time>2026-05-03T07:58:53.633Z</time></trkpt><trkpt lat="39.8735777" lon="16.3350258"><ele>775.2</ele><time>2026-05-03T07:58:55.628Z</time></trkpt><trkpt lat="39.8735778" lon="16.3349392"><ele>772.6</ele><time>2026-05-03T07:58:56.624Z</time></trkpt><trkpt lat="39.8736025" lon="16.3348158"><ele>770.0</ele><time>2026-05-03T07:58:58.627Z</time></trkpt><trkpt lat="39.8736284" lon="16.3347052"><ele>767.6666666666667</ele><time>2026-05-03T07:59:00.621Z</time></trkpt><trkpt lat="39.8736468" lon="16.3345826"><ele>765.3333333333334</ele><time>2026-05-03T07:59:02.621Z</time></trkpt><trkpt lat="39.8736709" lon="16.3344771"><ele>763.0</ele><time>2026-05-03T07:59:04.621Z</time></trkpt><trkpt lat="39.8736883" lon="16.3343677"><ele>760.6666666666667</ele><time>2026-05-03T07:59:07.628Z</time></trkpt><trkpt lat="39.8736749" lon="16.3342809"><ele>758.3333333333334</ele><time>2026-05-03T07:59:25.623Z</time></trkpt><trkpt lat="39.8735973" lon="16.3343034"><ele>756.0</ele><time>2026-05-03T07:59:30.635Z</time></trkpt><trkpt lat="39.8735269" lon="16.33439"><ele>756.0</ele><time>2026-05-03T07:59:32.641Z</time></trkpt><trkpt lat="39.8734821" lon="16.3344565"><ele>756.0</ele><time>2026-05-03T07:59:33.628Z</time></trkpt><trkpt lat="39.8734334" lon="16.3345484"><ele>756.0</ele><time>2026-05-03T07:59:34.616Z</time></trkpt><trkpt lat="39.8733874" lon="16.3346449"><ele>756.0</ele><time>2026-05-03T07:59:35.617Z</time></trkpt><trkpt lat="39.8733406" lon="16.3347588"><ele>756.0</ele><time>2026-05-03T07:59:36.65Z</time></trkpt><trkpt lat="39.8732919" lon="16.3348728"><ele>756.0</ele><time>2026-05-03T07:59:37.608Z</time></trkpt><trkpt lat="39.8732483" lon="16.3349722"><ele>758.0</ele><time>2026-05-03T07:59:38.652Z</time></trkpt><trkpt lat="39.8732117" lon="16.3350578"><ele>760.0</ele><time>2026-05-03T07:59:39.648Z</time></trkpt><trkpt lat="39.8731548" lon="16.3351972"><ele>762.0</ele><time>2026-05-03T07:59:41.639Z</time></trkpt><trkpt lat="39.8731395" lon="16.3353632"><ele>764.0</ele><time>2026-05-03T07:59:43.649Z</time></trkpt><trkpt lat="39.8731461" lon="16.3354623"><ele>766.0</ele><time>2026-05-03T07:59:44.638Z</time></trkpt><trkpt lat="39.8731379" lon="16.3355567"><ele>766.1666666666667</ele><time>2026-05-03T07:59:45.643Z</time></trkpt><trkpt lat="39.8731215" lon="16.3356446"><ele>766.3333333333334</ele><time>2026-05-03T07:59:46.642Z</time></trkpt><trkpt lat="39.8730777" lon="16.3357314"><ele>766.5</ele><time>2026-05-03T07:59:47.625Z</time></trkpt><trkpt lat="39.8730265" lon="16.3358151"><ele>766.6666666666666</ele><time>2026-05-03T07:59:48.643Z</time></trkpt><trkpt lat="39.8729795" lon="16.3358797"><ele>766.8333333333333</ele><time>2026-05-03T07:59:49.642Z</time></trkpt><trkpt lat="39.8728765" lon="16.3359847"><ele>767.0</ele><time>2026-05-03T07:59:51.614Z</time></trkpt><trkpt lat="39.8728157" lon="16.3360217"><ele>767.0</ele><time>2026-05-03T07:59:52.617Z</time></trkpt><trkpt lat="39.8727414" lon="16.3360538"><ele>767.0</ele><time>2026-05-03T07:59:53.605Z</time></trkpt><trkpt lat="39.8726673" lon="16.3360666"><ele>767.0</ele><time>2026-05-03T07:59:54.638Z</time></trkpt><trkpt lat="39.8725973" lon="16.3360856"><ele>767.0</ele><time>2026-05-03T07:59:55.638Z</time></trkpt><trkpt lat="39.8725245" lon="16.336117"><ele>767.0</ele><time>2026-05-03T07:59:56.636Z</time></trkpt><trkpt lat="39.8724592" lon="16.3361473"><ele>767.0</ele><time>2026-05-03T07:59:57.636Z</time></trkpt><trkpt lat="39.872397" lon="16.3361886"><ele>767.0</ele><time>2026-05-03T07:59:58.65Z</time></trkpt><trkpt lat="39.8723326" lon="16.3362548"><ele>764.2</ele><time>2026-05-03T07:59:59.629Z</time></trkpt><trkpt lat="39.8722589" lon="16.336344"><ele>761.4000000000001</ele><time>2026-05-03T08:00:00.624Z</time></trkpt><trkpt lat="39.8721825" lon="16.3364571"><ele>758.5999999999999</ele><time>2026-05-03T08:00:01.642Z</time></trkpt><trkpt lat="39.8721101" lon="16.3365778"><ele>755.8</ele><time>2026-05-03T08:00:02.646Z</time></trkpt><trkpt lat="39.8720418" lon="16.3366723"><ele>753.0</ele><time>2026-05-03T08:00:03.652Z</time></trkpt><trkpt lat="39.8719883" lon="16.3367707"><ele>753.0</ele><time>2026-05-03T08:00:04.638Z</time></trkpt><trkpt lat="39.8719437" lon="16.3368594"><ele>753.0</ele><time>2026-05-03T08:00:05.624Z</time></trkpt><trkpt lat="39.8719054" lon="16.3369278"><ele>753.0</ele><time>2026-05-03T08:00:06.648Z</time></trkpt><trkpt lat="39.8718436" lon="16.3369657"><ele>753.0</ele><time>2026-05-03T08:00:07.612Z</time></trkpt><trkpt lat="39.8717615" lon="16.3369848"><ele>753.0</ele><time>2026-05-03T08:00:08.623Z</time></trkpt><trkpt lat="39.8716593" lon="16.3369869"><ele>753.0</ele><time>2026-05-03T08:00:09.612Z</time></trkpt><trkpt lat="39.8715566" lon="16.3369684"><ele>750.5</ele><time>2026-05-03T08:00:10.624Z</time></trkpt><trkpt lat="39.8714634" lon="16.3369484"><ele>748.0</ele><time>2026-05-03T08:00:11.615Z</time></trkpt><trkpt lat="39.8713743" lon="16.336927"><ele>745.5</ele><time>2026-05-03T08:00:12.634Z</time></trkpt><trkpt lat="39.8712826" lon="16.3369082"><ele>743.0</ele><time>2026-05-03T08:00:13.636Z</time></trkpt><trkpt lat="39.8712018" lon="16.3368764"><ele>740.5</ele><time>2026-05-03T08:00:14.624Z</time></trkpt><trkpt lat="39.8711398" lon="16.3368535"><ele>738.0</ele><time>2026-05-03T08:00:15.653Z</time></trkpt><trkpt lat="39.8710222" lon="16.3368693"><ele>738.0</ele><time>2026-05-03T08:00:17.637Z</time></trkpt><trkpt lat="39.8709624" lon="16.3369187"><ele>738.0</ele><time>2026-05-03T08:00:18.63Z</time></trkpt><trkpt lat="39.8709104" lon="16.3369866"><ele>738.0</ele><time>2026-05-03T08:00:19.628Z</time></trkpt><trkpt lat="39.8708677" lon="16.3370583"><ele>738.0</ele><time>2026-05-03T08:00:20.635Z</time></trkpt><trkpt lat="39.8707792" lon="16.3371536"><ele>738.0</ele><time>2026-05-03T08:00:22.621Z</time></trkpt><trkpt lat="39.8707086" lon="16.3371634"><ele>738.0</ele><time>2026-05-03T08:00:23.623Z</time></trkpt><trkpt lat="39.8706388" lon="16.3371589"><ele>736.1666666666666</ele><time>2026-05-03T08:00:24.617Z</time></trkpt><trkpt lat="39.8705603" lon="16.3371235"><ele>734.3333333333334</ele><time>2026-05-03T08:00:25.633Z</time></trkpt><trkpt lat="39.8704868" lon="16.3370863"><ele>732.5</ele><time>2026-05-03T08:00:26.63Z</time></trkpt><trkpt lat="39.8704101" lon="16.3370401"><ele>730.6666666666667</ele><time>2026-05-03T08:00:27.635Z</time></trkpt><trkpt lat="39.8703314" lon="16.337012"><ele>728.8333333333334</ele><time>2026-05-03T08:00:28.618Z</time></trkpt><trkpt lat="39.8702579" lon="16.3369883"><ele>727.0</ele><time>2026-05-03T08:00:29.639Z</time></trkpt><trkpt lat="39.8701955" lon="16.3369755"><ele>727.3333333333334</ele><time>2026-05-03T08:00:30.635Z</time></trkpt><trkpt lat="39.8700904" lon="16.3370057"><ele>727.6666666666667</ele><time>2026-05-03T08:00:32.635Z</time></trkpt><trkpt lat="39.870036" lon="16.3370497"><ele>728.0</ele><time>2026-05-03T08:00:33.627Z</time></trkpt><trkpt lat="39.8699703" lon="16.3371034"><ele>728.3333333333334</ele><time>2026-05-03T08:00:34.644Z</time></trkpt><trkpt lat="39.8699002" lon="16.3371859"><ele>728.6666666666666</ele><time>2026-05-03T08:00:35.638Z</time></trkpt><trkpt lat="39.8698443" lon="16.3372732"><ele>729.0</ele><time>2026-05-03T08:00:36.624Z</time></trkpt><trkpt lat="39.8697985" lon="16.337358"><ele>729.0</ele><time>2026-05-03T08:00:37.637Z</time></trkpt><trkpt lat="39.8697065" lon="16.3374321"><ele>729.0</ele><time>2026-05-03T08:00:39.63Z</time></trkpt><trkpt lat="39.8696182" lon="16.3374261"><ele>729.0</ele><time>2026-05-03T08:00:41.619Z</time></trkpt><trkpt lat="39.8695521" lon="16.3373356"><ele>729.0</ele><time>2026-05-03T08:00:43.63Z</time></trkpt><trkpt lat="39.8695294" lon="16.3371812"><ele>729.0</ele><time>2026-05-03T08:00:45.649Z</time></trkpt><trkpt lat="39.8694743" lon="16.3370855"><ele>726.8333333333334</ele><time>2026-05-03T08:00:47.618Z</time></trkpt><trkpt lat="39.8693717" lon="16.3370598"><ele>724.6666666666666</ele><time>2026-05-03T08:00:49.624Z</time></trkpt><trkpt lat="39.8693066" lon="16.3370605"><ele>722.5</ele><time>2026-05-03T08:00:50.646Z</time></trkpt><trkpt lat="39.869235" lon="16.3370597"><ele>720.3333333333333</ele><time>2026-05-03T08:00:51.629Z</time></trkpt><trkpt lat="39.8691626" lon="16.3370531"><ele>718.1666666666666</ele><time>2026-05-03T08:00:52.634Z</time></trkpt><trkpt lat="39.8691013" lon="16.3370324"><ele>716.0</ele><time>2026-05-03T08:00:53.621Z</time></trkpt><trkpt lat="39.8690236" lon="16.3369627"><ele>715.5999999999999</ele><time>2026-05-03T08:00:55.631Z</time></trkpt><trkpt lat="39.8689873" lon="16.3368126"><ele>715.2</ele><time>2026-05-03T08:00:57.652Z</time></trkpt><trkpt lat="39.8689479" lon="16.3366729"><ele>714.8</ele><time>2026-05-03T08:00:59.639Z</time></trkpt><trkpt lat="39.8688546" lon="16.3366216"><ele>714.4000000000001</ele><time>2026-05-03T08:01:01.621Z</time></trkpt><trkpt lat="39.8687877" lon="16.3366213"><ele>714.0</ele><time>2026-05-03T08:01:02.633Z</time></trkpt><trkpt lat="39.8687064" lon="16.3366223"><ele>714.0</ele><time>2026-05-03T08:01:03.619Z</time></trkpt><trkpt lat="39.8686061" lon="16.3366106"><ele>714.0</ele><time>2026-05-03T08:01:04.636Z</time></trkpt><trkpt lat="39.8684954" lon="16.336594"><ele>714.0</ele><time>2026-05-03T08:01:05.634Z</time></trkpt><trkpt lat="39.8683809" lon="16.3365795"><ele>714.0</ele><time>2026-05-03T08:01:06.631Z</time></trkpt><trkpt lat="39.8682558" lon="16.3365691"><ele>715.0</ele><time>2026-05-03T08:01:07.629Z</time></trkpt><trkpt lat="39.8681319" lon="16.3365527"><ele>716.0</ele><time>2026-05-03T08:01:08.645Z</time></trkpt><trkpt lat="39.8680167" lon="16.3365442"><ele>717.0</ele><time>2026-05-03T08:01:09.638Z</time></trkpt><trkpt lat="39.8679055" lon="16.3365423"><ele>718.0</ele><time>2026-05-03T08:01:10.643Z</time></trkpt><trkpt lat="39.8678071" lon="16.3365499"><ele>718.0</ele><time>2026-05-03T08:01:11.631Z</time></trkpt><trkpt lat="39.8677166" lon="16.3365625"><ele>718.0</ele><time>2026-05-03T08:01:12.622Z</time></trkpt><trkpt lat="39.86763" lon="16.3365834"><ele>718.0</ele><time>2026-05-03T08:01:13.614Z</time></trkpt><trkpt lat="39.8675458" lon="16.3366073"><ele>718.0</ele><time>2026-05-03T08:01:14.638Z</time></trkpt><trkpt lat="39.8674721" lon="16.3366247"><ele>718.0</ele><time>2026-05-03T08:01:15.633Z</time></trkpt><trkpt lat="39.867361" lon="16.3366117"><ele>717.2</ele><time>2026-05-03T08:01:17.636Z</time></trkpt><trkpt lat="39.867281" lon="16.3365534"><ele>716.4</ele><time>2026-05-03T08:01:19.619Z</time></trkpt><trkpt lat="39.8671739" lon="16.3364253"><ele>715.6</ele><time>2026-05-03T08:01:21.629Z</time></trkpt><trkpt lat="39.8671091" lon="16.3363276"><ele>714.8000000000001</ele><time>2026-05-03T08:01:22.63Z</time></trkpt><trkpt lat="39.8670353" lon="16.3362362"><ele>714.0</ele><time>2026-05-03T08:01:23.637Z</time></trkpt><trkpt lat="39.8669471" lon="16.3361603"><ele>713.6</ele><time>2026-05-03T08:01:24.633Z</time></trkpt><trkpt lat="39.866854" lon="16.3360868"><ele>713.2</ele><time>2026-05-03T08:01:25.638Z</time></trkpt><trkpt lat="39.8667779" lon="16.3360356"><ele>712.8000000000001</ele><time>2026-05-03T08:01:26.634Z</time></trkpt><trkpt lat="39.866682" lon="16.3359928"><ele>712.4000000000001</ele><time>2026-05-03T08:01:28.637Z</time></trkpt><trkpt lat="39.8665725" lon="16.3360515"><ele>712.0</ele><time>2026-05-03T08:01:30.636Z</time></trkpt><trkpt lat="39.8665113" lon="16.3361002"><ele>712.0</ele><time>2026-05-03T08:01:31.632Z</time></trkpt><trkpt lat="39.8664492" lon="16.3361306"><ele>712.0</ele><time>2026-05-03T08:01:32.644Z</time></trkpt><trkpt lat="39.8663534" lon="16.3361225"><ele>712.0</ele><time>2026-05-03T08:01:34.633Z</time></trkpt><trkpt lat="39.8662622" lon="16.3360218"><ele>712.0</ele><time>2026-05-03T08:01:36.636Z</time></trkpt><trkpt lat="39.8662263" lon="16.3359276"><ele>712.0</ele><time>2026-05-03T08:01:37.627Z</time></trkpt><trkpt lat="39.8661992" lon="16.3358129"><ele>712.0</ele><time>2026-05-03T08:01:38.656Z</time></trkpt><trkpt lat="39.8661756" lon="16.3356912"><ele>712.0</ele><time>2026-05-03T08:01:39.634Z</time></trkpt><trkpt lat="39.8661543" lon="16.3355716"><ele>712.0</ele><time>2026-05-03T08:01:40.638Z</time></trkpt><trkpt lat="39.8661329" lon="16.3354448"><ele>712.0</ele><time>2026-05-03T08:01:41.653Z</time></trkpt><trkpt lat="39.8661117" lon="16.3353235"><ele>712.0</ele><time>2026-05-03T08:01:42.652Z</time></trkpt><trkpt lat="39.8660928" lon="16.335209"><ele>712.6666666666667</ele><time>2026-05-03T08:01:43.661Z</time></trkpt><trkpt lat="39.8660813" lon="16.3350949"><ele>713.3333333333334</ele><time>2026-05-03T08:01:44.642Z</time></trkpt><trkpt lat="39.866072" lon="16.3349884"><ele>714.0</ele><time>2026-05-03T08:01:45.63Z</time></trkpt><trkpt lat="39.8660547" lon="16.3348801"><ele>714.6666666666666</ele><time>2026-05-03T08:01:46.643Z</time></trkpt><trkpt lat="39.8660274" lon="16.3347768"><ele>715.3333333333333</ele><time>2026-05-03T08:01:47.613Z</time></trkpt><trkpt lat="39.8659816" lon="16.3346756"><ele>716.0</ele><time>2026-05-03T08:01:48.636Z</time></trkpt><trkpt lat="39.8659137" lon="16.3345857"><ele>716.0</ele><time>2026-05-03T08:01:49.642Z</time></trkpt><trkpt lat="39.8658658" lon="16.3345197"><ele>716.0</ele><time>2026-05-03T08:01:50.632Z</time></trkpt><trkpt lat="39.8657969" lon="16.3344594"><ele>716.0</ele><time>2026-05-03T08:01:52.638Z</time></trkpt><trkpt lat="39.8657021" lon="16.3344724"><ele>716.0</ele><time>2026-05-03T08:01:54.637Z</time></trkpt><trkpt lat="39.865622" lon="16.3345788"><ele>716.0</ele><time>2026-05-03T08:01:56.628Z</time></trkpt><trkpt lat="39.865592" lon="16.3346541"><ele>716.0</ele><time>2026-05-03T08:01:57.619Z</time></trkpt><trkpt lat="39.8655925" lon="16.3347659"><ele>717.1666666666666</ele><time>2026-05-03T08:01:59.641Z</time></trkpt><trkpt lat="39.8656552" lon="16.3348557"><ele>718.3333333333333</ele><time>2026-05-03T08:02:01.623Z</time></trkpt><trkpt lat="39.8657127" lon="16.3349126"><ele>719.5</ele><time>2026-05-03T08:02:02.638Z</time></trkpt><trkpt lat="39.8657624" lon="16.3349754"><ele>720.6666666666666</ele><time>2026-05-03T08:02:03.627Z</time></trkpt><trkpt lat="39.8658021" lon="16.3351181"><ele>721.8333333333334</ele><time>2026-05-03T08:02:05.635Z</time></trkpt><trkpt lat="39.8658056" lon="16.3352092"><ele>723.0</ele><time>2026-05-03T08:02:06.631Z</time></trkpt><trkpt lat="39.8657996" lon="16.3353064"><ele>723.0</ele><time>2026-05-03T08:02:07.634Z</time></trkpt><trkpt lat="39.8657761" lon="16.3353952"><ele>723.0</ele><time>2026-05-03T08:02:08.647Z</time></trkpt><trkpt lat="39.8656907" lon="16.3355073"><ele>723.0</ele><time>2026-05-03T08:02:10.637Z</time></trkpt><trkpt lat="39.8655695" lon="16.335555"><ele>723.0</ele><time>2026-05-03T08:02:12.647Z</time></trkpt><trkpt lat="39.8654925" lon="16.3355568"><ele>723.0</ele><time>2026-05-03T08:02:13.648Z</time></trkpt><trkpt lat="39.8653954" lon="16.3355542"><ele>723.0</ele><time>2026-05-03T08:02:14.627Z</time></trkpt><trkpt lat="39.8652903" lon="16.3355515"><ele>723.0</ele><time>2026-05-03T08:02:15.619Z</time></trkpt><trkpt lat="39.8651915" lon="16.3355431"><ele>723.0</ele><time>2026-05-03T08:02:16.616Z</time></trkpt><trkpt lat="39.8651047" lon="16.3355289"><ele>723.0</ele><time>2026-05-03T08:02:17.617Z</time></trkpt><trkpt lat="39.865017" lon="16.3354937"><ele>723.0</ele><time>2026-05-03T08:02:18.65Z</time></trkpt><trkpt lat="39.8649359" lon="16.3354493"><ele>725.2</ele><time>2026-05-03T08:02:19.631Z</time></trkpt><trkpt lat="39.8648655" lon="16.3354244"><ele>727.4</ele><time>2026-05-03T08:02:20.64Z</time></trkpt><trkpt lat="39.864731" lon="16.3354266"><ele>729.6</ele><time>2026-05-03T08:02:22.638Z</time></trkpt><trkpt lat="39.8646388" lon="16.335443"><ele>731.8000000000001</ele><time>2026-05-03T08:02:23.623Z</time></trkpt><trkpt lat="39.8645509" lon="16.3354679"><ele>734.0</ele><time>2026-05-03T08:02:24.644Z</time></trkpt><trkpt lat="39.8644707" lon="16.3354955"><ele>734.0</ele><time>2026-05-03T08:02:25.643Z</time></trkpt><trkpt lat="39.8644062" lon="16.3355158"><ele>734.0</ele><time>2026-05-03T08:02:26.652Z</time></trkpt><trkpt lat="39.8643131" lon="16.3355453"><ele>734.0</ele><time>2026-05-03T08:02:28.643Z</time></trkpt><trkpt lat="39.8642037" lon="16.3356143"><ele>734.0</ele><time>2026-05-03T08:02:30.652Z</time></trkpt><trkpt lat="39.8641235" lon="16.3356754"><ele>734.0</ele><time>2026-05-03T08:02:31.635Z</time></trkpt><trkpt lat="39.864035" lon="16.3357407"><ele>734.8000000000001</ele><time>2026-05-03T08:02:32.626Z</time></trkpt><trkpt lat="39.8639489" lon="16.3358088"><ele>735.6</ele><time>2026-05-03T08:02:33.63Z</time></trkpt><trkpt lat="39.8638649" lon="16.3358698"><ele>736.4</ele><time>2026-05-03T08:02:34.655Z</time></trkpt><trkpt lat="39.8637844" lon="16.3359223"><ele>737.2</ele><time>2026-05-03T08:02:35.648Z</time></trkpt><trkpt lat="39.8637086" lon="16.3359775"><ele>738.0</ele><time>2026-05-03T08:02:36.623Z</time></trkpt><trkpt lat="39.8636233" lon="16.3360394"><ele>738.0</ele><time>2026-05-03T08:02:37.634Z</time></trkpt><trkpt lat="39.8635313" lon="16.336101"><ele>738.0</ele><time>2026-05-03T08:02:38.645Z</time></trkpt><trkpt lat="39.8634399" lon="16.336181"><ele>738.0</ele><time>2026-05-03T08:02:39.637Z</time></trkpt><trkpt lat="39.8633578" lon="16.336265"><ele>738.0</ele><time>2026-05-03T08:02:40.639Z</time></trkpt><trkpt lat="39.8632905" lon="16.3363313"><ele>738.0</ele><time>2026-05-03T08:02:41.628Z</time></trkpt><trkpt lat="39.8632363" lon="16.3363735"><ele>738.0</ele><time>2026-05-03T08:02:42.645Z</time></trkpt><trkpt lat="39.8631252" lon="16.3363841"><ele>738.0</ele><time>2026-05-03T08:02:44.646Z</time></trkpt><trkpt lat="39.8630344" lon="16.3362966"><ele>738.0</ele><time>2026-05-03T08:02:46.625Z</time></trkpt><trkpt lat="39.863002" lon="16.3362247"><ele>738.0</ele><time>2026-05-03T08:02:47.626Z</time></trkpt><trkpt lat="39.862966" lon="16.3361344"><ele>738.0</ele><time>2026-05-03T08:02:48.629Z</time></trkpt><trkpt lat="39.8629197" lon="16.3360229"><ele>738.0</ele><time>2026-05-03T08:02:49.62Z</time></trkpt><trkpt lat="39.8628703" lon="16.3358981"><ele>738.0</ele><time>2026-05-03T08:02:50.625Z</time></trkpt><trkpt lat="39.8628165" lon="16.3357854"><ele>738.0</ele><time>2026-05-03T08:02:51.618Z</time></trkpt><trkpt lat="39.8627711" lon="16.3356732"><ele>738.0</ele><time>2026-05-03T08:02:52.63Z</time></trkpt><trkpt lat="39.8627182" lon="16.3355776"><ele>738.0</ele><time>2026-05-03T08:02:53.625Z</time></trkpt><trkpt lat="39.8626567" lon="16.3354852"><ele>741.0</ele><time>2026-05-03T08:02:54.626Z</time></trkpt><trkpt lat="39.862594" lon="16.3354016"><ele>744.0</ele><time>2026-05-03T08:02:55.613Z</time></trkpt><trkpt lat="39.8625279" lon="16.3353247"><ele>747.0</ele><time>2026-05-03T08:02:56.627Z</time></trkpt><trkpt lat="39.8624591" lon="16.3352468"><ele>750.0</ele><time>2026-05-03T08:02:57.622Z</time></trkpt><trkpt lat="39.8623819" lon="16.3351779"><ele>753.0</ele><time>2026-05-03T08:02:58.642Z</time></trkpt><trkpt lat="39.8623038" lon="16.3351206"><ele>753.0</ele><time>2026-05-03T08:02:59.623Z</time></trkpt><trkpt lat="39.8622343" lon="16.3350546"><ele>753.0</ele><time>2026-05-03T08:03:00.64Z</time></trkpt><trkpt lat="39.8621943" lon="16.3349702"><ele>753.0</ele><time>2026-05-03T08:03:01.621Z</time></trkpt><trkpt lat="39.8621574" lon="16.3348762"><ele>753.0</ele><time>2026-05-03T08:03:02.619Z</time></trkpt><trkpt lat="39.8621196" lon="16.3347791"><ele>753.0</ele><time>2026-05-03T08:03:03.641Z</time></trkpt><trkpt lat="39.8620718" lon="16.3346946"><ele>753.0</ele><time>2026-05-03T08:03:04.627Z</time></trkpt><trkpt lat="39.8620221" lon="16.3346258"><ele>754.0</ele><time>2026-05-03T08:03:05.635Z</time></trkpt><trkpt lat="39.8619722" lon="16.3345651"><ele>755.0</ele><time>2026-05-03T08:03:06.637Z</time></trkpt><trkpt lat="39.8619207" lon="16.3345145"><ele>756.0</ele><time>2026-05-03T08:03:07.626Z</time></trkpt><trkpt lat="39.8618241" lon="16.3344645"><ele>757.0</ele><time>2026-05-03T08:03:09.626Z</time></trkpt><trkpt lat="39.8617535" lon="16.3344996"><ele>758.0</ele><time>2026-05-03T08:03:11.634Z</time></trkpt><trkpt lat="39.8617538" lon="16.3345992"><ele>759.0</ele><time>2026-05-03T08:03:13.637Z</time></trkpt><trkpt lat="39.8618237" lon="16.3347124"><ele>757.8000000000001</ele><time>2026-05-03T08:03:15.636Z</time></trkpt><trkpt lat="39.8618636" lon="16.3347841"><ele>756.6</ele><time>2026-05-03T08:03:16.629Z</time></trkpt><trkpt lat="39.8619203" lon="16.3349117"><ele>755.4</ele><time>2026-05-03T08:03:18.646Z</time></trkpt><trkpt lat="39.8619175" lon="16.3350277"><ele>754.2</ele><time>2026-05-03T08:03:20.64Z</time></trkpt><trkpt lat="39.8618486" lon="16.3350476"><ele>753.0</ele><time>2026-05-03T08:03:22.632Z</time></trkpt><trkpt lat="39.8617415" lon="16.3349899"><ele>754.0</ele><time>2026-05-03T08:03:24.63Z</time></trkpt><trkpt lat="39.8616725" lon="16.3349489"><ele>755.0</ele><time>2026-05-03T08:03:25.638Z</time></trkpt><trkpt lat="39.8615837" lon="16.3349248"><ele>756.0</ele><time>2026-05-03T08:03:26.627Z</time></trkpt><trkpt lat="39.8614896" lon="16.3349018"><ele>757.0</ele><time>2026-05-03T08:03:27.643Z</time></trkpt><trkpt lat="39.8614004" lon="16.3348653"><ele>758.0</ele><time>2026-05-03T08:03:28.636Z</time></trkpt><trkpt lat="39.861319" lon="16.3348055"><ele>759.0</ele><time>2026-05-03T08:03:29.647Z</time></trkpt><trkpt lat="39.8612511" lon="16.3347199"><ele>759.0</ele><time>2026-05-03T08:03:30.651Z</time></trkpt><trkpt lat="39.8611838" lon="16.3346214"><ele>759.0</ele><time>2026-05-03T08:03:31.626Z</time></trkpt><trkpt lat="39.8611226" lon="16.3345223"><ele>759.0</ele><time>2026-05-03T08:03:32.643Z</time></trkpt><trkpt lat="39.8610755" lon="16.3344548"><ele>759.0</ele><time>2026-05-03T08:03:33.625Z</time></trkpt><trkpt lat="39.8609801" lon="16.3343512"><ele>759.0</ele><time>2026-05-03T08:03:35.624Z</time></trkpt><trkpt lat="39.8609129" lon="16.33432"><ele>763.3333333333334</ele><time>2026-05-03T08:03:36.621Z</time></trkpt><trkpt lat="39.8608404" lon="16.3342895"><ele>767.6666666666667</ele><time>2026-05-03T08:03:37.602Z</time></trkpt><trkpt lat="39.8607631" lon="16.3342746"><ele>772.0</ele><time>2026-05-03T08:03:38.639Z</time></trkpt><trkpt lat="39.8606837" lon="16.3342566"><ele>776.3333333333334</ele><time>2026-05-03T08:03:39.617Z</time></trkpt><trkpt lat="39.860611" lon="16.3342249"><ele>780.6666666666667</ele><time>2026-05-03T08:03:40.637Z</time></trkpt><trkpt lat="39.8605346" lon="16.3341801"><ele>785.0</ele><time>2026-05-03T08:03:41.615Z</time></trkpt><trkpt lat="39.8604592" lon="16.3341315"><ele>785.0000000000001</ele><time>2026-05-03T08:03:42.636Z</time></trkpt><trkpt lat="39.8603922" lon="16.334087"><ele>785.0</ele><time>2026-05-03T08:03:43.634Z</time></trkpt><trkpt lat="39.860331" lon="16.3340576"><ele>785.0</ele><time>2026-05-03T08:03:44.63Z</time></trkpt><trkpt lat="39.8602604" lon="16.3340422"><ele>785.0</ele><time>2026-05-03T08:03:45.628Z</time></trkpt><trkpt lat="39.8601778" lon="16.3340301"><ele>785.0000000000001</ele><time>2026-05-03T08:03:46.63Z</time></trkpt><trkpt lat="39.8600821" lon="16.3340235"><ele>785.0</ele><time>2026-05-03T08:03:47.633Z</time></trkpt><trkpt lat="39.8599754" lon="16.3340105"><ele>788.2</ele><time>2026-05-03T08:03:48.616Z</time></trkpt><trkpt lat="39.859856" lon="16.3339825"><ele>791.4</ele><time>2026-05-03T08:03:49.631Z</time></trkpt><trkpt lat="39.859748" lon="16.3339548"><ele>794.5999999999999</ele><time>2026-05-03T08:03:50.632Z</time></trkpt><trkpt lat="39.8596644" lon="16.333936"><ele>797.8</ele><time>2026-05-03T08:03:51.621Z</time></trkpt><trkpt lat="39.8595955" lon="16.3339252"><ele>801.0</ele><time>2026-05-03T08:03:52.658Z</time></trkpt><trkpt lat="39.8595262" lon="16.3339157"><ele>801.0</ele><time>2026-05-03T08:03:53.624Z</time></trkpt><trkpt lat="39.8594448" lon="16.3339124"><ele>801.0</ele><time>2026-05-03T08:03:54.634Z</time></trkpt><trkpt lat="39.8593547" lon="16.3339197"><ele>801.0</ele><time>2026-05-03T08:03:55.636Z</time></trkpt><trkpt lat="39.8592732" lon="16.3339353"><ele>801.0</ele><time>2026-05-03T08:03:56.628Z</time></trkpt><trkpt lat="39.8591917" lon="16.3339465"><ele>801.0</ele><time>2026-05-03T08:03:57.634Z</time></trkpt><trkpt lat="39.8591115" lon="16.3339387"><ele>801.0</ele><time>2026-05-03T08:03:58.627Z</time></trkpt><trkpt lat="39.8590401" lon="16.3339031"><ele>798.0</ele><time>2026-05-03T08:03:59.633Z</time></trkpt><trkpt lat="39.8589879" lon="16.333853"><ele>795.0</ele><time>2026-05-03T08:04:00.631Z</time></trkpt><trkpt lat="39.8589211" lon="16.3337211"><ele>792.0</ele><time>2026-05-03T08:04:02.633Z</time></trkpt><trkpt lat="39.8588872" lon="16.3336444"><ele>789.0</ele><time>2026-05-03T08:04:03.635Z</time></trkpt><trkpt lat="39.8587985" lon="16.3335587"><ele>786.0</ele><time>2026-05-03T08:04:05.648Z</time></trkpt><trkpt lat="39.8586875" lon="16.3335526"><ele>786.0</ele><time>2026-05-03T08:04:07.636Z</time></trkpt><trkpt lat="39.8586198" lon="16.3335724"><ele>786.0</ele><time>2026-05-03T08:04:08.633Z</time></trkpt><trkpt lat="39.8585431" lon="16.3336048"><ele>786.0</ele><time>2026-05-03T08:04:09.632Z</time></trkpt><trkpt lat="39.858462" lon="16.33363"><ele>786.0</ele><time>2026-05-03T08:04:10.638Z</time></trkpt><trkpt lat="39.8583765" lon="16.3336463"><ele>786.0</ele><time>2026-05-03T08:04:11.649Z</time></trkpt><trkpt lat="39.8582819" lon="16.3336537"><ele>786.0</ele><time>2026-05-03T08:04:12.635Z</time></trkpt><trkpt lat="39.8581826" lon="16.3336714"><ele>785.5999999999999</ele><time>2026-05-03T08:04:13.631Z</time></trkpt><trkpt lat="39.8580795" lon="16.3336922"><ele>785.2</ele><time>2026-05-03T08:04:14.623Z</time></trkpt><trkpt lat="39.8579731" lon="16.3337111"><ele>784.8</ele><time>2026-05-03T08:04:15.653Z</time></trkpt><trkpt lat="39.8578799" lon="16.3337479"><ele>784.4000000000001</ele><time>2026-05-03T08:04:16.62Z</time></trkpt><trkpt lat="39.8577795" lon="16.3337764"><ele>784.0</ele><time>2026-05-03T08:04:17.602Z</time></trkpt><trkpt lat="39.8576719" lon="16.333796"><ele>782.8000000000001</ele><time>2026-05-03T08:04:18.619Z</time></trkpt><trkpt lat="39.8575674" lon="16.3338169"><ele>781.6</ele><time>2026-05-03T08:04:19.625Z</time></trkpt><trkpt lat="39.8574662" lon="16.3338191"><ele>780.4</ele><time>2026-05-03T08:04:20.627Z</time></trkpt><trkpt lat="39.8573627" lon="16.3338069"><ele>779.2</ele><time>2026-05-03T08:04:21.634Z</time></trkpt><trkpt lat="39.8572662" lon="16.3337794"><ele>778.0</ele><time>2026-05-03T08:04:22.631Z</time></trkpt><trkpt lat="39.8571849" lon="16.3337475"><ele>777.9999999999999</ele><time>2026-05-03T08:04:23.627Z</time></trkpt><trkpt lat="39.8571128" lon="16.3337293"><ele>778.0</ele><time>2026-05-03T08:04:24.63Z</time></trkpt><trkpt lat="39.85703" lon="16.3337203"><ele>778.0</ele><time>2026-05-03T08:04:25.621Z</time></trkpt><trkpt lat="39.8569408" lon="16.3337049"><ele>778.0</ele><time>2026-05-03T08:04:26.637Z</time></trkpt><trkpt lat="39.8568725" lon="16.3337095"><ele>777.9999999999999</ele><time>2026-05-03T08:04:27.632Z</time></trkpt><trkpt lat="39.856788" lon="16.3336837"><ele>778.0</ele><time>2026-05-03T08:04:29.634Z</time></trkpt><trkpt lat="39.8567393" lon="16.3336"><ele>779.8</ele><time>2026-05-03T08:04:31.632Z</time></trkpt><trkpt lat="39.8567569" lon="16.3334829"><ele>781.5999999999999</ele><time>2026-05-03T08:04:33.638Z</time></trkpt><trkpt lat="39.8567559" lon="16.3333772"><ele>783.4000000000001</ele><time>2026-05-03T08:04:35.643Z</time></trkpt><trkpt lat="39.8566941" lon="16.3332975"><ele>785.2</ele><time>2026-05-03T08:04:37.656Z</time></trkpt><trkpt lat="39.8565842" lon="16.3332651"><ele>787.0</ele><time>2026-05-03T08:04:39.622Z</time></trkpt><trkpt lat="39.8564606" lon="16.3332287"><ele>786.9999999999999</ele><time>2026-05-03T08:04:41.621Z</time></trkpt><trkpt lat="39.8563945" lon="16.3332035"><ele>787.0</ele><time>2026-05-03T08:04:42.631Z</time></trkpt><trkpt lat="39.8563252" lon="16.3331791"><ele>787.0</ele><time>2026-05-03T08:04:43.638Z</time></trkpt><trkpt lat="39.8562571" lon="16.3331682"><ele>787.0</ele><time>2026-05-03T08:04:44.633Z</time></trkpt><trkpt lat="39.8561802" lon="16.3331549"><ele>786.9999999999999</ele><time>2026-05-03T08:04:45.635Z</time></trkpt><trkpt lat="39.8560926" lon="16.3331249"><ele>787.0</ele><time>2026-05-03T08:04:46.638Z</time></trkpt><trkpt lat="39.856002" lon="16.3330966"><ele>787.6</ele><time>2026-05-03T08:04:47.63Z</time></trkpt><trkpt lat="39.8559252" lon="16.3330719"><ele>788.2</ele><time>2026-05-03T08:04:48.643Z</time></trkpt><trkpt lat="39.8558107" lon="16.3330555"><ele>788.8</ele><time>2026-05-03T08:04:50.639Z</time></trkpt><trkpt lat="39.8557053" lon="16.3330507"><ele>789.4</ele><time>2026-05-03T08:04:52.631Z</time></trkpt><trkpt lat="39.8556501" lon="16.3329607"><ele>790.0</ele><time>2026-05-03T08:04:54.621Z</time></trkpt><trkpt lat="39.8555873" lon="16.3328085"><ele>789.9999999999999</ele><time>2026-05-03T08:04:56.639Z</time></trkpt><trkpt lat="39.8555486" lon="16.3327128"><ele>790.0</ele><time>2026-05-03T08:04:57.624Z</time></trkpt><trkpt lat="39.8555093" lon="16.3326142"><ele>790.0</ele><time>2026-05-03T08:04:58.636Z</time></trkpt><trkpt lat="39.8554597" lon="16.3325072"><ele>790.0</ele><time>2026-05-03T08:04:59.614Z</time></trkpt><trkpt lat="39.8554102" lon="16.3324055"><ele>789.9999999999999</ele><time>2026-05-03T08:05:00.64Z</time></trkpt><trkpt lat="39.8553667" lon="16.332318"><ele>790.0</ele><time>2026-05-03T08:05:01.623Z</time></trkpt><trkpt lat="39.8553185" lon="16.3322469"><ele>789.4999999999999</ele><time>2026-05-03T08:05:02.616Z</time></trkpt><trkpt lat="39.8552529" lon="16.3321908"><ele>789.0</ele><time>2026-05-03T08:05:03.62Z</time></trkpt><trkpt lat="39.855171" lon="16.3321443"><ele>788.5</ele><time>2026-05-03T08:05:04.63Z</time></trkpt><trkpt lat="39.8550853" lon="16.3321071"><ele>788.0</ele><time>2026-05-03T08:05:05.615Z</time></trkpt><trkpt lat="39.854993" lon="16.3320686"><ele>787.4999999999999</ele><time>2026-05-03T08:05:06.631Z</time></trkpt><trkpt lat="39.8549035" lon="16.3320369"><ele>787.0</ele><time>2026-05-03T08:05:07.623Z</time></trkpt><trkpt lat="39.8548238" lon="16.3320028"><ele>787.0</ele><time>2026-05-03T08:05:08.637Z</time></trkpt><trkpt lat="39.854713" lon="16.331991"><ele>787.0</ele><time>2026-05-03T08:05:10.631Z</time></trkpt><trkpt lat="39.8546083" lon="16.3319967"><ele>787.0</ele><time>2026-05-03T08:05:12.629Z</time></trkpt><trkpt lat="39.8545067" lon="16.332054"><ele>787.0</ele><time>2026-05-03T08:05:14.626Z</time></trkpt><trkpt lat="39.8544055" lon="16.3321394"><ele>787.0</ele><time>2026-05-03T08:05:16.636Z</time></trkpt><trkpt lat="39.8543239" lon="16.3321563"><ele>789.8</ele><time>2026-05-03T08:05:18.633Z</time></trkpt><trkpt lat="39.8542645" lon="16.3320769"><ele>792.6</ele><time>2026-05-03T08:05:20.635Z</time></trkpt><trkpt lat="39.8542242" lon="16.3319235"><ele>795.4</ele><time>2026-05-03T08:05:22.637Z</time></trkpt><trkpt lat="39.8541966" lon="16.3318255"><ele>798.1999999999999</ele><time>2026-05-03T08:05:23.622Z</time></trkpt><trkpt lat="39.8541601" lon="16.3317132"><ele>801.0</ele><time>2026-05-03T08:05:24.627Z</time></trkpt><trkpt lat="39.854133" lon="16.3316081"><ele>801.0</ele><time>2026-05-03T08:05:25.653Z</time></trkpt><trkpt lat="39.8541007" lon="16.331507"><ele>801.0</ele><time>2026-05-03T08:05:26.651Z</time></trkpt><trkpt lat="39.8540646" lon="16.331421"><ele>801.0</ele><time>2026-05-03T08:05:27.639Z</time></trkpt><trkpt lat="39.8540027" lon="16.3313099"><ele>801.0</ele><time>2026-05-03T08:05:29.62Z</time></trkpt><trkpt lat="39.8538997" lon="16.3312006"><ele>801.0</ele><time>2026-05-03T08:05:31.612Z</time></trkpt><trkpt lat="39.8538383" lon="16.3311451"><ele>801.0</ele><time>2026-05-03T08:05:32.619Z</time></trkpt><trkpt lat="39.8537669" lon="16.3310882"><ele>801.0</ele><time>2026-05-03T08:05:33.635Z</time></trkpt><trkpt lat="39.8536778" lon="16.3310571"><ele>801.0</ele><time>2026-05-03T08:05:34.632Z</time></trkpt><trkpt lat="39.8535919" lon="16.3310442"><ele>801.0</ele><time>2026-05-03T08:05:35.631Z</time></trkpt><trkpt lat="39.8534989" lon="16.3310483"><ele>801.0</ele><time>2026-05-03T08:05:36.63Z</time></trkpt><trkpt lat="39.853401" lon="16.3310766"><ele>801.0</ele><time>2026-05-03T08:05:37.636Z</time></trkpt><trkpt lat="39.8533126" lon="16.3311124"><ele>801.0</ele><time>2026-05-03T08:05:38.638Z</time></trkpt><trkpt lat="39.8532318" lon="16.3311508"><ele>801.0</ele><time>2026-05-03T08:05:39.633Z</time></trkpt><trkpt lat="39.8531535" lon="16.3311934"><ele>801.0</ele><time>2026-05-03T08:05:40.641Z</time></trkpt><trkpt lat="39.8530714" lon="16.331234"><ele>801.0</ele><time>2026-05-03T08:05:41.617Z</time></trkpt><trkpt lat="39.8529559" lon="16.3312605"><ele>801.0</ele><time>2026-05-03T08:05:43.631Z</time></trkpt><trkpt lat="39.8528659" lon="16.3312311"><ele>801.0</ele><time>2026-05-03T08:05:45.62Z</time></trkpt><trkpt lat="39.8527987" lon="16.3311044"><ele>801.0</ele><time>2026-05-03T08:05:47.638Z</time></trkpt><trkpt lat="39.8527624" lon="16.3310238"><ele>801.0</ele><time>2026-05-03T08:05:48.638Z</time></trkpt><trkpt lat="39.8527319" lon="16.3309467"><ele>801.0</ele><time>2026-05-03T08:05:49.64Z</time></trkpt><trkpt lat="39.8526824" lon="16.3308926"><ele>801.0</ele><time>2026-05-03T08:05:50.636Z</time></trkpt><trkpt lat="39.8525872" lon="16.3308209"><ele>802.4</ele><time>2026-05-03T08:05:52.624Z</time></trkpt><trkpt lat="39.8524861" lon="16.3308173"><ele>803.8</ele><time>2026-05-03T08:05:54.621Z</time></trkpt><trkpt lat="39.8524169" lon="16.3308467"><ele>805.1999999999999</ele><time>2026-05-03T08:05:55.631Z</time></trkpt><trkpt lat="39.8523218" lon="16.3308867"><ele>806.5999999999999</ele><time>2026-05-03T08:05:56.627Z</time></trkpt><trkpt lat="39.8522131" lon="16.3309278"><ele>808.0</ele><time>2026-05-03T08:05:57.621Z</time></trkpt><trkpt lat="39.8521128" lon="16.330962"><ele>808.0</ele><time>2026-05-03T08:05:58.636Z</time></trkpt><trkpt lat="39.8520179" lon="16.3309837"><ele>808.0</ele><time>2026-05-03T08:05:59.625Z</time></trkpt><trkpt lat="39.8519486" lon="16.3309888"><ele>808.0</ele><time>2026-05-03T08:06:00.641Z</time></trkpt><trkpt lat="39.8518536" lon="16.3309566"><ele>808.0</ele><time>2026-05-03T08:06:02.632Z</time></trkpt><trkpt lat="39.8517977" lon="16.3308404"><ele>808.0</ele><time>2026-05-03T08:06:04.622Z</time></trkpt><trkpt lat="39.8518169" lon="16.3306835"><ele>808.4</ele><time>2026-05-03T08:06:06.636Z</time></trkpt><trkpt lat="39.8518191" lon="16.3305258"><ele>808.8</ele><time>2026-05-03T08:06:08.64Z</time></trkpt><trkpt lat="39.8517461" lon="16.3304055"><ele>809.2</ele><time>2026-05-03T08:06:10.621Z</time></trkpt><trkpt lat="39.8516804" lon="16.3303577"><ele>809.6</ele><time>2026-05-03T08:06:11.624Z</time></trkpt><trkpt lat="39.851607" lon="16.330314"><ele>810.0</ele><time>2026-05-03T08:06:12.639Z</time></trkpt><trkpt lat="39.8515404" lon="16.330249"><ele>810.0</ele><time>2026-05-03T08:06:13.624Z</time></trkpt><trkpt lat="39.8514782" lon="16.3301673"><ele>810.0</ele><time>2026-05-03T08:06:14.626Z</time></trkpt><trkpt lat="39.8514197" lon="16.3300782"><ele>810.0</ele><time>2026-05-03T08:06:15.642Z</time></trkpt><trkpt lat="39.8513617" lon="16.3299823"><ele>810.0</ele><time>2026-05-03T08:06:16.632Z</time></trkpt><trkpt lat="39.8513106" lon="16.3298744"><ele>810.0</ele><time>2026-05-03T08:06:17.651Z</time></trkpt><trkpt lat="39.8512593" lon="16.3297596"><ele>809.4</ele><time>2026-05-03T08:06:18.645Z</time></trkpt><trkpt lat="39.8511995" lon="16.3296553"><ele>808.8</ele><time>2026-05-03T08:06:19.642Z</time></trkpt><trkpt lat="39.8511297" lon="16.3295557"><ele>808.2</ele><time>2026-05-03T08:06:20.65Z</time></trkpt><trkpt lat="39.8510578" lon="16.3294332"><ele>807.6</ele><time>2026-05-03T08:06:21.642Z</time></trkpt><trkpt lat="39.8509849" lon="16.3293069"><ele>807.0</ele><time>2026-05-03T08:06:22.647Z</time></trkpt><trkpt lat="39.8509084" lon="16.3291819"><ele>809.25</ele><time>2026-05-03T08:06:23.654Z</time></trkpt><trkpt lat="39.8508292" lon="16.3290595"><ele>811.5</ele><time>2026-05-03T08:06:24.654Z</time></trkpt><trkpt lat="39.8507411" lon="16.3289444"><ele>813.75</ele><time>2026-05-03T08:06:25.646Z</time></trkpt><trkpt lat="39.8506466" lon="16.3288427"><ele>816.0</ele><time>2026-05-03T08:06:26.647Z</time></trkpt><trkpt lat="39.8505539" lon="16.3287489"><ele>816.1666666666666</ele><time>2026-05-03T08:06:27.659Z</time></trkpt><trkpt lat="39.8504775" lon="16.3286738"><ele>816.3333333333333</ele><time>2026-05-03T08:06:28.653Z</time></trkpt><trkpt lat="39.8504282" lon="16.3285936"><ele>816.5</ele><time>2026-05-03T08:06:29.634Z</time></trkpt><trkpt lat="39.8504058" lon="16.3284999"><ele>816.6666666666666</ele><time>2026-05-03T08:06:30.638Z</time></trkpt><trkpt lat="39.8504023" lon="16.3283811"><ele>816.8333333333333</ele><time>2026-05-03T08:06:31.649Z</time></trkpt><trkpt lat="39.8504192" lon="16.3282521"><ele>817.0</ele><time>2026-05-03T08:06:32.633Z</time></trkpt><trkpt lat="39.8504555" lon="16.3281133"><ele>818.2</ele><time>2026-05-03T08:06:33.632Z</time></trkpt><trkpt lat="39.850495" lon="16.3279783"><ele>819.4000000000001</ele><time>2026-05-03T08:06:34.643Z</time></trkpt><trkpt lat="39.8505226" lon="16.3278565"><ele>820.5999999999999</ele><time>2026-05-03T08:06:35.643Z</time></trkpt><trkpt lat="39.850544" lon="16.3277501"><ele>821.8</ele><time>2026-05-03T08:06:36.645Z</time></trkpt><trkpt lat="39.8505606" lon="16.3276475"><ele>823.0</ele><time>2026-05-03T08:06:37.648Z</time></trkpt><trkpt lat="39.8505798" lon="16.3275347"><ele>823.0</ele><time>2026-05-03T08:06:38.642Z</time></trkpt><trkpt lat="39.8506017" lon="16.3274149"><ele>823.0</ele><time>2026-05-03T08:06:39.639Z</time></trkpt><trkpt lat="39.8506208" lon="16.327277"><ele>823.0</ele><time>2026-05-03T08:06:40.65Z</time></trkpt><trkpt lat="39.8506461" lon="16.3271381"><ele>823.0</ele><time>2026-05-03T08:06:41.63Z</time></trkpt><trkpt lat="39.8506679" lon="16.3270062"><ele>823.0</ele><time>2026-05-03T08:06:42.643Z</time></trkpt><trkpt lat="39.8506819" lon="16.3268857"><ele>823.3333333333333</ele><time>2026-05-03T08:06:43.628Z</time></trkpt><trkpt lat="39.8506877" lon="16.3267681"><ele>823.6666666666666</ele><time>2026-05-03T08:06:44.641Z</time></trkpt><trkpt lat="39.8506828" lon="16.3266509"><ele>824.0</ele><time>2026-05-03T08:06:45.639Z</time></trkpt><trkpt lat="39.8506656" lon="16.3265305"><ele>824.3333333333333</ele><time>2026-05-03T08:06:46.625Z</time></trkpt><trkpt lat="39.8506385" lon="16.3264193"><ele>824.6666666666666</ele><time>2026-05-03T08:06:47.652Z</time></trkpt><trkpt lat="39.850587" lon="16.3263347"><ele>825.0</ele><time>2026-05-03T08:06:48.659Z</time></trkpt><trkpt lat="39.8505156" lon="16.3262746"><ele>823.6</ele><time>2026-05-03T08:06:49.652Z</time></trkpt><trkpt lat="39.8504309" lon="16.3262226"><ele>822.2</ele><time>2026-05-03T08:06:50.652Z</time></trkpt><trkpt lat="39.8503345" lon="16.3261755"><ele>820.8</ele><time>2026-05-03T08:06:51.636Z</time></trkpt><trkpt lat="39.8502224" lon="16.3261243"><ele>819.4</ele><time>2026-05-03T08:06:52.64Z</time></trkpt><trkpt lat="39.8500992" lon="16.3260605"><ele>818.0</ele><time>2026-05-03T08:06:53.639Z</time></trkpt><trkpt lat="39.8499674" lon="16.3259965"><ele>818.0</ele><time>2026-05-03T08:06:54.65Z</time></trkpt><trkpt lat="39.8498435" lon="16.3259438"><ele>818.0</ele><time>2026-05-03T08:06:55.638Z</time></trkpt><trkpt lat="39.8497308" lon="16.3258847"><ele>818.0</ele><time>2026-05-03T08:06:56.648Z</time></trkpt><trkpt lat="39.8496205" lon="16.3258315"><ele>818.0</ele><time>2026-05-03T08:06:57.641Z</time></trkpt><trkpt lat="39.8495188" lon="16.3257841"><ele>818.0000000000001</ele><time>2026-05-03T08:06:58.623Z</time></trkpt><trkpt lat="39.8494285" lon="16.325746"><ele>818.0</ele><time>2026-05-03T08:06:59.635Z</time></trkpt><trkpt lat="39.8493544" lon="16.3257203"><ele>818.0</ele><time>2026-05-03T08:07:00.636Z</time></trkpt><trkpt lat="39.8492862" lon="16.3257098"><ele>818.0</ele><time>2026-05-03T08:07:01.637Z</time></trkpt><trkpt lat="39.849183" lon="16.3256857"><ele>818.0000000000001</ele><time>2026-05-03T08:07:03.625Z</time></trkpt><trkpt lat="39.8490896" lon="16.3256587"><ele>818.0</ele><time>2026-05-03T08:07:05.626Z</time></trkpt><trkpt lat="39.8489981" lon="16.325618"><ele>819.0</ele><time>2026-05-03T08:07:07.622Z</time></trkpt><trkpt lat="39.8489161" lon="16.3255708"><ele>820.0</ele><time>2026-05-03T08:07:09.628Z</time></trkpt><trkpt lat="39.8488437" lon="16.325505"><ele>821.0</ele><time>2026-05-03T08:07:11.63Z</time></trkpt><trkpt lat="39.8487785" lon="16.3254186"><ele>822.0</ele><time>2026-05-03T08:07:13.633Z</time></trkpt><trkpt lat="39.8486963" lon="16.325301"><ele>823.0</ele><time>2026-05-03T08:07:15.622Z</time></trkpt><trkpt lat="39.8486554" lon="16.3252347"><ele>821.8</ele><time>2026-05-03T08:07:16.609Z</time></trkpt><trkpt lat="39.8485777" lon="16.3251438"><ele>820.5999999999999</ele><time>2026-05-03T08:07:18.627Z</time></trkpt><trkpt lat="39.8484847" lon="16.3250757"><ele>819.4000000000001</ele><time>2026-05-03T08:07:20.622Z</time></trkpt><trkpt lat="39.8483628" lon="16.3250263"><ele>818.2</ele><time>2026-05-03T08:07:22.636Z</time></trkpt><trkpt lat="39.8482853" lon="16.3250081"><ele>817.0</ele><time>2026-05-03T08:07:23.629Z</time></trkpt><trkpt lat="39.8482071" lon="16.3249788"><ele>816.9999999999999</ele><time>2026-05-03T08:07:24.637Z</time></trkpt><trkpt lat="39.8481199" lon="16.3249563"><ele>817.0</ele><time>2026-05-03T08:07:25.63Z</time></trkpt><trkpt lat="39.8480306" lon="16.324946"><ele>817.0</ele><time>2026-05-03T08:07:26.645Z</time></trkpt><trkpt lat="39.847962" lon="16.32494"><ele>817.0</ele><time>2026-05-03T08:07:27.627Z</time></trkpt><trkpt lat="39.8478848" lon="16.3248932"><ele>816.9999999999999</ele><time>2026-05-03T08:07:29.639Z</time></trkpt><trkpt lat="39.8478502" lon="16.324778"><ele>817.0</ele><time>2026-05-03T08:07:31.621Z</time></trkpt><trkpt lat="39.8478437" lon="16.3246354"><ele>815.3333333333333</ele><time>2026-05-03T08:07:33.624Z</time></trkpt><trkpt lat="39.8478404" lon="16.3245524"><ele>813.6666666666666</ele><time>2026-05-03T08:07:34.626Z</time></trkpt><trkpt lat="39.8478346" lon="16.3244456"><ele>812.0</ele><time>2026-05-03T08:07:35.622Z</time></trkpt><trkpt lat="39.8478237" lon="16.3243196"><ele>810.3333333333333</ele><time>2026-05-03T08:07:36.626Z</time></trkpt><trkpt lat="39.847815" lon="16.324191"><ele>808.6666666666666</ele><time>2026-05-03T08:07:37.631Z</time></trkpt><trkpt lat="39.847802" lon="16.3240624"><ele>807.0</ele><time>2026-05-03T08:07:38.638Z</time></trkpt><trkpt lat="39.8477755" lon="16.3239283"><ele>807.0</ele><time>2026-05-03T08:07:39.631Z</time></trkpt><trkpt lat="39.8477416" lon="16.3237982"><ele>807.0</ele><time>2026-05-03T08:07:40.633Z</time></trkpt><trkpt lat="39.8477142" lon="16.3236781"><ele>807.0</ele><time>2026-05-03T08:07:41.619Z</time></trkpt><trkpt lat="39.8476964" lon="16.3235626"><ele>807.0</ele><time>2026-05-03T08:07:42.624Z</time></trkpt><trkpt lat="39.8476784" lon="16.3234487"><ele>807.0</ele><time>2026-05-03T08:07:43.623Z</time></trkpt><trkpt lat="39.847659" lon="16.3233395"><ele>807.0</ele><time>2026-05-03T08:07:44.655Z</time></trkpt><trkpt lat="39.8476331" lon="16.3232461"><ele>807.0</ele><time>2026-05-03T08:07:45.632Z</time></trkpt><trkpt lat="39.8475945" lon="16.3231649"><ele>807.0</ele><time>2026-05-03T08:07:46.638Z</time></trkpt><trkpt lat="39.84754" lon="16.3230919"><ele>807.0</ele><time>2026-05-03T08:07:47.628Z</time></trkpt><trkpt lat="39.8474694" lon="16.3230292"><ele>807.0</ele><time>2026-05-03T08:07:48.633Z</time></trkpt><trkpt lat="39.8473847" lon="16.3229721"><ele>807.0</ele><time>2026-05-03T08:07:49.619Z</time></trkpt><trkpt lat="39.8472994" lon="16.3229125"><ele>807.4000000000001</ele><time>2026-05-03T08:07:50.647Z</time></trkpt><trkpt lat="39.8472329" lon="16.3228664"><ele>807.8000000000001</ele><time>2026-05-03T08:07:51.627Z</time></trkpt><trkpt lat="39.8471326" lon="16.3228026"><ele>808.2</ele><time>2026-05-03T08:07:53.638Z</time></trkpt><trkpt lat="39.8470001" lon="16.3227823"><ele>808.6</ele><time>2026-05-03T08:07:55.631Z</time></trkpt><trkpt lat="39.8469146" lon="16.3228091"><ele>809.0</ele><time>2026-05-03T08:07:56.634Z</time></trkpt><trkpt lat="39.8468236" lon="16.322845"><ele>807.4000000000001</ele><time>2026-05-03T08:07:57.635Z</time></trkpt><trkpt lat="39.8467275" lon="16.3228725"><ele>805.8</ele><time>2026-05-03T08:07:58.631Z</time></trkpt><trkpt lat="39.8466299" lon="16.3229011"><ele>804.2</ele><time>2026-05-03T08:07:59.631Z</time></trkpt><trkpt lat="39.8465298" lon="16.3229343"><ele>802.5999999999999</ele><time>2026-05-03T08:08:00.634Z</time></trkpt><trkpt lat="39.8464295" lon="16.3229775"><ele>801.0</ele><time>2026-05-03T08:08:01.631Z</time></trkpt><trkpt lat="39.8463279" lon="16.3230172"><ele>804.5999999999999</ele><time>2026-05-03T08:08:02.637Z</time></trkpt><trkpt lat="39.8462189" lon="16.323071"><ele>808.2</ele><time>2026-05-03T08:08:03.623Z</time></trkpt><trkpt lat="39.8461136" lon="16.3231228"><ele>811.8</ele><time>2026-05-03T08:08:04.623Z</time></trkpt><trkpt lat="39.8460166" lon="16.3231716"><ele>815.4000000000001</ele><time>2026-05-03T08:08:05.622Z</time></trkpt><trkpt lat="39.8459212" lon="16.3232199"><ele>819.0</ele><time>2026-05-03T08:08:06.631Z</time></trkpt><trkpt lat="39.8458175" lon="16.323273"><ele>819.0</ele><time>2026-05-03T08:08:07.624Z</time></trkpt><trkpt lat="39.8457127" lon="16.3233269"><ele>819.0</ele><time>2026-05-03T08:08:08.632Z</time></trkpt><trkpt lat="39.8456221" lon="16.323384"><ele>819.0</ele><time>2026-05-03T08:08:09.624Z</time></trkpt><trkpt lat="39.8455438" lon="16.3234312"><ele>819.0</ele><time>2026-05-03T08:08:10.635Z</time></trkpt><trkpt lat="39.8454564" lon="16.3234775"><ele>819.0</ele><time>2026-05-03T08:08:11.643Z</time></trkpt><trkpt lat="39.8453601" lon="16.3235093"><ele>819.0</ele><time>2026-05-03T08:08:12.623Z</time></trkpt><trkpt lat="39.8452587" lon="16.3235408"><ele>819.0</ele><time>2026-05-03T08:08:13.628Z</time></trkpt><trkpt lat="39.845151" lon="16.3235723"><ele>819.0</ele><time>2026-05-03T08:08:14.618Z</time></trkpt><trkpt lat="39.8450434" lon="16.3235944"><ele>819.0</ele><time>2026-05-03T08:08:15.63Z</time></trkpt><trkpt lat="39.8449292" lon="16.3236011"><ele>819.0</ele><time>2026-05-03T08:08:16.622Z</time></trkpt><trkpt lat="39.844814" lon="16.3235983"><ele>818.0</ele><time>2026-05-03T08:08:17.634Z</time></trkpt><trkpt lat="39.844698" lon="16.3235757"><ele>817.0</ele><time>2026-05-03T08:08:18.632Z</time></trkpt><trkpt lat="39.8445841" lon="16.3235341"><ele>816.0</ele><time>2026-05-03T08:08:19.618Z</time></trkpt><trkpt lat="39.8444733" lon="16.3234801"><ele>815.0</ele><time>2026-05-03T08:08:20.631Z</time></trkpt><trkpt lat="39.8443837" lon="16.3234471"><ele>814.0</ele><time>2026-05-03T08:08:21.621Z</time></trkpt><trkpt lat="39.8443175" lon="16.3234448"><ele>814.4000000000001</ele><time>2026-05-03T08:08:22.619Z</time></trkpt><trkpt lat="39.8442001" lon="16.3234888"><ele>814.8</ele><time>2026-05-03T08:08:24.625Z</time></trkpt><trkpt lat="39.8441465" lon="16.3235568"><ele>815.2</ele><time>2026-05-03T08:08:25.619Z</time></trkpt><trkpt lat="39.8441016" lon="16.3236455"><ele>815.5999999999999</ele><time>2026-05-03T08:08:26.624Z</time></trkpt><trkpt lat="39.844043" lon="16.323759"><ele>816.0</ele><time>2026-05-03T08:08:27.636Z</time></trkpt><trkpt lat="39.8440139" lon="16.3238925"><ele>822.0</ele><time>2026-05-03T08:08:28.641Z</time></trkpt><trkpt lat="39.8439036" lon="16.3239679"><ele>828.0</ele><time>2026-05-03T08:08:29.625Z</time></trkpt><trkpt lat="39.84378" lon="16.3240366"><ele>834.0</ele><time>2026-05-03T08:08:30.648Z</time></trkpt><trkpt lat="39.8436726" lon="16.3241157"><ele>840.0</ele><time>2026-05-03T08:08:31.628Z</time></trkpt><trkpt lat="39.8435777" lon="16.3241995"><ele>840.0</ele><time>2026-05-03T08:08:32.647Z</time></trkpt><trkpt lat="39.8435076" lon="16.3242861"><ele>840.0</ele><time>2026-05-03T08:08:33.629Z</time></trkpt><trkpt lat="39.8434595" lon="16.3243792"><ele>840.0</ele><time>2026-05-03T08:08:34.642Z</time></trkpt><trkpt lat="39.8434314" lon="16.3244883"><ele>840.0</ele><time>2026-05-03T08:08:35.623Z</time></trkpt><trkpt lat="39.8434126" lon="16.3246176"><ele>840.0</ele><time>2026-05-03T08:08:36.664Z</time></trkpt><trkpt lat="39.8433988" lon="16.3247548"><ele>838.5</ele><time>2026-05-03T08:08:37.641Z</time></trkpt><trkpt lat="39.8433789" lon="16.3248559"><ele>837.0</ele><time>2026-05-03T08:08:38.631Z</time></trkpt><trkpt lat="39.8433508" lon="16.324931"><ele>835.5</ele><time>2026-05-03T08:08:39.634Z</time></trkpt><trkpt lat="39.8433079" lon="16.3250145"><ele>834.0</ele><time>2026-05-03T08:08:40.624Z</time></trkpt><trkpt lat="39.8432412" lon="16.3250923"><ele>832.5</ele><time>2026-05-03T08:08:41.644Z</time></trkpt><trkpt lat="39.8431696" lon="16.3251728"><ele>831.0</ele><time>2026-05-03T08:08:42.639Z</time></trkpt><trkpt lat="39.8431137" lon="16.3252551"><ele>831.0</ele><time>2026-05-03T08:08:43.612Z</time></trkpt><trkpt lat="39.8430604" lon="16.325386"><ele>831.0</ele><time>2026-05-03T08:08:45.643Z</time></trkpt><trkpt lat="39.8429897" lon="16.3254455"><ele>831.0</ele><time>2026-05-03T08:08:47.635Z</time></trkpt><trkpt lat="39.8428816" lon="16.3254114"><ele>831.0</ele><time>2026-05-03T08:08:49.634Z</time></trkpt><trkpt lat="39.8428048" lon="16.3253924"><ele>831.0</ele><time>2026-05-03T08:08:50.65Z</time></trkpt><trkpt lat="39.8427113" lon="16.3253787"><ele>830.8</ele><time>2026-05-03T08:08:51.648Z</time></trkpt><trkpt lat="39.8426112" lon="16.3253597"><ele>830.5999999999999</ele><time>2026-05-03T08:08:52.652Z</time></trkpt><trkpt lat="39.8425115" lon="16.3253416"><ele>830.4</ele><time>2026-05-03T08:08:53.631Z</time></trkpt><trkpt lat="39.8424068" lon="16.3253352"><ele>830.2</ele><time>2026-05-03T08:08:54.646Z</time></trkpt><trkpt lat="39.8422917" lon="16.3253393"><ele>830.0</ele><time>2026-05-03T08:08:55.651Z</time></trkpt><trkpt lat="39.8421819" lon="16.3253404"><ele>830.0</ele><time>2026-05-03T08:08:56.627Z</time></trkpt><trkpt lat="39.8420894" lon="16.3253406"><ele>830.0</ele><time>2026-05-03T08:08:57.626Z</time></trkpt><trkpt lat="39.8419884" lon="16.3253738"><ele>830.0</ele><time>2026-05-03T08:08:59.634Z</time></trkpt><trkpt lat="39.8419187" lon="16.3254653"><ele>830.0</ele><time>2026-05-03T08:09:01.625Z</time></trkpt><trkpt lat="39.8418825" lon="16.3255427"><ele>830.0</ele><time>2026-05-03T08:09:02.642Z</time></trkpt><trkpt lat="39.8418531" lon="16.3256515"><ele>831.0</ele><time>2026-05-03T08:09:03.627Z</time></trkpt><trkpt lat="39.8418254" lon="16.3257836"><ele>832.0</ele><time>2026-05-03T08:09:04.624Z</time></trkpt><trkpt lat="39.8417938" lon="16.3259364"><ele>833.0</ele><time>2026-05-03T08:09:05.624Z</time></trkpt><trkpt lat="39.841764" lon="16.3260955"><ele>834.0</ele><time>2026-05-03T08:09:06.637Z</time></trkpt><trkpt lat="39.8417314" lon="16.3262559"><ele>833.0</ele><time>2026-05-03T08:09:07.633Z</time></trkpt><trkpt lat="39.8416967" lon="16.326422"><ele>832.0</ele><time>2026-05-03T08:09:08.64Z</time></trkpt><trkpt lat="39.8416696" lon="16.3265845"><ele>831.0</ele><time>2026-05-03T08:09:09.636Z</time></trkpt><trkpt lat="39.8416404" lon="16.3267286"><ele>830.0</ele><time>2026-05-03T08:09:10.652Z</time></trkpt><trkpt lat="39.8416038" lon="16.3268551"><ele>830.0</ele><time>2026-05-03T08:09:11.616Z</time></trkpt><trkpt lat="39.8415659" lon="16.3269793"><ele>830.0</ele><time>2026-05-03T08:09:12.635Z</time></trkpt><trkpt lat="39.8415166" lon="16.3271124"><ele>830.0</ele><time>2026-05-03T08:09:13.633Z</time></trkpt><trkpt lat="39.8414572" lon="16.3272396"><ele>830.0</ele><time>2026-05-03T08:09:14.633Z</time></trkpt><trkpt lat="39.8414028" lon="16.3273418"><ele>830.0</ele><time>2026-05-03T08:09:15.644Z</time></trkpt><trkpt lat="39.8413503" lon="16.3274204"><ele>830.5000000000001</ele><time>2026-05-03T08:09:16.637Z</time></trkpt><trkpt lat="39.841289" lon="16.3274722"><ele>831.0</ele><time>2026-05-03T08:09:17.639Z</time></trkpt><trkpt lat="39.8412092" lon="16.3275046"><ele>831.5</ele><time>2026-05-03T08:09:18.64Z</time></trkpt><trkpt lat="39.8411241" lon="16.3275284"><ele>832.0</ele><time>2026-05-03T08:09:19.648Z</time></trkpt><trkpt lat="39.8410505" lon="16.3275434"><ele>832.5000000000001</ele><time>2026-05-03T08:09:20.631Z</time></trkpt><trkpt lat="39.8409919" lon="16.3275777"><ele>833.0</ele><time>2026-05-03T08:09:21.646Z</time></trkpt><trkpt lat="39.8409366" lon="16.3276393"><ele>829.5000000000001</ele><time>2026-05-03T08:09:22.637Z</time></trkpt><trkpt lat="39.8409004" lon="16.3277324"><ele>826.0</ele><time>2026-05-03T08:09:23.649Z</time></trkpt><trkpt lat="39.8408793" lon="16.3278436"><ele>822.5</ele><time>2026-05-03T08:09:24.63Z</time></trkpt><trkpt lat="39.8408702" lon="16.3279688"><ele>819.0</ele><time>2026-05-03T08:09:25.634Z</time></trkpt><trkpt lat="39.8408568" lon="16.3280886"><ele>815.5000000000001</ele><time>2026-05-03T08:09:26.622Z</time></trkpt><trkpt lat="39.8408548" lon="16.328195"><ele>812.0</ele><time>2026-05-03T08:09:27.626Z</time></trkpt><trkpt lat="39.8408586" lon="16.328306"><ele>811.1666666666667</ele><time>2026-05-03T08:09:28.633Z</time></trkpt><trkpt lat="39.8408702" lon="16.328414"><ele>810.3333333333334</ele><time>2026-05-03T08:09:29.653Z</time></trkpt><trkpt lat="39.8408838" lon="16.3285273"><ele>809.5</ele><time>2026-05-03T08:09:30.646Z</time></trkpt><trkpt lat="39.8408828" lon="16.3286349"><ele>808.6666666666667</ele><time>2026-05-03T08:09:31.649Z</time></trkpt><trkpt lat="39.8408654" lon="16.3287467"><ele>807.8333333333334</ele><time>2026-05-03T08:09:32.644Z</time></trkpt><trkpt lat="39.8408183" lon="16.3288671"><ele>807.0</ele><time>2026-05-03T08:09:33.639Z</time></trkpt><trkpt lat="39.8407582" lon="16.3290022"><ele>806.6</ele><time>2026-05-03T08:09:34.607Z</time></trkpt><trkpt lat="39.840714" lon="16.3291404"><ele>806.2</ele><time>2026-05-03T08:09:35.624Z</time></trkpt><trkpt lat="39.8406735" lon="16.32927"><ele>805.8</ele><time>2026-05-03T08:09:36.636Z</time></trkpt><trkpt lat="39.8406453" lon="16.3293782"><ele>805.4</ele><time>2026-05-03T08:09:37.631Z</time></trkpt><trkpt lat="39.8406095" lon="16.3294711"><ele>805.0</ele><time>2026-05-03T08:09:38.618Z</time></trkpt><trkpt lat="39.8405679" lon="16.3295653"><ele>804.9999999999999</ele><time>2026-05-03T08:09:39.642Z</time></trkpt><trkpt lat="39.8405187" lon="16.3296525"><ele>805.0</ele><time>2026-05-03T08:09:40.637Z</time></trkpt><trkpt lat="39.8404734" lon="16.3297189"><ele>805.0</ele><time>2026-05-03T08:09:41.651Z</time></trkpt><trkpt lat="39.8404387" lon="16.3298792"><ele>805.0</ele><time>2026-05-03T08:09:43.71Z</time></trkpt><trkpt lat="39.8404439" lon="16.3299815"><ele>804.9999999999999</ele><time>2026-05-03T08:09:44.643Z</time></trkpt><trkpt lat="39.840434" lon="16.3300962"><ele>805.0</ele><time>2026-05-03T08:09:45.642Z</time></trkpt><trkpt lat="39.8404473" lon="16.3302164"><ele>804.0</ele><time>2026-05-03T08:09:46.66Z</time></trkpt><trkpt lat="39.8404484" lon="16.3303572"><ele>803.0</ele><time>2026-05-03T08:09:47.631Z</time></trkpt><trkpt lat="39.840442" lon="16.3305015"><ele>802.0</ele><time>2026-05-03T08:09:48.64Z</time></trkpt><trkpt lat="39.8404386" lon="16.3306117"><ele>801.0</ele><time>2026-05-03T08:09:49.636Z</time></trkpt><trkpt lat="39.8404191" lon="16.3306949"><ele>800.0</ele><time>2026-05-03T08:09:50.644Z</time></trkpt><trkpt lat="39.8403835" lon="16.3307941"><ele>800.0</ele><time>2026-05-03T08:09:51.642Z</time></trkpt><trkpt lat="39.8403108" lon="16.3309245"><ele>800.0</ele><time>2026-05-03T08:09:52.648Z</time></trkpt><trkpt lat="39.8402582" lon="16.3310492"><ele>800.0</ele><time>2026-05-03T08:09:53.645Z</time></trkpt><trkpt lat="39.8401854" lon="16.3311496"><ele>800.0</ele><time>2026-05-03T08:09:54.644Z</time></trkpt><trkpt lat="39.8401186" lon="16.3312312"><ele>800.0</ele><time>2026-05-03T08:09:55.642Z</time></trkpt><trkpt lat="39.8400485" lon="16.3313251"><ele>796.5</ele><time>2026-05-03T08:09:56.639Z</time></trkpt><trkpt lat="39.8399856" lon="16.3314361"><ele>793.0</ele><time>2026-05-03T08:09:57.643Z</time></trkpt><trkpt lat="39.8399208" lon="16.3315627"><ele>789.5</ele><time>2026-05-03T08:09:58.651Z</time></trkpt><trkpt lat="39.839862" lon="16.3316906"><ele>786.0</ele><time>2026-05-03T08:09:59.652Z</time></trkpt><trkpt lat="39.8398016" lon="16.3318171"><ele>786.0</ele><time>2026-05-03T08:10:00.637Z</time></trkpt><trkpt lat="39.8397365" lon="16.3319398"><ele>786.0</ele><time>2026-05-03T08:10:01.651Z</time></trkpt><trkpt lat="39.8396736" lon="16.3320684"><ele>786.0</ele><time>2026-05-03T08:10:02.641Z</time></trkpt><trkpt lat="39.8396103" lon="16.3321941"><ele>786.0</ele><time>2026-05-03T08:10:03.658Z</time></trkpt><trkpt lat="39.8395565" lon="16.3323126"><ele>786.5999999999999</ele><time>2026-05-03T08:10:04.65Z</time></trkpt><trkpt lat="39.8395158" lon="16.3324403"><ele>787.2</ele><time>2026-05-03T08:10:05.654Z</time></trkpt><trkpt lat="39.8394902" lon="16.3325549"><ele>787.8</ele><time>2026-05-03T08:10:06.636Z</time></trkpt><trkpt lat="39.8394885" lon="16.3326622"><ele>788.4000000000001</ele><time>2026-05-03T08:10:07.649Z</time></trkpt><trkpt lat="39.8394951" lon="16.3327888"><ele>789.0</ele><time>2026-05-03T08:10:08.645Z</time></trkpt><trkpt lat="39.8395106" lon="16.3329411"><ele>788.0</ele><time>2026-05-03T08:10:09.639Z</time></trkpt><trkpt lat="39.8395136" lon="16.333098"><ele>787.0</ele><time>2026-05-03T08:10:10.643Z</time></trkpt><trkpt lat="39.8395123" lon="16.3332458"><ele>786.0</ele><time>2026-05-03T08:10:11.643Z</time></trkpt><trkpt lat="39.8395029" lon="16.3333732"><ele>785.0</ele><time>2026-05-03T08:10:12.644Z</time></trkpt><trkpt lat="39.8394786" lon="16.333504"><ele>784.0</ele><time>2026-05-03T08:10:13.63Z</time></trkpt><trkpt lat="39.8394445" lon="16.3336224"><ele>784.0</ele><time>2026-05-03T08:10:14.639Z</time></trkpt><trkpt lat="39.8394058" lon="16.3337367"><ele>784.0</ele><time>2026-05-03T08:10:15.647Z</time></trkpt><trkpt lat="39.8393602" lon="16.3338592"><ele>784.0</ele><time>2026-05-03T08:10:16.635Z</time></trkpt><trkpt lat="39.839296" lon="16.3339945"><ele>784.0</ele><time>2026-05-03T08:10:17.649Z</time></trkpt><trkpt lat="39.8392338" lon="16.3341284"><ele>784.0</ele><time>2026-05-03T08:10:18.638Z</time></trkpt><trkpt lat="39.8391661" lon="16.334251"><ele>784.0</ele><time>2026-05-03T08:10:19.632Z</time></trkpt><trkpt lat="39.8390894" lon="16.3343705"><ele>784.0</ele><time>2026-05-03T08:10:20.63Z</time></trkpt><trkpt lat="39.8390093" lon="16.3344838"><ele>784.0</ele><time>2026-05-03T08:10:21.622Z</time></trkpt><trkpt lat="39.8389328" lon="16.3346014"><ele>784.0</ele><time>2026-05-03T08:10:22.635Z</time></trkpt><trkpt lat="39.8388549" lon="16.3347228"><ele>784.0</ele><time>2026-05-03T08:10:23.623Z</time></trkpt><trkpt lat="39.8387856" lon="16.3348465"><ele>784.0</ele><time>2026-05-03T08:10:24.626Z</time></trkpt><trkpt lat="39.8387192" lon="16.3349532"><ele>784.0</ele><time>2026-05-03T08:10:25.618Z</time></trkpt><trkpt lat="39.8386635" lon="16.3350546"><ele>784.0</ele><time>2026-05-03T08:10:26.635Z</time></trkpt><trkpt lat="39.8386276" lon="16.3351378"><ele>784.0</ele><time>2026-05-03T08:10:27.63Z</time></trkpt><trkpt lat="39.8386097" lon="16.3352172"><ele>784.0</ele><time>2026-05-03T08:10:28.627Z</time></trkpt><trkpt lat="39.8386058" lon="16.3353684"><ele>784.0</ele><time>2026-05-03T08:10:30.649Z</time></trkpt><trkpt lat="39.838664" lon="16.3355256"><ele>784.0</ele><time>2026-05-03T08:10:32.636Z</time></trkpt><trkpt lat="39.8386909" lon="16.3356122"><ele>784.0</ele><time>2026-05-03T08:10:33.633Z</time></trkpt><trkpt lat="39.8386601" lon="16.3357559"><ele>784.0</ele><time>2026-05-03T08:10:35.629Z</time></trkpt><trkpt lat="39.8385923" lon="16.3358225"><ele>784.2</ele><time>2026-05-03T08:10:37.641Z</time></trkpt><trkpt lat="39.8384933" lon="16.3357969"><ele>784.4000000000001</ele><time>2026-05-03T08:10:39.647Z</time></trkpt><trkpt lat="39.8384321" lon="16.3357684"><ele>784.6</ele><time>2026-05-03T08:10:40.65Z</time></trkpt><trkpt lat="39.8383358" lon="16.3357888"><ele>784.8</ele><time>2026-05-03T08:10:41.652Z</time></trkpt><trkpt lat="39.8382457" lon="16.3358554"><ele>785.0</ele><time>2026-05-03T08:10:42.655Z</time></trkpt><trkpt lat="39.838162" lon="16.335934"><ele>782.4</ele><time>2026-05-03T08:10:43.644Z</time></trkpt><trkpt lat="39.8380811" lon="16.3360273"><ele>779.8</ele><time>2026-05-03T08:10:44.637Z</time></trkpt><trkpt lat="39.8379988" lon="16.3361256"><ele>777.2</ele><time>2026-05-03T08:10:45.657Z</time></trkpt><trkpt lat="39.8379172" lon="16.3362097"><ele>774.6</ele><time>2026-05-03T08:10:46.64Z</time></trkpt><trkpt lat="39.8378369" lon="16.3362895"><ele>772.0</ele><time>2026-05-03T08:10:47.654Z</time></trkpt><trkpt lat="39.8377404" lon="16.3363539"><ele>770.25</ele><time>2026-05-03T08:10:48.645Z</time></trkpt><trkpt lat="39.8376343" lon="16.3364094"><ele>768.5</ele><time>2026-05-03T08:10:49.643Z</time></trkpt><trkpt lat="39.8375265" lon="16.3364593"><ele>766.75</ele><time>2026-05-03T08:10:50.657Z</time></trkpt><trkpt lat="39.8374135" lon="16.3365048"><ele>765.0</ele><time>2026-05-03T08:10:51.643Z</time></trkpt><trkpt lat="39.8372928" lon="16.3365439"><ele>765.0</ele><time>2026-05-03T08:10:52.649Z</time></trkpt><trkpt lat="39.8371789" lon="16.3365688"><ele>765.0</ele><time>2026-05-03T08:10:53.634Z</time></trkpt><trkpt lat="39.8370754" lon="16.3365979"><ele>765.0</ele><time>2026-05-03T08:10:54.636Z</time></trkpt><trkpt lat="39.8369802" lon="16.3366411"><ele>765.0</ele><time>2026-05-03T08:10:55.64Z</time></trkpt><trkpt lat="39.8368976" lon="16.3366928"><ele>765.0</ele><time>2026-05-03T08:10:56.623Z</time></trkpt><trkpt lat="39.8368297" lon="16.3367714"><ele>765.6</ele><time>2026-05-03T08:10:57.627Z</time></trkpt><trkpt lat="39.8367787" lon="16.3368661"><ele>766.2</ele><time>2026-05-03T08:10:58.641Z</time></trkpt><trkpt lat="39.836736" lon="16.3369813"><ele>766.8</ele><time>2026-05-03T08:10:59.636Z</time></trkpt><trkpt lat="39.8367085" lon="16.3370991"><ele>767.4</ele><time>2026-05-03T08:11:00.641Z</time></trkpt><trkpt lat="39.8366923" lon="16.3372111"><ele>768.0</ele><time>2026-05-03T08:11:01.623Z</time></trkpt><trkpt lat="39.8366851" lon="16.3373323"><ele>768.0</ele><time>2026-05-03T08:11:02.634Z</time></trkpt><trkpt lat="39.8366682" lon="16.3374504"><ele>768.0</ele><time>2026-05-03T08:11:03.632Z</time></trkpt><trkpt lat="39.8366322" lon="16.3375607"><ele>768.0</ele><time>2026-05-03T08:11:04.635Z</time></trkpt><trkpt lat="39.8365734" lon="16.3376574"><ele>768.0</ele><time>2026-05-03T08:11:05.633Z</time></trkpt><trkpt lat="39.8364998" lon="16.3377488"><ele>768.0</ele><time>2026-05-03T08:11:06.623Z</time></trkpt><trkpt lat="39.83641" lon="16.3378418"><ele>768.0</ele><time>2026-05-03T08:11:07.633Z</time></trkpt><trkpt lat="39.8363331" lon="16.3379373"><ele>768.0</ele><time>2026-05-03T08:11:08.643Z</time></trkpt><trkpt lat="39.8362778" lon="16.3380288"><ele>768.0</ele><time>2026-05-03T08:11:09.639Z</time></trkpt><trkpt lat="39.8362421" lon="16.3381306"><ele>768.0</ele><time>2026-05-03T08:11:10.632Z</time></trkpt><trkpt lat="39.8362104" lon="16.338251"><ele>768.0</ele><time>2026-05-03T08:11:11.625Z</time></trkpt><trkpt lat="39.836163" lon="16.338367"><ele>768.3333333333334</ele><time>2026-05-03T08:11:12.649Z</time></trkpt><trkpt lat="39.8361022" lon="16.3384671"><ele>768.6666666666667</ele><time>2026-05-03T08:11:13.659Z</time></trkpt><trkpt lat="39.8360434" lon="16.3385454"><ele>769.0</ele><time>2026-05-03T08:11:14.625Z</time></trkpt><trkpt lat="39.83598" lon="16.3386092"><ele>769.3333333333334</ele><time>2026-05-03T08:11:15.608Z</time></trkpt><trkpt lat="39.8359105" lon="16.3386436"><ele>769.6666666666667</ele><time>2026-05-03T08:11:16.621Z</time></trkpt><trkpt lat="39.8358368" lon="16.3386472"><ele>770.0</ele><time>2026-05-03T08:11:17.636Z</time></trkpt><trkpt lat="39.8357577" lon="16.338627"><ele>770.0</ele><time>2026-05-03T08:11:18.615Z</time></trkpt><trkpt lat="39.8356795" lon="16.3385958"><ele>770.0</ele><time>2026-05-03T08:11:19.626Z</time></trkpt><trkpt lat="39.8356016" lon="16.33859"><ele>770.0</ele><time>2026-05-03T08:11:20.653Z</time></trkpt><trkpt lat="39.8355225" lon="16.3386258"><ele>770.0</ele><time>2026-05-03T08:11:21.644Z</time></trkpt><trkpt lat="39.8354343" lon="16.3386832"><ele>770.0</ele><time>2026-05-03T08:11:22.65Z</time></trkpt><trkpt lat="39.8353411" lon="16.3387585"><ele>770.0000000000001</ele><time>2026-05-03T08:11:23.63Z</time></trkpt><trkpt lat="39.8352555" lon="16.3388248"><ele>770.0</ele><time>2026-05-03T08:11:24.654Z</time></trkpt><trkpt lat="39.8351825" lon="16.3388664"><ele>770.0</ele><time>2026-05-03T08:11:25.628Z</time></trkpt><trkpt lat="39.8351208" lon="16.3389088"><ele>770.0</ele><time>2026-05-03T08:11:26.633Z</time></trkpt><trkpt lat="39.8350826" lon="16.338976"><ele>770.0000000000001</ele><time>2026-05-03T08:11:27.642Z</time></trkpt><trkpt lat="39.8350602" lon="16.3390733"><ele>770.0</ele><time>2026-05-03T08:11:28.642Z</time></trkpt><trkpt lat="39.8350664" lon="16.339194"><ele>770.8</ele><time>2026-05-03T08:11:29.631Z</time></trkpt><trkpt lat="39.8350566" lon="16.339342"><ele>771.6</ele><time>2026-05-03T08:11:30.61Z</time></trkpt><trkpt lat="39.8350627" lon="16.339492"><ele>772.4000000000001</ele><time>2026-05-03T08:11:31.605Z</time></trkpt><trkpt lat="39.8350697" lon="16.3396058"><ele>773.2</ele><time>2026-05-03T08:11:32.643Z</time></trkpt><trkpt lat="39.8350979" lon="16.339717"><ele>774.0</ele><time>2026-05-03T08:11:33.64Z</time></trkpt><trkpt lat="39.8351493" lon="16.339834"><ele>778.0</ele><time>2026-05-03T08:11:34.656Z</time></trkpt><trkpt lat="39.835202" lon="16.339963"><ele>782.0</ele><time>2026-05-03T08:11:35.643Z</time></trkpt><trkpt lat="39.8352294" lon="16.3400884"><ele>786.0</ele><time>2026-05-03T08:11:36.668Z</time></trkpt><trkpt lat="39.8352432" lon="16.3402023"><ele>790.0</ele><time>2026-05-03T08:11:37.638Z</time></trkpt><trkpt lat="39.8352388" lon="16.3403381"><ele>794.0</ele><time>2026-05-03T08:11:38.639Z</time></trkpt><trkpt lat="39.8352243" lon="16.3404904"><ele>792.5</ele><time>2026-05-03T08:11:39.658Z</time></trkpt><trkpt lat="39.8351783" lon="16.3406457"><ele>791.0</ele><time>2026-05-03T08:11:40.652Z</time></trkpt><trkpt lat="39.8351351" lon="16.3408047"><ele>789.5</ele><time>2026-05-03T08:11:41.64Z</time></trkpt><trkpt lat="39.8350954" lon="16.3409637"><ele>788.0</ele><time>2026-05-03T08:11:42.641Z</time></trkpt><trkpt lat="39.8350615" lon="16.3411065"><ele>784.8333333333334</ele><time>2026-05-03T08:11:43.65Z</time></trkpt><trkpt lat="39.8350354" lon="16.3412238"><ele>781.6666666666667</ele><time>2026-05-03T08:11:44.644Z</time></trkpt><trkpt lat="39.8350211" lon="16.3413269"><ele>778.5</ele><time>2026-05-03T08:11:45.628Z</time></trkpt><trkpt lat="39.8350239" lon="16.3414134"><ele>775.3333333333333</ele><time>2026-05-03T08:11:46.644Z</time></trkpt><trkpt lat="39.8350438" lon="16.3414927"><ele>772.1666666666666</ele><time>2026-05-03T08:11:47.656Z</time></trkpt><trkpt lat="39.8350691" lon="16.341581"><ele>769.0</ele><time>2026-05-03T08:11:48.624Z</time></trkpt><trkpt lat="39.8350749" lon="16.3416934"><ele>768.75</ele><time>2026-05-03T08:11:49.655Z</time></trkpt><trkpt lat="39.8350578" lon="16.3418398"><ele>768.5</ele><time>2026-05-03T08:11:50.654Z</time></trkpt><trkpt lat="39.8350245" lon="16.3420078"><ele>768.25</ele><time>2026-05-03T08:11:51.644Z</time></trkpt><trkpt lat="39.834996" lon="16.3421661"><ele>768.0</ele><time>2026-05-03T08:11:52.659Z</time></trkpt><trkpt lat="39.8349723" lon="16.3423091"><ele>768.4</ele><time>2026-05-03T08:11:53.629Z</time></trkpt><trkpt lat="39.8349354" lon="16.3424278"><ele>768.8</ele><time>2026-05-03T08:11:54.619Z</time></trkpt><trkpt lat="39.8348802" lon="16.3425276"><ele>769.2</ele><time>2026-05-03T08:11:55.646Z</time></trkpt><trkpt lat="39.8348119" lon="16.3426246"><ele>769.6</ele><time>2026-05-03T08:11:56.636Z</time></trkpt><trkpt lat="39.8347415" lon="16.3427213"><ele>770.0</ele><time>2026-05-03T08:11:57.647Z</time></trkpt><trkpt lat="39.8346816" lon="16.3428091"><ele>770.0</ele><time>2026-05-03T08:11:58.654Z</time></trkpt><trkpt lat="39.8346403" lon="16.3428981"><ele>770.0</ele><time>2026-05-03T08:11:59.624Z</time></trkpt><trkpt lat="39.8346126" lon="16.3430122"><ele>770.0</ele><time>2026-05-03T08:12:00.631Z</time></trkpt><trkpt lat="39.8345917" lon="16.3431558"><ele>770.0</ele><time>2026-05-03T08:12:01.639Z</time></trkpt><trkpt lat="39.834576" lon="16.3433272"><ele>770.0</ele><time>2026-05-03T08:12:02.647Z</time></trkpt><trkpt lat="39.834561" lon="16.3435207"><ele>770.75</ele><time>2026-05-03T08:12:03.635Z</time></trkpt><trkpt lat="39.834545" lon="16.3437003"><ele>771.5</ele><time>2026-05-03T08:12:04.641Z</time></trkpt><trkpt lat="39.8345225" lon="16.3438523"><ele>772.25</ele><time>2026-05-03T08:12:05.633Z</time></trkpt><trkpt lat="39.8344833" lon="16.3439757"><ele>773.0</ele><time>2026-05-03T08:12:06.642Z</time></trkpt><trkpt lat="39.8344336" lon="16.3440865"><ele>773.0</ele><time>2026-05-03T08:12:07.631Z</time></trkpt><trkpt lat="39.8344043" lon="16.3442252"><ele>773.0</ele><time>2026-05-03T08:12:08.644Z</time></trkpt><trkpt lat="39.8343978" lon="16.3443754"><ele>773.0</ele><time>2026-05-03T08:12:09.623Z</time></trkpt><trkpt lat="39.834398" lon="16.3445213"><ele>773.0</ele><time>2026-05-03T08:12:10.649Z</time></trkpt><trkpt lat="39.8343882" lon="16.3446513"><ele>773.0</ele><time>2026-05-03T08:12:11.656Z</time></trkpt><trkpt lat="39.8343629" lon="16.3447737"><ele>773.8333333333334</ele><time>2026-05-03T08:12:12.64Z</time></trkpt><trkpt lat="39.8343267" lon="16.3448876"><ele>774.6666666666667</ele><time>2026-05-03T08:12:13.621Z</time></trkpt><trkpt lat="39.8342868" lon="16.3449736"><ele>775.5</ele><time>2026-05-03T08:12:14.649Z</time></trkpt><trkpt lat="39.8342292" lon="16.3450253"><ele>776.3333333333333</ele><time>2026-05-03T08:12:15.637Z</time></trkpt><trkpt lat="39.83416" lon="16.3450579"><ele>777.1666666666666</ele><time>2026-05-03T08:12:16.642Z</time></trkpt><trkpt lat="39.8340696" lon="16.3450951"><ele>778.0</ele><time>2026-05-03T08:12:17.629Z</time></trkpt><trkpt lat="39.8339705" lon="16.3451508"><ele>773.25</ele><time>2026-05-03T08:12:18.647Z</time></trkpt><trkpt lat="39.8338675" lon="16.3452356"><ele>768.5</ele><time>2026-05-03T08:12:19.639Z</time></trkpt><trkpt lat="39.8337378" lon="16.3453148"><ele>763.75</ele><time>2026-05-03T08:12:20.642Z</time></trkpt><trkpt lat="39.8335948" lon="16.3453854"><ele>759.0</ele><time>2026-05-03T08:12:21.635Z</time></trkpt><trkpt lat="39.8334588" lon="16.3454446"><ele>758.0</ele><time>2026-05-03T08:12:22.648Z</time></trkpt><trkpt lat="39.8333454" lon="16.3455027"><ele>757.0</ele><time>2026-05-03T08:12:23.645Z</time></trkpt><trkpt lat="39.8332375" lon="16.3455664"><ele>756.0</ele><time>2026-05-03T08:12:24.642Z</time></trkpt><trkpt lat="39.833141" lon="16.3456301"><ele>755.0</ele><time>2026-05-03T08:12:25.642Z</time></trkpt><trkpt lat="39.8330633" lon="16.3456914"><ele>754.0</ele><time>2026-05-03T08:12:26.645Z</time></trkpt><trkpt lat="39.8330014" lon="16.3457677"><ele>757.25</ele><time>2026-05-03T08:12:27.635Z</time></trkpt><trkpt lat="39.8329491" lon="16.3458768"><ele>760.5</ele><time>2026-05-03T08:12:28.647Z</time></trkpt><trkpt lat="39.8328986" lon="16.3460101"><ele>763.75</ele><time>2026-05-03T08:12:29.664Z</time></trkpt><trkpt lat="39.8328358" lon="16.3461526"><ele>767.0</ele><time>2026-05-03T08:12:30.667Z</time></trkpt><trkpt lat="39.8327554" lon="16.3462933"><ele>765.5</ele><time>2026-05-03T08:12:31.638Z</time></trkpt><trkpt lat="39.8326639" lon="16.3464263"><ele>764.0</ele><time>2026-05-03T08:12:32.655Z</time></trkpt><trkpt lat="39.8325725" lon="16.3465591"><ele>762.5</ele><time>2026-05-03T08:12:33.641Z</time></trkpt><trkpt lat="39.832495" lon="16.3466773"><ele>761.0</ele><time>2026-05-03T08:12:34.643Z</time></trkpt><trkpt lat="39.8324337" lon="16.346785"><ele>761.0</ele><time>2026-05-03T08:12:35.635Z</time></trkpt><trkpt lat="39.8323881" lon="16.3468831"><ele>761.0</ele><time>2026-05-03T08:12:36.649Z</time></trkpt><trkpt lat="39.8323634" lon="16.3469942"><ele>761.0</ele><time>2026-05-03T08:12:37.636Z</time></trkpt><trkpt lat="39.8323627" lon="16.3471419"><ele>761.0</ele><time>2026-05-03T08:12:38.653Z</time></trkpt><trkpt lat="39.8323663" lon="16.347301"><ele>761.0</ele><time>2026-05-03T08:12:39.625Z</time></trkpt><trkpt lat="39.8323672" lon="16.3474816"><ele>761.25</ele><time>2026-05-03T08:12:40.65Z</time></trkpt><trkpt lat="39.8323633" lon="16.3476635"><ele>761.5</ele><time>2026-05-03T08:12:41.645Z</time></trkpt><trkpt lat="39.8323541" lon="16.3478479"><ele>761.75</ele><time>2026-05-03T08:12:42.637Z</time></trkpt><trkpt lat="39.8323409" lon="16.3480267"><ele>762.0</ele><time>2026-05-03T08:12:43.63Z</time></trkpt><trkpt lat="39.8323307" lon="16.3481872"><ele>762.2</ele><time>2026-05-03T08:12:44.634Z</time></trkpt><trkpt lat="39.8323241" lon="16.3483355"><ele>762.4000000000001</ele><time>2026-05-03T08:12:45.63Z</time></trkpt><trkpt lat="39.8323206" lon="16.3484642"><ele>762.5999999999999</ele><time>2026-05-03T08:12:46.651Z</time></trkpt><trkpt lat="39.8323228" lon="16.3485836"><ele>762.8</ele><time>2026-05-03T08:12:47.636Z</time></trkpt><trkpt lat="39.832338" lon="16.3487181"><ele>763.0</ele><time>2026-05-03T08:12:48.655Z</time></trkpt><trkpt lat="39.8323601" lon="16.3488663"><ele>762.5</ele><time>2026-05-03T08:12:49.648Z</time></trkpt><trkpt lat="39.8323811" lon="16.3490097"><ele>762.0</ele><time>2026-05-03T08:12:50.641Z</time></trkpt><trkpt lat="39.8323884" lon="16.3491626"><ele>761.5</ele><time>2026-05-03T08:12:51.653Z</time></trkpt><trkpt lat="39.8323742" lon="16.349328"><ele>761.0</ele><time>2026-05-03T08:12:52.646Z</time></trkpt><trkpt lat="39.83237" lon="16.3494951"><ele>761.0</ele><time>2026-05-03T08:12:53.645Z</time></trkpt><trkpt lat="39.8323832" lon="16.3496603"><ele>761.0</ele><time>2026-05-03T08:12:54.652Z</time></trkpt><trkpt lat="39.8323994" lon="16.3498255"><ele>761.0</ele><time>2026-05-03T08:12:55.65Z</time></trkpt><trkpt lat="39.8324084" lon="16.3499822"><ele>761.0</ele><time>2026-05-03T08:12:56.654Z</time></trkpt><trkpt lat="39.8324042" lon="16.3501249"><ele>759.75</ele><time>2026-05-03T08:12:57.646Z</time></trkpt><trkpt lat="39.8323839" lon="16.3502667"><ele>758.5</ele><time>2026-05-03T08:12:58.657Z</time></trkpt><trkpt lat="39.8323504" lon="16.3504153"><ele>757.25</ele><time>2026-05-03T08:12:59.657Z</time></trkpt><trkpt lat="39.8323007" lon="16.3505642"><ele>756.0</ele><time>2026-05-03T08:13:00.645Z</time></trkpt><trkpt lat="39.8322486" lon="16.350721"><ele>755.5</ele><time>2026-05-03T08:13:01.644Z</time></trkpt><trkpt lat="39.8321938" lon="16.350881"><ele>755.0</ele><time>2026-05-03T08:13:02.656Z</time></trkpt><trkpt lat="39.8321415" lon="16.3510354"><ele>754.5</ele><time>2026-05-03T08:13:03.634Z</time></trkpt><trkpt lat="39.8320832" lon="16.3511692"><ele>754.0</ele><time>2026-05-03T08:13:04.649Z</time></trkpt><trkpt lat="39.8320135" lon="16.3512916"><ele>752.4000000000001</ele><time>2026-05-03T08:13:05.644Z</time></trkpt><trkpt lat="39.8319431" lon="16.3514086"><ele>750.8</ele><time>2026-05-03T08:13:06.636Z</time></trkpt><trkpt lat="39.8318817" lon="16.3515102"><ele>749.2</ele><time>2026-05-03T08:13:07.641Z</time></trkpt><trkpt lat="39.831834" lon="16.3516104"><ele>747.5999999999999</ele><time>2026-05-03T08:13:08.611Z</time></trkpt><trkpt lat="39.8318057" lon="16.3517283"><ele>746.0</ele><time>2026-05-03T08:13:09.652Z</time></trkpt><trkpt lat="39.8317805" lon="16.3518547"><ele>744.5999999999999</ele><time>2026-05-03T08:13:10.655Z</time></trkpt><trkpt lat="39.8317414" lon="16.3519699"><ele>743.2</ele><time>2026-05-03T08:13:11.654Z</time></trkpt><trkpt lat="39.8316778" lon="16.3520769"><ele>741.8</ele><time>2026-05-03T08:13:12.63Z</time></trkpt><trkpt lat="39.8315989" lon="16.3521785"><ele>740.4000000000001</ele><time>2026-05-03T08:13:13.643Z</time></trkpt><trkpt lat="39.8315" lon="16.352262"><ele>739.0</ele><time>2026-05-03T08:13:14.631Z</time></trkpt><trkpt lat="39.8313904" lon="16.3523384"><ele>738.2</ele><time>2026-05-03T08:13:15.636Z</time></trkpt><trkpt lat="39.8312796" lon="16.3523989"><ele>737.4000000000001</ele><time>2026-05-03T08:13:16.65Z</time></trkpt><trkpt lat="39.8311834" lon="16.3524576"><ele>736.6</ele><time>2026-05-03T08:13:17.647Z</time></trkpt><trkpt lat="39.8311074" lon="16.352526"><ele>735.8</ele><time>2026-05-03T08:13:18.646Z</time></trkpt><trkpt lat="39.8310456" lon="16.3525851"><ele>735.0</ele><time>2026-05-03T08:13:19.637Z</time></trkpt><trkpt lat="39.830981" lon="16.3526225"><ele>733.6</ele><time>2026-05-03T08:13:20.631Z</time></trkpt><trkpt lat="39.8308984" lon="16.3526497"><ele>732.2</ele><time>2026-05-03T08:13:21.647Z</time></trkpt><trkpt lat="39.8308076" lon="16.3526702"><ele>730.8</ele><time>2026-05-03T08:13:22.654Z</time></trkpt><trkpt lat="39.8307191" lon="16.3527173"><ele>729.4</ele><time>2026-05-03T08:13:23.643Z</time></trkpt><trkpt lat="39.8306248" lon="16.3527994"><ele>728.0</ele><time>2026-05-03T08:13:24.629Z</time></trkpt><trkpt lat="39.83052" lon="16.3529138"><ele>728.0</ele><time>2026-05-03T08:13:25.642Z</time></trkpt><trkpt lat="39.8304175" lon="16.353033"><ele>728.0</ele><time>2026-05-03T08:13:26.632Z</time></trkpt><trkpt lat="39.8303251" lon="16.3531299"><ele>728.0</ele><time>2026-05-03T08:13:27.645Z</time></trkpt><trkpt lat="39.8302324" lon="16.3531966"><ele>728.0</ele><time>2026-05-03T08:13:28.637Z</time></trkpt><trkpt lat="39.8301356" lon="16.3532446"><ele>726.2</ele><time>2026-05-03T08:13:29.651Z</time></trkpt><trkpt lat="39.830025" lon="16.35327"><ele>724.4</ele><time>2026-05-03T08:13:30.636Z</time></trkpt><trkpt lat="39.8299138" lon="16.3532959"><ele>722.6</ele><time>2026-05-03T08:13:31.652Z</time></trkpt><trkpt lat="39.8298058" lon="16.3533258"><ele>720.8000000000001</ele><time>2026-05-03T08:13:32.63Z</time></trkpt><trkpt lat="39.8297071" lon="16.3533655"><ele>719.0</ele><time>2026-05-03T08:13:33.653Z</time></trkpt><trkpt lat="39.8296067" lon="16.3534098"><ele>719.0</ele><time>2026-05-03T08:13:34.63Z</time></trkpt><trkpt lat="39.8295021" lon="16.3534503"><ele>719.0</ele><time>2026-05-03T08:13:35.654Z</time></trkpt><trkpt lat="39.8293837" lon="16.3534792"><ele>719.0</ele><time>2026-05-03T08:13:36.631Z</time></trkpt><trkpt lat="39.829269" lon="16.3535066"><ele>719.0</ele><time>2026-05-03T08:13:37.659Z</time></trkpt><trkpt lat="39.8291678" lon="16.353544"><ele>718.0</ele><time>2026-05-03T08:13:38.632Z</time></trkpt><trkpt lat="39.8290678" lon="16.3535865"><ele>717.0</ele><time>2026-05-03T08:13:39.648Z</time></trkpt><trkpt lat="39.8289704" lon="16.3536386"><ele>716.0</ele><time>2026-05-03T08:13:40.631Z</time></trkpt><trkpt lat="39.8288785" lon="16.3537108"><ele>715.0</ele><time>2026-05-03T08:13:41.614Z</time></trkpt><trkpt lat="39.8287889" lon="16.3537998"><ele>714.0</ele><time>2026-05-03T08:13:42.636Z</time></trkpt><trkpt lat="39.8287062" lon="16.3539019"><ele>711.5</ele><time>2026-05-03T08:13:43.617Z</time></trkpt><trkpt lat="39.8286285" lon="16.3540069"><ele>709.0</ele><time>2026-05-03T08:13:44.654Z</time></trkpt><trkpt lat="39.8285669" lon="16.3541376"><ele>706.5</ele><time>2026-05-03T08:13:45.645Z</time></trkpt><trkpt lat="39.8285047" lon="16.3542697"><ele>704.0</ele><time>2026-05-03T08:13:46.64Z</time></trkpt><trkpt lat="39.8284278" lon="16.3543909"><ele>703.6</ele><time>2026-05-03T08:13:47.647Z</time></trkpt><trkpt lat="39.8283422" lon="16.3545031"><ele>703.2</ele><time>2026-05-03T08:13:48.66Z</time></trkpt><trkpt lat="39.8282616" lon="16.3546098"><ele>702.8000000000001</ele><time>2026-05-03T08:13:49.645Z</time></trkpt><trkpt lat="39.8282003" lon="16.3547106"><ele>702.4000000000001</ele><time>2026-05-03T08:13:50.649Z</time></trkpt><trkpt lat="39.8281392" lon="16.3547818"><ele>702.0</ele><time>2026-05-03T08:13:51.645Z</time></trkpt><trkpt lat="39.8280627" lon="16.3548444"><ele>700.6</ele><time>2026-05-03T08:13:52.619Z</time></trkpt><trkpt lat="39.8279897" lon="16.3548971"><ele>699.2</ele><time>2026-05-03T08:13:53.639Z</time></trkpt><trkpt lat="39.8279289" lon="16.3549622"><ele>697.8</ele><time>2026-05-03T08:13:54.646Z</time></trkpt><trkpt lat="39.8278965" lon="16.3550633"><ele>696.4</ele><time>2026-05-03T08:13:55.628Z</time></trkpt><trkpt lat="39.827917" lon="16.3552075"><ele>695.0</ele><time>2026-05-03T08:13:56.644Z</time></trkpt><trkpt lat="39.8279337" lon="16.3553463"><ele>695.0</ele><time>2026-05-03T08:13:57.646Z</time></trkpt><trkpt lat="39.8279217" lon="16.3554705"><ele>695.0</ele><time>2026-05-03T08:13:58.645Z</time></trkpt><trkpt lat="39.8278918" lon="16.3555923"><ele>695.0</ele><time>2026-05-03T08:13:59.653Z</time></trkpt><trkpt lat="39.8278376" lon="16.3557095"><ele>695.0</ele><time>2026-05-03T08:14:00.647Z</time></trkpt><trkpt lat="39.827765" lon="16.3558393"><ele>695.0</ele><time>2026-05-03T08:14:01.642Z</time></trkpt><trkpt lat="39.8276858" lon="16.3559726"><ele>692.0</ele><time>2026-05-03T08:14:02.645Z</time></trkpt><trkpt lat="39.8276083" lon="16.3560837"><ele>689.0</ele><time>2026-05-03T08:14:03.627Z</time></trkpt><trkpt lat="39.8275442" lon="16.356196"><ele>686.0</ele><time>2026-05-03T08:14:04.613Z</time></trkpt><trkpt lat="39.8274835" lon="16.356336"><ele>683.0</ele><time>2026-05-03T08:14:05.629Z</time></trkpt><trkpt lat="39.827418" lon="16.3565095"><ele>682.5</ele><time>2026-05-03T08:14:06.614Z</time></trkpt><trkpt lat="39.8273597" lon="16.3567041"><ele>682.0</ele><time>2026-05-03T08:14:07.638Z</time></trkpt><trkpt lat="39.8273007" lon="16.3568844"><ele>681.5</ele><time>2026-05-03T08:14:08.627Z</time></trkpt><trkpt lat="39.8272482" lon="16.357039"><ele>681.0</ele><time>2026-05-03T08:14:09.663Z</time></trkpt><trkpt lat="39.8271921" lon="16.3572088"><ele>678.25</ele><time>2026-05-03T08:14:10.662Z</time></trkpt><trkpt lat="39.8271463" lon="16.3573824"><ele>675.5</ele><time>2026-05-03T08:14:11.635Z</time></trkpt><trkpt lat="39.8271" lon="16.3575539"><ele>672.75</ele><time>2026-05-03T08:14:12.649Z</time></trkpt><trkpt lat="39.827062" lon="16.3577297"><ele>670.0</ele><time>2026-05-03T08:14:13.641Z</time></trkpt><trkpt lat="39.8270291" lon="16.3579123"><ele>667.2</ele><time>2026-05-03T08:14:14.648Z</time></trkpt><trkpt lat="39.8270048" lon="16.3580801"><ele>664.4</ele><time>2026-05-03T08:14:15.636Z</time></trkpt><trkpt lat="39.8269831" lon="16.3582081"><ele>661.5999999999999</ele><time>2026-05-03T08:14:16.642Z</time></trkpt><trkpt lat="39.8269598" lon="16.3583232"><ele>658.8</ele><time>2026-05-03T08:14:17.634Z</time></trkpt><trkpt lat="39.8269152" lon="16.3584226"><ele>656.0</ele><time>2026-05-03T08:14:18.643Z</time></trkpt><trkpt lat="39.826841" lon="16.358507"><ele>657.8</ele><time>2026-05-03T08:14:19.634Z</time></trkpt><trkpt lat="39.8267516" lon="16.3585485"><ele>659.5999999999999</ele><time>2026-05-03T08:14:20.629Z</time></trkpt><trkpt lat="39.8266511" lon="16.3585894"><ele>661.4</ele><time>2026-05-03T08:14:21.636Z</time></trkpt><trkpt lat="39.8265368" lon="16.3586385"><ele>663.2</ele><time>2026-05-03T08:14:22.649Z</time></trkpt><trkpt lat="39.8264231" lon="16.3587135"><ele>665.0</ele><time>2026-05-03T08:14:23.65Z</time></trkpt><trkpt lat="39.8263312" lon="16.3587993"><ele>661.6</ele><time>2026-05-03T08:14:24.63Z</time></trkpt><trkpt lat="39.8262692" lon="16.35888"><ele>658.2</ele><time>2026-05-03T08:14:25.644Z</time></trkpt><trkpt lat="39.8262335" lon="16.3590108"><ele>654.8</ele><time>2026-05-03T08:14:27.624Z</time></trkpt><trkpt lat="39.8263065" lon="16.3591448"><ele>651.4</ele><time>2026-05-03T08:14:29.647Z</time></trkpt><trkpt lat="39.8263761" lon="16.359208"><ele>648.0</ele><time>2026-05-03T08:14:30.64Z</time></trkpt><trkpt lat="39.8264667" lon="16.3592576"><ele>648.0</ele><time>2026-05-03T08:14:31.623Z</time></trkpt><trkpt lat="39.826541" lon="16.3593016"><ele>648.0</ele><time>2026-05-03T08:14:32.652Z</time></trkpt><trkpt lat="39.8266069" lon="16.3593251"><ele>648.0</ele><time>2026-05-03T08:14:33.629Z</time></trkpt><trkpt lat="39.8266941" lon="16.3593295"><ele>648.0</ele><time>2026-05-03T08:14:34.649Z</time></trkpt><trkpt lat="39.826788" lon="16.3593266"><ele>648.0</ele><time>2026-05-03T08:14:35.622Z</time></trkpt><trkpt lat="39.8268641" lon="16.3593305"><ele>648.0</ele><time>2026-05-03T08:14:36.627Z</time></trkpt><trkpt lat="39.8269689" lon="16.3593735"><ele>645.6</ele><time>2026-05-03T08:14:38.658Z</time></trkpt><trkpt lat="39.826993" lon="16.3594845"><ele>643.1999999999999</ele><time>2026-05-03T08:14:40.624Z</time></trkpt><trkpt lat="39.8269136" lon="16.3596316"><ele>640.8</ele><time>2026-05-03T08:14:42.626Z</time></trkpt><trkpt lat="39.8268512" lon="16.359708"><ele>638.4</ele><time>2026-05-03T08:14:43.626Z</time></trkpt><trkpt lat="39.8267906" lon="16.3598216"><ele>636.0</ele><time>2026-05-03T08:14:44.626Z</time></trkpt><trkpt lat="39.8267354" lon="16.3599533"><ele>634.4</ele><time>2026-05-03T08:14:45.628Z</time></trkpt><trkpt lat="39.8266914" lon="16.3600679"><ele>632.8</ele><time>2026-05-03T08:14:46.645Z</time></trkpt><trkpt lat="39.8266669" lon="16.3601862"><ele>631.1999999999999</ele><time>2026-05-03T08:14:47.631Z</time></trkpt><trkpt lat="39.826652" lon="16.3603154"><ele>629.6</ele><time>2026-05-03T08:14:48.633Z</time></trkpt><trkpt lat="39.8266257" lon="16.3604475"><ele>628.0</ele><time>2026-05-03T08:14:49.618Z</time></trkpt><trkpt lat="39.8265803" lon="16.3605858"><ele>624.25</ele><time>2026-05-03T08:14:50.655Z</time></trkpt><trkpt lat="39.8265249" lon="16.360738"><ele>620.5</ele><time>2026-05-03T08:14:51.636Z</time></trkpt><trkpt lat="39.826475" lon="16.3609075"><ele>616.75</ele><time>2026-05-03T08:14:52.622Z</time></trkpt><trkpt lat="39.8264384" lon="16.3610781"><ele>613.0</ele><time>2026-05-03T08:14:53.627Z</time></trkpt><trkpt lat="39.8264078" lon="16.3612383"><ele>613.0</ele><time>2026-05-03T08:14:54.633Z</time></trkpt><trkpt lat="39.8263786" lon="16.3613562"><ele>613.0</ele><time>2026-05-03T08:14:55.635Z</time></trkpt><trkpt lat="39.8263669" lon="16.3614478"><ele>613.0</ele><time>2026-05-03T08:14:56.636Z</time></trkpt><trkpt lat="39.8263761" lon="16.3615399"><ele>613.0</ele><time>2026-05-03T08:14:57.633Z</time></trkpt><trkpt lat="39.8264124" lon="16.3616467"><ele>613.0</ele><time>2026-05-03T08:14:58.639Z</time></trkpt><trkpt lat="39.8264571" lon="16.3617665"><ele>613.0</ele><time>2026-05-03T08:14:59.633Z</time></trkpt><trkpt lat="39.8264718" lon="16.3619198"><ele>610.5</ele><time>2026-05-03T08:15:00.64Z</time></trkpt><trkpt lat="39.8264723" lon="16.3620846"><ele>608.0</ele><time>2026-05-03T08:15:01.63Z</time></trkpt><trkpt lat="39.8264835" lon="16.3622362"><ele>605.5</ele><time>2026-05-03T08:15:02.645Z</time></trkpt><trkpt lat="39.8264924" lon="16.3623744"><ele>603.0</ele><time>2026-05-03T08:15:03.614Z</time></trkpt><trkpt lat="39.8264922" lon="16.3625083"><ele>602.0</ele><time>2026-05-03T08:15:04.66Z</time></trkpt><trkpt lat="39.8264709" lon="16.3626511"><ele>601.0</ele><time>2026-05-03T08:15:05.641Z</time></trkpt><trkpt lat="39.8264335" lon="16.3627867"><ele>600.0</ele><time>2026-05-03T08:15:06.645Z</time></trkpt><trkpt lat="39.8263909" lon="16.3629037"><ele>599.0</ele><time>2026-05-03T08:15:07.618Z</time></trkpt><trkpt lat="39.8263407" lon="16.3629972"><ele>598.0</ele><time>2026-05-03T08:15:08.637Z</time></trkpt><trkpt lat="39.8262788" lon="16.3630723"><ele>596.6666666666667</ele><time>2026-05-03T08:15:09.634Z</time></trkpt><trkpt lat="39.8262028" lon="16.3631418"><ele>595.3333333333334</ele><time>2026-05-03T08:15:10.637Z</time></trkpt><trkpt lat="39.8261184" lon="16.363212"><ele>594.0</ele><time>2026-05-03T08:15:11.623Z</time></trkpt><trkpt lat="39.8260403" lon="16.3632854"><ele>592.6666666666666</ele><time>2026-05-03T08:15:12.645Z</time></trkpt><trkpt lat="39.8259809" lon="16.3633613"><ele>591.3333333333333</ele><time>2026-05-03T08:15:13.638Z</time></trkpt><trkpt lat="39.8259405" lon="16.3634427"><ele>590.0</ele><time>2026-05-03T08:15:14.642Z</time></trkpt><trkpt lat="39.8259163" lon="16.3635489"><ele>590.0</ele><time>2026-05-03T08:15:15.634Z</time></trkpt><trkpt lat="39.825909" lon="16.3636739"><ele>590.0</ele><time>2026-05-03T08:15:16.641Z</time></trkpt><trkpt lat="39.8258957" lon="16.3637923"><ele>590.0</ele><time>2026-05-03T08:15:17.651Z</time></trkpt><trkpt lat="39.8258588" lon="16.3638936"><ele>590.0</ele><time>2026-05-03T08:15:18.626Z</time></trkpt><trkpt lat="39.8258087" lon="16.3639836"><ele>590.0</ele><time>2026-05-03T08:15:19.635Z</time></trkpt><trkpt lat="39.8257407" lon="16.3640663"><ele>587.0</ele><time>2026-05-03T08:15:20.628Z</time></trkpt><trkpt lat="39.8256531" lon="16.3641263"><ele>584.0</ele><time>2026-05-03T08:15:21.658Z</time></trkpt><trkpt lat="39.8255471" lon="16.3641917"><ele>581.0</ele><time>2026-05-03T08:15:22.638Z</time></trkpt><trkpt lat="39.8254393" lon="16.3642587"><ele>578.0</ele><time>2026-05-03T08:15:23.634Z</time></trkpt><trkpt lat="39.8253399" lon="16.3643312"><ele>578.0</ele><time>2026-05-03T08:15:24.635Z</time></trkpt><trkpt lat="39.8252496" lon="16.3643938"><ele>578.0</ele><time>2026-05-03T08:15:25.632Z</time></trkpt><trkpt lat="39.8251504" lon="16.3644407"><ele>578.0</ele><time>2026-05-03T08:15:26.626Z</time></trkpt><trkpt lat="39.8250427" lon="16.3644862"><ele>578.0</ele><time>2026-05-03T08:15:27.641Z</time></trkpt><trkpt lat="39.8249463" lon="16.3645298"><ele>578.0</ele><time>2026-05-03T08:15:28.66Z</time></trkpt><trkpt lat="39.8248539" lon="16.3645745"><ele>575.75</ele><time>2026-05-03T08:15:29.641Z</time></trkpt><trkpt lat="39.8247577" lon="16.3646425"><ele>573.5</ele><time>2026-05-03T08:15:30.64Z</time></trkpt><trkpt lat="39.8246554" lon="16.3647299"><ele>571.25</ele><time>2026-05-03T08:15:31.632Z</time></trkpt><trkpt lat="39.824563" lon="16.364813"><ele>569.0</ele><time>2026-05-03T08:15:32.652Z</time></trkpt><trkpt lat="39.8244767" lon="16.3649058"><ele>567.0</ele><time>2026-05-03T08:15:33.635Z</time></trkpt><trkpt lat="39.8243836" lon="16.3650107"><ele>565.0</ele><time>2026-05-03T08:15:34.646Z</time></trkpt><trkpt lat="39.8242896" lon="16.365131"><ele>563.0</ele><time>2026-05-03T08:15:35.631Z</time></trkpt><trkpt lat="39.8241951" lon="16.3652453"><ele>561.0</ele><time>2026-05-03T08:15:36.636Z</time></trkpt><trkpt lat="39.8241155" lon="16.3653347"><ele>561.0</ele><time>2026-05-03T08:15:37.616Z</time></trkpt><trkpt lat="39.8240587" lon="16.3654012"><ele>561.0</ele><time>2026-05-03T08:15:38.634Z</time></trkpt><trkpt lat="39.8240092" lon="16.3654577"><ele>561.0</ele><time>2026-05-03T08:15:39.611Z</time></trkpt><trkpt lat="39.8239016" lon="16.3654886"><ele>561.0</ele><time>2026-05-03T08:15:41.615Z</time></trkpt><trkpt lat="39.8238279" lon="16.3654129"><ele>561.0</ele><time>2026-05-03T08:15:43.633Z</time></trkpt><trkpt lat="39.823858" lon="16.3652412"><ele>561.0</ele><time>2026-05-03T08:15:45.629Z</time></trkpt><trkpt lat="39.8238955" lon="16.3651411"><ele>561.0</ele><time>2026-05-03T08:15:46.633Z</time></trkpt><trkpt lat="39.8239454" lon="16.3650431"><ele>561.0</ele><time>2026-05-03T08:15:47.634Z</time></trkpt><trkpt lat="39.824009" lon="16.3649445"><ele>561.0</ele><time>2026-05-03T08:15:48.648Z</time></trkpt><trkpt lat="39.8240807" lon="16.3648316"><ele>561.0</ele><time>2026-05-03T08:15:49.648Z</time></trkpt><trkpt lat="39.8241469" lon="16.3647029"><ele>560.2</ele><time>2026-05-03T08:15:50.614Z</time></trkpt><trkpt lat="39.8241994" lon="16.3645593"><ele>559.4000000000001</ele><time>2026-05-03T08:15:51.642Z</time></trkpt><trkpt lat="39.8242361" lon="16.3644189"><ele>558.6</ele><time>2026-05-03T08:15:52.634Z</time></trkpt><trkpt lat="39.8242606" lon="16.3643011"><ele>557.8000000000001</ele><time>2026-05-03T08:15:53.63Z</time></trkpt><trkpt lat="39.8242742" lon="16.3642034"><ele>557.0</ele><time>2026-05-03T08:15:54.638Z</time></trkpt><trkpt lat="39.8242505" lon="16.3640331"><ele>557.0</ele><time>2026-05-03T08:15:56.64Z</time></trkpt><trkpt lat="39.8242049" lon="16.3639497"><ele>557.0</ele><time>2026-05-03T08:15:57.634Z</time></trkpt><trkpt lat="39.8241412" lon="16.363879"><ele>557.0</ele><time>2026-05-03T08:15:58.641Z</time></trkpt><trkpt lat="39.824083" lon="16.3638188"><ele>557.0</ele><time>2026-05-03T08:15:59.635Z</time></trkpt><trkpt lat="39.8239808" lon="16.3637832"><ele>557.0</ele><time>2026-05-03T08:16:01.631Z</time></trkpt><trkpt lat="39.8238868" lon="16.3638636"><ele>557.0</ele><time>2026-05-03T08:16:03.639Z</time></trkpt><trkpt lat="39.8238481" lon="16.3639362"><ele>557.0</ele><time>2026-05-03T08:16:04.647Z</time></trkpt><trkpt lat="39.8238012" lon="16.3640217"><ele>557.0</ele><time>2026-05-03T08:16:05.619Z</time></trkpt><trkpt lat="39.8237389" lon="16.3640845"><ele>557.0</ele><time>2026-05-03T08:16:06.602Z</time></trkpt><trkpt lat="39.8236603" lon="16.3641364"><ele>557.0</ele><time>2026-05-03T08:16:07.613Z</time></trkpt><trkpt lat="39.8235586" lon="16.3641728"><ele>557.0</ele><time>2026-05-03T08:16:08.63Z</time></trkpt><trkpt lat="39.8234424" lon="16.3641928"><ele>555.1666666666666</ele><time>2026-05-03T08:16:09.626Z</time></trkpt><trkpt lat="39.8233373" lon="16.3642024"><ele>553.3333333333333</ele><time>2026-05-03T08:16:10.627Z</time></trkpt><trkpt lat="39.8232625" lon="16.3642396"><ele>551.5</ele><time>2026-05-03T08:16:11.641Z</time></trkpt><trkpt lat="39.8232009" lon="16.3642934"><ele>549.6666666666666</ele><time>2026-05-03T08:16:12.635Z</time></trkpt><trkpt lat="39.8231483" lon="16.3643676"><ele>547.8333333333334</ele><time>2026-05-03T08:16:13.622Z</time></trkpt><trkpt lat="39.8230855" lon="16.3644619"><ele>546.0</ele><time>2026-05-03T08:16:14.63Z</time></trkpt><trkpt lat="39.8230152" lon="16.3645258"><ele>546.0</ele><time>2026-05-03T08:16:15.619Z</time></trkpt><trkpt lat="39.822934" lon="16.3645543"><ele>546.0</ele><time>2026-05-03T08:16:16.631Z</time></trkpt><trkpt lat="39.8228291" lon="16.3645676"><ele>546.0</ele><time>2026-05-03T08:16:17.626Z</time></trkpt><trkpt lat="39.8227055" lon="16.36457"><ele>546.0</ele><time>2026-05-03T08:16:18.62Z</time></trkpt><trkpt lat="39.822591" lon="16.3645779"><ele>546.0</ele><time>2026-05-03T08:16:19.632Z</time></trkpt><trkpt lat="39.8224973" lon="16.3645869"><ele>545.0</ele><time>2026-05-03T08:16:20.627Z</time></trkpt><trkpt lat="39.8224165" lon="16.364611"><ele>544.0</ele><time>2026-05-03T08:16:21.623Z</time></trkpt><trkpt lat="39.8223407" lon="16.3646549"><ele>543.0</ele><time>2026-05-03T08:16:22.614Z</time></trkpt><trkpt lat="39.8222861" lon="16.3647243"><ele>542.0</ele><time>2026-05-03T08:16:23.621Z</time></trkpt><trkpt lat="39.8222376" lon="16.3648081"><ele>541.0</ele><time>2026-05-03T08:16:24.649Z</time></trkpt><trkpt lat="39.8221688" lon="16.3649227"><ele>540.0</ele><time>2026-05-03T08:16:25.63Z</time></trkpt><trkpt lat="39.822085" lon="16.3650239"><ele>537.4</ele><time>2026-05-03T08:16:26.609Z</time></trkpt><trkpt lat="39.8219961" lon="16.3651023"><ele>534.8</ele><time>2026-05-03T08:16:27.619Z</time></trkpt><trkpt lat="39.8219033" lon="16.365161"><ele>532.2</ele><time>2026-05-03T08:16:28.631Z</time></trkpt><trkpt lat="39.8218025" lon="16.3652023"><ele>529.6</ele><time>2026-05-03T08:16:29.646Z</time></trkpt><trkpt lat="39.8217121" lon="16.3652466"><ele>527.0</ele><time>2026-05-03T08:16:30.625Z</time></trkpt><trkpt lat="39.821631" lon="16.3653082"><ele>525.0</ele><time>2026-05-03T08:16:31.62Z</time></trkpt><trkpt lat="39.8215575" lon="16.3654018"><ele>523.0</ele><time>2026-05-03T08:16:32.648Z</time></trkpt><trkpt lat="39.8214758" lon="16.3655058"><ele>521.0</ele><time>2026-05-03T08:16:33.64Z</time></trkpt><trkpt lat="39.8213897" lon="16.3655913"><ele>519.0</ele><time>2026-05-03T08:16:34.641Z</time></trkpt><trkpt lat="39.8213008" lon="16.3656539"><ele>517.0</ele><time>2026-05-03T08:16:35.637Z</time></trkpt><trkpt lat="39.8212056" lon="16.3657006"><ele>514.5</ele><time>2026-05-03T08:16:36.651Z</time></trkpt><trkpt lat="39.8211006" lon="16.3657683"><ele>512.0</ele><time>2026-05-03T08:16:37.648Z</time></trkpt><trkpt lat="39.82099" lon="16.3658592"><ele>509.5</ele><time>2026-05-03T08:16:38.648Z</time></trkpt><trkpt lat="39.8208848" lon="16.3659419"><ele>507.0</ele><time>2026-05-03T08:16:39.638Z</time></trkpt><trkpt lat="39.8207836" lon="16.3660233"><ele>505.3333333333333</ele><time>2026-05-03T08:16:40.652Z</time></trkpt><trkpt lat="39.8206956" lon="16.3660842"><ele>503.66666666666663</ele><time>2026-05-03T08:16:41.638Z</time></trkpt><trkpt lat="39.8206243" lon="16.3661259"><ele>502.0</ele><time>2026-05-03T08:16:42.615Z</time></trkpt><trkpt lat="39.8205572" lon="16.3661653"><ele>500.3333333333333</ele><time>2026-05-03T08:16:43.637Z</time></trkpt><trkpt lat="39.8204851" lon="16.3662207"><ele>498.66666666666663</ele><time>2026-05-03T08:16:44.631Z</time></trkpt><trkpt lat="39.8204166" lon="16.3662734"><ele>497.0</ele><time>2026-05-03T08:16:45.631Z</time></trkpt><trkpt lat="39.8203563" lon="16.366313"><ele>497.0</ele><time>2026-05-03T08:16:46.62Z</time></trkpt><trkpt lat="39.820285" lon="16.3663281"><ele>497.00000000000006</ele><time>2026-05-03T08:16:48.643Z</time></trkpt><trkpt lat="39.8202103" lon="16.3663878"><ele>497.00000000000006</ele><time>2026-05-03T08:32:32.62Z</time></trkpt><trkpt lat="39.8201342" lon="16.3664634"><ele>497.0</ele><time>2026-05-03T08:32:35.622Z</time></trkpt><trkpt lat="39.8200397" lon="16.3665434"><ele>497.0</ele><time>2026-05-03T08:32:37.621Z</time></trkpt><trkpt lat="39.8199589" lon="16.3666219"><ele>494.8333333333333</ele><time>2026-05-03T08:32:39.632Z</time></trkpt><trkpt lat="39.8198792" lon="16.3666978"><ele>492.66666666666663</ele><time>2026-05-03T08:32:41.643Z</time></trkpt><trkpt lat="39.8197791" lon="16.3667711"><ele>490.5</ele><time>2026-05-03T08:32:43.629Z</time></trkpt><trkpt lat="39.8197234" lon="16.3668107"><ele>488.33333333333337</ele><time>2026-05-03T08:32:44.632Z</time></trkpt><trkpt lat="39.8196572" lon="16.3668508"><ele>486.1666666666667</ele><time>2026-05-03T08:32:45.621Z</time></trkpt><trkpt lat="39.8195899" lon="16.366884"><ele>484.0</ele><time>2026-05-03T08:32:46.629Z</time></trkpt><trkpt lat="39.8195253" lon="16.3669098"><ele>484.00000000000006</ele><time>2026-05-03T08:32:47.638Z</time></trkpt><trkpt lat="39.8194557" lon="16.3669341"><ele>484.0</ele><time>2026-05-03T08:32:48.633Z</time></trkpt><trkpt lat="39.8193834" lon="16.3669742"><ele>484.0</ele><time>2026-05-03T08:32:49.64Z</time></trkpt><trkpt lat="39.8193068" lon="16.3670077"><ele>484.0</ele><time>2026-05-03T08:32:50.622Z</time></trkpt><trkpt lat="39.8192284" lon="16.3670309"><ele>484.00000000000006</ele><time>2026-05-03T08:32:51.624Z</time></trkpt><trkpt lat="39.8191516" lon="16.3670497"><ele>484.0</ele><time>2026-05-03T08:32:52.632Z</time></trkpt><trkpt lat="39.8190772" lon="16.367063"><ele>483.50000000000006</ele><time>2026-05-03T08:32:53.639Z</time></trkpt><trkpt lat="39.8190024" lon="16.3670744"><ele>483.0</ele><time>2026-05-03T08:32:54.63Z</time></trkpt><trkpt lat="39.8189306" lon="16.3670813"><ele>482.5</ele><time>2026-05-03T08:32:55.632Z</time></trkpt><trkpt lat="39.8188616" lon="16.3670913"><ele>482.0</ele><time>2026-05-03T08:32:56.629Z</time></trkpt><trkpt lat="39.8187929" lon="16.3670977"><ele>481.50000000000006</ele><time>2026-05-03T08:32:57.625Z</time></trkpt><trkpt lat="39.8186901" lon="16.3671237"><ele>481.0</ele><time>2026-05-03T08:32:59.627Z</time></trkpt><trkpt lat="39.8185912" lon="16.3672217"><ele>478.20000000000005</ele><time>2026-05-03T08:33:01.629Z</time></trkpt><trkpt lat="39.8184934" lon="16.3673281"><ele>475.40000000000003</ele><time>2026-05-03T08:33:03.621Z</time></trkpt><trkpt lat="39.8184357" lon="16.36738"><ele>472.6</ele><time>2026-05-03T08:33:04.624Z</time></trkpt><trkpt lat="39.8183677" lon="16.3674314"><ele>469.8</ele><time>2026-05-03T08:33:05.628Z</time></trkpt><trkpt lat="39.8183037" lon="16.3674738"><ele>467.0</ele><time>2026-05-03T08:33:06.632Z</time></trkpt><trkpt lat="39.8181865" lon="16.3675289"><ele>466.1428571428571</ele><time>2026-05-03T08:33:08.637Z</time></trkpt><trkpt lat="39.8181194" lon="16.3675494"><ele>465.2857142857143</ele><time>2026-05-03T08:33:09.634Z</time></trkpt><trkpt lat="39.8180468" lon="16.3675696"><ele>464.42857142857144</ele><time>2026-05-03T08:33:10.628Z</time></trkpt><trkpt lat="39.8179749" lon="16.3675793"><ele>463.57142857142856</ele><time>2026-05-03T08:33:11.63Z</time></trkpt><trkpt lat="39.8179111" lon="16.3675751"><ele>462.7142857142858</ele><time>2026-05-03T08:33:12.632Z</time></trkpt><trkpt lat="39.8178458" lon="16.3675646"><ele>461.8571428571429</ele><time>2026-05-03T08:33:13.64Z</time></trkpt><trkpt lat="39.8177727" lon="16.367548"><ele>461.0</ele><time>2026-05-03T08:33:14.636Z</time></trkpt><trkpt lat="39.8177101" lon="16.3675251"><ele>459.8571428571429</ele><time>2026-05-03T08:33:15.629Z</time></trkpt><trkpt lat="39.8176251" lon="16.3674687"><ele>458.7142857142858</ele><time>2026-05-03T08:33:17.634Z</time></trkpt><trkpt lat="39.8175609" lon="16.3674461"><ele>457.57142857142856</ele><time>2026-05-03T08:33:19.632Z</time></trkpt><trkpt lat="39.8175183" lon="16.367509"><ele>456.42857142857144</ele><time>2026-05-03T08:33:21.611Z</time></trkpt><trkpt lat="39.8174995" lon="16.3675987"><ele>455.2857142857143</ele><time>2026-05-03T08:33:23.634Z</time></trkpt><trkpt lat="39.8175026" lon="16.3676975"><ele>454.1428571428571</ele><time>2026-05-03T08:33:25.654Z</time></trkpt><trkpt lat="39.8174988" lon="16.3677935"><ele>452.99999999999994</ele><time>2026-05-03T08:33:27.634Z</time></trkpt><trkpt lat="39.8174616" lon="16.3678934"><ele>453.0</ele><time>2026-05-03T08:33:32.628Z</time></trkpt><trkpt lat="39.8173882" lon="16.3679757"><ele>453.0</ele><time>2026-05-03T08:33:35.63Z</time></trkpt><trkpt lat="39.817284" lon="16.3680068"><ele>453.0</ele><time>2026-05-03T08:33:37.633Z</time></trkpt><trkpt lat="39.8172155" lon="16.3680184"><ele>453.0</ele><time>2026-05-03T08:33:38.634Z</time></trkpt><trkpt lat="39.817145" lon="16.3680262"><ele>453.0</ele><time>2026-05-03T08:33:39.626Z</time></trkpt><trkpt lat="39.8170741" lon="16.36802"><ele>453.0</ele><time>2026-05-03T08:33:40.614Z</time></trkpt><trkpt lat="39.817011" lon="16.3680141"><ele>450.2</ele><time>2026-05-03T08:33:41.612Z</time></trkpt><trkpt lat="39.8168976" lon="16.3680497"><ele>447.4</ele><time>2026-05-03T08:33:43.632Z</time></trkpt><trkpt lat="39.8168292" lon="16.3681217"><ele>444.59999999999997</ele><time>2026-05-03T08:33:45.632Z</time></trkpt><trkpt lat="39.8168307" lon="16.3682069"><ele>441.79999999999995</ele><time>2026-05-03T08:33:47.618Z</time></trkpt><trkpt lat="39.816919" lon="16.3683045"><ele>439.0</ele><time>2026-05-03T08:33:49.614Z</time></trkpt><trkpt lat="39.8169778" lon="16.3683624"><ele>439.00000000000006</ele><time>2026-05-03T08:33:50.626Z</time></trkpt><trkpt lat="39.8170483" lon="16.368428"><ele>439.0</ele><time>2026-05-03T08:33:51.626Z</time></trkpt><trkpt lat="39.8171142" lon="16.3685067"><ele>439.0</ele><time>2026-05-03T08:33:52.634Z</time></trkpt><trkpt lat="39.8171769" lon="16.3685835"><ele>439.0</ele><time>2026-05-03T08:33:53.635Z</time></trkpt><trkpt lat="39.8172343" lon="16.3686458"><ele>439.00000000000006</ele><time>2026-05-03T08:33:54.627Z</time></trkpt><trkpt lat="39.8172979" lon="16.3687088"><ele>439.0</ele><time>2026-05-03T08:33:55.637Z</time></trkpt><trkpt lat="39.8173676" lon="16.3687828"><ele>439.00000000000006</ele><time>2026-05-03T08:33:56.632Z</time></trkpt><trkpt lat="39.8174133" lon="16.3688591"><ele>439.0</ele><time>2026-05-03T08:33:57.628Z</time></trkpt><trkpt lat="39.8174486" lon="16.3689434"><ele>439.0</ele><time>2026-05-03T08:33:58.637Z</time></trkpt><trkpt lat="39.8174858" lon="16.3690328"><ele>439.0</ele><time>2026-05-03T08:33:59.63Z</time></trkpt><trkpt lat="39.8175331" lon="16.369121"><ele>439.00000000000006</ele><time>2026-05-03T08:34:00.627Z</time></trkpt><trkpt lat="39.8175832" lon="16.3691936"><ele>439.0</ele><time>2026-05-03T08:34:01.624Z</time></trkpt><trkpt lat="39.8176394" lon="16.3692717"><ele>437.83333333333337</ele><time>2026-05-03T08:34:02.642Z</time></trkpt><trkpt lat="39.817697" lon="16.3693528"><ele>436.6666666666667</ele><time>2026-05-03T08:34:03.628Z</time></trkpt><trkpt lat="39.8177445" lon="16.3694203"><ele>435.5</ele><time>2026-05-03T08:34:04.632Z</time></trkpt><trkpt lat="39.8177924" lon="16.3694754"><ele>434.33333333333337</ele><time>2026-05-03T08:34:05.622Z</time></trkpt><trkpt lat="39.8178714" lon="16.3695872"><ele>433.1666666666667</ele><time>2026-05-03T08:34:07.634Z</time></trkpt><trkpt lat="39.8179019" lon="16.3696651"><ele>432.0</ele><time>2026-05-03T08:34:08.639Z</time></trkpt><trkpt lat="39.8179268" lon="16.3697601"><ele>430.6666666666667</ele><time>2026-05-03T08:34:09.625Z</time></trkpt><trkpt lat="39.8179519" lon="16.3698672"><ele>429.33333333333337</ele><time>2026-05-03T08:34:10.629Z</time></trkpt><trkpt lat="39.8179876" lon="16.3699748"><ele>428.0</ele><time>2026-05-03T08:34:11.633Z</time></trkpt><trkpt lat="39.8180219" lon="16.3700594"><ele>426.6666666666667</ele><time>2026-05-03T08:34:12.627Z</time></trkpt><trkpt lat="39.8180766" lon="16.3701868"><ele>425.33333333333337</ele><time>2026-05-03T08:34:14.625Z</time></trkpt><trkpt lat="39.8181451" lon="16.3702425"><ele>424.0</ele><time>2026-05-03T08:34:16.624Z</time></trkpt><trkpt lat="39.8182248" lon="16.3702824"><ele>424.0</ele><time>2026-05-03T08:34:19.631Z</time></trkpt><trkpt lat="39.8182615" lon="16.3703518"><ele>424.0</ele><time>2026-05-03T08:34:22.634Z</time></trkpt><trkpt lat="39.8182213" lon="16.3704627"><ele>424.0</ele><time>2026-05-03T08:34:25.617Z</time></trkpt><trkpt lat="39.8181259" lon="16.3705212"><ele>424.0</ele><time>2026-05-03T08:34:27.634Z</time></trkpt><trkpt lat="39.8180105" lon="16.3705786"><ele>424.0</ele><time>2026-05-03T08:34:29.644Z</time></trkpt><trkpt lat="39.8179157" lon="16.3706093"><ele>421.50000000000006</ele><time>2026-05-03T08:34:31.639Z</time></trkpt><trkpt lat="39.8178618" lon="16.3706607"><ele>419.0</ele><time>2026-05-03T08:34:33.628Z</time></trkpt><trkpt lat="39.8179156" lon="16.3707543"><ele>416.5</ele><time>2026-05-03T08:34:36.634Z</time></trkpt><trkpt lat="39.8180121" lon="16.3707832"><ele>414.0</ele><time>2026-05-03T08:34:38.637Z</time></trkpt><trkpt lat="39.8180895" lon="16.3707951"><ele>411.50000000000006</ele><time>2026-05-03T08:34:39.623Z</time></trkpt><trkpt lat="39.8181851" lon="16.3708074"><ele>409.0</ele><time>2026-05-03T08:34:40.636Z</time></trkpt><trkpt lat="39.8182794" lon="16.3708093"><ele>409.0</ele><time>2026-05-03T08:34:41.633Z</time></trkpt><trkpt lat="39.8183669" lon="16.3708017"><ele>409.0</ele><time>2026-05-03T08:34:42.626Z</time></trkpt><trkpt lat="39.8184462" lon="16.3707712"><ele>409.0</ele><time>2026-05-03T08:34:43.624Z</time></trkpt><trkpt lat="39.8185193" lon="16.3707158"><ele>409.0</ele><time>2026-05-03T08:34:44.638Z</time></trkpt><trkpt lat="39.8185905" lon="16.3706332"><ele>409.0</ele><time>2026-05-03T08:34:45.631Z</time></trkpt><trkpt lat="39.8186623" lon="16.3705389"><ele>411.4</ele><time>2026-05-03T08:34:46.636Z</time></trkpt><trkpt lat="39.8187318" lon="16.3704523"><ele>413.79999999999995</ele><time>2026-05-03T08:34:47.633Z</time></trkpt><trkpt lat="39.8187924" lon="16.3703829"><ele>416.20000000000005</ele><time>2026-05-03T08:34:48.62Z</time></trkpt><trkpt lat="39.8188722" lon="16.3703025"><ele>418.6</ele><time>2026-05-03T08:34:50.648Z</time></trkpt><trkpt lat="39.818962" lon="16.3703016"><ele>421.0</ele><time>2026-05-03T08:34:52.633Z</time></trkpt><trkpt lat="39.8190334" lon="16.3703811"><ele>421.00000000000006</ele><time>2026-05-03T08:34:54.626Z</time></trkpt><trkpt lat="39.8190506" lon="16.3704606"><ele>421.0</ele><time>2026-05-03T08:34:55.628Z</time></trkpt><trkpt lat="39.8190501" lon="16.3705507"><ele>421.0</ele><time>2026-05-03T08:34:56.645Z</time></trkpt><trkpt lat="39.8190389" lon="16.3706546"><ele>421.0</ele><time>2026-05-03T08:34:57.628Z</time></trkpt><trkpt lat="39.8190147" lon="16.3707684"><ele>421.00000000000006</ele><time>2026-05-03T08:34:58.622Z</time></trkpt><trkpt lat="39.8189877" lon="16.37089"><ele>421.0</ele><time>2026-05-03T08:34:59.625Z</time></trkpt><trkpt lat="39.8189786" lon="16.3710096"><ele>420.00000000000006</ele><time>2026-05-03T08:35:00.626Z</time></trkpt><trkpt lat="39.818991" lon="16.3711272"><ele>419.0</ele><time>2026-05-03T08:35:01.62Z</time></trkpt><trkpt lat="39.8190252" lon="16.3712394"><ele>418.0</ele><time>2026-05-03T08:35:02.639Z</time></trkpt><trkpt lat="39.8190581" lon="16.3713335"><ele>417.0</ele><time>2026-05-03T08:35:03.634Z</time></trkpt><trkpt lat="39.8190765" lon="16.3714214"><ele>416.00000000000006</ele><time>2026-05-03T08:35:04.627Z</time></trkpt><trkpt lat="39.8190817" lon="16.3715152"><ele>415.0</ele><time>2026-05-03T08:35:05.627Z</time></trkpt><trkpt lat="39.8190729" lon="16.3716097"><ele>414.4</ele><time>2026-05-03T08:35:06.611Z</time></trkpt><trkpt lat="39.8190509" lon="16.3717204"><ele>413.8</ele><time>2026-05-03T08:35:07.616Z</time></trkpt><trkpt lat="39.8190113" lon="16.3718325"><ele>413.20000000000005</ele><time>2026-05-03T08:35:08.628Z</time></trkpt><trkpt lat="39.8189555" lon="16.3719456"><ele>412.6</ele><time>2026-05-03T08:35:09.632Z</time></trkpt><trkpt lat="39.8188846" lon="16.3720644"><ele>412.0</ele><time>2026-05-03T08:35:10.636Z</time></trkpt><trkpt lat="39.8188184" lon="16.3721633"><ele>411.33333333333337</ele><time>2026-05-03T08:35:11.637Z</time></trkpt><trkpt lat="39.8187722" lon="16.3722453"><ele>410.6666666666667</ele><time>2026-05-03T08:35:12.634Z</time></trkpt><trkpt lat="39.818733" lon="16.3723217"><ele>410.0</ele><time>2026-05-03T08:35:13.606Z</time></trkpt><trkpt lat="39.8186787" lon="16.3724484"><ele>409.33333333333337</ele><time>2026-05-03T08:35:15.624Z</time></trkpt><trkpt lat="39.818671" lon="16.3725641"><ele>408.6666666666667</ele><time>2026-05-03T08:35:17.634Z</time></trkpt><trkpt lat="39.8187103" lon="16.3726499"><ele>408.0</ele><time>2026-05-03T08:35:19.622Z</time></trkpt><trkpt lat="39.8187625" lon="16.3727106"><ele>408.0</ele><time>2026-05-03T08:35:21.631Z</time></trkpt><trkpt lat="39.8188184" lon="16.3727854"><ele>408.0</ele><time>2026-05-03T08:35:23.626Z</time></trkpt><trkpt lat="39.8188422" lon="16.3728897"><ele>408.0</ele><time>2026-05-03T08:35:26.638Z</time></trkpt><trkpt lat="39.8187798" lon="16.3729393"><ele>408.0</ele><time>2026-05-03T08:35:28.625Z</time></trkpt><trkpt lat="39.8186845" lon="16.3729163"><ele>408.0</ele><time>2026-05-03T08:35:30.623Z</time></trkpt><trkpt lat="39.8186162" lon="16.3728839"><ele>408.0</ele><time>2026-05-03T08:35:31.626Z</time></trkpt><trkpt lat="39.818537" lon="16.372837"><ele>404.5</ele><time>2026-05-03T08:35:32.632Z</time></trkpt><trkpt lat="39.818452" lon="16.3727777"><ele>401.0</ele><time>2026-05-03T08:35:33.627Z</time></trkpt><trkpt lat="39.8183754" lon="16.3727156"><ele>397.5</ele><time>2026-05-03T08:35:34.64Z</time></trkpt><trkpt lat="39.8183128" lon="16.3726556"><ele>394.0</ele><time>2026-05-03T08:35:35.633Z</time></trkpt><trkpt lat="39.8182659" lon="16.3725992"><ele>390.5</ele><time>2026-05-03T08:35:36.628Z</time></trkpt><trkpt lat="39.8182113" lon="16.3725079"><ele>387.0</ele><time>2026-05-03T08:35:38.638Z</time></trkpt><trkpt lat="39.8181529" lon="16.3724752"><ele>387.0</ele><time>2026-05-03T08:35:40.628Z</time></trkpt><trkpt lat="39.8180918" lon="16.3725311"><ele>387.0</ele><time>2026-05-03T08:35:42.615Z</time></trkpt><trkpt lat="39.8180151" lon="16.372618"><ele>387.0</ele><time>2026-05-03T08:35:44.626Z</time></trkpt><trkpt lat="39.8179365" lon="16.3727107"><ele>387.0</ele><time>2026-05-03T08:35:46.646Z</time></trkpt><trkpt lat="39.8178881" lon="16.3728404"><ele>387.0</ele><time>2026-05-03T08:35:48.623Z</time></trkpt><trkpt lat="39.8179424" lon="16.3729735"><ele>385.40000000000003</ele><time>2026-05-03T08:35:50.636Z</time></trkpt><trkpt lat="39.8179869" lon="16.3730724"><ele>383.8</ele><time>2026-05-03T08:35:51.629Z</time></trkpt><trkpt lat="39.8180462" lon="16.3731933"><ele>382.2</ele><time>2026-05-03T08:35:52.637Z</time></trkpt><trkpt lat="39.8181002" lon="16.3733381"><ele>380.6</ele><time>2026-05-03T08:35:53.631Z</time></trkpt><trkpt lat="39.8181385" lon="16.3734846"><ele>379.0</ele><time>2026-05-03T08:35:54.633Z</time></trkpt><trkpt lat="39.8181615" lon="16.3736312"><ele>379.0</ele><time>2026-05-03T08:35:55.642Z</time></trkpt><trkpt lat="39.8181869" lon="16.3737746"><ele>379.0</ele><time>2026-05-03T08:35:56.632Z</time></trkpt><trkpt lat="39.8182132" lon="16.3739271"><ele>379.0</ele><time>2026-05-03T08:35:57.622Z</time></trkpt><trkpt lat="39.8182507" lon="16.3740918"><ele>379.0</ele><time>2026-05-03T08:35:58.635Z</time></trkpt><trkpt lat="39.8182973" lon="16.374273"><ele>377.0</ele><time>2026-05-03T08:35:59.628Z</time></trkpt><trkpt lat="39.8183366" lon="16.3744503"><ele>375.0</ele><time>2026-05-03T08:36:00.637Z</time></trkpt><trkpt lat="39.8183604" lon="16.3746097"><ele>373.0</ele><time>2026-05-03T08:36:01.633Z</time></trkpt><trkpt lat="39.8183806" lon="16.3747524"><ele>371.0</ele><time>2026-05-03T08:36:02.636Z</time></trkpt><trkpt lat="39.8184027" lon="16.3748834"><ele>371.6</ele><time>2026-05-03T08:36:03.618Z</time></trkpt><trkpt lat="39.8184449" lon="16.3750017"><ele>372.20000000000005</ele><time>2026-05-03T08:36:04.647Z</time></trkpt><trkpt lat="39.8185058" lon="16.3751184"><ele>372.79999999999995</ele><time>2026-05-03T08:36:05.632Z</time></trkpt><trkpt lat="39.8185732" lon="16.3752267"><ele>373.4</ele><time>2026-05-03T08:36:06.631Z</time></trkpt><trkpt lat="39.8186383" lon="16.3753312"><ele>374.0</ele><time>2026-05-03T08:36:07.629Z</time></trkpt><trkpt lat="39.8186826" lon="16.3754311"><ele>373.2</ele><time>2026-05-03T08:36:08.632Z</time></trkpt><trkpt lat="39.8187105" lon="16.3755371"><ele>372.4</ele><time>2026-05-03T08:36:09.621Z</time></trkpt><trkpt lat="39.8187397" lon="16.3756594"><ele>371.6</ele><time>2026-05-03T08:36:10.634Z</time></trkpt><trkpt lat="39.8187692" lon="16.3758003"><ele>370.8</ele><time>2026-05-03T08:36:11.623Z</time></trkpt><trkpt lat="39.8187957" lon="16.3759525"><ele>370.0</ele><time>2026-05-03T08:36:12.626Z</time></trkpt><trkpt lat="39.8188169" lon="16.3761074"><ele>370.0</ele><time>2026-05-03T08:36:13.633Z</time></trkpt><trkpt lat="39.8188339" lon="16.3762611"><ele>370.0</ele><time>2026-05-03T08:36:14.629Z</time></trkpt><trkpt lat="39.8188507" lon="16.3764099"><ele>370.0</ele><time>2026-05-03T08:36:15.631Z</time></trkpt><trkpt lat="39.8188577" lon="16.3765517"><ele>370.0</ele><time>2026-05-03T08:36:16.627Z</time></trkpt><trkpt lat="39.8188556" lon="16.3766737"><ele>370.0</ele><time>2026-05-03T08:36:17.632Z</time></trkpt><trkpt lat="39.8188378" lon="16.3768027"><ele>369.8</ele><time>2026-05-03T08:36:18.642Z</time></trkpt><trkpt lat="39.8188034" lon="16.376954"><ele>369.6</ele><time>2026-05-03T08:36:19.626Z</time></trkpt><trkpt lat="39.818764" lon="16.3771028"><ele>369.4</ele><time>2026-05-03T08:36:20.634Z</time></trkpt><trkpt lat="39.8187246" lon="16.3772332"><ele>369.2</ele><time>2026-05-03T08:36:21.626Z</time></trkpt><trkpt lat="39.8186931" lon="16.3773393"><ele>369.0</ele><time>2026-05-03T08:36:22.641Z</time></trkpt><trkpt lat="39.8186655" lon="16.3774335"><ele>368.5</ele><time>2026-05-03T08:36:23.627Z</time></trkpt><trkpt lat="39.8186363" lon="16.3775485"><ele>368.0</ele><time>2026-05-03T08:36:25.634Z</time></trkpt><trkpt lat="39.818616" lon="16.3776433"><ele>367.5</ele><time>2026-05-03T08:36:27.637Z</time></trkpt><trkpt lat="39.8186565" lon="16.3777717"><ele>367.0</ele><time>2026-05-03T08:36:29.624Z</time></trkpt><trkpt lat="39.8187005" lon="16.3778557"><ele>366.5</ele><time>2026-05-03T08:36:30.637Z</time></trkpt><trkpt lat="39.8187486" lon="16.3779609"><ele>366.0</ele><time>2026-05-03T08:36:31.627Z</time></trkpt><trkpt lat="39.8187923" lon="16.3780838"><ele>363.0</ele><time>2026-05-03T08:36:32.646Z</time></trkpt><trkpt lat="39.8188288" lon="16.378214"><ele>360.0</ele><time>2026-05-03T08:36:33.625Z</time></trkpt><trkpt lat="39.8188509" lon="16.37835"><ele>357.0</ele><time>2026-05-03T08:36:34.637Z</time></trkpt><trkpt lat="39.8188714" lon="16.378502"><ele>354.0</ele><time>2026-05-03T08:36:35.627Z</time></trkpt><trkpt lat="39.8188934" lon="16.3786654"><ele>354.0</ele><time>2026-05-03T08:36:36.62Z</time></trkpt><trkpt lat="39.8189197" lon="16.3788362"><ele>354.0</ele><time>2026-05-03T08:36:37.637Z</time></trkpt><trkpt lat="39.8189455" lon="16.3790047"><ele>354.0</ele><time>2026-05-03T08:36:38.635Z</time></trkpt><trkpt lat="39.8189679" lon="16.3791636"><ele>354.0</ele><time>2026-05-03T08:36:39.633Z</time></trkpt><trkpt lat="39.8189893" lon="16.3793094"><ele>351.6</ele><time>2026-05-03T08:36:40.628Z</time></trkpt><trkpt lat="39.8190203" lon="16.3794384"><ele>349.2</ele><time>2026-05-03T08:36:41.631Z</time></trkpt><trkpt lat="39.8190625" lon="16.3795681"><ele>346.8</ele><time>2026-05-03T08:36:42.627Z</time></trkpt><trkpt lat="39.8191069" lon="16.3797003"><ele>344.40000000000003</ele><time>2026-05-03T08:36:43.624Z</time></trkpt><trkpt lat="39.8191552" lon="16.3798369"><ele>342.0</ele><time>2026-05-03T08:36:44.623Z</time></trkpt><trkpt lat="39.8191973" lon="16.3799714"><ele>340.8333333333333</ele><time>2026-05-03T08:36:45.634Z</time></trkpt><trkpt lat="39.8192358" lon="16.3800786"><ele>339.6666666666667</ele><time>2026-05-03T08:36:46.639Z</time></trkpt><trkpt lat="39.8192699" lon="16.3801746"><ele>338.5</ele><time>2026-05-03T08:36:47.63Z</time></trkpt><trkpt lat="39.8192884" lon="16.3802752"><ele>337.33333333333337</ele><time>2026-05-03T08:36:48.635Z</time></trkpt><trkpt lat="39.8192987" lon="16.3803888"><ele>336.1666666666667</ele><time>2026-05-03T08:36:49.624Z</time></trkpt><trkpt lat="39.819304" lon="16.3805313"><ele>335.0</ele><time>2026-05-03T08:36:50.638Z</time></trkpt><trkpt lat="39.8193194" lon="16.3806832"><ele>334.0</ele><time>2026-05-03T08:36:51.624Z</time></trkpt><trkpt lat="39.8193535" lon="16.3808492"><ele>333.0</ele><time>2026-05-03T08:36:52.641Z</time></trkpt><trkpt lat="39.8193852" lon="16.3810197"><ele>332.0</ele><time>2026-05-03T08:36:53.645Z</time></trkpt><trkpt lat="39.8194055" lon="16.3811612"><ele>331.0</ele><time>2026-05-03T08:36:54.627Z</time></trkpt><trkpt lat="39.8194233" lon="16.381281"><ele>330.8</ele><time>2026-05-03T08:36:55.618Z</time></trkpt><trkpt lat="39.8194289" lon="16.3813988"><ele>330.6</ele><time>2026-05-03T08:36:56.63Z</time></trkpt><trkpt lat="39.8194188" lon="16.3815206"><ele>330.4</ele><time>2026-05-03T08:36:57.625Z</time></trkpt><trkpt lat="39.8193973" lon="16.3816598"><ele>330.2</ele><time>2026-05-03T08:36:58.637Z</time></trkpt><trkpt lat="39.8193732" lon="16.3818011"><ele>330.0</ele><time>2026-05-03T08:36:59.62Z</time></trkpt><trkpt lat="39.8193525" lon="16.3819326"><ele>330.0</ele><time>2026-05-03T08:37:00.627Z</time></trkpt><trkpt lat="39.8193243" lon="16.3820491"><ele>330.0</ele><time>2026-05-03T08:37:01.626Z</time></trkpt><trkpt lat="39.8192913" lon="16.3821618"><ele>330.0</ele><time>2026-05-03T08:37:02.647Z</time></trkpt><trkpt lat="39.8192567" lon="16.3822628"><ele>330.0</ele><time>2026-05-03T08:37:03.621Z</time></trkpt><trkpt lat="39.8192135" lon="16.3823519"><ele>330.0</ele><time>2026-05-03T08:37:04.638Z</time></trkpt><trkpt lat="39.8191599" lon="16.3824366"><ele>330.0</ele><time>2026-05-03T08:37:05.627Z</time></trkpt><trkpt lat="39.8190973" lon="16.3825244"><ele>327.5</ele><time>2026-05-03T08:37:06.648Z</time></trkpt><trkpt lat="39.8190425" lon="16.382602"><ele>325.0</ele><time>2026-05-03T08:37:07.625Z</time></trkpt><trkpt lat="39.8189932" lon="16.3826717"><ele>322.5</ele><time>2026-05-03T08:37:08.638Z</time></trkpt><trkpt lat="39.8189414" lon="16.3827315"><ele>320.0</ele><time>2026-05-03T08:37:09.647Z</time></trkpt><trkpt lat="39.8188813" lon="16.382794"><ele>317.5</ele><time>2026-05-03T08:37:10.631Z</time></trkpt><trkpt lat="39.8188126" lon="16.3828616"><ele>315.0</ele><time>2026-05-03T08:37:11.609Z</time></trkpt><trkpt lat="39.8187418" lon="16.3829251"><ele>315.0</ele><time>2026-05-03T08:37:12.63Z</time></trkpt><trkpt lat="39.8186823" lon="16.3829696"><ele>315.0</ele><time>2026-05-03T08:37:13.61Z</time></trkpt><trkpt lat="39.8186262" lon="16.3830328"><ele>315.0</ele><time>2026-05-03T08:37:14.648Z</time></trkpt><trkpt lat="39.8185826" lon="16.3831006"><ele>315.0</ele><time>2026-05-03T08:37:15.626Z</time></trkpt><trkpt lat="39.818531" lon="16.3832063"><ele>315.0</ele><time>2026-05-03T08:37:17.634Z</time></trkpt><trkpt lat="39.8185335" lon="16.3833226"><ele>315.0</ele><time>2026-05-03T08:37:19.627Z</time></trkpt><trkpt lat="39.818605" lon="16.3834227"><ele>313.6666666666667</ele><time>2026-05-03T08:37:21.619Z</time></trkpt><trkpt lat="39.8186605" lon="16.3834828"><ele>312.3333333333333</ele><time>2026-05-03T08:37:22.637Z</time></trkpt><trkpt lat="39.8187343" lon="16.383529"><ele>311.0</ele><time>2026-05-03T08:37:23.623Z</time></trkpt><trkpt lat="39.8188274" lon="16.3835752"><ele>309.66666666666663</ele><time>2026-05-03T08:37:24.628Z</time></trkpt><trkpt lat="39.8189175" lon="16.3836155"><ele>308.3333333333333</ele><time>2026-05-03T08:37:25.615Z</time></trkpt><trkpt lat="39.8190108" lon="16.38366"><ele>307.0</ele><time>2026-05-03T08:37:26.636Z</time></trkpt><trkpt lat="39.8190928" lon="16.3836983"><ele>307.0</ele><time>2026-05-03T08:37:27.617Z</time></trkpt><trkpt lat="39.8191712" lon="16.3837376"><ele>307.0</ele><time>2026-05-03T08:37:28.636Z</time></trkpt><trkpt lat="39.8192427" lon="16.3837696"><ele>307.0</ele><time>2026-05-03T08:37:29.623Z</time></trkpt><trkpt lat="39.8193118" lon="16.3837956"><ele>307.0</ele><time>2026-05-03T08:37:30.619Z</time></trkpt><trkpt lat="39.8194262" lon="16.3838238"><ele>307.0</ele><time>2026-05-03T08:37:32.63Z</time></trkpt><trkpt lat="39.8194886" lon="16.3838958"><ele>307.0</ele><time>2026-05-03T08:37:34.652Z</time></trkpt><trkpt lat="39.8194548" lon="16.3839858"><ele>308.16666666666663</ele><time>2026-05-03T08:37:36.626Z</time></trkpt><trkpt lat="39.8193489" lon="16.3840085"><ele>309.3333333333333</ele><time>2026-05-03T08:37:38.627Z</time></trkpt><trkpt lat="39.819282" lon="16.3840041"><ele>310.5</ele><time>2026-05-03T08:37:39.618Z</time></trkpt><trkpt lat="39.8191977" lon="16.3840051"><ele>311.6666666666667</ele><time>2026-05-03T08:37:40.63Z</time></trkpt><trkpt lat="39.8191124" lon="16.3840258"><ele>312.83333333333337</ele><time>2026-05-03T08:37:41.624Z</time></trkpt><trkpt lat="39.8190454" lon="16.3840786"><ele>314.0</ele><time>2026-05-03T08:37:42.634Z</time></trkpt><trkpt lat="39.8189841" lon="16.3841191"><ele>310.1666666666667</ele><time>2026-05-03T08:37:43.633Z</time></trkpt><trkpt lat="39.8189264" lon="16.3841535"><ele>306.33333333333337</ele><time>2026-05-03T08:37:44.649Z</time></trkpt><trkpt lat="39.8188629" lon="16.3841731"><ele>302.5</ele><time>2026-05-03T08:37:45.622Z</time></trkpt><trkpt lat="39.8187575" lon="16.3842112"><ele>298.6666666666667</ele><time>2026-05-03T08:37:47.621Z</time></trkpt><trkpt lat="39.8187033" lon="16.3842966"><ele>294.8333333333333</ele><time>2026-05-03T08:37:49.624Z</time></trkpt><trkpt lat="39.8187362" lon="16.384385"><ele>291.0</ele><time>2026-05-03T08:37:53.631Z</time></trkpt><trkpt lat="39.8188271" lon="16.3844189"><ele>291.0</ele><time>2026-05-03T08:37:55.605Z</time></trkpt><trkpt lat="39.8188942" lon="16.3844074"><ele>291.0</ele><time>2026-05-03T08:37:56.614Z</time></trkpt><trkpt lat="39.8189751" lon="16.3844196"><ele>291.0</ele><time>2026-05-03T08:37:57.632Z</time></trkpt><trkpt lat="39.8190683" lon="16.3844515"><ele>291.0</ele><time>2026-05-03T08:37:58.622Z</time></trkpt><trkpt lat="39.8191555" lon="16.3844956"><ele>291.0</ele><time>2026-05-03T08:37:59.634Z</time></trkpt><trkpt lat="39.8192293" lon="16.3845329"><ele>291.0</ele><time>2026-05-03T08:38:00.634Z</time></trkpt><trkpt lat="39.8192931" lon="16.3845691"><ele>291.0</ele><time>2026-05-03T08:38:01.632Z</time></trkpt><trkpt lat="39.8193829" lon="16.3846359"><ele>291.0</ele><time>2026-05-03T08:38:03.633Z</time></trkpt><trkpt lat="39.8193707" lon="16.3847619"><ele>291.0</ele><time>2026-05-03T08:38:05.627Z</time></trkpt><trkpt lat="39.8192881" lon="16.3848121"><ele>291.0</ele><time>2026-05-03T08:38:07.635Z</time></trkpt><trkpt lat="39.8192284" lon="16.3847803"><ele>291.0</ele><time>2026-05-03T08:38:08.627Z</time></trkpt><trkpt lat="39.8191724" lon="16.3847261"><ele>291.0</ele><time>2026-05-03T08:38:09.626Z</time></trkpt><trkpt lat="39.8191116" lon="16.3846696"><ele>291.0</ele><time>2026-05-03T08:38:10.627Z</time></trkpt><trkpt lat="39.8189983" lon="16.3846176"><ele>291.0</ele><time>2026-05-03T08:38:12.622Z</time></trkpt><trkpt lat="39.8189254" lon="16.3846641"><ele>291.0</ele><time>2026-05-03T08:38:14.627Z</time></trkpt><trkpt lat="39.8189565" lon="16.3847952"><ele>291.0</ele><time>2026-05-03T08:38:16.62Z</time></trkpt><trkpt lat="39.8190489" lon="16.3848926"><ele>291.0</ele><time>2026-05-03T08:38:18.622Z</time></trkpt><trkpt lat="39.8191017" lon="16.3849525"><ele>288.5</ele><time>2026-05-03T08:38:19.633Z</time></trkpt><trkpt lat="39.819156" lon="16.3850131"><ele>286.0</ele><time>2026-05-03T08:38:20.631Z</time></trkpt><trkpt lat="39.8192017" lon="16.3850757"><ele>283.5</ele><time>2026-05-03T08:38:21.628Z</time></trkpt><trkpt lat="39.8192369" lon="16.3851605"><ele>281.0</ele><time>2026-05-03T08:38:22.645Z</time></trkpt><trkpt lat="39.8192506" lon="16.3852676"><ele>278.5</ele><time>2026-05-03T08:38:23.622Z</time></trkpt><trkpt lat="39.8192702" lon="16.3853903"><ele>276.0</ele><time>2026-05-03T08:38:24.627Z</time></trkpt><trkpt lat="39.8193" lon="16.3855069"><ele>276.0</ele><time>2026-05-03T08:38:25.621Z</time></trkpt><trkpt lat="39.8193214" lon="16.3856154"><ele>276.0</ele><time>2026-05-03T08:38:26.62Z</time></trkpt><trkpt lat="39.8193337" lon="16.3857264"><ele>276.0</ele><time>2026-05-03T08:38:27.625Z</time></trkpt><trkpt lat="39.819352" lon="16.3858232"><ele>276.0</ele><time>2026-05-03T08:38:28.639Z</time></trkpt><trkpt lat="39.8193644" lon="16.3859084"><ele>276.0</ele><time>2026-05-03T08:38:29.633Z</time></trkpt><trkpt lat="39.8193947" lon="16.3860411"><ele>276.0</ele><time>2026-05-03T08:38:31.629Z</time></trkpt><trkpt lat="39.8194492" lon="16.3861707"><ele>276.0</ele><time>2026-05-03T08:38:33.634Z</time></trkpt><trkpt lat="39.819516" lon="16.3862744"><ele>276.0</ele><time>2026-05-03T08:38:35.619Z</time></trkpt><trkpt lat="39.8195116" lon="16.3863677"><ele>276.0</ele><time>2026-05-03T08:38:37.62Z</time></trkpt><trkpt lat="39.8194187" lon="16.3864205"><ele>276.0</ele><time>2026-05-03T08:38:39.619Z</time></trkpt><trkpt lat="39.8193478" lon="16.3864001"><ele>276.0</ele><time>2026-05-03T08:38:40.621Z</time></trkpt><trkpt lat="39.8192672" lon="16.3863554"><ele>276.0</ele><time>2026-05-03T08:38:41.62Z</time></trkpt><trkpt lat="39.8191847" lon="16.3863087"><ele>274.0</ele><time>2026-05-03T08:38:42.619Z</time></trkpt><trkpt lat="39.8191047" lon="16.3862567"><ele>272.0</ele><time>2026-05-03T08:38:43.619Z</time></trkpt><trkpt lat="39.8190323" lon="16.3862062"><ele>270.0</ele><time>2026-05-03T08:38:44.634Z</time></trkpt><trkpt lat="39.8189734" lon="16.3861575"><ele>268.0</ele><time>2026-05-03T08:38:45.63Z</time></trkpt><trkpt lat="39.8189162" lon="16.3861195"><ele>266.0</ele><time>2026-05-03T08:38:46.635Z</time></trkpt><trkpt lat="39.8187978" lon="16.3861185"><ele>264.0</ele><time>2026-05-03T08:38:48.634Z</time></trkpt><trkpt lat="39.8187215" lon="16.3862055"><ele>264.0</ele><time>2026-05-03T08:38:50.632Z</time></trkpt><trkpt lat="39.8187603" lon="16.3863417"><ele>264.0</ele><time>2026-05-03T08:38:52.637Z</time></trkpt><trkpt lat="39.8188082" lon="16.3864089"><ele>264.0</ele><time>2026-05-03T08:38:53.621Z</time></trkpt><trkpt lat="39.818867" lon="16.3864845"><ele>264.0</ele><time>2026-05-03T08:38:54.645Z</time></trkpt><trkpt lat="39.8189316" lon="16.3865614"><ele>264.0</ele><time>2026-05-03T08:38:55.624Z</time></trkpt><trkpt lat="39.8189938" lon="16.3866411"><ele>264.0</ele><time>2026-05-03T08:38:56.643Z</time></trkpt><trkpt lat="39.8190425" lon="16.3867137"><ele>262.0</ele><time>2026-05-03T08:38:57.623Z</time></trkpt><trkpt lat="39.8190822" lon="16.3867818"><ele>260.0</ele><time>2026-05-03T08:38:58.628Z</time></trkpt><trkpt lat="39.8191674" lon="16.3868535"><ele>258.0</ele><time>2026-05-03T08:39:00.623Z</time></trkpt><trkpt lat="39.8192332" lon="16.38687"><ele>256.0</ele><time>2026-05-03T08:39:01.615Z</time></trkpt><trkpt lat="39.819313" lon="16.3868885"><ele>254.0</ele><time>2026-05-03T08:39:02.627Z</time></trkpt><trkpt lat="39.8194017" lon="16.3869256"><ele>252.0</ele><time>2026-05-03T08:39:03.621Z</time></trkpt><trkpt lat="39.8194936" lon="16.386967"><ele>252.0</ele><time>2026-05-03T08:39:04.625Z</time></trkpt><trkpt lat="39.8195759" lon="16.3869969"><ele>252.0</ele><time>2026-05-03T08:39:05.633Z</time></trkpt><trkpt lat="39.8196409" lon="16.3870215"><ele>252.0</ele><time>2026-05-03T08:39:06.62Z</time></trkpt><trkpt lat="39.8197415" lon="16.3870353"><ele>252.0</ele><time>2026-05-03T08:39:08.631Z</time></trkpt><trkpt lat="39.8198058" lon="16.3870416"><ele>252.0</ele><time>2026-05-03T08:39:10.625Z</time></trkpt><trkpt lat="39.8198659" lon="16.3871365"><ele>252.0</ele><time>2026-05-03T08:39:13.63Z</time></trkpt><trkpt lat="39.8198509" lon="16.3872162"><ele>248.33333333333334</ele><time>2026-05-03T08:39:15.626Z</time></trkpt><trkpt lat="39.8197775" lon="16.3872718"><ele>244.66666666666669</ele><time>2026-05-03T08:39:17.611Z</time></trkpt><trkpt lat="39.8197111" lon="16.3872976"><ele>241.0</ele><time>2026-05-03T08:39:18.626Z</time></trkpt><trkpt lat="39.8196458" lon="16.3873221"><ele>237.33333333333334</ele><time>2026-05-03T08:39:19.616Z</time></trkpt><trkpt lat="39.8195743" lon="16.3873527"><ele>233.66666666666669</ele><time>2026-05-03T08:39:20.62Z</time></trkpt><trkpt lat="39.8194992" lon="16.3873705"><ele>230.0</ele><time>2026-05-03T08:39:21.612Z</time></trkpt><trkpt lat="39.8194216" lon="16.3873754"><ele>230.00000000000003</ele><time>2026-05-03T08:39:22.62Z</time></trkpt><trkpt lat="39.8193494" lon="16.3873631"><ele>230.0</ele><time>2026-05-03T08:39:23.622Z</time></trkpt><trkpt lat="39.8192847" lon="16.3873585"><ele>230.0</ele><time>2026-05-03T08:39:24.633Z</time></trkpt><trkpt lat="39.8191804" lon="16.3873519"><ele>230.0</ele><time>2026-05-03T08:39:26.63Z</time></trkpt><trkpt lat="39.8190658" lon="16.3873506"><ele>230.00000000000003</ele><time>2026-05-03T08:39:28.638Z</time></trkpt><trkpt lat="39.8189992" lon="16.3873467"><ele>230.0</ele><time>2026-05-03T08:39:29.626Z</time></trkpt><trkpt lat="39.8189228" lon="16.3873425"><ele>229.83333333333334</ele><time>2026-05-03T08:39:30.634Z</time></trkpt><trkpt lat="39.8188443" lon="16.3873395"><ele>229.66666666666669</ele><time>2026-05-03T08:39:31.637Z</time></trkpt><trkpt lat="39.8187719" lon="16.3873324"><ele>229.5</ele><time>2026-05-03T08:39:32.63Z</time></trkpt><trkpt lat="39.8187074" lon="16.3873148"><ele>229.33333333333331</ele><time>2026-05-03T08:39:33.625Z</time></trkpt><trkpt lat="39.8186142" lon="16.3872782"><ele>229.16666666666666</ele><time>2026-05-03T08:39:35.621Z</time></trkpt><trkpt lat="39.8185405" lon="16.3872651"><ele>229.0</ele><time>2026-05-03T08:39:46.625Z</time></trkpt><trkpt lat="39.8185988" lon="16.3873386"><ele>228.99999999999997</ele><time>2026-05-03T08:39:54.638Z</time></trkpt><trkpt lat="39.8186694" lon="16.3873778"><ele>229.0</ele><time>2026-05-03T08:39:56.623Z</time></trkpt><trkpt lat="39.8187219" lon="16.3874247"><ele>229.0</ele><time>2026-05-03T08:39:57.631Z</time></trkpt><trkpt lat="39.8187965" lon="16.3875189"><ele>229.0</ele><time>2026-05-03T08:39:59.629Z</time></trkpt><trkpt lat="39.818852" lon="16.3875854"><ele>228.99999999999997</ele><time>2026-05-03T08:40:01.634Z</time></trkpt><trkpt lat="39.8189024" lon="16.3876466"><ele>229.0</ele><time>2026-05-03T08:40:03.624Z</time></trkpt><trkpt lat="39.8189552" lon="16.3877029"><ele>228.99999999999997</ele><time>2026-05-03T08:40:05.637Z</time></trkpt><trkpt lat="39.8190067" lon="16.3877559"><ele>229.0</ele><time>2026-05-03T08:40:07.615Z</time></trkpt><trkpt lat="39.8190597" lon="16.3878132"><ele>229.0</ele><time>2026-05-03T08:40:09.622Z</time></trkpt><trkpt lat="39.8191394" lon="16.3878508"><ele>229.0</ele><time>2026-05-03T08:40:12.636Z</time></trkpt><trkpt lat="39.819235" lon="16.387866"><ele>228.99999999999997</ele><time>2026-05-03T08:40:14.623Z</time></trkpt><trkpt lat="39.8193485" lon="16.3878874"><ele>229.0</ele><time>2026-05-03T08:40:16.646Z</time></trkpt><trkpt lat="39.8194127" lon="16.3878875"><ele>229.14285714285714</ele><time>2026-05-03T08:40:17.633Z</time></trkpt><trkpt lat="39.8194798" lon="16.387897"><ele>229.28571428571428</ele><time>2026-05-03T08:40:18.63Z</time></trkpt><trkpt lat="39.8195513" lon="16.3879149"><ele>229.42857142857142</ele><time>2026-05-03T08:40:19.625Z</time></trkpt><trkpt lat="39.8196159" lon="16.3879308"><ele>229.57142857142856</ele><time>2026-05-03T08:40:20.63Z</time></trkpt><trkpt lat="39.8196808" lon="16.3879415"><ele>229.71428571428572</ele><time>2026-05-03T08:40:21.633Z</time></trkpt><trkpt lat="39.8197442" lon="16.387964"><ele>229.85714285714283</ele><time>2026-05-03T08:40:22.616Z</time></trkpt><trkpt lat="39.819809" lon="16.387976"><ele>229.99999999999997</ele><time>2026-05-03T08:40:23.622Z</time></trkpt><trkpt lat="39.8199248" lon="16.3879911"><ele>227.4</ele><time>2026-05-03T08:40:25.633Z</time></trkpt><trkpt lat="39.8200288" lon="16.3880529"><ele>224.8</ele><time>2026-05-03T08:40:27.622Z</time></trkpt><trkpt lat="39.8200661" lon="16.3881225"><ele>222.2</ele><time>2026-05-03T08:40:28.633Z</time></trkpt><trkpt lat="39.8201029" lon="16.3882599"><ele>219.6</ele><time>2026-05-03T08:40:30.657Z</time></trkpt><trkpt lat="39.8200817" lon="16.388375"><ele>217.0</ele><time>2026-05-03T08:40:32.639Z</time></trkpt><trkpt lat="39.8200571" lon="16.3884634"><ele>217.0</ele><time>2026-05-03T08:40:35.624Z</time></trkpt><trkpt lat="39.8200048" lon="16.3884125"><ele>217.0</ele><time>2026-05-03T08:42:48.618Z</time></trkpt><trkpt lat="39.8199445" lon="16.3884496"><ele>217.0</ele><time>2026-05-03T08:43:38.618Z</time></trkpt><trkpt lat="39.819885" lon="16.3884867"><ele>217.0</ele><time>2026-05-03T08:43:43.607Z</time></trkpt><trkpt lat="39.8199584" lon="16.3884533"><ele>217.0</ele><time>2026-05-03T08:44:44.616Z</time></trkpt><trkpt lat="39.8198872" lon="16.3885045"><ele>217.0</ele><time>2026-05-03T08:46:11.615Z</time></trkpt><trkpt lat="39.819924" lon="16.388418"><ele>217.0</ele><time>2026-05-03T08:46:41.597Z</time></trkpt><trkpt lat="39.8200007" lon="16.3884282"><ele>216.99999999999997</ele><time>2026-05-03T08:48:33.617Z</time></trkpt><trkpt lat="39.8200882" lon="16.3884584"><ele>217.0</ele><time>2026-05-03T08:52:44.652Z</time></trkpt><trkpt lat="39.8200141" lon="16.3885376"><ele>217.0</ele><time>2026-05-03T09:11:06.633Z</time></trkpt><trkpt lat="39.8200053" lon="16.3886399"><ele>217.0</ele><time>2026-05-03T09:11:08.627Z</time></trkpt><trkpt lat="39.8200005" lon="16.388724"><ele>216.99999999999997</ele><time>2026-05-03T09:11:09.625Z</time></trkpt><trkpt lat="39.8199752" lon="16.3888514"><ele>217.0</ele><time>2026-05-03T09:11:11.621Z</time></trkpt><trkpt lat="39.8199439" lon="16.3889872"><ele>216.28571428571428</ele><time>2026-05-03T09:11:13.612Z</time></trkpt><trkpt lat="39.8199234" lon="16.3890677"><ele>215.57142857142856</ele><time>2026-05-03T09:11:14.612Z</time></trkpt><trkpt lat="39.8198997" lon="16.3891584"><ele>214.85714285714286</ele><time>2026-05-03T09:11:15.627Z</time></trkpt><trkpt lat="39.8198804" lon="16.389251"><ele>214.14285714285714</ele><time>2026-05-03T09:11:16.606Z</time></trkpt><trkpt lat="39.8198636" lon="16.3893529"><ele>213.42857142857142</ele><time>2026-05-03T09:11:17.61Z</time></trkpt><trkpt lat="39.8198481" lon="16.3894511"><ele>212.71428571428572</ele><time>2026-05-03T09:11:18.603Z</time></trkpt><trkpt lat="39.8198327" lon="16.3895518"><ele>212.0</ele><time>2026-05-03T09:11:19.629Z</time></trkpt><trkpt lat="39.8198145" lon="16.3896538"><ele>211.00000000000003</ele><time>2026-05-03T09:11:20.617Z</time></trkpt><trkpt lat="39.8197987" lon="16.3897564"><ele>210.0</ele><time>2026-05-03T09:11:21.608Z</time></trkpt><trkpt lat="39.8197814" lon="16.3898606"><ele>209.0</ele><time>2026-05-03T09:11:22.597Z</time></trkpt><trkpt lat="39.8197637" lon="16.3899692"><ele>208.0</ele><time>2026-05-03T09:11:23.597Z</time></trkpt><trkpt lat="39.8197439" lon="16.3900819"><ele>207.00000000000003</ele><time>2026-05-03T09:11:24.609Z</time></trkpt><trkpt lat="39.8197219" lon="16.3901904"><ele>206.0</ele><time>2026-05-03T09:11:25.592Z</time></trkpt><trkpt lat="39.8197038" lon="16.3902994"><ele>206.0</ele><time>2026-05-03T09:11:26.617Z</time></trkpt><trkpt lat="39.8196877" lon="16.3904125"><ele>206.0</ele><time>2026-05-03T09:11:27.597Z</time></trkpt><trkpt lat="39.8196668" lon="16.3905418"><ele>206.0</ele><time>2026-05-03T09:11:28.602Z</time></trkpt><trkpt lat="39.8196424" lon="16.3906843"><ele>206.0</ele><time>2026-05-03T09:11:29.594Z</time></trkpt><trkpt lat="39.8196166" lon="16.3908461"><ele>206.0</ele><time>2026-05-03T09:11:30.597Z</time></trkpt><trkpt lat="39.8195874" lon="16.3910111"><ele>205.0</ele><time>2026-05-03T09:11:31.595Z</time></trkpt><trkpt lat="39.8195598" lon="16.3911667"><ele>204.0</ele><time>2026-05-03T09:11:32.602Z</time></trkpt><trkpt lat="39.8195362" lon="16.3913151"><ele>203.0</ele><time>2026-05-03T09:11:33.611Z</time></trkpt><trkpt lat="39.8195124" lon="16.3914581"><ele>202.0</ele><time>2026-05-03T09:11:34.635Z</time></trkpt><trkpt lat="39.8194886" lon="16.3915964"><ele>200.2</ele><time>2026-05-03T09:11:35.625Z</time></trkpt><trkpt lat="39.8194631" lon="16.391723"><ele>198.39999999999998</ele><time>2026-05-03T09:11:36.622Z</time></trkpt><trkpt lat="39.8194409" lon="16.391836"><ele>196.60000000000002</ele><time>2026-05-03T09:11:37.611Z</time></trkpt><trkpt lat="39.8194244" lon="16.3919341"><ele>194.8</ele><time>2026-05-03T09:11:38.615Z</time></trkpt><trkpt lat="39.819413" lon="16.3920254"><ele>193.0</ele><time>2026-05-03T09:11:39.622Z</time></trkpt><trkpt lat="39.8193684" lon="16.3921719"><ele>191.49999999999997</ele><time>2026-05-03T09:11:41.615Z</time></trkpt><trkpt lat="39.8193117" lon="16.3922967"><ele>190.0</ele><time>2026-05-03T09:11:43.622Z</time></trkpt><trkpt lat="39.8192759" lon="16.3923642"><ele>188.5</ele><time>2026-05-03T09:11:44.611Z</time></trkpt><trkpt lat="39.8192389" lon="16.3924331"><ele>187.0</ele><time>2026-05-03T09:11:45.626Z</time></trkpt><trkpt lat="39.8191667" lon="16.3925523"><ele>185.5</ele><time>2026-05-03T09:11:47.607Z</time></trkpt><trkpt lat="39.8191219" lon="16.3926177"><ele>184.0</ele><time>2026-05-03T09:11:48.624Z</time></trkpt><trkpt lat="39.8190723" lon="16.3927025"><ele>184.0</ele><time>2026-05-03T09:11:49.616Z</time></trkpt><trkpt lat="39.8190184" lon="16.3928081"><ele>184.0</ele><time>2026-05-03T09:11:50.624Z</time></trkpt><trkpt lat="39.818956" lon="16.3929174"><ele>184.0</ele><time>2026-05-03T09:11:51.625Z</time></trkpt><trkpt lat="39.8188885" lon="16.39304"><ele>184.0</ele><time>2026-05-03T09:11:52.61Z</time></trkpt><trkpt lat="39.8188131" lon="16.3931717"><ele>184.0</ele><time>2026-05-03T09:11:53.637Z</time></trkpt><trkpt lat="39.8187395" lon="16.3933031"><ele>182.6</ele><time>2026-05-03T09:11:54.615Z</time></trkpt><trkpt lat="39.8186737" lon="16.3934188"><ele>181.2</ele><time>2026-05-03T09:11:55.634Z</time></trkpt><trkpt lat="39.8186157" lon="16.3935165"><ele>179.79999999999998</ele><time>2026-05-03T09:11:56.623Z</time></trkpt><trkpt lat="39.8185583" lon="16.3936122"><ele>178.39999999999998</ele><time>2026-05-03T09:11:57.613Z</time></trkpt><trkpt lat="39.8184961" lon="16.3937169"><ele>177.0</ele><time>2026-05-03T09:11:58.616Z</time></trkpt><trkpt lat="39.8184303" lon="16.3938286"><ele>175.39999999999998</ele><time>2026-05-03T09:11:59.628Z</time></trkpt><trkpt lat="39.8183645" lon="16.3939568"><ele>173.79999999999998</ele><time>2026-05-03T09:12:00.622Z</time></trkpt><trkpt lat="39.8182965" lon="16.3940814"><ele>172.2</ele><time>2026-05-03T09:12:01.627Z</time></trkpt><trkpt lat="39.8182342" lon="16.3941896"><ele>170.6</ele><time>2026-05-03T09:12:02.61Z</time></trkpt><trkpt lat="39.8181784" lon="16.3942799"><ele>169.0</ele><time>2026-05-03T09:12:03.633Z</time></trkpt><trkpt lat="39.8181302" lon="16.3943634"><ele>169.0</ele><time>2026-05-03T09:12:04.622Z</time></trkpt><trkpt lat="39.8180811" lon="16.3944295"><ele>169.0</ele><time>2026-05-03T09:12:05.636Z</time></trkpt><trkpt lat="39.8179936" lon="16.3945233"><ele>169.0</ele><time>2026-05-03T09:12:07.615Z</time></trkpt><trkpt lat="39.8178921" lon="16.3945797"><ele>169.0</ele><time>2026-05-03T09:12:09.631Z</time></trkpt><trkpt lat="39.8178258" lon="16.3945947"><ele>169.0</ele><time>2026-05-03T09:12:10.63Z</time></trkpt><trkpt lat="39.8177462" lon="16.3946056"><ele>169.0</ele><time>2026-05-03T09:12:11.63Z</time></trkpt><trkpt lat="39.8176553" lon="16.3946097"><ele>168.0</ele><time>2026-05-03T09:12:12.625Z</time></trkpt><trkpt lat="39.817558" lon="16.394617"><ele>167.0</ele><time>2026-05-03T09:12:13.626Z</time></trkpt><trkpt lat="39.8174523" lon="16.3946439"><ele>166.0</ele><time>2026-05-03T09:12:14.63Z</time></trkpt><trkpt lat="39.8173482" lon="16.3947014"><ele>165.0</ele><time>2026-05-03T09:12:15.624Z</time></trkpt><trkpt lat="39.8172435" lon="16.3947883"><ele>164.0</ele><time>2026-05-03T09:12:16.615Z</time></trkpt><trkpt lat="39.8171434" lon="16.3949003"><ele>162.25</ele><time>2026-05-03T09:12:17.622Z</time></trkpt><trkpt lat="39.8170393" lon="16.3950248"><ele>160.5</ele><time>2026-05-03T09:12:18.631Z</time></trkpt><trkpt lat="39.8169317" lon="16.3951435"><ele>158.75</ele><time>2026-05-03T09:12:19.634Z</time></trkpt><trkpt lat="39.8168235" lon="16.3952539"><ele>157.0</ele><time>2026-05-03T09:12:20.618Z</time></trkpt><trkpt lat="39.8167199" lon="16.3953676"><ele>155.75</ele><time>2026-05-03T09:12:21.616Z</time></trkpt><trkpt lat="39.8166154" lon="16.3954754"><ele>154.5</ele><time>2026-05-03T09:12:22.618Z</time></trkpt><trkpt lat="39.8165134" lon="16.3955842"><ele>153.25</ele><time>2026-05-03T09:12:23.614Z</time></trkpt><trkpt lat="39.8164118" lon="16.3956975"><ele>152.0</ele><time>2026-05-03T09:12:24.618Z</time></trkpt><trkpt lat="39.816308" lon="16.3958177"><ele>151.0</ele><time>2026-05-03T09:12:25.611Z</time></trkpt><trkpt lat="39.8162021" lon="16.3959342"><ele>150.0</ele><time>2026-05-03T09:12:26.62Z</time></trkpt><trkpt lat="39.8160922" lon="16.3960493"><ele>149.0</ele><time>2026-05-03T09:12:27.625Z</time></trkpt><trkpt lat="39.8159881" lon="16.3961632"><ele>148.0</ele><time>2026-05-03T09:12:28.612Z</time></trkpt><trkpt lat="39.8158906" lon="16.3962677"><ele>146.75</ele><time>2026-05-03T09:12:29.626Z</time></trkpt><trkpt lat="39.8157972" lon="16.3963624"><ele>145.5</ele><time>2026-05-03T09:12:30.628Z</time></trkpt><trkpt lat="39.8157022" lon="16.39644"><ele>144.25</ele><time>2026-05-03T09:12:31.613Z</time></trkpt><trkpt lat="39.8155965" lon="16.396501"><ele>143.0</ele><time>2026-05-03T09:12:32.62Z</time></trkpt><trkpt lat="39.8154809" lon="16.3965587"><ele>143.0</ele><time>2026-05-03T09:12:33.618Z</time></trkpt><trkpt lat="39.8153534" lon="16.3965959"><ele>143.0</ele><time>2026-05-03T09:12:34.623Z</time></trkpt><trkpt lat="39.8152224" lon="16.3966186"><ele>143.0</ele><time>2026-05-03T09:12:35.615Z</time></trkpt><trkpt lat="39.8150865" lon="16.3966395"><ele>143.0</ele><time>2026-05-03T09:12:36.618Z</time></trkpt><trkpt lat="39.8149391" lon="16.3966587"><ele>141.75</ele><time>2026-05-03T09:12:37.619Z</time></trkpt><trkpt lat="39.8147912" lon="16.3966855"><ele>140.5</ele><time>2026-05-03T09:12:38.624Z</time></trkpt><trkpt lat="39.8146449" lon="16.3967099"><ele>139.25</ele><time>2026-05-03T09:12:39.625Z</time></trkpt><trkpt lat="39.8145012" lon="16.3967341"><ele>138.0</ele><time>2026-05-03T09:12:40.615Z</time></trkpt><trkpt lat="39.8143608" lon="16.3967611"><ele>136.75</ele><time>2026-05-03T09:12:41.629Z</time></trkpt><trkpt lat="39.8142243" lon="16.396783"><ele>135.5</ele><time>2026-05-03T09:12:42.628Z</time></trkpt><trkpt lat="39.8140931" lon="16.3968033"><ele>134.25</ele><time>2026-05-03T09:12:43.623Z</time></trkpt><trkpt lat="39.8139665" lon="16.3968157"><ele>133.0</ele><time>2026-05-03T09:12:44.623Z</time></trkpt><trkpt lat="39.8138493" lon="16.3968341"><ele>133.0</ele><time>2026-05-03T09:12:45.614Z</time></trkpt><trkpt lat="39.8137404" lon="16.3968537"><ele>133.0</ele><time>2026-05-03T09:12:46.619Z</time></trkpt><trkpt lat="39.8136328" lon="16.3968722"><ele>133.0</ele><time>2026-05-03T09:12:47.631Z</time></trkpt><trkpt lat="39.8135246" lon="16.396891"><ele>133.0</ele><time>2026-05-03T09:12:48.611Z</time></trkpt><trkpt lat="39.8134124" lon="16.3969095"><ele>133.0</ele><time>2026-05-03T09:12:49.619Z</time></trkpt><trkpt lat="39.8132956" lon="16.3969328"><ele>131.8</ele><time>2026-05-03T09:12:50.6Z</time></trkpt><trkpt lat="39.8131717" lon="16.3969624"><ele>130.60000000000002</ele><time>2026-05-03T09:12:51.613Z</time></trkpt><trkpt lat="39.8130553" lon="16.3969831"><ele>129.39999999999998</ele><time>2026-05-03T09:12:52.627Z</time></trkpt><trkpt lat="39.8129482" lon="16.396998"><ele>128.2</ele><time>2026-05-03T09:12:53.619Z</time></trkpt><trkpt lat="39.8128604" lon="16.3969946"><ele>127.0</ele><time>2026-05-03T09:12:54.611Z</time></trkpt><trkpt lat="39.8127736" lon="16.3969942"><ele>127.00000000000001</ele><time>2026-05-03T09:12:55.624Z</time></trkpt><trkpt lat="39.812707" lon="16.3969979"><ele>127.0</ele><time>2026-05-03T09:12:56.612Z</time></trkpt><trkpt lat="39.8126294" lon="16.3969878"><ele>127.0</ele><time>2026-05-03T09:12:58.619Z</time></trkpt><trkpt lat="39.8125723" lon="16.3970356"><ele>127.0</ele><time>2026-05-03T09:13:01.62Z</time></trkpt><trkpt lat="39.8125113" lon="16.397136"><ele>127.00000000000001</ele><time>2026-05-03T09:13:03.604Z</time></trkpt><trkpt lat="39.8124788" lon="16.397224"><ele>127.0</ele><time>2026-05-03T09:13:04.629Z</time></trkpt><trkpt lat="39.8124547" lon="16.3973196"><ele>126.66666666666667</ele><time>2026-05-03T09:13:05.621Z</time></trkpt><trkpt lat="39.8124294" lon="16.3974073"><ele>126.33333333333334</ele><time>2026-05-03T09:13:06.62Z</time></trkpt><trkpt lat="39.8124074" lon="16.3974869"><ele>126.0</ele><time>2026-05-03T09:13:07.611Z</time></trkpt><trkpt lat="39.8123676" lon="16.3976258"><ele>125.66666666666666</ele><time>2026-05-03T09:13:09.604Z</time></trkpt><trkpt lat="39.8123376" lon="16.3977413"><ele>125.33333333333333</ele><time>2026-05-03T09:13:11.6Z</time></trkpt><trkpt lat="39.8123133" lon="16.3978372"><ele>125.0</ele><time>2026-05-03T09:13:13.615Z</time></trkpt><trkpt lat="39.8122927" lon="16.3979151"><ele>124.83333333333333</ele><time>2026-05-03T09:13:15.616Z</time></trkpt><trkpt lat="39.8122719" lon="16.3980048"><ele>124.66666666666666</ele><time>2026-05-03T09:13:18.619Z</time></trkpt><trkpt lat="39.8122396" lon="16.3980763"><ele>124.5</ele><time>2026-05-03T09:13:21.61Z</time></trkpt><trkpt lat="39.8122121" lon="16.3981618"><ele>124.33333333333334</ele><time>2026-05-03T09:13:23.626Z</time></trkpt><trkpt lat="39.8121928" lon="16.3982404"><ele>124.16666666666667</ele><time>2026-05-03T09:13:25.625Z</time></trkpt><trkpt lat="39.8121567" lon="16.3983483"><ele>124.0</ele><time>2026-05-03T09:13:41.596Z</time></trkpt><trkpt lat="39.8121264" lon="16.398504"><ele>124.0</ele><time>2026-05-03T09:13:43.622Z</time></trkpt><trkpt lat="39.8120979" lon="16.3986011"><ele>124.0</ele><time>2026-05-03T09:13:44.626Z</time></trkpt><trkpt lat="39.812068" lon="16.3987175"><ele>124.0</ele><time>2026-05-03T09:13:45.622Z</time></trkpt><trkpt lat="39.8120336" lon="16.3988574"><ele>124.0</ele><time>2026-05-03T09:13:46.625Z</time></trkpt><trkpt lat="39.8119921" lon="16.3990055"><ele>124.0</ele><time>2026-05-03T09:13:47.626Z</time></trkpt><trkpt lat="39.8119497" lon="16.3991672"><ele>123.75</ele><time>2026-05-03T09:13:48.619Z</time></trkpt><trkpt lat="39.8119093" lon="16.3993304"><ele>123.5</ele><time>2026-05-03T09:13:49.621Z</time></trkpt><trkpt lat="39.8118671" lon="16.399498"><ele>123.25</ele><time>2026-05-03T09:13:50.634Z</time></trkpt><trkpt lat="39.8118237" lon="16.3996809"><ele>123.0</ele><time>2026-05-03T09:13:51.616Z</time></trkpt><trkpt lat="39.8117723" lon="16.3998623"><ele>121.66666666666666</ele><time>2026-05-03T09:13:52.623Z</time></trkpt><trkpt lat="39.8117206" lon="16.4000493"><ele>120.33333333333333</ele><time>2026-05-03T09:13:53.615Z</time></trkpt><trkpt lat="39.8116716" lon="16.4002433"><ele>119.0</ele><time>2026-05-03T09:13:54.616Z</time></trkpt><trkpt lat="39.8116243" lon="16.4004426"><ele>118.66666666666666</ele><time>2026-05-03T09:13:55.622Z</time></trkpt><trkpt lat="39.8115742" lon="16.4006335"><ele>118.33333333333334</ele><time>2026-05-03T09:13:56.618Z</time></trkpt><trkpt lat="39.8115181" lon="16.4008276"><ele>118.0</ele><time>2026-05-03T09:13:57.616Z</time></trkpt><trkpt lat="39.8114647" lon="16.4010178"><ele>118.0</ele><time>2026-05-03T09:13:58.622Z</time></trkpt><trkpt lat="39.8114128" lon="16.4012032"><ele>118.0</ele><time>2026-05-03T09:13:59.616Z</time></trkpt><trkpt lat="39.8113688" lon="16.401373"><ele>118.0</ele><time>2026-05-03T09:14:00.631Z</time></trkpt><trkpt lat="39.8113268" lon="16.4015311"><ele>118.0</ele><time>2026-05-03T09:14:01.637Z</time></trkpt><trkpt lat="39.8112852" lon="16.4016892"><ele>118.0</ele><time>2026-05-03T09:14:02.614Z</time></trkpt><trkpt lat="39.811242" lon="16.4018501"><ele>118.0</ele><time>2026-05-03T09:14:03.618Z</time></trkpt><trkpt lat="39.8111993" lon="16.4020147"><ele>118.0</ele><time>2026-05-03T09:14:04.617Z</time></trkpt><trkpt lat="39.811152" lon="16.4021814"><ele>118.0</ele><time>2026-05-03T09:14:05.618Z</time></trkpt><trkpt lat="39.8111055" lon="16.402356"><ele>117.25</ele><time>2026-05-03T09:14:06.611Z</time></trkpt><trkpt lat="39.8110559" lon="16.4025342"><ele>116.5</ele><time>2026-05-03T09:14:07.616Z</time></trkpt><trkpt lat="39.8110126" lon="16.4027171"><ele>115.75</ele><time>2026-05-03T09:14:08.635Z</time></trkpt><trkpt lat="39.8109613" lon="16.4029023"><ele>115.0</ele><time>2026-05-03T09:14:09.616Z</time></trkpt><trkpt lat="39.8109113" lon="16.4030915"><ele>113.75</ele><time>2026-05-03T09:14:10.623Z</time></trkpt><trkpt lat="39.8108632" lon="16.4032745"><ele>112.5</ele><time>2026-05-03T09:14:11.619Z</time></trkpt><trkpt lat="39.8108133" lon="16.4034505"><ele>111.25</ele><time>2026-05-03T09:14:12.617Z</time></trkpt><trkpt lat="39.8107708" lon="16.4036246"><ele>110.0</ele><time>2026-05-03T09:14:13.627Z</time></trkpt><trkpt lat="39.8107242" lon="16.4038013"><ele>109.0</ele><time>2026-05-03T09:14:14.622Z</time></trkpt><trkpt lat="39.8106782" lon="16.4039832"><ele>108.0</ele><time>2026-05-03T09:14:15.636Z</time></trkpt><trkpt lat="39.810633" lon="16.4041717"><ele>107.0</ele><time>2026-05-03T09:14:16.618Z</time></trkpt><trkpt lat="39.8105795" lon="16.4043616"><ele>107.0</ele><time>2026-05-03T09:14:17.619Z</time></trkpt><trkpt lat="39.8105252" lon="16.404555"><ele>107.0</ele><time>2026-05-03T09:14:18.621Z</time></trkpt><trkpt lat="39.8104727" lon="16.4047594"><ele>107.0</ele><time>2026-05-03T09:14:19.629Z</time></trkpt><trkpt lat="39.810415" lon="16.4049661"><ele>105.66666666666666</ele><time>2026-05-03T09:14:20.63Z</time></trkpt><trkpt lat="39.8103555" lon="16.4051701"><ele>104.33333333333334</ele><time>2026-05-03T09:14:21.618Z</time></trkpt><trkpt lat="39.8102937" lon="16.4053793"><ele>103.0</ele><time>2026-05-03T09:14:22.618Z</time></trkpt><trkpt lat="39.8102376" lon="16.4055854"><ele>102.0</ele><time>2026-05-03T09:14:23.62Z</time></trkpt><trkpt lat="39.8101805" lon="16.4057905"><ele>101.0</ele><time>2026-05-03T09:14:24.631Z</time></trkpt><trkpt lat="39.8101217" lon="16.4059997"><ele>100.0</ele><time>2026-05-03T09:14:25.637Z</time></trkpt><trkpt lat="39.8100653" lon="16.4062131"><ele>97.66666666666667</ele><time>2026-05-03T09:14:26.626Z</time></trkpt><trkpt lat="39.8100107" lon="16.4064253"><ele>95.33333333333334</ele><time>2026-05-03T09:14:27.611Z</time></trkpt><trkpt lat="39.8099577" lon="16.406626"><ele>93.0</ele><time>2026-05-03T09:14:28.623Z</time></trkpt><trkpt lat="39.8099076" lon="16.4068147"><ele>93.0</ele><time>2026-05-03T09:14:29.613Z</time></trkpt><trkpt lat="39.809865" lon="16.4069878"><ele>93.0</ele><time>2026-05-03T09:14:30.627Z</time></trkpt><trkpt lat="39.8098244" lon="16.4071526"><ele>93.0</ele><time>2026-05-03T09:14:31.623Z</time></trkpt><trkpt lat="39.8097837" lon="16.4073128"><ele>93.0</ele><time>2026-05-03T09:14:32.62Z</time></trkpt><trkpt lat="39.8097415" lon="16.4074735"><ele>92.75</ele><time>2026-05-03T09:14:33.616Z</time></trkpt><trkpt lat="39.8096999" lon="16.4076368"><ele>92.5</ele><time>2026-05-03T09:14:34.609Z</time></trkpt><trkpt lat="39.8096565" lon="16.4077957"><ele>92.25</ele><time>2026-05-03T09:14:35.612Z</time></trkpt><trkpt lat="39.8096166" lon="16.4079448"><ele>92.0</ele><time>2026-05-03T09:14:36.633Z</time></trkpt><trkpt lat="39.8095771" lon="16.408093"><ele>91.5</ele><time>2026-05-03T09:14:37.623Z</time></trkpt><trkpt lat="39.8095369" lon="16.4082406"><ele>91.0</ele><time>2026-05-03T09:14:38.622Z</time></trkpt><trkpt lat="39.8094989" lon="16.4083892"><ele>90.5</ele><time>2026-05-03T09:14:39.631Z</time></trkpt><trkpt lat="39.8094603" lon="16.4085338"><ele>90.0</ele><time>2026-05-03T09:14:40.623Z</time></trkpt><trkpt lat="39.8094251" lon="16.4086556"><ele>90.0</ele><time>2026-05-03T09:14:41.611Z</time></trkpt><trkpt lat="39.8093982" lon="16.4087633"><ele>90.0</ele><time>2026-05-03T09:14:42.616Z</time></trkpt><trkpt lat="39.8093781" lon="16.408856"><ele>90.0</ele><time>2026-05-03T09:14:43.62Z</time></trkpt><trkpt lat="39.8093695" lon="16.4089506"><ele>90.0</ele><time>2026-05-03T09:14:44.627Z</time></trkpt><trkpt lat="39.8093706" lon="16.4090455"><ele>90.0</ele><time>2026-05-03T09:14:45.614Z</time></trkpt><trkpt lat="39.8093783" lon="16.4091314"><ele>90.0</ele><time>2026-05-03T09:14:46.615Z</time></trkpt><trkpt lat="39.8093959" lon="16.4092409"><ele>89.66666666666667</ele><time>2026-05-03T09:14:48.617Z</time></trkpt><trkpt lat="39.8094129" lon="16.40933"><ele>89.33333333333333</ele><time>2026-05-03T09:14:52.614Z</time></trkpt><trkpt lat="39.809411" lon="16.409412"><ele>89.0</ele><time>2026-05-03T09:14:58.617Z</time></trkpt><trkpt lat="39.8093516" lon="16.4095465"><ele>88.66666666666666</ele><time>2026-05-03T09:20:00.601Z</time></trkpt><trkpt lat="39.8093005" lon="16.4096522"><ele>88.33333333333333</ele><time>2026-05-03T09:20:03.596Z</time></trkpt><trkpt lat="39.8092416" lon="16.409734"><ele>88.0</ele><time>2026-05-03T09:20:05.6Z</time></trkpt><trkpt lat="39.8091995" lon="16.4097977"><ele>87.33333333333333</ele><time>2026-05-03T09:20:29.606Z</time></trkpt><trkpt lat="39.8091572" lon="16.4098749"><ele>86.66666666666666</ele><time>2026-05-03T09:20:32.63Z</time></trkpt><trkpt lat="39.8091078" lon="16.4099749"><ele>86.0</ele><time>2026-05-03T09:20:34.601Z</time></trkpt><trkpt lat="39.8090776" lon="16.4100478"><ele>85.33333333333333</ele><time>2026-05-03T09:20:35.612Z</time></trkpt><trkpt lat="39.8090509" lon="16.4101386"><ele>84.66666666666667</ele><time>2026-05-03T09:20:36.607Z</time></trkpt><trkpt lat="39.809025" lon="16.4102415"><ele>84.0</ele><time>2026-05-03T09:20:37.607Z</time></trkpt><trkpt lat="39.808992" lon="16.4103563"><ele>84.0</ele><time>2026-05-03T09:20:38.627Z</time></trkpt><trkpt lat="39.8089542" lon="16.4104815"><ele>84.0</ele><time>2026-05-03T09:20:39.646Z</time></trkpt><trkpt lat="39.8089165" lon="16.4106257"><ele>84.0</ele><time>2026-05-03T09:20:40.613Z</time></trkpt><trkpt lat="39.8088788" lon="16.4107791"><ele>84.0</ele><time>2026-05-03T09:20:41.613Z</time></trkpt><trkpt lat="39.8088374" lon="16.4109415"><ele>83.5</ele><time>2026-05-03T09:20:42.61Z</time></trkpt><trkpt lat="39.8087897" lon="16.4111149"><ele>83.0</ele><time>2026-05-03T09:20:43.619Z</time></trkpt><trkpt lat="39.8087414" lon="16.4112942"><ele>82.5</ele><time>2026-05-03T09:20:44.606Z</time></trkpt><trkpt lat="39.8086914" lon="16.4114815"><ele>82.0</ele><time>2026-05-03T09:20:45.62Z</time></trkpt><trkpt lat="39.8086416" lon="16.4116643"><ele>81.8</ele><time>2026-05-03T09:20:46.62Z</time></trkpt><trkpt lat="39.8085964" lon="16.4118237"><ele>81.6</ele><time>2026-05-03T09:20:47.607Z</time></trkpt><trkpt lat="39.8085569" lon="16.411973"><ele>81.39999999999999</ele><time>2026-05-03T09:20:48.613Z</time></trkpt><trkpt lat="39.8085215" lon="16.4120998"><ele>81.19999999999999</ele><time>2026-05-03T09:20:49.609Z</time></trkpt><trkpt lat="39.8084933" lon="16.4121945"><ele>81.0</ele><time>2026-05-03T09:20:50.621Z</time></trkpt><trkpt lat="39.8084543" lon="16.4123185"><ele>80.33333333333333</ele><time>2026-05-03T09:20:52.613Z</time></trkpt><trkpt lat="39.8084164" lon="16.4123846"><ele>79.66666666666667</ele><time>2026-05-03T09:20:54.618Z</time></trkpt><trkpt lat="39.8083525" lon="16.4123669"><ele>79.0</ele><time>2026-05-03T09:20:57.605Z</time></trkpt><trkpt lat="39.8083249" lon="16.4122562"><ele>78.33333333333334</ele><time>2026-05-03T09:21:00.615Z</time></trkpt><trkpt lat="39.8082357" lon="16.4121515"><ele>77.66666666666667</ele><time>2026-05-03T09:21:02.625Z</time></trkpt><trkpt lat="39.8081655" lon="16.4120936"><ele>77.0</ele><time>2026-05-03T09:21:03.617Z</time></trkpt><trkpt lat="39.8080807" lon="16.4120285"><ele>77.0</ele><time>2026-05-03T09:21:04.624Z</time></trkpt><trkpt lat="39.8079819" lon="16.4119559"><ele>77.0</ele><time>2026-05-03T09:21:05.617Z</time></trkpt><trkpt lat="39.8078749" lon="16.4118812"><ele>77.0</ele><time>2026-05-03T09:21:06.612Z</time></trkpt><trkpt lat="39.80777" lon="16.4117943"><ele>77.0</ele><time>2026-05-03T09:21:07.617Z</time></trkpt><trkpt lat="39.807667" lon="16.4116974"><ele>76.75</ele><time>2026-05-03T09:21:08.623Z</time></trkpt><trkpt lat="39.8075643" lon="16.4115862"><ele>76.5</ele><time>2026-05-03T09:21:09.619Z</time></trkpt><trkpt lat="39.807463" lon="16.4114633"><ele>76.25</ele><time>2026-05-03T09:21:10.617Z</time></trkpt><trkpt lat="39.8073603" lon="16.4113405"><ele>76.0</ele><time>2026-05-03T09:21:11.625Z</time></trkpt><trkpt lat="39.8072534" lon="16.4112134"><ele>76.0</ele><time>2026-05-03T09:21:12.629Z</time></trkpt><trkpt lat="39.8071439" lon="16.411088"><ele>76.0</ele><time>2026-05-03T09:21:13.606Z</time></trkpt><trkpt lat="39.8070343" lon="16.4109594"><ele>76.0</ele><time>2026-05-03T09:21:14.601Z</time></trkpt><trkpt lat="39.8069262" lon="16.4108278"><ele>76.0</ele><time>2026-05-03T09:21:15.602Z</time></trkpt><trkpt lat="39.8068171" lon="16.4106961"><ele>75.75</ele><time>2026-05-03T09:21:16.599Z</time></trkpt><trkpt lat="39.8067072" lon="16.4105665"><ele>75.5</ele><time>2026-05-03T09:21:17.604Z</time></trkpt><trkpt lat="39.806599" lon="16.410438"><ele>75.25</ele><time>2026-05-03T09:21:18.62Z</time></trkpt><trkpt lat="39.8064904" lon="16.4103068"><ele>75.0</ele><time>2026-05-03T09:21:19.594Z</time></trkpt><trkpt lat="39.8063817" lon="16.410179"><ele>75.0</ele><time>2026-05-03T09:21:20.61Z</time></trkpt><trkpt lat="39.8062724" lon="16.4100514"><ele>75.0</ele><time>2026-05-03T09:21:21.603Z</time></trkpt><trkpt lat="39.8061648" lon="16.4099207"><ele>75.0</ele><time>2026-05-03T09:21:22.602Z</time></trkpt><trkpt lat="39.8060558" lon="16.4097908"><ele>75.0</ele><time>2026-05-03T09:21:23.611Z</time></trkpt><trkpt lat="39.8059517" lon="16.4096639"><ele>74.75</ele><time>2026-05-03T09:21:24.614Z</time></trkpt><trkpt lat="39.8058464" lon="16.4095372"><ele>74.5</ele><time>2026-05-03T09:21:25.615Z</time></trkpt><trkpt lat="39.8057428" lon="16.4094106"><ele>74.25</ele><time>2026-05-03T09:21:26.616Z</time></trkpt><trkpt lat="39.8056376" lon="16.409285"><ele>74.0</ele><time>2026-05-03T09:21:27.619Z</time></trkpt><trkpt lat="39.8055287" lon="16.4091559"><ele>74.0</ele><time>2026-05-03T09:21:28.623Z</time></trkpt><trkpt lat="39.8054165" lon="16.4090246"><ele>74.0</ele><time>2026-05-03T09:21:29.621Z</time></trkpt><trkpt lat="39.8053018" lon="16.4088938"><ele>74.0</ele><time>2026-05-03T09:21:30.624Z</time></trkpt><trkpt lat="39.8051877" lon="16.4087606"><ele>74.0</ele><time>2026-05-03T09:21:31.619Z</time></trkpt><trkpt lat="39.8050787" lon="16.4086254"><ele>74.0</ele><time>2026-05-03T09:21:32.623Z</time></trkpt><trkpt lat="39.8049696" lon="16.4084883"><ele>74.0</ele><time>2026-05-03T09:21:33.611Z</time></trkpt><trkpt lat="39.8048558" lon="16.4083536"><ele>74.0</ele><time>2026-05-03T09:21:34.618Z</time></trkpt><trkpt lat="39.8047403" lon="16.4082157"><ele>74.0</ele><time>2026-05-03T09:21:35.607Z</time></trkpt><trkpt lat="39.8046199" lon="16.4080736"><ele>74.0</ele><time>2026-05-03T09:21:36.621Z</time></trkpt><trkpt lat="39.8045021" lon="16.4079326"><ele>74.33333333333334</ele><time>2026-05-03T09:21:37.601Z</time></trkpt><trkpt lat="39.804386" lon="16.407795"><ele>74.66666666666667</ele><time>2026-05-03T09:21:38.604Z</time></trkpt><trkpt lat="39.8042738" lon="16.4076587"><ele>75.0</ele><time>2026-05-03T09:21:39.626Z</time></trkpt><trkpt lat="39.8041751" lon="16.4075287"><ele>75.0</ele><time>2026-05-03T09:21:40.633Z</time></trkpt><trkpt lat="39.8040893" lon="16.4074213"><ele>75.0</ele><time>2026-05-03T09:21:41.607Z</time></trkpt><trkpt lat="39.8040049" lon="16.4073085"><ele>75.0</ele><time>2026-05-03T09:21:42.625Z</time></trkpt><trkpt lat="39.8039163" lon="16.4071874"><ele>75.0</ele><time>2026-05-03T09:21:43.622Z</time></trkpt><trkpt lat="39.8038206" lon="16.4070578"><ele>75.33333333333333</ele><time>2026-05-03T09:21:44.617Z</time></trkpt><trkpt lat="39.8037151" lon="16.4069241"><ele>75.66666666666666</ele><time>2026-05-03T09:21:45.614Z</time></trkpt><trkpt lat="39.8036075" lon="16.4067872"><ele>76.0</ele><time>2026-05-03T09:21:46.611Z</time></trkpt><trkpt lat="39.8034997" lon="16.4066389"><ele>75.66666666666666</ele><time>2026-05-03T09:21:47.62Z</time></trkpt><trkpt lat="39.8033966" lon="16.406481"><ele>75.33333333333333</ele><time>2026-05-03T09:21:48.623Z</time></trkpt><trkpt lat="39.8032977" lon="16.4063152"><ele>75.0</ele><time>2026-05-03T09:21:49.618Z</time></trkpt><trkpt lat="39.8032027" lon="16.4061416"><ele>74.66666666666667</ele><time>2026-05-03T09:21:50.624Z</time></trkpt><trkpt lat="39.8031105" lon="16.4059615"><ele>74.33333333333334</ele><time>2026-05-03T09:21:51.609Z</time></trkpt><trkpt lat="39.8030139" lon="16.4057872"><ele>74.0</ele><time>2026-05-03T09:21:52.622Z</time></trkpt><trkpt lat="39.8029167" lon="16.4056145"><ele>74.0</ele><time>2026-05-03T09:21:53.612Z</time></trkpt><trkpt lat="39.8028205" lon="16.4054377"><ele>74.0</ele><time>2026-05-03T09:21:54.629Z</time></trkpt><trkpt lat="39.802729" lon="16.4052568"><ele>74.0</ele><time>2026-05-03T09:21:55.628Z</time></trkpt><trkpt lat="39.802638" lon="16.4050826"><ele>74.0</ele><time>2026-05-03T09:21:56.624Z</time></trkpt><trkpt lat="39.8025537" lon="16.4049235"><ele>74.0</ele><time>2026-05-03T09:21:57.62Z</time></trkpt><trkpt lat="39.8024744" lon="16.4047829"><ele>74.0</ele><time>2026-05-03T09:21:58.615Z</time></trkpt><trkpt lat="39.8024068" lon="16.4046679"><ele>74.0</ele><time>2026-05-03T09:21:59.613Z</time></trkpt><trkpt lat="39.8023344" lon="16.4045814"><ele>74.5</ele><time>2026-05-03T09:22:00.619Z</time></trkpt><trkpt lat="39.8022463" lon="16.4045208"><ele>75.0</ele><time>2026-05-03T09:22:01.609Z</time></trkpt><trkpt lat="39.8021387" lon="16.4044819"><ele>75.5</ele><time>2026-05-03T09:22:02.622Z</time></trkpt><trkpt lat="39.8020213" lon="16.4044638"><ele>76.0</ele><time>2026-05-03T09:22:03.618Z</time></trkpt><trkpt lat="39.8018897" lon="16.4044538"><ele>75.5</ele><time>2026-05-03T09:22:04.615Z</time></trkpt><trkpt lat="39.8017479" lon="16.4044578"><ele>75.0</ele><time>2026-05-03T09:22:05.639Z</time></trkpt><trkpt lat="39.8015997" lon="16.4044636"><ele>74.5</ele><time>2026-05-03T09:22:06.623Z</time></trkpt><trkpt lat="39.8014422" lon="16.4044654"><ele>74.0</ele><time>2026-05-03T09:22:07.618Z</time></trkpt><trkpt lat="39.8012724" lon="16.4044692"><ele>74.0</ele><time>2026-05-03T09:22:08.62Z</time></trkpt><trkpt lat="39.8010987" lon="16.4044721"><ele>74.0</ele><time>2026-05-03T09:22:09.605Z</time></trkpt><trkpt lat="39.8009153" lon="16.4044744"><ele>74.0</ele><time>2026-05-03T09:22:10.622Z</time></trkpt><trkpt lat="39.8007307" lon="16.4044744"><ele>74.0</ele><time>2026-05-03T09:22:11.625Z</time></trkpt><trkpt lat="39.8005455" lon="16.4044786"><ele>74.0</ele><time>2026-05-03T09:22:12.623Z</time></trkpt><trkpt lat="39.8003645" lon="16.4044917"><ele>74.0</ele><time>2026-05-03T09:22:13.609Z</time></trkpt><trkpt lat="39.800187" lon="16.4045099"><ele>73.66666666666667</ele><time>2026-05-03T09:22:14.623Z</time></trkpt><trkpt lat="39.8000156" lon="16.4045249"><ele>73.33333333333333</ele><time>2026-05-03T09:22:15.617Z</time></trkpt><trkpt lat="39.7998493" lon="16.4045397"><ele>73.0</ele><time>2026-05-03T09:22:16.628Z</time></trkpt><trkpt lat="39.7996949" lon="16.404556"><ele>73.0</ele><time>2026-05-03T09:22:17.612Z</time></trkpt><trkpt lat="39.7995512" lon="16.4045764"><ele>73.0</ele><time>2026-05-03T09:22:18.618Z</time></trkpt><trkpt lat="39.7994132" lon="16.4045944"><ele>73.0</ele><time>2026-05-03T09:22:19.612Z</time></trkpt><trkpt lat="39.7992693" lon="16.4046081"><ele>73.0</ele><time>2026-05-03T09:22:20.605Z</time></trkpt><trkpt lat="39.7991236" lon="16.4046242"><ele>72.66666666666666</ele><time>2026-05-03T09:22:21.608Z</time></trkpt><trkpt lat="39.7989711" lon="16.4046456"><ele>72.33333333333333</ele><time>2026-05-03T09:22:22.616Z</time></trkpt><trkpt lat="39.7988126" lon="16.4046617"><ele>72.0</ele><time>2026-05-03T09:22:23.606Z</time></trkpt><trkpt lat="39.7986487" lon="16.4046686"><ele>72.0</ele><time>2026-05-03T09:22:24.612Z</time></trkpt><trkpt lat="39.7984782" lon="16.4046754"><ele>72.0</ele><time>2026-05-03T09:22:25.619Z</time></trkpt><trkpt lat="39.7983066" lon="16.4046821"><ele>72.0</ele><time>2026-05-03T09:22:26.601Z</time></trkpt><trkpt lat="39.7981331" lon="16.4046886"><ele>72.0</ele><time>2026-05-03T09:22:27.598Z</time></trkpt><trkpt lat="39.7979601" lon="16.4046915"><ele>72.0</ele><time>2026-05-03T09:22:28.608Z</time></trkpt><trkpt lat="39.7977887" lon="16.4046915"><ele>72.0</ele><time>2026-05-03T09:22:29.615Z</time></trkpt><trkpt lat="39.7976151" lon="16.4046976"><ele>71.66666666666667</ele><time>2026-05-03T09:22:30.62Z</time></trkpt><trkpt lat="39.7974388" lon="16.4047057"><ele>71.33333333333334</ele><time>2026-05-03T09:22:31.601Z</time></trkpt><trkpt lat="39.7972631" lon="16.4047115"><ele>71.0</ele><time>2026-05-03T09:22:32.622Z</time></trkpt><trkpt lat="39.7970888" lon="16.4047139"><ele>71.0</ele><time>2026-05-03T09:22:33.621Z</time></trkpt><trkpt lat="39.7969178" lon="16.4047188"><ele>71.0</ele><time>2026-05-03T09:22:34.621Z</time></trkpt><trkpt lat="39.7967493" lon="16.4047235"><ele>71.0</ele><time>2026-05-03T09:22:35.62Z</time></trkpt><trkpt lat="39.7965831" lon="16.4047242"><ele>71.0</ele><time>2026-05-03T09:22:36.615Z</time></trkpt><trkpt lat="39.7964192" lon="16.4047151"><ele>71.0</ele><time>2026-05-03T09:22:37.62Z</time></trkpt><trkpt lat="39.7962561" lon="16.4046959"><ele>71.0</ele><time>2026-05-03T09:22:38.626Z</time></trkpt><trkpt lat="39.7960887" lon="16.4046689"><ele>71.33333333333334</ele><time>2026-05-03T09:22:39.62Z</time></trkpt><trkpt lat="39.7959171" lon="16.4046446"><ele>71.66666666666667</ele><time>2026-05-03T09:22:40.636Z</time></trkpt><trkpt lat="39.7957456" lon="16.4046166"><ele>72.0</ele><time>2026-05-03T09:22:41.617Z</time></trkpt><trkpt lat="39.7955733" lon="16.4045818"><ele>72.0</ele><time>2026-05-03T09:22:42.624Z</time></trkpt><trkpt lat="39.7954058" lon="16.4045457"><ele>72.0</ele><time>2026-05-03T09:22:43.617Z</time></trkpt><trkpt lat="39.7952444" lon="16.4045128"><ele>72.0</ele><time>2026-05-03T09:22:44.623Z</time></trkpt><trkpt lat="39.7950917" lon="16.4044862"><ele>71.75</ele><time>2026-05-03T09:22:45.622Z</time></trkpt><trkpt lat="39.7949553" lon="16.4044603"><ele>71.5</ele><time>2026-05-03T09:22:46.617Z</time></trkpt><trkpt lat="39.7948279" lon="16.4044379"><ele>71.25</ele><time>2026-05-03T09:22:47.601Z</time></trkpt><trkpt lat="39.7946956" lon="16.4044229"><ele>71.0</ele><time>2026-05-03T09:22:48.628Z</time></trkpt><trkpt lat="39.7945522" lon="16.404408"><ele>71.0</ele><time>2026-05-03T09:22:49.61Z</time></trkpt><trkpt lat="39.7944052" lon="16.4043805"><ele>71.0</ele><time>2026-05-03T09:22:50.606Z</time></trkpt><trkpt lat="39.7942545" lon="16.4043364"><ele>71.0</ele><time>2026-05-03T09:22:51.613Z</time></trkpt><trkpt lat="39.7940977" lon="16.404301"><ele>70.66666666666667</ele><time>2026-05-03T09:22:52.623Z</time></trkpt><trkpt lat="39.7939367" lon="16.4042753"><ele>70.33333333333333</ele><time>2026-05-03T09:22:53.622Z</time></trkpt><trkpt lat="39.7937765" lon="16.4042611"><ele>70.0</ele><time>2026-05-03T09:22:54.618Z</time></trkpt><trkpt lat="39.7936172" lon="16.4042682"><ele>69.66666666666666</ele><time>2026-05-03T09:22:55.619Z</time></trkpt><trkpt lat="39.7934533" lon="16.4042999"><ele>69.33333333333333</ele><time>2026-05-03T09:22:56.623Z</time></trkpt><trkpt lat="39.7932863" lon="16.4043465"><ele>69.0</ele><time>2026-05-03T09:22:57.613Z</time></trkpt><trkpt lat="39.793112" lon="16.4043976"><ele>69.0</ele><time>2026-05-03T09:22:58.615Z</time></trkpt><trkpt lat="39.7929305" lon="16.4044504"><ele>69.0</ele><time>2026-05-03T09:22:59.617Z</time></trkpt><trkpt lat="39.7927458" lon="16.4045032"><ele>69.0</ele><time>2026-05-03T09:23:00.615Z</time></trkpt><trkpt lat="39.7925575" lon="16.4045563"><ele>69.0</ele><time>2026-05-03T09:23:01.621Z</time></trkpt><trkpt lat="39.7923682" lon="16.404605"><ele>69.0</ele><time>2026-05-03T09:23:02.62Z</time></trkpt><trkpt lat="39.7921895" lon="16.4046535"><ele>69.0</ele><time>2026-05-03T09:23:03.62Z</time></trkpt><trkpt lat="39.7920197" lon="16.4047004"><ele>68.66666666666667</ele><time>2026-05-03T09:23:04.612Z</time></trkpt><trkpt lat="39.7918553" lon="16.404746"><ele>68.33333333333334</ele><time>2026-05-03T09:23:05.615Z</time></trkpt><trkpt lat="39.7917045" lon="16.4047874"><ele>68.0</ele><time>2026-05-03T09:23:06.612Z</time></trkpt><trkpt lat="39.7915647" lon="16.4048255"><ele>67.75</ele><time>2026-05-03T09:23:07.62Z</time></trkpt><trkpt lat="39.7914319" lon="16.404869"><ele>67.5</ele><time>2026-05-03T09:23:08.621Z</time></trkpt><trkpt lat="39.7913101" lon="16.4049119"><ele>67.25</ele><time>2026-05-03T09:23:09.604Z</time></trkpt><trkpt lat="39.7911938" lon="16.4049483"><ele>67.0</ele><time>2026-05-03T09:23:10.619Z</time></trkpt><trkpt lat="39.7910861" lon="16.4049829"><ele>67.2</ele><time>2026-05-03T09:23:11.623Z</time></trkpt><trkpt lat="39.790984" lon="16.4050081"><ele>67.4</ele><time>2026-05-03T09:23:12.624Z</time></trkpt><trkpt lat="39.7908882" lon="16.4050283"><ele>67.6</ele><time>2026-05-03T09:23:13.652Z</time></trkpt><trkpt lat="39.7907939" lon="16.40505"><ele>67.8</ele><time>2026-05-03T09:23:14.606Z</time></trkpt><trkpt lat="39.7906937" lon="16.4050711"><ele>68.0</ele><time>2026-05-03T09:23:15.626Z</time></trkpt><trkpt lat="39.7905789" lon="16.4050992"><ele>68.0</ele><time>2026-05-03T09:23:16.616Z</time></trkpt><trkpt lat="39.790455" lon="16.4051362"><ele>68.0</ele><time>2026-05-03T09:23:17.617Z</time></trkpt><trkpt lat="39.7903186" lon="16.4051768"><ele>68.0</ele><time>2026-05-03T09:23:18.633Z</time></trkpt><trkpt lat="39.7901744" lon="16.4052145"><ele>68.0</ele><time>2026-05-03T09:23:19.622Z</time></trkpt><trkpt lat="39.7900211" lon="16.4052548"><ele>67.66666666666667</ele><time>2026-05-03T09:23:20.621Z</time></trkpt><trkpt lat="39.7898615" lon="16.4052994"><ele>67.33333333333333</ele><time>2026-05-03T09:23:21.619Z</time></trkpt><trkpt lat="39.7896951" lon="16.4053482"><ele>67.0</ele><time>2026-05-03T09:23:22.621Z</time></trkpt><trkpt lat="39.7895227" lon="16.4053986"><ele>67.0</ele><time>2026-05-03T09:23:23.605Z</time></trkpt><trkpt lat="39.7893404" lon="16.4054537"><ele>67.0</ele><time>2026-05-03T09:23:24.624Z</time></trkpt><trkpt lat="39.7891513" lon="16.4055057"><ele>67.0</ele><time>2026-05-03T09:23:25.611Z</time></trkpt><trkpt lat="39.7889591" lon="16.4055523"><ele>66.66666666666666</ele><time>2026-05-03T09:23:26.624Z</time></trkpt><trkpt lat="39.7887682" lon="16.4056022"><ele>66.33333333333333</ele><time>2026-05-03T09:23:27.613Z</time></trkpt><trkpt lat="39.7885804" lon="16.4056552"><ele>66.0</ele><time>2026-05-03T09:23:28.625Z</time></trkpt><trkpt lat="39.7884069" lon="16.4057032"><ele>66.0</ele><time>2026-05-03T09:23:29.614Z</time></trkpt><trkpt lat="39.7882489" lon="16.4057491"><ele>66.0</ele><time>2026-05-03T09:23:30.622Z</time></trkpt><trkpt lat="39.7881061" lon="16.4057866"><ele>66.0</ele><time>2026-05-03T09:23:31.615Z</time></trkpt><trkpt lat="39.7879715" lon="16.4058197"><ele>66.0</ele><time>2026-05-03T09:23:32.63Z</time></trkpt><trkpt lat="39.7878387" lon="16.4058407"><ele>66.0</ele><time>2026-05-03T09:23:33.611Z</time></trkpt><trkpt lat="39.7877001" lon="16.4058398"><ele>66.0</ele><time>2026-05-03T09:23:34.618Z</time></trkpt><trkpt lat="39.7875541" lon="16.4058105"><ele>66.0</ele><time>2026-05-03T09:23:35.62Z</time></trkpt><trkpt lat="39.7874155" lon="16.4057573"><ele>66.0</ele><time>2026-05-03T09:23:36.615Z</time></trkpt><trkpt lat="39.7872819" lon="16.4056716"><ele>66.0</ele><time>2026-05-03T09:23:37.623Z</time></trkpt><trkpt lat="39.7871492" lon="16.4055584"><ele>66.0</ele><time>2026-05-03T09:23:38.621Z</time></trkpt><trkpt lat="39.7870182" lon="16.4054328"><ele>66.0</ele><time>2026-05-03T09:23:39.623Z</time></trkpt><trkpt lat="39.7868844" lon="16.4052985"><ele>65.33333333333333</ele><time>2026-05-03T09:23:40.612Z</time></trkpt><trkpt lat="39.7867474" lon="16.4051626"><ele>64.66666666666666</ele><time>2026-05-03T09:23:41.618Z</time></trkpt><trkpt lat="39.7866095" lon="16.4050224"><ele>64.0</ele><time>2026-05-03T09:23:42.613Z</time></trkpt><trkpt lat="39.7864665" lon="16.4048787"><ele>64.0</ele><time>2026-05-03T09:23:43.593Z</time></trkpt><trkpt lat="39.78632" lon="16.4047337"><ele>64.0</ele><time>2026-05-03T09:23:44.6Z</time></trkpt><trkpt lat="39.7861715" lon="16.4045914"><ele>64.0</ele><time>2026-05-03T09:23:45.6Z</time></trkpt><trkpt lat="39.7860272" lon="16.4044488"><ele>64.66666666666666</ele><time>2026-05-03T09:23:46.606Z</time></trkpt><trkpt lat="39.7858825" lon="16.4043058"><ele>65.33333333333333</ele><time>2026-05-03T09:23:47.593Z</time></trkpt><trkpt lat="39.7857412" lon="16.4041624"><ele>66.0</ele><time>2026-05-03T09:23:48.61Z</time></trkpt><trkpt lat="39.7856038" lon="16.404022"><ele>66.0</ele><time>2026-05-03T09:23:49.61Z</time></trkpt><trkpt lat="39.7854734" lon="16.40389"><ele>66.0</ele><time>2026-05-03T09:23:50.598Z</time></trkpt><trkpt lat="39.7853517" lon="16.4037701"><ele>66.0</ele><time>2026-05-03T09:23:51.592Z</time></trkpt><trkpt lat="39.7851362" lon="16.4035527"><ele>65.75</ele><time>2026-05-03T09:23:53.611Z</time></trkpt><trkpt lat="39.7850264" lon="16.4034433"><ele>65.5</ele><time>2026-05-03T09:23:54.606Z</time></trkpt><trkpt lat="39.7849115" lon="16.403335"><ele>65.25</ele><time>2026-05-03T09:23:55.604Z</time></trkpt><trkpt lat="39.7848058" lon="16.403231"><ele>65.0</ele><time>2026-05-03T09:23:56.62Z</time></trkpt><trkpt lat="39.7847083" lon="16.4031382"><ele>65.0</ele><time>2026-05-03T09:23:57.605Z</time></trkpt><trkpt lat="39.7846093" lon="16.4030434"><ele>65.0</ele><time>2026-05-03T09:23:58.592Z</time></trkpt><trkpt lat="39.7845045" lon="16.4029427"><ele>65.0</ele><time>2026-05-03T09:23:59.602Z</time></trkpt><trkpt lat="39.7843988" lon="16.4028394"><ele>65.0</ele><time>2026-05-03T09:24:00.61Z</time></trkpt><trkpt lat="39.7842881" lon="16.4027339"><ele>65.33333333333334</ele><time>2026-05-03T09:24:01.602Z</time></trkpt><trkpt lat="39.7841681" lon="16.402629"><ele>65.66666666666667</ele><time>2026-05-03T09:24:02.624Z</time></trkpt><trkpt lat="39.7840385" lon="16.4025202"><ele>66.0</ele><time>2026-05-03T09:24:03.615Z</time></trkpt><trkpt lat="39.7839023" lon="16.4024082"><ele>66.0</ele><time>2026-05-03T09:24:04.634Z</time></trkpt><trkpt lat="39.7837655" lon="16.4022936"><ele>66.0</ele><time>2026-05-03T09:24:05.611Z</time></trkpt><trkpt lat="39.7836275" lon="16.4021776"><ele>66.0</ele><time>2026-05-03T09:24:06.599Z</time></trkpt><trkpt lat="39.7834877" lon="16.4020609"><ele>65.33333333333333</ele><time>2026-05-03T09:24:07.611Z</time></trkpt><trkpt lat="39.7833472" lon="16.4019449"><ele>64.66666666666666</ele><time>2026-05-03T09:24:08.617Z</time></trkpt><trkpt lat="39.7832015" lon="16.4018251"><ele>64.0</ele><time>2026-05-03T09:24:09.586Z</time></trkpt><trkpt lat="39.7830574" lon="16.4017028"><ele>64.0</ele><time>2026-05-03T09:24:10.624Z</time></trkpt><trkpt lat="39.7829129" lon="16.4015754"><ele>64.0</ele><time>2026-05-03T09:24:11.607Z</time></trkpt><trkpt lat="39.7827706" lon="16.4014434"><ele>64.0</ele><time>2026-05-03T09:24:12.634Z</time></trkpt><trkpt lat="39.7826283" lon="16.4013107"><ele>64.0</ele><time>2026-05-03T09:24:13.624Z</time></trkpt><trkpt lat="39.7824863" lon="16.4011716"><ele>64.0</ele><time>2026-05-03T09:24:14.636Z</time></trkpt><trkpt lat="39.782342" lon="16.4010295"><ele>64.0</ele><time>2026-05-03T09:24:15.623Z</time></trkpt><trkpt lat="39.7822009" lon="16.4008855"><ele>64.0</ele><time>2026-05-03T09:24:16.629Z</time></trkpt><trkpt lat="39.7820588" lon="16.4007405"><ele>64.0</ele><time>2026-05-03T09:24:17.614Z</time></trkpt><trkpt lat="39.7819154" lon="16.4005949"><ele>64.0</ele><time>2026-05-03T09:24:18.612Z</time></trkpt><trkpt lat="39.7817697" lon="16.4004519"><ele>64.0</ele><time>2026-05-03T09:24:19.606Z</time></trkpt><trkpt lat="39.7816255" lon="16.4003086"><ele>64.0</ele><time>2026-05-03T09:24:20.617Z</time></trkpt><trkpt lat="39.7814829" lon="16.4001633"><ele>64.0</ele><time>2026-05-03T09:24:21.625Z</time></trkpt><trkpt lat="39.7813422" lon="16.4000164"><ele>64.0</ele><time>2026-05-03T09:24:22.615Z</time></trkpt><trkpt lat="39.7812" lon="16.3998691"><ele>64.0</ele><time>2026-05-03T09:24:23.612Z</time></trkpt><trkpt lat="39.7810538" lon="16.3997245"><ele>64.0</ele><time>2026-05-03T09:24:24.619Z</time></trkpt><trkpt lat="39.7809069" lon="16.3995805"><ele>64.0</ele><time>2026-05-03T09:24:25.607Z</time></trkpt><trkpt lat="39.7807584" lon="16.3994347"><ele>64.0</ele><time>2026-05-03T09:24:26.629Z</time></trkpt><trkpt lat="39.7806091" lon="16.399287"><ele>64.0</ele><time>2026-05-03T09:24:27.619Z</time></trkpt><trkpt lat="39.7804643" lon="16.3991458"><ele>64.0</ele><time>2026-05-03T09:24:28.613Z</time></trkpt><trkpt lat="39.7803196" lon="16.3990069"><ele>64.0</ele><time>2026-05-03T09:24:29.626Z</time></trkpt><trkpt lat="39.780177" lon="16.3988626"><ele>64.0</ele><time>2026-05-03T09:24:30.593Z</time></trkpt><trkpt lat="39.7800362" lon="16.398717"><ele>63.666666666666664</ele><time>2026-05-03T09:24:31.608Z</time></trkpt><trkpt lat="39.7798916" lon="16.3985761"><ele>63.33333333333333</ele><time>2026-05-03T09:24:32.614Z</time></trkpt><trkpt lat="39.7797482" lon="16.3984312"><ele>63.0</ele><time>2026-05-03T09:24:33.614Z</time></trkpt><trkpt lat="39.779602" lon="16.3982824"><ele>63.0</ele><time>2026-05-03T09:24:34.611Z</time></trkpt><trkpt lat="39.7794544" lon="16.398135"><ele>63.0</ele><time>2026-05-03T09:24:35.602Z</time></trkpt><trkpt lat="39.7793115" lon="16.3979913"><ele>63.0</ele><time>2026-05-03T09:24:36.622Z</time></trkpt><trkpt lat="39.7791823" lon="16.3978594"><ele>62.5</ele><time>2026-05-03T09:24:37.618Z</time></trkpt><trkpt lat="39.7790677" lon="16.3977431"><ele>62.0</ele><time>2026-05-03T09:24:38.617Z</time></trkpt><trkpt lat="39.7789681" lon="16.3976416"><ele>61.5</ele><time>2026-05-03T09:24:39.616Z</time></trkpt><trkpt lat="39.778882" lon="16.39755"><ele>61.0</ele><time>2026-05-03T09:24:40.625Z</time></trkpt><trkpt lat="39.7788157" lon="16.3974678"><ele>61.0</ele><time>2026-05-03T09:24:41.622Z</time></trkpt><trkpt lat="39.7787651" lon="16.3973733"><ele>60.99999999999999</ele><time>2026-05-03T09:24:42.617Z</time></trkpt><trkpt lat="39.7787254" lon="16.3972634"><ele>60.99999999999999</ele><time>2026-05-03T09:24:43.612Z</time></trkpt><trkpt lat="39.7786963" lon="16.3971354"><ele>61.0</ele><time>2026-05-03T09:24:44.614Z</time></trkpt><trkpt lat="39.7786841" lon="16.3969933"><ele>61.0</ele><time>2026-05-03T09:24:45.607Z</time></trkpt><trkpt lat="39.7786882" lon="16.3968324"><ele>60.75</ele><time>2026-05-03T09:24:46.604Z</time></trkpt><trkpt lat="39.7786969" lon="16.3966626"><ele>60.5</ele><time>2026-05-03T09:24:47.601Z</time></trkpt><trkpt lat="39.7787062" lon="16.396483"><ele>60.25</ele><time>2026-05-03T09:24:48.624Z</time></trkpt><trkpt lat="39.778714" lon="16.3962906"><ele>60.0</ele><time>2026-05-03T09:24:49.598Z</time></trkpt><trkpt lat="39.7787232" lon="16.3960934"><ele>60.0</ele><time>2026-05-03T09:24:50.617Z</time></trkpt><trkpt lat="39.7787318" lon="16.3958936"><ele>60.0</ele><time>2026-05-03T09:24:51.615Z</time></trkpt><trkpt lat="39.7787463" lon="16.3956901"><ele>60.0</ele><time>2026-05-03T09:24:52.622Z</time></trkpt><trkpt lat="39.7787608" lon="16.3954904"><ele>60.33333333333333</ele><time>2026-05-03T09:24:53.61Z</time></trkpt><trkpt lat="39.7787738" lon="16.3952957"><ele>60.666666666666664</ele><time>2026-05-03T09:24:54.625Z</time></trkpt><trkpt lat="39.7787758" lon="16.395094"><ele>61.0</ele><time>2026-05-03T09:24:55.617Z</time></trkpt><trkpt lat="39.7787724" lon="16.3948855"><ele>61.0</ele><time>2026-05-03T09:24:56.621Z</time></trkpt><trkpt lat="39.7787588" lon="16.3946776"><ele>61.0</ele><time>2026-05-03T09:24:57.609Z</time></trkpt><trkpt lat="39.778739" lon="16.3944806"><ele>61.0</ele><time>2026-05-03T09:24:58.63Z</time></trkpt><trkpt lat="39.7787135" lon="16.3942999"><ele>60.75</ele><time>2026-05-03T09:24:59.62Z</time></trkpt><trkpt lat="39.7786835" lon="16.3941342"><ele>60.5</ele><time>2026-05-03T09:25:00.622Z</time></trkpt><trkpt lat="39.7786461" lon="16.3939739"><ele>60.25</ele><time>2026-05-03T09:25:01.623Z</time></trkpt><trkpt lat="39.7785888" lon="16.393811"><ele>60.0</ele><time>2026-05-03T09:25:02.621Z</time></trkpt><trkpt lat="39.7785088" lon="16.3936457"><ele>59.66666666666667</ele><time>2026-05-03T09:25:03.619Z</time></trkpt><trkpt lat="39.778408" lon="16.3934815"><ele>59.333333333333336</ele><time>2026-05-03T09:25:04.607Z</time></trkpt><trkpt lat="39.7782983" lon="16.3933188"><ele>59.0</ele><time>2026-05-03T09:25:05.613Z</time></trkpt><trkpt lat="39.778184" lon="16.3931506"><ele>59.0</ele><time>2026-05-03T09:25:06.625Z</time></trkpt><trkpt lat="39.7780694" lon="16.392977"><ele>59.0</ele><time>2026-05-03T09:25:07.614Z</time></trkpt><trkpt lat="39.7779552" lon="16.3928037"><ele>59.0</ele><time>2026-05-03T09:25:08.627Z</time></trkpt><trkpt lat="39.7778371" lon="16.3926267"><ele>59.0</ele><time>2026-05-03T09:25:09.618Z</time></trkpt><trkpt lat="39.7777147" lon="16.3924504"><ele>59.0</ele><time>2026-05-03T09:25:10.617Z</time></trkpt><trkpt lat="39.7775914" lon="16.3922681"><ele>59.0</ele><time>2026-05-03T09:25:11.609Z</time></trkpt><trkpt lat="39.7774677" lon="16.3920857"><ele>59.0</ele><time>2026-05-03T09:25:12.612Z</time></trkpt><trkpt lat="39.7773465" lon="16.3919"><ele>59.0</ele><time>2026-05-03T09:25:13.599Z</time></trkpt><trkpt lat="39.7772235" lon="16.3917197"><ele>59.0</ele><time>2026-05-03T09:25:14.614Z</time></trkpt><trkpt lat="39.777099" lon="16.3915369"><ele>59.0</ele><time>2026-05-03T09:25:15.61Z</time></trkpt><trkpt lat="39.7769868" lon="16.3913663"><ele>59.0</ele><time>2026-05-03T09:25:16.623Z</time></trkpt><trkpt lat="39.7768829" lon="16.391217"><ele>59.0</ele><time>2026-05-03T09:25:17.614Z</time></trkpt><trkpt lat="39.7767801" lon="16.391079"><ele>59.0</ele><time>2026-05-03T09:25:18.632Z</time></trkpt><trkpt lat="39.7766619" lon="16.3909524"><ele>59.0</ele><time>2026-05-03T09:25:19.613Z</time></trkpt><trkpt lat="39.7765279" lon="16.3908505"><ele>59.0</ele><time>2026-05-03T09:25:20.626Z</time></trkpt><trkpt lat="39.776388" lon="16.3907661"><ele>59.0</ele><time>2026-05-03T09:25:21.611Z</time></trkpt><trkpt lat="39.7762608" lon="16.3906886"><ele>59.0</ele><time>2026-05-03T09:25:22.638Z</time></trkpt><trkpt lat="39.7761418" lon="16.3906224"><ele>59.0</ele><time>2026-05-03T09:25:23.622Z</time></trkpt><trkpt lat="39.7760344" lon="16.3905532"><ele>59.0</ele><time>2026-05-03T09:25:24.605Z</time></trkpt><trkpt lat="39.7759314" lon="16.3904676"><ele>59.25</ele><time>2026-05-03T09:25:25.596Z</time></trkpt><trkpt lat="39.7758291" lon="16.390363"><ele>59.5</ele><time>2026-05-03T09:25:26.615Z</time></trkpt><trkpt lat="39.7757255" lon="16.390247"><ele>59.75</ele><time>2026-05-03T09:25:27.613Z</time></trkpt><trkpt lat="39.7756131" lon="16.3901137"><ele>60.0</ele><time>2026-05-03T09:25:28.615Z</time></trkpt><trkpt lat="39.775499" lon="16.3899763"><ele>60.0</ele><time>2026-05-03T09:25:29.617Z</time></trkpt><trkpt lat="39.775378" lon="16.38983"><ele>60.0</ele><time>2026-05-03T09:25:30.623Z</time></trkpt><trkpt lat="39.7752562" lon="16.3896824"><ele>60.0</ele><time>2026-05-03T09:25:31.608Z</time></trkpt><trkpt lat="39.775128" lon="16.389528"><ele>59.66666666666667</ele><time>2026-05-03T09:25:32.607Z</time></trkpt><trkpt lat="39.774995" lon="16.3893668"><ele>59.333333333333336</ele><time>2026-05-03T09:25:33.603Z</time></trkpt><trkpt lat="39.7748598" lon="16.3892032"><ele>59.0</ele><time>2026-05-03T09:25:34.628Z</time></trkpt><trkpt lat="39.7747331" lon="16.3890462"><ele>59.0</ele><time>2026-05-03T09:25:35.615Z</time></trkpt><trkpt lat="39.7746172" lon="16.3889111"><ele>59.0</ele><time>2026-05-03T09:25:36.613Z</time></trkpt><trkpt lat="39.7745129" lon="16.3887919"><ele>59.0</ele><time>2026-05-03T09:25:37.609Z</time></trkpt><trkpt lat="39.7744228" lon="16.3886914"><ele>59.0</ele><time>2026-05-03T09:25:38.627Z</time></trkpt><trkpt lat="39.7743478" lon="16.3886017"><ele>58.2</ele><time>2026-05-03T09:25:39.61Z</time></trkpt><trkpt lat="39.7742868" lon="16.3885066"><ele>57.400000000000006</ele><time>2026-05-03T09:25:40.617Z</time></trkpt><trkpt lat="39.7742381" lon="16.3884053"><ele>56.6</ele><time>2026-05-03T09:25:41.615Z</time></trkpt><trkpt lat="39.77422" lon="16.3882805"><ele>55.8</ele><time>2026-05-03T09:25:42.627Z</time></trkpt><trkpt lat="39.7742247" lon="16.3881458"><ele>55.0</ele><time>2026-05-03T09:25:43.623Z</time></trkpt><trkpt lat="39.7742409" lon="16.3880035"><ele>54.75</ele><time>2026-05-03T09:25:44.618Z</time></trkpt><trkpt lat="39.774257" lon="16.3878411"><ele>54.5</ele><time>2026-05-03T09:25:45.619Z</time></trkpt><trkpt lat="39.7742761" lon="16.3876822"><ele>54.25</ele><time>2026-05-03T09:25:46.617Z</time></trkpt><trkpt lat="39.774299" lon="16.3875384"><ele>54.0</ele><time>2026-05-03T09:25:47.607Z</time></trkpt><trkpt lat="39.7743133" lon="16.3874133"><ele>54.0</ele><time>2026-05-03T09:25:48.615Z</time></trkpt><trkpt lat="39.7743031" lon="16.3872889"><ele>54.00000000000001</ele><time>2026-05-03T09:25:49.616Z</time></trkpt><trkpt lat="39.7742559" lon="16.3871831"><ele>54.00000000000001</ele><time>2026-05-03T09:25:50.63Z</time></trkpt><trkpt lat="39.7741705" lon="16.3870913"><ele>54.0</ele><time>2026-05-03T09:25:51.608Z</time></trkpt><trkpt lat="39.7740649" lon="16.3870405"><ele>54.0</ele><time>2026-05-03T09:25:52.614Z</time></trkpt><trkpt lat="39.7739438" lon="16.3870186"><ele>53.5</ele><time>2026-05-03T09:25:53.6Z</time></trkpt><trkpt lat="39.7738098" lon="16.3870235"><ele>53.0</ele><time>2026-05-03T09:25:54.624Z</time></trkpt><trkpt lat="39.7736801" lon="16.3870592"><ele>52.5</ele><time>2026-05-03T09:25:55.61Z</time></trkpt><trkpt lat="39.7735609" lon="16.3871295"><ele>52.0</ele><time>2026-05-03T09:25:56.613Z</time></trkpt><trkpt lat="39.7734603" lon="16.3872255"><ele>52.0</ele><time>2026-05-03T09:25:57.607Z</time></trkpt><trkpt lat="39.7733779" lon="16.3873335"><ele>52.0</ele><time>2026-05-03T09:25:58.617Z</time></trkpt><trkpt lat="39.773297" lon="16.3874193"><ele>52.0</ele><time>2026-05-03T09:25:59.618Z</time></trkpt><trkpt lat="39.773205" lon="16.3874682"><ele>52.0</ele><time>2026-05-03T09:26:00.619Z</time></trkpt><trkpt lat="39.7731068" lon="16.3874772"><ele>52.0</ele><time>2026-05-03T09:26:01.599Z</time></trkpt><trkpt lat="39.7730003" lon="16.3874335"><ele>52.0</ele><time>2026-05-03T09:26:02.624Z</time></trkpt><trkpt lat="39.7728846" lon="16.3873711"><ele>52.0</ele><time>2026-05-03T09:26:03.62Z</time></trkpt><trkpt lat="39.7727587" lon="16.3872992"><ele>52.0</ele><time>2026-05-03T09:26:04.613Z</time></trkpt><trkpt lat="39.7726227" lon="16.3872204"><ele>52.0</ele><time>2026-05-03T09:26:05.617Z</time></trkpt><trkpt lat="39.7724849" lon="16.3871307"><ele>53.0</ele><time>2026-05-03T09:26:06.629Z</time></trkpt><trkpt lat="39.77235" lon="16.3870438"><ele>54.0</ele><time>2026-05-03T09:26:07.616Z</time></trkpt><trkpt lat="39.7722147" lon="16.3869624"><ele>55.0</ele><time>2026-05-03T09:26:08.622Z</time></trkpt><trkpt lat="39.7720784" lon="16.3868789"><ele>55.0</ele><time>2026-05-03T09:26:09.627Z</time></trkpt><trkpt lat="39.7719402" lon="16.3867952"><ele>55.0</ele><time>2026-05-03T09:26:10.625Z</time></trkpt><trkpt lat="39.7717974" lon="16.3867067"><ele>55.0</ele><time>2026-05-03T09:26:11.608Z</time></trkpt><trkpt lat="39.7716486" lon="16.3866128"><ele>54.33333333333333</ele><time>2026-05-03T09:26:12.628Z</time></trkpt><trkpt lat="39.7715007" lon="16.3865158"><ele>53.66666666666667</ele><time>2026-05-03T09:26:13.629Z</time></trkpt><trkpt lat="39.7713452" lon="16.3864222"><ele>53.0</ele><time>2026-05-03T09:26:14.623Z</time></trkpt><trkpt lat="39.7711894" lon="16.3863278"><ele>53.0</ele><time>2026-05-03T09:26:15.629Z</time></trkpt><trkpt lat="39.7710331" lon="16.3862278"><ele>53.0</ele><time>2026-05-03T09:26:16.605Z</time></trkpt><trkpt lat="39.770884" lon="16.3861309"><ele>53.0</ele><time>2026-05-03T09:26:17.623Z</time></trkpt><trkpt lat="39.7707442" lon="16.3860399"><ele>52.25</ele><time>2026-05-03T09:26:18.62Z</time></trkpt><trkpt lat="39.7706117" lon="16.3859568"><ele>51.5</ele><time>2026-05-03T09:26:19.626Z</time></trkpt><trkpt lat="39.7704805" lon="16.3858816"><ele>50.75</ele><time>2026-05-03T09:26:20.617Z</time></trkpt><trkpt lat="39.77034" lon="16.3858263"><ele>50.0</ele><time>2026-05-03T09:26:21.604Z</time></trkpt><trkpt lat="39.7701894" lon="16.3857871"><ele>49.333333333333336</ele><time>2026-05-03T09:26:22.644Z</time></trkpt><trkpt lat="39.7700336" lon="16.385766"><ele>48.66666666666667</ele><time>2026-05-03T09:26:23.63Z</time></trkpt><trkpt lat="39.7698694" lon="16.3857404"><ele>48.0</ele><time>2026-05-03T09:26:24.622Z</time></trkpt><trkpt lat="39.7697072" lon="16.3857073"><ele>48.0</ele><time>2026-05-03T09:26:25.617Z</time></trkpt><trkpt lat="39.7695647" lon="16.3856784"><ele>48.0</ele><time>2026-05-03T09:26:26.613Z</time></trkpt><trkpt lat="39.7694258" lon="16.385646"><ele>48.0</ele><time>2026-05-03T09:26:27.619Z</time></trkpt><trkpt lat="39.7692947" lon="16.3856216"><ele>48.0</ele><time>2026-05-03T09:26:28.61Z</time></trkpt><trkpt lat="39.7691706" lon="16.3856"><ele>48.0</ele><time>2026-05-03T09:26:29.607Z</time></trkpt><trkpt lat="39.769058" lon="16.3855761"><ele>48.0</ele><time>2026-05-03T09:26:30.644Z</time></trkpt><trkpt lat="39.7689524" lon="16.385558"><ele>48.0</ele><time>2026-05-03T09:26:31.616Z</time></trkpt><trkpt lat="39.7688492" lon="16.3855405"><ele>48.0</ele><time>2026-05-03T09:26:32.617Z</time></trkpt><trkpt lat="39.7687471" lon="16.3855212"><ele>48.0</ele><time>2026-05-03T09:26:33.625Z</time></trkpt><trkpt lat="39.7686472" lon="16.3855033"><ele>48.0</ele><time>2026-05-03T09:26:34.631Z</time></trkpt><trkpt lat="39.7685351" lon="16.3854881"><ele>48.0</ele><time>2026-05-03T09:26:35.61Z</time></trkpt><trkpt lat="39.7684146" lon="16.3854671"><ele>48.0</ele><time>2026-05-03T09:26:36.626Z</time></trkpt><trkpt lat="39.7682808" lon="16.3854414"><ele>48.0</ele><time>2026-05-03T09:26:37.623Z</time></trkpt><trkpt lat="39.7681419" lon="16.3854166"><ele>47.25</ele><time>2026-05-03T09:26:38.622Z</time></trkpt><trkpt lat="39.7679966" lon="16.3853938"><ele>46.5</ele><time>2026-05-03T09:26:39.619Z</time></trkpt><trkpt lat="39.7678584" lon="16.3853714"><ele>45.75</ele><time>2026-05-03T09:26:40.626Z</time></trkpt><trkpt lat="39.7677312" lon="16.3853461"><ele>45.0</ele><time>2026-05-03T09:26:41.62Z</time></trkpt><trkpt lat="39.7676167" lon="16.3853278"><ele>44.833333333333336</ele><time>2026-05-03T09:26:42.613Z</time></trkpt><trkpt lat="39.7675232" lon="16.385312"><ele>44.666666666666664</ele><time>2026-05-03T09:26:43.626Z</time></trkpt><trkpt lat="39.7674419" lon="16.3853052"><ele>44.5</ele><time>2026-05-03T09:26:44.635Z</time></trkpt><trkpt lat="39.7673607" lon="16.385297"><ele>44.33333333333333</ele><time>2026-05-03T09:26:45.625Z</time></trkpt><trkpt lat="39.7672847" lon="16.3852831"><ele>44.166666666666664</ele><time>2026-05-03T09:26:46.622Z</time></trkpt><trkpt lat="39.767217" lon="16.3852606"><ele>44.0</ele><time>2026-05-03T09:26:47.616Z</time></trkpt><trkpt lat="39.7671496" lon="16.385239"><ele>44.0</ele><time>2026-05-03T09:26:48.615Z</time></trkpt><trkpt lat="39.7670794" lon="16.3852201"><ele>44.0</ele><time>2026-05-03T09:26:49.617Z</time></trkpt><trkpt lat="39.7670151" lon="16.3851903"><ele>44.0</ele><time>2026-05-03T09:26:50.619Z</time></trkpt><trkpt lat="39.7669226" lon="16.3851078"><ele>44.0</ele><time>2026-05-03T09:26:52.624Z</time></trkpt><trkpt lat="39.7668019" lon="16.3850453"><ele>44.0</ele><time>2026-05-03T09:26:54.637Z</time></trkpt><trkpt lat="39.7667215" lon="16.3850471"><ele>43.800000000000004</ele><time>2026-05-03T09:26:55.623Z</time></trkpt><trkpt lat="39.7666287" lon="16.3850565"><ele>43.6</ele><time>2026-05-03T09:26:56.62Z</time></trkpt><trkpt lat="39.7665214" lon="16.3850595"><ele>43.4</ele><time>2026-05-03T09:26:57.623Z</time></trkpt><trkpt lat="39.7664083" lon="16.385039"><ele>43.2</ele><time>2026-05-03T09:26:58.622Z</time></trkpt><trkpt lat="39.7662851" lon="16.3850013"><ele>43.0</ele><time>2026-05-03T09:26:59.628Z</time></trkpt><trkpt lat="39.7661504" lon="16.3849584"><ele>42.66666666666667</ele><time>2026-05-03T09:27:00.634Z</time></trkpt><trkpt lat="39.7660022" lon="16.384912"><ele>42.333333333333336</ele><time>2026-05-03T09:27:01.619Z</time></trkpt><trkpt lat="39.7658468" lon="16.3848614"><ele>42.0</ele><time>2026-05-03T09:27:02.606Z</time></trkpt><trkpt lat="39.7656909" lon="16.3848047"><ele>42.0</ele><time>2026-05-03T09:27:03.614Z</time></trkpt><trkpt lat="39.7655279" lon="16.3847409"><ele>42.0</ele><time>2026-05-03T09:27:04.622Z</time></trkpt><trkpt lat="39.7653633" lon="16.3846786"><ele>42.0</ele><time>2026-05-03T09:27:05.623Z</time></trkpt><trkpt lat="39.7651987" lon="16.384625"><ele>41.666666666666664</ele><time>2026-05-03T09:27:06.613Z</time></trkpt><trkpt lat="39.7650326" lon="16.3845703"><ele>41.33333333333333</ele><time>2026-05-03T09:27:07.625Z</time></trkpt><trkpt lat="39.764862" lon="16.38452"><ele>41.0</ele><time>2026-05-03T09:27:08.634Z</time></trkpt><trkpt lat="39.7646884" lon="16.3844754"><ele>41.0</ele><time>2026-05-03T09:27:09.626Z</time></trkpt><trkpt lat="39.7645097" lon="16.3844305"><ele>41.0</ele><time>2026-05-03T09:27:10.617Z</time></trkpt><trkpt lat="39.7643291" lon="16.3843867"><ele>41.0</ele><time>2026-05-03T09:27:11.615Z</time></trkpt><trkpt lat="39.7641439" lon="16.3843383"><ele>41.0</ele><time>2026-05-03T09:27:12.627Z</time></trkpt><trkpt lat="39.7639584" lon="16.3842915"><ele>41.0</ele><time>2026-05-03T09:27:13.618Z</time></trkpt><trkpt lat="39.7637721" lon="16.3842454"><ele>41.0</ele><time>2026-05-03T09:27:14.625Z</time></trkpt><trkpt lat="39.7635883" lon="16.3842023"><ele>40.666666666666664</ele><time>2026-05-03T09:27:15.621Z</time></trkpt><trkpt lat="39.763401" lon="16.3841538"><ele>40.333333333333336</ele><time>2026-05-03T09:27:16.623Z</time></trkpt><trkpt lat="39.7632137" lon="16.3841072"><ele>40.0</ele><time>2026-05-03T09:27:17.619Z</time></trkpt><trkpt lat="39.7630294" lon="16.3840595"><ele>40.0</ele><time>2026-05-03T09:27:18.632Z</time></trkpt><trkpt lat="39.7628438" lon="16.3840102"><ele>40.0</ele><time>2026-05-03T09:27:19.62Z</time></trkpt><trkpt lat="39.7626571" lon="16.3839594"><ele>40.0</ele><time>2026-05-03T09:27:20.617Z</time></trkpt><trkpt lat="39.7624709" lon="16.3839076"><ele>39.66666666666667</ele><time>2026-05-03T09:27:21.622Z</time></trkpt><trkpt lat="39.7622839" lon="16.3838591"><ele>39.333333333333336</ele><time>2026-05-03T09:27:22.613Z</time></trkpt><trkpt lat="39.7620926" lon="16.3838141"><ele>39.0</ele><time>2026-05-03T09:27:23.623Z</time></trkpt><trkpt lat="39.7618993" lon="16.3837679"><ele>38.666666666666664</ele><time>2026-05-03T09:27:24.619Z</time></trkpt><trkpt lat="39.7617067" lon="16.3837113"><ele>38.33333333333333</ele><time>2026-05-03T09:27:25.623Z</time></trkpt><trkpt lat="39.7615151" lon="16.3836532"><ele>38.0</ele><time>2026-05-03T09:27:26.617Z</time></trkpt><trkpt lat="39.7613274" lon="16.3836006"><ele>38.0</ele><time>2026-05-03T09:27:27.615Z</time></trkpt><trkpt lat="39.7611405" lon="16.3835515"><ele>38.0</ele><time>2026-05-03T09:27:28.62Z</time></trkpt><trkpt lat="39.7609547" lon="16.3834982"><ele>38.0</ele><time>2026-05-03T09:27:29.625Z</time></trkpt><trkpt lat="39.7607723" lon="16.3834311"><ele>38.33333333333333</ele><time>2026-05-03T09:27:30.624Z</time></trkpt><trkpt lat="39.7605998" lon="16.3833554"><ele>38.666666666666664</ele><time>2026-05-03T09:27:31.608Z</time></trkpt><trkpt lat="39.7604277" lon="16.3832736"><ele>39.0</ele><time>2026-05-03T09:27:32.619Z</time></trkpt><trkpt lat="39.760255" lon="16.3831863"><ele>39.0</ele><time>2026-05-03T09:27:33.636Z</time></trkpt><trkpt lat="39.7600837" lon="16.3830958"><ele>39.0</ele><time>2026-05-03T09:27:34.62Z</time></trkpt><trkpt lat="39.7599104" lon="16.3830051"><ele>39.0</ele><time>2026-05-03T09:27:35.635Z</time></trkpt><trkpt lat="39.7597362" lon="16.3829171"><ele>39.0</ele><time>2026-05-03T09:27:36.631Z</time></trkpt><trkpt lat="39.7595634" lon="16.3828274"><ele>39.0</ele><time>2026-05-03T09:27:37.627Z</time></trkpt><trkpt lat="39.7593936" lon="16.3827414"><ele>39.0</ele><time>2026-05-03T09:27:38.633Z</time></trkpt><trkpt lat="39.7592209" lon="16.382653"><ele>38.333333333333336</ele><time>2026-05-03T09:27:39.612Z</time></trkpt><trkpt lat="39.7590513" lon="16.3825665"><ele>37.66666666666667</ele><time>2026-05-03T09:27:40.628Z</time></trkpt><trkpt lat="39.7588949" lon="16.3824835"><ele>37.0</ele><time>2026-05-03T09:27:41.625Z</time></trkpt><trkpt lat="39.7587524" lon="16.3824126"><ele>37.0</ele><time>2026-05-03T09:27:42.611Z</time></trkpt><trkpt lat="39.7586325" lon="16.3823531"><ele>37.0</ele><time>2026-05-03T09:27:43.632Z</time></trkpt><trkpt lat="39.7585341" lon="16.3822996"><ele>37.0</ele><time>2026-05-03T09:27:44.614Z</time></trkpt><trkpt lat="39.7584638" lon="16.3822559"><ele>37.0</ele><time>2026-05-03T09:27:45.612Z</time></trkpt><trkpt lat="39.7583783" lon="16.3821464"><ele>37.0</ele><time>2026-05-03T09:27:47.618Z</time></trkpt><trkpt lat="39.758346" lon="16.3820696"><ele>37.2</ele><time>2026-05-03T09:27:48.624Z</time></trkpt><trkpt lat="39.7583181" lon="16.3819904"><ele>37.400000000000006</ele><time>2026-05-03T09:27:49.617Z</time></trkpt><trkpt lat="39.7582859" lon="16.3818946"><ele>37.599999999999994</ele><time>2026-05-03T09:27:50.629Z</time></trkpt><trkpt lat="39.7582522" lon="16.3817755"><ele>37.8</ele><time>2026-05-03T09:27:51.609Z</time></trkpt><trkpt lat="39.7582239" lon="16.38164"><ele>38.0</ele><time>2026-05-03T09:27:52.625Z</time></trkpt><trkpt lat="39.758191" lon="16.3814875"><ele>38.5</ele><time>2026-05-03T09:27:53.624Z</time></trkpt><trkpt lat="39.7581604" lon="16.3813264"><ele>39.0</ele><time>2026-05-03T09:27:54.626Z</time></trkpt><trkpt lat="39.7581289" lon="16.3811559"><ele>39.5</ele><time>2026-05-03T09:27:55.611Z</time></trkpt><trkpt lat="39.7580956" lon="16.3809854"><ele>40.0</ele><time>2026-05-03T09:27:56.601Z</time></trkpt><trkpt lat="39.7580562" lon="16.3808196"><ele>40.0</ele><time>2026-05-03T09:27:57.607Z</time></trkpt><trkpt lat="39.7580042" lon="16.3806612"><ele>40.0</ele><time>2026-05-03T09:27:58.616Z</time></trkpt><trkpt lat="39.7579258" lon="16.3805134"><ele>40.0</ele><time>2026-05-03T09:27:59.621Z</time></trkpt><trkpt lat="39.757821" lon="16.3803746"><ele>40.0</ele><time>2026-05-03T09:28:00.618Z</time></trkpt><trkpt lat="39.7577021" lon="16.3802455"><ele>39.333333333333336</ele><time>2026-05-03T09:28:01.617Z</time></trkpt><trkpt lat="39.7575771" lon="16.3801127"><ele>38.666666666666664</ele><time>2026-05-03T09:28:02.621Z</time></trkpt><trkpt lat="39.7574492" lon="16.3799723"><ele>38.0</ele><time>2026-05-03T09:28:03.623Z</time></trkpt><trkpt lat="39.7573251" lon="16.3798366"><ele>38.0</ele><time>2026-05-03T09:28:04.631Z</time></trkpt><trkpt lat="39.7572077" lon="16.3797069"><ele>38.0</ele><time>2026-05-03T09:28:05.615Z</time></trkpt><trkpt lat="39.757089" lon="16.3795804"><ele>38.0</ele><time>2026-05-03T09:28:06.627Z</time></trkpt><trkpt lat="39.7569704" lon="16.3794553"><ele>37.33333333333333</ele><time>2026-05-03T09:28:07.615Z</time></trkpt><trkpt lat="39.7568519" lon="16.3793271"><ele>36.666666666666664</ele><time>2026-05-03T09:28:08.629Z</time></trkpt><trkpt lat="39.7567346" lon="16.3792058"><ele>36.0</ele><time>2026-05-03T09:28:09.617Z</time></trkpt><trkpt lat="39.7566095" lon="16.3790974"><ele>36.0</ele><time>2026-05-03T09:28:10.627Z</time></trkpt><trkpt lat="39.7564814" lon="16.3790012"><ele>36.0</ele><time>2026-05-03T09:28:11.62Z</time></trkpt><trkpt lat="39.7563566" lon="16.3789193"><ele>36.0</ele><time>2026-05-03T09:28:12.624Z</time></trkpt><trkpt lat="39.7562344" lon="16.3788482"><ele>36.0</ele><time>2026-05-03T09:28:13.619Z</time></trkpt><trkpt lat="39.7561101" lon="16.3787729"><ele>36.75</ele><time>2026-05-03T09:28:14.617Z</time></trkpt><trkpt lat="39.7559815" lon="16.3786945"><ele>37.5</ele><time>2026-05-03T09:28:15.622Z</time></trkpt><trkpt lat="39.7558492" lon="16.378614"><ele>38.25</ele><time>2026-05-03T09:28:16.629Z</time></trkpt><trkpt lat="39.7557164" lon="16.3785305"><ele>39.0</ele><time>2026-05-03T09:28:17.613Z</time></trkpt><trkpt lat="39.7555768" lon="16.378443"><ele>39.0</ele><time>2026-05-03T09:28:18.618Z</time></trkpt><trkpt lat="39.7554361" lon="16.3783578"><ele>39.0</ele><time>2026-05-03T09:28:19.615Z</time></trkpt><trkpt lat="39.7552892" lon="16.3782701"><ele>39.0</ele><time>2026-05-03T09:28:20.635Z</time></trkpt><trkpt lat="39.7551413" lon="16.3781825"><ele>38.666666666666664</ele><time>2026-05-03T09:28:21.61Z</time></trkpt><trkpt lat="39.7549899" lon="16.3780937"><ele>38.33333333333333</ele><time>2026-05-03T09:28:22.626Z</time></trkpt><trkpt lat="39.7548412" lon="16.3780117"><ele>38.0</ele><time>2026-05-03T09:28:23.626Z</time></trkpt><trkpt lat="39.7546948" lon="16.3779268"><ele>38.0</ele><time>2026-05-03T09:28:24.619Z</time></trkpt><trkpt lat="39.7545519" lon="16.3778392"><ele>38.0</ele><time>2026-05-03T09:28:25.631Z</time></trkpt><trkpt lat="39.7544137" lon="16.37775"><ele>38.0</ele><time>2026-05-03T09:28:26.627Z</time></trkpt><trkpt lat="39.7542754" lon="16.3776653"><ele>37.75</ele><time>2026-05-03T09:28:27.621Z</time></trkpt><trkpt lat="39.7541437" lon="16.377587"><ele>37.5</ele><time>2026-05-03T09:28:28.631Z</time></trkpt><trkpt lat="39.7540218" lon="16.3775119"><ele>37.25</ele><time>2026-05-03T09:28:29.633Z</time></trkpt><trkpt lat="39.7538985" lon="16.3774237"><ele>37.0</ele><time>2026-05-03T09:28:30.617Z</time></trkpt><trkpt lat="39.7537797" lon="16.3773192"><ele>37.0</ele><time>2026-05-03T09:28:31.643Z</time></trkpt><trkpt lat="39.7536674" lon="16.3772107"><ele>37.0</ele><time>2026-05-03T09:28:32.611Z</time></trkpt><trkpt lat="39.7535547" lon="16.377086"><ele>37.0</ele><time>2026-05-03T09:28:33.606Z</time></trkpt><trkpt lat="39.7534429" lon="16.3769593"><ele>37.0</ele><time>2026-05-03T09:28:34.594Z</time></trkpt><trkpt lat="39.75333" lon="16.3768316"><ele>36.333333333333336</ele><time>2026-05-03T09:28:35.612Z</time></trkpt><trkpt lat="39.7532216" lon="16.3766965"><ele>35.666666666666664</ele><time>2026-05-03T09:28:36.615Z</time></trkpt><trkpt lat="39.7531146" lon="16.3765529"><ele>35.0</ele><time>2026-05-03T09:28:37.614Z</time></trkpt><trkpt lat="39.7530078" lon="16.3764061"><ele>35.666666666666664</ele><time>2026-05-03T09:28:38.624Z</time></trkpt><trkpt lat="39.7529005" lon="16.3762559"><ele>36.333333333333336</ele><time>2026-05-03T09:28:39.639Z</time></trkpt><trkpt lat="39.7527886" lon="16.3760983"><ele>37.0</ele><time>2026-05-03T09:28:40.622Z</time></trkpt><trkpt lat="39.7526766" lon="16.3759386"><ele>37.0</ele><time>2026-05-03T09:28:41.608Z</time></trkpt><trkpt lat="39.7525653" lon="16.37578"><ele>37.0</ele><time>2026-05-03T09:28:42.624Z</time></trkpt><trkpt lat="39.7524533" lon="16.3756171"><ele>37.0</ele><time>2026-05-03T09:28:43.609Z</time></trkpt><trkpt lat="39.7523401" lon="16.3754544"><ele>37.0</ele><time>2026-05-03T09:28:44.62Z</time></trkpt><trkpt lat="39.7522259" lon="16.3752864"><ele>37.0</ele><time>2026-05-03T09:28:45.621Z</time></trkpt><trkpt lat="39.7521112" lon="16.3751211"><ele>37.0</ele><time>2026-05-03T09:28:46.627Z</time></trkpt><trkpt lat="39.7519973" lon="16.3749529"><ele>37.0</ele><time>2026-05-03T09:28:47.619Z</time></trkpt><trkpt lat="39.7518793" lon="16.374787"><ele>37.0</ele><time>2026-05-03T09:28:48.64Z</time></trkpt><trkpt lat="39.7517633" lon="16.3746249"><ele>37.0</ele><time>2026-05-03T09:28:49.61Z</time></trkpt><trkpt lat="39.7516553" lon="16.3744654"><ele>36.5</ele><time>2026-05-03T09:28:50.628Z</time></trkpt><trkpt lat="39.7515545" lon="16.3743165"><ele>36.0</ele><time>2026-05-03T09:28:51.617Z</time></trkpt><trkpt lat="39.7514623" lon="16.3741758"><ele>35.5</ele><time>2026-05-03T09:28:52.63Z</time></trkpt><trkpt lat="39.7513777" lon="16.3740532"><ele>35.0</ele><time>2026-05-03T09:28:53.634Z</time></trkpt><trkpt lat="39.7512973" lon="16.3739362"><ele>35.2</ele><time>2026-05-03T09:28:54.623Z</time></trkpt><trkpt lat="39.7512318" lon="16.3738239"><ele>35.4</ele><time>2026-05-03T09:28:55.619Z</time></trkpt><trkpt lat="39.7511899" lon="16.3737032"><ele>35.6</ele><time>2026-05-03T09:28:56.607Z</time></trkpt><trkpt lat="39.7511789" lon="16.373569"><ele>35.8</ele><time>2026-05-03T09:28:57.629Z</time></trkpt><trkpt lat="39.7512075" lon="16.3734198"><ele>36.0</ele><time>2026-05-03T09:28:58.627Z</time></trkpt><trkpt lat="39.7512666" lon="16.3732653"><ele>36.0</ele><time>2026-05-03T09:28:59.612Z</time></trkpt><trkpt lat="39.7513338" lon="16.3731038"><ele>36.0</ele><time>2026-05-03T09:29:00.623Z</time></trkpt><trkpt lat="39.7514072" lon="16.3729368"><ele>36.0</ele><time>2026-05-03T09:29:01.626Z</time></trkpt><trkpt lat="39.751464" lon="16.3727718"><ele>36.0</ele><time>2026-05-03T09:29:02.611Z</time></trkpt><trkpt lat="39.7515026" lon="16.3726137"><ele>35.5</ele><time>2026-05-03T09:29:03.615Z</time></trkpt><trkpt lat="39.751519" lon="16.3724527"><ele>35.0</ele><time>2026-05-03T09:29:04.619Z</time></trkpt><trkpt lat="39.7515169" lon="16.3722819"><ele>34.5</ele><time>2026-05-03T09:29:05.612Z</time></trkpt><trkpt lat="39.7514969" lon="16.3721054"><ele>34.0</ele><time>2026-05-03T09:29:06.621Z</time></trkpt><trkpt lat="39.7514743" lon="16.3719211"><ele>33.8</ele><time>2026-05-03T09:29:07.621Z</time></trkpt><trkpt lat="39.751456" lon="16.3717553"><ele>33.599999999999994</ele><time>2026-05-03T09:29:08.623Z</time></trkpt><trkpt lat="39.7514257" lon="16.371625"><ele>33.4</ele><time>2026-05-03T09:29:09.617Z</time></trkpt><trkpt lat="39.7513681" lon="16.3715214"><ele>33.199999999999996</ele><time>2026-05-03T09:29:10.63Z</time></trkpt><trkpt lat="39.7512855" lon="16.3714439"><ele>33.0</ele><time>2026-05-03T09:29:11.621Z</time></trkpt><trkpt lat="39.7511788" lon="16.371393"><ele>33.0</ele><time>2026-05-03T09:29:12.619Z</time></trkpt><trkpt lat="39.7510568" lon="16.3713625"><ele>33.0</ele><time>2026-05-03T09:29:13.626Z</time></trkpt><trkpt lat="39.7509219" lon="16.3713589"><ele>33.0</ele><time>2026-05-03T09:29:14.622Z</time></trkpt><trkpt lat="39.7507764" lon="16.3713545"><ele>33.0</ele><time>2026-05-03T09:29:15.621Z</time></trkpt><trkpt lat="39.7506163" lon="16.3713281"><ele>31.0</ele><time>2026-05-03T09:29:16.623Z</time></trkpt><trkpt lat="39.7504498" lon="16.3712952"><ele>29.0</ele><time>2026-05-03T09:29:17.614Z</time></trkpt><trkpt lat="39.7502748" lon="16.3712687"><ele>27.0</ele><time>2026-05-03T09:29:18.628Z</time></trkpt><trkpt lat="39.7500924" lon="16.3712407"><ele>26.666666666666664</ele><time>2026-05-03T09:29:19.612Z</time></trkpt><trkpt lat="39.7499072" lon="16.3712155"><ele>26.333333333333332</ele><time>2026-05-03T09:29:20.611Z</time></trkpt><trkpt lat="39.7497137" lon="16.3711822"><ele>26.0</ele><time>2026-05-03T09:29:21.618Z</time></trkpt><trkpt lat="39.7495183" lon="16.3711551"><ele>26.333333333333332</ele><time>2026-05-03T09:29:22.62Z</time></trkpt><trkpt lat="39.7493265" lon="16.3711278"><ele>26.666666666666664</ele><time>2026-05-03T09:29:23.618Z</time></trkpt><trkpt lat="39.7491463" lon="16.3711014"><ele>27.0</ele><time>2026-05-03T09:29:24.611Z</time></trkpt><trkpt lat="39.7489729" lon="16.3710777"><ele>27.0</ele><time>2026-05-03T09:29:25.613Z</time></trkpt><trkpt lat="39.7488108" lon="16.3710543"><ele>27.0</ele><time>2026-05-03T09:29:26.617Z</time></trkpt><trkpt lat="39.7486601" lon="16.371029"><ele>27.0</ele><time>2026-05-03T09:29:27.607Z</time></trkpt><trkpt lat="39.7485235" lon="16.3710009"><ele>27.25</ele><time>2026-05-03T09:29:28.629Z</time></trkpt><trkpt lat="39.7484025" lon="16.370961"><ele>27.5</ele><time>2026-05-03T09:29:29.611Z</time></trkpt><trkpt lat="39.7482822" lon="16.370904"><ele>27.75</ele><time>2026-05-03T09:29:30.634Z</time></trkpt><trkpt lat="39.7481583" lon="16.3708327"><ele>28.0</ele><time>2026-05-03T09:29:31.623Z</time></trkpt><trkpt lat="39.7480301" lon="16.3707511"><ele>28.0</ele><time>2026-05-03T09:29:32.618Z</time></trkpt><trkpt lat="39.7478985" lon="16.3706611"><ele>28.0</ele><time>2026-05-03T09:29:33.613Z</time></trkpt><trkpt lat="39.7477597" lon="16.3705739"><ele>28.0</ele><time>2026-05-03T09:29:34.626Z</time></trkpt><trkpt lat="39.7476148" lon="16.3704817"><ele>28.0</ele><time>2026-05-03T09:29:35.631Z</time></trkpt><trkpt lat="39.7474658" lon="16.3703886"><ele>28.0</ele><time>2026-05-03T09:29:36.623Z</time></trkpt><trkpt lat="39.7473117" lon="16.3702871"><ele>28.0</ele><time>2026-05-03T09:29:37.611Z</time></trkpt><trkpt lat="39.7471537" lon="16.3701785"><ele>28.0</ele><time>2026-05-03T09:29:38.619Z</time></trkpt><trkpt lat="39.7469908" lon="16.370077"><ele>28.0</ele><time>2026-05-03T09:29:39.623Z</time></trkpt><trkpt lat="39.7468233" lon="16.3699724"><ele>28.0</ele><time>2026-05-03T09:29:40.621Z</time></trkpt><trkpt lat="39.7466572" lon="16.3698643"><ele>27.333333333333336</ele><time>2026-05-03T09:29:41.618Z</time></trkpt><trkpt lat="39.7464894" lon="16.3697475"><ele>26.666666666666664</ele><time>2026-05-03T09:29:42.631Z</time></trkpt><trkpt lat="39.7463204" lon="16.3696344"><ele>26.0</ele><time>2026-05-03T09:29:43.608Z</time></trkpt><trkpt lat="39.7461509" lon="16.3695216"><ele>25.666666666666664</ele><time>2026-05-03T09:29:44.625Z</time></trkpt><trkpt lat="39.745983" lon="16.3694097"><ele>25.333333333333336</ele><time>2026-05-03T09:29:45.62Z</time></trkpt><trkpt lat="39.7458136" lon="16.3693015"><ele>25.0</ele><time>2026-05-03T09:29:46.612Z</time></trkpt><trkpt lat="39.7456387" lon="16.3692115"><ele>25.0</ele><time>2026-05-03T09:29:47.64Z</time></trkpt><trkpt lat="39.7454639" lon="16.3691384"><ele>25.0</ele><time>2026-05-03T09:29:48.625Z</time></trkpt><trkpt lat="39.7452969" lon="16.3690772"><ele>25.0</ele><time>2026-05-03T09:29:49.614Z</time></trkpt><trkpt lat="39.7451406" lon="16.3690275"><ele>25.25</ele><time>2026-05-03T09:29:50.596Z</time></trkpt><trkpt lat="39.7449937" lon="16.3689768"><ele>25.5</ele><time>2026-05-03T09:29:51.601Z</time></trkpt><trkpt lat="39.7448617" lon="16.3689161"><ele>25.75</ele><time>2026-05-03T09:29:52.613Z</time></trkpt><trkpt lat="39.7447396" lon="16.3688501"><ele>26.0</ele><time>2026-05-03T09:29:53.614Z</time></trkpt><trkpt lat="39.744627" lon="16.368767"><ele>26.25</ele><time>2026-05-03T09:29:54.6Z</time></trkpt><trkpt lat="39.7445206" lon="16.3686522"><ele>26.5</ele><time>2026-05-03T09:29:55.599Z</time></trkpt><trkpt lat="39.7444162" lon="16.3685139"><ele>26.75</ele><time>2026-05-03T09:29:56.611Z</time></trkpt><trkpt lat="39.7443106" lon="16.368373"><ele>27.0</ele><time>2026-05-03T09:29:57.615Z</time></trkpt><trkpt lat="39.744198" lon="16.3682258"><ele>27.0</ele><time>2026-05-03T09:29:58.618Z</time></trkpt><trkpt lat="39.744083" lon="16.3680684"><ele>27.0</ele><time>2026-05-03T09:29:59.637Z</time></trkpt><trkpt lat="39.7439638" lon="16.3679037"><ele>27.0</ele><time>2026-05-03T09:30:00.624Z</time></trkpt><trkpt lat="39.7438435" lon="16.3677329"><ele>27.0</ele><time>2026-05-03T09:30:01.618Z</time></trkpt><trkpt lat="39.7437219" lon="16.3675563"><ele>27.0</ele><time>2026-05-03T09:30:02.631Z</time></trkpt><trkpt lat="39.7436035" lon="16.3673892"><ele>27.0</ele><time>2026-05-03T09:30:03.613Z</time></trkpt><trkpt lat="39.7434941" lon="16.3672279"><ele>28.0</ele><time>2026-05-03T09:30:04.618Z</time></trkpt><trkpt lat="39.7433882" lon="16.3670657"><ele>29.0</ele><time>2026-05-03T09:30:05.614Z</time></trkpt><trkpt lat="39.7432801" lon="16.3668977"><ele>30.0</ele><time>2026-05-03T09:30:06.639Z</time></trkpt><trkpt lat="39.7431689" lon="16.3667389"><ele>30.0</ele><time>2026-05-03T09:30:07.611Z</time></trkpt><trkpt lat="39.7430601" lon="16.3665788"><ele>30.0</ele><time>2026-05-03T09:30:08.611Z</time></trkpt><trkpt lat="39.7429592" lon="16.3664238"><ele>30.0</ele><time>2026-05-03T09:30:09.623Z</time></trkpt><trkpt lat="39.7428626" lon="16.3662887"><ele>29.75</ele><time>2026-05-03T09:30:10.611Z</time></trkpt><trkpt lat="39.7427763" lon="16.3661708"><ele>29.5</ele><time>2026-05-03T09:30:11.613Z</time></trkpt><trkpt lat="39.7426989" lon="16.3660669"><ele>29.25</ele><time>2026-05-03T09:30:12.608Z</time></trkpt><trkpt lat="39.7426106" lon="16.3659872"><ele>29.0</ele><time>2026-05-03T09:30:13.617Z</time></trkpt><trkpt lat="39.7425013" lon="16.3659436"><ele>28.5</ele><time>2026-05-03T09:30:14.615Z</time></trkpt><trkpt lat="39.7423773" lon="16.3659212"><ele>28.0</ele><time>2026-05-03T09:30:15.624Z</time></trkpt><trkpt lat="39.742237" lon="16.3659127"><ele>27.5</ele><time>2026-05-03T09:30:16.614Z</time></trkpt><trkpt lat="39.7420876" lon="16.3659028"><ele>27.0</ele><time>2026-05-03T09:30:17.627Z</time></trkpt><trkpt lat="39.7419285" lon="16.3658864"><ele>27.0</ele><time>2026-05-03T09:30:18.626Z</time></trkpt><trkpt lat="39.7417642" lon="16.3658653"><ele>27.0</ele><time>2026-05-03T09:30:19.618Z</time></trkpt><trkpt lat="39.7415966" lon="16.3658505"><ele>27.0</ele><time>2026-05-03T09:30:20.628Z</time></trkpt><trkpt lat="39.7414218" lon="16.3658388"><ele>27.0</ele><time>2026-05-03T09:30:21.612Z</time></trkpt><trkpt lat="39.7412464" lon="16.3658254"><ele>27.0</ele><time>2026-05-03T09:30:22.632Z</time></trkpt><trkpt lat="39.7410683" lon="16.3658074"><ele>27.0</ele><time>2026-05-03T09:30:23.608Z</time></trkpt><trkpt lat="39.7408868" lon="16.3657952"><ele>26.666666666666664</ele><time>2026-05-03T09:30:24.631Z</time></trkpt><trkpt lat="39.7407042" lon="16.3657821"><ele>26.333333333333332</ele><time>2026-05-03T09:30:25.617Z</time></trkpt><trkpt lat="39.7405223" lon="16.3657672"><ele>26.0</ele><time>2026-05-03T09:30:26.618Z</time></trkpt><trkpt lat="39.7403381" lon="16.3657508"><ele>26.333333333333332</ele><time>2026-05-03T09:30:27.63Z</time></trkpt><trkpt lat="39.7401538" lon="16.3657389"><ele>26.666666666666664</ele><time>2026-05-03T09:30:28.613Z</time></trkpt><trkpt lat="39.7399696" lon="16.3657297"><ele>27.0</ele><time>2026-05-03T09:30:29.615Z</time></trkpt><trkpt lat="39.7397846" lon="16.3657169"><ele>27.0</ele><time>2026-05-03T09:30:30.623Z</time></trkpt><trkpt lat="39.7395993" lon="16.3656996"><ele>27.0</ele><time>2026-05-03T09:30:31.622Z</time></trkpt><trkpt lat="39.7394143" lon="16.3656865"><ele>27.0</ele><time>2026-05-03T09:30:32.619Z</time></trkpt><trkpt lat="39.7392271" lon="16.3656688"><ele>26.666666666666664</ele><time>2026-05-03T09:30:33.61Z</time></trkpt><trkpt lat="39.7390455" lon="16.365643"><ele>26.333333333333332</ele><time>2026-05-03T09:30:34.629Z</time></trkpt><trkpt lat="39.7388645" lon="16.3656067"><ele>26.0</ele><time>2026-05-03T09:30:35.627Z</time></trkpt><trkpt lat="39.7386865" lon="16.3655712"><ele>26.0</ele><time>2026-05-03T09:30:36.611Z</time></trkpt><trkpt lat="39.7385092" lon="16.3655376"><ele>26.0</ele><time>2026-05-03T09:30:37.622Z</time></trkpt><trkpt lat="39.7383291" lon="16.3655035"><ele>26.0</ele><time>2026-05-03T09:30:38.622Z</time></trkpt><trkpt lat="39.738147" lon="16.3654665"><ele>26.0</ele><time>2026-05-03T09:30:39.614Z</time></trkpt><trkpt lat="39.7379712" lon="16.365439"><ele>26.0</ele><time>2026-05-03T09:30:40.617Z</time></trkpt><trkpt lat="39.7378047" lon="16.3654329"><ele>26.0</ele><time>2026-05-03T09:30:41.61Z</time></trkpt><trkpt lat="39.7376488" lon="16.3654507"><ele>25.333333333333332</ele><time>2026-05-03T09:30:42.623Z</time></trkpt><trkpt lat="39.7374979" lon="16.3655041"><ele>24.666666666666664</ele><time>2026-05-03T09:30:43.615Z</time></trkpt><trkpt lat="39.7373457" lon="16.365585"><ele>24.0</ele><time>2026-05-03T09:30:44.614Z</time></trkpt><trkpt lat="39.737195" lon="16.3656852"><ele>24.0</ele><time>2026-05-03T09:30:45.616Z</time></trkpt><trkpt lat="39.7370404" lon="16.3657884"><ele>24.0</ele><time>2026-05-03T09:30:46.626Z</time></trkpt><trkpt lat="39.7368801" lon="16.3658933"><ele>24.0</ele><time>2026-05-03T09:30:47.611Z</time></trkpt><trkpt lat="39.7367207" lon="16.3659967"><ele>24.333333333333336</ele><time>2026-05-03T09:30:48.684Z</time></trkpt><trkpt lat="39.7365559" lon="16.3661047"><ele>24.666666666666668</ele><time>2026-05-03T09:30:49.598Z</time></trkpt><trkpt lat="39.7363879" lon="16.3662077"><ele>25.0</ele><time>2026-05-03T09:30:50.629Z</time></trkpt><trkpt lat="39.7362186" lon="16.3663131"><ele>24.666666666666668</ele><time>2026-05-03T09:30:51.603Z</time></trkpt><trkpt lat="39.7360493" lon="16.3664182"><ele>24.333333333333336</ele><time>2026-05-03T09:30:52.6Z</time></trkpt><trkpt lat="39.7358789" lon="16.3665334"><ele>24.0</ele><time>2026-05-03T09:30:53.605Z</time></trkpt><trkpt lat="39.7357085" lon="16.366646"><ele>24.0</ele><time>2026-05-03T09:30:54.614Z</time></trkpt><trkpt lat="39.7355378" lon="16.3667559"><ele>24.0</ele><time>2026-05-03T09:30:55.607Z</time></trkpt><trkpt lat="39.7353682" lon="16.3668622"><ele>24.0</ele><time>2026-05-03T09:30:56.619Z</time></trkpt><trkpt lat="39.7352001" lon="16.3669697"><ele>24.0</ele><time>2026-05-03T09:30:57.614Z</time></trkpt><trkpt lat="39.7350341" lon="16.3670778"><ele>24.0</ele><time>2026-05-03T09:30:58.624Z</time></trkpt><trkpt lat="39.7348698" lon="16.3671876"><ele>24.0</ele><time>2026-05-03T09:30:59.616Z</time></trkpt><trkpt lat="39.7347015" lon="16.3672938"><ele>23.666666666666668</ele><time>2026-05-03T09:31:00.612Z</time></trkpt><trkpt lat="39.734536" lon="16.3673947"><ele>23.333333333333336</ele><time>2026-05-03T09:31:01.62Z</time></trkpt><trkpt lat="39.7343705" lon="16.3674929"><ele>23.0</ele><time>2026-05-03T09:31:02.621Z</time></trkpt><trkpt lat="39.7342078" lon="16.3676"><ele>23.0</ele><time>2026-05-03T09:31:03.631Z</time></trkpt><trkpt lat="39.734047" lon="16.3677074"><ele>23.0</ele><time>2026-05-03T09:31:04.613Z</time></trkpt><trkpt lat="39.7338828" lon="16.3678071"><ele>23.0</ele><time>2026-05-03T09:31:05.612Z</time></trkpt><trkpt lat="39.7337174" lon="16.3679008"><ele>23.0</ele><time>2026-05-03T09:31:06.6Z</time></trkpt><trkpt lat="39.7335439" lon="16.367979"><ele>23.0</ele><time>2026-05-03T09:31:07.612Z</time></trkpt><trkpt lat="39.7333677" lon="16.3680491"><ele>23.0</ele><time>2026-05-03T09:31:08.617Z</time></trkpt><trkpt lat="39.7331954" lon="16.3681298"><ele>23.0</ele><time>2026-05-03T09:31:09.613Z</time></trkpt><trkpt lat="39.7330198" lon="16.3682153"><ele>23.0</ele><time>2026-05-03T09:31:10.625Z</time></trkpt><trkpt lat="39.7328421" lon="16.3682934"><ele>23.0</ele><time>2026-05-03T09:31:11.615Z</time></trkpt><trkpt lat="39.7326687" lon="16.3683676"><ele>22.666666666666668</ele><time>2026-05-03T09:31:12.627Z</time></trkpt><trkpt lat="39.7325019" lon="16.3684426"><ele>22.333333333333332</ele><time>2026-05-03T09:31:13.627Z</time></trkpt><trkpt lat="39.7323416" lon="16.3685167"><ele>22.0</ele><time>2026-05-03T09:31:14.623Z</time></trkpt><trkpt lat="39.7321898" lon="16.3685897"><ele>22.0</ele><time>2026-05-03T09:31:15.625Z</time></trkpt><trkpt lat="39.7320472" lon="16.3686539"><ele>22.0</ele><time>2026-05-03T09:31:16.627Z</time></trkpt><trkpt lat="39.7319174" lon="16.3687103"><ele>22.0</ele><time>2026-05-03T09:31:17.62Z</time></trkpt><trkpt lat="39.7317998" lon="16.3687667"><ele>22.0</ele><time>2026-05-03T09:31:18.624Z</time></trkpt><trkpt lat="39.7316925" lon="16.3688166"><ele>22.0</ele><time>2026-05-03T09:31:19.614Z</time></trkpt><trkpt lat="39.731597" lon="16.3688596"><ele>22.0</ele><time>2026-05-03T09:31:20.613Z</time></trkpt><trkpt lat="39.7315108" lon="16.3688947"><ele>22.0</ele><time>2026-05-03T09:31:21.622Z</time></trkpt><trkpt lat="39.7314408" lon="16.3689253"><ele>22.0</ele><time>2026-05-03T09:31:22.636Z</time></trkpt><trkpt lat="39.7313427" lon="16.3689426"><ele>22.0</ele><time>2026-05-03T09:31:24.619Z</time></trkpt><trkpt lat="39.7312907" lon="16.3688895"><ele>22.0</ele><time>2026-05-03T09:31:26.619Z</time></trkpt><trkpt lat="39.7312787" lon="16.3687524"><ele>21.8</ele><time>2026-05-03T09:31:28.624Z</time></trkpt><trkpt lat="39.7312824" lon="16.3686634"><ele>21.6</ele><time>2026-05-03T09:31:29.622Z</time></trkpt><trkpt lat="39.7312856" lon="16.3685574"><ele>21.400000000000002</ele><time>2026-05-03T09:31:30.617Z</time></trkpt><trkpt lat="39.7312899" lon="16.3684384"><ele>21.200000000000003</ele><time>2026-05-03T09:31:31.621Z</time></trkpt><trkpt lat="39.7312896" lon="16.368302"><ele>21.0</ele><time>2026-05-03T09:31:32.619Z</time></trkpt><trkpt lat="39.7312913" lon="16.3681555"><ele>21.5</ele><time>2026-05-03T09:31:33.611Z</time></trkpt><trkpt lat="39.7312856" lon="16.3680066"><ele>22.0</ele><time>2026-05-03T09:31:34.615Z</time></trkpt><trkpt lat="39.7312712" lon="16.3678525"><ele>22.5</ele><time>2026-05-03T09:31:35.623Z</time></trkpt><trkpt lat="39.7312505" lon="16.3676996"><ele>23.0</ele><time>2026-05-03T09:31:36.6Z</time></trkpt><trkpt lat="39.7312211" lon="16.3675494"><ele>23.0</ele><time>2026-05-03T09:31:37.629Z</time></trkpt><trkpt lat="39.7311828" lon="16.3674054"><ele>23.0</ele><time>2026-05-03T09:31:38.624Z</time></trkpt><trkpt lat="39.7311313" lon="16.3672562"><ele>23.0</ele><time>2026-05-03T09:31:39.631Z</time></trkpt><trkpt lat="39.7310745" lon="16.3671114"><ele>23.0</ele><time>2026-05-03T09:31:40.621Z</time></trkpt><trkpt lat="39.7310113" lon="16.3669687"><ele>23.25</ele><time>2026-05-03T09:31:41.619Z</time></trkpt><trkpt lat="39.7309523" lon="16.3668256"><ele>23.5</ele><time>2026-05-03T09:31:42.617Z</time></trkpt><trkpt lat="39.7308931" lon="16.36669"><ele>23.75</ele><time>2026-05-03T09:31:43.62Z</time></trkpt><trkpt lat="39.7308308" lon="16.3665636"><ele>24.0</ele><time>2026-05-03T09:31:44.623Z</time></trkpt><trkpt lat="39.7307664" lon="16.3664465"><ele>23.75</ele><time>2026-05-03T09:31:45.611Z</time></trkpt><trkpt lat="39.7307062" lon="16.3663347"><ele>23.5</ele><time>2026-05-03T09:31:46.614Z</time></trkpt><trkpt lat="39.7306432" lon="16.3662168"><ele>23.25</ele><time>2026-05-03T09:31:47.617Z</time></trkpt><trkpt lat="39.7305737" lon="16.3660891"><ele>23.0</ele><time>2026-05-03T09:31:48.631Z</time></trkpt><trkpt lat="39.7305071" lon="16.3659557"><ele>23.0</ele><time>2026-05-03T09:31:49.611Z</time></trkpt><trkpt lat="39.7304429" lon="16.3658269"><ele>23.0</ele><time>2026-05-03T09:31:50.626Z</time></trkpt><trkpt lat="39.7303829" lon="16.3656958"><ele>23.0</ele><time>2026-05-03T09:31:51.627Z</time></trkpt><trkpt lat="39.7303275" lon="16.3655585"><ele>23.0</ele><time>2026-05-03T09:31:52.624Z</time></trkpt><trkpt lat="39.7302802" lon="16.3654091"><ele>23.5</ele><time>2026-05-03T09:31:53.618Z</time></trkpt><trkpt lat="39.7302425" lon="16.3652546"><ele>24.0</ele><time>2026-05-03T09:31:54.631Z</time></trkpt><trkpt lat="39.7302107" lon="16.3650883"><ele>24.5</ele><time>2026-05-03T09:31:55.621Z</time></trkpt><trkpt lat="39.7301842" lon="16.3649148"><ele>25.0</ele><time>2026-05-03T09:31:56.633Z</time></trkpt><trkpt lat="39.7301542" lon="16.3647347"><ele>25.0</ele><time>2026-05-03T09:31:57.629Z</time></trkpt><trkpt lat="39.7301227" lon="16.3645476"><ele>25.0</ele><time>2026-05-03T09:31:58.627Z</time></trkpt><trkpt lat="39.7300914" lon="16.3643548"><ele>25.0</ele><time>2026-05-03T09:31:59.628Z</time></trkpt><trkpt lat="39.730063" lon="16.364163"><ele>25.0</ele><time>2026-05-03T09:32:00.63Z</time></trkpt><trkpt lat="39.7300383" lon="16.3639837"><ele>25.0</ele><time>2026-05-03T09:32:01.606Z</time></trkpt><trkpt lat="39.730013" lon="16.36382"><ele>25.0</ele><time>2026-05-03T09:32:02.627Z</time></trkpt><trkpt lat="39.7299884" lon="16.3636658"><ele>25.0</ele><time>2026-05-03T09:32:03.606Z</time></trkpt><trkpt lat="39.7299641" lon="16.3635085"><ele>25.0</ele><time>2026-05-03T09:32:04.627Z</time></trkpt><trkpt lat="39.7299362" lon="16.3633421"><ele>25.0</ele><time>2026-05-03T09:32:05.618Z</time></trkpt><trkpt lat="39.7299083" lon="16.3631718"><ele>25.0</ele><time>2026-05-03T09:32:06.606Z</time></trkpt><trkpt lat="39.7298787" lon="16.3629962"><ele>25.0</ele><time>2026-05-03T09:32:07.599Z</time></trkpt><trkpt lat="39.7298419" lon="16.3628182"><ele>25.0</ele><time>2026-05-03T09:32:08.625Z</time></trkpt><trkpt lat="39.7298024" lon="16.3626396"><ele>25.25</ele><time>2026-05-03T09:32:09.603Z</time></trkpt><trkpt lat="39.7297602" lon="16.362456"><ele>25.5</ele><time>2026-05-03T09:32:10.623Z</time></trkpt><trkpt lat="39.7297214" lon="16.3622796"><ele>25.75</ele><time>2026-05-03T09:32:11.616Z</time></trkpt><trkpt lat="39.7296858" lon="16.3621155"><ele>26.0</ele><time>2026-05-03T09:32:12.622Z</time></trkpt><trkpt lat="39.7296514" lon="16.3619627"><ele>26.0</ele><time>2026-05-03T09:32:13.622Z</time></trkpt><trkpt lat="39.7296164" lon="16.3618181"><ele>26.0</ele><time>2026-05-03T09:32:14.64Z</time></trkpt><trkpt lat="39.7295912" lon="16.361692"><ele>26.0</ele><time>2026-05-03T09:32:15.623Z</time></trkpt><trkpt lat="39.7295699" lon="16.3615757"><ele>26.0</ele><time>2026-05-03T09:32:16.617Z</time></trkpt><trkpt lat="39.7295465" lon="16.3614672"><ele>26.0</ele><time>2026-05-03T09:32:17.621Z</time></trkpt><trkpt lat="39.7295252" lon="16.3613826"><ele>26.166666666666664</ele><time>2026-05-03T09:32:18.63Z</time></trkpt><trkpt lat="39.7294852" lon="16.3612842"><ele>26.333333333333332</ele><time>2026-05-03T09:32:20.616Z</time></trkpt><trkpt lat="39.7294151" lon="16.3612579"><ele>26.5</ele><time>2026-05-03T09:32:22.617Z</time></trkpt><trkpt lat="39.7293493" lon="16.3613405"><ele>26.666666666666664</ele><time>2026-05-03T09:32:24.609Z</time></trkpt><trkpt lat="39.7292792" lon="16.3614649"><ele>26.833333333333332</ele><time>2026-05-03T09:32:26.62Z</time></trkpt><trkpt lat="39.7292328" lon="16.3615431"><ele>27.0</ele><time>2026-05-03T09:32:27.617Z</time></trkpt><trkpt lat="39.7291774" lon="16.361634"><ele>26.6</ele><time>2026-05-03T09:32:28.616Z</time></trkpt><trkpt lat="39.7291156" lon="16.3617355"><ele>26.200000000000003</ele><time>2026-05-03T09:32:29.622Z</time></trkpt><trkpt lat="39.7290435" lon="16.3618456"><ele>25.8</ele><time>2026-05-03T09:32:30.616Z</time></trkpt><trkpt lat="39.72896" lon="16.361958"><ele>25.4</ele><time>2026-05-03T09:32:31.609Z</time></trkpt><trkpt lat="39.7288753" lon="16.3620554"><ele>25.0</ele><time>2026-05-03T09:32:32.606Z</time></trkpt><trkpt lat="39.7287969" lon="16.3621301"><ele>25.0</ele><time>2026-05-03T09:32:33.621Z</time></trkpt><trkpt lat="39.7287313" lon="16.3621821"><ele>25.0</ele><time>2026-05-03T09:32:34.617Z</time></trkpt><trkpt lat="39.7286432" lon="16.3622625"><ele>25.0</ele><time>2026-05-03T09:32:36.624Z</time></trkpt><trkpt lat="39.7285907" lon="16.362331"><ele>25.0</ele><time>2026-05-03T09:33:58.638Z</time></trkpt><trkpt lat="39.728519" lon="16.3624027"><ele>25.0</ele><time>2026-05-03T09:34:00.62Z</time></trkpt><trkpt lat="39.7284152" lon="16.362499"><ele>24.8</ele><time>2026-05-03T09:34:02.621Z</time></trkpt><trkpt lat="39.7283565" lon="16.3625512"><ele>24.6</ele><time>2026-05-03T09:34:03.621Z</time></trkpt><trkpt lat="39.7282935" lon="16.3626126"><ele>24.4</ele><time>2026-05-03T09:34:04.627Z</time></trkpt><trkpt lat="39.7282181" lon="16.3626746"><ele>24.2</ele><time>2026-05-03T09:34:05.633Z</time></trkpt><trkpt lat="39.7281328" lon="16.3627479"><ele>24.0</ele><time>2026-05-03T09:34:06.615Z</time></trkpt><trkpt lat="39.7280379" lon="16.3628221"><ele>24.0</ele><time>2026-05-03T09:34:07.613Z</time></trkpt><trkpt lat="39.7279319" lon="16.3628934"><ele>24.0</ele><time>2026-05-03T09:34:08.615Z</time></trkpt><trkpt lat="39.7278203" lon="16.362963"><ele>24.0</ele><time>2026-05-03T09:34:09.601Z</time></trkpt><trkpt lat="39.7277052" lon="16.3630295"><ele>24.0</ele><time>2026-05-03T09:34:10.617Z</time></trkpt><trkpt lat="39.727586" lon="16.363095"><ele>24.0</ele><time>2026-05-03T09:34:11.628Z</time></trkpt><trkpt lat="39.7274606" lon="16.3631588"><ele>24.0</ele><time>2026-05-03T09:34:12.627Z</time></trkpt><trkpt lat="39.7273329" lon="16.363221"><ele>24.0</ele><time>2026-05-03T09:34:13.612Z</time></trkpt><trkpt lat="39.7272034" lon="16.3632811"><ele>24.0</ele><time>2026-05-03T09:34:14.626Z</time></trkpt><trkpt lat="39.7270701" lon="16.3633404"><ele>24.0</ele><time>2026-05-03T09:34:15.617Z</time></trkpt><trkpt lat="39.7269378" lon="16.3633997"><ele>24.0</ele><time>2026-05-03T09:34:16.611Z</time></trkpt><trkpt lat="39.7268086" lon="16.3634539"><ele>24.0</ele><time>2026-05-03T09:34:17.631Z</time></trkpt><trkpt lat="39.7266809" lon="16.3634995"><ele>24.0</ele><time>2026-05-03T09:34:18.618Z</time></trkpt><trkpt lat="39.7265533" lon="16.3635359"><ele>23.75</ele><time>2026-05-03T09:34:19.618Z</time></trkpt><trkpt lat="39.7264237" lon="16.3635744"><ele>23.5</ele><time>2026-05-03T09:34:20.616Z</time></trkpt><trkpt lat="39.7262935" lon="16.3636143"><ele>23.25</ele><time>2026-05-03T09:34:21.62Z</time></trkpt><trkpt lat="39.7261594" lon="16.3636555"><ele>23.0</ele><time>2026-05-03T09:34:22.624Z</time></trkpt><trkpt lat="39.726022" lon="16.363699"><ele>22.5</ele><time>2026-05-03T09:34:23.63Z</time></trkpt><trkpt lat="39.7258848" lon="16.363746"><ele>22.0</ele><time>2026-05-03T09:34:24.623Z</time></trkpt><trkpt lat="39.725745" lon="16.3637953"><ele>21.5</ele><time>2026-05-03T09:34:25.629Z</time></trkpt><trkpt lat="39.7256016" lon="16.3638445"><ele>21.0</ele><time>2026-05-03T09:34:26.631Z</time></trkpt><trkpt lat="39.7254663" lon="16.3638946"><ele>21.0</ele><time>2026-05-03T09:34:27.615Z</time></trkpt><trkpt lat="39.7253463" lon="16.3639462"><ele>21.0</ele><time>2026-05-03T09:34:28.616Z</time></trkpt><trkpt lat="39.7252378" lon="16.3639948"><ele>21.0</ele><time>2026-05-03T09:34:29.632Z</time></trkpt><trkpt lat="39.7251304" lon="16.3640471"><ele>21.0</ele><time>2026-05-03T09:34:30.624Z</time></trkpt><trkpt lat="39.7250233" lon="16.3641019"><ele>21.200000000000003</ele><time>2026-05-03T09:34:31.613Z</time></trkpt><trkpt lat="39.7249194" lon="16.3641572"><ele>21.400000000000002</ele><time>2026-05-03T09:34:32.615Z</time></trkpt><trkpt lat="39.7248337" lon="16.3642046"><ele>21.6</ele><time>2026-05-03T09:34:33.616Z</time></trkpt><trkpt lat="39.7247621" lon="16.3642317"><ele>21.8</ele><time>2026-05-03T09:34:34.629Z</time></trkpt><trkpt lat="39.7246967" lon="16.3642421"><ele>22.0</ele><time>2026-05-03T09:34:35.613Z</time></trkpt><trkpt lat="39.7245853" lon="16.3642383"><ele>22.0</ele><time>2026-05-03T09:34:37.617Z</time></trkpt><trkpt lat="39.7245168" lon="16.3642539"><ele>22.0</ele><time>2026-05-03T09:34:38.625Z</time></trkpt><trkpt lat="39.724447" lon="16.3642826"><ele>22.0</ele><time>2026-05-03T09:34:39.618Z</time></trkpt><trkpt lat="39.7243661" lon="16.364308"><ele>22.0</ele><time>2026-05-03T09:34:40.614Z</time></trkpt><trkpt lat="39.7242848" lon="16.3643166"><ele>22.0</ele><time>2026-05-03T09:34:41.612Z</time></trkpt><trkpt lat="39.7242008" lon="16.3643145"><ele>22.0</ele><time>2026-05-03T09:34:42.602Z</time></trkpt><trkpt lat="39.7241016" lon="16.3643093"><ele>22.25</ele><time>2026-05-03T09:34:43.606Z</time></trkpt><trkpt lat="39.7239831" lon="16.3643101"><ele>22.5</ele><time>2026-05-03T09:34:44.622Z</time></trkpt><trkpt lat="39.7238538" lon="16.3643079"><ele>22.75</ele><time>2026-05-03T09:34:45.602Z</time></trkpt><trkpt lat="39.7237208" lon="16.3643099"><ele>23.0</ele><time>2026-05-03T09:34:46.615Z</time></trkpt><trkpt lat="39.7235806" lon="16.3643094"><ele>23.333333333333336</ele><time>2026-05-03T09:34:47.608Z</time></trkpt><trkpt lat="39.7234272" lon="16.3643133"><ele>23.666666666666668</ele><time>2026-05-03T09:34:48.611Z</time></trkpt><trkpt lat="39.7232663" lon="16.3643456"><ele>24.0</ele><time>2026-05-03T09:34:49.592Z</time></trkpt><trkpt lat="39.7231094" lon="16.3643553"><ele>24.0</ele><time>2026-05-03T09:34:50.606Z</time></trkpt><trkpt lat="39.7229699" lon="16.3643421"><ele>24.0</ele><time>2026-05-03T09:34:51.609Z</time></trkpt><trkpt lat="39.7228368" lon="16.3643324"><ele>24.0</ele><time>2026-05-03T09:34:52.633Z</time></trkpt><trkpt lat="39.7227123" lon="16.3643425"><ele>24.0</ele><time>2026-05-03T09:34:53.622Z</time></trkpt><trkpt lat="39.7225996" lon="16.3643864"><ele>23.5</ele><time>2026-05-03T09:34:54.625Z</time></trkpt><trkpt lat="39.7224922" lon="16.3644616"><ele>23.0</ele><time>2026-05-03T09:34:55.618Z</time></trkpt><trkpt lat="39.7223962" lon="16.3645693"><ele>22.5</ele><time>2026-05-03T09:34:56.615Z</time></trkpt><trkpt lat="39.7223241" lon="16.3646962"><ele>22.0</ele><time>2026-05-03T09:34:57.623Z</time></trkpt><trkpt lat="39.7222853" lon="16.3648488"><ele>22.0</ele><time>2026-05-03T09:34:58.622Z</time></trkpt><trkpt lat="39.7222789" lon="16.3650084"><ele>22.0</ele><time>2026-05-03T09:34:59.602Z</time></trkpt><trkpt lat="39.7223022" lon="16.3651649"><ele>22.0</ele><time>2026-05-03T09:35:00.618Z</time></trkpt><trkpt lat="39.7223543" lon="16.3653054"><ele>22.0</ele><time>2026-05-03T09:35:01.63Z</time></trkpt><trkpt lat="39.7224242" lon="16.3654386"><ele>22.25</ele><time>2026-05-03T09:35:02.607Z</time></trkpt><trkpt lat="39.7225151" lon="16.3655528"><ele>22.5</ele><time>2026-05-03T09:35:03.612Z</time></trkpt><trkpt lat="39.7226223" lon="16.3656545"><ele>22.75</ele><time>2026-05-03T09:35:04.63Z</time></trkpt><trkpt lat="39.722735" lon="16.3657434"><ele>23.0</ele><time>2026-05-03T09:35:05.616Z</time></trkpt><trkpt lat="39.7228436" lon="16.365852"><ele>23.25</ele><time>2026-05-03T09:35:06.61Z</time></trkpt><trkpt lat="39.7229364" lon="16.3659863"><ele>23.5</ele><time>2026-05-03T09:35:07.629Z</time></trkpt><trkpt lat="39.7230258" lon="16.3661294"><ele>23.75</ele><time>2026-05-03T09:35:08.606Z</time></trkpt><trkpt lat="39.7231028" lon="16.3662864"><ele>24.0</ele><time>2026-05-03T09:35:09.612Z</time></trkpt><trkpt lat="39.7231665" lon="16.3664605"><ele>23.0</ele><time>2026-05-03T09:35:10.617Z</time></trkpt><trkpt lat="39.7232098" lon="16.3666501"><ele>22.0</ele><time>2026-05-03T09:35:11.614Z</time></trkpt><trkpt lat="39.7232252" lon="16.366846"><ele>21.0</ele><time>2026-05-03T09:35:12.613Z</time></trkpt><trkpt lat="39.7232288" lon="16.3670558"><ele>21.333333333333332</ele><time>2026-05-03T09:35:13.616Z</time></trkpt><trkpt lat="39.7232257" lon="16.3672733"><ele>21.666666666666664</ele><time>2026-05-03T09:35:14.635Z</time></trkpt><trkpt lat="39.7232294" lon="16.3674955"><ele>22.0</ele><time>2026-05-03T09:35:15.621Z</time></trkpt><trkpt lat="39.7232348" lon="16.3677191"><ele>22.0</ele><time>2026-05-03T09:35:16.616Z</time></trkpt><trkpt lat="39.7232412" lon="16.3679518"><ele>22.0</ele><time>2026-05-03T09:35:17.609Z</time></trkpt><trkpt lat="39.7232442" lon="16.3681934"><ele>22.0</ele><time>2026-05-03T09:35:18.635Z</time></trkpt><trkpt lat="39.7232486" lon="16.3684392"><ele>22.0</ele><time>2026-05-03T09:35:19.62Z</time></trkpt><trkpt lat="39.7232564" lon="16.3686957"><ele>22.0</ele><time>2026-05-03T09:35:20.616Z</time></trkpt><trkpt lat="39.7232627" lon="16.3689559"><ele>22.0</ele><time>2026-05-03T09:35:21.614Z</time></trkpt><trkpt lat="39.7232655" lon="16.3692184"><ele>22.0</ele><time>2026-05-03T09:35:22.617Z</time></trkpt><trkpt lat="39.7232647" lon="16.3694809"><ele>22.0</ele><time>2026-05-03T09:35:23.605Z</time></trkpt><trkpt lat="39.7232619" lon="16.3697479"><ele>22.0</ele><time>2026-05-03T09:35:24.623Z</time></trkpt><trkpt lat="39.7232617" lon="16.3700155"><ele>21.666666666666664</ele><time>2026-05-03T09:35:25.609Z</time></trkpt><trkpt lat="39.7232579" lon="16.3702829"><ele>21.333333333333332</ele><time>2026-05-03T09:35:26.626Z</time></trkpt><trkpt lat="39.7232582" lon="16.3705547"><ele>21.0</ele><time>2026-05-03T09:35:27.626Z</time></trkpt><trkpt lat="39.7232585" lon="16.3708275"><ele>21.0</ele><time>2026-05-03T09:35:28.619Z</time></trkpt><trkpt lat="39.7232593" lon="16.3711012"><ele>21.0</ele><time>2026-05-03T09:35:29.62Z</time></trkpt><trkpt lat="39.723257" lon="16.3713785"><ele>21.0</ele><time>2026-05-03T09:35:30.628Z</time></trkpt><trkpt lat="39.7232529" lon="16.3716584"><ele>21.0</ele><time>2026-05-03T09:35:31.63Z</time></trkpt><trkpt lat="39.7232486" lon="16.3719406"><ele>21.0</ele><time>2026-05-03T09:35:32.625Z</time></trkpt><trkpt lat="39.7232478" lon="16.3722249"><ele>21.0</ele><time>2026-05-03T09:35:33.615Z</time></trkpt><trkpt lat="39.7232518" lon="16.3725135"><ele>21.0</ele><time>2026-05-03T09:35:34.636Z</time></trkpt><trkpt lat="39.7232558" lon="16.3728017"><ele>21.0</ele><time>2026-05-03T09:35:35.623Z</time></trkpt><trkpt lat="39.7232554" lon="16.373096"><ele>21.0</ele><time>2026-05-03T09:35:36.62Z</time></trkpt><trkpt lat="39.7232563" lon="16.373392"><ele>21.0</ele><time>2026-05-03T09:35:37.611Z</time></trkpt><trkpt lat="39.7232552" lon="16.3736847"><ele>21.0</ele><time>2026-05-03T09:35:38.61Z</time></trkpt><trkpt lat="39.7232495" lon="16.3739749"><ele>21.0</ele><time>2026-05-03T09:35:39.62Z</time></trkpt><trkpt lat="39.723239" lon="16.3742594"><ele>21.0</ele><time>2026-05-03T09:35:40.636Z</time></trkpt><trkpt lat="39.7232294" lon="16.3745299"><ele>21.0</ele><time>2026-05-03T09:35:41.634Z</time></trkpt><trkpt lat="39.7232213" lon="16.3747895"><ele>21.0</ele><time>2026-05-03T09:35:42.618Z</time></trkpt><trkpt lat="39.7232185" lon="16.3750521"><ele>21.333333333333332</ele><time>2026-05-03T09:35:43.616Z</time></trkpt><trkpt lat="39.7232167" lon="16.3753178"><ele>21.666666666666664</ele><time>2026-05-03T09:35:44.633Z</time></trkpt><trkpt lat="39.7232125" lon="16.3755858"><ele>22.0</ele><time>2026-05-03T09:35:45.613Z</time></trkpt><trkpt lat="39.7232047" lon="16.3758564"><ele>22.0</ele><time>2026-05-03T09:35:46.626Z</time></trkpt><trkpt lat="39.7231958" lon="16.3761363"><ele>22.0</ele><time>2026-05-03T09:35:47.605Z</time></trkpt><trkpt lat="39.7231856" lon="16.3764203"><ele>22.0</ele><time>2026-05-03T09:35:48.622Z</time></trkpt><trkpt lat="39.7231789" lon="16.3767073"><ele>21.333333333333332</ele><time>2026-05-03T09:35:49.632Z</time></trkpt><trkpt lat="39.7231667" lon="16.3769892"><ele>20.666666666666668</ele><time>2026-05-03T09:35:50.629Z</time></trkpt><trkpt lat="39.7231604" lon="16.3772831"><ele>20.0</ele><time>2026-05-03T09:35:51.608Z</time></trkpt><trkpt lat="39.7231511" lon="16.3775755"><ele>19.5</ele><time>2026-05-03T09:35:52.622Z</time></trkpt><trkpt lat="39.7231423" lon="16.3778713"><ele>19.0</ele><time>2026-05-03T09:35:53.613Z</time></trkpt><trkpt lat="39.7231323" lon="16.3781688"><ele>20.0</ele><time>2026-05-03T09:35:54.625Z</time></trkpt><trkpt lat="39.7231224" lon="16.3784696"><ele>21.0</ele><time>2026-05-03T09:35:55.621Z</time></trkpt><trkpt lat="39.7231132" lon="16.3787697"><ele>21.0</ele><time>2026-05-03T09:35:56.63Z</time></trkpt><trkpt lat="39.7231037" lon="16.3790748"><ele>21.0</ele><time>2026-05-03T09:35:57.62Z</time></trkpt><trkpt lat="39.7230917" lon="16.3793802"><ele>20.5</ele><time>2026-05-03T09:35:58.626Z</time></trkpt><trkpt lat="39.7230815" lon="16.3796909"><ele>20.0</ele><time>2026-05-03T09:35:59.625Z</time></trkpt><trkpt lat="39.7230704" lon="16.3800006"><ele>20.0</ele><time>2026-05-03T09:36:00.626Z</time></trkpt><trkpt lat="39.7230611" lon="16.3803123"><ele>20.0</ele><time>2026-05-03T09:36:01.615Z</time></trkpt><trkpt lat="39.7230506" lon="16.3806225"><ele>19.5</ele><time>2026-05-03T09:36:02.612Z</time></trkpt><trkpt lat="39.7230397" lon="16.3809285"><ele>19.0</ele><time>2026-05-03T09:36:03.601Z</time></trkpt><trkpt lat="39.7230302" lon="16.3812264"><ele>18.666666666666664</ele><time>2026-05-03T09:36:04.616Z</time></trkpt><trkpt lat="39.7230218" lon="16.3815084"><ele>18.333333333333332</ele><time>2026-05-03T09:36:05.619Z</time></trkpt><trkpt lat="39.7230169" lon="16.3817817"><ele>18.0</ele><time>2026-05-03T09:36:06.625Z</time></trkpt><trkpt lat="39.7230102" lon="16.3820585"><ele>18.0</ele><time>2026-05-03T09:36:07.62Z</time></trkpt><trkpt lat="39.7230027" lon="16.3823385"><ele>18.0</ele><time>2026-05-03T09:36:08.61Z</time></trkpt><trkpt lat="39.7229915" lon="16.3826206"><ele>18.0</ele><time>2026-05-03T09:36:09.613Z</time></trkpt><trkpt lat="39.7229827" lon="16.3829063"><ele>18.0</ele><time>2026-05-03T09:36:10.611Z</time></trkpt><trkpt lat="39.7229734" lon="16.3831981"><ele>18.0</ele><time>2026-05-03T09:36:11.62Z</time></trkpt><trkpt lat="39.7229616" lon="16.3834872"><ele>18.0</ele><time>2026-05-03T09:36:12.618Z</time></trkpt><trkpt lat="39.7229512" lon="16.383775"><ele>18.333333333333332</ele><time>2026-05-03T09:36:13.622Z</time></trkpt><trkpt lat="39.722944" lon="16.3840611"><ele>18.666666666666664</ele><time>2026-05-03T09:36:14.607Z</time></trkpt><trkpt lat="39.7229346" lon="16.3843452"><ele>19.0</ele><time>2026-05-03T09:36:15.611Z</time></trkpt><trkpt lat="39.7229254" lon="16.3846302"><ele>19.333333333333332</ele><time>2026-05-03T09:36:16.635Z</time></trkpt><trkpt lat="39.722914" lon="16.3849126"><ele>19.666666666666668</ele><time>2026-05-03T09:36:17.614Z</time></trkpt><trkpt lat="39.7229037" lon="16.3851981"><ele>20.0</ele><time>2026-05-03T09:36:18.61Z</time></trkpt><trkpt lat="39.722899" lon="16.3854844"><ele>20.0</ele><time>2026-05-03T09:36:19.612Z</time></trkpt><trkpt lat="39.7228928" lon="16.3857715"><ele>20.0</ele><time>2026-05-03T09:36:20.614Z</time></trkpt><trkpt lat="39.7228867" lon="16.3860551"><ele>20.0</ele><time>2026-05-03T09:36:21.628Z</time></trkpt><trkpt lat="39.7228768" lon="16.3863382"><ele>19.666666666666668</ele><time>2026-05-03T09:36:22.625Z</time></trkpt><trkpt lat="39.7228636" lon="16.386617"><ele>19.333333333333332</ele><time>2026-05-03T09:36:23.614Z</time></trkpt><trkpt lat="39.722859" lon="16.3868884"><ele>19.0</ele><time>2026-05-03T09:36:24.625Z</time></trkpt><trkpt lat="39.7228609" lon="16.3871492"><ele>19.333333333333332</ele><time>2026-05-03T09:36:25.622Z</time></trkpt><trkpt lat="39.7228622" lon="16.3873952"><ele>19.666666666666668</ele><time>2026-05-03T09:36:26.621Z</time></trkpt><trkpt lat="39.7228596" lon="16.3876177"><ele>20.0</ele><time>2026-05-03T09:36:27.621Z</time></trkpt><trkpt lat="39.7228545" lon="16.387828"><ele>20.333333333333336</ele><time>2026-05-03T09:36:28.619Z</time></trkpt><trkpt lat="39.7228527" lon="16.3880317"><ele>20.666666666666668</ele><time>2026-05-03T09:36:29.618Z</time></trkpt><trkpt lat="39.7228525" lon="16.3882261"><ele>21.0</ele><time>2026-05-03T09:36:30.622Z</time></trkpt><trkpt lat="39.7228537" lon="16.388421"><ele>21.0</ele><time>2026-05-03T09:36:31.615Z</time></trkpt><trkpt lat="39.7228582" lon="16.38862"><ele>21.0</ele><time>2026-05-03T09:36:32.631Z</time></trkpt><trkpt lat="39.7228654" lon="16.3888317"><ele>21.0</ele><time>2026-05-03T09:36:33.603Z</time></trkpt><trkpt lat="39.7228742" lon="16.3890475"><ele>20.0</ele><time>2026-05-03T09:36:34.613Z</time></trkpt><trkpt lat="39.7228858" lon="16.3892704"><ele>19.0</ele><time>2026-05-03T09:36:35.621Z</time></trkpt><trkpt lat="39.722899" lon="16.3895004"><ele>18.0</ele><time>2026-05-03T09:36:36.61Z</time></trkpt><trkpt lat="39.7229141" lon="16.3897235"><ele>17.666666666666668</ele><time>2026-05-03T09:36:37.614Z</time></trkpt><trkpt lat="39.7229307" lon="16.3899435"><ele>17.333333333333336</ele><time>2026-05-03T09:36:38.638Z</time></trkpt><trkpt lat="39.7229509" lon="16.3901626"><ele>17.0</ele><time>2026-05-03T09:36:39.619Z</time></trkpt><trkpt lat="39.7229708" lon="16.3903844"><ele>17.0</ele><time>2026-05-03T09:36:40.623Z</time></trkpt><trkpt lat="39.7229891" lon="16.3906014"><ele>17.0</ele><time>2026-05-03T09:36:41.611Z</time></trkpt><trkpt lat="39.7230065" lon="16.3908169"><ele>17.0</ele><time>2026-05-03T09:36:42.609Z</time></trkpt><trkpt lat="39.7230245" lon="16.3910288"><ele>17.0</ele><time>2026-05-03T09:36:43.618Z</time></trkpt><trkpt lat="39.7230437" lon="16.3912403"><ele>17.0</ele><time>2026-05-03T09:36:44.602Z</time></trkpt><trkpt lat="39.723062" lon="16.3914544"><ele>17.0</ele><time>2026-05-03T09:36:45.614Z</time></trkpt><trkpt lat="39.7230797" lon="16.3916644"><ele>17.25</ele><time>2026-05-03T09:36:46.624Z</time></trkpt><trkpt lat="39.7230971" lon="16.3918614"><ele>17.5</ele><time>2026-05-03T09:36:47.612Z</time></trkpt><trkpt lat="39.7231149" lon="16.3920515"><ele>17.75</ele><time>2026-05-03T09:36:48.621Z</time></trkpt><trkpt lat="39.7231325" lon="16.3922376"><ele>18.0</ele><time>2026-05-03T09:36:49.614Z</time></trkpt><trkpt lat="39.7231514" lon="16.3924206"><ele>18.25</ele><time>2026-05-03T09:36:50.618Z</time></trkpt><trkpt lat="39.7231689" lon="16.3925955"><ele>18.5</ele><time>2026-05-03T09:36:51.618Z</time></trkpt><trkpt lat="39.7231838" lon="16.3927602"><ele>18.75</ele><time>2026-05-03T09:36:52.621Z</time></trkpt><trkpt lat="39.7232006" lon="16.3929156"><ele>19.0</ele><time>2026-05-03T09:36:53.621Z</time></trkpt><trkpt lat="39.7232171" lon="16.3930657"><ele>18.5</ele><time>2026-05-03T09:36:54.682Z</time></trkpt><trkpt lat="39.7232307" lon="16.3932233"><ele>18.0</ele><time>2026-05-03T09:36:55.619Z</time></trkpt><trkpt lat="39.7232461" lon="16.393385"><ele>17.5</ele><time>2026-05-03T09:36:56.635Z</time></trkpt><trkpt lat="39.7232617" lon="16.3935419"><ele>17.0</ele><time>2026-05-03T09:36:57.612Z</time></trkpt><trkpt lat="39.723277" lon="16.3936911"><ele>17.0</ele><time>2026-05-03T09:36:58.621Z</time></trkpt><trkpt lat="39.7232907" lon="16.3938295"><ele>17.0</ele><time>2026-05-03T09:36:59.608Z</time></trkpt><trkpt lat="39.7233003" lon="16.3939607"><ele>17.0</ele><time>2026-05-03T09:37:00.633Z</time></trkpt><trkpt lat="39.7233106" lon="16.3940974"><ele>17.0</ele><time>2026-05-03T09:37:01.619Z</time></trkpt><trkpt lat="39.7233244" lon="16.3942433"><ele>17.0</ele><time>2026-05-03T09:37:02.615Z</time></trkpt><trkpt lat="39.7233415" lon="16.3943973"><ele>17.0</ele><time>2026-05-03T09:37:03.617Z</time></trkpt><trkpt lat="39.7233621" lon="16.3945608"><ele>17.0</ele><time>2026-05-03T09:37:04.619Z</time></trkpt><trkpt lat="39.7233766" lon="16.3947331"><ele>17.0</ele><time>2026-05-03T09:37:05.62Z</time></trkpt><trkpt lat="39.7233867" lon="16.3949127"><ele>17.0</ele><time>2026-05-03T09:37:06.626Z</time></trkpt><trkpt lat="39.7233935" lon="16.3950925"><ele>16.75</ele><time>2026-05-03T09:37:07.623Z</time></trkpt><trkpt lat="39.7233934" lon="16.3952686"><ele>16.5</ele><time>2026-05-03T09:37:08.626Z</time></trkpt><trkpt lat="39.7233871" lon="16.3954346"><ele>16.25</ele><time>2026-05-03T09:37:09.607Z</time></trkpt><trkpt lat="39.7233736" lon="16.3955888"><ele>16.0</ele><time>2026-05-03T09:37:10.625Z</time></trkpt><trkpt lat="39.7233538" lon="16.3957406"><ele>15.75</ele><time>2026-05-03T09:37:11.612Z</time></trkpt><trkpt lat="39.7233221" lon="16.3958986"><ele>15.5</ele><time>2026-05-03T09:37:12.619Z</time></trkpt><trkpt lat="39.7232883" lon="16.3960622"><ele>15.25</ele><time>2026-05-03T09:37:13.61Z</time></trkpt><trkpt lat="39.7232515" lon="16.3962251"><ele>15.0</ele><time>2026-05-03T09:37:14.622Z</time></trkpt><trkpt lat="39.7232125" lon="16.3963798"><ele>15.0</ele><time>2026-05-03T09:37:15.61Z</time></trkpt><trkpt lat="39.7231747" lon="16.3965291"><ele>15.0</ele><time>2026-05-03T09:37:16.618Z</time></trkpt><trkpt lat="39.7231381" lon="16.3966847"><ele>15.0</ele><time>2026-05-03T09:37:17.617Z</time></trkpt><trkpt lat="39.7230965" lon="16.396849"><ele>15.0</ele><time>2026-05-03T09:37:18.617Z</time></trkpt><trkpt lat="39.7230532" lon="16.397013"><ele>14.75</ele><time>2026-05-03T09:37:19.633Z</time></trkpt><trkpt lat="39.7230113" lon="16.3971692"><ele>14.5</ele><time>2026-05-03T09:37:20.629Z</time></trkpt><trkpt lat="39.7229748" lon="16.3973117"><ele>14.25</ele><time>2026-05-03T09:37:21.617Z</time></trkpt><trkpt lat="39.7229388" lon="16.3974513"><ele>14.0</ele><time>2026-05-03T09:37:22.628Z</time></trkpt><trkpt lat="39.7229048" lon="16.3975827"><ele>14.0</ele><time>2026-05-03T09:37:23.608Z</time></trkpt><trkpt lat="39.7228663" lon="16.39772"><ele>14.0</ele><time>2026-05-03T09:37:24.626Z</time></trkpt><trkpt lat="39.7228284" lon="16.3978675"><ele>14.0</ele><time>2026-05-03T09:37:25.623Z</time></trkpt><trkpt lat="39.7227899" lon="16.3980221"><ele>14.0</ele><time>2026-05-03T09:37:26.623Z</time></trkpt><trkpt lat="39.7227528" lon="16.3981824"><ele>14.25</ele><time>2026-05-03T09:37:27.619Z</time></trkpt><trkpt lat="39.7227171" lon="16.3983371"><ele>14.5</ele><time>2026-05-03T09:37:28.62Z</time></trkpt><trkpt lat="39.7226819" lon="16.3985017"><ele>14.75</ele><time>2026-05-03T09:37:29.63Z</time></trkpt><trkpt lat="39.7226531" lon="16.3986774"><ele>15.0</ele><time>2026-05-03T09:37:30.633Z</time></trkpt><trkpt lat="39.722631" lon="16.3988605"><ele>15.0</ele><time>2026-05-03T09:37:31.621Z</time></trkpt><trkpt lat="39.7226176" lon="16.3990511"><ele>15.0</ele><time>2026-05-03T09:37:32.616Z</time></trkpt><trkpt lat="39.7226144" lon="16.3992491"><ele>15.0</ele><time>2026-05-03T09:37:33.63Z</time></trkpt><trkpt lat="39.7226175" lon="16.3994476"><ele>15.0</ele><time>2026-05-03T09:37:34.616Z</time></trkpt><trkpt lat="39.7226251" lon="16.3996427"><ele>15.0</ele><time>2026-05-03T09:37:35.623Z</time></trkpt><trkpt lat="39.7226448" lon="16.3998313"><ele>15.0</ele><time>2026-05-03T09:37:36.616Z</time></trkpt><trkpt lat="39.7226747" lon="16.4000167"><ele>15.0</ele><time>2026-05-03T09:37:37.612Z</time></trkpt><trkpt lat="39.7227118" lon="16.4002"><ele>15.0</ele><time>2026-05-03T09:37:38.622Z</time></trkpt><trkpt lat="39.7227558" lon="16.4003772"><ele>15.0</ele><time>2026-05-03T09:37:39.622Z</time></trkpt><trkpt lat="39.7228118" lon="16.4005497"><ele>15.0</ele><time>2026-05-03T09:37:40.636Z</time></trkpt><trkpt lat="39.7228788" lon="16.400717"><ele>15.0</ele><time>2026-05-03T09:37:41.607Z</time></trkpt><trkpt lat="39.7229529" lon="16.4008835"><ele>15.0</ele><time>2026-05-03T09:37:42.607Z</time></trkpt><trkpt lat="39.7230345" lon="16.4010391"><ele>15.0</ele><time>2026-05-03T09:37:43.612Z</time></trkpt><trkpt lat="39.7231179" lon="16.4011866"><ele>15.0</ele><time>2026-05-03T09:37:44.609Z</time></trkpt><trkpt lat="39.7231936" lon="16.4013271"><ele>15.0</ele><time>2026-05-03T09:37:45.615Z</time></trkpt><trkpt lat="39.723269" lon="16.4014598"><ele>14.75</ele><time>2026-05-03T09:37:46.625Z</time></trkpt><trkpt lat="39.7233504" lon="16.4015968"><ele>14.5</ele><time>2026-05-03T09:37:47.602Z</time></trkpt><trkpt lat="39.7234322" lon="16.4017443"><ele>14.25</ele><time>2026-05-03T09:37:48.602Z</time></trkpt><trkpt lat="39.7235005" lon="16.4018995"><ele>14.0</ele><time>2026-05-03T09:37:49.617Z</time></trkpt><trkpt lat="39.723563" lon="16.4020587"><ele>14.0</ele><time>2026-05-03T09:37:50.618Z</time></trkpt><trkpt lat="39.7236137" lon="16.4022196"><ele>14.0</ele><time>2026-05-03T09:37:51.613Z</time></trkpt><trkpt lat="39.7236536" lon="16.4023715"><ele>14.0</ele><time>2026-05-03T09:37:52.614Z</time></trkpt><trkpt lat="39.7236848" lon="16.4025259"><ele>14.0</ele><time>2026-05-03T09:37:53.626Z</time></trkpt><trkpt lat="39.72371" lon="16.4026803"><ele>14.0</ele><time>2026-05-03T09:37:54.615Z</time></trkpt><trkpt lat="39.7237345" lon="16.4028371"><ele>14.0</ele><time>2026-05-03T09:37:55.613Z</time></trkpt><trkpt lat="39.7237601" lon="16.4029927"><ele>14.0</ele><time>2026-05-03T09:37:56.618Z</time></trkpt><trkpt lat="39.7237838" lon="16.4031491"><ele>14.0</ele><time>2026-05-03T09:37:57.621Z</time></trkpt><trkpt lat="39.7238036" lon="16.4033096"><ele>14.0</ele><time>2026-05-03T09:37:58.616Z</time></trkpt><trkpt lat="39.7238222" lon="16.4034661"><ele>14.0</ele><time>2026-05-03T09:37:59.622Z</time></trkpt><trkpt lat="39.7238453" lon="16.4036216"><ele>14.0</ele><time>2026-05-03T09:38:00.61Z</time></trkpt><trkpt lat="39.7238775" lon="16.4037662"><ele>14.0</ele><time>2026-05-03T09:38:01.602Z</time></trkpt><trkpt lat="39.7239196" lon="16.4039005"><ele>14.0</ele><time>2026-05-03T09:38:02.618Z</time></trkpt><trkpt lat="39.7239729" lon="16.4040344"><ele>14.0</ele><time>2026-05-03T09:38:03.623Z</time></trkpt><trkpt lat="39.724038" lon="16.4041632"><ele>14.0</ele><time>2026-05-03T09:38:04.638Z</time></trkpt><trkpt lat="39.7241054" lon="16.4042806"><ele>14.0</ele><time>2026-05-03T09:38:05.62Z</time></trkpt><trkpt lat="39.7241725" lon="16.4043851"><ele>14.0</ele><time>2026-05-03T09:38:06.62Z</time></trkpt><trkpt lat="39.7242363" lon="16.4045004"><ele>14.0</ele><time>2026-05-03T09:38:07.622Z</time></trkpt><trkpt lat="39.7242978" lon="16.4046295"><ele>14.0</ele><time>2026-05-03T09:38:08.627Z</time></trkpt><trkpt lat="39.7243531" lon="16.4047719"><ele>14.0</ele><time>2026-05-03T09:38:09.608Z</time></trkpt><trkpt lat="39.724399" lon="16.4049297"><ele>13.75</ele><time>2026-05-03T09:38:10.626Z</time></trkpt><trkpt lat="39.7244283" lon="16.4050954"><ele>13.5</ele><time>2026-05-03T09:38:11.615Z</time></trkpt><trkpt lat="39.7244469" lon="16.4052744"><ele>13.25</ele><time>2026-05-03T09:38:12.615Z</time></trkpt><trkpt lat="39.7244633" lon="16.405462"><ele>13.0</ele><time>2026-05-03T09:38:13.618Z</time></trkpt><trkpt lat="39.7244809" lon="16.405661"><ele>12.666666666666666</ele><time>2026-05-03T09:38:14.617Z</time></trkpt><trkpt lat="39.7245013" lon="16.4058592"><ele>12.333333333333332</ele><time>2026-05-03T09:38:15.629Z</time></trkpt><trkpt lat="39.724521" lon="16.4060603"><ele>12.0</ele><time>2026-05-03T09:38:16.617Z</time></trkpt><trkpt lat="39.7245415" lon="16.4062692"><ele>12.0</ele><time>2026-05-03T09:38:17.623Z</time></trkpt><trkpt lat="39.7245606" lon="16.4064771"><ele>12.0</ele><time>2026-05-03T09:38:18.612Z</time></trkpt><trkpt lat="39.7245803" lon="16.4066851"><ele>12.0</ele><time>2026-05-03T09:38:19.624Z</time></trkpt><trkpt lat="39.7245995" lon="16.4068913"><ele>12.0</ele><time>2026-05-03T09:38:20.638Z</time></trkpt><trkpt lat="39.7246166" lon="16.4071049"><ele>12.0</ele><time>2026-05-03T09:38:21.604Z</time></trkpt><trkpt lat="39.7246349" lon="16.4073217"><ele>12.0</ele><time>2026-05-03T09:38:22.632Z</time></trkpt><trkpt lat="39.7246565" lon="16.4075398"><ele>11.666666666666666</ele><time>2026-05-03T09:38:23.617Z</time></trkpt><trkpt lat="39.7246763" lon="16.4077627"><ele>11.333333333333332</ele><time>2026-05-03T09:38:24.63Z</time></trkpt><trkpt lat="39.7246979" lon="16.4079817"><ele>11.0</ele><time>2026-05-03T09:38:25.617Z</time></trkpt><trkpt lat="39.7247197" lon="16.4081945"><ele>11.0</ele><time>2026-05-03T09:38:26.616Z</time></trkpt><trkpt lat="39.7247381" lon="16.4084149"><ele>11.0</ele><time>2026-05-03T09:38:27.622Z</time></trkpt><trkpt lat="39.7247578" lon="16.4086425"><ele>11.0</ele><time>2026-05-03T09:38:28.611Z</time></trkpt><trkpt lat="39.7247808" lon="16.4088731"><ele>11.333333333333332</ele><time>2026-05-03T09:38:29.618Z</time></trkpt><trkpt lat="39.7248005" lon="16.4091021"><ele>11.666666666666666</ele><time>2026-05-03T09:38:30.618Z</time></trkpt><trkpt lat="39.7248221" lon="16.4093363"><ele>12.0</ele><time>2026-05-03T09:38:31.617Z</time></trkpt><trkpt lat="39.7248449" lon="16.4095721"><ele>11.666666666666666</ele><time>2026-05-03T09:38:32.61Z</time></trkpt><trkpt lat="39.7248678" lon="16.4098061"><ele>11.333333333333332</ele><time>2026-05-03T09:38:33.619Z</time></trkpt><trkpt lat="39.7248925" lon="16.4100448"><ele>11.0</ele><time>2026-05-03T09:38:34.626Z</time></trkpt><trkpt lat="39.7249191" lon="16.4102837"><ele>11.333333333333332</ele><time>2026-05-03T09:38:35.615Z</time></trkpt><trkpt lat="39.7249397" lon="16.4105239"><ele>11.666666666666666</ele><time>2026-05-03T09:38:36.623Z</time></trkpt><trkpt lat="39.7249575" lon="16.4107618"><ele>12.0</ele><time>2026-05-03T09:38:37.61Z</time></trkpt><trkpt lat="39.7249809" lon="16.4109993"><ele>12.0</ele><time>2026-05-03T09:38:38.63Z</time></trkpt><trkpt lat="39.7250069" lon="16.4112385"><ele>12.0</ele><time>2026-05-03T09:38:39.622Z</time></trkpt><trkpt lat="39.7250331" lon="16.4114796"><ele>12.0</ele><time>2026-05-03T09:38:40.625Z</time></trkpt><trkpt lat="39.7250559" lon="16.4117187"><ele>12.333333333333332</ele><time>2026-05-03T09:38:41.62Z</time></trkpt><trkpt lat="39.7250773" lon="16.411963"><ele>12.666666666666666</ele><time>2026-05-03T09:38:42.61Z</time></trkpt><trkpt lat="39.7250978" lon="16.4122045"><ele>13.0</ele><time>2026-05-03T09:38:43.622Z</time></trkpt><trkpt lat="39.7251195" lon="16.4124453"><ele>12.666666666666666</ele><time>2026-05-03T09:38:44.615Z</time></trkpt><trkpt lat="39.7251416" lon="16.4126867"><ele>12.333333333333332</ele><time>2026-05-03T09:38:45.613Z</time></trkpt><trkpt lat="39.7251669" lon="16.4129279"><ele>12.0</ele><time>2026-05-03T09:38:46.623Z</time></trkpt><trkpt lat="39.7251926" lon="16.4131731"><ele>12.0</ele><time>2026-05-03T09:38:47.599Z</time></trkpt><trkpt lat="39.7252115" lon="16.413415"><ele>12.0</ele><time>2026-05-03T09:38:48.626Z</time></trkpt><trkpt lat="39.7252308" lon="16.413659"><ele>12.0</ele><time>2026-05-03T09:38:49.611Z</time></trkpt><trkpt lat="39.7252516" lon="16.413902"><ele>11.666666666666666</ele><time>2026-05-03T09:38:50.62Z</time></trkpt><trkpt lat="39.7252764" lon="16.414147"><ele>11.333333333333332</ele><time>2026-05-03T09:38:51.619Z</time></trkpt><trkpt lat="39.7252992" lon="16.4143958"><ele>11.0</ele><time>2026-05-03T09:38:52.628Z</time></trkpt><trkpt lat="39.7253263" lon="16.4146436"><ele>11.0</ele><time>2026-05-03T09:38:53.621Z</time></trkpt><trkpt lat="39.7253535" lon="16.4148963"><ele>11.0</ele><time>2026-05-03T09:38:54.627Z</time></trkpt><trkpt lat="39.7253761" lon="16.4151509"><ele>11.0</ele><time>2026-05-03T09:38:55.621Z</time></trkpt><trkpt lat="39.725399" lon="16.4154047"><ele>11.0</ele><time>2026-05-03T09:38:56.635Z</time></trkpt><trkpt lat="39.7254208" lon="16.4156614"><ele>11.0</ele><time>2026-05-03T09:38:57.62Z</time></trkpt><trkpt lat="39.7254484" lon="16.4159169"><ele>11.0</ele><time>2026-05-03T09:38:58.627Z</time></trkpt><trkpt lat="39.725474" lon="16.4161741"><ele>11.0</ele><time>2026-05-03T09:38:59.616Z</time></trkpt><trkpt lat="39.7254964" lon="16.41643"><ele>11.0</ele><time>2026-05-03T09:39:00.622Z</time></trkpt><trkpt lat="39.725518" lon="16.4166905"><ele>11.0</ele><time>2026-05-03T09:39:01.61Z</time></trkpt><trkpt lat="39.7255409" lon="16.4169499"><ele>10.666666666666666</ele><time>2026-05-03T09:39:02.622Z</time></trkpt><trkpt lat="39.7255635" lon="16.4172115"><ele>10.333333333333334</ele><time>2026-05-03T09:39:03.621Z</time></trkpt><trkpt lat="39.725575" lon="16.4174762"><ele>10.0</ele><time>2026-05-03T09:39:04.624Z</time></trkpt><trkpt lat="39.7255813" lon="16.4177385"><ele>10.333333333333334</ele><time>2026-05-03T09:39:05.605Z</time></trkpt><trkpt lat="39.7255884" lon="16.4180005"><ele>10.666666666666666</ele><time>2026-05-03T09:39:06.623Z</time></trkpt><trkpt lat="39.7255909" lon="16.4182584"><ele>11.0</ele><time>2026-05-03T09:39:07.622Z</time></trkpt><trkpt lat="39.7255849" lon="16.418516"><ele>11.0</ele><time>2026-05-03T09:39:08.623Z</time></trkpt><trkpt lat="39.7255705" lon="16.4187766"><ele>11.0</ele><time>2026-05-03T09:39:09.633Z</time></trkpt><trkpt lat="39.7255525" lon="16.4190411"><ele>11.0</ele><time>2026-05-03T09:39:10.634Z</time></trkpt><trkpt lat="39.7255357" lon="16.4193066"><ele>11.0</ele><time>2026-05-03T09:39:11.627Z</time></trkpt><trkpt lat="39.7255174" lon="16.4195737"><ele>11.0</ele><time>2026-05-03T09:39:12.63Z</time></trkpt><trkpt lat="39.7254977" lon="16.419833"><ele>11.0</ele><time>2026-05-03T09:39:13.631Z</time></trkpt><trkpt lat="39.7254772" lon="16.420083"><ele>11.0</ele><time>2026-05-03T09:39:14.622Z</time></trkpt><trkpt lat="39.7254581" lon="16.4203284"><ele>11.0</ele><time>2026-05-03T09:39:15.626Z</time></trkpt><trkpt lat="39.7254378" lon="16.420577"><ele>11.0</ele><time>2026-05-03T09:39:16.621Z</time></trkpt><trkpt lat="39.7254159" lon="16.4208276"><ele>11.0</ele><time>2026-05-03T09:39:17.617Z</time></trkpt><trkpt lat="39.7253976" lon="16.4210806"><ele>11.0</ele><time>2026-05-03T09:39:18.626Z</time></trkpt><trkpt lat="39.7253738" lon="16.4213349"><ele>11.0</ele><time>2026-05-03T09:39:19.622Z</time></trkpt><trkpt lat="39.7253513" lon="16.4215925"><ele>10.666666666666666</ele><time>2026-05-03T09:39:20.617Z</time></trkpt><trkpt lat="39.7253335" lon="16.4218485"><ele>10.333333333333334</ele><time>2026-05-03T09:39:21.617Z</time></trkpt><trkpt lat="39.725314" lon="16.4221042"><ele>10.0</ele><time>2026-05-03T09:39:22.623Z</time></trkpt><trkpt lat="39.7252924" lon="16.4223586"><ele>10.0</ele><time>2026-05-03T09:39:23.629Z</time></trkpt><trkpt lat="39.7252696" lon="16.4226119"><ele>10.0</ele><time>2026-05-03T09:39:24.623Z</time></trkpt><trkpt lat="39.7252512" lon="16.4228665"><ele>10.0</ele><time>2026-05-03T09:39:25.616Z</time></trkpt><trkpt lat="39.7252347" lon="16.4231208"><ele>10.0</ele><time>2026-05-03T09:39:26.615Z</time></trkpt><trkpt lat="39.7252157" lon="16.4233764"><ele>10.0</ele><time>2026-05-03T09:39:27.611Z</time></trkpt><trkpt lat="39.725196" lon="16.4236312"><ele>10.0</ele><time>2026-05-03T09:39:28.613Z</time></trkpt><trkpt lat="39.7251777" lon="16.4238853"><ele>10.0</ele><time>2026-05-03T09:39:29.619Z</time></trkpt><trkpt lat="39.7251612" lon="16.424142"><ele>10.0</ele><time>2026-05-03T09:39:30.628Z</time></trkpt><trkpt lat="39.72514" lon="16.4243958"><ele>10.0</ele><time>2026-05-03T09:39:31.635Z</time></trkpt><trkpt lat="39.7251172" lon="16.4246507"><ele>9.666666666666668</ele><time>2026-05-03T09:39:32.623Z</time></trkpt><trkpt lat="39.7250947" lon="16.4249065"><ele>9.333333333333334</ele><time>2026-05-03T09:39:33.619Z</time></trkpt><trkpt lat="39.725077" lon="16.4251636"><ele>9.0</ele><time>2026-05-03T09:39:34.625Z</time></trkpt><trkpt lat="39.7250586" lon="16.4254236"><ele>9.0</ele><time>2026-05-03T09:39:35.622Z</time></trkpt><trkpt lat="39.7250407" lon="16.4256886"><ele>9.0</ele><time>2026-05-03T09:39:36.628Z</time></trkpt><trkpt lat="39.7250187" lon="16.4259517"><ele>9.0</ele><time>2026-05-03T09:39:37.619Z</time></trkpt><trkpt lat="39.7249974" lon="16.4262143"><ele>9.333333333333334</ele><time>2026-05-03T09:39:38.621Z</time></trkpt><trkpt lat="39.7249777" lon="16.4264823"><ele>9.666666666666668</ele><time>2026-05-03T09:39:39.621Z</time></trkpt><trkpt lat="39.7249597" lon="16.4267489"><ele>10.0</ele><time>2026-05-03T09:39:40.634Z</time></trkpt><trkpt lat="39.7249396" lon="16.4270188"><ele>9.333333333333334</ele><time>2026-05-03T09:39:41.623Z</time></trkpt><trkpt lat="39.7249193" lon="16.427291"><ele>8.666666666666666</ele><time>2026-05-03T09:39:42.633Z</time></trkpt><trkpt lat="39.7248989" lon="16.4275646"><ele>8.0</ele><time>2026-05-03T09:39:43.603Z</time></trkpt><trkpt lat="39.7248766" lon="16.4278395"><ele>7.666666666666666</ele><time>2026-05-03T09:39:44.623Z</time></trkpt><trkpt lat="39.7248531" lon="16.4281184"><ele>7.333333333333334</ele><time>2026-05-03T09:39:45.614Z</time></trkpt><trkpt lat="39.7248313" lon="16.4284007"><ele>7.0</ele><time>2026-05-03T09:39:46.613Z</time></trkpt><trkpt lat="39.7248139" lon="16.4286814"><ele>7.333333333333334</ele><time>2026-05-03T09:39:47.614Z</time></trkpt><trkpt lat="39.7247954" lon="16.4289622"><ele>7.666666666666666</ele><time>2026-05-03T09:39:48.633Z</time></trkpt><trkpt lat="39.7247759" lon="16.4292454"><ele>8.0</ele><time>2026-05-03T09:39:49.628Z</time></trkpt><trkpt lat="39.7247545" lon="16.4295263"><ele>7.666666666666666</ele><time>2026-05-03T09:39:50.626Z</time></trkpt><trkpt lat="39.7247331" lon="16.4298059"><ele>7.333333333333334</ele><time>2026-05-03T09:39:51.626Z</time></trkpt><trkpt lat="39.7247124" lon="16.4300826"><ele>7.0</ele><time>2026-05-03T09:39:52.621Z</time></trkpt><trkpt lat="39.7246918" lon="16.4303545"><ele>7.333333333333334</ele><time>2026-05-03T09:39:53.61Z</time></trkpt><trkpt lat="39.7246704" lon="16.4306264"><ele>7.666666666666666</ele><time>2026-05-03T09:39:54.628Z</time></trkpt><trkpt lat="39.7246511" lon="16.4308952"><ele>8.0</ele><time>2026-05-03T09:39:55.623Z</time></trkpt><trkpt lat="39.7246302" lon="16.4311618"><ele>8.0</ele><time>2026-05-03T09:39:56.623Z</time></trkpt><trkpt lat="39.7246127" lon="16.4314277"><ele>8.0</ele><time>2026-05-03T09:39:57.621Z</time></trkpt><trkpt lat="39.7245907" lon="16.4316961"><ele>8.0</ele><time>2026-05-03T09:39:58.625Z</time></trkpt><trkpt lat="39.7245699" lon="16.4319619"><ele>7.666666666666666</ele><time>2026-05-03T09:39:59.62Z</time></trkpt><trkpt lat="39.7245492" lon="16.4322279"><ele>7.333333333333334</ele><time>2026-05-03T09:40:00.626Z</time></trkpt><trkpt lat="39.7245284" lon="16.4324985"><ele>7.0</ele><time>2026-05-03T09:40:01.617Z</time></trkpt><trkpt lat="39.7245088" lon="16.4327671"><ele>7.0</ele><time>2026-05-03T09:40:02.613Z</time></trkpt><trkpt lat="39.7244881" lon="16.4330351"><ele>7.0</ele><time>2026-05-03T09:40:03.614Z</time></trkpt><trkpt lat="39.7244708" lon="16.4333059"><ele>7.0</ele><time>2026-05-03T09:40:04.626Z</time></trkpt><trkpt lat="39.724453" lon="16.4335718"><ele>7.0</ele><time>2026-05-03T09:40:05.628Z</time></trkpt><trkpt lat="39.724435" lon="16.4338402"><ele>7.0</ele><time>2026-05-03T09:40:06.627Z</time></trkpt><trkpt lat="39.7244151" lon="16.434106"><ele>7.0</ele><time>2026-05-03T09:40:07.625Z</time></trkpt><trkpt lat="39.7243942" lon="16.4343667"><ele>7.0</ele><time>2026-05-03T09:40:08.62Z</time></trkpt><trkpt lat="39.7243713" lon="16.4346261"><ele>7.0</ele><time>2026-05-03T09:40:09.619Z</time></trkpt><trkpt lat="39.7243548" lon="16.4348865"><ele>7.0</ele><time>2026-05-03T09:40:10.614Z</time></trkpt><trkpt lat="39.7243368" lon="16.4351475"><ele>6.666666666666667</ele><time>2026-05-03T09:40:11.625Z</time></trkpt><trkpt lat="39.7243136" lon="16.4354132"><ele>6.333333333333334</ele><time>2026-05-03T09:40:12.623Z</time></trkpt><trkpt lat="39.7242814" lon="16.4356769"><ele>6.0</ele><time>2026-05-03T09:40:13.615Z</time></trkpt><trkpt lat="39.724243" lon="16.43594"><ele>6.0</ele><time>2026-05-03T09:40:14.625Z</time></trkpt><trkpt lat="39.7242041" lon="16.436203"><ele>6.0</ele><time>2026-05-03T09:40:15.608Z</time></trkpt><trkpt lat="39.7241615" lon="16.4364699"><ele>6.0</ele><time>2026-05-03T09:40:16.621Z</time></trkpt><trkpt lat="39.7241134" lon="16.4367384"><ele>6.333333333333334</ele><time>2026-05-03T09:40:17.603Z</time></trkpt><trkpt lat="39.7240566" lon="16.4370021"><ele>6.666666666666667</ele><time>2026-05-03T09:40:18.625Z</time></trkpt><trkpt lat="39.7239967" lon="16.4372614"><ele>7.0</ele><time>2026-05-03T09:40:19.625Z</time></trkpt><trkpt lat="39.7239373" lon="16.4375113"><ele>7.0</ele><time>2026-05-03T09:40:20.628Z</time></trkpt><trkpt lat="39.7238787" lon="16.4377516"><ele>7.0</ele><time>2026-05-03T09:40:21.617Z</time></trkpt><trkpt lat="39.7238219" lon="16.437982"><ele>7.0</ele><time>2026-05-03T09:40:22.625Z</time></trkpt><trkpt lat="39.723766" lon="16.4382064"><ele>7.0</ele><time>2026-05-03T09:40:23.649Z</time></trkpt><trkpt lat="39.7237114" lon="16.4384337"><ele>7.0</ele><time>2026-05-03T09:40:24.61Z</time></trkpt><trkpt lat="39.7236557" lon="16.4386628"><ele>7.0</ele><time>2026-05-03T09:40:25.599Z</time></trkpt><trkpt lat="39.7236007" lon="16.4388873"><ele>7.0</ele><time>2026-05-03T09:40:26.619Z</time></trkpt><trkpt lat="39.7235436" lon="16.4391166"><ele>7.0</ele><time>2026-05-03T09:40:27.61Z</time></trkpt><trkpt lat="39.7234868" lon="16.4393426"><ele>7.0</ele><time>2026-05-03T09:40:28.622Z</time></trkpt><trkpt lat="39.7234348" lon="16.4395529"><ele>7.0</ele><time>2026-05-03T09:40:29.616Z</time></trkpt><trkpt lat="39.7233846" lon="16.4397499"><ele>7.0</ele><time>2026-05-03T09:40:30.633Z</time></trkpt><trkpt lat="39.7233344" lon="16.4399375"><ele>7.0</ele><time>2026-05-03T09:40:31.608Z</time></trkpt><trkpt lat="39.7232872" lon="16.4401218"><ele>7.0</ele><time>2026-05-03T09:40:32.599Z</time></trkpt><trkpt lat="39.7232426" lon="16.4403108"><ele>7.0</ele><time>2026-05-03T09:40:33.602Z</time></trkpt><trkpt lat="39.7231942" lon="16.4405018"><ele>7.0</ele><time>2026-05-03T09:40:34.615Z</time></trkpt><trkpt lat="39.723147" lon="16.4406954"><ele>7.0</ele><time>2026-05-03T09:40:35.598Z</time></trkpt><trkpt lat="39.7230988" lon="16.4408913"><ele>7.0</ele><time>2026-05-03T09:40:36.644Z</time></trkpt><trkpt lat="39.7230495" lon="16.4410889"><ele>7.0</ele><time>2026-05-03T09:40:37.601Z</time></trkpt><trkpt lat="39.7229998" lon="16.4412881"><ele>7.0</ele><time>2026-05-03T09:40:38.612Z</time></trkpt><trkpt lat="39.7229522" lon="16.4414922"><ele>7.0</ele><time>2026-05-03T09:40:39.59Z</time></trkpt><trkpt lat="39.7229017" lon="16.4416977"><ele>7.0</ele><time>2026-05-03T09:40:40.623Z</time></trkpt><trkpt lat="39.7228536" lon="16.4419074"><ele>7.0</ele><time>2026-05-03T09:40:41.624Z</time></trkpt><trkpt lat="39.7228015" lon="16.4421181"><ele>7.0</ele><time>2026-05-03T09:40:42.596Z</time></trkpt><trkpt lat="39.7227457" lon="16.4423293"><ele>7.0</ele><time>2026-05-03T09:40:43.602Z</time></trkpt><trkpt lat="39.7226956" lon="16.4425427"><ele>7.0</ele><time>2026-05-03T09:40:44.596Z</time></trkpt><trkpt lat="39.7225957" lon="16.4429775"><ele>7.0</ele><time>2026-05-03T09:40:46.623Z</time></trkpt><trkpt lat="39.722549" lon="16.4431933"><ele>7.0</ele><time>2026-05-03T09:40:47.6Z</time></trkpt><trkpt lat="39.7225038" lon="16.4434086"><ele>7.0</ele><time>2026-05-03T09:40:48.611Z</time></trkpt><trkpt lat="39.7224237" lon="16.4438398"><ele>7.0</ele><time>2026-05-03T09:40:50.604Z</time></trkpt><trkpt lat="39.7223889" lon="16.4440602"><ele>7.0</ele><time>2026-05-03T09:40:51.606Z</time></trkpt><trkpt lat="39.7223191" lon="16.4445173"><ele>7.0</ele><time>2026-05-03T09:40:53.61Z</time></trkpt><trkpt lat="39.7222886" lon="16.4447511"><ele>7.0</ele><time>2026-05-03T09:40:54.601Z</time></trkpt><trkpt lat="39.7222677" lon="16.4449875"><ele>7.0</ele><time>2026-05-03T09:40:55.591Z</time></trkpt><trkpt lat="39.7222474" lon="16.4452237"><ele>7.0</ele><time>2026-05-03T09:40:56.592Z</time></trkpt><trkpt lat="39.7222321" lon="16.4454675"><ele>7.0</ele><time>2026-05-03T09:40:57.606Z</time></trkpt><trkpt lat="39.7222221" lon="16.4457153"><ele>7.0</ele><time>2026-05-03T09:40:58.607Z</time></trkpt><trkpt lat="39.7222173" lon="16.4459574"><ele>7.0</ele><time>2026-05-03T09:40:59.593Z</time></trkpt><trkpt lat="39.7222147" lon="16.446203"><ele>7.0</ele><time>2026-05-03T09:41:00.624Z</time></trkpt><trkpt lat="39.7222161" lon="16.4464516"><ele>7.0</ele><time>2026-05-03T09:41:01.621Z</time></trkpt><trkpt lat="39.7222232" lon="16.4467021"><ele>7.0</ele><time>2026-05-03T09:41:02.602Z</time></trkpt><trkpt lat="39.7222276" lon="16.4469501"><ele>7.0</ele><time>2026-05-03T09:41:03.599Z</time></trkpt><trkpt lat="39.7222354" lon="16.4471939"><ele>7.0</ele><time>2026-05-03T09:41:04.617Z</time></trkpt><trkpt lat="39.722243" lon="16.4474129"><ele>6.75</ele><time>2026-05-03T09:41:05.603Z</time></trkpt><trkpt lat="39.7222555" lon="16.4476006"><ele>6.5</ele><time>2026-05-03T09:41:06.606Z</time></trkpt><trkpt lat="39.7222684" lon="16.4477683"><ele>6.25</ele><time>2026-05-03T09:41:07.612Z</time></trkpt><trkpt lat="39.7222726" lon="16.4479031"><ele>6.0</ele><time>2026-05-03T09:41:08.616Z</time></trkpt><trkpt lat="39.7222722" lon="16.4480206"><ele>6.0</ele><time>2026-05-03T09:41:09.611Z</time></trkpt><trkpt lat="39.722263" lon="16.4481162"><ele>6.0</ele><time>2026-05-03T09:41:10.628Z</time></trkpt><trkpt lat="39.7222442" lon="16.4482051"><ele>6.0</ele><time>2026-05-03T09:41:11.614Z</time></trkpt><trkpt lat="39.7222137" lon="16.4482924"><ele>6.0</ele><time>2026-05-03T09:41:12.614Z</time></trkpt><trkpt lat="39.722167" lon="16.4483837"><ele>6.0</ele><time>2026-05-03T09:41:13.626Z</time></trkpt><trkpt lat="39.7220973" lon="16.4484603"><ele>6.0</ele><time>2026-05-03T09:41:14.607Z</time></trkpt><trkpt lat="39.7220109" lon="16.4485211"><ele>6.0</ele><time>2026-05-03T09:41:15.633Z</time></trkpt><trkpt lat="39.721907" lon="16.4485737"><ele>6.0</ele><time>2026-05-03T09:41:16.613Z</time></trkpt><trkpt lat="39.7217898" lon="16.4486266"><ele>6.0</ele><time>2026-05-03T09:41:17.615Z</time></trkpt><trkpt lat="39.72167" lon="16.4486775"><ele>6.0</ele><time>2026-05-03T09:41:18.615Z</time></trkpt><trkpt lat="39.7215404" lon="16.4487257"><ele>6.0</ele><time>2026-05-03T09:41:19.625Z</time></trkpt><trkpt lat="39.7214052" lon="16.4487643"><ele>6.0</ele><time>2026-05-03T09:41:20.628Z</time></trkpt><trkpt lat="39.7212607" lon="16.4487957"><ele>6.0</ele><time>2026-05-03T09:41:21.623Z</time></trkpt><trkpt lat="39.7211113" lon="16.4488304"><ele>6.0</ele><time>2026-05-03T09:41:22.621Z</time></trkpt><trkpt lat="39.72095" lon="16.448867"><ele>6.0</ele><time>2026-05-03T09:41:23.63Z</time></trkpt><trkpt lat="39.7207857" lon="16.4489029"><ele>6.0</ele><time>2026-05-03T09:41:24.626Z</time></trkpt><trkpt lat="39.7206186" lon="16.4489392"><ele>6.0</ele><time>2026-05-03T09:41:25.614Z</time></trkpt><trkpt lat="39.7204431" lon="16.4489781"><ele>6.0</ele><time>2026-05-03T09:41:26.638Z</time></trkpt><trkpt lat="39.7202602" lon="16.4490136"><ele>6.0</ele><time>2026-05-03T09:41:27.622Z</time></trkpt><trkpt lat="39.7200737" lon="16.4490483"><ele>6.0</ele><time>2026-05-03T09:41:28.637Z</time></trkpt><trkpt lat="39.7198839" lon="16.4490893"><ele>6.0</ele><time>2026-05-03T09:41:29.635Z</time></trkpt><trkpt lat="39.7196891" lon="16.4491331"><ele>6.0</ele><time>2026-05-03T09:41:30.614Z</time></trkpt><trkpt lat="39.7194901" lon="16.4491795"><ele>6.0</ele><time>2026-05-03T09:41:31.611Z</time></trkpt><trkpt lat="39.7192942" lon="16.4492275"><ele>6.0</ele><time>2026-05-03T09:41:32.613Z</time></trkpt><trkpt lat="39.7190988" lon="16.4492681"><ele>6.0</ele><time>2026-05-03T09:41:33.616Z</time></trkpt><trkpt lat="39.7189028" lon="16.4493103"><ele>6.0</ele><time>2026-05-03T09:41:34.618Z</time></trkpt><trkpt lat="39.7187048" lon="16.4493525"><ele>6.333333333333334</ele><time>2026-05-03T09:41:35.597Z</time></trkpt><trkpt lat="39.7185093" lon="16.4493943"><ele>6.666666666666667</ele><time>2026-05-03T09:41:36.622Z</time></trkpt><trkpt lat="39.7183132" lon="16.4494395"><ele>7.0</ele><time>2026-05-03T09:41:37.611Z</time></trkpt><trkpt lat="39.7181175" lon="16.4494803"><ele>7.0</ele><time>2026-05-03T09:41:38.625Z</time></trkpt><trkpt lat="39.71792" lon="16.449521"><ele>7.0</ele><time>2026-05-03T09:41:39.621Z</time></trkpt><trkpt lat="39.7177222" lon="16.4495622"><ele>7.0</ele><time>2026-05-03T09:41:40.615Z</time></trkpt><trkpt lat="39.717523" lon="16.4496061"><ele>7.0</ele><time>2026-05-03T09:41:41.601Z</time></trkpt><trkpt lat="39.7173237" lon="16.4496526"><ele>7.0</ele><time>2026-05-03T09:41:42.615Z</time></trkpt><trkpt lat="39.7171289" lon="16.4496949"><ele>7.0</ele><time>2026-05-03T09:41:43.628Z</time></trkpt><trkpt lat="39.7169368" lon="16.4497344"><ele>7.0</ele><time>2026-05-03T09:41:44.623Z</time></trkpt><trkpt lat="39.7167434" lon="16.4497785"><ele>7.0</ele><time>2026-05-03T09:41:45.628Z</time></trkpt><trkpt lat="39.7165506" lon="16.449824"><ele>7.0</ele><time>2026-05-03T09:41:46.625Z</time></trkpt><trkpt lat="39.716357" lon="16.4498674"><ele>7.0</ele><time>2026-05-03T09:41:47.621Z</time></trkpt><trkpt lat="39.7161616" lon="16.4499093"><ele>7.0</ele><time>2026-05-03T09:41:48.642Z</time></trkpt><trkpt lat="39.7159703" lon="16.4499498"><ele>7.0</ele><time>2026-05-03T09:41:49.621Z</time></trkpt><trkpt lat="39.7157774" lon="16.4499953"><ele>7.0</ele><time>2026-05-03T09:41:50.622Z</time></trkpt><trkpt lat="39.715584" lon="16.4500383"><ele>7.0</ele><time>2026-05-03T09:41:51.621Z</time></trkpt><trkpt lat="39.7153919" lon="16.4500844"><ele>7.0</ele><time>2026-05-03T09:41:52.628Z</time></trkpt><trkpt lat="39.7151963" lon="16.4501274"><ele>7.0</ele><time>2026-05-03T09:41:53.622Z</time></trkpt><trkpt lat="39.7150039" lon="16.4501711"><ele>7.0</ele><time>2026-05-03T09:41:54.624Z</time></trkpt><trkpt lat="39.7148087" lon="16.450216"><ele>7.0</ele><time>2026-05-03T09:41:55.616Z</time></trkpt><trkpt lat="39.7146121" lon="16.4502562"><ele>7.0</ele><time>2026-05-03T09:41:56.619Z</time></trkpt><trkpt lat="39.7144154" lon="16.450296"><ele>7.0</ele><time>2026-05-03T09:41:57.622Z</time></trkpt><trkpt lat="39.7142168" lon="16.4503407"><ele>7.0</ele><time>2026-05-03T09:41:58.622Z</time></trkpt><trkpt lat="39.7140144" lon="16.450385"><ele>7.0</ele><time>2026-05-03T09:41:59.624Z</time></trkpt><trkpt lat="39.7138107" lon="16.4504305"><ele>7.0</ele><time>2026-05-03T09:42:00.602Z</time></trkpt><trkpt lat="39.7136046" lon="16.4504745"><ele>7.0</ele><time>2026-05-03T09:42:01.622Z</time></trkpt><trkpt lat="39.7133975" lon="16.4505222"><ele>7.0</ele><time>2026-05-03T09:42:02.618Z</time></trkpt><trkpt lat="39.7131869" lon="16.4505667"><ele>7.0</ele><time>2026-05-03T09:42:03.618Z</time></trkpt><trkpt lat="39.7129765" lon="16.4506137"><ele>7.0</ele><time>2026-05-03T09:42:04.619Z</time></trkpt><trkpt lat="39.7127637" lon="16.4506584"><ele>7.0</ele><time>2026-05-03T09:42:05.618Z</time></trkpt><trkpt lat="39.7125499" lon="16.4507019"><ele>7.0</ele><time>2026-05-03T09:42:06.621Z</time></trkpt><trkpt lat="39.7123364" lon="16.4507458"><ele>7.0</ele><time>2026-05-03T09:42:07.621Z</time></trkpt><trkpt lat="39.7121241" lon="16.4507923"><ele>7.0</ele><time>2026-05-03T09:42:08.626Z</time></trkpt><trkpt lat="39.7119109" lon="16.4508416"><ele>7.0</ele><time>2026-05-03T09:42:09.616Z</time></trkpt><trkpt lat="39.7116975" lon="16.4508924"><ele>7.0</ele><time>2026-05-03T09:42:10.631Z</time></trkpt><trkpt lat="39.7114832" lon="16.4509383"><ele>7.0</ele><time>2026-05-03T09:42:11.631Z</time></trkpt><trkpt lat="39.7112695" lon="16.4509824"><ele>7.0</ele><time>2026-05-03T09:42:12.62Z</time></trkpt><trkpt lat="39.7110559" lon="16.4510296"><ele>7.0</ele><time>2026-05-03T09:42:13.612Z</time></trkpt><trkpt lat="39.7108409" lon="16.4510819"><ele>7.333333333333334</ele><time>2026-05-03T09:42:14.62Z</time></trkpt><trkpt lat="39.7106242" lon="16.4511294"><ele>7.666666666666666</ele><time>2026-05-03T09:42:15.62Z</time></trkpt><trkpt lat="39.7104079" lon="16.4511769"><ele>8.0</ele><time>2026-05-03T09:42:16.624Z</time></trkpt><trkpt lat="39.7101916" lon="16.4512223"><ele>8.333333333333332</ele><time>2026-05-03T09:42:17.627Z</time></trkpt><trkpt lat="39.709975" lon="16.4512712"><ele>8.666666666666666</ele><time>2026-05-03T09:42:18.627Z</time></trkpt><trkpt lat="39.7097609" lon="16.4513197"><ele>9.0</ele><time>2026-05-03T09:42:19.624Z</time></trkpt><trkpt lat="39.7095506" lon="16.4513655"><ele>8.666666666666666</ele><time>2026-05-03T09:42:20.639Z</time></trkpt><trkpt lat="39.7093439" lon="16.4514083"><ele>8.333333333333332</ele><time>2026-05-03T09:42:21.618Z</time></trkpt><trkpt lat="39.7091442" lon="16.4514509"><ele>8.0</ele><time>2026-05-03T09:42:22.614Z</time></trkpt><trkpt lat="39.7089492" lon="16.4514943"><ele>8.0</ele><time>2026-05-03T09:42:23.619Z</time></trkpt><trkpt lat="39.7087567" lon="16.4515371"><ele>8.0</ele><time>2026-05-03T09:42:24.621Z</time></trkpt><trkpt lat="39.7085653" lon="16.4515823"><ele>8.0</ele><time>2026-05-03T09:42:25.624Z</time></trkpt><trkpt lat="39.7083732" lon="16.4516277"><ele>7.666666666666666</ele><time>2026-05-03T09:42:26.627Z</time></trkpt><trkpt lat="39.7081819" lon="16.451669"><ele>7.333333333333334</ele><time>2026-05-03T09:42:27.616Z</time></trkpt><trkpt lat="39.7079898" lon="16.4517093"><ele>7.0</ele><time>2026-05-03T09:42:28.63Z</time></trkpt><trkpt lat="39.7077968" lon="16.451745"><ele>7.666666666666667</ele><time>2026-05-03T09:42:29.624Z</time></trkpt><trkpt lat="39.7076028" lon="16.4517884"><ele>8.333333333333334</ele><time>2026-05-03T09:42:30.628Z</time></trkpt><trkpt lat="39.7074067" lon="16.4518369"><ele>9.0</ele><time>2026-05-03T09:42:31.622Z</time></trkpt><trkpt lat="39.7072129" lon="16.4518839"><ele>9.0</ele><time>2026-05-03T09:42:32.62Z</time></trkpt><trkpt lat="39.7070157" lon="16.4519267"><ele>9.0</ele><time>2026-05-03T09:42:33.631Z</time></trkpt><trkpt lat="39.7068176" lon="16.4519692"><ele>9.0</ele><time>2026-05-03T09:42:34.614Z</time></trkpt><trkpt lat="39.7066206" lon="16.4520114"><ele>9.0</ele><time>2026-05-03T09:42:35.608Z</time></trkpt><trkpt lat="39.7064228" lon="16.4520535"><ele>9.0</ele><time>2026-05-03T09:42:36.62Z</time></trkpt><trkpt lat="39.7062213" lon="16.4521011"><ele>9.0</ele><time>2026-05-03T09:42:37.621Z</time></trkpt><trkpt lat="39.7060218" lon="16.452149"><ele>9.333333333333334</ele><time>2026-05-03T09:42:38.632Z</time></trkpt><trkpt lat="39.7058177" lon="16.4521963"><ele>9.666666666666668</ele><time>2026-05-03T09:42:39.611Z</time></trkpt><trkpt lat="39.7056121" lon="16.4522385"><ele>10.0</ele><time>2026-05-03T09:42:40.611Z</time></trkpt><trkpt lat="39.705405" lon="16.4522776"><ele>10.0</ele><time>2026-05-03T09:42:41.624Z</time></trkpt><trkpt lat="39.7051978" lon="16.4523188"><ele>10.0</ele><time>2026-05-03T09:42:42.626Z</time></trkpt><trkpt lat="39.7049914" lon="16.4523606"><ele>10.0</ele><time>2026-05-03T09:42:43.614Z</time></trkpt><trkpt lat="39.7047859" lon="16.45241"><ele>10.0</ele><time>2026-05-03T09:42:44.623Z</time></trkpt><trkpt lat="39.7045799" lon="16.4524633"><ele>10.0</ele><time>2026-05-03T09:42:45.605Z</time></trkpt><trkpt lat="39.7043738" lon="16.4525125"><ele>10.0</ele><time>2026-05-03T09:42:46.633Z</time></trkpt><trkpt lat="39.7041671" lon="16.4525592"><ele>9.666666666666668</ele><time>2026-05-03T09:42:47.615Z</time></trkpt><trkpt lat="39.7039669" lon="16.4526009"><ele>9.333333333333334</ele><time>2026-05-03T09:42:48.618Z</time></trkpt><trkpt lat="39.7037781" lon="16.4526387"><ele>9.0</ele><time>2026-05-03T09:42:49.629Z</time></trkpt><trkpt lat="39.7035933" lon="16.4526756"><ele>9.0</ele><time>2026-05-03T09:42:50.635Z</time></trkpt><trkpt lat="39.7034095" lon="16.4527118"><ele>9.0</ele><time>2026-05-03T09:42:51.629Z</time></trkpt><trkpt lat="39.7032239" lon="16.4527391"><ele>9.0</ele><time>2026-05-03T09:42:52.628Z</time></trkpt><trkpt lat="39.7030372" lon="16.4527585"><ele>9.0</ele><time>2026-05-03T09:42:53.622Z</time></trkpt><trkpt lat="39.7028487" lon="16.4527738"><ele>9.0</ele><time>2026-05-03T09:42:54.624Z</time></trkpt><trkpt lat="39.7026587" lon="16.452786"><ele>9.0</ele><time>2026-05-03T09:42:55.624Z</time></trkpt><trkpt lat="39.702465" lon="16.4527931"><ele>9.333333333333334</ele><time>2026-05-03T09:42:56.623Z</time></trkpt><trkpt lat="39.702267" lon="16.4528004"><ele>9.666666666666668</ele><time>2026-05-03T09:42:57.619Z</time></trkpt><trkpt lat="39.7020673" lon="16.452805"><ele>10.0</ele><time>2026-05-03T09:42:58.623Z</time></trkpt><trkpt lat="39.7018651" lon="16.452809"><ele>10.333333333333334</ele><time>2026-05-03T09:42:59.593Z</time></trkpt><trkpt lat="39.701663" lon="16.4528093"><ele>10.666666666666666</ele><time>2026-05-03T09:43:00.62Z</time></trkpt><trkpt lat="39.7014609" lon="16.4528011"><ele>11.0</ele><time>2026-05-03T09:43:01.611Z</time></trkpt><trkpt lat="39.7012629" lon="16.4527916"><ele>11.666666666666666</ele><time>2026-05-03T09:43:02.615Z</time></trkpt><trkpt lat="39.7010693" lon="16.4527903"><ele>12.333333333333332</ele><time>2026-05-03T09:43:03.621Z</time></trkpt><trkpt lat="39.7008781" lon="16.4527874"><ele>13.0</ele><time>2026-05-03T09:43:04.623Z</time></trkpt><trkpt lat="39.7006866" lon="16.452781"><ele>13.0</ele><time>2026-05-03T09:43:05.623Z</time></trkpt><trkpt lat="39.7004945" lon="16.4527769"><ele>13.0</ele><time>2026-05-03T09:43:06.619Z</time></trkpt><trkpt lat="39.7002992" lon="16.4527661"><ele>13.0</ele><time>2026-05-03T09:43:07.613Z</time></trkpt><trkpt lat="39.7000987" lon="16.452755"><ele>13.333333333333332</ele><time>2026-05-03T09:43:08.611Z</time></trkpt><trkpt lat="39.6998973" lon="16.4527475"><ele>13.666666666666668</ele><time>2026-05-03T09:43:09.615Z</time></trkpt><trkpt lat="39.6996954" lon="16.4527433"><ele>14.0</ele><time>2026-05-03T09:43:10.615Z</time></trkpt><trkpt lat="39.6994916" lon="16.4527375"><ele>13.333333333333334</ele><time>2026-05-03T09:43:11.625Z</time></trkpt><trkpt lat="39.699289" lon="16.4527343"><ele>12.666666666666668</ele><time>2026-05-03T09:43:12.621Z</time></trkpt><trkpt lat="39.6990858" lon="16.4527303"><ele>12.0</ele><time>2026-05-03T09:43:13.617Z</time></trkpt><trkpt lat="39.6988829" lon="16.4527273"><ele>12.0</ele><time>2026-05-03T09:43:14.623Z</time></trkpt><trkpt lat="39.6986791" lon="16.4527211"><ele>12.0</ele><time>2026-05-03T09:43:15.615Z</time></trkpt><trkpt lat="39.6984805" lon="16.4527132"><ele>12.0</ele><time>2026-05-03T09:43:16.621Z</time></trkpt><trkpt lat="39.6982848" lon="16.4527046"><ele>11.666666666666666</ele><time>2026-05-03T09:43:17.607Z</time></trkpt><trkpt lat="39.6980901" lon="16.4527021"><ele>11.333333333333332</ele><time>2026-05-03T09:43:18.635Z</time></trkpt><trkpt lat="39.6978964" lon="16.4526995"><ele>11.0</ele><time>2026-05-03T09:43:19.617Z</time></trkpt><trkpt lat="39.6977017" lon="16.4526974"><ele>11.0</ele><time>2026-05-03T09:43:20.621Z</time></trkpt><trkpt lat="39.6975043" lon="16.4526962"><ele>11.0</ele><time>2026-05-03T09:43:21.621Z</time></trkpt><trkpt lat="39.6973057" lon="16.4526925"><ele>11.0</ele><time>2026-05-03T09:43:22.63Z</time></trkpt><trkpt lat="39.6971076" lon="16.4526817"><ele>10.666666666666666</ele><time>2026-05-03T09:43:23.616Z</time></trkpt><trkpt lat="39.6969096" lon="16.4526712"><ele>10.333333333333334</ele><time>2026-05-03T09:43:24.62Z</time></trkpt><trkpt lat="39.696711" lon="16.4526644"><ele>10.0</ele><time>2026-05-03T09:43:25.622Z</time></trkpt><trkpt lat="39.6965114" lon="16.4526623"><ele>10.0</ele><time>2026-05-03T09:43:26.618Z</time></trkpt><trkpt lat="39.6963092" lon="16.4526569"><ele>10.0</ele><time>2026-05-03T09:43:27.623Z</time></trkpt><trkpt lat="39.6961074" lon="16.4526504"><ele>10.0</ele><time>2026-05-03T09:43:28.629Z</time></trkpt><trkpt lat="39.6959038" lon="16.4526442"><ele>11.0</ele><time>2026-05-03T09:43:29.608Z</time></trkpt><trkpt lat="39.6956983" lon="16.4526401"><ele>12.0</ele><time>2026-05-03T09:43:30.618Z</time></trkpt><trkpt lat="39.6954925" lon="16.4526343"><ele>13.0</ele><time>2026-05-03T09:43:31.615Z</time></trkpt><trkpt lat="39.6952843" lon="16.4526301"><ele>12.333333333333332</ele><time>2026-05-03T09:43:32.628Z</time></trkpt><trkpt lat="39.6950755" lon="16.452625"><ele>11.666666666666666</ele><time>2026-05-03T09:43:33.618Z</time></trkpt><trkpt lat="39.6948665" lon="16.4526207"><ele>11.0</ele><time>2026-05-03T09:43:34.62Z</time></trkpt><trkpt lat="39.6946593" lon="16.4526155"><ele>11.0</ele><time>2026-05-03T09:43:35.626Z</time></trkpt><trkpt lat="39.6944594" lon="16.4526111"><ele>11.0</ele><time>2026-05-03T09:43:36.624Z</time></trkpt><trkpt lat="39.6942714" lon="16.4525993"><ele>11.0</ele><time>2026-05-03T09:43:37.626Z</time></trkpt><trkpt lat="39.6940871" lon="16.4525899"><ele>11.0</ele><time>2026-05-03T09:43:38.622Z</time></trkpt><trkpt lat="39.6939049" lon="16.4525838"><ele>11.0</ele><time>2026-05-03T09:43:39.629Z</time></trkpt><trkpt lat="39.6937201" lon="16.4525837"><ele>11.0</ele><time>2026-05-03T09:43:40.613Z</time></trkpt><trkpt lat="39.6935339" lon="16.4525801"><ele>11.0</ele><time>2026-05-03T09:43:41.613Z</time></trkpt><trkpt lat="39.6933476" lon="16.4525721"><ele>11.0</ele><time>2026-05-03T09:43:42.63Z</time></trkpt><trkpt lat="39.6931637" lon="16.4525683"><ele>11.0</ele><time>2026-05-03T09:43:43.615Z</time></trkpt><trkpt lat="39.6929798" lon="16.4525663"><ele>11.0</ele><time>2026-05-03T09:43:44.627Z</time></trkpt><trkpt lat="39.692796" lon="16.4525616"><ele>11.0</ele><time>2026-05-03T09:43:45.633Z</time></trkpt><trkpt lat="39.6926112" lon="16.4525529"><ele>11.0</ele><time>2026-05-03T09:43:46.615Z</time></trkpt><trkpt lat="39.6924272" lon="16.452548"><ele>11.0</ele><time>2026-05-03T09:43:47.614Z</time></trkpt><trkpt lat="39.692243" lon="16.4525414"><ele>11.0</ele><time>2026-05-03T09:43:48.621Z</time></trkpt><trkpt lat="39.6920592" lon="16.4525366"><ele>11.0</ele><time>2026-05-03T09:43:49.621Z</time></trkpt><trkpt lat="39.6918727" lon="16.4525282"><ele>10.666666666666666</ele><time>2026-05-03T09:43:50.618Z</time></trkpt><trkpt lat="39.6916851" lon="16.4525222"><ele>10.333333333333334</ele><time>2026-05-03T09:43:51.627Z</time></trkpt><trkpt lat="39.6914971" lon="16.4525183"><ele>10.0</ele><time>2026-05-03T09:43:52.621Z</time></trkpt><trkpt lat="39.6913085" lon="16.4525142"><ele>10.0</ele><time>2026-05-03T09:43:53.618Z</time></trkpt><trkpt lat="39.691117" lon="16.4525101"><ele>10.0</ele><time>2026-05-03T09:43:54.623Z</time></trkpt><trkpt lat="39.6909226" lon="16.4525078"><ele>10.0</ele><time>2026-05-03T09:43:55.623Z</time></trkpt><trkpt lat="39.6907271" lon="16.4525043"><ele>10.333333333333334</ele><time>2026-05-03T09:43:56.622Z</time></trkpt><trkpt lat="39.6905279" lon="16.4524988"><ele>10.666666666666666</ele><time>2026-05-03T09:43:57.619Z</time></trkpt><trkpt lat="39.6903285" lon="16.4524942"><ele>11.0</ele><time>2026-05-03T09:43:58.621Z</time></trkpt><trkpt lat="39.6901276" lon="16.4524875"><ele>11.0</ele><time>2026-05-03T09:43:59.621Z</time></trkpt><trkpt lat="39.6899261" lon="16.4524818"><ele>11.0</ele><time>2026-05-03T09:44:00.619Z</time></trkpt><trkpt lat="39.6897232" lon="16.4524789"><ele>11.0</ele><time>2026-05-03T09:44:01.613Z</time></trkpt><trkpt lat="39.6895186" lon="16.4524735"><ele>11.0</ele><time>2026-05-03T09:44:02.619Z</time></trkpt><trkpt lat="39.6893139" lon="16.4524666"><ele>11.0</ele><time>2026-05-03T09:44:03.617Z</time></trkpt><trkpt lat="39.6891103" lon="16.4524612"><ele>11.0</ele><time>2026-05-03T09:44:04.629Z</time></trkpt><trkpt lat="39.6889038" lon="16.4524557"><ele>11.0</ele><time>2026-05-03T09:44:05.629Z</time></trkpt><trkpt lat="39.6887026" lon="16.4524517"><ele>11.0</ele><time>2026-05-03T09:44:06.63Z</time></trkpt><trkpt lat="39.6885021" lon="16.4524443"><ele>11.0</ele><time>2026-05-03T09:44:07.616Z</time></trkpt><trkpt lat="39.6883197" lon="16.4524388"><ele>10.75</ele><time>2026-05-03T09:44:08.62Z</time></trkpt><trkpt lat="39.6881561" lon="16.4524325"><ele>10.5</ele><time>2026-05-03T09:44:09.615Z</time></trkpt><trkpt lat="39.6880126" lon="16.4524274"><ele>10.25</ele><time>2026-05-03T09:44:10.629Z</time></trkpt><trkpt lat="39.6878863" lon="16.4524254"><ele>10.0</ele><time>2026-05-03T09:44:11.622Z</time></trkpt><trkpt lat="39.687772" lon="16.4524192"><ele>9.6</ele><time>2026-05-03T09:44:12.616Z</time></trkpt><trkpt lat="39.6876669" lon="16.452414"><ele>9.2</ele><time>2026-05-03T09:44:13.616Z</time></trkpt><trkpt lat="39.6875756" lon="16.4524049"><ele>8.8</ele><time>2026-05-03T09:44:14.624Z</time></trkpt><trkpt lat="39.6874982" lon="16.4523956"><ele>8.4</ele><time>2026-05-03T09:44:15.616Z</time></trkpt><trkpt lat="39.6874322" lon="16.4523899"><ele>8.0</ele><time>2026-05-03T09:44:16.634Z</time></trkpt><trkpt lat="39.6873096" lon="16.452384"><ele>8.0</ele><time>2026-05-03T09:44:18.618Z</time></trkpt><trkpt lat="39.6872333" lon="16.4523792"><ele>8.0</ele><time>2026-05-03T09:44:19.637Z</time></trkpt><trkpt lat="39.6871401" lon="16.4523744"><ele>8.0</ele><time>2026-05-03T09:44:20.61Z</time></trkpt><trkpt lat="39.687035" lon="16.45237"><ele>8.0</ele><time>2026-05-03T09:44:21.627Z</time></trkpt><trkpt lat="39.6869163" lon="16.4523669"><ele>8.0</ele><time>2026-05-03T09:44:22.618Z</time></trkpt><trkpt lat="39.6867825" lon="16.4523591"><ele>8.200000000000001</ele><time>2026-05-03T09:44:23.625Z</time></trkpt><trkpt lat="39.6866469" lon="16.4523485"><ele>8.4</ele><time>2026-05-03T09:44:24.632Z</time></trkpt><trkpt lat="39.6865188" lon="16.4523402"><ele>8.600000000000001</ele><time>2026-05-03T09:44:25.61Z</time></trkpt><trkpt lat="39.6864154" lon="16.4523299"><ele>8.8</ele><time>2026-05-03T09:44:26.625Z</time></trkpt><trkpt lat="39.6863423" lon="16.452319"><ele>9.0</ele><time>2026-05-03T09:44:27.616Z</time></trkpt><trkpt lat="39.6862633" lon="16.4523118"><ele>9.0</ele><time>2026-05-03T09:44:29.605Z</time></trkpt><trkpt lat="39.6863238" lon="16.452355"><ele>9.0</ele><time>2026-05-03T09:45:04.605Z</time></trkpt><trkpt lat="39.6864533" lon="16.4523492"><ele>9.0</ele><time>2026-05-03T09:45:06.625Z</time></trkpt><trkpt lat="39.686533" lon="16.4523628"><ele>9.0</ele><time>2026-05-03T09:45:07.615Z</time></trkpt><trkpt lat="39.686617" lon="16.4523735"><ele>9.0</ele><time>2026-05-03T09:45:08.629Z</time></trkpt><trkpt lat="39.6866862" lon="16.452384"><ele>9.0</ele><time>2026-05-03T09:45:09.613Z</time></trkpt><trkpt lat="39.6868034" lon="16.4524014"><ele>9.0</ele><time>2026-05-03T09:45:11.615Z</time></trkpt><trkpt lat="39.6868692" lon="16.4524091"><ele>9.0</ele><time>2026-05-03T09:45:12.623Z</time></trkpt><trkpt lat="39.6869452" lon="16.4524132"><ele>9.0</ele><time>2026-05-03T09:45:13.61Z</time></trkpt><trkpt lat="39.6870267" lon="16.4524156"><ele>9.0</ele><time>2026-05-03T09:45:14.611Z</time></trkpt><trkpt lat="39.6870995" lon="16.4524218"><ele>9.0</ele><time>2026-05-03T09:45:15.614Z</time></trkpt><trkpt lat="39.6871623" lon="16.4524331"><ele>9.0</ele><time>2026-05-03T09:45:16.626Z</time></trkpt><trkpt lat="39.6872449" lon="16.4524952"><ele>8.833333333333334</ele><time>2026-05-03T09:45:18.612Z</time></trkpt><trkpt lat="39.6873191" lon="16.4525185"><ele>8.666666666666666</ele><time>2026-05-03T09:45:20.623Z</time></trkpt><trkpt lat="39.6873672" lon="16.4524511"><ele>8.5</ele><time>2026-05-03T09:45:22.602Z</time></trkpt><trkpt lat="39.6873245" lon="16.4523709"><ele>8.333333333333332</ele><time>2026-05-03T09:45:24.62Z</time></trkpt><trkpt lat="39.6872291" lon="16.4523767"><ele>8.166666666666666</ele><time>2026-05-03T09:45:26.623Z</time></trkpt><trkpt lat="39.6871129" lon="16.4523778"><ele>8.0</ele><time>2026-05-03T09:45:28.627Z</time></trkpt><trkpt lat="39.6869867" lon="16.4523571"><ele>8.166666666666666</ele><time>2026-05-03T09:45:30.616Z</time></trkpt><trkpt lat="39.6868771" lon="16.4523342"><ele>8.333333333333332</ele><time>2026-05-03T09:45:32.625Z</time></trkpt><trkpt lat="39.6868021" lon="16.45234"><ele>8.5</ele><time>2026-05-03T09:45:47.619Z</time></trkpt><trkpt lat="39.6867097" lon="16.4523387"><ele>8.666666666666666</ele><time>2026-05-03T09:45:49.605Z</time></trkpt><trkpt lat="39.6866347" lon="16.4523389"><ele>8.833333333333334</ele><time>2026-05-03T09:45:50.641Z</time></trkpt><trkpt lat="39.6865548" lon="16.4523342"><ele>9.0</ele><time>2026-05-03T09:45:51.613Z</time></trkpt><trkpt lat="39.6864671" lon="16.4523295"><ele>9.0</ele><time>2026-05-03T09:45:52.615Z</time></trkpt><trkpt lat="39.6863755" lon="16.4523256"><ele>9.0</ele><time>2026-05-03T09:45:53.625Z</time></trkpt><trkpt lat="39.6862783" lon="16.4523229"><ele>9.0</ele><time>2026-05-03T09:45:54.628Z</time></trkpt><trkpt lat="39.6861711" lon="16.4523189"><ele>9.0</ele><time>2026-05-03T09:45:55.622Z</time></trkpt><trkpt lat="39.6860572" lon="16.4523073"><ele>9.0</ele><time>2026-05-03T09:45:56.62Z</time></trkpt><trkpt lat="39.6859355" lon="16.4522961"><ele>9.75</ele><time>2026-05-03T09:45:57.62Z</time></trkpt><trkpt lat="39.6858061" lon="16.4522858"><ele>10.5</ele><time>2026-05-03T09:45:58.636Z</time></trkpt><trkpt lat="39.6856755" lon="16.4522826"><ele>11.25</ele><time>2026-05-03T09:45:59.622Z</time></trkpt><trkpt lat="39.685541" lon="16.4522767"><ele>12.0</ele><time>2026-05-03T09:46:00.623Z</time></trkpt><trkpt lat="39.6854022" lon="16.4522659"><ele>12.25</ele><time>2026-05-03T09:46:01.618Z</time></trkpt><trkpt lat="39.6852605" lon="16.4522549"><ele>12.5</ele><time>2026-05-03T09:46:02.618Z</time></trkpt><trkpt lat="39.6851179" lon="16.4522437"><ele>12.75</ele><time>2026-05-03T09:46:03.622Z</time></trkpt><trkpt lat="39.6849711" lon="16.4522346"><ele>13.0</ele><time>2026-05-03T09:46:04.617Z</time></trkpt><trkpt lat="39.6848261" lon="16.4522212"><ele>13.0</ele><time>2026-05-03T09:46:05.619Z</time></trkpt><trkpt lat="39.6846878" lon="16.4522086"><ele>13.0</ele><time>2026-05-03T09:46:06.626Z</time></trkpt><trkpt lat="39.6845566" lon="16.4521952"><ele>13.0</ele><time>2026-05-03T09:46:07.638Z</time></trkpt><trkpt lat="39.6844306" lon="16.4521839"><ele>13.0</ele><time>2026-05-03T09:46:08.619Z</time></trkpt><trkpt lat="39.6843002" lon="16.4521743"><ele>13.75</ele><time>2026-05-03T09:46:09.614Z</time></trkpt><trkpt lat="39.6841679" lon="16.4521657"><ele>14.5</ele><time>2026-05-03T09:46:10.626Z</time></trkpt><trkpt lat="39.6840353" lon="16.4521594"><ele>15.25</ele><time>2026-05-03T09:46:11.621Z</time></trkpt><trkpt lat="39.6838988" lon="16.4521497"><ele>16.0</ele><time>2026-05-03T09:46:12.619Z</time></trkpt><trkpt lat="39.6837596" lon="16.4521395"><ele>16.0</ele><time>2026-05-03T09:46:13.623Z</time></trkpt><trkpt lat="39.68362" lon="16.4521285"><ele>16.0</ele><time>2026-05-03T09:46:14.62Z</time></trkpt><trkpt lat="39.68348" lon="16.4521181"><ele>16.0</ele><time>2026-05-03T09:46:15.625Z</time></trkpt><trkpt lat="39.6833384" lon="16.4521075"><ele>16.0</ele><time>2026-05-03T09:46:16.619Z</time></trkpt><trkpt lat="39.6831945" lon="16.4520966"><ele>15.75</ele><time>2026-05-03T09:46:17.623Z</time></trkpt><trkpt lat="39.6830467" lon="16.4520866"><ele>15.5</ele><time>2026-05-03T09:46:18.629Z</time></trkpt><trkpt lat="39.6828956" lon="16.4520739"><ele>15.25</ele><time>2026-05-03T09:46:19.625Z</time></trkpt><trkpt lat="39.6827499" lon="16.4520612"><ele>15.0</ele><time>2026-05-03T09:46:20.62Z</time></trkpt><trkpt lat="39.682614" lon="16.452052"><ele>15.0</ele><time>2026-05-03T09:46:21.623Z</time></trkpt><trkpt lat="39.6824917" lon="16.4520474"><ele>15.0</ele><time>2026-05-03T09:46:22.609Z</time></trkpt><trkpt lat="39.6823748" lon="16.4520425"><ele>15.0</ele><time>2026-05-03T09:46:23.614Z</time></trkpt><trkpt lat="39.6822641" lon="16.4520322"><ele>15.0</ele><time>2026-05-03T09:46:24.614Z</time></trkpt><trkpt lat="39.6821508" lon="16.4520182"><ele>15.0</ele><time>2026-05-03T09:46:25.629Z</time></trkpt><trkpt lat="39.6820328" lon="16.4520085"><ele>15.0</ele><time>2026-05-03T09:46:26.628Z</time></trkpt><trkpt lat="39.681908" lon="16.4519997"><ele>15.0</ele><time>2026-05-03T09:46:27.621Z</time></trkpt><trkpt lat="39.6817777" lon="16.451995"><ele>15.0</ele><time>2026-05-03T09:46:28.62Z</time></trkpt><trkpt lat="39.681641" lon="16.4519889"><ele>15.0</ele><time>2026-05-03T09:46:29.609Z</time></trkpt><trkpt lat="39.6815024" lon="16.4519734"><ele>15.0</ele><time>2026-05-03T09:46:30.625Z</time></trkpt><trkpt lat="39.6813605" lon="16.451957"><ele>15.0</ele><time>2026-05-03T09:46:31.616Z</time></trkpt><trkpt lat="39.6812174" lon="16.4519472"><ele>15.0</ele><time>2026-05-03T09:46:32.622Z</time></trkpt><trkpt lat="39.6810659" lon="16.4519405"><ele>15.0</ele><time>2026-05-03T09:46:33.609Z</time></trkpt><trkpt lat="39.6809126" lon="16.4519309"><ele>15.0</ele><time>2026-05-03T09:46:34.631Z</time></trkpt><trkpt lat="39.6807563" lon="16.4519187"><ele>15.0</ele><time>2026-05-03T09:46:35.608Z</time></trkpt><trkpt lat="39.6806045" lon="16.4519037"><ele>15.0</ele><time>2026-05-03T09:46:36.621Z</time></trkpt><trkpt lat="39.6804555" lon="16.4518959"><ele>15.0</ele><time>2026-05-03T09:46:37.632Z</time></trkpt><trkpt lat="39.6803039" lon="16.4518896"><ele>15.0</ele><time>2026-05-03T09:46:38.623Z</time></trkpt><trkpt lat="39.680153" lon="16.4518792"><ele>15.666666666666668</ele><time>2026-05-03T09:46:39.621Z</time></trkpt><trkpt lat="39.6800004" lon="16.4518633"><ele>16.333333333333336</ele><time>2026-05-03T09:46:40.619Z</time></trkpt><trkpt lat="39.6798452" lon="16.4518516"><ele>17.0</ele><time>2026-05-03T09:46:41.618Z</time></trkpt><trkpt lat="39.6796862" lon="16.4518409"><ele>17.0</ele><time>2026-05-03T09:46:42.619Z</time></trkpt><trkpt lat="39.6795218" lon="16.4518327"><ele>17.0</ele><time>2026-05-03T09:46:43.615Z</time></trkpt><trkpt lat="39.6793507" lon="16.4518196"><ele>17.0</ele><time>2026-05-03T09:46:44.614Z</time></trkpt><trkpt lat="39.6791771" lon="16.4518047"><ele>16.666666666666668</ele><time>2026-05-03T09:46:45.616Z</time></trkpt><trkpt lat="39.6789989" lon="16.4517905"><ele>16.333333333333332</ele><time>2026-05-03T09:46:46.619Z</time></trkpt><trkpt lat="39.6788266" lon="16.4517804"><ele>16.0</ele><time>2026-05-03T09:46:47.615Z</time></trkpt><trkpt lat="39.6786565" lon="16.451769"><ele>16.666666666666664</ele><time>2026-05-03T09:46:48.624Z</time></trkpt><trkpt lat="39.67848" lon="16.451756"><ele>17.333333333333332</ele><time>2026-05-03T09:46:49.617Z</time></trkpt><trkpt lat="39.6783038" lon="16.4517384"><ele>18.0</ele><time>2026-05-03T09:46:50.62Z</time></trkpt><trkpt lat="39.678127" lon="16.4517239"><ele>18.0</ele><time>2026-05-03T09:46:51.616Z</time></trkpt><trkpt lat="39.6779497" lon="16.4517116"><ele>18.0</ele><time>2026-05-03T09:46:52.611Z</time></trkpt><trkpt lat="39.6777697" lon="16.4517006"><ele>18.0</ele><time>2026-05-03T09:46:53.622Z</time></trkpt><trkpt lat="39.6775888" lon="16.4516865"><ele>17.666666666666668</ele><time>2026-05-03T09:46:54.621Z</time></trkpt><trkpt lat="39.6774062" lon="16.4516697"><ele>17.333333333333336</ele><time>2026-05-03T09:46:55.618Z</time></trkpt><trkpt lat="39.6772217" lon="16.4516575"><ele>17.0</ele><time>2026-05-03T09:46:56.616Z</time></trkpt><trkpt lat="39.6770351" lon="16.4516454"><ele>17.666666666666668</ele><time>2026-05-03T09:46:57.622Z</time></trkpt><trkpt lat="39.6768483" lon="16.4516285"><ele>18.333333333333332</ele><time>2026-05-03T09:46:58.626Z</time></trkpt><trkpt lat="39.676663" lon="16.4516104"><ele>19.0</ele><time>2026-05-03T09:46:59.63Z</time></trkpt><trkpt lat="39.6764779" lon="16.4516034"><ele>19.0</ele><time>2026-05-03T09:47:00.625Z</time></trkpt><trkpt lat="39.6762894" lon="16.4515961"><ele>19.0</ele><time>2026-05-03T09:47:01.613Z</time></trkpt><trkpt lat="39.6761028" lon="16.4515758"><ele>19.0</ele><time>2026-05-03T09:47:02.611Z</time></trkpt><trkpt lat="39.6759136" lon="16.4515582"><ele>19.0</ele><time>2026-05-03T09:47:03.61Z</time></trkpt><trkpt lat="39.6757271" lon="16.4515482"><ele>19.0</ele><time>2026-05-03T09:47:04.623Z</time></trkpt><trkpt lat="39.6755383" lon="16.4515338"><ele>19.0</ele><time>2026-05-03T09:47:05.63Z</time></trkpt><trkpt lat="39.67535" lon="16.4515182"><ele>19.0</ele><time>2026-05-03T09:47:06.628Z</time></trkpt><trkpt lat="39.6751632" lon="16.4515037"><ele>19.0</ele><time>2026-05-03T09:47:07.627Z</time></trkpt><trkpt lat="39.6749786" lon="16.4514915"><ele>19.0</ele><time>2026-05-03T09:47:08.615Z</time></trkpt><trkpt lat="39.6747955" lon="16.45148"><ele>19.0</ele><time>2026-05-03T09:47:09.634Z</time></trkpt><trkpt lat="39.6746143" lon="16.4514696"><ele>19.0</ele><time>2026-05-03T09:47:10.606Z</time></trkpt><trkpt lat="39.6744331" lon="16.4514553"><ele>19.0</ele><time>2026-05-03T09:47:11.619Z</time></trkpt><trkpt lat="39.6742532" lon="16.4514398"><ele>20.0</ele><time>2026-05-03T09:47:12.618Z</time></trkpt><trkpt lat="39.6740741" lon="16.4514215"><ele>21.0</ele><time>2026-05-03T09:47:13.606Z</time></trkpt><trkpt lat="39.6738975" lon="16.4514096"><ele>22.0</ele><time>2026-05-03T09:47:14.62Z</time></trkpt><trkpt lat="39.6737174" lon="16.4514015"><ele>21.0</ele><time>2026-05-03T09:47:15.61Z</time></trkpt><trkpt lat="39.673535" lon="16.4513871"><ele>20.0</ele><time>2026-05-03T09:47:16.622Z</time></trkpt><trkpt lat="39.6733525" lon="16.4513728"><ele>19.0</ele><time>2026-05-03T09:47:17.613Z</time></trkpt><trkpt lat="39.67317" lon="16.4513624"><ele>19.0</ele><time>2026-05-03T09:47:18.618Z</time></trkpt><trkpt lat="39.672988" lon="16.4513489"><ele>19.0</ele><time>2026-05-03T09:47:19.629Z</time></trkpt><trkpt lat="39.6728038" lon="16.4513333"><ele>19.0</ele><time>2026-05-03T09:47:20.615Z</time></trkpt><trkpt lat="39.6726234" lon="16.4513193"><ele>19.333333333333332</ele><time>2026-05-03T09:47:21.628Z</time></trkpt><trkpt lat="39.6724421" lon="16.451307"><ele>19.666666666666668</ele><time>2026-05-03T09:47:22.616Z</time></trkpt><trkpt lat="39.6722611" lon="16.4512968"><ele>20.0</ele><time>2026-05-03T09:47:23.611Z</time></trkpt><trkpt lat="39.6720803" lon="16.4512841"><ele>20.333333333333336</ele><time>2026-05-03T09:47:24.61Z</time></trkpt><trkpt lat="39.6718989" lon="16.4512683"><ele>20.666666666666668</ele><time>2026-05-03T09:47:25.62Z</time></trkpt><trkpt lat="39.6717163" lon="16.451251"><ele>21.0</ele><time>2026-05-03T09:47:26.617Z</time></trkpt><trkpt lat="39.6715343" lon="16.4512379"><ele>21.0</ele><time>2026-05-03T09:47:27.614Z</time></trkpt><trkpt lat="39.6713511" lon="16.4512287"><ele>21.0</ele><time>2026-05-03T09:47:28.615Z</time></trkpt><trkpt lat="39.6711683" lon="16.4512164"><ele>21.0</ele><time>2026-05-03T09:47:29.609Z</time></trkpt><trkpt lat="39.6709884" lon="16.451208"><ele>21.333333333333332</ele><time>2026-05-03T09:47:30.617Z</time></trkpt><trkpt lat="39.6708097" lon="16.4511975"><ele>21.666666666666664</ele><time>2026-05-03T09:47:31.623Z</time></trkpt><trkpt lat="39.6706311" lon="16.4511852"><ele>22.0</ele><time>2026-05-03T09:47:32.61Z</time></trkpt><trkpt lat="39.6704542" lon="16.4511712"><ele>22.0</ele><time>2026-05-03T09:47:33.624Z</time></trkpt><trkpt lat="39.6702772" lon="16.4511575"><ele>22.0</ele><time>2026-05-03T09:47:34.615Z</time></trkpt><trkpt lat="39.6700999" lon="16.4511471"><ele>22.0</ele><time>2026-05-03T09:47:35.616Z</time></trkpt><trkpt lat="39.6699215" lon="16.4511363"><ele>22.666666666666664</ele><time>2026-05-03T09:47:36.629Z</time></trkpt><trkpt lat="39.669742" lon="16.4511212"><ele>23.333333333333332</ele><time>2026-05-03T09:47:37.621Z</time></trkpt><trkpt lat="39.669562" lon="16.4511046"><ele>24.0</ele><time>2026-05-03T09:47:38.611Z</time></trkpt><trkpt lat="39.6693888" lon="16.4510953"><ele>25.0</ele><time>2026-05-03T09:47:39.612Z</time></trkpt><trkpt lat="39.669216" lon="16.4510859"><ele>26.0</ele><time>2026-05-03T09:47:40.636Z</time></trkpt><trkpt lat="39.669048" lon="16.4510759"><ele>27.0</ele><time>2026-05-03T09:47:41.609Z</time></trkpt><trkpt lat="39.6688824" lon="16.4510668"><ele>27.0</ele><time>2026-05-03T09:47:42.62Z</time></trkpt><trkpt lat="39.6687155" lon="16.4510538"><ele>27.0</ele><time>2026-05-03T09:47:43.617Z</time></trkpt><trkpt lat="39.6685454" lon="16.451036"><ele>27.0</ele><time>2026-05-03T09:47:44.631Z</time></trkpt><trkpt lat="39.6683753" lon="16.4510169"><ele>27.333333333333336</ele><time>2026-05-03T09:47:45.61Z</time></trkpt><trkpt lat="39.6682029" lon="16.4509977"><ele>27.666666666666668</ele><time>2026-05-03T09:47:46.621Z</time></trkpt><trkpt lat="39.6680233" lon="16.450985"><ele>28.0</ele><time>2026-05-03T09:47:47.621Z</time></trkpt><trkpt lat="39.6678439" lon="16.4509779"><ele>28.333333333333336</ele><time>2026-05-03T09:47:48.624Z</time></trkpt><trkpt lat="39.6676691" lon="16.4509628"><ele>28.666666666666664</ele><time>2026-05-03T09:47:49.62Z</time></trkpt><trkpt lat="39.6675013" lon="16.4509471"><ele>29.0</ele><time>2026-05-03T09:47:50.628Z</time></trkpt><trkpt lat="39.6673463" lon="16.4509331"><ele>29.0</ele><time>2026-05-03T09:47:51.612Z</time></trkpt><trkpt lat="39.6671904" lon="16.450923"><ele>29.0</ele><time>2026-05-03T09:47:52.623Z</time></trkpt><trkpt lat="39.6670349" lon="16.4509171"><ele>29.0</ele><time>2026-05-03T09:47:53.611Z</time></trkpt><trkpt lat="39.6668791" lon="16.450907"><ele>30.0</ele><time>2026-05-03T09:47:54.6Z</time></trkpt><trkpt lat="39.6667156" lon="16.4508936"><ele>31.0</ele><time>2026-05-03T09:47:55.609Z</time></trkpt><trkpt lat="39.6665519" lon="16.4508851"><ele>32.0</ele><time>2026-05-03T09:47:56.604Z</time></trkpt><trkpt lat="39.6663878" lon="16.450875"><ele>32.0</ele><time>2026-05-03T09:47:57.61Z</time></trkpt><trkpt lat="39.6662224" lon="16.4508627"><ele>32.0</ele><time>2026-05-03T09:47:58.61Z</time></trkpt><trkpt lat="39.6660609" lon="16.4508512"><ele>32.0</ele><time>2026-05-03T09:47:59.618Z</time></trkpt><trkpt lat="39.665902" lon="16.4508376"><ele>32.0</ele><time>2026-05-03T09:48:00.609Z</time></trkpt><trkpt lat="39.6657445" lon="16.450823"><ele>32.0</ele><time>2026-05-03T09:48:01.62Z</time></trkpt><trkpt lat="39.6655835" lon="16.4508072"><ele>32.0</ele><time>2026-05-03T09:48:02.619Z</time></trkpt><trkpt lat="39.6654211" lon="16.4507926"><ele>32.0</ele><time>2026-05-03T09:48:03.618Z</time></trkpt><trkpt lat="39.6652585" lon="16.450779"><ele>32.0</ele><time>2026-05-03T09:48:04.62Z</time></trkpt><trkpt lat="39.6650961" lon="16.4507651"><ele>32.0</ele><time>2026-05-03T09:48:05.613Z</time></trkpt><trkpt lat="39.6649362" lon="16.450751"><ele>32.0</ele><time>2026-05-03T09:48:06.624Z</time></trkpt><trkpt lat="39.6647849" lon="16.4507416"><ele>32.0</ele><time>2026-05-03T09:48:07.613Z</time></trkpt><trkpt lat="39.6646431" lon="16.4507381"><ele>32.0</ele><time>2026-05-03T09:48:08.605Z</time></trkpt><trkpt lat="39.6645051" lon="16.4507311"><ele>32.0</ele><time>2026-05-03T09:48:09.618Z</time></trkpt><trkpt lat="39.6643738" lon="16.4507264"><ele>32.0</ele><time>2026-05-03T09:48:10.608Z</time></trkpt><trkpt lat="39.6642496" lon="16.4507283"><ele>32.0</ele><time>2026-05-03T09:48:11.619Z</time></trkpt><trkpt lat="39.664122" lon="16.4507219"><ele>32.0</ele><time>2026-05-03T09:48:12.62Z</time></trkpt><trkpt lat="39.6639863" lon="16.4507157"><ele>32.0</ele><time>2026-05-03T09:48:13.615Z</time></trkpt><trkpt lat="39.6638503" lon="16.4506993"><ele>32.0</ele><time>2026-05-03T09:48:14.617Z</time></trkpt><trkpt lat="39.6637152" lon="16.4506777"><ele>32.0</ele><time>2026-05-03T09:48:15.617Z</time></trkpt><trkpt lat="39.6635789" lon="16.4506659"><ele>32.0</ele><time>2026-05-03T09:48:16.619Z</time></trkpt><trkpt lat="39.6634599" lon="16.45066"><ele>32.0</ele><time>2026-05-03T09:48:17.618Z</time></trkpt><trkpt lat="39.6633695" lon="16.4506477"><ele>32.666666666666664</ele><time>2026-05-03T09:48:18.627Z</time></trkpt><trkpt lat="39.663299" lon="16.450622"><ele>33.33333333333333</ele><time>2026-05-03T09:48:19.618Z</time></trkpt><trkpt lat="39.6632148" lon="16.4505491"><ele>34.0</ele><time>2026-05-03T09:48:21.602Z</time></trkpt><trkpt lat="39.6631231" lon="16.4505177"><ele>34.666666666666664</ele><time>2026-05-03T09:48:23.617Z</time></trkpt><trkpt lat="39.6630613" lon="16.450542"><ele>35.333333333333336</ele><time>2026-05-03T09:48:24.63Z</time></trkpt><trkpt lat="39.66299" lon="16.4505832"><ele>36.0</ele><time>2026-05-03T09:48:25.619Z</time></trkpt><trkpt lat="39.6629029" lon="16.4506258"><ele>36.0</ele><time>2026-05-03T09:48:26.614Z</time></trkpt><trkpt lat="39.6627981" lon="16.4506507"><ele>36.0</ele><time>2026-05-03T09:48:27.615Z</time></trkpt><trkpt lat="39.6626805" lon="16.4506796"><ele>36.0</ele><time>2026-05-03T09:48:28.637Z</time></trkpt><trkpt lat="39.6625582" lon="16.4507185"><ele>36.0</ele><time>2026-05-03T09:48:29.608Z</time></trkpt><trkpt lat="39.6624323" lon="16.4507607"><ele>36.5</ele><time>2026-05-03T09:48:30.617Z</time></trkpt><trkpt lat="39.6623007" lon="16.4508055"><ele>37.0</ele><time>2026-05-03T09:48:31.618Z</time></trkpt><trkpt lat="39.6621638" lon="16.4508495"><ele>37.5</ele><time>2026-05-03T09:48:32.62Z</time></trkpt><trkpt lat="39.662026" lon="16.450892"><ele>38.0</ele><time>2026-05-03T09:48:33.623Z</time></trkpt><trkpt lat="39.6618865" lon="16.4509276"><ele>38.666666666666664</ele><time>2026-05-03T09:48:34.608Z</time></trkpt><trkpt lat="39.6617424" lon="16.4509638"><ele>39.333333333333336</ele><time>2026-05-03T09:48:35.588Z</time></trkpt><trkpt lat="39.6615881" lon="16.450978"><ele>40.0</ele><time>2026-05-03T09:48:36.607Z</time></trkpt><trkpt lat="39.6614355" lon="16.4509858"><ele>40.0</ele><time>2026-05-03T09:48:37.611Z</time></trkpt><trkpt lat="39.6612753" lon="16.450986"><ele>40.0</ele><time>2026-05-03T09:48:38.623Z</time></trkpt><trkpt lat="39.6611153" lon="16.4509825"><ele>40.0</ele><time>2026-05-03T09:48:39.618Z</time></trkpt><trkpt lat="39.6609539" lon="16.4509686"><ele>39.66666666666667</ele><time>2026-05-03T09:48:40.616Z</time></trkpt><trkpt lat="39.6607896" lon="16.4509537"><ele>39.333333333333336</ele><time>2026-05-03T09:48:41.609Z</time></trkpt><trkpt lat="39.660625" lon="16.4509403"><ele>39.0</ele><time>2026-05-03T09:48:42.622Z</time></trkpt><trkpt lat="39.6604634" lon="16.4509169"><ele>39.0</ele><time>2026-05-03T09:48:43.622Z</time></trkpt><trkpt lat="39.6603068" lon="16.4508897"><ele>39.0</ele><time>2026-05-03T09:48:44.602Z</time></trkpt><trkpt lat="39.6601617" lon="16.4508692"><ele>39.0</ele><time>2026-05-03T09:48:45.624Z</time></trkpt><trkpt lat="39.6600245" lon="16.4508496"><ele>39.0</ele><time>2026-05-03T09:48:46.621Z</time></trkpt><trkpt lat="39.6598982" lon="16.4508264"><ele>38.25</ele><time>2026-05-03T09:48:47.615Z</time></trkpt><trkpt lat="39.6597724" lon="16.4508042"><ele>37.5</ele><time>2026-05-03T09:48:48.622Z</time></trkpt><trkpt lat="39.6596416" lon="16.4507738"><ele>36.75</ele><time>2026-05-03T09:48:49.606Z</time></trkpt><trkpt lat="39.6595164" lon="16.4507338"><ele>36.0</ele><time>2026-05-03T09:48:50.621Z</time></trkpt><trkpt lat="39.6593922" lon="16.4506965"><ele>36.0</ele><time>2026-05-03T09:48:51.615Z</time></trkpt><trkpt lat="39.6592645" lon="16.4506543"><ele>36.0</ele><time>2026-05-03T09:48:52.631Z</time></trkpt><trkpt lat="39.659132" lon="16.4506144"><ele>36.0</ele><time>2026-05-03T09:48:53.623Z</time></trkpt><trkpt lat="39.658992" lon="16.4505743"><ele>36.0</ele><time>2026-05-03T09:48:54.625Z</time></trkpt><trkpt lat="39.6588444" lon="16.450532"><ele>36.0</ele><time>2026-05-03T09:48:55.618Z</time></trkpt><trkpt lat="39.6586931" lon="16.4504877"><ele>36.0</ele><time>2026-05-03T09:48:56.615Z</time></trkpt><trkpt lat="39.6585374" lon="16.4504478"><ele>36.0</ele><time>2026-05-03T09:48:57.616Z</time></trkpt><trkpt lat="39.6583795" lon="16.450416"><ele>37.75</ele><time>2026-05-03T09:48:58.623Z</time></trkpt><trkpt lat="39.6582251" lon="16.450388"><ele>39.5</ele><time>2026-05-03T09:48:59.612Z</time></trkpt><trkpt lat="39.6580832" lon="16.4503668"><ele>41.25</ele><time>2026-05-03T09:49:00.614Z</time></trkpt><trkpt lat="39.6579574" lon="16.4503472"><ele>43.0</ele><time>2026-05-03T09:49:01.616Z</time></trkpt><trkpt lat="39.6578339" lon="16.4503226"><ele>42.5</ele><time>2026-05-03T09:49:02.622Z</time></trkpt><trkpt lat="39.6577107" lon="16.4502981"><ele>42.0</ele><time>2026-05-03T09:49:03.603Z</time></trkpt><trkpt lat="39.6575836" lon="16.450275"><ele>41.5</ele><time>2026-05-03T09:49:04.618Z</time></trkpt><trkpt lat="39.6574501" lon="16.4502544"><ele>41.0</ele><time>2026-05-03T09:49:05.612Z</time></trkpt><trkpt lat="39.6573118" lon="16.4502301"><ele>41.0</ele><time>2026-05-03T09:49:06.613Z</time></trkpt><trkpt lat="39.6571698" lon="16.4502088"><ele>41.0</ele><time>2026-05-03T09:49:07.604Z</time></trkpt><trkpt lat="39.6570254" lon="16.450186"><ele>41.0</ele><time>2026-05-03T09:49:08.622Z</time></trkpt><trkpt lat="39.6568746" lon="16.4501637"><ele>41.0</ele><time>2026-05-03T09:49:09.613Z</time></trkpt><trkpt lat="39.6567156" lon="16.4501383"><ele>40.0</ele><time>2026-05-03T09:49:10.621Z</time></trkpt><trkpt lat="39.656554" lon="16.4501168"><ele>39.0</ele><time>2026-05-03T09:49:11.615Z</time></trkpt><trkpt lat="39.6563936" lon="16.4500947"><ele>38.0</ele><time>2026-05-03T09:49:12.617Z</time></trkpt><trkpt lat="39.6562435" lon="16.450062"><ele>38.0</ele><time>2026-05-03T09:49:13.608Z</time></trkpt><trkpt lat="39.6561007" lon="16.4500229"><ele>38.0</ele><time>2026-05-03T09:49:14.615Z</time></trkpt><trkpt lat="39.6559621" lon="16.4500043"><ele>38.0</ele><time>2026-05-03T09:49:15.608Z</time></trkpt><trkpt lat="39.6558248" lon="16.450009"><ele>38.0</ele><time>2026-05-03T09:49:16.61Z</time></trkpt><trkpt lat="39.6557013" lon="16.4500261"><ele>38.0</ele><time>2026-05-03T09:49:17.618Z</time></trkpt><trkpt lat="39.6555944" lon="16.4500438"><ele>38.0</ele><time>2026-05-03T09:49:18.629Z</time></trkpt><trkpt lat="39.6554994" lon="16.4500679"><ele>38.0</ele><time>2026-05-03T09:49:19.621Z</time></trkpt><trkpt lat="39.6554141" lon="16.4500915"><ele>38.0</ele><time>2026-05-03T09:49:20.619Z</time></trkpt><trkpt lat="39.6553399" lon="16.4501132"><ele>38.0</ele><time>2026-05-03T09:49:21.612Z</time></trkpt><trkpt lat="39.6552289" lon="16.4501412"><ele>38.199999999999996</ele><time>2026-05-03T09:49:23.623Z</time></trkpt><trkpt lat="39.6551454" lon="16.4501779"><ele>38.4</ele><time>2026-05-03T09:49:25.627Z</time></trkpt><trkpt lat="39.6550845" lon="16.4502594"><ele>38.599999999999994</ele><time>2026-05-03T09:49:27.61Z</time></trkpt><trkpt lat="39.6550358" lon="16.450392"><ele>38.8</ele><time>2026-05-03T09:49:29.614Z</time></trkpt><trkpt lat="39.6549712" lon="16.4505267"><ele>39.0</ele><time>2026-05-03T09:49:31.609Z</time></trkpt><trkpt lat="39.6549279" lon="16.4505995"><ele>39.2</ele><time>2026-05-03T09:49:32.609Z</time></trkpt><trkpt lat="39.654879" lon="16.4506853"><ele>39.4</ele><time>2026-05-03T09:49:33.612Z</time></trkpt><trkpt lat="39.6548215" lon="16.4507782"><ele>39.6</ele><time>2026-05-03T09:49:34.616Z</time></trkpt><trkpt lat="39.6547642" lon="16.4508858"><ele>39.8</ele><time>2026-05-03T09:49:35.611Z</time></trkpt><trkpt lat="39.6547088" lon="16.4510069"><ele>40.0</ele><time>2026-05-03T09:49:36.62Z</time></trkpt><trkpt lat="39.654653" lon="16.451136"><ele>40.0</ele><time>2026-05-03T09:49:37.601Z</time></trkpt><trkpt lat="39.654592" lon="16.4512711"><ele>40.0</ele><time>2026-05-03T09:49:38.612Z</time></trkpt><trkpt lat="39.6545296" lon="16.4514069"><ele>40.0</ele><time>2026-05-03T09:49:39.613Z</time></trkpt><trkpt lat="39.6544673" lon="16.4515483"><ele>40.0</ele><time>2026-05-03T09:49:40.63Z</time></trkpt><trkpt lat="39.654405" lon="16.4517004"><ele>39.5</ele><time>2026-05-03T09:49:41.606Z</time></trkpt><trkpt lat="39.6543423" lon="16.4518593"><ele>39.0</ele><time>2026-05-03T09:49:42.618Z</time></trkpt><trkpt lat="39.6542784" lon="16.4520235"><ele>38.5</ele><time>2026-05-03T09:49:43.62Z</time></trkpt><trkpt lat="39.6542173" lon="16.452169"><ele>38.0</ele><time>2026-05-03T09:49:44.622Z</time></trkpt><trkpt lat="39.6541668" lon="16.4522888"><ele>37.83333333333333</ele><time>2026-05-03T09:49:45.619Z</time></trkpt><trkpt lat="39.6541261" lon="16.4523805"><ele>37.666666666666664</ele><time>2026-05-03T09:49:46.616Z</time></trkpt><trkpt lat="39.6540963" lon="16.4524591"><ele>37.5</ele><time>2026-05-03T09:49:47.619Z</time></trkpt><trkpt lat="39.6540481" lon="16.4525623"><ele>37.333333333333336</ele><time>2026-05-03T09:49:49.623Z</time></trkpt><trkpt lat="39.6540193" lon="16.452645"><ele>37.16666666666667</ele><time>2026-05-03T09:49:51.602Z</time></trkpt><trkpt lat="39.6539921" lon="16.4527434"><ele>37.0</ele><time>2026-05-03T09:49:59.614Z</time></trkpt><trkpt lat="39.653956" lon="16.4528714"><ele>36.833333333333336</ele><time>2026-05-03T09:50:01.61Z</time></trkpt><trkpt lat="39.6539351" lon="16.4529574"><ele>36.66666666666667</ele><time>2026-05-03T09:50:02.612Z</time></trkpt><trkpt lat="39.6539181" lon="16.4530578"><ele>36.5</ele><time>2026-05-03T09:50:03.613Z</time></trkpt><trkpt lat="39.6538975" lon="16.4531688"><ele>36.333333333333336</ele><time>2026-05-03T09:50:04.638Z</time></trkpt><trkpt lat="39.653878" lon="16.4532874"><ele>36.166666666666664</ele><time>2026-05-03T09:50:05.618Z</time></trkpt><trkpt lat="39.6538564" lon="16.4534202"><ele>36.0</ele><time>2026-05-03T09:50:06.638Z</time></trkpt><trkpt lat="39.6538364" lon="16.453555"><ele>36.0</ele><time>2026-05-03T09:50:07.615Z</time></trkpt><trkpt lat="39.6538197" lon="16.4536789"><ele>36.0</ele><time>2026-05-03T09:50:08.617Z</time></trkpt><trkpt lat="39.6538027" lon="16.4537898"><ele>36.0</ele><time>2026-05-03T09:50:09.605Z</time></trkpt><trkpt lat="39.6537877" lon="16.4538903"><ele>36.0</ele><time>2026-05-03T09:50:10.611Z</time></trkpt><trkpt lat="39.6537729" lon="16.453998"><ele>36.0</ele><time>2026-05-03T09:50:11.62Z</time></trkpt><trkpt lat="39.6537576" lon="16.4541094"><ele>36.0</ele><time>2026-05-03T09:50:12.619Z</time></trkpt><trkpt lat="39.6537398" lon="16.4542192"><ele>35.8</ele><time>2026-05-03T09:50:13.611Z</time></trkpt><trkpt lat="39.6537231" lon="16.4543283"><ele>35.6</ele><time>2026-05-03T09:50:14.616Z</time></trkpt><trkpt lat="39.653707" lon="16.4544392"><ele>35.4</ele><time>2026-05-03T09:50:15.599Z</time></trkpt><trkpt lat="39.6536934" lon="16.4545558"><ele>35.2</ele><time>2026-05-03T09:50:16.606Z</time></trkpt><trkpt lat="39.653674" lon="16.4546854"><ele>35.0</ele><time>2026-05-03T09:50:17.605Z</time></trkpt><trkpt lat="39.6536516" lon="16.4548276"><ele>35.75</ele><time>2026-05-03T09:50:18.63Z</time></trkpt><trkpt lat="39.6536264" lon="16.454983"><ele>36.5</ele><time>2026-05-03T09:50:19.622Z</time></trkpt><trkpt lat="39.6535958" lon="16.4551512"><ele>37.25</ele><time>2026-05-03T09:50:20.621Z</time></trkpt><trkpt lat="39.6535692" lon="16.4553242"><ele>38.0</ele><time>2026-05-03T09:50:21.62Z</time></trkpt><trkpt lat="39.653542" lon="16.4555022"><ele>38.0</ele><time>2026-05-03T09:50:22.635Z</time></trkpt><trkpt lat="39.6535125" lon="16.4556874"><ele>38.0</ele><time>2026-05-03T09:50:23.615Z</time></trkpt><trkpt lat="39.6534807" lon="16.4558801"><ele>38.0</ele><time>2026-05-03T09:50:24.621Z</time></trkpt><trkpt lat="39.6534512" lon="16.456079"><ele>38.0</ele><time>2026-05-03T09:50:25.642Z</time></trkpt><trkpt lat="39.6534193" lon="16.4562843"><ele>38.0</ele><time>2026-05-03T09:50:26.63Z</time></trkpt><trkpt lat="39.6533892" lon="16.4564886"><ele>38.0</ele><time>2026-05-03T09:50:27.628Z</time></trkpt><trkpt lat="39.6533596" lon="16.4566922"><ele>38.0</ele><time>2026-05-03T09:50:28.621Z</time></trkpt><trkpt lat="39.6533327" lon="16.4569004"><ele>38.0</ele><time>2026-05-03T09:50:29.611Z</time></trkpt><trkpt lat="39.6533034" lon="16.4571104"><ele>38.0</ele><time>2026-05-03T09:50:30.615Z</time></trkpt><trkpt lat="39.6532665" lon="16.4573207"><ele>38.0</ele><time>2026-05-03T09:50:31.609Z</time></trkpt><trkpt lat="39.65323" lon="16.4575366"><ele>38.0</ele><time>2026-05-03T09:50:32.621Z</time></trkpt><trkpt lat="39.6531994" lon="16.4577533"><ele>38.0</ele><time>2026-05-03T09:50:33.612Z</time></trkpt><trkpt lat="39.6531678" lon="16.457971"><ele>38.33333333333333</ele><time>2026-05-03T09:50:34.625Z</time></trkpt><trkpt lat="39.6531357" lon="16.4581908"><ele>38.666666666666664</ele><time>2026-05-03T09:50:35.624Z</time></trkpt><trkpt lat="39.6531004" lon="16.4584078"><ele>39.0</ele><time>2026-05-03T09:50:36.621Z</time></trkpt><trkpt lat="39.6530693" lon="16.4586151"><ele>38.666666666666664</ele><time>2026-05-03T09:50:37.627Z</time></trkpt><trkpt lat="39.6530386" lon="16.458818"><ele>38.33333333333333</ele><time>2026-05-03T09:50:38.613Z</time></trkpt><trkpt lat="39.6530085" lon="16.45902"><ele>38.0</ele><time>2026-05-03T09:50:39.619Z</time></trkpt><trkpt lat="39.6529771" lon="16.4592228"><ele>38.0</ele><time>2026-05-03T09:50:40.61Z</time></trkpt><trkpt lat="39.6529513" lon="16.4594261"><ele>38.0</ele><time>2026-05-03T09:50:41.606Z</time></trkpt><trkpt lat="39.6529322" lon="16.4596307"><ele>38.0</ele><time>2026-05-03T09:50:42.63Z</time></trkpt><trkpt lat="39.6529039" lon="16.4598336"><ele>37.33333333333333</ele><time>2026-05-03T09:50:43.623Z</time></trkpt><trkpt lat="39.6528704" lon="16.460043"><ele>36.666666666666664</ele><time>2026-05-03T09:50:44.609Z</time></trkpt><trkpt lat="39.6528383" lon="16.4602458"><ele>36.0</ele><time>2026-05-03T09:50:45.612Z</time></trkpt><trkpt lat="39.652801" lon="16.4604405"><ele>36.75</ele><time>2026-05-03T09:50:46.612Z</time></trkpt><trkpt lat="39.6527536" lon="16.4606142"><ele>37.5</ele><time>2026-05-03T09:50:47.62Z</time></trkpt><trkpt lat="39.6527167" lon="16.4607611"><ele>38.25</ele><time>2026-05-03T09:50:48.625Z</time></trkpt><trkpt lat="39.6526855" lon="16.4608971"><ele>39.0</ele><time>2026-05-03T09:50:49.592Z</time></trkpt><trkpt lat="39.652656" lon="16.4610403"><ele>39.0</ele><time>2026-05-03T09:50:50.609Z</time></trkpt><trkpt lat="39.6526279" lon="16.4611946"><ele>39.0</ele><time>2026-05-03T09:50:51.606Z</time></trkpt><trkpt lat="39.6525968" lon="16.4613586"><ele>39.0</ele><time>2026-05-03T09:50:52.606Z</time></trkpt><trkpt lat="39.6525673" lon="16.4615303"><ele>39.0</ele><time>2026-05-03T09:50:53.613Z</time></trkpt><trkpt lat="39.6525345" lon="16.4617124"><ele>39.333333333333336</ele><time>2026-05-03T09:50:54.619Z</time></trkpt><trkpt lat="39.6525012" lon="16.4619005"><ele>39.66666666666667</ele><time>2026-05-03T09:50:55.618Z</time></trkpt><trkpt lat="39.6524648" lon="16.4620976"><ele>40.0</ele><time>2026-05-03T09:50:56.614Z</time></trkpt><trkpt lat="39.6524256" lon="16.4622981"><ele>40.0</ele><time>2026-05-03T09:50:57.598Z</time></trkpt><trkpt lat="39.6523884" lon="16.4625042"><ele>40.0</ele><time>2026-05-03T09:50:58.62Z</time></trkpt><trkpt lat="39.6523518" lon="16.4627145"><ele>40.0</ele><time>2026-05-03T09:50:59.61Z</time></trkpt><trkpt lat="39.6523114" lon="16.4629346"><ele>40.66666666666667</ele><time>2026-05-03T09:51:00.625Z</time></trkpt><trkpt lat="39.6522641" lon="16.4631602"><ele>41.333333333333336</ele><time>2026-05-03T09:51:01.611Z</time></trkpt><trkpt lat="39.6522137" lon="16.4633961"><ele>42.0</ele><time>2026-05-03T09:51:02.606Z</time></trkpt><trkpt lat="39.6521707" lon="16.463632"><ele>42.333333333333336</ele><time>2026-05-03T09:51:03.604Z</time></trkpt><trkpt lat="39.6521347" lon="16.4638647"><ele>42.66666666666667</ele><time>2026-05-03T09:51:04.626Z</time></trkpt><trkpt lat="39.6520997" lon="16.4641045"><ele>43.0</ele><time>2026-05-03T09:51:05.628Z</time></trkpt><trkpt lat="39.6520597" lon="16.4643478"><ele>43.0</ele><time>2026-05-03T09:51:06.623Z</time></trkpt><trkpt lat="39.6520156" lon="16.4645913"><ele>43.0</ele><time>2026-05-03T09:51:07.623Z</time></trkpt><trkpt lat="39.6519711" lon="16.4648319"><ele>43.0</ele><time>2026-05-03T09:51:08.611Z</time></trkpt><trkpt lat="39.6519323" lon="16.4650751"><ele>43.0</ele><time>2026-05-03T09:51:09.619Z</time></trkpt><trkpt lat="39.6518932" lon="16.4653064"><ele>43.0</ele><time>2026-05-03T09:51:10.626Z</time></trkpt><trkpt lat="39.6518514" lon="16.4655282"><ele>43.0</ele><time>2026-05-03T09:51:11.621Z</time></trkpt><trkpt lat="39.6518057" lon="16.4657428"><ele>42.0</ele><time>2026-05-03T09:51:12.625Z</time></trkpt><trkpt lat="39.6517559" lon="16.4659526"><ele>41.0</ele><time>2026-05-03T09:51:13.615Z</time></trkpt><trkpt lat="39.6516936" lon="16.4661604"><ele>40.0</ele><time>2026-05-03T09:51:14.622Z</time></trkpt><trkpt lat="39.6516244" lon="16.4663654"><ele>38.66666666666667</ele><time>2026-05-03T09:51:15.626Z</time></trkpt><trkpt lat="39.651548" lon="16.4665751"><ele>37.333333333333336</ele><time>2026-05-03T09:51:16.622Z</time></trkpt><trkpt lat="39.6514641" lon="16.4667851"><ele>36.0</ele><time>2026-05-03T09:51:17.612Z</time></trkpt><trkpt lat="39.6513701" lon="16.4669954"><ele>35.333333333333336</ele><time>2026-05-03T09:51:18.626Z</time></trkpt><trkpt lat="39.6512781" lon="16.4671999"><ele>34.66666666666667</ele><time>2026-05-03T09:51:19.617Z</time></trkpt><trkpt lat="39.6511876" lon="16.4674031"><ele>34.0</ele><time>2026-05-03T09:51:20.627Z</time></trkpt><trkpt lat="39.6510991" lon="16.4676127"><ele>34.0</ele><time>2026-05-03T09:51:21.608Z</time></trkpt><trkpt lat="39.6510056" lon="16.4678246"><ele>34.0</ele><time>2026-05-03T09:51:22.618Z</time></trkpt><trkpt lat="39.6509114" lon="16.4680338"><ele>34.0</ele><time>2026-05-03T09:51:23.609Z</time></trkpt><trkpt lat="39.6508191" lon="16.4682391"><ele>33.66666666666667</ele><time>2026-05-03T09:51:24.619Z</time></trkpt><trkpt lat="39.6507256" lon="16.4684437"><ele>33.333333333333336</ele><time>2026-05-03T09:51:25.627Z</time></trkpt><trkpt lat="39.6506323" lon="16.4686561"><ele>33.0</ele><time>2026-05-03T09:51:26.626Z</time></trkpt><trkpt lat="39.6505406" lon="16.4688752"><ele>33.0</ele><time>2026-05-03T09:51:27.607Z</time></trkpt><trkpt lat="39.6504479" lon="16.4690933"><ele>33.0</ele><time>2026-05-03T09:51:28.624Z</time></trkpt><trkpt lat="39.6503575" lon="16.4693098"><ele>33.0</ele><time>2026-05-03T09:51:29.605Z</time></trkpt><trkpt lat="39.6502647" lon="16.4695222"><ele>33.0</ele><time>2026-05-03T09:51:30.619Z</time></trkpt><trkpt lat="39.6501732" lon="16.4697338"><ele>33.0</ele><time>2026-05-03T09:51:31.615Z</time></trkpt><trkpt lat="39.6500864" lon="16.4699359"><ele>33.0</ele><time>2026-05-03T09:51:32.611Z</time></trkpt><trkpt lat="39.6500003" lon="16.4701308"><ele>33.0</ele><time>2026-05-03T09:51:33.617Z</time></trkpt><trkpt lat="39.6499146" lon="16.4703282"><ele>33.0</ele><time>2026-05-03T09:51:34.613Z</time></trkpt><trkpt lat="39.649828" lon="16.4705275"><ele>33.0</ele><time>2026-05-03T09:51:35.618Z</time></trkpt><trkpt lat="39.6497415" lon="16.4707254"><ele>32.666666666666664</ele><time>2026-05-03T09:51:36.628Z</time></trkpt><trkpt lat="39.6496566" lon="16.4709141"><ele>32.33333333333333</ele><time>2026-05-03T09:51:37.615Z</time></trkpt><trkpt lat="39.6495764" lon="16.4710996"><ele>32.0</ele><time>2026-05-03T09:51:38.616Z</time></trkpt><trkpt lat="39.6494945" lon="16.4712878"><ele>32.666666666666664</ele><time>2026-05-03T09:51:39.615Z</time></trkpt><trkpt lat="39.6494083" lon="16.4714827"><ele>33.333333333333336</ele><time>2026-05-03T09:51:40.619Z</time></trkpt><trkpt lat="39.6493201" lon="16.4716808"><ele>34.0</ele><time>2026-05-03T09:51:41.613Z</time></trkpt><trkpt lat="39.6492283" lon="16.471881"><ele>34.0</ele><time>2026-05-03T09:51:42.62Z</time></trkpt><trkpt lat="39.6491366" lon="16.4720819"><ele>34.0</ele><time>2026-05-03T09:51:43.605Z</time></trkpt><trkpt lat="39.6490489" lon="16.4722804"><ele>34.0</ele><time>2026-05-03T09:51:44.61Z</time></trkpt><trkpt lat="39.6489636" lon="16.4724636"><ele>33.75</ele><time>2026-05-03T09:51:45.615Z</time></trkpt><trkpt lat="39.6488819" lon="16.4726362"><ele>33.5</ele><time>2026-05-03T09:51:46.618Z</time></trkpt><trkpt lat="39.6488071" lon="16.4727986"><ele>33.25</ele><time>2026-05-03T09:51:47.616Z</time></trkpt><trkpt lat="39.6487374" lon="16.4729534"><ele>33.0</ele><time>2026-05-03T09:51:48.614Z</time></trkpt><trkpt lat="39.6486707" lon="16.4731017"><ele>33.25</ele><time>2026-05-03T09:51:49.607Z</time></trkpt><trkpt lat="39.6486068" lon="16.4732444"><ele>33.5</ele><time>2026-05-03T09:51:50.624Z</time></trkpt><trkpt lat="39.6485448" lon="16.4733823"><ele>33.75</ele><time>2026-05-03T09:51:51.625Z</time></trkpt><trkpt lat="39.6484885" lon="16.4735135"><ele>34.0</ele><time>2026-05-03T09:51:52.609Z</time></trkpt><trkpt lat="39.6484345" lon="16.4736344"><ele>34.0</ele><time>2026-05-03T09:51:53.619Z</time></trkpt><trkpt lat="39.6483819" lon="16.4737496"><ele>34.0</ele><time>2026-05-03T09:51:54.633Z</time></trkpt><trkpt lat="39.6483357" lon="16.4738548"><ele>34.0</ele><time>2026-05-03T09:51:55.609Z</time></trkpt><trkpt lat="39.6482938" lon="16.4739496"><ele>34.0</ele><time>2026-05-03T09:51:56.63Z</time></trkpt><trkpt lat="39.6482534" lon="16.4740396"><ele>34.0</ele><time>2026-05-03T09:51:57.606Z</time></trkpt><trkpt lat="39.6482134" lon="16.4741247"><ele>34.0</ele><time>2026-05-03T09:51:58.621Z</time></trkpt><trkpt lat="39.6481741" lon="16.4741978"><ele>34.2</ele><time>2026-05-03T09:51:59.623Z</time></trkpt><trkpt lat="39.6480843" lon="16.4742866"><ele>34.4</ele><time>2026-05-03T09:52:01.62Z</time></trkpt><trkpt lat="39.6479719" lon="16.474267"><ele>34.6</ele><time>2026-05-03T09:52:03.6Z</time></trkpt><trkpt lat="39.6479134" lon="16.4742141"><ele>34.8</ele><time>2026-05-03T09:52:04.614Z</time></trkpt><trkpt lat="39.647841" lon="16.4741585"><ele>35.0</ele><time>2026-05-03T09:52:05.61Z</time></trkpt><trkpt lat="39.6477522" lon="16.474104"><ele>35.0</ele><time>2026-05-03T09:52:06.617Z</time></trkpt><trkpt lat="39.647655" lon="16.4740352"><ele>35.0</ele><time>2026-05-03T09:52:07.641Z</time></trkpt><trkpt lat="39.6475508" lon="16.4739561"><ele>35.0</ele><time>2026-05-03T09:52:08.617Z</time></trkpt><trkpt lat="39.6474388" lon="16.4738665"><ele>35.0</ele><time>2026-05-03T09:52:09.607Z</time></trkpt><trkpt lat="39.6473176" lon="16.4737756"><ele>35.0</ele><time>2026-05-03T09:52:10.613Z</time></trkpt><trkpt lat="39.6471923" lon="16.4736859"><ele>35.0</ele><time>2026-05-03T09:52:11.617Z</time></trkpt><trkpt lat="39.6470638" lon="16.4735883"><ele>35.0</ele><time>2026-05-03T09:52:12.629Z</time></trkpt><trkpt lat="39.6469303" lon="16.4734858"><ele>35.0</ele><time>2026-05-03T09:52:13.624Z</time></trkpt><trkpt lat="39.6467925" lon="16.4733767"><ele>35.666666666666664</ele><time>2026-05-03T09:52:14.626Z</time></trkpt><trkpt lat="39.6466552" lon="16.4732716"><ele>36.333333333333336</ele><time>2026-05-03T09:52:15.628Z</time></trkpt><trkpt lat="39.6465185" lon="16.4731686"><ele>37.0</ele><time>2026-05-03T09:52:16.615Z</time></trkpt><trkpt lat="39.646378" lon="16.4730638"><ele>37.0</ele><time>2026-05-03T09:52:17.621Z</time></trkpt><trkpt lat="39.6462382" lon="16.4729591"><ele>37.0</ele><time>2026-05-03T09:52:18.621Z</time></trkpt><trkpt lat="39.6461008" lon="16.4728484"><ele>37.0</ele><time>2026-05-03T09:52:19.617Z</time></trkpt><trkpt lat="39.6459617" lon="16.472742"><ele>38.66666666666667</ele><time>2026-05-03T09:52:20.618Z</time></trkpt><trkpt lat="39.6458244" lon="16.472642"><ele>40.333333333333336</ele><time>2026-05-03T09:52:21.61Z</time></trkpt><trkpt lat="39.6456905" lon="16.4725509"><ele>42.0</ele><time>2026-05-03T09:52:22.609Z</time></trkpt><trkpt lat="39.6455565" lon="16.4724685"><ele>42.0</ele><time>2026-05-03T09:52:23.617Z</time></trkpt><trkpt lat="39.6454142" lon="16.472406"><ele>42.0</ele><time>2026-05-03T09:52:24.608Z</time></trkpt><trkpt lat="39.6452591" lon="16.472365"><ele>42.0</ele><time>2026-05-03T09:52:25.618Z</time></trkpt><trkpt lat="39.6451015" lon="16.4723408"><ele>42.25</ele><time>2026-05-03T09:52:26.626Z</time></trkpt><trkpt lat="39.6449439" lon="16.4723373"><ele>42.5</ele><time>2026-05-03T09:52:27.629Z</time></trkpt><trkpt lat="39.6447961" lon="16.4723563"><ele>42.75</ele><time>2026-05-03T09:52:28.617Z</time></trkpt><trkpt lat="39.6446599" lon="16.4723901"><ele>43.0</ele><time>2026-05-03T09:52:29.622Z</time></trkpt><trkpt lat="39.6445275" lon="16.4724105"><ele>43.25</ele><time>2026-05-03T09:52:30.623Z</time></trkpt><trkpt lat="39.6444018" lon="16.4724117"><ele>43.5</ele><time>2026-05-03T09:52:31.622Z</time></trkpt><trkpt lat="39.64428" lon="16.4723953"><ele>43.75</ele><time>2026-05-03T09:52:32.613Z</time></trkpt><trkpt lat="39.6441587" lon="16.4723679"><ele>44.0</ele><time>2026-05-03T09:52:33.611Z</time></trkpt><trkpt lat="39.6440352" lon="16.4723323"><ele>44.0</ele><time>2026-05-03T09:52:34.62Z</time></trkpt><trkpt lat="39.6439087" lon="16.4722854"><ele>44.0</ele><time>2026-05-03T09:52:35.613Z</time></trkpt><trkpt lat="39.6437775" lon="16.4722285"><ele>44.0</ele><time>2026-05-03T09:52:36.605Z</time></trkpt><trkpt lat="39.6436477" lon="16.4721539"><ele>44.0</ele><time>2026-05-03T09:52:37.618Z</time></trkpt><trkpt lat="39.64352" lon="16.4720628"><ele>43.75</ele><time>2026-05-03T09:52:38.624Z</time></trkpt><trkpt lat="39.6433933" lon="16.4719827"><ele>43.5</ele><time>2026-05-03T09:52:39.617Z</time></trkpt><trkpt lat="39.6432723" lon="16.4719176"><ele>43.25</ele><time>2026-05-03T09:52:40.623Z</time></trkpt><trkpt lat="39.6431607" lon="16.4718624"><ele>43.0</ele><time>2026-05-03T09:52:41.629Z</time></trkpt><trkpt lat="39.6430583" lon="16.4718113"><ele>43.0</ele><time>2026-05-03T09:52:42.611Z</time></trkpt><trkpt lat="39.6429672" lon="16.4717651"><ele>43.0</ele><time>2026-05-03T09:52:43.619Z</time></trkpt><trkpt lat="39.6428772" lon="16.471731"><ele>43.0</ele><time>2026-05-03T09:52:44.609Z</time></trkpt><trkpt lat="39.6427756" lon="16.4717041"><ele>43.0</ele><time>2026-05-03T09:52:45.622Z</time></trkpt><trkpt lat="39.6426637" lon="16.4716766"><ele>43.0</ele><time>2026-05-03T09:52:46.629Z</time></trkpt><trkpt lat="39.6425504" lon="16.4716352"><ele>43.599999999999994</ele><time>2026-05-03T09:52:47.616Z</time></trkpt><trkpt lat="39.6424437" lon="16.4715829"><ele>44.199999999999996</ele><time>2026-05-03T09:52:48.615Z</time></trkpt><trkpt lat="39.6423535" lon="16.4715155"><ele>44.8</ele><time>2026-05-03T09:52:49.618Z</time></trkpt><trkpt lat="39.6422662" lon="16.4714488"><ele>45.4</ele><time>2026-05-03T09:52:50.626Z</time></trkpt><trkpt lat="39.6421677" lon="16.4713757"><ele>46.0</ele><time>2026-05-03T09:52:51.611Z</time></trkpt><trkpt lat="39.6420663" lon="16.4712929"><ele>47.5</ele><time>2026-05-03T09:52:52.628Z</time></trkpt><trkpt lat="39.6419545" lon="16.471199"><ele>49.0</ele><time>2026-05-03T09:52:53.615Z</time></trkpt><trkpt lat="39.6418317" lon="16.4711062"><ele>50.5</ele><time>2026-05-03T09:52:54.637Z</time></trkpt><trkpt lat="39.641706" lon="16.4710162"><ele>52.0</ele><time>2026-05-03T09:52:55.617Z</time></trkpt><trkpt lat="39.6415888" lon="16.4709283"><ele>52.0</ele><time>2026-05-03T09:52:56.615Z</time></trkpt><trkpt lat="39.6414833" lon="16.4708445"><ele>52.0</ele><time>2026-05-03T09:52:57.612Z</time></trkpt><trkpt lat="39.6413788" lon="16.4707722"><ele>52.0</ele><time>2026-05-03T09:52:58.615Z</time></trkpt><trkpt lat="39.6412574" lon="16.4707193"><ele>52.0</ele><time>2026-05-03T09:52:59.628Z</time></trkpt><trkpt lat="39.641119" lon="16.4706824"><ele>50.0</ele><time>2026-05-03T09:53:00.605Z</time></trkpt><trkpt lat="39.6409685" lon="16.4706545"><ele>48.0</ele><time>2026-05-03T09:53:01.593Z</time></trkpt><trkpt lat="39.640815" lon="16.4706213"><ele>46.0</ele><time>2026-05-03T09:53:02.588Z</time></trkpt><trkpt lat="39.6406542" lon="16.4705842"><ele>46.0</ele><time>2026-05-03T09:53:03.624Z</time></trkpt><trkpt lat="39.640491" lon="16.4705525"><ele>46.0</ele><time>2026-05-03T09:53:04.615Z</time></trkpt><trkpt lat="39.6403353" lon="16.4705228"><ele>46.0</ele><time>2026-05-03T09:53:05.593Z</time></trkpt><trkpt lat="39.6401944" lon="16.4704943"><ele>45.25</ele><time>2026-05-03T09:53:06.598Z</time></trkpt><trkpt lat="39.6400642" lon="16.470451"><ele>44.5</ele><time>2026-05-03T09:53:07.593Z</time></trkpt><trkpt lat="39.639942" lon="16.4703799"><ele>43.75</ele><time>2026-05-03T09:53:08.602Z</time></trkpt><trkpt lat="39.6398174" lon="16.4702921"><ele>43.0</ele><time>2026-05-03T09:53:09.605Z</time></trkpt><trkpt lat="39.6396913" lon="16.4701979"><ele>44.66666666666667</ele><time>2026-05-03T09:53:10.606Z</time></trkpt><trkpt lat="39.6395622" lon="16.4700903"><ele>46.333333333333336</ele><time>2026-05-03T09:53:11.596Z</time></trkpt><trkpt lat="39.6394338" lon="16.4699773"><ele>48.0</ele><time>2026-05-03T09:53:12.616Z</time></trkpt><trkpt lat="39.6392991" lon="16.4698635"><ele>48.0</ele><time>2026-05-03T09:53:13.598Z</time></trkpt><trkpt lat="39.639161" lon="16.4697475"><ele>48.0</ele><time>2026-05-03T09:53:14.598Z</time></trkpt><trkpt lat="39.639024" lon="16.4696282"><ele>48.0</ele><time>2026-05-03T09:53:15.602Z</time></trkpt><trkpt lat="39.6388843" lon="16.4695049"><ele>48.33333333333333</ele><time>2026-05-03T09:53:16.622Z</time></trkpt><trkpt lat="39.6387456" lon="16.4693844"><ele>48.666666666666664</ele><time>2026-05-03T09:53:17.599Z</time></trkpt><trkpt lat="39.6386047" lon="16.469262"><ele>49.0</ele><time>2026-05-03T09:53:18.623Z</time></trkpt><trkpt lat="39.6384608" lon="16.4691412"><ele>49.0</ele><time>2026-05-03T09:53:19.605Z</time></trkpt><trkpt lat="39.6383131" lon="16.4690199"><ele>49.0</ele><time>2026-05-03T09:53:20.613Z</time></trkpt><trkpt lat="39.6381666" lon="16.4688991"><ele>49.0</ele><time>2026-05-03T09:53:21.596Z</time></trkpt><trkpt lat="39.6380269" lon="16.4687867"><ele>50.0</ele><time>2026-05-03T09:53:22.602Z</time></trkpt><trkpt lat="39.6378951" lon="16.4686859"><ele>51.0</ele><time>2026-05-03T09:53:23.609Z</time></trkpt><trkpt lat="39.6377567" lon="16.4686037"><ele>52.0</ele><time>2026-05-03T09:53:24.605Z</time></trkpt><trkpt lat="39.6376" lon="16.468551"><ele>53.33333333333333</ele><time>2026-05-03T09:53:25.592Z</time></trkpt><trkpt lat="39.6374396" lon="16.468507"><ele>54.66666666666667</ele><time>2026-05-03T09:53:26.609Z</time></trkpt><trkpt lat="39.6372736" lon="16.4684708"><ele>56.0</ele><time>2026-05-03T09:53:27.624Z</time></trkpt><trkpt lat="39.6371039" lon="16.4684349"><ele>55.66666666666667</ele><time>2026-05-03T09:53:28.611Z</time></trkpt><trkpt lat="39.6369336" lon="16.4683984"><ele>55.33333333333333</ele><time>2026-05-03T09:53:29.618Z</time></trkpt><trkpt lat="39.6367635" lon="16.4683743"><ele>55.0</ele><time>2026-05-03T09:53:30.625Z</time></trkpt><trkpt lat="39.6365902" lon="16.4683558"><ele>55.0</ele><time>2026-05-03T09:53:31.612Z</time></trkpt><trkpt lat="39.6364187" lon="16.4683391"><ele>55.0</ele><time>2026-05-03T09:53:32.609Z</time></trkpt><trkpt lat="39.6362576" lon="16.4683275"><ele>55.0</ele><time>2026-05-03T09:53:33.604Z</time></trkpt><trkpt lat="39.6361071" lon="16.4683154"><ele>55.0</ele><time>2026-05-03T09:53:34.619Z</time></trkpt><trkpt lat="39.6359594" lon="16.4683082"><ele>55.0</ele><time>2026-05-03T09:53:35.619Z</time></trkpt><trkpt lat="39.6358053" lon="16.4682873"><ele>55.0</ele><time>2026-05-03T09:53:36.614Z</time></trkpt><trkpt lat="39.635649" lon="16.4682432"><ele>55.0</ele><time>2026-05-03T09:53:37.604Z</time></trkpt><trkpt lat="39.6354899" lon="16.4681785"><ele>55.0</ele><time>2026-05-03T09:53:38.624Z</time></trkpt><trkpt lat="39.6353309" lon="16.468111"><ele>55.0</ele><time>2026-05-03T09:53:39.609Z</time></trkpt><trkpt lat="39.6351688" lon="16.4680467"><ele>54.33333333333333</ele><time>2026-05-03T09:53:40.633Z</time></trkpt><trkpt lat="39.6350033" lon="16.4679858"><ele>53.66666666666667</ele><time>2026-05-03T09:53:41.615Z</time></trkpt><trkpt lat="39.6348333" lon="16.4679345"><ele>53.0</ele><time>2026-05-03T09:53:42.617Z</time></trkpt><trkpt lat="39.6346609" lon="16.4678893"><ele>55.66666666666667</ele><time>2026-05-03T09:53:43.62Z</time></trkpt><trkpt lat="39.6344868" lon="16.4678538"><ele>58.33333333333333</ele><time>2026-05-03T09:53:44.613Z</time></trkpt><trkpt lat="39.6343098" lon="16.4678215"><ele>61.0</ele><time>2026-05-03T09:53:45.618Z</time></trkpt><trkpt lat="39.6341386" lon="16.4677854"><ele>61.0</ele><time>2026-05-03T09:53:46.61Z</time></trkpt><trkpt lat="39.6339833" lon="16.4677481"><ele>61.0</ele><time>2026-05-03T09:53:47.609Z</time></trkpt><trkpt lat="39.6338283" lon="16.4677109"><ele>61.0</ele><time>2026-05-03T09:53:48.619Z</time></trkpt><trkpt lat="39.6336717" lon="16.467664"><ele>60.666666666666664</ele><time>2026-05-03T09:53:49.626Z</time></trkpt><trkpt lat="39.6335163" lon="16.467601"><ele>60.33333333333333</ele><time>2026-05-03T09:53:50.612Z</time></trkpt><trkpt lat="39.6333663" lon="16.4675199"><ele>60.0</ele><time>2026-05-03T09:53:51.614Z</time></trkpt><trkpt lat="39.6332195" lon="16.4674306"><ele>60.0</ele><time>2026-05-03T09:53:52.614Z</time></trkpt><trkpt lat="39.6330713" lon="16.4673402"><ele>60.0</ele><time>2026-05-03T09:53:53.601Z</time></trkpt><trkpt lat="39.6329208" lon="16.4672456"><ele>60.0</ele><time>2026-05-03T09:53:54.632Z</time></trkpt><trkpt lat="39.6327704" lon="16.4671463"><ele>61.0</ele><time>2026-05-03T09:53:55.61Z</time></trkpt><trkpt lat="39.6326206" lon="16.4670444"><ele>62.0</ele><time>2026-05-03T09:53:56.616Z</time></trkpt><trkpt lat="39.6324698" lon="16.4669367"><ele>63.0</ele><time>2026-05-03T09:53:57.618Z</time></trkpt><trkpt lat="39.6323169" lon="16.4668299"><ele>63.0</ele><time>2026-05-03T09:53:58.626Z</time></trkpt><trkpt lat="39.6321608" lon="16.4667288"><ele>63.0</ele><time>2026-05-03T09:53:59.627Z</time></trkpt><trkpt lat="39.6320012" lon="16.4666266"><ele>63.0</ele><time>2026-05-03T09:54:00.623Z</time></trkpt><trkpt lat="39.6318432" lon="16.4665235"><ele>63.66666666666667</ele><time>2026-05-03T09:54:01.614Z</time></trkpt><trkpt lat="39.6316843" lon="16.4664195"><ele>64.33333333333334</ele><time>2026-05-03T09:54:02.629Z</time></trkpt><trkpt lat="39.6315401" lon="16.4663279"><ele>65.0</ele><time>2026-05-03T09:54:03.614Z</time></trkpt><trkpt lat="39.63141" lon="16.4662516"><ele>65.0</ele><time>2026-05-03T09:54:04.628Z</time></trkpt><trkpt lat="39.6312837" lon="16.4662002"><ele>65.0</ele><time>2026-05-03T09:54:05.618Z</time></trkpt><trkpt lat="39.6311627" lon="16.4661779"><ele>65.0</ele><time>2026-05-03T09:54:06.606Z</time></trkpt><trkpt lat="39.6310392" lon="16.4661963"><ele>65.0</ele><time>2026-05-03T09:54:07.608Z</time></trkpt><trkpt lat="39.6309102" lon="16.4662505"><ele>63.75</ele><time>2026-05-03T09:54:08.61Z</time></trkpt><trkpt lat="39.6307804" lon="16.4663282"><ele>62.5</ele><time>2026-05-03T09:54:09.616Z</time></trkpt><trkpt lat="39.6306435" lon="16.4664108"><ele>61.25</ele><time>2026-05-03T09:54:10.608Z</time></trkpt><trkpt lat="39.6305062" lon="16.4664855"><ele>60.0</ele><time>2026-05-03T09:54:11.608Z</time></trkpt><trkpt lat="39.6303777" lon="16.466548"><ele>60.25</ele><time>2026-05-03T09:54:12.616Z</time></trkpt><trkpt lat="39.6302511" lon="16.4665972"><ele>60.5</ele><time>2026-05-03T09:54:13.614Z</time></trkpt><trkpt lat="39.6301147" lon="16.4666185"><ele>60.75</ele><time>2026-05-03T09:54:14.632Z</time></trkpt><trkpt lat="39.6299705" lon="16.4666251"><ele>61.0</ele><time>2026-05-03T09:54:15.597Z</time></trkpt><trkpt lat="39.6298296" lon="16.4666217"><ele>61.0</ele><time>2026-05-03T09:54:16.63Z</time></trkpt><trkpt lat="39.6296846" lon="16.4666152"><ele>61.0</ele><time>2026-05-03T09:54:17.591Z</time></trkpt><trkpt lat="39.6295346" lon="16.4666129"><ele>61.0</ele><time>2026-05-03T09:54:18.616Z</time></trkpt><trkpt lat="39.6293813" lon="16.4666133"><ele>61.0</ele><time>2026-05-03T09:54:19.607Z</time></trkpt><trkpt lat="39.6292298" lon="16.4666128"><ele>61.666666666666664</ele><time>2026-05-03T09:54:20.611Z</time></trkpt><trkpt lat="39.6290744" lon="16.4666135"><ele>62.33333333333333</ele><time>2026-05-03T09:54:21.601Z</time></trkpt><trkpt lat="39.6289154" lon="16.4666148"><ele>63.0</ele><time>2026-05-03T09:54:22.598Z</time></trkpt><trkpt lat="39.6287573" lon="16.4666134"><ele>63.0</ele><time>2026-05-03T09:54:23.618Z</time></trkpt><trkpt lat="39.6286068" lon="16.466601"><ele>63.0</ele><time>2026-05-03T09:54:24.616Z</time></trkpt><trkpt lat="39.6284647" lon="16.4665705"><ele>63.0</ele><time>2026-05-03T09:54:25.605Z</time></trkpt><trkpt lat="39.6283294" lon="16.4665059"><ele>63.0</ele><time>2026-05-03T09:54:26.618Z</time></trkpt><trkpt lat="39.6281924" lon="16.4664334"><ele>63.0</ele><time>2026-05-03T09:54:27.598Z</time></trkpt><trkpt lat="39.6280463" lon="16.466361"><ele>63.0</ele><time>2026-05-03T09:54:28.628Z</time></trkpt><trkpt lat="39.6278987" lon="16.4662845"><ele>63.0</ele><time>2026-05-03T09:54:29.61Z</time></trkpt><trkpt lat="39.6277478" lon="16.4662043"><ele>66.66666666666667</ele><time>2026-05-03T09:54:30.619Z</time></trkpt><trkpt lat="39.6275993" lon="16.4661197"><ele>70.33333333333334</ele><time>2026-05-03T09:54:31.606Z</time></trkpt><trkpt lat="39.6274616" lon="16.466048"><ele>74.0</ele><time>2026-05-03T09:54:32.6Z</time></trkpt><trkpt lat="39.6273278" lon="16.4659829"><ele>74.0</ele><time>2026-05-03T09:54:33.613Z</time></trkpt><trkpt lat="39.6271844" lon="16.4659304"><ele>74.0</ele><time>2026-05-03T09:54:34.603Z</time></trkpt><trkpt lat="39.6270333" lon="16.4659033"><ele>74.0</ele><time>2026-05-03T09:54:35.608Z</time></trkpt><trkpt lat="39.6268783" lon="16.4658919"><ele>72.5</ele><time>2026-05-03T09:54:36.612Z</time></trkpt><trkpt lat="39.6267301" lon="16.4658988"><ele>71.0</ele><time>2026-05-03T09:54:37.624Z</time></trkpt><trkpt lat="39.6265914" lon="16.4658968"><ele>69.5</ele><time>2026-05-03T09:54:38.613Z</time></trkpt><trkpt lat="39.6264625" lon="16.4658778"><ele>68.0</ele><time>2026-05-03T09:54:39.618Z</time></trkpt><trkpt lat="39.6263364" lon="16.4658281"><ele>68.0</ele><time>2026-05-03T09:54:40.617Z</time></trkpt><trkpt lat="39.6262118" lon="16.4657536"><ele>68.0</ele><time>2026-05-03T09:54:41.61Z</time></trkpt><trkpt lat="39.6260879" lon="16.4656635"><ele>68.0</ele><time>2026-05-03T09:54:42.629Z</time></trkpt><trkpt lat="39.6259647" lon="16.4655736"><ele>68.0</ele><time>2026-05-03T09:54:43.603Z</time></trkpt><trkpt lat="39.6258349" lon="16.4654776"><ele>71.0</ele><time>2026-05-03T09:54:44.613Z</time></trkpt><trkpt lat="39.6257029" lon="16.4653831"><ele>74.0</ele><time>2026-05-03T09:54:45.61Z</time></trkpt><trkpt lat="39.6255609" lon="16.4653015"><ele>77.0</ele><time>2026-05-03T09:54:46.622Z</time></trkpt><trkpt lat="39.6254074" lon="16.4652388"><ele>75.33333333333334</ele><time>2026-05-03T09:54:47.613Z</time></trkpt><trkpt lat="39.6252418" lon="16.4651852"><ele>73.66666666666667</ele><time>2026-05-03T09:54:48.611Z</time></trkpt><trkpt lat="39.6250748" lon="16.4651386"><ele>72.0</ele><time>2026-05-03T09:54:49.616Z</time></trkpt><trkpt lat="39.6249089" lon="16.4650901"><ele>72.0</ele><time>2026-05-03T09:54:50.614Z</time></trkpt><trkpt lat="39.6247419" lon="16.4650408"><ele>72.0</ele><time>2026-05-03T09:54:51.607Z</time></trkpt><trkpt lat="39.6245728" lon="16.464985"><ele>72.0</ele><time>2026-05-03T09:54:52.619Z</time></trkpt><trkpt lat="39.624402" lon="16.4649244"><ele>71.33333333333333</ele><time>2026-05-03T09:54:53.617Z</time></trkpt><trkpt lat="39.6242314" lon="16.4648662"><ele>70.66666666666666</ele><time>2026-05-03T09:54:54.614Z</time></trkpt><trkpt lat="39.6240587" lon="16.4648112"><ele>70.0</ele><time>2026-05-03T09:54:55.621Z</time></trkpt><trkpt lat="39.6238838" lon="16.4647525"><ele>70.0</ele><time>2026-05-03T09:54:56.615Z</time></trkpt><trkpt lat="39.6237077" lon="16.464691"><ele>70.0</ele><time>2026-05-03T09:54:57.635Z</time></trkpt><trkpt lat="39.6235285" lon="16.464633"><ele>70.0</ele><time>2026-05-03T09:54:58.623Z</time></trkpt><trkpt lat="39.6233492" lon="16.4645759"><ele>72.66666666666666</ele><time>2026-05-03T09:54:59.611Z</time></trkpt><trkpt lat="39.6231698" lon="16.464517"><ele>75.33333333333333</ele><time>2026-05-03T09:55:00.621Z</time></trkpt><trkpt lat="39.6229939" lon="16.4644578"><ele>78.0</ele><time>2026-05-03T09:55:01.627Z</time></trkpt><trkpt lat="39.6228272" lon="16.4644077"><ele>77.5</ele><time>2026-05-03T09:55:02.612Z</time></trkpt><trkpt lat="39.6226751" lon="16.4643637"><ele>77.0</ele><time>2026-05-03T09:55:03.626Z</time></trkpt><trkpt lat="39.6225338" lon="16.4643137"><ele>76.5</ele><time>2026-05-03T09:55:04.628Z</time></trkpt><trkpt lat="39.6223962" lon="16.4642539"><ele>76.0</ele><time>2026-05-03T09:55:05.629Z</time></trkpt><trkpt lat="39.6222744" lon="16.4641754"><ele>76.0</ele><time>2026-05-03T09:55:06.605Z</time></trkpt><trkpt lat="39.6221681" lon="16.4640866"><ele>76.0</ele><time>2026-05-03T09:55:07.625Z</time></trkpt><trkpt lat="39.6220706" lon="16.4639793"><ele>76.0</ele><time>2026-05-03T09:55:08.602Z</time></trkpt><trkpt lat="39.6219796" lon="16.463854"><ele>76.0</ele><time>2026-05-03T09:55:09.61Z</time></trkpt><trkpt lat="39.6218926" lon="16.4637183"><ele>76.25</ele><time>2026-05-03T09:55:10.615Z</time></trkpt><trkpt lat="39.6218012" lon="16.4635751"><ele>76.5</ele><time>2026-05-03T09:55:11.613Z</time></trkpt><trkpt lat="39.6217075" lon="16.4634273"><ele>76.75</ele><time>2026-05-03T09:55:12.599Z</time></trkpt><trkpt lat="39.621606" lon="16.4632697"><ele>77.0</ele><time>2026-05-03T09:55:13.617Z</time></trkpt><trkpt lat="39.6214978" lon="16.4631107"><ele>77.0</ele><time>2026-05-03T09:55:14.609Z</time></trkpt><trkpt lat="39.6213876" lon="16.4629535"><ele>77.0</ele><time>2026-05-03T09:55:15.616Z</time></trkpt><trkpt lat="39.6212788" lon="16.4627936"><ele>77.0</ele><time>2026-05-03T09:55:16.614Z</time></trkpt><trkpt lat="39.6211716" lon="16.4626312"><ele>78.0</ele><time>2026-05-03T09:55:17.62Z</time></trkpt><trkpt lat="39.6210615" lon="16.4624654"><ele>79.0</ele><time>2026-05-03T09:55:18.599Z</time></trkpt><trkpt lat="39.6209504" lon="16.4623012"><ele>80.0</ele><time>2026-05-03T09:55:19.613Z</time></trkpt><trkpt lat="39.6208469" lon="16.4621453"><ele>82.25</ele><time>2026-05-03T09:55:20.605Z</time></trkpt><trkpt lat="39.6207524" lon="16.4620101"><ele>84.5</ele><time>2026-05-03T09:55:21.598Z</time></trkpt><trkpt lat="39.6206502" lon="16.4619014"><ele>86.75</ele><time>2026-05-03T09:55:22.615Z</time></trkpt><trkpt lat="39.620524" lon="16.4618175"><ele>89.0</ele><time>2026-05-03T09:55:23.623Z</time></trkpt><trkpt lat="39.6203731" lon="16.4617583"><ele>86.33333333333334</ele><time>2026-05-03T09:55:24.633Z</time></trkpt><trkpt lat="39.6202182" lon="16.461706"><ele>83.66666666666667</ele><time>2026-05-03T09:55:25.612Z</time></trkpt><trkpt lat="39.6200589" lon="16.4616428"><ele>81.0</ele><time>2026-05-03T09:55:26.617Z</time></trkpt><trkpt lat="39.6198957" lon="16.4615728"><ele>81.0</ele><time>2026-05-03T09:55:27.611Z</time></trkpt><trkpt lat="39.6197288" lon="16.4615086"><ele>81.0</ele><time>2026-05-03T09:55:28.618Z</time></trkpt><trkpt lat="39.6195592" lon="16.4614425"><ele>81.0</ele><time>2026-05-03T09:55:29.625Z</time></trkpt><trkpt lat="39.6193856" lon="16.4613693"><ele>80.33333333333333</ele><time>2026-05-03T09:55:30.615Z</time></trkpt><trkpt lat="39.6192108" lon="16.4612999"><ele>79.66666666666666</ele><time>2026-05-03T09:55:31.623Z</time></trkpt><trkpt lat="39.6190338" lon="16.4612263"><ele>79.0</ele><time>2026-05-03T09:55:32.615Z</time></trkpt><trkpt lat="39.6188541" lon="16.4611544"><ele>80.66666666666666</ele><time>2026-05-03T09:55:33.612Z</time></trkpt><trkpt lat="39.6186698" lon="16.4610873"><ele>82.33333333333333</ele><time>2026-05-03T09:55:34.625Z</time></trkpt><trkpt lat="39.6184846" lon="16.4610258"><ele>84.0</ele><time>2026-05-03T09:55:35.611Z</time></trkpt><trkpt lat="39.6183077" lon="16.4609719"><ele>84.0</ele><time>2026-05-03T09:55:36.622Z</time></trkpt><trkpt lat="39.6181434" lon="16.4609246"><ele>84.0</ele><time>2026-05-03T09:55:37.619Z</time></trkpt><trkpt lat="39.6179878" lon="16.4608819"><ele>84.0</ele><time>2026-05-03T09:55:38.633Z</time></trkpt><trkpt lat="39.6178357" lon="16.4608271"><ele>84.0</ele><time>2026-05-03T09:55:39.617Z</time></trkpt><trkpt lat="39.6176932" lon="16.4607571"><ele>84.0</ele><time>2026-05-03T09:55:40.595Z</time></trkpt><trkpt lat="39.6175583" lon="16.4606545"><ele>84.0</ele><time>2026-05-03T09:55:41.589Z</time></trkpt><trkpt lat="39.6174295" lon="16.4605347"><ele>85.33333333333333</ele><time>2026-05-03T09:55:42.609Z</time></trkpt><trkpt lat="39.6172966" lon="16.4604051"><ele>86.66666666666666</ele><time>2026-05-03T09:55:43.613Z</time></trkpt><trkpt lat="39.6171619" lon="16.4602841"><ele>88.0</ele><time>2026-05-03T09:55:44.615Z</time></trkpt><trkpt lat="39.6170262" lon="16.46016"><ele>88.5</ele><time>2026-05-03T09:55:45.626Z</time></trkpt><trkpt lat="39.6169018" lon="16.4600415"><ele>89.0</ele><time>2026-05-03T09:55:46.62Z</time></trkpt><trkpt lat="39.6167832" lon="16.4599358"><ele>89.5</ele><time>2026-05-03T09:55:47.618Z</time></trkpt><trkpt lat="39.6166629" lon="16.4598451"><ele>90.0</ele><time>2026-05-03T09:55:48.61Z</time></trkpt><trkpt lat="39.6165348" lon="16.45978"><ele>90.0</ele><time>2026-05-03T09:55:49.613Z</time></trkpt><trkpt lat="39.6163942" lon="16.45975"><ele>90.0</ele><time>2026-05-03T09:55:50.614Z</time></trkpt><trkpt lat="39.6162512" lon="16.459749"><ele>90.0</ele><time>2026-05-03T09:55:51.605Z</time></trkpt><trkpt lat="39.6161045" lon="16.459757"><ele>90.0</ele><time>2026-05-03T09:55:52.633Z</time></trkpt><trkpt lat="39.615956" lon="16.4597459"><ele>90.33333333333333</ele><time>2026-05-03T09:55:53.612Z</time></trkpt><trkpt lat="39.6158056" lon="16.4597163"><ele>90.66666666666666</ele><time>2026-05-03T09:55:54.631Z</time></trkpt><trkpt lat="39.6156591" lon="16.4596805"><ele>91.0</ele><time>2026-05-03T09:55:55.611Z</time></trkpt><trkpt lat="39.6155105" lon="16.4596505"><ele>91.0</ele><time>2026-05-03T09:55:56.606Z</time></trkpt><trkpt lat="39.6153592" lon="16.4596232"><ele>91.0</ele><time>2026-05-03T09:55:57.596Z</time></trkpt><trkpt lat="39.6152033" lon="16.4595956"><ele>91.0</ele><time>2026-05-03T09:55:58.607Z</time></trkpt><trkpt lat="39.6150454" lon="16.4595837"><ele>98.66666666666666</ele><time>2026-05-03T09:55:59.605Z</time></trkpt><trkpt lat="39.6148857" lon="16.459579"><ele>106.33333333333333</ele><time>2026-05-03T09:56:00.612Z</time></trkpt><trkpt lat="39.6147325" lon="16.4595731"><ele>114.0</ele><time>2026-05-03T09:56:01.611Z</time></trkpt><trkpt lat="39.6145949" lon="16.4595573"><ele>110.75</ele><time>2026-05-03T09:56:02.603Z</time></trkpt><trkpt lat="39.6144631" lon="16.4595138"><ele>107.5</ele><time>2026-05-03T09:56:03.597Z</time></trkpt><trkpt lat="39.6143327" lon="16.459441"><ele>104.25</ele><time>2026-05-03T09:56:04.611Z</time></trkpt><trkpt lat="39.614201" lon="16.4593561"><ele>101.0</ele><time>2026-05-03T09:56:05.604Z</time></trkpt><trkpt lat="39.6140673" lon="16.4592533"><ele>101.0</ele><time>2026-05-03T09:56:06.602Z</time></trkpt><trkpt lat="39.6139369" lon="16.4591334"><ele>101.0</ele><time>2026-05-03T09:56:07.604Z</time></trkpt><trkpt lat="39.6138039" lon="16.4590175"><ele>101.0</ele><time>2026-05-03T09:56:08.6Z</time></trkpt><trkpt lat="39.6136623" lon="16.4589194"><ele>99.33333333333333</ele><time>2026-05-03T09:56:09.606Z</time></trkpt><trkpt lat="39.6135114" lon="16.4588391"><ele>97.66666666666666</ele><time>2026-05-03T09:56:10.605Z</time></trkpt><trkpt lat="39.6133652" lon="16.4587643"><ele>96.0</ele><time>2026-05-03T09:56:11.596Z</time></trkpt><trkpt lat="39.6132268" lon="16.4587034"><ele>99.5</ele><time>2026-05-03T09:56:12.609Z</time></trkpt><trkpt lat="39.6130852" lon="16.458657"><ele>103.0</ele><time>2026-05-03T09:56:13.608Z</time></trkpt><trkpt lat="39.612936" lon="16.4586295"><ele>106.5</ele><time>2026-05-03T09:56:14.617Z</time></trkpt><trkpt lat="39.6127839" lon="16.4586256"><ele>110.0</ele><time>2026-05-03T09:56:15.613Z</time></trkpt><trkpt lat="39.6126355" lon="16.4586257"><ele>110.4</ele><time>2026-05-03T09:56:16.63Z</time></trkpt><trkpt lat="39.6125053" lon="16.4586332"><ele>110.8</ele><time>2026-05-03T09:56:17.605Z</time></trkpt><trkpt lat="39.6123978" lon="16.4586389"><ele>111.19999999999999</ele><time>2026-05-03T09:56:18.612Z</time></trkpt><trkpt lat="39.6123183" lon="16.4586606"><ele>111.6</ele><time>2026-05-03T09:56:19.605Z</time></trkpt><trkpt lat="39.6122499" lon="16.4586957"><ele>112.0</ele><time>2026-05-03T09:56:20.612Z</time></trkpt><trkpt lat="39.6121763" lon="16.4587561"><ele>110.39999999999999</ele><time>2026-05-03T09:56:21.611Z</time></trkpt><trkpt lat="39.6120913" lon="16.458829"><ele>108.79999999999998</ele><time>2026-05-03T09:56:22.62Z</time></trkpt><trkpt lat="39.6119966" lon="16.4589108"><ele>107.2</ele><time>2026-05-03T09:56:23.608Z</time></trkpt><trkpt lat="39.6119092" lon="16.4589871"><ele>105.6</ele><time>2026-05-03T09:56:24.63Z</time></trkpt><trkpt lat="39.6118178" lon="16.4590537"><ele>104.0</ele><time>2026-05-03T09:56:25.62Z</time></trkpt><trkpt lat="39.6117172" lon="16.4591151"><ele>104.0</ele><time>2026-05-03T09:56:26.615Z</time></trkpt><trkpt lat="39.6116048" lon="16.4591589"><ele>104.0</ele><time>2026-05-03T09:56:27.619Z</time></trkpt><trkpt lat="39.6114922" lon="16.459214"><ele>104.0</ele><time>2026-05-03T09:56:28.608Z</time></trkpt><trkpt lat="39.6113966" lon="16.459296"><ele>104.0</ele><time>2026-05-03T09:56:29.619Z</time></trkpt><trkpt lat="39.611313" lon="16.4594211"><ele>104.0</ele><time>2026-05-03T09:56:30.617Z</time></trkpt><trkpt lat="39.6112417" lon="16.4595737"><ele>104.0</ele><time>2026-05-03T09:56:31.607Z</time></trkpt><trkpt lat="39.6111723" lon="16.4597134"><ele>104.0</ele><time>2026-05-03T09:56:32.615Z</time></trkpt><trkpt lat="39.6110898" lon="16.4598222"><ele>104.0</ele><time>2026-05-03T09:56:33.606Z</time></trkpt><trkpt lat="39.610986" lon="16.4598997"><ele>108.0</ele><time>2026-05-03T09:56:34.623Z</time></trkpt><trkpt lat="39.6108736" lon="16.4599717"><ele>112.0</ele><time>2026-05-03T09:56:35.607Z</time></trkpt><trkpt lat="39.6107467" lon="16.4600528"><ele>116.0</ele><time>2026-05-03T09:56:36.619Z</time></trkpt><trkpt lat="39.6106157" lon="16.4601512"><ele>120.0</ele><time>2026-05-03T09:56:37.604Z</time></trkpt><trkpt lat="39.6104772" lon="16.4602551"><ele>120.0</ele><time>2026-05-03T09:56:38.597Z</time></trkpt><trkpt lat="39.6103335" lon="16.4603605"><ele>120.0</ele><time>2026-05-03T09:56:39.591Z</time></trkpt><trkpt lat="39.6101927" lon="16.4604722"><ele>120.0</ele><time>2026-05-03T09:56:40.613Z</time></trkpt><trkpt lat="39.6100633" lon="16.4605863"><ele>120.25</ele><time>2026-05-03T09:56:41.594Z</time></trkpt><trkpt lat="39.6099478" lon="16.460694"><ele>120.5</ele><time>2026-05-03T09:56:42.605Z</time></trkpt><trkpt lat="39.6098248" lon="16.460776"><ele>120.75</ele><time>2026-05-03T09:56:43.618Z</time></trkpt><trkpt lat="39.6096953" lon="16.4608303"><ele>121.0</ele><time>2026-05-03T09:56:44.61Z</time></trkpt><trkpt lat="39.6095782" lon="16.4608738"><ele>120.75</ele><time>2026-05-03T09:56:45.596Z</time></trkpt><trkpt lat="39.6094895" lon="16.4609549"><ele>120.5</ele><time>2026-05-03T09:56:46.597Z</time></trkpt><trkpt lat="39.6094172" lon="16.4610695"><ele>120.25</ele><time>2026-05-03T09:56:47.598Z</time></trkpt><trkpt lat="39.6093534" lon="16.4612126"><ele>120.0</ele><time>2026-05-03T09:56:48.594Z</time></trkpt><trkpt lat="39.6092763" lon="16.4613408"><ele>120.0</ele><time>2026-05-03T09:56:49.593Z</time></trkpt><trkpt lat="39.6092055" lon="16.4614579"><ele>120.0</ele><time>2026-05-03T09:56:50.617Z</time></trkpt><trkpt lat="39.6091333" lon="16.4615457"><ele>120.0</ele><time>2026-05-03T09:56:51.61Z</time></trkpt><trkpt lat="39.6090481" lon="16.4615968"><ele>120.0</ele><time>2026-05-03T09:56:52.593Z</time></trkpt><trkpt lat="39.6089534" lon="16.4615925"><ele>120.0</ele><time>2026-05-03T09:56:53.598Z</time></trkpt><trkpt lat="39.6088572" lon="16.4615446"><ele>120.0</ele><time>2026-05-03T09:56:54.588Z</time></trkpt><trkpt lat="39.6087609" lon="16.4614678"><ele>120.0</ele><time>2026-05-03T09:56:55.601Z</time></trkpt><trkpt lat="39.6086605" lon="16.461389"><ele>120.0</ele><time>2026-05-03T09:56:56.605Z</time></trkpt><trkpt lat="39.6085577" lon="16.461321"><ele>120.0</ele><time>2026-05-03T09:56:57.598Z</time></trkpt><trkpt lat="39.6084472" lon="16.4612746"><ele>121.5</ele><time>2026-05-03T09:56:58.606Z</time></trkpt><trkpt lat="39.608328" lon="16.4612811"><ele>123.0</ele><time>2026-05-03T09:56:59.604Z</time></trkpt><trkpt lat="39.6082143" lon="16.4613335"><ele>124.5</ele><time>2026-05-03T09:57:00.621Z</time></trkpt><trkpt lat="39.6081225" lon="16.4614271"><ele>126.0</ele><time>2026-05-03T09:57:01.611Z</time></trkpt><trkpt lat="39.6080412" lon="16.4615459"><ele>126.0</ele><time>2026-05-03T09:57:02.607Z</time></trkpt><trkpt lat="39.6079761" lon="16.4616765"><ele>126.0</ele><time>2026-05-03T09:57:03.61Z</time></trkpt><trkpt lat="39.6078827" lon="16.4617486"><ele>126.0</ele><time>2026-05-03T09:57:04.616Z</time></trkpt><trkpt lat="39.6077826" lon="16.4617538"><ele>126.0</ele><time>2026-05-03T09:57:05.597Z</time></trkpt><trkpt lat="39.6076977" lon="16.4617177"><ele>126.0</ele><time>2026-05-03T09:57:06.599Z</time></trkpt><trkpt lat="39.6076204" lon="16.4616511"><ele>129.8</ele><time>2026-05-03T09:57:07.607Z</time></trkpt><trkpt lat="39.6075373" lon="16.4615779"><ele>133.6</ele><time>2026-05-03T09:57:08.596Z</time></trkpt><trkpt lat="39.6074461" lon="16.4615031"><ele>137.4</ele><time>2026-05-03T09:57:09.59Z</time></trkpt><trkpt lat="39.6073499" lon="16.4614496"><ele>141.2</ele><time>2026-05-03T09:57:10.614Z</time></trkpt><trkpt lat="39.6072409" lon="16.4614336"><ele>145.0</ele><time>2026-05-03T09:57:11.601Z</time></trkpt><trkpt lat="39.6071309" lon="16.461448"><ele>145.0</ele><time>2026-05-03T09:57:12.608Z</time></trkpt><trkpt lat="39.6070237" lon="16.461501"><ele>145.0</ele><time>2026-05-03T09:57:13.61Z</time></trkpt><trkpt lat="39.6069264" lon="16.4615827"><ele>145.0</ele><time>2026-05-03T09:57:14.607Z</time></trkpt><trkpt lat="39.6068398" lon="16.4616671"><ele>145.0</ele><time>2026-05-03T09:57:15.605Z</time></trkpt><trkpt lat="39.6067741" lon="16.4617761"><ele>145.0</ele><time>2026-05-03T09:57:16.613Z</time></trkpt><trkpt lat="39.606732" lon="16.4619196"><ele>144.83333333333334</ele><time>2026-05-03T09:57:17.621Z</time></trkpt><trkpt lat="39.6067022" lon="16.4620752"><ele>144.66666666666669</ele><time>2026-05-03T09:57:18.613Z</time></trkpt><trkpt lat="39.6066726" lon="16.4622068"><ele>144.5</ele><time>2026-05-03T09:57:19.607Z</time></trkpt><trkpt lat="39.6066311" lon="16.4622962"><ele>144.33333333333334</ele><time>2026-05-03T09:57:20.612Z</time></trkpt><trkpt lat="39.6065885" lon="16.4623657"><ele>144.16666666666666</ele><time>2026-05-03T09:57:21.589Z</time></trkpt><trkpt lat="39.6065318" lon="16.4624143"><ele>144.0</ele><time>2026-05-03T09:57:22.618Z</time></trkpt><trkpt lat="39.6064511" lon="16.4624332"><ele>144.0</ele><time>2026-05-03T09:57:23.601Z</time></trkpt><trkpt lat="39.6063628" lon="16.4624123"><ele>144.0</ele><time>2026-05-03T09:57:24.609Z</time></trkpt><trkpt lat="39.6062652" lon="16.4623732"><ele>144.0</ele><time>2026-05-03T09:57:25.601Z</time></trkpt><trkpt lat="39.606156" lon="16.4623474"><ele>144.0</ele><time>2026-05-03T09:57:26.621Z</time></trkpt><trkpt lat="39.6060462" lon="16.4623343"><ele>144.0</ele><time>2026-05-03T09:57:27.596Z</time></trkpt><trkpt lat="39.6059531" lon="16.4623437"><ele>147.0</ele><time>2026-05-03T09:57:28.593Z</time></trkpt><trkpt lat="39.6058853" lon="16.462397"><ele>150.0</ele><time>2026-05-03T09:57:29.61Z</time></trkpt><trkpt lat="39.6058359" lon="16.4625031"><ele>153.0</ele><time>2026-05-03T09:57:30.605Z</time></trkpt><trkpt lat="39.6058115" lon="16.4626341"><ele>156.0</ele><time>2026-05-03T09:57:31.61Z</time></trkpt><trkpt lat="39.6057975" lon="16.4627691"><ele>159.0</ele><time>2026-05-03T09:57:32.6Z</time></trkpt><trkpt lat="39.6057805" lon="16.4628965"><ele>156.25</ele><time>2026-05-03T09:57:33.607Z</time></trkpt><trkpt lat="39.6057385" lon="16.4630052"><ele>153.5</ele><time>2026-05-03T09:57:34.588Z</time></trkpt><trkpt lat="39.6056703" lon="16.4631228"><ele>150.75</ele><time>2026-05-03T09:57:35.592Z</time></trkpt><trkpt lat="39.6055877" lon="16.463246"><ele>148.0</ele><time>2026-05-03T09:57:36.606Z</time></trkpt><trkpt lat="39.6055034" lon="16.4633518"><ele>148.0</ele><time>2026-05-03T09:57:37.608Z</time></trkpt><trkpt lat="39.6054139" lon="16.463417"><ele>148.0</ele><time>2026-05-03T09:57:38.616Z</time></trkpt><trkpt lat="39.6053134" lon="16.4634341"><ele>148.0</ele><time>2026-05-03T09:57:39.597Z</time></trkpt><trkpt lat="39.6052019" lon="16.4634108"><ele>148.0</ele><time>2026-05-03T09:57:40.613Z</time></trkpt><trkpt lat="39.6050937" lon="16.4634056"><ele>148.0</ele><time>2026-05-03T09:57:41.582Z</time></trkpt><trkpt lat="39.6049848" lon="16.4634351"><ele>151.0</ele><time>2026-05-03T09:57:42.599Z</time></trkpt><trkpt lat="39.6048844" lon="16.4635097"><ele>154.0</ele><time>2026-05-03T09:57:43.606Z</time></trkpt><trkpt lat="39.6048088" lon="16.4636215"><ele>157.0</ele><time>2026-05-03T09:57:44.611Z</time></trkpt><trkpt lat="39.6047535" lon="16.4637371"><ele>160.0</ele><time>2026-05-03T09:57:45.596Z</time></trkpt><trkpt lat="39.6046943" lon="16.4638652"><ele>160.0</ele><time>2026-05-03T09:57:46.599Z</time></trkpt><trkpt lat="39.6046282" lon="16.4639929"><ele>160.0</ele><time>2026-05-03T09:57:47.598Z</time></trkpt><trkpt lat="39.6045531" lon="16.4641092"><ele>160.0</ele><time>2026-05-03T09:57:48.601Z</time></trkpt><trkpt lat="39.6044943" lon="16.4641966"><ele>160.0</ele><time>2026-05-03T09:57:49.613Z</time></trkpt><trkpt lat="39.6044187" lon="16.4642861"><ele>160.0</ele><time>2026-05-03T09:57:51.598Z</time></trkpt><trkpt lat="39.60434" lon="16.4643463"><ele>161.2</ele><time>2026-05-03T09:57:53.6Z</time></trkpt><trkpt lat="39.6042124" lon="16.464362"><ele>162.4</ele><time>2026-05-03T09:57:55.603Z</time></trkpt><trkpt lat="39.6041264" lon="16.4643298"><ele>163.60000000000002</ele><time>2026-05-03T09:57:56.604Z</time></trkpt><trkpt lat="39.6040298" lon="16.4642775"><ele>164.8</ele><time>2026-05-03T09:57:57.614Z</time></trkpt><trkpt lat="39.6039346" lon="16.4642283"><ele>166.0</ele><time>2026-05-03T09:57:58.603Z</time></trkpt><trkpt lat="39.6038597" lon="16.4641785"><ele>166.0</ele><time>2026-05-03T09:57:59.594Z</time></trkpt><trkpt lat="39.6037931" lon="16.4640977"><ele>166.0</ele><time>2026-05-03T09:58:00.599Z</time></trkpt><trkpt lat="39.6037248" lon="16.4639914"><ele>166.0</ele><time>2026-05-03T09:58:01.598Z</time></trkpt><trkpt lat="39.6036616" lon="16.4638588"><ele>166.0</ele><time>2026-05-03T09:58:02.616Z</time></trkpt><trkpt lat="39.6036026" lon="16.4637147"><ele>166.0</ele><time>2026-05-03T09:58:03.615Z</time></trkpt><trkpt lat="39.6035407" lon="16.4635688"><ele>168.4</ele><time>2026-05-03T09:58:04.614Z</time></trkpt><trkpt lat="39.603479" lon="16.4634322"><ele>170.8</ele><time>2026-05-03T09:58:05.604Z</time></trkpt><trkpt lat="39.6034149" lon="16.463323"><ele>173.20000000000002</ele><time>2026-05-03T09:58:06.607Z</time></trkpt><trkpt lat="39.6033336" lon="16.4632479"><ele>175.60000000000002</ele><time>2026-05-03T09:58:07.617Z</time></trkpt><trkpt lat="39.6032306" lon="16.4631855"><ele>178.0</ele><time>2026-05-03T09:58:08.609Z</time></trkpt><trkpt lat="39.6031147" lon="16.4631417"><ele>178.0</ele><time>2026-05-03T09:58:09.599Z</time></trkpt><trkpt lat="39.602993" lon="16.4630979"><ele>178.0</ele><time>2026-05-03T09:58:10.607Z</time></trkpt><trkpt lat="39.6028736" lon="16.4630653"><ele>178.0</ele><time>2026-05-03T09:58:11.608Z</time></trkpt><trkpt lat="39.6027682" lon="16.4630549"><ele>178.0</ele><time>2026-05-03T09:58:12.607Z</time></trkpt><trkpt lat="39.6026817" lon="16.4630871"><ele>178.0</ele><time>2026-05-03T09:58:13.597Z</time></trkpt><trkpt lat="39.6026095" lon="16.4631549"><ele>177.60000000000002</ele><time>2026-05-03T09:58:14.603Z</time></trkpt><trkpt lat="39.6025626" lon="16.4632647"><ele>177.20000000000002</ele><time>2026-05-03T09:58:15.604Z</time></trkpt><trkpt lat="39.6025403" lon="16.4634058"><ele>176.8</ele><time>2026-05-03T09:58:16.598Z</time></trkpt><trkpt lat="39.6025249" lon="16.4635618"><ele>176.4</ele><time>2026-05-03T09:58:17.605Z</time></trkpt><trkpt lat="39.6025017" lon="16.4636954"><ele>176.0</ele><time>2026-05-03T09:58:18.609Z</time></trkpt><trkpt lat="39.6024668" lon="16.4638113"><ele>176.0</ele><time>2026-05-03T09:58:19.602Z</time></trkpt><trkpt lat="39.6024096" lon="16.4639075"><ele>176.0</ele><time>2026-05-03T09:58:20.6Z</time></trkpt><trkpt lat="39.6023249" lon="16.4639912"><ele>176.0</ele><time>2026-05-03T09:58:21.601Z</time></trkpt><trkpt lat="39.6022207" lon="16.4640699"><ele>176.0</ele><time>2026-05-03T09:58:22.604Z</time></trkpt><trkpt lat="39.6021064" lon="16.464142"><ele>176.0</ele><time>2026-05-03T09:58:23.596Z</time></trkpt><trkpt lat="39.6019925" lon="16.4642082"><ele>177.8</ele><time>2026-05-03T09:58:24.606Z</time></trkpt><trkpt lat="39.6018837" lon="16.4642422"><ele>179.60000000000002</ele><time>2026-05-03T09:58:25.606Z</time></trkpt><trkpt lat="39.6017929" lon="16.464236"><ele>181.4</ele><time>2026-05-03T09:58:26.606Z</time></trkpt><trkpt lat="39.6017135" lon="16.4641812"><ele>183.2</ele><time>2026-05-03T09:58:27.615Z</time></trkpt><trkpt lat="39.6016643" lon="16.464093"><ele>185.0</ele><time>2026-05-03T09:58:28.601Z</time></trkpt><trkpt lat="39.6016327" lon="16.4639732"><ele>185.0</ele><time>2026-05-03T09:58:29.617Z</time></trkpt><trkpt lat="39.6016095" lon="16.4638251"><ele>185.0</ele><time>2026-05-03T09:58:30.598Z</time></trkpt><trkpt lat="39.6015784" lon="16.4636699"><ele>185.0</ele><time>2026-05-03T09:58:31.599Z</time></trkpt><trkpt lat="39.6015428" lon="16.4635043"><ele>185.0</ele><time>2026-05-03T09:58:32.614Z</time></trkpt><trkpt lat="39.6015084" lon="16.4633357"><ele>188.25</ele><time>2026-05-03T09:58:33.584Z</time></trkpt><trkpt lat="39.6014828" lon="16.4631564"><ele>191.5</ele><time>2026-05-03T09:58:34.598Z</time></trkpt><trkpt lat="39.6014612" lon="16.4629715"><ele>194.75</ele><time>2026-05-03T09:58:35.593Z</time></trkpt><trkpt lat="39.6014454" lon="16.4628007"><ele>198.0</ele><time>2026-05-03T09:58:36.605Z</time></trkpt><trkpt lat="39.6014311" lon="16.4626689"><ele>197.8</ele><time>2026-05-03T09:58:37.61Z</time></trkpt><trkpt lat="39.60139" lon="16.4625788"><ele>197.60000000000002</ele><time>2026-05-03T09:58:38.613Z</time></trkpt><trkpt lat="39.6013239" lon="16.4625164"><ele>197.39999999999998</ele><time>2026-05-03T09:58:39.595Z</time></trkpt><trkpt lat="39.6012299" lon="16.4625006"><ele>197.2</ele><time>2026-05-03T09:58:40.609Z</time></trkpt><trkpt lat="39.6011228" lon="16.4624948"><ele>197.0</ele><time>2026-05-03T09:58:41.602Z</time></trkpt><trkpt lat="39.6010135" lon="16.4624616"><ele>197.0</ele><time>2026-05-03T09:58:42.606Z</time></trkpt><trkpt lat="39.600906" lon="16.4623992"><ele>197.0</ele><time>2026-05-03T09:58:43.602Z</time></trkpt><trkpt lat="39.6007997" lon="16.462296"><ele>197.0</ele><time>2026-05-03T09:58:44.617Z</time></trkpt><trkpt lat="39.6007029" lon="16.4621841"><ele>197.0</ele><time>2026-05-03T09:58:45.61Z</time></trkpt><trkpt lat="39.6006224" lon="16.4620856"><ele>199.39999999999998</ele><time>2026-05-03T09:58:46.617Z</time></trkpt><trkpt lat="39.6005772" lon="16.461998"><ele>201.79999999999998</ele><time>2026-05-03T09:58:47.594Z</time></trkpt><trkpt lat="39.6005744" lon="16.4619031"><ele>204.2</ele><time>2026-05-03T09:58:48.617Z</time></trkpt><trkpt lat="39.6006025" lon="16.4617987"><ele>206.6</ele><time>2026-05-03T09:58:49.614Z</time></trkpt><trkpt lat="39.6006735" lon="16.4617045"><ele>209.0</ele><time>2026-05-03T09:58:50.607Z</time></trkpt><trkpt lat="39.6007584" lon="16.4615884"><ele>209.0</ele><time>2026-05-03T09:58:51.596Z</time></trkpt><trkpt lat="39.6008433" lon="16.4614671"><ele>209.0</ele><time>2026-05-03T09:58:52.623Z</time></trkpt><trkpt lat="39.6009264" lon="16.4613579"><ele>209.0</ele><time>2026-05-03T09:58:53.613Z</time></trkpt><trkpt lat="39.6009877" lon="16.4612665"><ele>209.0</ele><time>2026-05-03T09:58:54.635Z</time></trkpt><trkpt lat="39.6010182" lon="16.4611855"><ele>209.0</ele><time>2026-05-03T09:58:55.607Z</time></trkpt><trkpt lat="39.6010103" lon="16.4611015"><ele>210.50000000000003</ele><time>2026-05-03T09:58:56.612Z</time></trkpt><trkpt lat="39.6009667" lon="16.4610328"><ele>212.0</ele><time>2026-05-03T09:58:57.606Z</time></trkpt><trkpt lat="39.6008971" lon="16.4610045"><ele>213.5</ele><time>2026-05-03T09:58:58.606Z</time></trkpt><trkpt lat="39.6008192" lon="16.4610273"><ele>215.0</ele><time>2026-05-03T09:58:59.6Z</time></trkpt><trkpt lat="39.6007288" lon="16.4610589"><ele>216.50000000000003</ele><time>2026-05-03T09:59:00.609Z</time></trkpt><trkpt lat="39.6006168" lon="16.4610747"><ele>218.0</ele><time>2026-05-03T09:59:01.615Z</time></trkpt><trkpt lat="39.6005089" lon="16.4610563"><ele>218.0</ele><time>2026-05-03T09:59:02.611Z</time></trkpt><trkpt lat="39.6004131" lon="16.4610124"><ele>218.0</ele><time>2026-05-03T09:59:03.602Z</time></trkpt><trkpt lat="39.6003341" lon="16.4609338"><ele>218.0</ele><time>2026-05-03T09:59:04.617Z</time></trkpt><trkpt lat="39.6002662" lon="16.4608282"><ele>218.0</ele><time>2026-05-03T09:59:05.602Z</time></trkpt><trkpt lat="39.6002058" lon="16.4607176"><ele>218.0</ele><time>2026-05-03T09:59:06.597Z</time></trkpt><trkpt lat="39.600163" lon="16.4606243"><ele>218.8</ele><time>2026-05-03T09:59:07.601Z</time></trkpt><trkpt lat="39.6001608" lon="16.4605183"><ele>219.60000000000002</ele><time>2026-05-03T09:59:08.596Z</time></trkpt><trkpt lat="39.6001914" lon="16.4603917"><ele>220.39999999999998</ele><time>2026-05-03T09:59:09.605Z</time></trkpt><trkpt lat="39.6002476" lon="16.4602722"><ele>221.2</ele><time>2026-05-03T09:59:10.609Z</time></trkpt><trkpt lat="39.6003157" lon="16.4601644"><ele>222.0</ele><time>2026-05-03T09:59:11.601Z</time></trkpt><trkpt lat="39.6003679" lon="16.4600686"><ele>222.0</ele><time>2026-05-03T09:59:12.607Z</time></trkpt><trkpt lat="39.6003763" lon="16.4599813"><ele>222.0</ele><time>2026-05-03T09:59:13.606Z</time></trkpt><trkpt lat="39.6002792" lon="16.4598726"><ele>222.0</ele><time>2026-05-03T09:59:15.61Z</time></trkpt><trkpt lat="39.6001976" lon="16.459874"><ele>222.0</ele><time>2026-05-03T09:59:16.609Z</time></trkpt><trkpt lat="39.6001044" lon="16.4599058"><ele>222.0</ele><time>2026-05-03T09:59:17.61Z</time></trkpt><trkpt lat="39.6000018" lon="16.459962"><ele>222.0</ele><time>2026-05-03T09:59:18.609Z</time></trkpt><trkpt lat="39.5999008" lon="16.4600058"><ele>222.0</ele><time>2026-05-03T09:59:19.606Z</time></trkpt><trkpt lat="39.5998088" lon="16.4600105"><ele>222.0</ele><time>2026-05-03T09:59:20.613Z</time></trkpt><trkpt lat="39.5997324" lon="16.4599702"><ele>222.0</ele><time>2026-05-03T09:59:21.6Z</time></trkpt><trkpt lat="39.5996708" lon="16.4598956"><ele>222.0</ele><time>2026-05-03T09:59:22.608Z</time></trkpt><trkpt lat="39.5996374" lon="16.4597874"><ele>222.0</ele><time>2026-05-03T09:59:23.603Z</time></trkpt><trkpt lat="39.5996304" lon="16.4596592"><ele>222.0</ele><time>2026-05-03T09:59:24.604Z</time></trkpt><trkpt lat="39.5996627" lon="16.4595254"><ele>222.0</ele><time>2026-05-03T09:59:25.602Z</time></trkpt><trkpt lat="39.5996909" lon="16.4594035"><ele>222.0</ele><time>2026-05-03T09:59:26.592Z</time></trkpt><trkpt lat="39.599699" lon="16.4593069"><ele>222.0</ele><time>2026-05-03T09:59:27.606Z</time></trkpt><trkpt lat="39.5996409" lon="16.4591963"><ele>223.25</ele><time>2026-05-03T09:59:28.605Z</time></trkpt><trkpt lat="39.5995544" lon="16.4591079"><ele>224.5</ele><time>2026-05-03T09:59:29.607Z</time></trkpt><trkpt lat="39.5994431" lon="16.4590468"><ele>225.75</ele><time>2026-05-03T09:59:30.611Z</time></trkpt><trkpt lat="39.5993167" lon="16.4590051"><ele>227.0</ele><time>2026-05-03T09:59:31.611Z</time></trkpt><trkpt lat="39.5991858" lon="16.4589598"><ele>227.0</ele><time>2026-05-03T09:59:32.605Z</time></trkpt><trkpt lat="39.5990735" lon="16.4588773"><ele>227.0</ele><time>2026-05-03T09:59:33.598Z</time></trkpt><trkpt lat="39.598975" lon="16.4587637"><ele>227.0</ele><time>2026-05-03T09:59:34.613Z</time></trkpt><trkpt lat="39.5988883" lon="16.4586253"><ele>227.0</ele><time>2026-05-03T09:59:35.607Z</time></trkpt><trkpt lat="39.5988011" lon="16.4584823"><ele>229.25</ele><time>2026-05-03T09:59:36.607Z</time></trkpt><trkpt lat="39.5986932" lon="16.4583593"><ele>231.5</ele><time>2026-05-03T09:59:37.606Z</time></trkpt><trkpt lat="39.5985857" lon="16.4582472"><ele>233.75</ele><time>2026-05-03T09:59:38.62Z</time></trkpt><trkpt lat="39.5984869" lon="16.458164"><ele>236.0</ele><time>2026-05-03T09:59:39.602Z</time></trkpt><trkpt lat="39.5983903" lon="16.4581201"><ele>236.0</ele><time>2026-05-03T09:59:40.624Z</time></trkpt><trkpt lat="39.5982743" lon="16.4581149"><ele>236.0</ele><time>2026-05-03T09:59:41.602Z</time></trkpt><trkpt lat="39.5981511" lon="16.4581436"><ele>236.0</ele><time>2026-05-03T09:59:42.603Z</time></trkpt><trkpt lat="39.5980225" lon="16.4581877"><ele>236.0</ele><time>2026-05-03T09:59:43.601Z</time></trkpt><trkpt lat="39.5978905" lon="16.4582167"><ele>236.75</ele><time>2026-05-03T09:59:44.615Z</time></trkpt><trkpt lat="39.5977667" lon="16.4581991"><ele>237.5</ele><time>2026-05-03T09:59:45.6Z</time></trkpt><trkpt lat="39.5976554" lon="16.4581517"><ele>238.25</ele><time>2026-05-03T09:59:46.611Z</time></trkpt><trkpt lat="39.5975342" lon="16.4581134"><ele>239.0</ele><time>2026-05-03T09:59:47.608Z</time></trkpt><trkpt lat="39.5974089" lon="16.4581168"><ele>239.0</ele><time>2026-05-03T09:59:48.6Z</time></trkpt><trkpt lat="39.5972798" lon="16.4581421"><ele>238.99999999999997</ele><time>2026-05-03T09:59:49.598Z</time></trkpt><trkpt lat="39.597165" lon="16.458174"><ele>238.99999999999997</ele><time>2026-05-03T09:59:50.588Z</time></trkpt><trkpt lat="39.5970732" lon="16.4581965"><ele>239.0</ele><time>2026-05-03T09:59:51.575Z</time></trkpt><trkpt lat="39.5969883" lon="16.4581773"><ele>239.0</ele><time>2026-05-03T09:59:52.592Z</time></trkpt><trkpt lat="39.5969196" lon="16.4581338"><ele>238.39999999999998</ele><time>2026-05-03T09:59:53.606Z</time></trkpt><trkpt lat="39.5968619" lon="16.4580665"><ele>237.79999999999998</ele><time>2026-05-03T09:59:54.61Z</time></trkpt><trkpt lat="39.5968187" lon="16.4579654"><ele>237.20000000000002</ele><time>2026-05-03T09:59:55.628Z</time></trkpt><trkpt lat="39.5967863" lon="16.4578383"><ele>236.60000000000002</ele><time>2026-05-03T09:59:56.61Z</time></trkpt><trkpt lat="39.5967514" lon="16.457709"><ele>236.0</ele><time>2026-05-03T09:59:57.607Z</time></trkpt><trkpt lat="39.5966955" lon="16.4575913"><ele>238.8</ele><time>2026-05-03T09:59:58.616Z</time></trkpt><trkpt lat="39.5966227" lon="16.4575152"><ele>241.60000000000002</ele><time>2026-05-03T09:59:59.613Z</time></trkpt><trkpt lat="39.5965261" lon="16.4574867"><ele>244.4</ele><time>2026-05-03T10:00:00.593Z</time></trkpt><trkpt lat="39.5964257" lon="16.4575169"><ele>247.2</ele><time>2026-05-03T10:00:01.594Z</time></trkpt><trkpt lat="39.5963338" lon="16.4575826"><ele>250.0</ele><time>2026-05-03T10:00:02.603Z</time></trkpt><trkpt lat="39.5962435" lon="16.4576551"><ele>250.2</ele><time>2026-05-03T10:00:03.609Z</time></trkpt><trkpt lat="39.5961529" lon="16.4576816"><ele>250.4</ele><time>2026-05-03T10:00:04.603Z</time></trkpt><trkpt lat="39.5960586" lon="16.4576559"><ele>250.60000000000002</ele><time>2026-05-03T10:00:05.591Z</time></trkpt><trkpt lat="39.595955" lon="16.4576153"><ele>250.8</ele><time>2026-05-03T10:00:06.592Z</time></trkpt><trkpt lat="39.5958526" lon="16.4575672"><ele>251.0</ele><time>2026-05-03T10:00:07.596Z</time></trkpt><trkpt lat="39.5957503" lon="16.4574887"><ele>251.0</ele><time>2026-05-03T10:00:08.599Z</time></trkpt><trkpt lat="39.5956541" lon="16.4573926"><ele>251.0</ele><time>2026-05-03T10:00:09.609Z</time></trkpt><trkpt lat="39.5955594" lon="16.457284"><ele>251.0</ele><time>2026-05-03T10:00:10.602Z</time></trkpt><trkpt lat="39.5954615" lon="16.4571623"><ele>251.0</ele><time>2026-05-03T10:00:11.61Z</time></trkpt><trkpt lat="39.5953502" lon="16.4570632"><ele>254.75</ele><time>2026-05-03T10:00:12.599Z</time></trkpt><trkpt lat="39.5952248" lon="16.4569696"><ele>258.5</ele><time>2026-05-03T10:00:13.603Z</time></trkpt><trkpt lat="39.595096" lon="16.4568739"><ele>262.25</ele><time>2026-05-03T10:00:14.6Z</time></trkpt><trkpt lat="39.5949678" lon="16.4567807"><ele>266.0</ele><time>2026-05-03T10:00:15.61Z</time></trkpt><trkpt lat="39.5948377" lon="16.4566939"><ele>266.0</ele><time>2026-05-03T10:00:16.607Z</time></trkpt><trkpt lat="39.5946983" lon="16.456631"><ele>266.0</ele><time>2026-05-03T10:00:17.605Z</time></trkpt><trkpt lat="39.5945462" lon="16.4565989"><ele>266.0</ele><time>2026-05-03T10:00:18.619Z</time></trkpt><trkpt lat="39.5943863" lon="16.4565908"><ele>265.0</ele><time>2026-05-03T10:00:19.611Z</time></trkpt><trkpt lat="39.5942214" lon="16.4565671"><ele>264.0</ele><time>2026-05-03T10:00:20.605Z</time></trkpt><trkpt lat="39.5940613" lon="16.4565078"><ele>263.0</ele><time>2026-05-03T10:00:21.602Z</time></trkpt><trkpt lat="39.5939027" lon="16.4564312"><ele>263.0</ele><time>2026-05-03T10:00:22.61Z</time></trkpt><trkpt lat="39.5937403" lon="16.4563629"><ele>263.0</ele><time>2026-05-03T10:00:23.616Z</time></trkpt><trkpt lat="39.5935891" lon="16.4563026"><ele>263.0</ele><time>2026-05-03T10:00:24.61Z</time></trkpt><trkpt lat="39.5934523" lon="16.4562408"><ele>264.5</ele><time>2026-05-03T10:00:25.612Z</time></trkpt><trkpt lat="39.5933218" lon="16.4561571"><ele>266.0</ele><time>2026-05-03T10:00:26.614Z</time></trkpt><trkpt lat="39.5932019" lon="16.4560486"><ele>267.5</ele><time>2026-05-03T10:00:27.605Z</time></trkpt><trkpt lat="39.5930849" lon="16.4559343"><ele>269.0</ele><time>2026-05-03T10:00:28.596Z</time></trkpt><trkpt lat="39.5929651" lon="16.4558256"><ele>269.0</ele><time>2026-05-03T10:00:29.614Z</time></trkpt><trkpt lat="39.5928526" lon="16.4557282"><ele>269.0</ele><time>2026-05-03T10:00:30.611Z</time></trkpt><trkpt lat="39.5927358" lon="16.4556525"><ele>269.0</ele><time>2026-05-03T10:00:31.613Z</time></trkpt><trkpt lat="39.5926052" lon="16.4555961"><ele>269.0</ele><time>2026-05-03T10:00:32.596Z</time></trkpt><trkpt lat="39.5924664" lon="16.4555711"><ele>271.5</ele><time>2026-05-03T10:00:33.581Z</time></trkpt><trkpt lat="39.5923209" lon="16.4555665"><ele>274.0</ele><time>2026-05-03T10:00:34.604Z</time></trkpt><trkpt lat="39.5921787" lon="16.4555733"><ele>276.5</ele><time>2026-05-03T10:00:35.605Z</time></trkpt><trkpt lat="39.592051" lon="16.4555917"><ele>279.0</ele><time>2026-05-03T10:00:36.609Z</time></trkpt><trkpt lat="39.5919442" lon="16.4556023"><ele>281.0</ele><time>2026-05-03T10:00:37.613Z</time></trkpt><trkpt lat="39.5918467" lon="16.4555969"><ele>283.0</ele><time>2026-05-03T10:00:38.604Z</time></trkpt><trkpt lat="39.5917658" lon="16.4555824"><ele>285.0</ele><time>2026-05-03T10:00:39.607Z</time></trkpt><trkpt lat="39.5916944" lon="16.4555699"><ele>287.0</ele><time>2026-05-03T10:00:40.622Z</time></trkpt><trkpt lat="39.5915791" lon="16.4555487"><ele>289.0</ele><time>2026-05-03T10:00:42.61Z</time></trkpt><trkpt lat="39.5915094" lon="16.4555341"><ele>291.0</ele><time>2026-05-03T10:00:44.604Z</time></trkpt><trkpt lat="39.5914431" lon="16.4555153"><ele>291.0</ele><time>2026-05-03T10:00:51.609Z</time></trkpt><trkpt lat="39.5913391" lon="16.4555059"><ele>291.0</ele><time>2026-05-03T10:00:53.602Z</time></trkpt><trkpt lat="39.5912718" lon="16.4554965"><ele>291.0</ele><time>2026-05-03T10:00:54.613Z</time></trkpt><trkpt lat="39.591194" lon="16.4554683"><ele>291.0</ele><time>2026-05-03T10:00:55.605Z</time></trkpt><trkpt lat="39.5911106" lon="16.4554227"><ele>291.0</ele><time>2026-05-03T10:00:56.609Z</time></trkpt><trkpt lat="39.5910196" lon="16.4553599"><ele>291.0</ele><time>2026-05-03T10:00:57.608Z</time></trkpt><trkpt lat="39.5909276" lon="16.4552791"><ele>292.75</ele><time>2026-05-03T10:00:58.609Z</time></trkpt><trkpt lat="39.5908274" lon="16.4551946"><ele>294.5</ele><time>2026-05-03T10:00:59.613Z</time></trkpt><trkpt lat="39.5907123" lon="16.455121"><ele>296.25</ele><time>2026-05-03T10:01:00.601Z</time></trkpt><trkpt lat="39.5905821" lon="16.4550584"><ele>298.0</ele><time>2026-05-03T10:01:01.592Z</time></trkpt><trkpt lat="39.5904427" lon="16.4549993"><ele>298.75</ele><time>2026-05-03T10:01:02.611Z</time></trkpt><trkpt lat="39.5903023" lon="16.4549396"><ele>299.5</ele><time>2026-05-03T10:01:03.612Z</time></trkpt><trkpt lat="39.5901642" lon="16.4548792"><ele>300.25</ele><time>2026-05-03T10:01:04.618Z</time></trkpt><trkpt lat="39.5900253" lon="16.4548149"><ele>301.0</ele><time>2026-05-03T10:01:05.61Z</time></trkpt><trkpt lat="39.5898816" lon="16.4547444"><ele>301.0</ele><time>2026-05-03T10:01:06.604Z</time></trkpt><trkpt lat="39.5897376" lon="16.4546809"><ele>301.0</ele><time>2026-05-03T10:01:07.626Z</time></trkpt><trkpt lat="39.5895902" lon="16.4546211"><ele>301.0</ele><time>2026-05-03T10:01:08.608Z</time></trkpt><trkpt lat="39.5894423" lon="16.4545582"><ele>304.75</ele><time>2026-05-03T10:01:09.609Z</time></trkpt><trkpt lat="39.5892927" lon="16.4544891"><ele>308.5</ele><time>2026-05-03T10:01:10.617Z</time></trkpt><trkpt lat="39.5891454" lon="16.4544388"><ele>312.25</ele><time>2026-05-03T10:01:11.601Z</time></trkpt><trkpt lat="39.5890077" lon="16.4544242"><ele>316.0</ele><time>2026-05-03T10:01:12.617Z</time></trkpt><trkpt lat="39.5888839" lon="16.4544253"><ele>316.0</ele><time>2026-05-03T10:01:13.611Z</time></trkpt><trkpt lat="39.5887796" lon="16.4544524"><ele>316.0</ele><time>2026-05-03T10:01:14.609Z</time></trkpt><trkpt lat="39.5886879" lon="16.4545227"><ele>316.0</ele><time>2026-05-03T10:01:15.609Z</time></trkpt><trkpt lat="39.5886144" lon="16.4546196"><ele>316.0</ele><time>2026-05-03T10:01:16.604Z</time></trkpt><trkpt lat="39.5885521" lon="16.4546916"><ele>316.0</ele><time>2026-05-03T10:01:17.602Z</time></trkpt><trkpt lat="39.5884957" lon="16.4547284"><ele>315.3333333333333</ele><time>2026-05-03T10:01:18.625Z</time></trkpt><trkpt lat="39.5884271" lon="16.4547307"><ele>314.66666666666663</ele><time>2026-05-03T10:01:19.61Z</time></trkpt><trkpt lat="39.5883645" lon="16.4546193"><ele>314.0</ele><time>2026-05-03T10:01:21.6Z</time></trkpt><trkpt lat="39.5883889" lon="16.4545373"><ele>313.3333333333333</ele><time>2026-05-03T10:01:22.618Z</time></trkpt><trkpt lat="39.5884434" lon="16.454478"><ele>312.6666666666667</ele><time>2026-05-03T10:01:23.602Z</time></trkpt><trkpt lat="39.5885203" lon="16.4544354"><ele>312.0</ele><time>2026-05-03T10:01:24.624Z</time></trkpt><trkpt lat="39.5886143" lon="16.4543839"><ele>313.0</ele><time>2026-05-03T10:01:25.601Z</time></trkpt><trkpt lat="39.5887202" lon="16.4543218"><ele>314.0</ele><time>2026-05-03T10:01:26.626Z</time></trkpt><trkpt lat="39.5888379" lon="16.4542482"><ele>315.0</ele><time>2026-05-03T10:01:27.611Z</time></trkpt><trkpt lat="39.5889596" lon="16.45418"><ele>316.0</ele><time>2026-05-03T10:01:28.614Z</time></trkpt><trkpt lat="39.5890616" lon="16.4541272"><ele>316.0</ele><time>2026-05-03T10:01:29.6Z</time></trkpt><trkpt lat="39.5891366" lon="16.4540887"><ele>316.0</ele><time>2026-05-03T10:01:30.612Z</time></trkpt><trkpt lat="39.5892062" lon="16.4539683"><ele>316.0</ele><time>2026-05-03T10:01:32.611Z</time></trkpt><trkpt lat="39.5891357" lon="16.45385"><ele>316.0</ele><time>2026-05-03T10:01:34.623Z</time></trkpt><trkpt lat="39.5890637" lon="16.4538233"><ele>316.0</ele><time>2026-05-03T10:01:35.606Z</time></trkpt><trkpt lat="39.5889735" lon="16.4538317"><ele>316.0</ele><time>2026-05-03T10:01:36.604Z</time></trkpt><trkpt lat="39.5888771" lon="16.4538704"><ele>316.0</ele><time>2026-05-03T10:01:37.602Z</time></trkpt><trkpt lat="39.5887717" lon="16.453909"><ele>316.0</ele><time>2026-05-03T10:01:38.628Z</time></trkpt><trkpt lat="39.5886553" lon="16.4539403"><ele>316.0</ele><time>2026-05-03T10:01:39.599Z</time></trkpt><trkpt lat="39.5885284" lon="16.453968"><ele>320.5</ele><time>2026-05-03T10:01:40.61Z</time></trkpt><trkpt lat="39.5883951" lon="16.4539897"><ele>325.0</ele><time>2026-05-03T10:01:41.591Z</time></trkpt><trkpt lat="39.5882541" lon="16.4540071"><ele>329.5</ele><time>2026-05-03T10:01:42.622Z</time></trkpt><trkpt lat="39.5881164" lon="16.4540172"><ele>334.0</ele><time>2026-05-03T10:01:43.589Z</time></trkpt><trkpt lat="39.5879912" lon="16.4540097"><ele>334.0</ele><time>2026-05-03T10:01:44.606Z</time></trkpt><trkpt lat="39.5878978" lon="16.4539861"><ele>334.0</ele><time>2026-05-03T10:01:45.612Z</time></trkpt><trkpt lat="39.5878278" lon="16.4539596"><ele>334.0</ele><time>2026-05-03T10:01:46.613Z</time></trkpt><trkpt lat="39.5877493" lon="16.4538781"><ele>334.0</ele><time>2026-05-03T10:01:48.628Z</time></trkpt><trkpt lat="39.5877872" lon="16.4537737"><ele>334.0</ele><time>2026-05-03T10:01:50.61Z</time></trkpt><trkpt lat="39.5878789" lon="16.4537707"><ele>334.0</ele><time>2026-05-03T10:01:52.608Z</time></trkpt><trkpt lat="39.5879903" lon="16.4538132"><ele>334.0</ele><time>2026-05-03T10:01:54.611Z</time></trkpt><trkpt lat="39.5880543" lon="16.4538385"><ele>334.0</ele><time>2026-05-03T10:01:55.611Z</time></trkpt><trkpt lat="39.5881277" lon="16.4538575"><ele>334.0</ele><time>2026-05-03T10:01:56.613Z</time></trkpt><trkpt lat="39.5882071" lon="16.4538638"><ele>334.0</ele><time>2026-05-03T10:01:57.605Z</time></trkpt><trkpt lat="39.5882801" lon="16.4538346"><ele>334.0</ele><time>2026-05-03T10:01:58.611Z</time></trkpt><trkpt lat="39.5883427" lon="16.4537597"><ele>334.0</ele><time>2026-05-03T10:01:59.601Z</time></trkpt><trkpt lat="39.5883982" lon="16.4536534"><ele>336.16666666666663</ele><time>2026-05-03T10:02:00.617Z</time></trkpt><trkpt lat="39.5884504" lon="16.453538"><ele>338.3333333333333</ele><time>2026-05-03T10:02:01.614Z</time></trkpt><trkpt lat="39.5884861" lon="16.4534349"><ele>340.5</ele><time>2026-05-03T10:02:02.619Z</time></trkpt><trkpt lat="39.5884932" lon="16.4533399"><ele>342.6666666666667</ele><time>2026-05-03T10:02:03.615Z</time></trkpt><trkpt lat="39.5884714" lon="16.4532461"><ele>344.83333333333337</ele><time>2026-05-03T10:02:04.607Z</time></trkpt><trkpt lat="39.588416" lon="16.4531568"><ele>347.0</ele><time>2026-05-03T10:02:05.594Z</time></trkpt><trkpt lat="39.5883279" lon="16.4530986"><ele>347.0</ele><time>2026-05-03T10:02:06.6Z</time></trkpt><trkpt lat="39.5882248" lon="16.4530484"><ele>347.0</ele><time>2026-05-03T10:02:07.603Z</time></trkpt><trkpt lat="39.5881148" lon="16.4529982"><ele>347.0</ele><time>2026-05-03T10:02:08.61Z</time></trkpt><trkpt lat="39.5879949" lon="16.4529671"><ele>347.0</ele><time>2026-05-03T10:02:09.61Z</time></trkpt><trkpt lat="39.5878671" lon="16.4529609"><ele>349.25</ele><time>2026-05-03T10:02:10.614Z</time></trkpt><trkpt lat="39.5877371" lon="16.4529611"><ele>351.5</ele><time>2026-05-03T10:02:11.607Z</time></trkpt><trkpt lat="39.5876062" lon="16.4529377"><ele>353.75</ele><time>2026-05-03T10:02:12.607Z</time></trkpt><trkpt lat="39.5874859" lon="16.4529143"><ele>356.0</ele><time>2026-05-03T10:02:13.603Z</time></trkpt><trkpt lat="39.5873715" lon="16.452914"><ele>356.0</ele><time>2026-05-03T10:02:14.614Z</time></trkpt><trkpt lat="39.5872717" lon="16.4529542"><ele>356.0</ele><time>2026-05-03T10:02:15.612Z</time></trkpt><trkpt lat="39.5871796" lon="16.4530443"><ele>356.0</ele><time>2026-05-03T10:02:16.598Z</time></trkpt><trkpt lat="39.5870906" lon="16.4531552"><ele>356.0</ele><time>2026-05-03T10:02:17.616Z</time></trkpt><trkpt lat="39.5870049" lon="16.4532659"><ele>356.4</ele><time>2026-05-03T10:02:18.606Z</time></trkpt><trkpt lat="39.5869165" lon="16.4533403"><ele>356.8</ele><time>2026-05-03T10:02:19.612Z</time></trkpt><trkpt lat="39.5868182" lon="16.4533768"><ele>357.2</ele><time>2026-05-03T10:02:20.605Z</time></trkpt><trkpt lat="39.5867138" lon="16.4533815"><ele>357.59999999999997</ele><time>2026-05-03T10:02:21.612Z</time></trkpt><trkpt lat="39.5866071" lon="16.4533661"><ele>358.0</ele><time>2026-05-03T10:02:22.616Z</time></trkpt><trkpt lat="39.5865169" lon="16.453345"><ele>358.0</ele><time>2026-05-03T10:02:23.63Z</time></trkpt><trkpt lat="39.5864539" lon="16.4533273"><ele>358.0</ele><time>2026-05-03T10:02:24.615Z</time></trkpt><trkpt lat="39.5863728" lon="16.4533899"><ele>358.0</ele><time>2026-05-03T10:02:26.619Z</time></trkpt><trkpt lat="39.5863931" lon="16.4535101"><ele>358.0</ele><time>2026-05-03T10:02:28.611Z</time></trkpt><trkpt lat="39.5864548" lon="16.4535464"><ele>358.0</ele><time>2026-05-03T10:02:29.604Z</time></trkpt><trkpt lat="39.5865382" lon="16.4535645"><ele>358.0</ele><time>2026-05-03T10:02:30.623Z</time></trkpt><trkpt lat="39.5866332" lon="16.4535898"><ele>358.00000000000006</ele><time>2026-05-03T10:02:31.607Z</time></trkpt><trkpt lat="39.5867168" lon="16.4536287"><ele>358.0</ele><time>2026-05-03T10:02:32.597Z</time></trkpt><trkpt lat="39.5867783" lon="16.4536767"><ele>358.0</ele><time>2026-05-03T10:02:33.614Z</time></trkpt><trkpt lat="39.5868168" lon="16.4537444"><ele>358.0</ele><time>2026-05-03T10:02:34.611Z</time></trkpt><trkpt lat="39.5868165" lon="16.4538301"><ele>358.0</ele><time>2026-05-03T10:02:35.609Z</time></trkpt><trkpt lat="39.5867765" lon="16.4539025"><ele>358.00000000000006</ele><time>2026-05-03T10:02:36.616Z</time></trkpt><trkpt lat="39.586718" lon="16.453974"><ele>358.0</ele><time>2026-05-03T10:02:37.61Z</time></trkpt><trkpt lat="39.5866591" lon="16.454058"><ele>358.0</ele><time>2026-05-03T10:02:38.612Z</time></trkpt><trkpt lat="39.5866036" lon="16.4541187"><ele>358.0</ele><time>2026-05-03T10:02:39.608Z</time></trkpt><trkpt lat="39.5864849" lon="16.4540981"><ele>358.0</ele><time>2026-05-03T10:02:41.613Z</time></trkpt><trkpt lat="39.5864439" lon="16.4540348"><ele>358.0</ele><time>2026-05-03T10:02:42.621Z</time></trkpt><trkpt lat="39.5864215" lon="16.4539405"><ele>358.0</ele><time>2026-05-03T10:02:43.606Z</time></trkpt><trkpt lat="39.5863853" lon="16.4538498"><ele>358.0</ele><time>2026-05-03T10:02:44.628Z</time></trkpt><trkpt lat="39.5863148" lon="16.4537648"><ele>358.0</ele><time>2026-05-03T10:02:45.611Z</time></trkpt><trkpt lat="39.5862214" lon="16.4536965"><ele>358.0</ele><time>2026-05-03T10:02:46.619Z</time></trkpt><trkpt lat="39.5861182" lon="16.4536315"><ele>358.0</ele><time>2026-05-03T10:02:47.617Z</time></trkpt><trkpt lat="39.58601" lon="16.4535598"><ele>358.0</ele><time>2026-05-03T10:02:48.62Z</time></trkpt><trkpt lat="39.5858995" lon="16.4534736"><ele>362.25</ele><time>2026-05-03T10:02:49.611Z</time></trkpt><trkpt lat="39.5857863" lon="16.4533733"><ele>366.5</ele><time>2026-05-03T10:02:50.618Z</time></trkpt><trkpt lat="39.5856681" lon="16.4532933"><ele>370.75</ele><time>2026-05-03T10:02:51.616Z</time></trkpt><trkpt lat="39.5855498" lon="16.4532369"><ele>375.0</ele><time>2026-05-03T10:02:52.616Z</time></trkpt><trkpt lat="39.5854496" lon="16.4531624"><ele>375.0</ele><time>2026-05-03T10:02:53.617Z</time></trkpt><trkpt lat="39.5853661" lon="16.4530549"><ele>375.0</ele><time>2026-05-03T10:02:54.61Z</time></trkpt><trkpt lat="39.5852894" lon="16.4529337"><ele>375.0</ele><time>2026-05-03T10:02:55.601Z</time></trkpt><trkpt lat="39.5852033" lon="16.452812"><ele>375.0</ele><time>2026-05-03T10:02:56.621Z</time></trkpt><trkpt lat="39.5851095" lon="16.45269"><ele>378.25</ele><time>2026-05-03T10:02:57.597Z</time></trkpt><trkpt lat="39.5850144" lon="16.4525657"><ele>381.5</ele><time>2026-05-03T10:02:58.611Z</time></trkpt><trkpt lat="39.5849223" lon="16.4524468"><ele>384.75</ele><time>2026-05-03T10:02:59.616Z</time></trkpt><trkpt lat="39.5848402" lon="16.4523393"><ele>388.0</ele><time>2026-05-03T10:03:00.606Z</time></trkpt><trkpt lat="39.5847795" lon="16.4522397"><ele>388.0</ele><time>2026-05-03T10:03:01.614Z</time></trkpt><trkpt lat="39.5847187" lon="16.4521501"><ele>388.0</ele><time>2026-05-03T10:03:02.638Z</time></trkpt><trkpt lat="39.5846338" lon="16.4520935"><ele>388.0</ele><time>2026-05-03T10:03:03.61Z</time></trkpt><trkpt lat="39.5845332" lon="16.4520655"><ele>388.0</ele><time>2026-05-03T10:03:04.616Z</time></trkpt><trkpt lat="39.5844189" lon="16.4520628"><ele>388.0</ele><time>2026-05-03T10:03:05.607Z</time></trkpt><trkpt lat="39.5843015" lon="16.4520742"><ele>385.75</ele><time>2026-05-03T10:03:06.614Z</time></trkpt><trkpt lat="39.5841799" lon="16.4520748"><ele>383.5</ele><time>2026-05-03T10:03:07.604Z</time></trkpt><trkpt lat="39.5840532" lon="16.4520557"><ele>381.25</ele><time>2026-05-03T10:03:08.609Z</time></trkpt><trkpt lat="39.5839296" lon="16.4520176"><ele>379.0</ele><time>2026-05-03T10:03:09.619Z</time></trkpt><trkpt lat="39.5838085" lon="16.451979"><ele>379.0</ele><time>2026-05-03T10:03:10.606Z</time></trkpt><trkpt lat="39.5837044" lon="16.4519543"><ele>379.0</ele><time>2026-05-03T10:03:11.61Z</time></trkpt><trkpt lat="39.5836296" lon="16.4519414"><ele>379.0</ele><time>2026-05-03T10:03:12.608Z</time></trkpt><trkpt lat="39.5835327" lon="16.4519749"><ele>379.0</ele><time>2026-05-03T10:03:14.621Z</time></trkpt><trkpt lat="39.5835263" lon="16.4520777"><ele>379.0</ele><time>2026-05-03T10:03:16.609Z</time></trkpt><trkpt lat="39.5836266" lon="16.4521459"><ele>385.4</ele><time>2026-05-03T10:03:18.611Z</time></trkpt><trkpt lat="39.5836985" lon="16.4521629"><ele>391.79999999999995</ele><time>2026-05-03T10:03:19.607Z</time></trkpt><trkpt lat="39.5837808" lon="16.4521735"><ele>398.20000000000005</ele><time>2026-05-03T10:03:20.623Z</time></trkpt><trkpt lat="39.5838748" lon="16.4521948"><ele>404.6</ele><time>2026-05-03T10:03:21.609Z</time></trkpt><trkpt lat="39.5839788" lon="16.4522316"><ele>411.0</ele><time>2026-05-03T10:03:22.61Z</time></trkpt><trkpt lat="39.584091" lon="16.4522775"><ele>411.0</ele><time>2026-05-03T10:03:23.603Z</time></trkpt><trkpt lat="39.5842049" lon="16.4523313"><ele>411.0</ele><time>2026-05-03T10:03:24.608Z</time></trkpt><trkpt lat="39.5842957" lon="16.4523787"><ele>411.0</ele><time>2026-05-03T10:03:25.612Z</time></trkpt><trkpt lat="39.5843629" lon="16.4524255"><ele>411.0</ele><time>2026-05-03T10:03:26.615Z</time></trkpt><trkpt lat="39.5844214" lon="16.4525263"><ele>411.0</ele><time>2026-05-03T10:03:28.6Z</time></trkpt><trkpt lat="39.5843719" lon="16.4526558"><ele>411.0</ele><time>2026-05-03T10:03:30.615Z</time></trkpt><trkpt lat="39.5843301" lon="16.4527242"><ele>411.0</ele><time>2026-05-03T10:03:31.602Z</time></trkpt><trkpt lat="39.5842776" lon="16.4527789"><ele>411.0</ele><time>2026-05-03T10:03:32.617Z</time></trkpt><trkpt lat="39.5842055" lon="16.4528079"><ele>411.0</ele><time>2026-05-03T10:03:33.61Z</time></trkpt><trkpt lat="39.5841261" lon="16.4528082"><ele>411.0</ele><time>2026-05-03T10:03:34.616Z</time></trkpt><trkpt lat="39.5840445" lon="16.452794"><ele>411.0</ele><time>2026-05-03T10:03:35.614Z</time></trkpt><trkpt lat="39.5839606" lon="16.4527629"><ele>411.0</ele><time>2026-05-03T10:03:36.607Z</time></trkpt><trkpt lat="39.5838793" lon="16.4527175"><ele>411.0</ele><time>2026-05-03T10:03:37.641Z</time></trkpt><trkpt lat="39.5838005" lon="16.4526622"><ele>411.0</ele><time>2026-05-03T10:03:38.618Z</time></trkpt><trkpt lat="39.5837205" lon="16.4526081"><ele>411.0</ele><time>2026-05-03T10:03:39.615Z</time></trkpt><trkpt lat="39.5836216" lon="16.4525776"><ele>411.0</ele><time>2026-05-03T10:03:40.62Z</time></trkpt><trkpt lat="39.5835114" lon="16.4525687"><ele>414.0</ele><time>2026-05-03T10:03:41.62Z</time></trkpt><trkpt lat="39.5833931" lon="16.4525615"><ele>417.0</ele><time>2026-05-03T10:03:42.621Z</time></trkpt><trkpt lat="39.5832782" lon="16.4525411"><ele>420.0</ele><time>2026-05-03T10:03:43.599Z</time></trkpt><trkpt lat="39.5831727" lon="16.4524791"><ele>423.0</ele><time>2026-05-03T10:03:44.625Z</time></trkpt><trkpt lat="39.5830778" lon="16.4523801"><ele>423.0</ele><time>2026-05-03T10:03:45.614Z</time></trkpt><trkpt lat="39.5829888" lon="16.4522614"><ele>423.0</ele><time>2026-05-03T10:03:46.63Z</time></trkpt><trkpt lat="39.582908" lon="16.4521389"><ele>423.0</ele><time>2026-05-03T10:03:47.612Z</time></trkpt><trkpt lat="39.5828233" lon="16.4520044"><ele>423.0</ele><time>2026-05-03T10:03:48.624Z</time></trkpt><trkpt lat="39.5827316" lon="16.4518713"><ele>423.59999999999997</ele><time>2026-05-03T10:03:49.605Z</time></trkpt><trkpt lat="39.5826389" lon="16.451741"><ele>424.2</ele><time>2026-05-03T10:03:50.622Z</time></trkpt><trkpt lat="39.5825617" lon="16.4516327"><ele>424.8</ele><time>2026-05-03T10:03:51.609Z</time></trkpt><trkpt lat="39.582488" lon="16.4515542"><ele>425.4</ele><time>2026-05-03T10:03:52.613Z</time></trkpt><trkpt lat="39.5823987" lon="16.451501"><ele>426.0</ele><time>2026-05-03T10:03:53.616Z</time></trkpt><trkpt lat="39.5823053" lon="16.4514867"><ele>426.0</ele><time>2026-05-03T10:03:54.622Z</time></trkpt><trkpt lat="39.5822052" lon="16.4515216"><ele>426.0</ele><time>2026-05-03T10:03:55.621Z</time></trkpt><trkpt lat="39.5821191" lon="16.4516109"><ele>426.0</ele><time>2026-05-03T10:03:56.605Z</time></trkpt><trkpt lat="39.5820455" lon="16.4517297"><ele>426.0</ele><time>2026-05-03T10:03:57.611Z</time></trkpt><trkpt lat="39.581978" lon="16.4518804"><ele>427.25</ele><time>2026-05-03T10:03:58.615Z</time></trkpt><trkpt lat="39.5818968" lon="16.4520298"><ele>428.5</ele><time>2026-05-03T10:03:59.594Z</time></trkpt><trkpt lat="39.5818134" lon="16.4521687"><ele>429.75</ele><time>2026-05-03T10:04:00.615Z</time></trkpt><trkpt lat="39.5817269" lon="16.4522852"><ele>431.0</ele><time>2026-05-03T10:04:01.605Z</time></trkpt><trkpt lat="39.5816316" lon="16.4523891"><ele>431.0</ele><time>2026-05-03T10:04:02.6Z</time></trkpt><trkpt lat="39.5815317" lon="16.4524937"><ele>431.0</ele><time>2026-05-03T10:04:03.608Z</time></trkpt><trkpt lat="39.5814366" lon="16.452596"><ele>431.0</ele><time>2026-05-03T10:04:04.607Z</time></trkpt><trkpt lat="39.5813495" lon="16.4526834"><ele>431.0</ele><time>2026-05-03T10:04:05.608Z</time></trkpt><trkpt lat="39.5812791" lon="16.4527684"><ele>430.99999999999994</ele><time>2026-05-03T10:04:06.618Z</time></trkpt><trkpt lat="39.5812344" lon="16.4528547"><ele>431.0</ele><time>2026-05-03T10:04:07.614Z</time></trkpt><trkpt lat="39.5812097" lon="16.4529526"><ele>431.0</ele><time>2026-05-03T10:04:08.607Z</time></trkpt><trkpt lat="39.581198" lon="16.4530564"><ele>431.0</ele><time>2026-05-03T10:04:09.606Z</time></trkpt><trkpt lat="39.5812016" lon="16.4531772"><ele>430.99999999999994</ele><time>2026-05-03T10:04:10.61Z</time></trkpt><trkpt lat="39.5812006" lon="16.4533247"><ele>431.0</ele><time>2026-05-03T10:04:11.616Z</time></trkpt><trkpt lat="39.5811726" lon="16.45347"><ele>431.25</ele><time>2026-05-03T10:04:12.619Z</time></trkpt><trkpt lat="39.5811154" lon="16.4536096"><ele>431.5</ele><time>2026-05-03T10:04:13.607Z</time></trkpt><trkpt lat="39.5810398" lon="16.4537359"><ele>431.75</ele><time>2026-05-03T10:04:14.607Z</time></trkpt><trkpt lat="39.5809628" lon="16.4538482"><ele>432.0</ele><time>2026-05-03T10:04:15.602Z</time></trkpt><trkpt lat="39.5808817" lon="16.453962"><ele>432.0</ele><time>2026-05-03T10:04:16.613Z</time></trkpt><trkpt lat="39.5808166" lon="16.4540626"><ele>432.00000000000006</ele><time>2026-05-03T10:04:17.618Z</time></trkpt><trkpt lat="39.5807624" lon="16.4541476"><ele>432.00000000000006</ele><time>2026-05-03T10:04:18.619Z</time></trkpt><trkpt lat="39.5807098" lon="16.4542077"><ele>432.0</ele><time>2026-05-03T10:04:19.621Z</time></trkpt><trkpt lat="39.580595" lon="16.4542348"><ele>432.0</ele><time>2026-05-03T10:04:21.604Z</time></trkpt><trkpt lat="39.5804902" lon="16.4541669"><ele>432.0</ele><time>2026-05-03T10:04:23.611Z</time></trkpt><trkpt lat="39.5804291" lon="16.4540969"><ele>432.00000000000006</ele><time>2026-05-03T10:04:24.611Z</time></trkpt><trkpt lat="39.5803558" lon="16.4540507"><ele>432.00000000000006</ele><time>2026-05-03T10:04:25.617Z</time></trkpt><trkpt lat="39.5802558" lon="16.454008"><ele>432.0</ele><time>2026-05-03T10:04:26.614Z</time></trkpt><trkpt lat="39.5801452" lon="16.4539967"><ele>432.0</ele><time>2026-05-03T10:04:27.613Z</time></trkpt><trkpt lat="39.5800242" lon="16.4540282"><ele>432.5</ele><time>2026-05-03T10:04:28.622Z</time></trkpt><trkpt lat="39.5798908" lon="16.4540748"><ele>433.0</ele><time>2026-05-03T10:04:29.617Z</time></trkpt><trkpt lat="39.5797584" lon="16.4541109"><ele>433.5</ele><time>2026-05-03T10:04:30.617Z</time></trkpt><trkpt lat="39.5796427" lon="16.454133"><ele>434.0</ele><time>2026-05-03T10:04:31.608Z</time></trkpt><trkpt lat="39.5795399" lon="16.4541415"><ele>435.16666666666663</ele><time>2026-05-03T10:04:32.62Z</time></trkpt><trkpt lat="39.5794524" lon="16.4541189"><ele>436.3333333333333</ele><time>2026-05-03T10:04:33.615Z</time></trkpt><trkpt lat="39.579378" lon="16.4540684"><ele>437.5</ele><time>2026-05-03T10:04:34.616Z</time></trkpt><trkpt lat="39.579321" lon="16.4540151"><ele>438.66666666666663</ele><time>2026-05-03T10:04:35.621Z</time></trkpt><trkpt lat="39.5792565" lon="16.453955"><ele>439.8333333333333</ele><time>2026-05-03T10:04:37.62Z</time></trkpt><trkpt lat="39.5791452" lon="16.4539629"><ele>441.0</ele><time>2026-05-03T10:05:16.612Z</time></trkpt><trkpt lat="39.5790668" lon="16.4539633"><ele>441.0</ele><time>2026-05-03T10:05:17.609Z</time></trkpt><trkpt lat="39.5789709" lon="16.4539535"><ele>441.0</ele><time>2026-05-03T10:05:18.621Z</time></trkpt><trkpt lat="39.57887" lon="16.4539414"><ele>441.0</ele><time>2026-05-03T10:05:19.603Z</time></trkpt><trkpt lat="39.5787636" lon="16.4539229"><ele>441.0</ele><time>2026-05-03T10:05:20.603Z</time></trkpt><trkpt lat="39.5786686" lon="16.453904"><ele>441.0</ele><time>2026-05-03T10:05:21.604Z</time></trkpt><trkpt lat="39.578581" lon="16.4538827"><ele>442.8</ele><time>2026-05-03T10:05:22.61Z</time></trkpt><trkpt lat="39.5784954" lon="16.4538502"><ele>444.6</ele><time>2026-05-03T10:05:23.605Z</time></trkpt><trkpt lat="39.5784104" lon="16.453797"><ele>446.4</ele><time>2026-05-03T10:05:24.612Z</time></trkpt><trkpt lat="39.5783298" lon="16.4537282"><ele>448.2</ele><time>2026-05-03T10:05:25.615Z</time></trkpt><trkpt lat="39.5782527" lon="16.4536528"><ele>450.0</ele><time>2026-05-03T10:05:26.594Z</time></trkpt><trkpt lat="39.5781854" lon="16.4535503"><ele>454.0</ele><time>2026-05-03T10:05:27.596Z</time></trkpt><trkpt lat="39.5781336" lon="16.4534246"><ele>458.0</ele><time>2026-05-03T10:05:28.604Z</time></trkpt><trkpt lat="39.578094" lon="16.45328"><ele>462.0</ele><time>2026-05-03T10:05:29.605Z</time></trkpt><trkpt lat="39.5780605" lon="16.4531231"><ele>466.0</ele><time>2026-05-03T10:05:30.613Z</time></trkpt><trkpt lat="39.5780195" lon="16.4529594"><ele>467.6666666666667</ele><time>2026-05-03T10:05:31.61Z</time></trkpt><trkpt lat="39.5779758" lon="16.4528086"><ele>469.33333333333337</ele><time>2026-05-03T10:05:32.623Z</time></trkpt><trkpt lat="39.577938" lon="16.4526961"><ele>471.0</ele><time>2026-05-03T10:05:33.605Z</time></trkpt><trkpt lat="39.5778917" lon="16.4526153"><ele>472.66666666666663</ele><time>2026-05-03T10:05:34.606Z</time></trkpt><trkpt lat="39.5778271" lon="16.4525682"><ele>474.3333333333333</ele><time>2026-05-03T10:05:35.598Z</time></trkpt><trkpt lat="39.5777501" lon="16.4525484"><ele>476.0</ele><time>2026-05-03T10:05:36.61Z</time></trkpt><trkpt lat="39.57766" lon="16.4525647"><ele>476.6</ele><time>2026-05-03T10:05:37.602Z</time></trkpt><trkpt lat="39.5775589" lon="16.4525871"><ele>477.20000000000005</ele><time>2026-05-03T10:05:38.614Z</time></trkpt><trkpt lat="39.5774478" lon="16.45259"><ele>477.79999999999995</ele><time>2026-05-03T10:05:39.605Z</time></trkpt><trkpt lat="39.5773323" lon="16.452577"><ele>478.4</ele><time>2026-05-03T10:05:40.611Z</time></trkpt><trkpt lat="39.5772208" lon="16.452533"><ele>479.0</ele><time>2026-05-03T10:05:41.601Z</time></trkpt><trkpt lat="39.5771091" lon="16.4524684"><ele>480.6</ele><time>2026-05-03T10:05:42.619Z</time></trkpt><trkpt lat="39.5769981" lon="16.4523944"><ele>482.2</ele><time>2026-05-03T10:05:43.6Z</time></trkpt><trkpt lat="39.5769017" lon="16.4523292"><ele>483.80000000000007</ele><time>2026-05-03T10:05:44.61Z</time></trkpt><trkpt lat="39.5768025" lon="16.4522974"><ele>485.40000000000003</ele><time>2026-05-03T10:05:45.604Z</time></trkpt><trkpt lat="39.5766923" lon="16.452304"><ele>487.0</ele><time>2026-05-03T10:05:46.602Z</time></trkpt><trkpt lat="39.576579" lon="16.4523373"><ele>487.0</ele><time>2026-05-03T10:05:47.595Z</time></trkpt><trkpt lat="39.5764615" lon="16.4523892"><ele>487.0</ele><time>2026-05-03T10:05:48.606Z</time></trkpt><trkpt lat="39.5763455" lon="16.4524589"><ele>487.0</ele><time>2026-05-03T10:05:49.616Z</time></trkpt><trkpt lat="39.5762281" lon="16.4525506"><ele>487.0</ele><time>2026-05-03T10:05:50.622Z</time></trkpt><trkpt lat="39.5761023" lon="16.4526444"><ele>488.5</ele><time>2026-05-03T10:05:51.613Z</time></trkpt><trkpt lat="39.5759739" lon="16.4527289"><ele>490.0</ele><time>2026-05-03T10:05:52.617Z</time></trkpt><trkpt lat="39.5758552" lon="16.4528179"><ele>491.5</ele><time>2026-05-03T10:05:53.602Z</time></trkpt><trkpt lat="39.5757581" lon="16.4529179"><ele>493.0</ele><time>2026-05-03T10:05:54.619Z</time></trkpt><trkpt lat="39.5756754" lon="16.4530314"><ele>493.0</ele><time>2026-05-03T10:05:55.604Z</time></trkpt><trkpt lat="39.5756038" lon="16.4531611"><ele>493.0</ele><time>2026-05-03T10:05:56.616Z</time></trkpt><trkpt lat="39.575537" lon="16.4533143"><ele>493.0</ele><time>2026-05-03T10:05:57.612Z</time></trkpt><trkpt lat="39.5754727" lon="16.4534762"><ele>493.0</ele><time>2026-05-03T10:05:58.611Z</time></trkpt><trkpt lat="39.5754233" lon="16.4536493"><ele>494.0</ele><time>2026-05-03T10:05:59.61Z</time></trkpt><trkpt lat="39.5753954" lon="16.4538248"><ele>495.0</ele><time>2026-05-03T10:06:00.618Z</time></trkpt><trkpt lat="39.5753758" lon="16.4539882"><ele>496.0</ele><time>2026-05-03T10:06:01.603Z</time></trkpt><trkpt lat="39.5753608" lon="16.4541195"><ele>497.0</ele><time>2026-05-03T10:06:02.608Z</time></trkpt><trkpt lat="39.5753354" lon="16.4542377"><ele>497.49999999999994</ele><time>2026-05-03T10:06:03.616Z</time></trkpt><trkpt lat="39.5752995" lon="16.4543547"><ele>498.0</ele><time>2026-05-03T10:06:04.619Z</time></trkpt><trkpt lat="39.5752559" lon="16.4544588"><ele>498.5</ele><time>2026-05-03T10:06:05.62Z</time></trkpt><trkpt lat="39.5752002" lon="16.4545532"><ele>499.0</ele><time>2026-05-03T10:06:06.606Z</time></trkpt><trkpt lat="39.575132" lon="16.4546247"><ele>499.49999999999994</ele><time>2026-05-03T10:06:07.621Z</time></trkpt><trkpt lat="39.5750581" lon="16.4546653"><ele>500.0</ele><time>2026-05-03T10:06:08.61Z</time></trkpt><trkpt lat="39.5749687" lon="16.4547051"><ele>501.25</ele><time>2026-05-03T10:06:09.619Z</time></trkpt><trkpt lat="39.5748606" lon="16.4547527"><ele>502.5</ele><time>2026-05-03T10:06:10.619Z</time></trkpt><trkpt lat="39.5747484" lon="16.4548201"><ele>503.75</ele><time>2026-05-03T10:06:11.611Z</time></trkpt><trkpt lat="39.5746297" lon="16.4548835"><ele>505.0</ele><time>2026-05-03T10:06:12.611Z</time></trkpt><trkpt lat="39.5745008" lon="16.4549421"><ele>506.0</ele><time>2026-05-03T10:06:13.604Z</time></trkpt><trkpt lat="39.5743717" lon="16.4549942"><ele>507.0</ele><time>2026-05-03T10:06:14.611Z</time></trkpt><trkpt lat="39.5742367" lon="16.4550169"><ele>508.0</ele><time>2026-05-03T10:06:15.616Z</time></trkpt><trkpt lat="39.5740978" lon="16.455005"><ele>509.0</ele><time>2026-05-03T10:06:16.612Z</time></trkpt><trkpt lat="39.5739524" lon="16.4549825"><ele>509.0</ele><time>2026-05-03T10:06:17.622Z</time></trkpt><trkpt lat="39.5737933" lon="16.4549565"><ele>509.0</ele><time>2026-05-03T10:06:18.626Z</time></trkpt><trkpt lat="39.5736317" lon="16.4549307"><ele>509.0</ele><time>2026-05-03T10:06:19.614Z</time></trkpt><trkpt lat="39.5734666" lon="16.4549099"><ele>510.0</ele><time>2026-05-03T10:06:20.616Z</time></trkpt><trkpt lat="39.5733103" lon="16.454887"><ele>511.0</ele><time>2026-05-03T10:06:21.615Z</time></trkpt><trkpt lat="39.5731635" lon="16.4548595"><ele>512.0</ele><time>2026-05-03T10:06:22.604Z</time></trkpt><trkpt lat="39.5730122" lon="16.4548214"><ele>512.3333333333333</ele><time>2026-05-03T10:06:23.612Z</time></trkpt><trkpt lat="39.5728529" lon="16.4547772"><ele>512.6666666666666</ele><time>2026-05-03T10:06:24.616Z</time></trkpt><trkpt lat="39.5726863" lon="16.4547273"><ele>513.0</ele><time>2026-05-03T10:06:25.618Z</time></trkpt><trkpt lat="39.5725193" lon="16.4546781"><ele>513.0</ele><time>2026-05-03T10:06:26.615Z</time></trkpt><trkpt lat="39.5723596" lon="16.4546266"><ele>513.0</ele><time>2026-05-03T10:06:27.612Z</time></trkpt><trkpt lat="39.5722113" lon="16.4545749"><ele>513.0</ele><time>2026-05-03T10:06:28.625Z</time></trkpt><trkpt lat="39.5720567" lon="16.4545286"><ele>510.33333333333337</ele><time>2026-05-03T10:06:29.609Z</time></trkpt><trkpt lat="39.5719011" lon="16.4544817"><ele>507.6666666666667</ele><time>2026-05-03T10:06:30.621Z</time></trkpt><trkpt lat="39.5717435" lon="16.4544408"><ele>505.0</ele><time>2026-05-03T10:06:31.606Z</time></trkpt><trkpt lat="39.5715923" lon="16.454401"><ele>505.0</ele><time>2026-05-03T10:06:32.61Z</time></trkpt><trkpt lat="39.5714543" lon="16.4543581"><ele>505.0</ele><time>2026-05-03T10:06:33.607Z</time></trkpt><trkpt lat="39.5713311" lon="16.4543056"><ele>505.0</ele><time>2026-05-03T10:06:34.612Z</time></trkpt><trkpt lat="39.571227" lon="16.4542288"><ele>505.0</ele><time>2026-05-03T10:06:35.611Z</time></trkpt><trkpt lat="39.5711366" lon="16.4541176"><ele>503.25</ele><time>2026-05-03T10:06:36.612Z</time></trkpt><trkpt lat="39.5710499" lon="16.4539922"><ele>501.5</ele><time>2026-05-03T10:06:37.61Z</time></trkpt><trkpt lat="39.5709474" lon="16.4538664"><ele>499.75</ele><time>2026-05-03T10:06:38.617Z</time></trkpt><trkpt lat="39.5708205" lon="16.4537698"><ele>498.0</ele><time>2026-05-03T10:06:39.608Z</time></trkpt><trkpt lat="39.5706683" lon="16.4536924"><ele>498.0</ele><time>2026-05-03T10:06:40.614Z</time></trkpt><trkpt lat="39.5705015" lon="16.453628"><ele>498.0</ele><time>2026-05-03T10:06:41.621Z</time></trkpt><trkpt lat="39.5703246" lon="16.4535717"><ele>498.0</ele><time>2026-05-03T10:06:42.604Z</time></trkpt><trkpt lat="39.5701435" lon="16.4534915"><ele>500.33333333333337</ele><time>2026-05-03T10:06:43.613Z</time></trkpt><trkpt lat="39.5699745" lon="16.4534149"><ele>502.6666666666667</ele><time>2026-05-03T10:06:44.61Z</time></trkpt><trkpt lat="39.5698157" lon="16.45335"><ele>505.0</ele><time>2026-05-03T10:06:45.612Z</time></trkpt><trkpt lat="39.5696631" lon="16.4533046"><ele>506.0</ele><time>2026-05-03T10:06:46.617Z</time></trkpt><trkpt lat="39.5694974" lon="16.453279"><ele>507.0</ele><time>2026-05-03T10:06:47.613Z</time></trkpt><trkpt lat="39.5693263" lon="16.4532977"><ele>508.0</ele><time>2026-05-03T10:06:48.616Z</time></trkpt><trkpt lat="39.569151" lon="16.4533224"><ele>508.0</ele><time>2026-05-03T10:06:49.608Z</time></trkpt><trkpt lat="39.5689731" lon="16.4533442"><ele>508.0</ele><time>2026-05-03T10:06:50.613Z</time></trkpt><trkpt lat="39.568794" lon="16.4533568"><ele>508.0</ele><time>2026-05-03T10:06:51.606Z</time></trkpt><trkpt lat="39.5686287" lon="16.4533746"><ele>508.75</ele><time>2026-05-03T10:06:52.62Z</time></trkpt><trkpt lat="39.5684744" lon="16.4534031"><ele>509.5</ele><time>2026-05-03T10:06:53.62Z</time></trkpt><trkpt lat="39.5683375" lon="16.4534277"><ele>510.25</ele><time>2026-05-03T10:06:54.619Z</time></trkpt><trkpt lat="39.5681938" lon="16.4534404"><ele>511.0</ele><time>2026-05-03T10:06:55.61Z</time></trkpt><trkpt lat="39.5680445" lon="16.4534401"><ele>511.0</ele><time>2026-05-03T10:06:56.621Z</time></trkpt><trkpt lat="39.5678886" lon="16.4534275"><ele>511.0</ele><time>2026-05-03T10:06:57.596Z</time></trkpt><trkpt lat="39.5677257" lon="16.4534178"><ele>511.0</ele><time>2026-05-03T10:06:58.614Z</time></trkpt><trkpt lat="39.5675578" lon="16.4534127"><ele>512.3333333333334</ele><time>2026-05-03T10:06:59.623Z</time></trkpt><trkpt lat="39.5673882" lon="16.4534053"><ele>513.6666666666666</ele><time>2026-05-03T10:07:00.608Z</time></trkpt><trkpt lat="39.5672166" lon="16.4533881"><ele>515.0</ele><time>2026-05-03T10:07:01.607Z</time></trkpt><trkpt lat="39.5670416" lon="16.4533634"><ele>517.3333333333333</ele><time>2026-05-03T10:07:02.625Z</time></trkpt><trkpt lat="39.5668695" lon="16.4533317"><ele>519.6666666666666</ele><time>2026-05-03T10:07:03.605Z</time></trkpt><trkpt lat="39.5666974" lon="16.4532899"><ele>522.0</ele><time>2026-05-03T10:07:04.61Z</time></trkpt><trkpt lat="39.5665239" lon="16.4532459"><ele>522.0</ele><time>2026-05-03T10:07:05.608Z</time></trkpt><trkpt lat="39.5663757" lon="16.4532058"><ele>522.0</ele><time>2026-05-03T10:07:06.612Z</time></trkpt><trkpt lat="39.5662648" lon="16.4531728"><ele>522.0</ele><time>2026-05-03T10:07:07.611Z</time></trkpt><trkpt lat="39.5661711" lon="16.453119"><ele>522.0</ele><time>2026-05-03T10:07:08.621Z</time></trkpt><trkpt lat="39.5660936" lon="16.453026"><ele>524.25</ele><time>2026-05-03T10:07:09.621Z</time></trkpt><trkpt lat="39.5660099" lon="16.4529046"><ele>526.5</ele><time>2026-05-03T10:07:10.605Z</time></trkpt><trkpt lat="39.5659198" lon="16.4527779"><ele>528.75</ele><time>2026-05-03T10:07:11.604Z</time></trkpt><trkpt lat="39.5658263" lon="16.4526313"><ele>531.0</ele><time>2026-05-03T10:07:12.611Z</time></trkpt><trkpt lat="39.5657252" lon="16.4524809"><ele>531.0</ele><time>2026-05-03T10:07:13.615Z</time></trkpt><trkpt lat="39.5656133" lon="16.45233"><ele>531.0</ele><time>2026-05-03T10:07:14.602Z</time></trkpt><trkpt lat="39.5654907" lon="16.4521819"><ele>531.0</ele><time>2026-05-03T10:07:15.613Z</time></trkpt><trkpt lat="39.5653567" lon="16.4520423"><ele>530.0</ele><time>2026-05-03T10:07:16.606Z</time></trkpt><trkpt lat="39.5652126" lon="16.4519007"><ele>529.0</ele><time>2026-05-03T10:07:17.601Z</time></trkpt><trkpt lat="39.5650737" lon="16.4517531"><ele>528.0</ele><time>2026-05-03T10:07:18.61Z</time></trkpt><trkpt lat="39.5649373" lon="16.4515979"><ele>528.0</ele><time>2026-05-03T10:07:19.616Z</time></trkpt><trkpt lat="39.5648084" lon="16.4514377"><ele>528.0</ele><time>2026-05-03T10:07:20.612Z</time></trkpt><trkpt lat="39.5646735" lon="16.4512823"><ele>528.0</ele><time>2026-05-03T10:07:21.607Z</time></trkpt><trkpt lat="39.5645412" lon="16.4511262"><ele>531.3333333333334</ele><time>2026-05-03T10:07:22.603Z</time></trkpt><trkpt lat="39.5644235" lon="16.4509573"><ele>534.6666666666667</ele><time>2026-05-03T10:07:23.621Z</time></trkpt><trkpt lat="39.5643221" lon="16.4507863"><ele>538.0</ele><time>2026-05-03T10:07:24.618Z</time></trkpt><trkpt lat="39.5642275" lon="16.4506285"><ele>538.0</ele><time>2026-05-03T10:07:25.608Z</time></trkpt><trkpt lat="39.5641421" lon="16.4505075"><ele>538.0</ele><time>2026-05-03T10:07:26.618Z</time></trkpt><trkpt lat="39.5640509" lon="16.4504117"><ele>538.0</ele><time>2026-05-03T10:07:27.615Z</time></trkpt><trkpt lat="39.5639368" lon="16.4503552"><ele>538.0</ele><time>2026-05-03T10:07:28.627Z</time></trkpt><trkpt lat="39.5638016" lon="16.4503388"><ele>539.75</ele><time>2026-05-03T10:07:29.597Z</time></trkpt><trkpt lat="39.5636574" lon="16.4503479"><ele>541.5</ele><time>2026-05-03T10:07:30.617Z</time></trkpt><trkpt lat="39.5635086" lon="16.4503625"><ele>543.25</ele><time>2026-05-03T10:07:31.606Z</time></trkpt><trkpt lat="39.5633552" lon="16.4503719"><ele>545.0</ele><time>2026-05-03T10:07:32.596Z</time></trkpt><trkpt lat="39.5631971" lon="16.4503647"><ele>545.0</ele><time>2026-05-03T10:07:33.612Z</time></trkpt><trkpt lat="39.5630366" lon="16.4503391"><ele>545.0</ele><time>2026-05-03T10:07:34.605Z</time></trkpt><trkpt lat="39.5628787" lon="16.4503024"><ele>545.0</ele><time>2026-05-03T10:07:35.599Z</time></trkpt><trkpt lat="39.5627284" lon="16.450266"><ele>547.75</ele><time>2026-05-03T10:07:36.607Z</time></trkpt><trkpt lat="39.5625916" lon="16.4502256"><ele>550.5</ele><time>2026-05-03T10:07:37.599Z</time></trkpt><trkpt lat="39.5624858" lon="16.45017"><ele>553.25</ele><time>2026-05-03T10:07:38.616Z</time></trkpt><trkpt lat="39.5623878" lon="16.4500859"><ele>556.0</ele><time>2026-05-03T10:07:39.623Z</time></trkpt><trkpt lat="39.5622919" lon="16.4499818"><ele>556.0</ele><time>2026-05-03T10:07:40.61Z</time></trkpt><trkpt lat="39.5621998" lon="16.4498545"><ele>556.0</ele><time>2026-05-03T10:07:41.621Z</time></trkpt><trkpt lat="39.5621094" lon="16.449742"><ele>556.0</ele><time>2026-05-03T10:07:42.613Z</time></trkpt><trkpt lat="39.562023" lon="16.4496579"><ele>556.0</ele><time>2026-05-03T10:07:43.617Z</time></trkpt><trkpt lat="39.5619361" lon="16.4496258"><ele>557.5</ele><time>2026-05-03T10:07:44.608Z</time></trkpt><trkpt lat="39.5618341" lon="16.4496411"><ele>559.0</ele><time>2026-05-03T10:07:45.608Z</time></trkpt><trkpt lat="39.5617199" lon="16.4496939"><ele>560.5</ele><time>2026-05-03T10:07:46.622Z</time></trkpt><trkpt lat="39.5616007" lon="16.4497537"><ele>562.0</ele><time>2026-05-03T10:07:47.603Z</time></trkpt><trkpt lat="39.5614736" lon="16.449785"><ele>562.0</ele><time>2026-05-03T10:07:48.603Z</time></trkpt><trkpt lat="39.5613453" lon="16.4497834"><ele>562.0</ele><time>2026-05-03T10:07:49.611Z</time></trkpt><trkpt lat="39.5612461" lon="16.4497741"><ele>562.0</ele><time>2026-05-03T10:07:50.596Z</time></trkpt><trkpt lat="39.5611778" lon="16.4497615"><ele>562.0</ele><time>2026-05-03T10:07:51.614Z</time></trkpt><trkpt lat="39.561115" lon="16.4497516"><ele>562.0</ele><time>2026-05-03T10:07:52.603Z</time></trkpt><trkpt lat="39.5610465" lon="16.4497503"><ele>562.0</ele><time>2026-05-03T10:07:53.624Z</time></trkpt><trkpt lat="39.5609701" lon="16.4497549"><ele>562.2</ele><time>2026-05-03T10:07:54.618Z</time></trkpt><trkpt lat="39.5609074" lon="16.4497756"><ele>562.4000000000001</ele><time>2026-05-03T10:07:55.608Z</time></trkpt><trkpt lat="39.5607837" lon="16.4498489"><ele>562.5999999999999</ele><time>2026-05-03T10:07:57.601Z</time></trkpt><trkpt lat="39.5607024" lon="16.4499093"><ele>562.8</ele><time>2026-05-03T10:07:58.622Z</time></trkpt><trkpt lat="39.5606098" lon="16.4499718"><ele>563.0</ele><time>2026-05-03T10:07:59.609Z</time></trkpt><trkpt lat="39.5605207" lon="16.4500222"><ele>563.0</ele><time>2026-05-03T10:08:00.607Z</time></trkpt><trkpt lat="39.5604412" lon="16.4500423"><ele>563.0</ele><time>2026-05-03T10:08:01.623Z</time></trkpt><trkpt lat="39.5603604" lon="16.4500266"><ele>563.0</ele><time>2026-05-03T10:08:02.616Z</time></trkpt><trkpt lat="39.5602767" lon="16.4499658"><ele>563.0</ele><time>2026-05-03T10:08:03.62Z</time></trkpt><trkpt lat="39.5601992" lon="16.4498772"><ele>563.0</ele><time>2026-05-03T10:08:04.617Z</time></trkpt><trkpt lat="39.5601384" lon="16.4497773"><ele>563.1999999999999</ele><time>2026-05-03T10:08:05.61Z</time></trkpt><trkpt lat="39.5600909" lon="16.4496534"><ele>563.4</ele><time>2026-05-03T10:08:06.622Z</time></trkpt><trkpt lat="39.5600494" lon="16.449515"><ele>563.5999999999999</ele><time>2026-05-03T10:08:07.62Z</time></trkpt><trkpt lat="39.5599939" lon="16.4493886"><ele>563.8</ele><time>2026-05-03T10:08:08.612Z</time></trkpt><trkpt lat="39.5599112" lon="16.4492971"><ele>564.0</ele><time>2026-05-03T10:08:09.615Z</time></trkpt><trkpt lat="39.5598055" lon="16.4492428"><ele>566.4</ele><time>2026-05-03T10:08:10.616Z</time></trkpt><trkpt lat="39.5596948" lon="16.4492095"><ele>568.8</ele><time>2026-05-03T10:08:11.613Z</time></trkpt><trkpt lat="39.559603" lon="16.4491197"><ele>571.2</ele><time>2026-05-03T10:08:12.606Z</time></trkpt><trkpt lat="39.5595361" lon="16.4489925"><ele>573.6</ele><time>2026-05-03T10:08:13.599Z</time></trkpt><trkpt lat="39.5594842" lon="16.4488809"><ele>576.0</ele><time>2026-05-03T10:08:14.602Z</time></trkpt><trkpt lat="39.5594291" lon="16.4487977"><ele>579.0</ele><time>2026-05-03T10:08:15.598Z</time></trkpt><trkpt lat="39.5593667" lon="16.4487393"><ele>582.0</ele><time>2026-05-03T10:08:16.619Z</time></trkpt><trkpt lat="39.5593072" lon="16.4486909"><ele>585.0</ele><time>2026-05-03T10:08:17.621Z</time></trkpt><trkpt lat="39.5592116" lon="16.4486373"><ele>588.0</ele><time>2026-05-03T10:08:19.606Z</time></trkpt><trkpt lat="39.5592773" lon="16.4486087"><ele>591.0</ele><time>2026-05-03T10:09:40.61Z</time></trkpt><trkpt lat="39.5593541" lon="16.4486191"><ele>594.0</ele><time>2026-05-03T10:09:42.608Z</time></trkpt><trkpt lat="39.5593015" lon="16.4485331"><ele>594.0</ele><time>2026-05-03T10:09:57.612Z</time></trkpt><trkpt lat="39.5591888" lon="16.4485061"><ele>594.0</ele><time>2026-05-03T10:09:59.611Z</time></trkpt><trkpt lat="39.5591222" lon="16.4484844"><ele>594.0</ele><time>2026-05-03T10:10:00.62Z</time></trkpt><trkpt lat="39.5590434" lon="16.4484652"><ele>594.0</ele><time>2026-05-03T10:10:01.601Z</time></trkpt><trkpt lat="39.558955" lon="16.4484472"><ele>594.0</ele><time>2026-05-03T10:10:02.608Z</time></trkpt><trkpt lat="39.5588662" lon="16.4484265"><ele>594.0</ele><time>2026-05-03T10:10:03.604Z</time></trkpt><trkpt lat="39.5587711" lon="16.4484082"><ele>596.3333333333334</ele><time>2026-05-03T10:10:04.618Z</time></trkpt><trkpt lat="39.5586805" lon="16.4484006"><ele>598.6666666666666</ele><time>2026-05-03T10:10:05.605Z</time></trkpt><trkpt lat="39.5585958" lon="16.4483869"><ele>601.0</ele><time>2026-05-03T10:10:06.613Z</time></trkpt><trkpt lat="39.5584979" lon="16.4483203"><ele>603.3333333333333</ele><time>2026-05-03T10:10:08.619Z</time></trkpt><trkpt lat="39.5584916" lon="16.4482379"><ele>605.6666666666666</ele><time>2026-05-03T10:10:10.612Z</time></trkpt><trkpt lat="39.5585495" lon="16.448174"><ele>608.0</ele><time>2026-05-03T10:10:12.596Z</time></trkpt><trkpt lat="39.5586483" lon="16.4481282"><ele>607.6666666666666</ele><time>2026-05-03T10:10:14.613Z</time></trkpt><trkpt lat="39.5587102" lon="16.4481112"><ele>607.3333333333333</ele><time>2026-05-03T10:10:15.624Z</time></trkpt><trkpt lat="39.5587708" lon="16.4480873"><ele>607.0</ele><time>2026-05-03T10:10:16.606Z</time></trkpt><trkpt lat="39.5588423" lon="16.4479947"><ele>606.6666666666666</ele><time>2026-05-03T10:10:18.614Z</time></trkpt><trkpt lat="39.5588366" lon="16.4478379"><ele>606.3333333333334</ele><time>2026-05-03T10:10:20.626Z</time></trkpt><trkpt lat="39.5587951" lon="16.4477684"><ele>606.0</ele><time>2026-05-03T10:10:21.618Z</time></trkpt><trkpt lat="39.558735" lon="16.4477196"><ele>609.5</ele><time>2026-05-03T10:10:22.611Z</time></trkpt><trkpt lat="39.55866" lon="16.4476792"><ele>613.0</ele><time>2026-05-03T10:10:23.613Z</time></trkpt><trkpt lat="39.5585865" lon="16.4476288"><ele>616.5</ele><time>2026-05-03T10:10:24.613Z</time></trkpt><trkpt lat="39.5585227" lon="16.4475601"><ele>620.0</ele><time>2026-05-03T10:10:25.627Z</time></trkpt><trkpt lat="39.5584623" lon="16.4474798"><ele>623.5</ele><time>2026-05-03T10:10:26.617Z</time></trkpt><trkpt lat="39.5583876" lon="16.4474076"><ele>627.0</ele><time>2026-05-03T10:10:27.616Z</time></trkpt><trkpt lat="39.558312" lon="16.4473477"><ele>627.0</ele><time>2026-05-03T10:10:28.599Z</time></trkpt><trkpt lat="39.558241" lon="16.4472929"><ele>627.0</ele><time>2026-05-03T10:10:29.599Z</time></trkpt><trkpt lat="39.5581716" lon="16.4472519"><ele>627.0</ele><time>2026-05-03T10:10:30.614Z</time></trkpt><trkpt lat="39.5581011" lon="16.4472281"><ele>627.0</ele><time>2026-05-03T10:10:31.628Z</time></trkpt><trkpt lat="39.5580274" lon="16.4472391"><ele>627.0</ele><time>2026-05-03T10:10:32.603Z</time></trkpt><trkpt lat="39.5579494" lon="16.4472629"><ele>627.0</ele><time>2026-05-03T10:10:33.601Z</time></trkpt><trkpt lat="39.5578664" lon="16.4472794"><ele>627.8333333333334</ele><time>2026-05-03T10:10:34.615Z</time></trkpt><trkpt lat="39.5577788" lon="16.4472593"><ele>628.6666666666666</ele><time>2026-05-03T10:10:35.608Z</time></trkpt><trkpt lat="39.5576938" lon="16.4472242"><ele>629.5</ele><time>2026-05-03T10:10:36.626Z</time></trkpt><trkpt lat="39.5576211" lon="16.4471708"><ele>630.3333333333333</ele><time>2026-05-03T10:10:37.611Z</time></trkpt><trkpt lat="39.5575639" lon="16.4470898"><ele>631.1666666666666</ele><time>2026-05-03T10:10:38.6Z</time></trkpt><trkpt lat="39.5575125" lon="16.4469982"><ele>632.0</ele><time>2026-05-03T10:10:39.627Z</time></trkpt><trkpt lat="39.5574506" lon="16.4469165"><ele>635.4000000000001</ele><time>2026-05-03T10:10:40.608Z</time></trkpt><trkpt lat="39.5573672" lon="16.4468647"><ele>638.8000000000001</ele><time>2026-05-03T10:10:41.607Z</time></trkpt><trkpt lat="39.557277" lon="16.4468359"><ele>642.2</ele><time>2026-05-03T10:10:42.601Z</time></trkpt><trkpt lat="39.5571747" lon="16.4468355"><ele>645.6</ele><time>2026-05-03T10:10:43.601Z</time></trkpt><trkpt lat="39.5570683" lon="16.4468491"><ele>649.0</ele><time>2026-05-03T10:10:44.599Z</time></trkpt><trkpt lat="39.5569732" lon="16.4468723"><ele>652.6</ele><time>2026-05-03T10:10:45.588Z</time></trkpt><trkpt lat="39.556889" lon="16.4468896"><ele>656.2</ele><time>2026-05-03T10:10:46.601Z</time></trkpt><trkpt lat="39.5568003" lon="16.4468866"><ele>659.8000000000001</ele><time>2026-05-03T10:10:47.598Z</time></trkpt><trkpt lat="39.5567072" lon="16.4468649"><ele>663.4000000000001</ele><time>2026-05-03T10:10:48.596Z</time></trkpt><trkpt lat="39.556612" lon="16.4468411"><ele>667.0</ele><time>2026-05-03T10:10:49.611Z</time></trkpt><trkpt lat="39.5565129" lon="16.4468065"><ele>667.0</ele><time>2026-05-03T10:10:50.616Z</time></trkpt><trkpt lat="39.5564135" lon="16.4467622"><ele>667.0</ele><time>2026-05-03T10:10:51.619Z</time></trkpt><trkpt lat="39.5563164" lon="16.4467121"><ele>667.0</ele><time>2026-05-03T10:10:52.591Z</time></trkpt><trkpt lat="39.556234" lon="16.446664"><ele>667.0</ele><time>2026-05-03T10:10:53.602Z</time></trkpt><trkpt lat="39.5561728" lon="16.4466017"><ele>667.0</ele><time>2026-05-03T10:10:54.629Z</time></trkpt><trkpt lat="39.5561289" lon="16.4465258"><ele>667.4000000000001</ele><time>2026-05-03T10:10:55.611Z</time></trkpt><trkpt lat="39.5561014" lon="16.4464492"><ele>667.8000000000001</ele><time>2026-05-03T10:10:56.612Z</time></trkpt><trkpt lat="39.5560971" lon="16.446298"><ele>668.2</ele><time>2026-05-03T10:10:58.614Z</time></trkpt><trkpt lat="39.5561764" lon="16.4461909"><ele>668.6</ele><time>2026-05-03T10:11:00.61Z</time></trkpt><trkpt lat="39.5562351" lon="16.4461489"><ele>669.0</ele><time>2026-05-03T10:11:01.602Z</time></trkpt><trkpt lat="39.5562711" lon="16.4460067"><ele>671.1666666666666</ele><time>2026-05-03T10:11:03.623Z</time></trkpt><trkpt lat="39.5562418" lon="16.4459325"><ele>673.3333333333334</ele><time>2026-05-03T10:11:04.608Z</time></trkpt><trkpt lat="39.5561863" lon="16.4458658"><ele>675.5</ele><time>2026-05-03T10:11:05.61Z</time></trkpt><trkpt lat="39.5561269" lon="16.4458057"><ele>677.6666666666667</ele><time>2026-05-03T10:11:06.61Z</time></trkpt><trkpt lat="39.5560553" lon="16.445741"><ele>679.8333333333334</ele><time>2026-05-03T10:11:07.607Z</time></trkpt><trkpt lat="39.5559852" lon="16.4456623"><ele>682.0</ele><time>2026-05-03T10:11:08.606Z</time></trkpt><trkpt lat="39.5559342" lon="16.4455686"><ele>684.8</ele><time>2026-05-03T10:11:09.612Z</time></trkpt><trkpt lat="39.5558955" lon="16.4454542"><ele>687.6</ele><time>2026-05-03T10:11:10.615Z</time></trkpt><trkpt lat="39.5558621" lon="16.445326"><ele>690.4</ele><time>2026-05-03T10:11:11.603Z</time></trkpt><trkpt lat="39.5558302" lon="16.4451897"><ele>693.1999999999999</ele><time>2026-05-03T10:11:12.619Z</time></trkpt><trkpt lat="39.5557986" lon="16.4450591"><ele>696.0</ele><time>2026-05-03T10:11:13.61Z</time></trkpt><trkpt lat="39.5557738" lon="16.4449415"><ele>696.0</ele><time>2026-05-03T10:11:14.619Z</time></trkpt><trkpt lat="39.5557571" lon="16.444816"><ele>696.0</ele><time>2026-05-03T10:11:15.614Z</time></trkpt><trkpt lat="39.5557615" lon="16.4446746"><ele>696.0</ele><time>2026-05-03T10:11:16.614Z</time></trkpt><trkpt lat="39.5557659" lon="16.4445316"><ele>696.0</ele><time>2026-05-03T10:11:17.604Z</time></trkpt><trkpt lat="39.5557548" lon="16.4443956"><ele>696.0</ele><time>2026-05-03T10:11:18.606Z</time></trkpt><trkpt lat="39.5557317" lon="16.444271"><ele>698.8</ele><time>2026-05-03T10:11:19.612Z</time></trkpt><trkpt lat="39.5557063" lon="16.4441527"><ele>701.5999999999999</ele><time>2026-05-03T10:11:20.611Z</time></trkpt><trkpt lat="39.5556643" lon="16.4440295"><ele>704.4</ele><time>2026-05-03T10:11:21.62Z</time></trkpt><trkpt lat="39.5556156" lon="16.4438972"><ele>707.2</ele><time>2026-05-03T10:11:22.619Z</time></trkpt><trkpt lat="39.5555634" lon="16.4437526"><ele>710.0</ele><time>2026-05-03T10:11:23.593Z</time></trkpt><trkpt lat="39.5555107" lon="16.4436072"><ele>711.75</ele><time>2026-05-03T10:11:24.613Z</time></trkpt><trkpt lat="39.5554612" lon="16.4434625"><ele>713.5</ele><time>2026-05-03T10:11:25.6Z</time></trkpt><trkpt lat="39.5554097" lon="16.4433196"><ele>715.25</ele><time>2026-05-03T10:11:26.612Z</time></trkpt><trkpt lat="39.5553476" lon="16.4431798"><ele>717.0</ele><time>2026-05-03T10:11:27.6Z</time></trkpt><trkpt lat="39.5552825" lon="16.443039"><ele>720.75</ele><time>2026-05-03T10:11:28.613Z</time></trkpt><trkpt lat="39.5552198" lon="16.4428971"><ele>724.5</ele><time>2026-05-03T10:11:29.604Z</time></trkpt><trkpt lat="39.5551548" lon="16.4427603"><ele>728.25</ele><time>2026-05-03T10:11:30.606Z</time></trkpt><trkpt lat="39.5550952" lon="16.4426249"><ele>732.0</ele><time>2026-05-03T10:11:31.605Z</time></trkpt><trkpt lat="39.5550481" lon="16.4424852"><ele>732.0</ele><time>2026-05-03T10:11:32.615Z</time></trkpt><trkpt lat="39.5550063" lon="16.4423416"><ele>732.0</ele><time>2026-05-03T10:11:33.611Z</time></trkpt><trkpt lat="39.5549752" lon="16.4421906"><ele>732.0</ele><time>2026-05-03T10:11:34.62Z</time></trkpt><trkpt lat="39.5549536" lon="16.4420387"><ele>732.0</ele><time>2026-05-03T10:11:35.601Z</time></trkpt><trkpt lat="39.5549333" lon="16.441891"><ele>733.4000000000001</ele><time>2026-05-03T10:11:36.615Z</time></trkpt><trkpt lat="39.5549067" lon="16.4417531"><ele>734.8000000000001</ele><time>2026-05-03T10:11:37.617Z</time></trkpt><trkpt lat="39.5548632" lon="16.4416426"><ele>736.2</ele><time>2026-05-03T10:11:38.626Z</time></trkpt><trkpt lat="39.5548079" lon="16.4415393"><ele>737.6</ele><time>2026-05-03T10:11:39.608Z</time></trkpt><trkpt lat="39.5547445" lon="16.4414335"><ele>739.0</ele><time>2026-05-03T10:11:40.614Z</time></trkpt><trkpt lat="39.5546731" lon="16.4413222"><ele>740.5</ele><time>2026-05-03T10:11:41.597Z</time></trkpt><trkpt lat="39.5545833" lon="16.4412242"><ele>742.0</ele><time>2026-05-03T10:11:42.607Z</time></trkpt><trkpt lat="39.5544779" lon="16.4411368"><ele>743.5</ele><time>2026-05-03T10:11:43.604Z</time></trkpt><trkpt lat="39.5543735" lon="16.4410475"><ele>745.0</ele><time>2026-05-03T10:11:44.609Z</time></trkpt><trkpt lat="39.5542995" lon="16.4409678"><ele>748.3333333333334</ele><time>2026-05-03T10:11:45.594Z</time></trkpt><trkpt lat="39.5542579" lon="16.4408878"><ele>751.6666666666667</ele><time>2026-05-03T10:11:46.61Z</time></trkpt><trkpt lat="39.5542435" lon="16.4408011"><ele>755.0</ele><time>2026-05-03T10:11:47.599Z</time></trkpt><trkpt lat="39.5542486" lon="16.4407008"><ele>758.3333333333334</ele><time>2026-05-03T10:11:48.601Z</time></trkpt><trkpt lat="39.5542504" lon="16.4405982"><ele>761.6666666666666</ele><time>2026-05-03T10:11:49.626Z</time></trkpt><trkpt lat="39.5542391" lon="16.4404919"><ele>765.0</ele><time>2026-05-03T10:11:50.623Z</time></trkpt><trkpt lat="39.554219" lon="16.4403951"><ele>765.0</ele><time>2026-05-03T10:11:51.617Z</time></trkpt><trkpt lat="39.5541553" lon="16.4403137"><ele>765.0</ele><time>2026-05-03T10:11:52.629Z</time></trkpt><trkpt lat="39.5540812" lon="16.4402299"><ele>765.0</ele><time>2026-05-03T10:11:53.608Z</time></trkpt><trkpt lat="39.5540006" lon="16.4401481"><ele>765.0</ele><time>2026-05-03T10:11:54.621Z</time></trkpt><trkpt lat="39.5539193" lon="16.4400875"><ele>765.0</ele><time>2026-05-03T10:11:55.611Z</time></trkpt><trkpt lat="39.5538344" lon="16.4400473"><ele>765.0</ele><time>2026-05-03T10:11:56.604Z</time></trkpt><trkpt lat="39.5537404" lon="16.440033"><ele>765.0</ele><time>2026-05-03T10:11:57.605Z</time></trkpt><trkpt lat="39.5536352" lon="16.4400447"><ele>765.0</ele><time>2026-05-03T10:11:58.623Z</time></trkpt><trkpt lat="39.5535337" lon="16.4400584"><ele>765.0</ele><time>2026-05-03T10:11:59.612Z</time></trkpt><trkpt lat="39.5534319" lon="16.4400697"><ele>765.0</ele><time>2026-05-03T10:12:00.622Z</time></trkpt><trkpt lat="39.5533301" lon="16.4400533"><ele>771.25</ele><time>2026-05-03T10:12:01.619Z</time></trkpt><trkpt lat="39.5532323" lon="16.4400034"><ele>777.5</ele><time>2026-05-03T10:12:02.603Z</time></trkpt><trkpt lat="39.5531254" lon="16.4399491"><ele>783.75</ele><time>2026-05-03T10:12:03.602Z</time></trkpt><trkpt lat="39.5530099" lon="16.4398978"><ele>790.0</ele><time>2026-05-03T10:12:04.605Z</time></trkpt><trkpt lat="39.5528965" lon="16.4398211"><ele>794.25</ele><time>2026-05-03T10:12:05.612Z</time></trkpt><trkpt lat="39.5527917" lon="16.4397251"><ele>798.5</ele><time>2026-05-03T10:12:06.584Z</time></trkpt><trkpt lat="39.5526889" lon="16.4396165"><ele>802.75</ele><time>2026-05-03T10:12:07.611Z</time></trkpt><trkpt lat="39.5525929" lon="16.4394925"><ele>807.0</ele><time>2026-05-03T10:12:08.608Z</time></trkpt><trkpt lat="39.5524992" lon="16.4393638"><ele>809.0</ele><time>2026-05-03T10:12:09.598Z</time></trkpt><trkpt lat="39.552405" lon="16.4392377"><ele>811.0</ele><time>2026-05-03T10:12:10.605Z</time></trkpt><trkpt lat="39.5523134" lon="16.4391304"><ele>813.0</ele><time>2026-05-03T10:12:11.61Z</time></trkpt><trkpt lat="39.5522183" lon="16.4390423"><ele>815.0</ele><time>2026-05-03T10:12:12.605Z</time></trkpt><trkpt lat="39.5521192" lon="16.438968"><ele>818.0</ele><time>2026-05-03T10:12:13.622Z</time></trkpt><trkpt lat="39.5520253" lon="16.4388956"><ele>821.0</ele><time>2026-05-03T10:12:14.608Z</time></trkpt><trkpt lat="39.5519383" lon="16.4388233"><ele>824.0</ele><time>2026-05-03T10:12:15.595Z</time></trkpt><trkpt lat="39.5518506" lon="16.4387384"><ele>827.0</ele><time>2026-05-03T10:12:16.6Z</time></trkpt><trkpt lat="39.5517696" lon="16.4386354"><ele>830.0</ele><time>2026-05-03T10:12:17.605Z</time></trkpt><trkpt lat="39.5516972" lon="16.4385203"><ele>831.5</ele><time>2026-05-03T10:12:18.615Z</time></trkpt><trkpt lat="39.55163" lon="16.4383987"><ele>833.0</ele><time>2026-05-03T10:12:19.599Z</time></trkpt><trkpt lat="39.5515673" lon="16.4382747"><ele>834.5</ele><time>2026-05-03T10:12:20.612Z</time></trkpt><trkpt lat="39.5515017" lon="16.4381633"><ele>836.0</ele><time>2026-05-03T10:12:21.612Z</time></trkpt><trkpt lat="39.5514189" lon="16.4380567"><ele>839.75</ele><time>2026-05-03T10:12:22.596Z</time></trkpt><trkpt lat="39.5513226" lon="16.4379578"><ele>843.5</ele><time>2026-05-03T10:12:23.602Z</time></trkpt><trkpt lat="39.5512133" lon="16.4378789"><ele>847.25</ele><time>2026-05-03T10:12:24.608Z</time></trkpt><trkpt lat="39.5511032" lon="16.4378115"><ele>851.0</ele><time>2026-05-03T10:12:25.611Z</time></trkpt><trkpt lat="39.5509899" lon="16.4377441"><ele>851.0</ele><time>2026-05-03T10:12:26.595Z</time></trkpt><trkpt lat="39.5508799" lon="16.4376843"><ele>851.0</ele><time>2026-05-03T10:12:27.596Z</time></trkpt><trkpt lat="39.5507942" lon="16.4376139"><ele>851.0</ele><time>2026-05-03T10:12:28.613Z</time></trkpt><trkpt lat="39.550726" lon="16.4375264"><ele>851.0</ele><time>2026-05-03T10:12:29.618Z</time></trkpt><trkpt lat="39.5506704" lon="16.4374046"><ele>851.0</ele><time>2026-05-03T10:12:30.61Z</time></trkpt><trkpt lat="39.5506199" lon="16.4372707"><ele>852.25</ele><time>2026-05-03T10:12:31.615Z</time></trkpt><trkpt lat="39.5505642" lon="16.4371244"><ele>853.5</ele><time>2026-05-03T10:12:32.609Z</time></trkpt><trkpt lat="39.5505013" lon="16.4369768"><ele>854.75</ele><time>2026-05-03T10:12:33.603Z</time></trkpt><trkpt lat="39.5504324" lon="16.4368221"><ele>856.0</ele><time>2026-05-03T10:12:34.62Z</time></trkpt><trkpt lat="39.5503668" lon="16.4366654"><ele>856.0</ele><time>2026-05-03T10:12:35.609Z</time></trkpt><trkpt lat="39.550303" lon="16.4365165"><ele>855.9999999999999</ele><time>2026-05-03T10:12:36.607Z</time></trkpt><trkpt lat="39.5502402" lon="16.4363937"><ele>855.9999999999999</ele><time>2026-05-03T10:12:37.621Z</time></trkpt><trkpt lat="39.5501696" lon="16.4363017"><ele>856.0</ele><time>2026-05-03T10:12:38.617Z</time></trkpt><trkpt lat="39.550084" lon="16.4362256"><ele>856.0</ele><time>2026-05-03T10:12:39.608Z</time></trkpt><trkpt lat="39.5499824" lon="16.4361565"><ele>858.75</ele><time>2026-05-03T10:12:40.609Z</time></trkpt><trkpt lat="39.5498641" lon="16.4361013"><ele>861.5</ele><time>2026-05-03T10:12:41.606Z</time></trkpt><trkpt lat="39.5497421" lon="16.4360458"><ele>864.25</ele><time>2026-05-03T10:12:42.603Z</time></trkpt><trkpt lat="39.5496259" lon="16.4359777"><ele>867.0</ele><time>2026-05-03T10:12:43.605Z</time></trkpt><trkpt lat="39.5495172" lon="16.4358941"><ele>867.0</ele><time>2026-05-03T10:12:44.606Z</time></trkpt><trkpt lat="39.5494142" lon="16.4358174"><ele>867.0</ele><time>2026-05-03T10:12:45.593Z</time></trkpt><trkpt lat="39.5493155" lon="16.435748"><ele>867.0</ele><time>2026-05-03T10:12:46.597Z</time></trkpt><trkpt lat="39.5492028" lon="16.4356843"><ele>867.0</ele><time>2026-05-03T10:12:47.599Z</time></trkpt><trkpt lat="39.549089" lon="16.4356339"><ele>867.0</ele><time>2026-05-03T10:12:48.604Z</time></trkpt><trkpt lat="39.5489738" lon="16.4355899"><ele>867.0</ele><time>2026-05-03T10:12:49.597Z</time></trkpt><trkpt lat="39.5488721" lon="16.4355509"><ele>867.0</ele><time>2026-05-03T10:12:50.605Z</time></trkpt><trkpt lat="39.5487724" lon="16.4355048"><ele>867.0</ele><time>2026-05-03T10:12:51.615Z</time></trkpt><trkpt lat="39.5486731" lon="16.4354495"><ele>867.0</ele><time>2026-05-03T10:12:52.589Z</time></trkpt><trkpt lat="39.548579" lon="16.4353828"><ele>868.5</ele><time>2026-05-03T10:12:53.612Z</time></trkpt><trkpt lat="39.5484889" lon="16.4353027"><ele>870.0</ele><time>2026-05-03T10:12:54.616Z</time></trkpt><trkpt lat="39.548395" lon="16.435217"><ele>871.5</ele><time>2026-05-03T10:12:55.618Z</time></trkpt><trkpt lat="39.5482922" lon="16.43514"><ele>873.0</ele><time>2026-05-03T10:12:56.611Z</time></trkpt><trkpt lat="39.5481908" lon="16.4350851"><ele>873.0</ele><time>2026-05-03T10:12:57.608Z</time></trkpt><trkpt lat="39.5481059" lon="16.4350457"><ele>873.0</ele><time>2026-05-03T10:12:58.61Z</time></trkpt><trkpt lat="39.5480324" lon="16.4350035"><ele>873.0</ele><time>2026-05-03T10:12:59.613Z</time></trkpt><trkpt lat="39.5479635" lon="16.4349659"><ele>873.0</ele><time>2026-05-03T10:13:00.614Z</time></trkpt><trkpt lat="39.547893" lon="16.43492"><ele>873.0</ele><time>2026-05-03T10:13:01.602Z</time></trkpt><trkpt lat="39.5478353" lon="16.434852"><ele>873.0</ele><time>2026-05-03T10:13:02.629Z</time></trkpt><trkpt lat="39.5477763" lon="16.4347607"><ele>872.25</ele><time>2026-05-03T10:13:03.598Z</time></trkpt><trkpt lat="39.5477121" lon="16.4346381"><ele>871.5</ele><time>2026-05-03T10:13:04.605Z</time></trkpt><trkpt lat="39.5476515" lon="16.4345079"><ele>870.75</ele><time>2026-05-03T10:13:05.597Z</time></trkpt><trkpt lat="39.5475896" lon="16.4343628"><ele>870.0</ele><time>2026-05-03T10:13:06.619Z</time></trkpt><trkpt lat="39.5475118" lon="16.43422"><ele>870.0</ele><time>2026-05-03T10:13:07.604Z</time></trkpt><trkpt lat="39.5474251" lon="16.4340836"><ele>870.0</ele><time>2026-05-03T10:13:08.612Z</time></trkpt><trkpt lat="39.5473206" lon="16.4339629"><ele>870.0</ele><time>2026-05-03T10:13:09.612Z</time></trkpt><trkpt lat="39.5471994" lon="16.4338644"><ele>870.0</ele><time>2026-05-03T10:13:10.61Z</time></trkpt><trkpt lat="39.5470725" lon="16.4337763"><ele>868.6666666666667</ele><time>2026-05-03T10:13:11.609Z</time></trkpt><trkpt lat="39.5469304" lon="16.4336866"><ele>867.3333333333334</ele><time>2026-05-03T10:13:12.611Z</time></trkpt><trkpt lat="39.5467926" lon="16.433592"><ele>866.0</ele><time>2026-05-03T10:13:13.614Z</time></trkpt><trkpt lat="39.5466637" lon="16.4335123"><ele>866.0</ele><time>2026-05-03T10:13:14.61Z</time></trkpt><trkpt lat="39.5465261" lon="16.4334471"><ele>866.0</ele><time>2026-05-03T10:13:15.606Z</time></trkpt><trkpt lat="39.5463854" lon="16.4333949"><ele>866.0</ele><time>2026-05-03T10:13:16.611Z</time></trkpt><trkpt lat="39.5462481" lon="16.4333553"><ele>866.0</ele><time>2026-05-03T10:13:17.605Z</time></trkpt><trkpt lat="39.5461216" lon="16.4333062"><ele>869.75</ele><time>2026-05-03T10:13:18.604Z</time></trkpt><trkpt lat="39.5460091" lon="16.4332356"><ele>873.5</ele><time>2026-05-03T10:13:19.607Z</time></trkpt><trkpt lat="39.5459139" lon="16.4331438"><ele>877.25</ele><time>2026-05-03T10:13:20.62Z</time></trkpt><trkpt lat="39.5458417" lon="16.4330258"><ele>881.0</ele><time>2026-05-03T10:13:21.6Z</time></trkpt><trkpt lat="39.5457759" lon="16.4328959"><ele>881.0</ele><time>2026-05-03T10:13:22.605Z</time></trkpt><trkpt lat="39.5457075" lon="16.4327681"><ele>881.0</ele><time>2026-05-03T10:13:23.613Z</time></trkpt><trkpt lat="39.54563" lon="16.432641"><ele>881.0</ele><time>2026-05-03T10:13:24.615Z</time></trkpt><trkpt lat="39.5455476" lon="16.432518"><ele>881.0</ele><time>2026-05-03T10:13:25.61Z</time></trkpt><trkpt lat="39.5454616" lon="16.4323947"><ele>887.75</ele><time>2026-05-03T10:13:26.603Z</time></trkpt><trkpt lat="39.5453732" lon="16.4322716"><ele>894.5</ele><time>2026-05-03T10:13:27.602Z</time></trkpt><trkpt lat="39.5452823" lon="16.432154"><ele>901.25</ele><time>2026-05-03T10:13:28.611Z</time></trkpt><trkpt lat="39.5451888" lon="16.432044"><ele>908.0</ele><time>2026-05-03T10:13:29.613Z</time></trkpt><trkpt lat="39.545091" lon="16.4319418"><ele>908.0</ele><time>2026-05-03T10:13:30.607Z</time></trkpt><trkpt lat="39.5449881" lon="16.4318355"><ele>908.0</ele><time>2026-05-03T10:13:31.613Z</time></trkpt><trkpt lat="39.5449044" lon="16.4317228"><ele>908.0</ele><time>2026-05-03T10:13:32.613Z</time></trkpt><trkpt lat="39.544842" lon="16.4315946"><ele>908.0</ele><time>2026-05-03T10:13:33.603Z</time></trkpt><trkpt lat="39.5447959" lon="16.4314574"><ele>908.0</ele><time>2026-05-03T10:13:34.617Z</time></trkpt><trkpt lat="39.5447431" lon="16.4313259"><ele>908.0</ele><time>2026-05-03T10:13:35.607Z</time></trkpt><trkpt lat="39.5446809" lon="16.4311926"><ele>908.0</ele><time>2026-05-03T10:13:36.609Z</time></trkpt><trkpt lat="39.5446066" lon="16.4310698"><ele>908.0</ele><time>2026-05-03T10:13:37.599Z</time></trkpt><trkpt lat="39.5445167" lon="16.4309556"><ele>912.0</ele><time>2026-05-03T10:13:38.604Z</time></trkpt><trkpt lat="39.5444219" lon="16.4308425"><ele>916.0</ele><time>2026-05-03T10:13:39.616Z</time></trkpt><trkpt lat="39.5443253" lon="16.4307167"><ele>920.0</ele><time>2026-05-03T10:13:40.611Z</time></trkpt><trkpt lat="39.5442356" lon="16.4305776"><ele>924.0</ele><time>2026-05-03T10:13:41.616Z</time></trkpt><trkpt lat="39.5441454" lon="16.4304288"><ele>924.0</ele><time>2026-05-03T10:13:42.613Z</time></trkpt><trkpt lat="39.5440502" lon="16.4302685"><ele>924.0</ele><time>2026-05-03T10:13:43.607Z</time></trkpt><trkpt lat="39.5439565" lon="16.4301038"><ele>924.0</ele><time>2026-05-03T10:13:44.616Z</time></trkpt><trkpt lat="39.5438632" lon="16.4299302"><ele>924.0</ele><time>2026-05-03T10:13:45.609Z</time></trkpt><trkpt lat="39.54377" lon="16.4297592"><ele>924.0</ele><time>2026-05-03T10:13:46.612Z</time></trkpt><trkpt lat="39.5436743" lon="16.4296002"><ele>924.0</ele><time>2026-05-03T10:13:47.609Z</time></trkpt><trkpt lat="39.5435751" lon="16.4294567"><ele>931.25</ele><time>2026-05-03T10:13:48.606Z</time></trkpt><trkpt lat="39.5434682" lon="16.429339"><ele>938.5</ele><time>2026-05-03T10:13:49.605Z</time></trkpt><trkpt lat="39.5433523" lon="16.4292469"><ele>945.75</ele><time>2026-05-03T10:13:50.606Z</time></trkpt><trkpt lat="39.5432416" lon="16.4291563"><ele>953.0</ele><time>2026-05-03T10:13:51.61Z</time></trkpt><trkpt lat="39.5431401" lon="16.4290255"><ele>953.0</ele><time>2026-05-03T10:13:52.611Z</time></trkpt><trkpt lat="39.5430572" lon="16.4288855"><ele>953.0</ele><time>2026-05-03T10:13:53.615Z</time></trkpt><trkpt lat="39.542979" lon="16.4287435"><ele>953.0</ele><time>2026-05-03T10:13:54.613Z</time></trkpt><trkpt lat="39.5428857" lon="16.4286207"><ele>953.0</ele><time>2026-05-03T10:13:55.629Z</time></trkpt><trkpt lat="39.542773" lon="16.4285119"><ele>958.0</ele><time>2026-05-03T10:13:56.62Z</time></trkpt><trkpt lat="39.5426551" lon="16.4284105"><ele>963.0</ele><time>2026-05-03T10:13:57.663Z</time></trkpt><trkpt lat="39.5425335" lon="16.4283074"><ele>968.0</ele><time>2026-05-03T10:13:58.611Z</time></trkpt><trkpt lat="39.5424049" lon="16.4282011"><ele>973.0</ele><time>2026-05-03T10:13:59.607Z</time></trkpt><trkpt lat="39.5422735" lon="16.428074"><ele>972.0</ele><time>2026-05-03T10:14:00.619Z</time></trkpt><trkpt lat="39.5421415" lon="16.4279434"><ele>971.0</ele><time>2026-05-03T10:14:01.625Z</time></trkpt><trkpt lat="39.5420127" lon="16.4278105"><ele>970.0</ele><time>2026-05-03T10:14:02.602Z</time></trkpt><trkpt lat="39.5418939" lon="16.4276626"><ele>977.3333333333333</ele><time>2026-05-03T10:14:03.606Z</time></trkpt><trkpt lat="39.5417831" lon="16.4275025"><ele>984.6666666666667</ele><time>2026-05-03T10:14:04.616Z</time></trkpt><trkpt lat="39.5416737" lon="16.4273386"><ele>992.0</ele><time>2026-05-03T10:14:05.611Z</time></trkpt><trkpt lat="39.5415618" lon="16.4271733"><ele>989.0</ele><time>2026-05-03T10:14:06.615Z</time></trkpt><trkpt lat="39.5414479" lon="16.4270102"><ele>986.0</ele><time>2026-05-03T10:14:07.608Z</time></trkpt><trkpt lat="39.5413287" lon="16.4268469"><ele>983.0</ele><time>2026-05-03T10:14:08.618Z</time></trkpt><trkpt lat="39.5412021" lon="16.4266951"><ele>989.6666666666667</ele><time>2026-05-03T10:14:09.61Z</time></trkpt><trkpt lat="39.5410614" lon="16.426558"><ele>996.3333333333333</ele><time>2026-05-03T10:14:10.634Z</time></trkpt><trkpt lat="39.5409248" lon="16.4264258"><ele>1003.0</ele><time>2026-05-03T10:14:11.606Z</time></trkpt><trkpt lat="39.5408098" lon="16.4263108"><ele>1003.0</ele><time>2026-05-03T10:14:12.608Z</time></trkpt><trkpt lat="39.5407148" lon="16.4262187"><ele>1003.0</ele><time>2026-05-03T10:14:13.605Z</time></trkpt><trkpt lat="39.5406045" lon="16.4261481"><ele>1003.0</ele><time>2026-05-03T10:14:14.616Z</time></trkpt><trkpt lat="39.54048" lon="16.4260897"><ele>1003.0</ele><time>2026-05-03T10:14:15.613Z</time></trkpt><trkpt lat="39.5403577" lon="16.426031"><ele>1007.75</ele><time>2026-05-03T10:14:16.598Z</time></trkpt><trkpt lat="39.5402321" lon="16.4259727"><ele>1012.5</ele><time>2026-05-03T10:14:17.609Z</time></trkpt><trkpt lat="39.5401016" lon="16.4259092"><ele>1017.25</ele><time>2026-05-03T10:14:18.609Z</time></trkpt><trkpt lat="39.5399862" lon="16.4258449"><ele>1022.0</ele><time>2026-05-03T10:14:19.595Z</time></trkpt><trkpt lat="39.5398824" lon="16.4257856"><ele>1022.0</ele><time>2026-05-03T10:14:20.602Z</time></trkpt><trkpt lat="39.5397803" lon="16.4257202"><ele>1022.0</ele><time>2026-05-03T10:14:21.594Z</time></trkpt><trkpt lat="39.5396741" lon="16.4256438"><ele>1022.0</ele><time>2026-05-03T10:14:22.597Z</time></trkpt><trkpt lat="39.5395622" lon="16.4255561"><ele>1022.0</ele><time>2026-05-03T10:14:23.617Z</time></trkpt><trkpt lat="39.5394525" lon="16.4254624"><ele>1025.25</ele><time>2026-05-03T10:14:24.609Z</time></trkpt><trkpt lat="39.5393386" lon="16.425362"><ele>1028.5</ele><time>2026-05-03T10:14:25.602Z</time></trkpt><trkpt lat="39.5392245" lon="16.4252548"><ele>1031.75</ele><time>2026-05-03T10:14:26.615Z</time></trkpt><trkpt lat="39.5391084" lon="16.425147"><ele>1035.0</ele><time>2026-05-03T10:14:27.621Z</time></trkpt><trkpt lat="39.5389945" lon="16.4250437"><ele>1035.0</ele><time>2026-05-03T10:14:28.607Z</time></trkpt><trkpt lat="39.5388792" lon="16.4249472"><ele>1035.0</ele><time>2026-05-03T10:14:29.604Z</time></trkpt><trkpt lat="39.538766" lon="16.4248438"><ele>1035.0</ele><time>2026-05-03T10:14:30.617Z</time></trkpt><trkpt lat="39.5386547" lon="16.4247406"><ele>1035.0</ele><time>2026-05-03T10:14:31.607Z</time></trkpt><trkpt lat="39.5385429" lon="16.4246428"><ele>1036.75</ele><time>2026-05-03T10:14:32.605Z</time></trkpt><trkpt lat="39.5384304" lon="16.4245466"><ele>1038.5</ele><time>2026-05-03T10:14:33.596Z</time></trkpt><trkpt lat="39.5383177" lon="16.4244553"><ele>1040.25</ele><time>2026-05-03T10:14:34.618Z</time></trkpt><trkpt lat="39.5381942" lon="16.424372"><ele>1042.0</ele><time>2026-05-03T10:14:35.605Z</time></trkpt><trkpt lat="39.5380621" lon="16.4242919"><ele>1042.0</ele><time>2026-05-03T10:14:36.612Z</time></trkpt><trkpt lat="39.5379282" lon="16.4242062"><ele>1042.0</ele><time>2026-05-03T10:14:37.613Z</time></trkpt><trkpt lat="39.5377968" lon="16.424112"><ele>1042.0</ele><time>2026-05-03T10:14:38.605Z</time></trkpt><trkpt lat="39.5376618" lon="16.4240156"><ele>1043.0</ele><time>2026-05-03T10:14:39.611Z</time></trkpt><trkpt lat="39.5375221" lon="16.4239182"><ele>1044.0</ele><time>2026-05-03T10:14:40.607Z</time></trkpt><trkpt lat="39.5373824" lon="16.4238192"><ele>1045.0</ele><time>2026-05-03T10:14:41.599Z</time></trkpt><trkpt lat="39.5372437" lon="16.4237145"><ele>1045.25</ele><time>2026-05-03T10:14:42.616Z</time></trkpt><trkpt lat="39.5371101" lon="16.4236146"><ele>1045.5</ele><time>2026-05-03T10:14:43.613Z</time></trkpt><trkpt lat="39.5369953" lon="16.4235161"><ele>1045.75</ele><time>2026-05-03T10:14:44.609Z</time></trkpt><trkpt lat="39.5368963" lon="16.4234384"><ele>1046.0</ele><time>2026-05-03T10:14:45.605Z</time></trkpt><trkpt lat="39.5368007" lon="16.423358"><ele>1046.0</ele><time>2026-05-03T10:14:46.613Z</time></trkpt><trkpt lat="39.5367224" lon="16.4232791"><ele>1046.0</ele><time>2026-05-03T10:14:47.61Z</time></trkpt><trkpt lat="39.5366625" lon="16.4232069"><ele>1046.0</ele><time>2026-05-03T10:14:48.619Z</time></trkpt><trkpt lat="39.5366085" lon="16.4231422"><ele>1046.0</ele><time>2026-05-03T10:14:49.605Z</time></trkpt><trkpt lat="39.5365485" lon="16.4230837"><ele>1046.0</ele><time>2026-05-03T10:14:50.612Z</time></trkpt><trkpt lat="39.5364754" lon="16.4230167"><ele>1046.0</ele><time>2026-05-03T10:14:51.603Z</time></trkpt><trkpt lat="39.5363826" lon="16.4229447"><ele>1046.0</ele><time>2026-05-03T10:14:52.614Z</time></trkpt><trkpt lat="39.5362755" lon="16.4228863"><ele>1046.0</ele><time>2026-05-03T10:14:53.617Z</time></trkpt><trkpt lat="39.5361571" lon="16.4228413"><ele>1046.0</ele><time>2026-05-03T10:14:54.616Z</time></trkpt><trkpt lat="39.5360329" lon="16.4227977"><ele>1046.0</ele><time>2026-05-03T10:14:55.611Z</time></trkpt><trkpt lat="39.535918" lon="16.4227739"><ele>1046.0</ele><time>2026-05-03T10:14:56.604Z</time></trkpt><trkpt lat="39.5358231" lon="16.4227639"><ele>1046.0</ele><time>2026-05-03T10:14:57.613Z</time></trkpt><trkpt lat="39.5357453" lon="16.4227614"><ele>1046.0</ele><time>2026-05-03T10:14:58.621Z</time></trkpt><trkpt lat="39.5356737" lon="16.4227858"><ele>1046.0</ele><time>2026-05-03T10:14:59.615Z</time></trkpt><trkpt lat="39.535568" lon="16.4228682"><ele>1046.0</ele><time>2026-05-03T10:15:01.614Z</time></trkpt><trkpt lat="39.5355148" lon="16.4229174"><ele>1046.0</ele><time>2026-05-03T10:15:02.609Z</time></trkpt><trkpt lat="39.5354534" lon="16.4229778"><ele>1044.5</ele><time>2026-05-03T10:15:03.631Z</time></trkpt><trkpt lat="39.5353787" lon="16.4230457"><ele>1043.0</ele><time>2026-05-03T10:15:04.622Z</time></trkpt><trkpt lat="39.5353011" lon="16.4231137"><ele>1041.5</ele><time>2026-05-03T10:15:05.618Z</time></trkpt><trkpt lat="39.5352284" lon="16.4231739"><ele>1040.0</ele><time>2026-05-03T10:15:06.609Z</time></trkpt><trkpt lat="39.5351638" lon="16.423222"><ele>1038.5</ele><time>2026-05-03T10:15:07.614Z</time></trkpt><trkpt lat="39.535107" lon="16.4232613"><ele>1037.0</ele><time>2026-05-03T10:15:08.616Z</time></trkpt><trkpt lat="39.534993" lon="16.423327"><ele>1037.0</ele><time>2026-05-03T10:15:10.616Z</time></trkpt><trkpt lat="39.5349137" lon="16.4233582"><ele>1037.0</ele><time>2026-05-03T10:15:11.606Z</time></trkpt><trkpt lat="39.5348111" lon="16.4233986"><ele>1037.0</ele><time>2026-05-03T10:15:12.615Z</time></trkpt><trkpt lat="39.5347024" lon="16.4234416"><ele>1037.0</ele><time>2026-05-03T10:15:13.607Z</time></trkpt><trkpt lat="39.5345839" lon="16.4234842"><ele>1037.0</ele><time>2026-05-03T10:15:14.635Z</time></trkpt><trkpt lat="39.5344619" lon="16.4235257"><ele>1036.75</ele><time>2026-05-03T10:15:15.608Z</time></trkpt><trkpt lat="39.534331" lon="16.4235621"><ele>1036.5</ele><time>2026-05-03T10:15:16.613Z</time></trkpt><trkpt lat="39.5341952" lon="16.4236064"><ele>1036.25</ele><time>2026-05-03T10:15:17.611Z</time></trkpt><trkpt lat="39.5340589" lon="16.4236525"><ele>1036.0</ele><time>2026-05-03T10:15:18.614Z</time></trkpt><trkpt lat="39.5339355" lon="16.423694"><ele>1036.0</ele><time>2026-05-03T10:15:19.617Z</time></trkpt><trkpt lat="39.5338091" lon="16.4237245"><ele>1036.0</ele><time>2026-05-03T10:15:20.612Z</time></trkpt><trkpt lat="39.5336799" lon="16.4237419"><ele>1036.0</ele><time>2026-05-03T10:15:21.597Z</time></trkpt><trkpt lat="39.5335402" lon="16.4237618"><ele>1036.0</ele><time>2026-05-03T10:15:22.601Z</time></trkpt><trkpt lat="39.5333891" lon="16.4237729"><ele>1035.0</ele><time>2026-05-03T10:15:23.609Z</time></trkpt><trkpt lat="39.5332375" lon="16.4237761"><ele>1034.0</ele><time>2026-05-03T10:15:24.609Z</time></trkpt><trkpt lat="39.5330978" lon="16.4237804"><ele>1033.0</ele><time>2026-05-03T10:15:25.603Z</time></trkpt><trkpt lat="39.5329823" lon="16.4237902"><ele>1032.0</ele><time>2026-05-03T10:15:26.619Z</time></trkpt><trkpt lat="39.5328821" lon="16.4237958"><ele>1031.8</ele><time>2026-05-03T10:15:27.611Z</time></trkpt><trkpt lat="39.5327957" lon="16.4238084"><ele>1031.6</ele><time>2026-05-03T10:15:28.615Z</time></trkpt><trkpt lat="39.5327033" lon="16.4238702"><ele>1031.3999999999999</ele><time>2026-05-03T10:15:29.617Z</time></trkpt><trkpt lat="39.5326038" lon="16.423966"><ele>1031.2</ele><time>2026-05-03T10:15:30.597Z</time></trkpt><trkpt lat="39.5325132" lon="16.4240615"><ele>1031.0</ele><time>2026-05-03T10:15:31.612Z</time></trkpt><trkpt lat="39.532439" lon="16.4241645"><ele>1029.75</ele><time>2026-05-03T10:15:32.62Z</time></trkpt><trkpt lat="39.5323626" lon="16.4242873"><ele>1028.5</ele><time>2026-05-03T10:15:33.616Z</time></trkpt><trkpt lat="39.5322964" lon="16.424425"><ele>1027.25</ele><time>2026-05-03T10:15:34.623Z</time></trkpt><trkpt lat="39.5322316" lon="16.4245479"><ele>1026.0</ele><time>2026-05-03T10:15:35.605Z</time></trkpt><trkpt lat="39.5321621" lon="16.4246675"><ele>1023.75</ele><time>2026-05-03T10:15:36.605Z</time></trkpt><trkpt lat="39.5320764" lon="16.424771"><ele>1021.5</ele><time>2026-05-03T10:15:37.608Z</time></trkpt><trkpt lat="39.5319813" lon="16.4248661"><ele>1019.25</ele><time>2026-05-03T10:15:38.62Z</time></trkpt><trkpt lat="39.5318937" lon="16.424961"><ele>1017.0</ele><time>2026-05-03T10:15:39.612Z</time></trkpt><trkpt lat="39.531823" lon="16.4250519"><ele>1016.0</ele><time>2026-05-03T10:15:40.621Z</time></trkpt><trkpt lat="39.5317671" lon="16.4251358"><ele>1015.0</ele><time>2026-05-03T10:15:41.604Z</time></trkpt><trkpt lat="39.5317274" lon="16.4252085"><ele>1014.0</ele><time>2026-05-03T10:15:42.608Z</time></trkpt><trkpt lat="39.5316879" lon="16.4253144"><ele>1013.0</ele><time>2026-05-03T10:15:44.618Z</time></trkpt><trkpt lat="39.5316925" lon="16.4254541"><ele>1012.0</ele><time>2026-05-03T10:15:46.622Z</time></trkpt><trkpt lat="39.5317037" lon="16.425551"><ele>1011.0</ele><time>2026-05-03T10:15:47.607Z</time></trkpt><trkpt lat="39.5317306" lon="16.4256735"><ele>1009.5</ele><time>2026-05-03T10:15:48.617Z</time></trkpt><trkpt lat="39.5317596" lon="16.4258252"><ele>1008.0</ele><time>2026-05-03T10:15:49.597Z</time></trkpt><trkpt lat="39.5317758" lon="16.4260099"><ele>1006.5</ele><time>2026-05-03T10:15:50.599Z</time></trkpt><trkpt lat="39.5317931" lon="16.4262096"><ele>1005.0</ele><time>2026-05-03T10:15:51.595Z</time></trkpt><trkpt lat="39.5318156" lon="16.4264024"><ele>1003.3333333333333</ele><time>2026-05-03T10:15:52.589Z</time></trkpt><trkpt lat="39.5318464" lon="16.4265883"><ele>1001.6666666666666</ele><time>2026-05-03T10:15:53.606Z</time></trkpt><trkpt lat="39.5318888" lon="16.4267797"><ele>1000.0</ele><time>2026-05-03T10:15:54.611Z</time></trkpt><trkpt lat="39.5319291" lon="16.4269773"><ele>1000.0</ele><time>2026-05-03T10:15:55.618Z</time></trkpt><trkpt lat="39.5319639" lon="16.4271749"><ele>1000.0</ele><time>2026-05-03T10:15:56.618Z</time></trkpt><trkpt lat="39.5320021" lon="16.4273731"><ele>1000.0</ele><time>2026-05-03T10:15:57.614Z</time></trkpt><trkpt lat="39.5320454" lon="16.4275697"><ele>1000.5</ele><time>2026-05-03T10:15:58.614Z</time></trkpt><trkpt lat="39.5320958" lon="16.4277535"><ele>1001.0</ele><time>2026-05-03T10:15:59.606Z</time></trkpt><trkpt lat="39.5321438" lon="16.4279223"><ele>1001.5</ele><time>2026-05-03T10:16:00.595Z</time></trkpt><trkpt lat="39.5321915" lon="16.4280816"><ele>1002.0</ele><time>2026-05-03T10:16:01.638Z</time></trkpt><trkpt lat="39.5322396" lon="16.428243"><ele>1002.0</ele><time>2026-05-03T10:16:02.624Z</time></trkpt><trkpt lat="39.532295" lon="16.428402"><ele>1002.0</ele><time>2026-05-03T10:16:03.629Z</time></trkpt><trkpt lat="39.5323604" lon="16.4285718"><ele>1002.0</ele><time>2026-05-03T10:16:04.61Z</time></trkpt><trkpt lat="39.5324354" lon="16.4287549"><ele>1002.0</ele><time>2026-05-03T10:16:05.609Z</time></trkpt><trkpt lat="39.5325061" lon="16.4289407"><ele>1000.25</ele><time>2026-05-03T10:16:06.619Z</time></trkpt><trkpt lat="39.532571" lon="16.4291242"><ele>998.5</ele><time>2026-05-03T10:16:07.613Z</time></trkpt><trkpt lat="39.5326364" lon="16.4292962"><ele>996.75</ele><time>2026-05-03T10:16:08.617Z</time></trkpt><trkpt lat="39.5327051" lon="16.4294614"><ele>995.0</ele><time>2026-05-03T10:16:09.625Z</time></trkpt><trkpt lat="39.5327651" lon="16.429618"><ele>992.8</ele><time>2026-05-03T10:16:10.623Z</time></trkpt><trkpt lat="39.5328216" lon="16.4297681"><ele>990.6</ele><time>2026-05-03T10:16:11.605Z</time></trkpt><trkpt lat="39.5328711" lon="16.4299078"><ele>988.4000000000001</ele><time>2026-05-03T10:16:12.606Z</time></trkpt><trkpt lat="39.532908" lon="16.4300293"><ele>986.2</ele><time>2026-05-03T10:16:13.591Z</time></trkpt><trkpt lat="39.5329344" lon="16.4301518"><ele>984.0</ele><time>2026-05-03T10:16:14.616Z</time></trkpt><trkpt lat="39.5329448" lon="16.4302867"><ele>984.0</ele><time>2026-05-03T10:16:15.605Z</time></trkpt><trkpt lat="39.5329356" lon="16.4304352"><ele>984.0</ele><time>2026-05-03T10:16:16.616Z</time></trkpt><trkpt lat="39.5329063" lon="16.4305923"><ele>984.0</ele><time>2026-05-03T10:16:17.622Z</time></trkpt><trkpt lat="39.5328717" lon="16.4307549"><ele>984.0</ele><time>2026-05-03T10:16:18.61Z</time></trkpt><trkpt lat="39.5328364" lon="16.4309305"><ele>982.5</ele><time>2026-05-03T10:16:19.606Z</time></trkpt><trkpt lat="39.5328068" lon="16.4311112"><ele>981.0</ele><time>2026-05-03T10:16:20.59Z</time></trkpt><trkpt lat="39.5327721" lon="16.431288"><ele>979.5</ele><time>2026-05-03T10:16:21.594Z</time></trkpt><trkpt lat="39.5327418" lon="16.4314529"><ele>978.0</ele><time>2026-05-03T10:16:22.61Z</time></trkpt><trkpt lat="39.5327074" lon="16.4316072"><ele>978.0</ele><time>2026-05-03T10:16:23.615Z</time></trkpt><trkpt lat="39.5326522" lon="16.4317517"><ele>978.0</ele><time>2026-05-03T10:16:24.617Z</time></trkpt><trkpt lat="39.5325856" lon="16.4318896"><ele>978.0</ele><time>2026-05-03T10:16:25.601Z</time></trkpt><trkpt lat="39.5325123" lon="16.4320194"><ele>978.0</ele><time>2026-05-03T10:16:26.64Z</time></trkpt><trkpt lat="39.5324582" lon="16.4321668"><ele>978.75</ele><time>2026-05-03T10:16:27.614Z</time></trkpt><trkpt lat="39.5324227" lon="16.4323269"><ele>979.5</ele><time>2026-05-03T10:16:28.633Z</time></trkpt><trkpt lat="39.532392" lon="16.4324722"><ele>980.25</ele><time>2026-05-03T10:16:29.609Z</time></trkpt><trkpt lat="39.5323601" lon="16.4326081"><ele>981.0</ele><time>2026-05-03T10:16:30.623Z</time></trkpt><trkpt lat="39.5323178" lon="16.4327308"><ele>981.0</ele><time>2026-05-03T10:16:31.613Z</time></trkpt><trkpt lat="39.53226" lon="16.4328305"><ele>980.9999999999999</ele><time>2026-05-03T10:16:32.612Z</time></trkpt><trkpt lat="39.5321933" lon="16.432927"><ele>980.9999999999999</ele><time>2026-05-03T10:16:33.601Z</time></trkpt><trkpt lat="39.5321107" lon="16.4330174"><ele>981.0</ele><time>2026-05-03T10:16:34.615Z</time></trkpt><trkpt lat="39.5320239" lon="16.4331062"><ele>981.0</ele><time>2026-05-03T10:16:35.622Z</time></trkpt><trkpt lat="39.5319451" lon="16.4331923"><ele>980.1666666666666</ele><time>2026-05-03T10:16:36.607Z</time></trkpt><trkpt lat="39.531883" lon="16.433261"><ele>979.3333333333333</ele><time>2026-05-03T10:16:37.601Z</time></trkpt><trkpt lat="39.5318352" lon="16.4333284"><ele>978.5</ele><time>2026-05-03T10:16:38.617Z</time></trkpt><trkpt lat="39.5317998" lon="16.4333975"><ele>977.6666666666666</ele><time>2026-05-03T10:16:39.602Z</time></trkpt><trkpt lat="39.5317743" lon="16.4334732"><ele>976.8333333333333</ele><time>2026-05-03T10:16:40.619Z</time></trkpt><trkpt lat="39.5317518" lon="16.4335682"><ele>976.0</ele><time>2026-05-03T10:16:41.617Z</time></trkpt><trkpt lat="39.5317318" lon="16.4336897"><ele>976.5</ele><time>2026-05-03T10:16:42.616Z</time></trkpt><trkpt lat="39.5317139" lon="16.4338245"><ele>977.0</ele><time>2026-05-03T10:16:43.608Z</time></trkpt><trkpt lat="39.5317022" lon="16.4339725"><ele>977.5</ele><time>2026-05-03T10:16:44.605Z</time></trkpt><trkpt lat="39.5316988" lon="16.4341351"><ele>978.0</ele><time>2026-05-03T10:16:45.597Z</time></trkpt><trkpt lat="39.5316912" lon="16.4342941"><ele>978.0</ele><time>2026-05-03T10:16:46.606Z</time></trkpt><trkpt lat="39.5316766" lon="16.4344237"><ele>978.0</ele><time>2026-05-03T10:16:47.601Z</time></trkpt><trkpt lat="39.5316677" lon="16.4345274"><ele>978.0</ele><time>2026-05-03T10:16:48.606Z</time></trkpt><trkpt lat="39.5316541" lon="16.4346208"><ele>978.0</ele><time>2026-05-03T10:16:49.596Z</time></trkpt><trkpt lat="39.5316274" lon="16.4347048"><ele>978.0</ele><time>2026-05-03T10:16:50.62Z</time></trkpt><trkpt lat="39.5315836" lon="16.434777"><ele>978.0</ele><time>2026-05-03T10:16:51.597Z</time></trkpt><trkpt lat="39.5315282" lon="16.4348443"><ele>979.4</ele><time>2026-05-03T10:16:52.596Z</time></trkpt><trkpt lat="39.5314592" lon="16.43491"><ele>980.8</ele><time>2026-05-03T10:16:53.598Z</time></trkpt><trkpt lat="39.5313786" lon="16.4349936"><ele>982.2</ele><time>2026-05-03T10:16:54.617Z</time></trkpt><trkpt lat="39.5312847" lon="16.4350783"><ele>983.6</ele><time>2026-05-03T10:16:55.606Z</time></trkpt><trkpt lat="39.5311837" lon="16.4351764"><ele>985.0</ele><time>2026-05-03T10:16:56.616Z</time></trkpt><trkpt lat="39.5310799" lon="16.4352854"><ele>985.0</ele><time>2026-05-03T10:16:57.603Z</time></trkpt><trkpt lat="39.5309716" lon="16.4354203"><ele>985.0</ele><time>2026-05-03T10:16:58.601Z</time></trkpt><trkpt lat="39.5308615" lon="16.4355654"><ele>985.0</ele><time>2026-05-03T10:16:59.601Z</time></trkpt><trkpt lat="39.530749" lon="16.4357037"><ele>990.5</ele><time>2026-05-03T10:17:00.616Z</time></trkpt><trkpt lat="39.5306467" lon="16.4358219"><ele>996.0</ele><time>2026-05-03T10:17:01.616Z</time></trkpt><trkpt lat="39.5305706" lon="16.4359365"><ele>1001.5</ele><time>2026-05-03T10:17:02.604Z</time></trkpt><trkpt lat="39.5305085" lon="16.4360648"><ele>1007.0</ele><time>2026-05-03T10:17:03.594Z</time></trkpt><trkpt lat="39.5304494" lon="16.4362087"><ele>1007.0</ele><time>2026-05-03T10:17:04.607Z</time></trkpt><trkpt lat="39.5303988" lon="16.4363483"><ele>1007.0</ele><time>2026-05-03T10:17:05.596Z</time></trkpt><trkpt lat="39.5303691" lon="16.436491"><ele>1007.0</ele><time>2026-05-03T10:17:06.598Z</time></trkpt><trkpt lat="39.5303621" lon="16.4366414"><ele>1007.0</ele><time>2026-05-03T10:17:07.603Z</time></trkpt><trkpt lat="39.5303759" lon="16.4367975"><ele>1007.0</ele><time>2026-05-03T10:17:08.602Z</time></trkpt><trkpt lat="39.530389" lon="16.4369615"><ele>1007.0</ele><time>2026-05-03T10:17:09.6Z</time></trkpt><trkpt lat="39.5303942" lon="16.4371231"><ele>1007.0</ele><time>2026-05-03T10:17:10.604Z</time></trkpt><trkpt lat="39.5303865" lon="16.4372827"><ele>1007.0</ele><time>2026-05-03T10:17:11.605Z</time></trkpt><trkpt lat="39.5303635" lon="16.4374212"><ele>1010.0000000000001</ele><time>2026-05-03T10:17:12.591Z</time></trkpt><trkpt lat="39.5303215" lon="16.4375156"><ele>1013.0</ele><time>2026-05-03T10:17:13.599Z</time></trkpt><trkpt lat="39.5302694" lon="16.4375867"><ele>1016.0</ele><time>2026-05-03T10:17:14.599Z</time></trkpt><trkpt lat="39.5302155" lon="16.4376465"><ele>1019.0</ele><time>2026-05-03T10:17:15.607Z</time></trkpt><trkpt lat="39.5301639" lon="16.4377092"><ele>1022.0000000000001</ele><time>2026-05-03T10:17:16.611Z</time></trkpt><trkpt lat="39.5301202" lon="16.4377824"><ele>1025.0</ele><time>2026-05-03T10:17:17.596Z</time></trkpt><trkpt lat="39.5301126" lon="16.4379258"><ele>1027.6666666666667</ele><time>2026-05-03T10:17:19.603Z</time></trkpt><trkpt lat="39.5301592" lon="16.4380077"><ele>1030.3333333333335</ele><time>2026-05-03T10:17:20.59Z</time></trkpt><trkpt lat="39.5302159" lon="16.4380908"><ele>1033.0</ele><time>2026-05-03T10:17:21.585Z</time></trkpt><trkpt lat="39.5302751" lon="16.4381619"><ele>1035.6666666666667</ele><time>2026-05-03T10:17:22.602Z</time></trkpt><trkpt lat="39.5303322" lon="16.4382326"><ele>1038.3333333333333</ele><time>2026-05-03T10:17:23.598Z</time></trkpt><trkpt lat="39.530378" lon="16.4383132"><ele>1041.0</ele><time>2026-05-03T10:17:24.601Z</time></trkpt><trkpt lat="39.5303973" lon="16.4384147"><ele>1041.0</ele><time>2026-05-03T10:17:25.611Z</time></trkpt><trkpt lat="39.5303937" lon="16.438528"><ele>1041.0</ele><time>2026-05-03T10:17:26.616Z</time></trkpt><trkpt lat="39.5303684" lon="16.4386305"><ele>1041.0</ele><time>2026-05-03T10:17:27.608Z</time></trkpt><trkpt lat="39.5303221" lon="16.4387166"><ele>1041.0</ele><time>2026-05-03T10:17:28.602Z</time></trkpt><trkpt lat="39.5302618" lon="16.4387799"><ele>1041.0</ele><time>2026-05-03T10:17:29.603Z</time></trkpt><trkpt lat="39.5301904" lon="16.4388133"><ele>1041.0</ele><time>2026-05-03T10:17:30.608Z</time></trkpt><trkpt lat="39.5300989" lon="16.4388135"><ele>1041.3999999999999</ele><time>2026-05-03T10:17:31.612Z</time></trkpt><trkpt lat="39.5299986" lon="16.4387882"><ele>1041.8</ele><time>2026-05-03T10:17:32.59Z</time></trkpt><trkpt lat="39.529907" lon="16.4387644"><ele>1042.1999999999998</ele><time>2026-05-03T10:17:33.601Z</time></trkpt><trkpt lat="39.5298187" lon="16.4387387"><ele>1042.6</ele><time>2026-05-03T10:17:34.604Z</time></trkpt><trkpt lat="39.5297272" lon="16.4387167"><ele>1043.0</ele><time>2026-05-03T10:17:35.61Z</time></trkpt><trkpt lat="39.5296197" lon="16.4387169"><ele>1043.6</ele><time>2026-05-03T10:17:36.612Z</time></trkpt><trkpt lat="39.529514" lon="16.4387286"><ele>1044.1999999999998</ele><time>2026-05-03T10:17:37.603Z</time></trkpt><trkpt lat="39.5294169" lon="16.4387406"><ele>1044.8</ele><time>2026-05-03T10:17:38.6Z</time></trkpt><trkpt lat="39.5293198" lon="16.4387597"><ele>1045.3999999999999</ele><time>2026-05-03T10:17:39.616Z</time></trkpt><trkpt lat="39.5292222" lon="16.4387892"><ele>1046.0</ele><time>2026-05-03T10:17:40.605Z</time></trkpt><trkpt lat="39.5291197" lon="16.4388211"><ele>1046.0</ele><time>2026-05-03T10:17:41.614Z</time></trkpt><trkpt lat="39.5290108" lon="16.4388526"><ele>1046.0</ele><time>2026-05-03T10:17:42.613Z</time></trkpt><trkpt lat="39.528898" lon="16.4388881"><ele>1046.0</ele><time>2026-05-03T10:17:43.612Z</time></trkpt><trkpt lat="39.5287829" lon="16.4389133"><ele>1046.0</ele><time>2026-05-03T10:17:44.605Z</time></trkpt><trkpt lat="39.5286775" lon="16.438933"><ele>1045.0</ele><time>2026-05-03T10:17:45.619Z</time></trkpt><trkpt lat="39.5285897" lon="16.4389624"><ele>1044.0</ele><time>2026-05-03T10:17:46.616Z</time></trkpt><trkpt lat="39.5285088" lon="16.4390002"><ele>1043.0</ele><time>2026-05-03T10:17:47.621Z</time></trkpt><trkpt lat="39.5284298" lon="16.4390454"><ele>1042.0</ele><time>2026-05-03T10:17:48.614Z</time></trkpt><trkpt lat="39.528356" lon="16.4391022"><ele>1041.0</ele><time>2026-05-03T10:17:49.61Z</time></trkpt><trkpt lat="39.5282786" lon="16.4391828"><ele>1040.0</ele><time>2026-05-03T10:17:50.622Z</time></trkpt><trkpt lat="39.5281962" lon="16.4393002"><ele>1040.0</ele><time>2026-05-03T10:17:51.618Z</time></trkpt><trkpt lat="39.5281066" lon="16.439432"><ele>1040.0</ele><time>2026-05-03T10:17:52.621Z</time></trkpt><trkpt lat="39.5280189" lon="16.4395642"><ele>1040.0</ele><time>2026-05-03T10:17:53.616Z</time></trkpt><trkpt lat="39.5279324" lon="16.4396883"><ele>1040.0</ele><time>2026-05-03T10:17:54.621Z</time></trkpt><trkpt lat="39.5278541" lon="16.4398083"><ele>1037.5</ele><time>2026-05-03T10:17:55.611Z</time></trkpt><trkpt lat="39.5277781" lon="16.4399256"><ele>1035.0</ele><time>2026-05-03T10:17:56.617Z</time></trkpt><trkpt lat="39.5276953" lon="16.440049"><ele>1032.5</ele><time>2026-05-03T10:17:57.61Z</time></trkpt><trkpt lat="39.5276172" lon="16.4401805"><ele>1030.0</ele><time>2026-05-03T10:17:58.616Z</time></trkpt><trkpt lat="39.5275438" lon="16.4403114"><ele>1030.0</ele><time>2026-05-03T10:17:59.61Z</time></trkpt><trkpt lat="39.5274564" lon="16.4404263"><ele>1030.0</ele><time>2026-05-03T10:18:00.62Z</time></trkpt><trkpt lat="39.5273709" lon="16.4405211"><ele>1030.0</ele><time>2026-05-03T10:18:01.615Z</time></trkpt><trkpt lat="39.5272891" lon="16.440605"><ele>1030.0</ele><time>2026-05-03T10:18:02.609Z</time></trkpt><trkpt lat="39.5272052" lon="16.4406724"><ele>1030.0</ele><time>2026-05-03T10:18:03.601Z</time></trkpt><trkpt lat="39.5271164" lon="16.4407326"><ele>1027.75</ele><time>2026-05-03T10:18:04.612Z</time></trkpt><trkpt lat="39.5270201" lon="16.4407817"><ele>1025.5</ele><time>2026-05-03T10:18:05.607Z</time></trkpt><trkpt lat="39.5269165" lon="16.4408184"><ele>1023.25</ele><time>2026-05-03T10:18:06.626Z</time></trkpt><trkpt lat="39.5267997" lon="16.4408411"><ele>1021.0</ele><time>2026-05-03T10:18:07.603Z</time></trkpt><trkpt lat="39.5266702" lon="16.4408639"><ele>1021.0</ele><time>2026-05-03T10:18:08.618Z</time></trkpt><trkpt lat="39.5265345" lon="16.4408923"><ele>1021.0</ele><time>2026-05-03T10:18:09.612Z</time></trkpt><trkpt lat="39.5263987" lon="16.4409367"><ele>1021.0</ele><time>2026-05-03T10:18:10.599Z</time></trkpt><trkpt lat="39.526262" lon="16.44099"><ele>1021.0</ele><time>2026-05-03T10:18:11.607Z</time></trkpt><trkpt lat="39.5261316" lon="16.4410436"><ele>1020.0</ele><time>2026-05-03T10:18:12.6Z</time></trkpt><trkpt lat="39.526011" lon="16.4410954"><ele>1019.0</ele><time>2026-05-03T10:18:13.585Z</time></trkpt><trkpt lat="39.5258962" lon="16.4411556"><ele>1018.0</ele><time>2026-05-03T10:18:14.608Z</time></trkpt><trkpt lat="39.5257871" lon="16.4412122"><ele>1017.0</ele><time>2026-05-03T10:18:15.602Z</time></trkpt><trkpt lat="39.5256816" lon="16.4412588"><ele>1017.0</ele><time>2026-05-03T10:18:16.609Z</time></trkpt><trkpt lat="39.5255684" lon="16.4412896"><ele>1017.0</ele><time>2026-05-03T10:18:17.606Z</time></trkpt><trkpt lat="39.5254472" lon="16.4413012"><ele>1017.0</ele><time>2026-05-03T10:18:18.617Z</time></trkpt><trkpt lat="39.5253257" lon="16.4412924"><ele>1017.0</ele><time>2026-05-03T10:18:19.598Z</time></trkpt><trkpt lat="39.5252066" lon="16.4412849"><ele>1015.0</ele><time>2026-05-03T10:18:20.611Z</time></trkpt><trkpt lat="39.5250927" lon="16.44128"><ele>1013.0</ele><time>2026-05-03T10:18:21.613Z</time></trkpt><trkpt lat="39.524982" lon="16.4412843"><ele>1011.0</ele><time>2026-05-03T10:18:22.619Z</time></trkpt><trkpt lat="39.5248773" lon="16.4413102"><ele>1009.0</ele><time>2026-05-03T10:18:23.609Z</time></trkpt><trkpt lat="39.524766" lon="16.4413576"><ele>1007.0</ele><time>2026-05-03T10:18:24.614Z</time></trkpt><trkpt lat="39.5246538" lon="16.4414077"><ele>1004.0</ele><time>2026-05-03T10:18:25.611Z</time></trkpt><trkpt lat="39.5245495" lon="16.4414456"><ele>1001.0</ele><time>2026-05-03T10:18:26.623Z</time></trkpt><trkpt lat="39.5244295" lon="16.4414733"><ele>998.0</ele><time>2026-05-03T10:18:27.614Z</time></trkpt><trkpt lat="39.5243008" lon="16.4414886"><ele>995.0</ele><time>2026-05-03T10:18:28.6Z</time></trkpt><trkpt lat="39.524176" lon="16.4415039"><ele>995.0</ele><time>2026-05-03T10:18:29.619Z</time></trkpt><trkpt lat="39.5240575" lon="16.4415196"><ele>995.0</ele><time>2026-05-03T10:18:30.626Z</time></trkpt><trkpt lat="39.5239467" lon="16.4415362"><ele>995.0</ele><time>2026-05-03T10:18:31.609Z</time></trkpt><trkpt lat="39.5238434" lon="16.4415502"><ele>995.0</ele><time>2026-05-03T10:18:32.612Z</time></trkpt><trkpt lat="39.5237447" lon="16.4415499"><ele>995.0</ele><time>2026-05-03T10:18:33.612Z</time></trkpt><trkpt lat="39.5236542" lon="16.4415311"><ele>993.0</ele><time>2026-05-03T10:18:34.612Z</time></trkpt><trkpt lat="39.5235708" lon="16.4415064"><ele>991.0</ele><time>2026-05-03T10:18:35.611Z</time></trkpt><trkpt lat="39.5234992" lon="16.4414913"><ele>989.0</ele><time>2026-05-03T10:18:36.62Z</time></trkpt><trkpt lat="39.5233832" lon="16.4414908"><ele>987.0</ele><time>2026-05-03T10:18:38.622Z</time></trkpt><trkpt lat="39.5232902" lon="16.4415601"><ele>985.0</ele><time>2026-05-03T10:18:40.603Z</time></trkpt><trkpt lat="39.5232248" lon="16.4417228"><ele>984.9999999999999</ele><time>2026-05-03T10:18:42.608Z</time></trkpt><trkpt lat="39.5231869" lon="16.4418319"><ele>985.0</ele><time>2026-05-03T10:18:43.61Z</time></trkpt><trkpt lat="39.5231451" lon="16.4419481"><ele>985.0</ele><time>2026-05-03T10:18:44.599Z</time></trkpt><trkpt lat="39.5231086" lon="16.4420495"><ele>985.0</ele><time>2026-05-03T10:18:45.596Z</time></trkpt><trkpt lat="39.5230749" lon="16.4421405"><ele>984.9999999999999</ele><time>2026-05-03T10:18:46.606Z</time></trkpt><trkpt lat="39.5230379" lon="16.4422444"><ele>985.0</ele><time>2026-05-03T10:18:47.607Z</time></trkpt><trkpt lat="39.5230042" lon="16.4423665"><ele>985.0</ele><time>2026-05-03T10:18:48.607Z</time></trkpt><trkpt lat="39.5229759" lon="16.4424876"><ele>985.0</ele><time>2026-05-03T10:18:49.611Z</time></trkpt><trkpt lat="39.5229693" lon="16.4426186"><ele>985.0</ele><time>2026-05-03T10:18:50.602Z</time></trkpt><trkpt lat="39.5229868" lon="16.4427585"><ele>985.0</ele><time>2026-05-03T10:18:51.62Z</time></trkpt><trkpt lat="39.5230174" lon="16.4429181"><ele>985.0</ele><time>2026-05-03T10:18:52.617Z</time></trkpt><trkpt lat="39.5230527" lon="16.4430944"><ele>985.0</ele><time>2026-05-03T10:18:53.619Z</time></trkpt><trkpt lat="39.5230867" lon="16.4432788"><ele>985.0</ele><time>2026-05-03T10:18:54.611Z</time></trkpt><trkpt lat="39.5231107" lon="16.4434398"><ele>985.0</ele><time>2026-05-03T10:18:55.604Z</time></trkpt><trkpt lat="39.5231227" lon="16.4435763"><ele>985.0</ele><time>2026-05-03T10:18:56.617Z</time></trkpt><trkpt lat="39.5231239" lon="16.4436989"><ele>983.6666666666666</ele><time>2026-05-03T10:18:57.608Z</time></trkpt><trkpt lat="39.5231101" lon="16.4438071"><ele>982.3333333333333</ele><time>2026-05-03T10:18:58.612Z</time></trkpt><trkpt lat="39.5230774" lon="16.4438881"><ele>981.0</ele><time>2026-05-03T10:18:59.604Z</time></trkpt><trkpt lat="39.5230198" lon="16.4439468"><ele>979.6666666666667</ele><time>2026-05-03T10:19:00.623Z</time></trkpt><trkpt lat="39.522938" lon="16.4439983"><ele>978.3333333333334</ele><time>2026-05-03T10:19:01.603Z</time></trkpt><trkpt lat="39.522834" lon="16.4440444"><ele>977.0</ele><time>2026-05-03T10:19:02.615Z</time></trkpt><trkpt lat="39.5227249" lon="16.4440927"><ele>976.6</ele><time>2026-05-03T10:19:03.62Z</time></trkpt><trkpt lat="39.522611" lon="16.4441492"><ele>976.2</ele><time>2026-05-03T10:19:04.616Z</time></trkpt><trkpt lat="39.5225043" lon="16.4442002"><ele>975.8</ele><time>2026-05-03T10:19:05.607Z</time></trkpt><trkpt lat="39.5224105" lon="16.4442416"><ele>975.4</ele><time>2026-05-03T10:19:06.611Z</time></trkpt><trkpt lat="39.5223276" lon="16.4442693"><ele>975.0</ele><time>2026-05-03T10:19:07.62Z</time></trkpt><trkpt lat="39.5222419" lon="16.4442676"><ele>975.0</ele><time>2026-05-03T10:19:08.621Z</time></trkpt><trkpt lat="39.5221726" lon="16.4442286"><ele>975.0</ele><time>2026-05-03T10:19:09.6Z</time></trkpt><trkpt lat="39.5221138" lon="16.4441546"><ele>975.0</ele><time>2026-05-03T10:19:10.617Z</time></trkpt><trkpt lat="39.522069" lon="16.4440689"><ele>975.0</ele><time>2026-05-03T10:19:11.622Z</time></trkpt><trkpt lat="39.5220498" lon="16.4439739"><ele>975.0</ele><time>2026-05-03T10:19:12.582Z</time></trkpt><trkpt lat="39.5220504" lon="16.443859"><ele>975.0</ele><time>2026-05-03T10:19:13.606Z</time></trkpt><trkpt lat="39.5220568" lon="16.4437301"><ele>972.2</ele><time>2026-05-03T10:19:14.604Z</time></trkpt><trkpt lat="39.5220364" lon="16.4435954"><ele>969.4</ele><time>2026-05-03T10:19:15.587Z</time></trkpt><trkpt lat="39.5219878" lon="16.4434529"><ele>966.5999999999999</ele><time>2026-05-03T10:19:16.613Z</time></trkpt><trkpt lat="39.5219224" lon="16.4433291"><ele>963.8</ele><time>2026-05-03T10:19:17.61Z</time></trkpt><trkpt lat="39.5218577" lon="16.4432345"><ele>961.0</ele><time>2026-05-03T10:19:18.622Z</time></trkpt><trkpt lat="39.5218074" lon="16.4431488"><ele>960.9999999999999</ele><time>2026-05-03T10:19:19.618Z</time></trkpt><trkpt lat="39.5217738" lon="16.443063"><ele>961.0</ele><time>2026-05-03T10:19:20.616Z</time></trkpt><trkpt lat="39.5217628" lon="16.4429813"><ele>961.0</ele><time>2026-05-03T10:19:21.619Z</time></trkpt><trkpt lat="39.5217653" lon="16.4428951"><ele>961.0</ele><time>2026-05-03T10:19:22.604Z</time></trkpt><trkpt lat="39.5217875" lon="16.4427949"><ele>960.9999999999999</ele><time>2026-05-03T10:19:23.613Z</time></trkpt><trkpt lat="39.5218336" lon="16.4426949"><ele>961.0</ele><time>2026-05-03T10:19:24.608Z</time></trkpt><trkpt lat="39.5218775" lon="16.4425871"><ele>961.1999999999999</ele><time>2026-05-03T10:19:25.611Z</time></trkpt><trkpt lat="39.5219234" lon="16.4424969"><ele>961.3999999999999</ele><time>2026-05-03T10:19:26.623Z</time></trkpt><trkpt lat="39.5219232" lon="16.4423676"><ele>961.6</ele><time>2026-05-03T10:19:27.603Z</time></trkpt><trkpt lat="39.5219105" lon="16.442259"><ele>961.8</ele><time>2026-05-03T10:19:28.608Z</time></trkpt><trkpt lat="39.521897" lon="16.4421024"><ele>962.0</ele><time>2026-05-03T10:19:30.621Z</time></trkpt><trkpt lat="39.521927" lon="16.441963"><ele>962.0000000000001</ele><time>2026-05-03T10:19:32.61Z</time></trkpt><trkpt lat="39.5219716" lon="16.4418698"><ele>962.0</ele><time>2026-05-03T10:19:34.613Z</time></trkpt><trkpt lat="39.5220241" lon="16.4417574"><ele>962.0</ele><time>2026-05-03T10:19:36.613Z</time></trkpt><trkpt lat="39.5220555" lon="16.4416441"><ele>962.0</ele><time>2026-05-03T10:19:38.621Z</time></trkpt><trkpt lat="39.5220478" lon="16.4415496"><ele>962.0000000000001</ele><time>2026-05-03T10:19:40.615Z</time></trkpt><trkpt lat="39.5219878" lon="16.4414574"><ele>962.0</ele><time>2026-05-03T10:19:43.591Z</time></trkpt><trkpt lat="39.5219246" lon="16.4414246"><ele>962.0000000000001</ele><time>2026-05-03T10:19:45.594Z</time></trkpt><trkpt lat="39.5218519" lon="16.4414177"><ele>962.0</ele><time>2026-05-03T10:19:47.585Z</time></trkpt><trkpt lat="39.5217211" lon="16.4414511"><ele>962.0</ele><time>2026-05-03T10:19:49.603Z</time></trkpt><trkpt lat="39.5216477" lon="16.4414629"><ele>962.0</ele><time>2026-05-03T10:19:50.611Z</time></trkpt><trkpt lat="39.5215684" lon="16.4414697"><ele>962.0000000000001</ele><time>2026-05-03T10:19:51.615Z</time></trkpt><trkpt lat="39.5214845" lon="16.4414828"><ele>962.0</ele><time>2026-05-03T10:19:52.599Z</time></trkpt><trkpt lat="39.5213942" lon="16.441501"><ele>962.0000000000001</ele><time>2026-05-03T10:19:53.609Z</time></trkpt><trkpt lat="39.5213037" lon="16.44152"><ele>962.0</ele><time>2026-05-03T10:19:54.606Z</time></trkpt><trkpt lat="39.5212167" lon="16.4415334"><ele>962.0</ele><time>2026-05-03T10:19:55.605Z</time></trkpt><trkpt lat="39.521136" lon="16.4415396"><ele>962.0</ele><time>2026-05-03T10:19:56.609Z</time></trkpt><trkpt lat="39.5210687" lon="16.4415374"><ele>962.0000000000001</ele><time>2026-05-03T10:19:57.603Z</time></trkpt><trkpt lat="39.5210053" lon="16.4415406"><ele>962.0</ele><time>2026-05-03T10:19:58.611Z</time></trkpt><trkpt lat="39.5208913" lon="16.44153"><ele>961.2</ele><time>2026-05-03T10:20:00.602Z</time></trkpt><trkpt lat="39.5207713" lon="16.4414882"><ele>960.4000000000001</ele><time>2026-05-03T10:20:02.606Z</time></trkpt><trkpt lat="39.520705" lon="16.4414502"><ele>959.5999999999999</ele><time>2026-05-03T10:20:03.603Z</time></trkpt><trkpt lat="39.5206428" lon="16.4413872"><ele>958.8</ele><time>2026-05-03T10:20:04.658Z</time></trkpt><trkpt lat="39.5205751" lon="16.4413137"><ele>958.0</ele><time>2026-05-03T10:20:05.604Z</time></trkpt><trkpt lat="39.5205085" lon="16.4412321"><ele>957.8</ele><time>2026-05-03T10:20:06.616Z</time></trkpt><trkpt lat="39.5204476" lon="16.4411386"><ele>957.5999999999999</ele><time>2026-05-03T10:20:07.6Z</time></trkpt><trkpt lat="39.5203852" lon="16.4410394"><ele>957.4000000000001</ele><time>2026-05-03T10:20:08.597Z</time></trkpt><trkpt lat="39.5203196" lon="16.4409472"><ele>957.2</ele><time>2026-05-03T10:20:09.603Z</time></trkpt><trkpt lat="39.5202354" lon="16.4408602"><ele>957.0</ele><time>2026-05-03T10:20:10.596Z</time></trkpt><trkpt lat="39.5201478" lon="16.4407797"><ele>957.0</ele><time>2026-05-03T10:20:11.602Z</time></trkpt><trkpt lat="39.5200661" lon="16.4407037"><ele>957.0</ele><time>2026-05-03T10:20:12.607Z</time></trkpt><trkpt lat="39.519983" lon="16.4406545"><ele>957.0</ele><time>2026-05-03T10:20:13.601Z</time></trkpt><trkpt lat="39.5198908" lon="16.4406297"><ele>957.0</ele><time>2026-05-03T10:20:14.608Z</time></trkpt><trkpt lat="39.5197988" lon="16.4405814"><ele>957.0</ele><time>2026-05-03T10:20:15.62Z</time></trkpt><trkpt lat="39.5197121" lon="16.4405013"><ele>956.8333333333334</ele><time>2026-05-03T10:20:16.618Z</time></trkpt><trkpt lat="39.5196271" lon="16.4404209"><ele>956.6666666666667</ele><time>2026-05-03T10:20:17.599Z</time></trkpt><trkpt lat="39.5195437" lon="16.4403586"><ele>956.5</ele><time>2026-05-03T10:20:18.614Z</time></trkpt><trkpt lat="39.5194655" lon="16.4403272"><ele>956.3333333333334</ele><time>2026-05-03T10:20:19.605Z</time></trkpt><trkpt lat="39.5193948" lon="16.4403294"><ele>956.1666666666667</ele><time>2026-05-03T10:20:20.608Z</time></trkpt><trkpt lat="39.5193164" lon="16.4403532"><ele>956.0</ele><time>2026-05-03T10:20:21.606Z</time></trkpt><trkpt lat="39.5192406" lon="16.4403938"><ele>956.0000000000001</ele><time>2026-05-03T10:20:22.606Z</time></trkpt><trkpt lat="39.5191725" lon="16.4404189"><ele>956.0</ele><time>2026-05-03T10:20:23.603Z</time></trkpt><trkpt lat="39.5191055" lon="16.4404214"><ele>956.0000000000001</ele><time>2026-05-03T10:20:24.606Z</time></trkpt><trkpt lat="39.5190428" lon="16.4404044"><ele>956.0000000000001</ele><time>2026-05-03T10:20:25.597Z</time></trkpt><trkpt lat="39.5189731" lon="16.4403763"><ele>956.0</ele><time>2026-05-03T10:20:26.606Z</time></trkpt><trkpt lat="39.5188981" lon="16.4403381"><ele>956.0000000000001</ele><time>2026-05-03T10:20:27.606Z</time></trkpt><trkpt lat="39.5188157" lon="16.4402905"><ele>956.0000000000001</ele><time>2026-05-03T10:20:28.599Z</time></trkpt><trkpt lat="39.5187335" lon="16.4402117"><ele>954.1666666666667</ele><time>2026-05-03T10:20:29.62Z</time></trkpt><trkpt lat="39.5186584" lon="16.4401207"><ele>952.3333333333334</ele><time>2026-05-03T10:20:30.606Z</time></trkpt><trkpt lat="39.5185928" lon="16.4400379"><ele>950.5</ele><time>2026-05-03T10:20:31.619Z</time></trkpt><trkpt lat="39.5185301" lon="16.4399817"><ele>948.6666666666667</ele><time>2026-05-03T10:20:32.615Z</time></trkpt><trkpt lat="39.5184533" lon="16.4399575"><ele>946.8333333333334</ele><time>2026-05-03T10:20:33.6Z</time></trkpt><trkpt lat="39.518374" lon="16.4399782"><ele>945.0</ele><time>2026-05-03T10:20:34.609Z</time></trkpt><trkpt lat="39.5182944" lon="16.4400368"><ele>945.0</ele><time>2026-05-03T10:20:35.603Z</time></trkpt><trkpt lat="39.5182106" lon="16.4401045"><ele>945.0</ele><time>2026-05-03T10:20:36.599Z</time></trkpt><trkpt lat="39.5181141" lon="16.4401525"><ele>945.0</ele><time>2026-05-03T10:20:37.607Z</time></trkpt><trkpt lat="39.5180101" lon="16.4401742"><ele>945.0</ele><time>2026-05-03T10:20:38.611Z</time></trkpt><trkpt lat="39.5179031" lon="16.4401707"><ele>945.0</ele><time>2026-05-03T10:20:39.601Z</time></trkpt><trkpt lat="39.5177924" lon="16.4401562"><ele>942.6666666666666</ele><time>2026-05-03T10:20:40.601Z</time></trkpt><trkpt lat="39.5176927" lon="16.4401687"><ele>940.3333333333333</ele><time>2026-05-03T10:20:41.593Z</time></trkpt><trkpt lat="39.5176084" lon="16.4401951"><ele>938.0</ele><time>2026-05-03T10:20:42.608Z</time></trkpt><trkpt lat="39.5175317" lon="16.4402075"><ele>935.6666666666666</ele><time>2026-05-03T10:20:43.603Z</time></trkpt><trkpt lat="39.5174579" lon="16.4402056"><ele>933.3333333333333</ele><time>2026-05-03T10:20:44.598Z</time></trkpt><trkpt lat="39.5173898" lon="16.4401727"><ele>931.0</ele><time>2026-05-03T10:20:45.601Z</time></trkpt><trkpt lat="39.5173312" lon="16.4401053"><ele>930.9999999999999</ele><time>2026-05-03T10:20:46.6Z</time></trkpt><trkpt lat="39.5172644" lon="16.4400266"><ele>931.0</ele><time>2026-05-03T10:20:47.594Z</time></trkpt><trkpt lat="39.5172049" lon="16.4399707"><ele>931.0</ele><time>2026-05-03T10:20:48.593Z</time></trkpt><trkpt lat="39.5170857" lon="16.4399554"><ele>931.0</ele><time>2026-05-03T10:20:50.615Z</time></trkpt><trkpt lat="39.5170299" lon="16.4399977"><ele>930.9999999999999</ele><time>2026-05-03T10:20:51.598Z</time></trkpt><trkpt lat="39.5169702" lon="16.4400457"><ele>931.0</ele><time>2026-05-03T10:20:52.613Z</time></trkpt><trkpt lat="39.516895" lon="16.4401104"><ele>928.75</ele><time>2026-05-03T10:20:53.61Z</time></trkpt><trkpt lat="39.5168026" lon="16.4401837"><ele>926.5</ele><time>2026-05-03T10:20:54.618Z</time></trkpt><trkpt lat="39.5167009" lon="16.4402621"><ele>924.25</ele><time>2026-05-03T10:20:55.609Z</time></trkpt><trkpt lat="39.5165947" lon="16.4403381"><ele>922.0</ele><time>2026-05-03T10:20:56.603Z</time></trkpt><trkpt lat="39.5164832" lon="16.4404006"><ele>922.0</ele><time>2026-05-03T10:20:57.608Z</time></trkpt><trkpt lat="39.5163747" lon="16.440452"><ele>922.0</ele><time>2026-05-03T10:20:58.604Z</time></trkpt><trkpt lat="39.5162623" lon="16.4404912"><ele>922.0</ele><time>2026-05-03T10:20:59.62Z</time></trkpt><trkpt lat="39.5161541" lon="16.4405119"><ele>922.0</ele><time>2026-05-03T10:21:00.603Z</time></trkpt><trkpt lat="39.5160513" lon="16.4405248"><ele>922.0</ele><time>2026-05-03T10:21:01.607Z</time></trkpt><trkpt lat="39.5159419" lon="16.4405227"><ele>919.75</ele><time>2026-05-03T10:21:02.604Z</time></trkpt><trkpt lat="39.5158203" lon="16.4405059"><ele>917.5</ele><time>2026-05-03T10:21:03.605Z</time></trkpt><trkpt lat="39.5157051" lon="16.4404814"><ele>915.25</ele><time>2026-05-03T10:21:04.624Z</time></trkpt><trkpt lat="39.5155968" lon="16.4404536"><ele>913.0</ele><time>2026-05-03T10:21:05.602Z</time></trkpt><trkpt lat="39.515491" lon="16.4404275"><ele>911.5</ele><time>2026-05-03T10:21:06.621Z</time></trkpt><trkpt lat="39.5153889" lon="16.4404236"><ele>910.0</ele><time>2026-05-03T10:21:07.595Z</time></trkpt><trkpt lat="39.5152851" lon="16.4404457"><ele>908.5</ele><time>2026-05-03T10:21:08.607Z</time></trkpt><trkpt lat="39.5151611" lon="16.4404731"><ele>907.0</ele><time>2026-05-03T10:21:09.6Z</time></trkpt><trkpt lat="39.5150231" lon="16.4405074"><ele>907.0</ele><time>2026-05-03T10:21:10.612Z</time></trkpt><trkpt lat="39.51489" lon="16.4405501"><ele>907.0</ele><time>2026-05-03T10:21:11.609Z</time></trkpt><trkpt lat="39.5147569" lon="16.4405886"><ele>907.0</ele><time>2026-05-03T10:21:12.626Z</time></trkpt><trkpt lat="39.5146271" lon="16.4406246"><ele>907.0</ele><time>2026-05-03T10:21:13.61Z</time></trkpt><trkpt lat="39.5145024" lon="16.4406619"><ele>904.25</ele><time>2026-05-03T10:21:14.597Z</time></trkpt><trkpt lat="39.5143793" lon="16.4406924"><ele>901.5</ele><time>2026-05-03T10:21:15.606Z</time></trkpt><trkpt lat="39.5142592" lon="16.4407154"><ele>898.75</ele><time>2026-05-03T10:21:16.616Z</time></trkpt><trkpt lat="39.5141348" lon="16.4407241"><ele>896.0</ele><time>2026-05-03T10:21:17.598Z</time></trkpt><trkpt lat="39.5140089" lon="16.4407186"><ele>896.0</ele><time>2026-05-03T10:21:18.611Z</time></trkpt><trkpt lat="39.5138864" lon="16.4407059"><ele>896.0</ele><time>2026-05-03T10:21:19.604Z</time></trkpt><trkpt lat="39.513757" lon="16.4406803"><ele>896.0</ele><time>2026-05-03T10:21:20.608Z</time></trkpt><trkpt lat="39.5136283" lon="16.4406541"><ele>896.0</ele><time>2026-05-03T10:21:21.593Z</time></trkpt><trkpt lat="39.5135027" lon="16.4406355"><ele>893.4</ele><time>2026-05-03T10:21:22.602Z</time></trkpt><trkpt lat="39.5133903" lon="16.4406214"><ele>890.8</ele><time>2026-05-03T10:21:23.612Z</time></trkpt><trkpt lat="39.5132886" lon="16.4406116"><ele>888.1999999999999</ele><time>2026-05-03T10:21:24.611Z</time></trkpt><trkpt lat="39.5131951" lon="16.4405903"><ele>885.5999999999999</ele><time>2026-05-03T10:21:25.613Z</time></trkpt><trkpt lat="39.5131069" lon="16.4405478"><ele>883.0</ele><time>2026-05-03T10:21:26.608Z</time></trkpt><trkpt lat="39.5130179" lon="16.4404755"><ele>882.5</ele><time>2026-05-03T10:21:27.581Z</time></trkpt><trkpt lat="39.5129434" lon="16.4403946"><ele>882.0</ele><time>2026-05-03T10:21:28.587Z</time></trkpt><trkpt lat="39.5128672" lon="16.4402899"><ele>881.5</ele><time>2026-05-03T10:21:29.61Z</time></trkpt><trkpt lat="39.5127896" lon="16.4401671"><ele>881.0</ele><time>2026-05-03T10:21:30.621Z</time></trkpt><trkpt lat="39.5127031" lon="16.4400423"><ele>879.0</ele><time>2026-05-03T10:21:31.605Z</time></trkpt><trkpt lat="39.5126063" lon="16.4399226"><ele>877.0</ele><time>2026-05-03T10:21:32.611Z</time></trkpt><trkpt lat="39.5125002" lon="16.4397903"><ele>875.0</ele><time>2026-05-03T10:21:33.623Z</time></trkpt><trkpt lat="39.5123873" lon="16.4396557"><ele>873.0</ele><time>2026-05-03T10:21:34.602Z</time></trkpt><trkpt lat="39.5122654" lon="16.4395159"><ele>872.0</ele><time>2026-05-03T10:21:35.608Z</time></trkpt><trkpt lat="39.5121418" lon="16.4393895"><ele>871.0</ele><time>2026-05-03T10:21:36.613Z</time></trkpt><trkpt lat="39.5120331" lon="16.4392811"><ele>870.0</ele><time>2026-05-03T10:21:37.605Z</time></trkpt><trkpt lat="39.5119336" lon="16.4391946"><ele>869.0</ele><time>2026-05-03T10:21:38.607Z</time></trkpt><trkpt lat="39.5118402" lon="16.4391258"><ele>868.75</ele><time>2026-05-03T10:21:39.606Z</time></trkpt><trkpt lat="39.511742" lon="16.4390798"><ele>868.5</ele><time>2026-05-03T10:21:40.613Z</time></trkpt><trkpt lat="39.5116254" lon="16.4390566"><ele>868.25</ele><time>2026-05-03T10:21:41.618Z</time></trkpt><trkpt lat="39.5114886" lon="16.4390602"><ele>868.0</ele><time>2026-05-03T10:21:42.613Z</time></trkpt><trkpt lat="39.5113496" lon="16.4390792"><ele>866.6666666666666</ele><time>2026-05-03T10:21:43.615Z</time></trkpt><trkpt lat="39.5112024" lon="16.4391042"><ele>865.3333333333333</ele><time>2026-05-03T10:21:44.608Z</time></trkpt><trkpt lat="39.5110527" lon="16.439142"><ele>864.0</ele><time>2026-05-03T10:21:45.609Z</time></trkpt><trkpt lat="39.5109035" lon="16.4391884"><ele>864.0</ele><time>2026-05-03T10:21:46.608Z</time></trkpt><trkpt lat="39.5107677" lon="16.4392376"><ele>864.0</ele><time>2026-05-03T10:21:47.602Z</time></trkpt><trkpt lat="39.510652" lon="16.4392758"><ele>864.0</ele><time>2026-05-03T10:21:48.617Z</time></trkpt><trkpt lat="39.5105516" lon="16.4393103"><ele>864.0</ele><time>2026-05-03T10:21:49.602Z</time></trkpt><trkpt lat="39.5104684" lon="16.4393383"><ele>863.3333333333334</ele><time>2026-05-03T10:21:50.621Z</time></trkpt><trkpt lat="39.5103977" lon="16.4393629"><ele>862.6666666666667</ele><time>2026-05-03T10:21:51.613Z</time></trkpt><trkpt lat="39.5103114" lon="16.4393956"><ele>862.0</ele><time>2026-05-03T10:21:53.614Z</time></trkpt><trkpt lat="39.5102349" lon="16.439387"><ele>861.3333333333334</ele><time>2026-05-03T10:21:56.606Z</time></trkpt><trkpt lat="39.5101708" lon="16.4394616"><ele>860.6666666666667</ele><time>2026-05-03T10:22:48.621Z</time></trkpt><trkpt lat="39.5100855" lon="16.4395218"><ele>860.0</ele><time>2026-05-03T10:22:50.6Z</time></trkpt><trkpt lat="39.510013" lon="16.4395735"><ele>859.1666666666667</ele><time>2026-05-03T10:22:51.61Z</time></trkpt><trkpt lat="39.5099309" lon="16.4396337"><ele>858.3333333333334</ele><time>2026-05-03T10:22:52.608Z</time></trkpt><trkpt lat="39.5098473" lon="16.4396976"><ele>857.5</ele><time>2026-05-03T10:22:53.609Z</time></trkpt><trkpt lat="39.5097708" lon="16.4397627"><ele>856.6666666666667</ele><time>2026-05-03T10:22:54.614Z</time></trkpt><trkpt lat="39.5097025" lon="16.4398153"><ele>855.8333333333334</ele><time>2026-05-03T10:22:55.616Z</time></trkpt><trkpt lat="39.5096414" lon="16.4398546"><ele>855.0</ele><time>2026-05-03T10:22:56.624Z</time></trkpt><trkpt lat="39.509545" lon="16.4399155"><ele>855.0</ele><time>2026-05-03T10:22:58.617Z</time></trkpt><trkpt lat="39.50946" lon="16.4399572"><ele>855.0</ele><time>2026-05-03T10:23:00.62Z</time></trkpt><trkpt lat="39.5093927" lon="16.4399931"><ele>855.0</ele><time>2026-05-03T10:23:02.613Z</time></trkpt><trkpt lat="39.5093118" lon="16.4399967"><ele>855.0</ele><time>2026-05-03T10:23:04.602Z</time></trkpt><trkpt lat="39.5092022" lon="16.4399625"><ele>855.0</ele><time>2026-05-03T10:23:06.61Z</time></trkpt><trkpt lat="39.5090885" lon="16.4399218"><ele>855.0</ele><time>2026-05-03T10:23:08.613Z</time></trkpt><trkpt lat="39.5090172" lon="16.4398957"><ele>855.0</ele><time>2026-05-03T10:23:09.601Z</time></trkpt><trkpt lat="39.5089327" lon="16.4398703"><ele>855.0</ele><time>2026-05-03T10:23:10.613Z</time></trkpt><trkpt lat="39.508838" lon="16.4398412"><ele>855.0</ele><time>2026-05-03T10:23:11.613Z</time></trkpt><trkpt lat="39.5087501" lon="16.439817"><ele>855.0</ele><time>2026-05-03T10:23:12.614Z</time></trkpt><trkpt lat="39.508673" lon="16.4398154"><ele>855.0</ele><time>2026-05-03T10:23:13.604Z</time></trkpt><trkpt lat="39.508609" lon="16.4398584"><ele>854.6</ele><time>2026-05-03T10:23:14.607Z</time></trkpt><trkpt lat="39.5085554" lon="16.4399397"><ele>854.2</ele><time>2026-05-03T10:23:15.608Z</time></trkpt><trkpt lat="39.5085242" lon="16.4400609"><ele>853.8</ele><time>2026-05-03T10:23:16.605Z</time></trkpt><trkpt lat="39.508522" lon="16.4401976"><ele>853.4</ele><time>2026-05-03T10:23:17.611Z</time></trkpt><trkpt lat="39.5085332" lon="16.4403428"><ele>853.0</ele><time>2026-05-03T10:23:18.604Z</time></trkpt><trkpt lat="39.5085426" lon="16.4404899"><ele>854.8</ele><time>2026-05-03T10:23:19.614Z</time></trkpt><trkpt lat="39.5085267" lon="16.4406239"><ele>856.5999999999999</ele><time>2026-05-03T10:23:20.599Z</time></trkpt><trkpt lat="39.5084767" lon="16.4407284"><ele>858.4000000000001</ele><time>2026-05-03T10:23:21.619Z</time></trkpt><trkpt lat="39.508408" lon="16.4407878"><ele>860.2</ele><time>2026-05-03T10:23:22.61Z</time></trkpt><trkpt lat="39.5083122" lon="16.4408316"><ele>862.0</ele><time>2026-05-03T10:23:23.602Z</time></trkpt><trkpt lat="39.5082037" lon="16.4408667"><ele>862.0</ele><time>2026-05-03T10:23:24.606Z</time></trkpt><trkpt lat="39.5080973" lon="16.4409001"><ele>862.0</ele><time>2026-05-03T10:23:25.608Z</time></trkpt><trkpt lat="39.5079903" lon="16.4409078"><ele>862.0</ele><time>2026-05-03T10:23:26.62Z</time></trkpt><trkpt lat="39.507892" lon="16.4408714"><ele>862.0</ele><time>2026-05-03T10:23:27.608Z</time></trkpt><trkpt lat="39.5078012" lon="16.4407903"><ele>862.0</ele><time>2026-05-03T10:23:28.612Z</time></trkpt><trkpt lat="39.5077112" lon="16.4406938"><ele>862.2</ele><time>2026-05-03T10:23:29.619Z</time></trkpt><trkpt lat="39.5076067" lon="16.4405911"><ele>862.4000000000001</ele><time>2026-05-03T10:23:30.601Z</time></trkpt><trkpt lat="39.5075044" lon="16.4404901"><ele>862.5999999999999</ele><time>2026-05-03T10:23:31.606Z</time></trkpt><trkpt lat="39.5074196" lon="16.4404143"><ele>862.8</ele><time>2026-05-03T10:23:32.613Z</time></trkpt><trkpt lat="39.5073404" lon="16.4403889"><ele>863.0</ele><time>2026-05-03T10:23:33.604Z</time></trkpt><trkpt lat="39.5072572" lon="16.4404127"><ele>864.8</ele><time>2026-05-03T10:23:34.626Z</time></trkpt><trkpt lat="39.5071811" lon="16.4404816"><ele>866.5999999999999</ele><time>2026-05-03T10:23:35.61Z</time></trkpt><trkpt lat="39.5071145" lon="16.4405823"><ele>868.4000000000001</ele><time>2026-05-03T10:23:36.607Z</time></trkpt><trkpt lat="39.5070388" lon="16.4406877"><ele>870.2</ele><time>2026-05-03T10:23:37.626Z</time></trkpt><trkpt lat="39.5069455" lon="16.4407827"><ele>872.0</ele><time>2026-05-03T10:23:38.618Z</time></trkpt><trkpt lat="39.5068418" lon="16.4408689"><ele>872.75</ele><time>2026-05-03T10:23:39.608Z</time></trkpt><trkpt lat="39.5067324" lon="16.4409623"><ele>873.5</ele><time>2026-05-03T10:23:40.615Z</time></trkpt><trkpt lat="39.5066163" lon="16.4410362"><ele>874.25</ele><time>2026-05-03T10:23:41.591Z</time></trkpt><trkpt lat="39.5064816" lon="16.4410819"><ele>875.0</ele><time>2026-05-03T10:23:42.611Z</time></trkpt><trkpt lat="39.5063414" lon="16.4411268"><ele>875.25</ele><time>2026-05-03T10:23:43.608Z</time></trkpt><trkpt lat="39.506197" lon="16.4411628"><ele>875.5</ele><time>2026-05-03T10:23:44.616Z</time></trkpt><trkpt lat="39.5060533" lon="16.4411975"><ele>875.75</ele><time>2026-05-03T10:23:45.604Z</time></trkpt><trkpt lat="39.5059161" lon="16.4412339"><ele>876.0</ele><time>2026-05-03T10:23:46.618Z</time></trkpt><trkpt lat="39.5057952" lon="16.4412522"><ele>876.0</ele><time>2026-05-03T10:23:47.608Z</time></trkpt><trkpt lat="39.5057113" lon="16.4412853"><ele>876.0</ele><time>2026-05-03T10:23:48.615Z</time></trkpt><trkpt lat="39.5056521" lon="16.4413456"><ele>876.0</ele><time>2026-05-03T10:23:49.614Z</time></trkpt><trkpt lat="39.5056191" lon="16.4414417"><ele>876.0</ele><time>2026-05-03T10:23:50.607Z</time></trkpt><trkpt lat="39.5056176" lon="16.4415448"><ele>876.0</ele><time>2026-05-03T10:23:51.605Z</time></trkpt><trkpt lat="39.5056496" lon="16.4416599"><ele>876.0</ele><time>2026-05-03T10:23:52.612Z</time></trkpt><trkpt lat="39.5057089" lon="16.4417671"><ele>877.6666666666666</ele><time>2026-05-03T10:23:53.615Z</time></trkpt><trkpt lat="39.5057742" lon="16.4418662"><ele>879.3333333333333</ele><time>2026-05-03T10:23:54.611Z</time></trkpt><trkpt lat="39.5058226" lon="16.4419538"><ele>881.0</ele><time>2026-05-03T10:23:55.608Z</time></trkpt><trkpt lat="39.5058433" lon="16.4420438"><ele>882.6666666666666</ele><time>2026-05-03T10:23:56.615Z</time></trkpt><trkpt lat="39.5058208" lon="16.4421247"><ele>884.3333333333333</ele><time>2026-05-03T10:23:57.608Z</time></trkpt><trkpt lat="39.5057632" lon="16.4421749"><ele>886.0</ele><time>2026-05-03T10:23:58.598Z</time></trkpt><trkpt lat="39.5056781" lon="16.4421712"><ele>886.0</ele><time>2026-05-03T10:23:59.606Z</time></trkpt><trkpt lat="39.5055976" lon="16.4421102"><ele>885.9999999999999</ele><time>2026-05-03T10:24:00.592Z</time></trkpt><trkpt lat="39.5055074" lon="16.442035"><ele>885.9999999999999</ele><time>2026-05-03T10:24:01.607Z</time></trkpt><trkpt lat="39.5054076" lon="16.4419518"><ele>886.0</ele><time>2026-05-03T10:24:02.619Z</time></trkpt><trkpt lat="39.5052974" lon="16.4418622"><ele>886.0</ele><time>2026-05-03T10:24:03.606Z</time></trkpt><trkpt lat="39.505178" lon="16.4417735"><ele>888.75</ele><time>2026-05-03T10:24:04.607Z</time></trkpt><trkpt lat="39.5050441" lon="16.4417111"><ele>891.5</ele><time>2026-05-03T10:24:05.612Z</time></trkpt><trkpt lat="39.5048951" lon="16.441661"><ele>894.25</ele><time>2026-05-03T10:24:06.615Z</time></trkpt><trkpt lat="39.5047669" lon="16.4416104"><ele>897.0</ele><time>2026-05-03T10:24:07.616Z</time></trkpt><trkpt lat="39.5046724" lon="16.4415445"><ele>897.0</ele><time>2026-05-03T10:24:08.609Z</time></trkpt><trkpt lat="39.504585" lon="16.4414446"><ele>897.0</ele><time>2026-05-03T10:24:09.613Z</time></trkpt><trkpt lat="39.504498" lon="16.4413198"><ele>897.0</ele><time>2026-05-03T10:24:10.609Z</time></trkpt><trkpt lat="39.5044072" lon="16.4411858"><ele>897.0</ele><time>2026-05-03T10:24:11.595Z</time></trkpt><trkpt lat="39.5043124" lon="16.4410414"><ele>898.5</ele><time>2026-05-03T10:24:12.619Z</time></trkpt><trkpt lat="39.5042184" lon="16.4408973"><ele>900.0</ele><time>2026-05-03T10:24:13.629Z</time></trkpt><trkpt lat="39.5041124" lon="16.4407614"><ele>901.5</ele><time>2026-05-03T10:24:14.61Z</time></trkpt><trkpt lat="39.503991" lon="16.4406414"><ele>903.0</ele><time>2026-05-03T10:24:15.613Z</time></trkpt><trkpt lat="39.5038561" lon="16.4405385"><ele>902.3333333333333</ele><time>2026-05-03T10:24:16.614Z</time></trkpt><trkpt lat="39.503707" lon="16.4404443"><ele>901.6666666666666</ele><time>2026-05-03T10:24:17.602Z</time></trkpt><trkpt lat="39.5035525" lon="16.4403511"><ele>901.0</ele><time>2026-05-03T10:24:18.603Z</time></trkpt><trkpt lat="39.5034" lon="16.4402589"><ele>901.0</ele><time>2026-05-03T10:24:19.605Z</time></trkpt><trkpt lat="39.5032658" lon="16.4401773"><ele>901.0</ele><time>2026-05-03T10:24:20.597Z</time></trkpt><trkpt lat="39.5031557" lon="16.4401268"><ele>901.0</ele><time>2026-05-03T10:24:21.613Z</time></trkpt><trkpt lat="39.5030212" lon="16.4401003"><ele>901.0</ele><time>2026-05-03T10:24:22.61Z</time></trkpt><trkpt lat="39.5028703" lon="16.4400861"><ele>902.0</ele><time>2026-05-03T10:24:23.609Z</time></trkpt><trkpt lat="39.502711" lon="16.4400661"><ele>903.0</ele><time>2026-05-03T10:24:24.6Z</time></trkpt><trkpt lat="39.5025518" lon="16.4400335"><ele>904.0</ele><time>2026-05-03T10:24:25.611Z</time></trkpt><trkpt lat="39.5024073" lon="16.440019"><ele>904.0</ele><time>2026-05-03T10:24:26.6Z</time></trkpt><trkpt lat="39.502267" lon="16.4400539"><ele>904.0</ele><time>2026-05-03T10:24:27.616Z</time></trkpt><trkpt lat="39.502127" lon="16.4401267"><ele>904.0</ele><time>2026-05-03T10:24:28.61Z</time></trkpt><trkpt lat="39.5019923" lon="16.4402402"><ele>903.75</ele><time>2026-05-03T10:24:29.613Z</time></trkpt><trkpt lat="39.5018555" lon="16.4403553"><ele>903.5</ele><time>2026-05-03T10:24:30.617Z</time></trkpt><trkpt lat="39.501734" lon="16.4404577"><ele>903.25</ele><time>2026-05-03T10:24:31.61Z</time></trkpt><trkpt lat="39.5016206" lon="16.4405395"><ele>903.0</ele><time>2026-05-03T10:24:32.605Z</time></trkpt><trkpt lat="39.5014874" lon="16.4405812"><ele>903.0</ele><time>2026-05-03T10:24:33.607Z</time></trkpt><trkpt lat="39.501351" lon="16.440598"><ele>903.0</ele><time>2026-05-03T10:24:34.615Z</time></trkpt><trkpt lat="39.5012011" lon="16.4406049"><ele>903.0</ele><time>2026-05-03T10:24:35.611Z</time></trkpt><trkpt lat="39.5010456" lon="16.4406006"><ele>903.0</ele><time>2026-05-03T10:24:36.603Z</time></trkpt><trkpt lat="39.5008837" lon="16.440602"><ele>904.3333333333333</ele><time>2026-05-03T10:24:37.614Z</time></trkpt><trkpt lat="39.5007189" lon="16.4406175"><ele>905.6666666666666</ele><time>2026-05-03T10:24:38.629Z</time></trkpt><trkpt lat="39.5005529" lon="16.4406507"><ele>907.0</ele><time>2026-05-03T10:24:39.611Z</time></trkpt><trkpt lat="39.5003815" lon="16.4406987"><ele>909.0</ele><time>2026-05-03T10:24:40.611Z</time></trkpt><trkpt lat="39.500217" lon="16.4407739"><ele>911.0</ele><time>2026-05-03T10:24:41.622Z</time></trkpt><trkpt lat="39.5000497" lon="16.4408509"><ele>913.0</ele><time>2026-05-03T10:24:42.614Z</time></trkpt><trkpt lat="39.4998907" lon="16.4409188"><ele>913.0</ele><time>2026-05-03T10:24:43.617Z</time></trkpt><trkpt lat="39.4997537" lon="16.4409818"><ele>913.0</ele><time>2026-05-03T10:24:44.601Z</time></trkpt><trkpt lat="39.4996371" lon="16.4410513"><ele>913.0</ele><time>2026-05-03T10:24:45.62Z</time></trkpt><trkpt lat="39.4995318" lon="16.4411398"><ele>913.0</ele><time>2026-05-03T10:24:46.621Z</time></trkpt><trkpt lat="39.4994516" lon="16.4412712"><ele>916.25</ele><time>2026-05-03T10:24:47.609Z</time></trkpt><trkpt lat="39.4993931" lon="16.4414282"><ele>919.5</ele><time>2026-05-03T10:24:48.608Z</time></trkpt><trkpt lat="39.4993467" lon="16.4415965"><ele>922.75</ele><time>2026-05-03T10:24:49.614Z</time></trkpt><trkpt lat="39.4993074" lon="16.4417565"><ele>926.0</ele><time>2026-05-03T10:24:50.617Z</time></trkpt><trkpt lat="39.4992556" lon="16.4418928"><ele>926.0</ele><time>2026-05-03T10:24:51.615Z</time></trkpt><trkpt lat="39.4991908" lon="16.442013"><ele>925.9999999999999</ele><time>2026-05-03T10:24:52.61Z</time></trkpt><trkpt lat="39.4991048" lon="16.4421229"><ele>925.9999999999999</ele><time>2026-05-03T10:24:53.617Z</time></trkpt><trkpt lat="39.4990141" lon="16.4421972"><ele>926.0</ele><time>2026-05-03T10:24:54.609Z</time></trkpt><trkpt lat="39.4989117" lon="16.4422274"><ele>926.0</ele><time>2026-05-03T10:24:55.605Z</time></trkpt><trkpt lat="39.4987927" lon="16.4422188"><ele>927.75</ele><time>2026-05-03T10:24:56.613Z</time></trkpt><trkpt lat="39.4986714" lon="16.4421884"><ele>929.5</ele><time>2026-05-03T10:24:57.614Z</time></trkpt><trkpt lat="39.4985395" lon="16.4421586"><ele>931.25</ele><time>2026-05-03T10:24:58.618Z</time></trkpt><trkpt lat="39.4984021" lon="16.442136"><ele>933.0</ele><time>2026-05-03T10:24:59.608Z</time></trkpt><trkpt lat="39.498261" lon="16.4421188"><ele>933.0</ele><time>2026-05-03T10:25:00.603Z</time></trkpt><trkpt lat="39.4981126" lon="16.4421261"><ele>933.0</ele><time>2026-05-03T10:25:01.61Z</time></trkpt><trkpt lat="39.4979588" lon="16.4421523"><ele>933.0</ele><time>2026-05-03T10:25:02.608Z</time></trkpt><trkpt lat="39.4978019" lon="16.4421891"><ele>936.0</ele><time>2026-05-03T10:25:03.611Z</time></trkpt><trkpt lat="39.4976465" lon="16.4422353"><ele>939.0</ele><time>2026-05-03T10:25:04.617Z</time></trkpt><trkpt lat="39.4974982" lon="16.4422884"><ele>942.0</ele><time>2026-05-03T10:25:05.59Z</time></trkpt><trkpt lat="39.4973635" lon="16.4423509"><ele>942.0</ele><time>2026-05-03T10:25:06.614Z</time></trkpt><trkpt lat="39.4972462" lon="16.4424109"><ele>942.0</ele><time>2026-05-03T10:25:07.603Z</time></trkpt><trkpt lat="39.4971449" lon="16.4424956"><ele>942.0</ele><time>2026-05-03T10:25:08.615Z</time></trkpt><trkpt lat="39.4970659" lon="16.4426022"><ele>942.0</ele><time>2026-05-03T10:25:09.61Z</time></trkpt><trkpt lat="39.4969919" lon="16.4427382"><ele>944.25</ele><time>2026-05-03T10:25:10.595Z</time></trkpt><trkpt lat="39.4969194" lon="16.4428771"><ele>946.5</ele><time>2026-05-03T10:25:11.612Z</time></trkpt><trkpt lat="39.4968347" lon="16.443011"><ele>948.75</ele><time>2026-05-03T10:25:12.626Z</time></trkpt><trkpt lat="39.4967511" lon="16.4431463"><ele>951.0</ele><time>2026-05-03T10:25:13.6Z</time></trkpt><trkpt lat="39.4966785" lon="16.4432747"><ele>951.5999999999999</ele><time>2026-05-03T10:25:14.607Z</time></trkpt><trkpt lat="39.496634" lon="16.4433927"><ele>952.1999999999999</ele><time>2026-05-03T10:25:15.598Z</time></trkpt><trkpt lat="39.4966287" lon="16.4435317"><ele>952.8000000000001</ele><time>2026-05-03T10:25:16.602Z</time></trkpt><trkpt lat="39.496642" lon="16.4436891"><ele>953.4000000000001</ele><time>2026-05-03T10:25:17.606Z</time></trkpt><trkpt lat="39.4966675" lon="16.443838"><ele>954.0</ele><time>2026-05-03T10:25:18.607Z</time></trkpt><trkpt lat="39.4966841" lon="16.4439737"><ele>954.8333333333334</ele><time>2026-05-03T10:25:19.605Z</time></trkpt><trkpt lat="39.4966844" lon="16.4440762"><ele>955.6666666666667</ele><time>2026-05-03T10:25:20.614Z</time></trkpt><trkpt lat="39.496666" lon="16.4441637"><ele>956.5</ele><time>2026-05-03T10:25:21.607Z</time></trkpt><trkpt lat="39.4966239" lon="16.4442344"><ele>957.3333333333334</ele><time>2026-05-03T10:25:22.601Z</time></trkpt><trkpt lat="39.4965583" lon="16.4442904"><ele>958.1666666666667</ele><time>2026-05-03T10:25:23.609Z</time></trkpt><trkpt lat="39.4964824" lon="16.4443253"><ele>959.0</ele><time>2026-05-03T10:25:24.61Z</time></trkpt><trkpt lat="39.4963968" lon="16.4443437"><ele>959.0</ele><time>2026-05-03T10:25:25.61Z</time></trkpt><trkpt lat="39.4963077" lon="16.4443625"><ele>959.0000000000001</ele><time>2026-05-03T10:25:26.614Z</time></trkpt><trkpt lat="39.4962212" lon="16.4443998"><ele>959.0000000000001</ele><time>2026-05-03T10:25:27.599Z</time></trkpt><trkpt lat="39.4961413" lon="16.4444752"><ele>959.0</ele><time>2026-05-03T10:25:28.607Z</time></trkpt><trkpt lat="39.4960719" lon="16.4445753"><ele>959.0</ele><time>2026-05-03T10:25:29.605Z</time></trkpt><trkpt lat="39.4960083" lon="16.4446822"><ele>960.1666666666667</ele><time>2026-05-03T10:25:30.615Z</time></trkpt><trkpt lat="39.4959481" lon="16.4447637"><ele>961.3333333333334</ele><time>2026-05-03T10:25:31.616Z</time></trkpt><trkpt lat="39.4958814" lon="16.4448123"><ele>962.5</ele><time>2026-05-03T10:25:32.608Z</time></trkpt><trkpt lat="39.4958065" lon="16.4448277"><ele>963.6666666666667</ele><time>2026-05-03T10:25:33.606Z</time></trkpt><trkpt lat="39.4957312" lon="16.4447954"><ele>964.8333333333334</ele><time>2026-05-03T10:25:34.606Z</time></trkpt><trkpt lat="39.4956768" lon="16.4447396"><ele>966.0</ele><time>2026-05-03T10:25:35.613Z</time></trkpt><trkpt lat="39.4956458" lon="16.4446493"><ele>966.1999999999999</ele><time>2026-05-03T10:25:36.608Z</time></trkpt><trkpt lat="39.4956362" lon="16.4445397"><ele>966.3999999999999</ele><time>2026-05-03T10:25:37.601Z</time></trkpt><trkpt lat="39.4956287" lon="16.444405"><ele>966.6</ele><time>2026-05-03T10:25:38.604Z</time></trkpt><trkpt lat="39.4956184" lon="16.4442523"><ele>966.8</ele><time>2026-05-03T10:25:39.61Z</time></trkpt><trkpt lat="39.4956116" lon="16.4440873"><ele>967.0</ele><time>2026-05-03T10:25:40.612Z</time></trkpt><trkpt lat="39.4956013" lon="16.4439098"><ele>966.75</ele><time>2026-05-03T10:25:41.585Z</time></trkpt><trkpt lat="39.4955938" lon="16.4437296"><ele>966.5</ele><time>2026-05-03T10:25:42.59Z</time></trkpt><trkpt lat="39.495587" lon="16.4435469"><ele>966.25</ele><time>2026-05-03T10:25:43.598Z</time></trkpt><trkpt lat="39.4955873" lon="16.4433586"><ele>966.0</ele><time>2026-05-03T10:25:44.587Z</time></trkpt><trkpt lat="39.495591" lon="16.4431654"><ele>965.3333333333333</ele><time>2026-05-03T10:25:45.602Z</time></trkpt><trkpt lat="39.4955838" lon="16.4429641"><ele>964.6666666666666</ele><time>2026-05-03T10:25:46.615Z</time></trkpt><trkpt lat="39.4955647" lon="16.4427655"><ele>964.0</ele><time>2026-05-03T10:25:47.587Z</time></trkpt><trkpt lat="39.4955308" lon="16.4425715"><ele>964.0</ele><time>2026-05-03T10:25:48.591Z</time></trkpt><trkpt lat="39.4954806" lon="16.4423807"><ele>964.0</ele><time>2026-05-03T10:25:49.592Z</time></trkpt><trkpt lat="39.495414" lon="16.4421812"><ele>964.0</ele><time>2026-05-03T10:25:50.585Z</time></trkpt><trkpt lat="39.4953386" lon="16.441975"><ele>962.6666666666666</ele><time>2026-05-03T10:25:51.598Z</time></trkpt><trkpt lat="39.495269" lon="16.4417776"><ele>961.3333333333333</ele><time>2026-05-03T10:25:52.589Z</time></trkpt><trkpt lat="39.4951935" lon="16.4415989"><ele>960.0</ele><time>2026-05-03T10:25:53.599Z</time></trkpt><trkpt lat="39.4951033" lon="16.4414363"><ele>961.0</ele><time>2026-05-03T10:25:54.596Z</time></trkpt><trkpt lat="39.4949902" lon="16.4412846"><ele>962.0</ele><time>2026-05-03T10:25:55.607Z</time></trkpt><trkpt lat="39.4948675" lon="16.4411331"><ele>963.0</ele><time>2026-05-03T10:25:56.6Z</time></trkpt><trkpt lat="39.4947489" lon="16.440978"><ele>963.0</ele><time>2026-05-03T10:25:57.61Z</time></trkpt><trkpt lat="39.4946311" lon="16.4408217"><ele>963.0</ele><time>2026-05-03T10:25:58.613Z</time></trkpt><trkpt lat="39.4945147" lon="16.4406662"><ele>963.0</ele><time>2026-05-03T10:25:59.602Z</time></trkpt><trkpt lat="39.4943952" lon="16.4405064"><ele>966.3333333333333</ele><time>2026-05-03T10:26:00.607Z</time></trkpt><trkpt lat="39.4942661" lon="16.4403502"><ele>969.6666666666666</ele><time>2026-05-03T10:26:01.617Z</time></trkpt><trkpt lat="39.4941221" lon="16.4401957"><ele>973.0</ele><time>2026-05-03T10:26:02.608Z</time></trkpt><trkpt lat="39.4939696" lon="16.440048"><ele>973.0</ele><time>2026-05-03T10:26:03.603Z</time></trkpt><trkpt lat="39.4938058" lon="16.4399023"><ele>973.0</ele><time>2026-05-03T10:26:04.602Z</time></trkpt><trkpt lat="39.4936449" lon="16.4397603"><ele>973.0</ele><time>2026-05-03T10:26:05.603Z</time></trkpt><trkpt lat="39.4935014" lon="16.4396263"><ele>976.25</ele><time>2026-05-03T10:26:06.604Z</time></trkpt><trkpt lat="39.4933786" lon="16.4395127"><ele>979.5</ele><time>2026-05-03T10:26:07.602Z</time></trkpt><trkpt lat="39.4932532" lon="16.4394268"><ele>982.75</ele><time>2026-05-03T10:26:08.611Z</time></trkpt><trkpt lat="39.4931132" lon="16.4393546"><ele>986.0</ele><time>2026-05-03T10:26:09.601Z</time></trkpt><trkpt lat="39.4929608" lon="16.439301"><ele>983.0</ele><time>2026-05-03T10:26:10.587Z</time></trkpt><trkpt lat="39.4927991" lon="16.4392491"><ele>980.0</ele><time>2026-05-03T10:26:11.581Z</time></trkpt><trkpt lat="39.4926371" lon="16.4391929"><ele>977.0</ele><time>2026-05-03T10:26:12.604Z</time></trkpt><trkpt lat="39.4924813" lon="16.4391213"><ele>977.0</ele><time>2026-05-03T10:26:13.588Z</time></trkpt><trkpt lat="39.492334" lon="16.439064"><ele>977.0</ele><time>2026-05-03T10:26:14.611Z</time></trkpt><trkpt lat="39.4921944" lon="16.4390009"><ele>977.0</ele><time>2026-05-03T10:26:15.591Z</time></trkpt><trkpt lat="39.4920609" lon="16.4389213"><ele>977.0</ele><time>2026-05-03T10:26:16.606Z</time></trkpt><trkpt lat="39.491925" lon="16.4388195"><ele>975.0</ele><time>2026-05-03T10:26:17.612Z</time></trkpt><trkpt lat="39.4917853" lon="16.4386983"><ele>973.0</ele><time>2026-05-03T10:26:18.6Z</time></trkpt><trkpt lat="39.4916403" lon="16.4385639"><ele>971.0</ele><time>2026-05-03T10:26:19.609Z</time></trkpt><trkpt lat="39.4914923" lon="16.4384274"><ele>971.0</ele><time>2026-05-03T10:26:20.605Z</time></trkpt><trkpt lat="39.4913452" lon="16.438293"><ele>971.0</ele><time>2026-05-03T10:26:21.597Z</time></trkpt><trkpt lat="39.4911987" lon="16.4381679"><ele>971.0</ele><time>2026-05-03T10:26:22.608Z</time></trkpt><trkpt lat="39.4910646" lon="16.43805"><ele>971.3333333333334</ele><time>2026-05-03T10:26:23.609Z</time></trkpt><trkpt lat="39.4909257" lon="16.4379325"><ele>971.6666666666667</ele><time>2026-05-03T10:26:24.625Z</time></trkpt><trkpt lat="39.4907758" lon="16.4378219"><ele>972.0</ele><time>2026-05-03T10:26:25.613Z</time></trkpt><trkpt lat="39.4906194" lon="16.4377054"><ele>972.0</ele><time>2026-05-03T10:26:26.605Z</time></trkpt><trkpt lat="39.4904662" lon="16.4375837"><ele>972.0</ele><time>2026-05-03T10:26:27.61Z</time></trkpt><trkpt lat="39.4903233" lon="16.4374613"><ele>972.0</ele><time>2026-05-03T10:26:28.614Z</time></trkpt><trkpt lat="39.490183" lon="16.4373365"><ele>972.3333333333333</ele><time>2026-05-03T10:26:29.599Z</time></trkpt><trkpt lat="39.4900465" lon="16.4372021"><ele>972.6666666666666</ele><time>2026-05-03T10:26:30.606Z</time></trkpt><trkpt lat="39.4899217" lon="16.4370744"><ele>973.0</ele><time>2026-05-03T10:26:31.599Z</time></trkpt><trkpt lat="39.4898037" lon="16.4369675"><ele>974.0</ele><time>2026-05-03T10:26:32.618Z</time></trkpt><trkpt lat="39.4896727" lon="16.4368814"><ele>975.0</ele><time>2026-05-03T10:26:33.609Z</time></trkpt><trkpt lat="39.4895236" lon="16.4368181"><ele>976.0</ele><time>2026-05-03T10:26:34.618Z</time></trkpt><trkpt lat="39.4893631" lon="16.4367788"><ele>976.0</ele><time>2026-05-03T10:26:35.604Z</time></trkpt><trkpt lat="39.4891974" lon="16.4367484"><ele>976.0</ele><time>2026-05-03T10:26:36.619Z</time></trkpt><trkpt lat="39.4890479" lon="16.4367172"><ele>976.0</ele><time>2026-05-03T10:26:37.6Z</time></trkpt><trkpt lat="39.4889189" lon="16.4366852"><ele>976.0</ele><time>2026-05-03T10:26:38.617Z</time></trkpt><trkpt lat="39.488805" lon="16.4366581"><ele>975.9999999999999</ele><time>2026-05-03T10:26:39.605Z</time></trkpt><trkpt lat="39.4887072" lon="16.436615"><ele>975.9999999999999</ele><time>2026-05-03T10:26:40.605Z</time></trkpt><trkpt lat="39.4886272" lon="16.4365474"><ele>976.0</ele><time>2026-05-03T10:26:41.612Z</time></trkpt><trkpt lat="39.488557" lon="16.4364795"><ele>976.0</ele><time>2026-05-03T10:26:42.615Z</time></trkpt><trkpt lat="39.4884915" lon="16.4363899"><ele>976.8</ele><time>2026-05-03T10:26:43.593Z</time></trkpt><trkpt lat="39.4884323" lon="16.4362815"><ele>977.5999999999999</ele><time>2026-05-03T10:26:44.629Z</time></trkpt><trkpt lat="39.4883753" lon="16.4361574"><ele>978.4</ele><time>2026-05-03T10:26:45.606Z</time></trkpt><trkpt lat="39.4883286" lon="16.436024"><ele>979.2</ele><time>2026-05-03T10:26:46.622Z</time></trkpt><trkpt lat="39.4882763" lon="16.4358831"><ele>980.0</ele><time>2026-05-03T10:26:47.601Z</time></trkpt><trkpt lat="39.4882085" lon="16.4357532"><ele>980.0</ele><time>2026-05-03T10:26:48.606Z</time></trkpt><trkpt lat="39.4881171" lon="16.4356414"><ele>980.0</ele><time>2026-05-03T10:26:49.602Z</time></trkpt><trkpt lat="39.4880101" lon="16.4355496"><ele>980.0</ele><time>2026-05-03T10:26:50.595Z</time></trkpt><trkpt lat="39.4878964" lon="16.4354672"><ele>980.0</ele><time>2026-05-03T10:26:51.574Z</time></trkpt><trkpt lat="39.4877806" lon="16.4353847"><ele>980.0</ele><time>2026-05-03T10:26:52.604Z</time></trkpt><trkpt lat="39.4876762" lon="16.4353022"><ele>980.0</ele><time>2026-05-03T10:26:53.605Z</time></trkpt><trkpt lat="39.4875877" lon="16.4352217"><ele>980.0</ele><time>2026-05-03T10:26:54.611Z</time></trkpt><trkpt lat="39.4875198" lon="16.4351305"><ele>980.0</ele><time>2026-05-03T10:26:55.594Z</time></trkpt><trkpt lat="39.4874683" lon="16.4350124"><ele>980.0</ele><time>2026-05-03T10:26:56.606Z</time></trkpt><trkpt lat="39.4874216" lon="16.4348701"><ele>980.0</ele><time>2026-05-03T10:26:57.605Z</time></trkpt><trkpt lat="39.4873731" lon="16.4347073"><ele>980.0</ele><time>2026-05-03T10:26:58.588Z</time></trkpt><trkpt lat="39.4873203" lon="16.4345427"><ele>980.0</ele><time>2026-05-03T10:26:59.612Z</time></trkpt><trkpt lat="39.4872642" lon="16.4343719"><ele>980.0</ele><time>2026-05-03T10:27:00.603Z</time></trkpt><trkpt lat="39.4872011" lon="16.434196"><ele>979.75</ele><time>2026-05-03T10:27:01.602Z</time></trkpt><trkpt lat="39.4871392" lon="16.4340185"><ele>979.5</ele><time>2026-05-03T10:27:02.603Z</time></trkpt><trkpt lat="39.4870781" lon="16.4338573"><ele>979.25</ele><time>2026-05-03T10:27:03.606Z</time></trkpt><trkpt lat="39.4870114" lon="16.4337283"><ele>979.0</ele><time>2026-05-03T10:27:04.591Z</time></trkpt><trkpt lat="39.4869334" lon="16.4336502"><ele>981.3333333333333</ele><time>2026-05-03T10:27:05.607Z</time></trkpt><trkpt lat="39.4868435" lon="16.4336247"><ele>983.6666666666666</ele><time>2026-05-03T10:27:06.611Z</time></trkpt><trkpt lat="39.4867484" lon="16.4336056"><ele>986.0</ele><time>2026-05-03T10:27:07.605Z</time></trkpt><trkpt lat="39.4866578" lon="16.4335951"><ele>988.3333333333333</ele><time>2026-05-03T10:27:08.602Z</time></trkpt><trkpt lat="39.4865818" lon="16.4335758"><ele>990.6666666666666</ele><time>2026-05-03T10:27:09.59Z</time></trkpt><trkpt lat="39.4865154" lon="16.4335577"><ele>993.0</ele><time>2026-05-03T10:27:10.606Z</time></trkpt><trkpt lat="39.4864087" lon="16.433517"><ele>993.0</ele><time>2026-05-03T10:27:12.606Z</time></trkpt><trkpt lat="39.486306" lon="16.4334647"><ele>993.0</ele><time>2026-05-03T10:27:14.591Z</time></trkpt><trkpt lat="39.4862055" lon="16.4333605"><ele>993.0</ele><time>2026-05-03T10:27:16.601Z</time></trkpt><trkpt lat="39.486146" lon="16.4332864"><ele>993.0</ele><time>2026-05-03T10:27:17.603Z</time></trkpt><trkpt lat="39.4860923" lon="16.4332125"><ele>993.0</ele><time>2026-05-03T10:27:18.608Z</time></trkpt><trkpt lat="39.486051" lon="16.4331219"><ele>993.0</ele><time>2026-05-03T10:27:19.589Z</time></trkpt><trkpt lat="39.4860266" lon="16.432999"><ele>993.0</ele><time>2026-05-03T10:27:20.602Z</time></trkpt><trkpt lat="39.4860227" lon="16.4328622"><ele>993.0</ele><time>2026-05-03T10:27:21.603Z</time></trkpt><trkpt lat="39.4860131" lon="16.4327258"><ele>993.0</ele><time>2026-05-03T10:27:22.611Z</time></trkpt><trkpt lat="39.4859648" lon="16.4326044"><ele>993.0</ele><time>2026-05-03T10:27:23.617Z</time></trkpt><trkpt lat="39.485883" lon="16.4325028"><ele>995.0</ele><time>2026-05-03T10:27:24.618Z</time></trkpt><trkpt lat="39.4857759" lon="16.4324251"><ele>997.0</ele><time>2026-05-03T10:27:25.611Z</time></trkpt><trkpt lat="39.4856601" lon="16.4323514"><ele>999.0</ele><time>2026-05-03T10:27:26.6Z</time></trkpt><trkpt lat="39.4855478" lon="16.4322723"><ele>1001.0</ele><time>2026-05-03T10:27:27.607Z</time></trkpt><trkpt lat="39.4854458" lon="16.4322019"><ele>1001.1999999999999</ele><time>2026-05-03T10:27:28.607Z</time></trkpt><trkpt lat="39.4853506" lon="16.4321554"><ele>1001.3999999999999</ele><time>2026-05-03T10:27:29.616Z</time></trkpt><trkpt lat="39.4852499" lon="16.4321534"><ele>1001.6</ele><time>2026-05-03T10:27:30.616Z</time></trkpt><trkpt lat="39.4851586" lon="16.4322085"><ele>1001.8</ele><time>2026-05-03T10:27:31.609Z</time></trkpt><trkpt lat="39.4850803" lon="16.4322879"><ele>1002.0</ele><time>2026-05-03T10:27:32.603Z</time></trkpt><trkpt lat="39.484994" lon="16.432345"><ele>1002.0</ele><time>2026-05-03T10:27:33.61Z</time></trkpt><trkpt lat="39.4849081" lon="16.4323369"><ele>1002.0</ele><time>2026-05-03T10:27:34.606Z</time></trkpt><trkpt lat="39.4848258" lon="16.4322737"><ele>1002.0</ele><time>2026-05-03T10:27:35.615Z</time></trkpt><trkpt lat="39.4847641" lon="16.432169"><ele>1002.0</ele><time>2026-05-03T10:27:36.619Z</time></trkpt><trkpt lat="39.4847327" lon="16.4320307"><ele>1002.0</ele><time>2026-05-03T10:27:37.614Z</time></trkpt><trkpt lat="39.4847223" lon="16.4318745"><ele>1002.0</ele><time>2026-05-03T10:27:38.6Z</time></trkpt><trkpt lat="39.4846896" lon="16.4317079"><ele>1002.0</ele><time>2026-05-03T10:27:39.62Z</time></trkpt><trkpt lat="39.4846283" lon="16.431534"><ele>1002.0</ele><time>2026-05-03T10:27:40.61Z</time></trkpt><trkpt lat="39.4845502" lon="16.4313531"><ele>1002.0</ele><time>2026-05-03T10:27:41.602Z</time></trkpt><trkpt lat="39.4844835" lon="16.4311578"><ele>1003.0</ele><time>2026-05-03T10:27:42.624Z</time></trkpt><trkpt lat="39.4844252" lon="16.4309765"><ele>1004.0</ele><time>2026-05-03T10:27:43.604Z</time></trkpt><trkpt lat="39.4843614" lon="16.4308076"><ele>1005.0</ele><time>2026-05-03T10:27:44.612Z</time></trkpt><trkpt lat="39.484291" lon="16.4306586"><ele>1006.0</ele><time>2026-05-03T10:27:45.606Z</time></trkpt><trkpt lat="39.4842028" lon="16.4305244"><ele>1006.25</ele><time>2026-05-03T10:27:46.616Z</time></trkpt><trkpt lat="39.4841016" lon="16.4304187"><ele>1006.5</ele><time>2026-05-03T10:27:47.61Z</time></trkpt><trkpt lat="39.4839958" lon="16.4303518"><ele>1006.75</ele><time>2026-05-03T10:27:48.624Z</time></trkpt><trkpt lat="39.4838839" lon="16.4303333"><ele>1007.0</ele><time>2026-05-03T10:27:49.612Z</time></trkpt><trkpt lat="39.4837645" lon="16.430362"><ele>1007.25</ele><time>2026-05-03T10:27:50.608Z</time></trkpt><trkpt lat="39.4836329" lon="16.4304146"><ele>1007.5</ele><time>2026-05-03T10:27:51.594Z</time></trkpt><trkpt lat="39.4834894" lon="16.4304667"><ele>1007.75</ele><time>2026-05-03T10:27:52.62Z</time></trkpt><trkpt lat="39.4833435" lon="16.4305245"><ele>1008.0</ele><time>2026-05-03T10:27:53.602Z</time></trkpt><trkpt lat="39.4831808" lon="16.4305847"><ele>1008.0</ele><time>2026-05-03T10:27:54.605Z</time></trkpt><trkpt lat="39.4830147" lon="16.4306372"><ele>1008.0</ele><time>2026-05-03T10:27:55.603Z</time></trkpt><trkpt lat="39.4828467" lon="16.4306974"><ele>1008.0</ele><time>2026-05-03T10:27:56.611Z</time></trkpt><trkpt lat="39.482675" lon="16.4307683"><ele>1010.3333333333333</ele><time>2026-05-03T10:27:57.619Z</time></trkpt><trkpt lat="39.4824957" lon="16.4308372"><ele>1012.6666666666666</ele><time>2026-05-03T10:27:58.61Z</time></trkpt><trkpt lat="39.482314" lon="16.4309005"><ele>1015.0</ele><time>2026-05-03T10:27:59.61Z</time></trkpt><trkpt lat="39.4821447" lon="16.4309656"><ele>1015.0</ele><time>2026-05-03T10:28:00.615Z</time></trkpt><trkpt lat="39.4819908" lon="16.4310393"><ele>1015.0</ele><time>2026-05-03T10:28:01.62Z</time></trkpt><trkpt lat="39.4818379" lon="16.4311273"><ele>1015.0</ele><time>2026-05-03T10:28:02.612Z</time></trkpt><trkpt lat="39.4816849" lon="16.4312151"><ele>1014.6666666666666</ele><time>2026-05-03T10:28:03.609Z</time></trkpt><trkpt lat="39.481537" lon="16.4313074"><ele>1014.3333333333333</ele><time>2026-05-03T10:28:04.607Z</time></trkpt><trkpt lat="39.481407" lon="16.4314044"><ele>1014.0</ele><time>2026-05-03T10:28:05.602Z</time></trkpt><trkpt lat="39.481298" lon="16.4315143"><ele>1016.25</ele><time>2026-05-03T10:28:06.586Z</time></trkpt><trkpt lat="39.4812251" lon="16.4316407"><ele>1018.5</ele><time>2026-05-03T10:28:07.59Z</time></trkpt><trkpt lat="39.4811808" lon="16.4318013"><ele>1020.75</ele><time>2026-05-03T10:28:08.607Z</time></trkpt><trkpt lat="39.4811581" lon="16.4319779"><ele>1023.0</ele><time>2026-05-03T10:28:09.61Z</time></trkpt><trkpt lat="39.4811284" lon="16.4321634"><ele>1023.0</ele><time>2026-05-03T10:28:10.599Z</time></trkpt><trkpt lat="39.4810866" lon="16.4323471"><ele>1023.0</ele><time>2026-05-03T10:28:11.614Z</time></trkpt><trkpt lat="39.4810259" lon="16.4325312"><ele>1023.0</ele><time>2026-05-03T10:28:12.619Z</time></trkpt><trkpt lat="39.4809598" lon="16.4327041"><ele>1023.0</ele><time>2026-05-03T10:28:13.616Z</time></trkpt><trkpt lat="39.4809001" lon="16.4328579"><ele>1023.0</ele><time>2026-05-03T10:28:14.604Z</time></trkpt><trkpt lat="39.480864" lon="16.4329882"><ele>1023.0</ele><time>2026-05-03T10:28:15.63Z</time></trkpt><trkpt lat="39.4808492" lon="16.433129"><ele>1023.0</ele><time>2026-05-03T10:28:16.604Z</time></trkpt><trkpt lat="39.4808966" lon="16.4332534"><ele>1023.25</ele><time>2026-05-03T10:28:17.598Z</time></trkpt><trkpt lat="39.4809978" lon="16.4333314"><ele>1023.5</ele><time>2026-05-03T10:28:18.61Z</time></trkpt><trkpt lat="39.4811183" lon="16.4333569"><ele>1023.75</ele><time>2026-05-03T10:28:19.601Z</time></trkpt><trkpt lat="39.481248" lon="16.4333939"><ele>1024.0</ele><time>2026-05-03T10:28:20.59Z</time></trkpt><trkpt lat="39.4813832" lon="16.4334593"><ele>1018.3333333333333</ele><time>2026-05-03T10:28:21.61Z</time></trkpt><trkpt lat="39.4815244" lon="16.433545"><ele>1012.6666666666667</ele><time>2026-05-03T10:28:22.607Z</time></trkpt><trkpt lat="39.4816665" lon="16.4336412"><ele>1007.0</ele><time>2026-05-03T10:28:23.608Z</time></trkpt><trkpt lat="39.4818038" lon="16.4337504"><ele>1011.0</ele><time>2026-05-03T10:28:24.596Z</time></trkpt><trkpt lat="39.481921" lon="16.4338681"><ele>1015.0</ele><time>2026-05-03T10:28:25.616Z</time></trkpt><trkpt lat="39.4820176" lon="16.434006"><ele>1019.0</ele><time>2026-05-03T10:28:26.603Z</time></trkpt><trkpt lat="39.482103" lon="16.4341686"><ele>1023.0</ele><time>2026-05-03T10:28:27.622Z</time></trkpt><trkpt lat="39.4821752" lon="16.4343546"><ele>1017.0</ele><time>2026-05-03T10:28:28.608Z</time></trkpt><trkpt lat="39.4822369" lon="16.4345457"><ele>1011.0</ele><time>2026-05-03T10:28:29.603Z</time></trkpt><trkpt lat="39.4823127" lon="16.434723"><ele>1005.0</ele><time>2026-05-03T10:28:30.599Z</time></trkpt><trkpt lat="39.4824011" lon="16.4348943"><ele>1005.0</ele><time>2026-05-03T10:28:31.608Z</time></trkpt><trkpt lat="39.4824659" lon="16.4350615"><ele>1005.0</ele><time>2026-05-03T10:28:32.617Z</time></trkpt><trkpt lat="39.4825029" lon="16.4352319"><ele>1005.0</ele><time>2026-05-03T10:28:33.609Z</time></trkpt><trkpt lat="39.4825133" lon="16.4354095"><ele>1005.0</ele><time>2026-05-03T10:28:34.613Z</time></trkpt><trkpt lat="39.4825119" lon="16.4355927"><ele>1006.75</ele><time>2026-05-03T10:28:35.6Z</time></trkpt><trkpt lat="39.48253" lon="16.4357712"><ele>1008.5</ele><time>2026-05-03T10:28:36.623Z</time></trkpt><trkpt lat="39.4825917" lon="16.4359438"><ele>1010.25</ele><time>2026-05-03T10:28:37.619Z</time></trkpt><trkpt lat="39.4826737" lon="16.4360787"><ele>1012.0</ele><time>2026-05-03T10:28:38.601Z</time></trkpt><trkpt lat="39.4827324" lon="16.4361828"><ele>1011.9999999999999</ele><time>2026-05-03T10:28:39.614Z</time></trkpt><trkpt lat="39.4827478" lon="16.4362816"><ele>1012.0</ele><time>2026-05-03T10:28:40.617Z</time></trkpt><trkpt lat="39.4827195" lon="16.4363649"><ele>1012.0</ele><time>2026-05-03T10:28:41.613Z</time></trkpt><trkpt lat="39.4826591" lon="16.43642"><ele>1012.0</ele><time>2026-05-03T10:28:42.621Z</time></trkpt><trkpt lat="39.4825657" lon="16.4364346"><ele>1011.9999999999999</ele><time>2026-05-03T10:28:43.623Z</time></trkpt><trkpt lat="39.4824617" lon="16.4363897"><ele>1012.0</ele><time>2026-05-03T10:28:44.603Z</time></trkpt><trkpt lat="39.4823607" lon="16.4363233"><ele>1010.4000000000001</ele><time>2026-05-03T10:28:45.597Z</time></trkpt><trkpt lat="39.4822535" lon="16.4363142"><ele>1008.8000000000001</ele><time>2026-05-03T10:28:46.607Z</time></trkpt><trkpt lat="39.4821449" lon="16.4363764"><ele>1007.2</ele><time>2026-05-03T10:28:47.602Z</time></trkpt><trkpt lat="39.4820506" lon="16.4364489"><ele>1005.6</ele><time>2026-05-03T10:28:48.611Z</time></trkpt><trkpt lat="39.4819581" lon="16.4364914"><ele>1004.0</ele><time>2026-05-03T10:28:49.608Z</time></trkpt><trkpt lat="39.4818585" lon="16.436466"><ele>1002.6</ele><time>2026-05-03T10:28:50.6Z</time></trkpt><trkpt lat="39.4817476" lon="16.4364063"><ele>1001.2</ele><time>2026-05-03T10:28:51.609Z</time></trkpt><trkpt lat="39.4816325" lon="16.4363499"><ele>999.8000000000001</ele><time>2026-05-03T10:28:52.607Z</time></trkpt><trkpt lat="39.4815179" lon="16.4363333"><ele>998.4000000000001</ele><time>2026-05-03T10:28:53.597Z</time></trkpt><trkpt lat="39.4814372" lon="16.4363587"><ele>997.0</ele><time>2026-05-03T10:28:54.619Z</time></trkpt><trkpt lat="39.4813679" lon="16.4364239"><ele>997.0</ele><time>2026-05-03T10:28:55.611Z</time></trkpt><trkpt lat="39.4813238" lon="16.4365271"><ele>997.0</ele><time>2026-05-03T10:28:56.606Z</time></trkpt><trkpt lat="39.4813076" lon="16.4366461"><ele>997.0</ele><time>2026-05-03T10:28:57.602Z</time></trkpt><trkpt lat="39.4812813" lon="16.43675"><ele>997.0</ele><time>2026-05-03T10:28:58.596Z</time></trkpt><trkpt lat="39.4812102" lon="16.4368064"><ele>997.0</ele><time>2026-05-03T10:28:59.615Z</time></trkpt><trkpt lat="39.4811062" lon="16.4368034"><ele>996.25</ele><time>2026-05-03T10:29:00.606Z</time></trkpt><trkpt lat="39.4810072" lon="16.4367558"><ele>995.5</ele><time>2026-05-03T10:29:01.605Z</time></trkpt><trkpt lat="39.480903" lon="16.4366822"><ele>994.75</ele><time>2026-05-03T10:29:02.608Z</time></trkpt><trkpt lat="39.4807991" lon="16.4365995"><ele>994.0</ele><time>2026-05-03T10:29:03.592Z</time></trkpt><trkpt lat="39.4806975" lon="16.4365155"><ele>994.0</ele><time>2026-05-03T10:29:04.607Z</time></trkpt><trkpt lat="39.480638" lon="16.4363983"><ele>994.0000000000001</ele><time>2026-05-03T10:29:05.602Z</time></trkpt><trkpt lat="39.4805923" lon="16.4362695"><ele>994.0000000000001</ele><time>2026-05-03T10:29:06.589Z</time></trkpt><trkpt lat="39.4805394" lon="16.4361859"><ele>994.0</ele><time>2026-05-03T10:29:07.597Z</time></trkpt><trkpt lat="39.4804557" lon="16.4361602"><ele>994.0</ele><time>2026-05-03T10:29:08.607Z</time></trkpt><trkpt lat="39.4803579" lon="16.4361811"><ele>996.5</ele><time>2026-05-03T10:29:09.608Z</time></trkpt><trkpt lat="39.4802475" lon="16.4362152"><ele>999.0</ele><time>2026-05-03T10:29:10.599Z</time></trkpt><trkpt lat="39.4801289" lon="16.436224"><ele>1001.5</ele><time>2026-05-03T10:29:11.597Z</time></trkpt><trkpt lat="39.4799979" lon="16.436197"><ele>1004.0</ele><time>2026-05-03T10:29:12.613Z</time></trkpt><trkpt lat="39.4798639" lon="16.4361676"><ele>1004.0</ele><time>2026-05-03T10:29:13.593Z</time></trkpt><trkpt lat="39.4797475" lon="16.4361587"><ele>1004.0</ele><time>2026-05-03T10:29:14.6Z</time></trkpt><trkpt lat="39.4796406" lon="16.4362071"><ele>1004.0</ele><time>2026-05-03T10:29:15.601Z</time></trkpt><trkpt lat="39.479537" lon="16.4363099"><ele>1004.0</ele><time>2026-05-03T10:29:16.615Z</time></trkpt><trkpt lat="39.4794501" lon="16.4364354"><ele>1000.75</ele><time>2026-05-03T10:29:17.609Z</time></trkpt><trkpt lat="39.4793974" lon="16.4365657"><ele>997.5</ele><time>2026-05-03T10:29:18.611Z</time></trkpt><trkpt lat="39.4793909" lon="16.4367011"><ele>994.25</ele><time>2026-05-03T10:29:19.605Z</time></trkpt><trkpt lat="39.4794252" lon="16.436852"><ele>991.0</ele><time>2026-05-03T10:29:20.612Z</time></trkpt><trkpt lat="39.4795021" lon="16.4369884"><ele>991.0</ele><time>2026-05-03T10:29:21.59Z</time></trkpt><trkpt lat="39.4795897" lon="16.437133"><ele>991.0</ele><time>2026-05-03T10:29:22.602Z</time></trkpt><trkpt lat="39.4796827" lon="16.4372829"><ele>991.0</ele><time>2026-05-03T10:29:23.609Z</time></trkpt><trkpt lat="39.479783" lon="16.4374434"><ele>992.25</ele><time>2026-05-03T10:29:24.609Z</time></trkpt><trkpt lat="39.4798799" lon="16.4375867"><ele>993.5</ele><time>2026-05-03T10:29:25.606Z</time></trkpt><trkpt lat="39.4799589" lon="16.4377091"><ele>994.75</ele><time>2026-05-03T10:29:26.634Z</time></trkpt><trkpt lat="39.4800221" lon="16.4378148"><ele>996.0</ele><time>2026-05-03T10:29:27.607Z</time></trkpt><trkpt lat="39.4800646" lon="16.437929"><ele>997.5999999999999</ele><time>2026-05-03T10:29:28.608Z</time></trkpt><trkpt lat="39.4800874" lon="16.4380638"><ele>999.1999999999999</ele><time>2026-05-03T10:29:29.598Z</time></trkpt><trkpt lat="39.480091" lon="16.4381983"><ele>1000.8000000000001</ele><time>2026-05-03T10:29:30.613Z</time></trkpt><trkpt lat="39.4800717" lon="16.4383103"><ele>1002.4000000000001</ele><time>2026-05-03T10:29:31.606Z</time></trkpt><trkpt lat="39.4800228" lon="16.4384121"><ele>1004.0</ele><time>2026-05-03T10:29:32.598Z</time></trkpt><trkpt lat="39.4799506" lon="16.4385128"><ele>1004.0</ele><time>2026-05-03T10:29:33.601Z</time></trkpt><trkpt lat="39.479881" lon="16.4386304"><ele>1004.0</ele><time>2026-05-03T10:29:34.604Z</time></trkpt><trkpt lat="39.4798245" lon="16.4387691"><ele>1004.0</ele><time>2026-05-03T10:29:35.602Z</time></trkpt><trkpt lat="39.4797774" lon="16.4389027"><ele>1004.0</ele><time>2026-05-03T10:29:36.625Z</time></trkpt><trkpt lat="39.4797464" lon="16.4390283"><ele>1004.4000000000001</ele><time>2026-05-03T10:29:37.595Z</time></trkpt><trkpt lat="39.4797595" lon="16.4391623"><ele>1004.8000000000001</ele><time>2026-05-03T10:29:38.609Z</time></trkpt><trkpt lat="39.4798254" lon="16.4392789"><ele>1005.1999999999999</ele><time>2026-05-03T10:29:39.586Z</time></trkpt><trkpt lat="39.4799149" lon="16.4393635"><ele>1005.5999999999999</ele><time>2026-05-03T10:29:40.614Z</time></trkpt><trkpt lat="39.4800219" lon="16.4394405"><ele>1006.0</ele><time>2026-05-03T10:29:41.611Z</time></trkpt><trkpt lat="39.4801297" lon="16.4395419"><ele>1007.0</ele><time>2026-05-03T10:29:42.616Z</time></trkpt><trkpt lat="39.4802374" lon="16.4396571"><ele>1008.0</ele><time>2026-05-03T10:29:43.611Z</time></trkpt><trkpt lat="39.4803613" lon="16.4397498"><ele>1009.0</ele><time>2026-05-03T10:29:44.615Z</time></trkpt><trkpt lat="39.4805034" lon="16.4398014"><ele>1010.0</ele><time>2026-05-03T10:29:45.611Z</time></trkpt><trkpt lat="39.4806387" lon="16.4398333"><ele>1010.0</ele><time>2026-05-03T10:29:46.605Z</time></trkpt><trkpt lat="39.4807498" lon="16.4398836"><ele>1010.0</ele><time>2026-05-03T10:29:47.619Z</time></trkpt><trkpt lat="39.4808328" lon="16.4399696"><ele>1010.0</ele><time>2026-05-03T10:29:48.602Z</time></trkpt><trkpt lat="39.4808959" lon="16.4400868"><ele>1010.0</ele><time>2026-05-03T10:29:49.594Z</time></trkpt><trkpt lat="39.4809252" lon="16.4402235"><ele>1010.0</ele><time>2026-05-03T10:29:50.611Z</time></trkpt><trkpt lat="39.4809283" lon="16.4403587"><ele>1012.0</ele><time>2026-05-03T10:29:51.62Z</time></trkpt><trkpt lat="39.4808873" lon="16.4404871"><ele>1014.0</ele><time>2026-05-03T10:29:52.584Z</time></trkpt><trkpt lat="39.4808152" lon="16.4406287"><ele>1016.0</ele><time>2026-05-03T10:29:53.61Z</time></trkpt><trkpt lat="39.4807659" lon="16.4407601"><ele>1018.0</ele><time>2026-05-03T10:29:54.606Z</time></trkpt><trkpt lat="39.4807481" lon="16.4408753"><ele>1020.0</ele><time>2026-05-03T10:29:55.607Z</time></trkpt><trkpt lat="39.4807753" lon="16.4409866"><ele>1020.0</ele><time>2026-05-03T10:29:56.624Z</time></trkpt><trkpt lat="39.4808454" lon="16.4410846"><ele>1020.0</ele><time>2026-05-03T10:29:57.605Z</time></trkpt><trkpt lat="39.4809386" lon="16.4411861"><ele>1020.0</ele><time>2026-05-03T10:29:58.611Z</time></trkpt><trkpt lat="39.4810136" lon="16.4412964"><ele>1020.0</ele><time>2026-05-03T10:29:59.605Z</time></trkpt><trkpt lat="39.4810568" lon="16.4414223"><ele>1020.0</ele><time>2026-05-03T10:30:00.6Z</time></trkpt><trkpt lat="39.481067" lon="16.4415518"><ele>1021.25</ele><time>2026-05-03T10:30:01.615Z</time></trkpt><trkpt lat="39.4810187" lon="16.4416646"><ele>1022.5</ele><time>2026-05-03T10:30:02.601Z</time></trkpt><trkpt lat="39.4809365" lon="16.4417482"><ele>1023.75</ele><time>2026-05-03T10:30:03.587Z</time></trkpt><trkpt lat="39.4808284" lon="16.4418341"><ele>1025.0</ele><time>2026-05-03T10:30:04.626Z</time></trkpt><trkpt lat="39.4807283" lon="16.4419477"><ele>1025.0</ele><time>2026-05-03T10:30:05.616Z</time></trkpt><trkpt lat="39.4806407" lon="16.4420586"><ele>1025.0</ele><time>2026-05-03T10:30:06.612Z</time></trkpt><trkpt lat="39.480542" lon="16.4421319"><ele>1025.0</ele><time>2026-05-03T10:30:07.598Z</time></trkpt><trkpt lat="39.4804336" lon="16.4421319"><ele>1025.0</ele><time>2026-05-03T10:30:08.595Z</time></trkpt><trkpt lat="39.4803202" lon="16.4421018"><ele>1028.25</ele><time>2026-05-03T10:30:09.585Z</time></trkpt><trkpt lat="39.4802159" lon="16.4420854"><ele>1031.5</ele><time>2026-05-03T10:30:10.608Z</time></trkpt><trkpt lat="39.4801007" lon="16.4421511"><ele>1034.75</ele><time>2026-05-03T10:30:11.587Z</time></trkpt><trkpt lat="39.4800064" lon="16.4422558"><ele>1038.0</ele><time>2026-05-03T10:30:12.583Z</time></trkpt><trkpt lat="39.4799449" lon="16.4423905"><ele>1038.0</ele><time>2026-05-03T10:30:13.602Z</time></trkpt><trkpt lat="39.4799135" lon="16.4425489"><ele>1038.0</ele><time>2026-05-03T10:30:14.613Z</time></trkpt><trkpt lat="39.4799141" lon="16.4427267"><ele>1038.0</ele><time>2026-05-03T10:30:15.597Z</time></trkpt><trkpt lat="39.479905" lon="16.4429061"><ele>1038.0</ele><time>2026-05-03T10:30:16.591Z</time></trkpt><trkpt lat="39.4798538" lon="16.4430662"><ele>1035.0</ele><time>2026-05-03T10:30:17.608Z</time></trkpt><trkpt lat="39.4797798" lon="16.4431963"><ele>1032.0</ele><time>2026-05-03T10:30:18.6Z</time></trkpt><trkpt lat="39.4797045" lon="16.4432924"><ele>1029.0</ele><time>2026-05-03T10:30:19.609Z</time></trkpt><trkpt lat="39.4796071" lon="16.4433463"><ele>1026.0</ele><time>2026-05-03T10:30:20.605Z</time></trkpt><trkpt lat="39.4794955" lon="16.4433615"><ele>1023.0</ele><time>2026-05-03T10:30:21.607Z</time></trkpt><trkpt lat="39.4793808" lon="16.4433883"><ele>1026.75</ele><time>2026-05-03T10:30:22.606Z</time></trkpt><trkpt lat="39.4792612" lon="16.4434694"><ele>1030.5</ele><time>2026-05-03T10:30:23.616Z</time></trkpt><trkpt lat="39.479151" lon="16.4435818"><ele>1034.25</ele><time>2026-05-03T10:30:24.606Z</time></trkpt><trkpt lat="39.4790569" lon="16.4437252"><ele>1038.0</ele><time>2026-05-03T10:30:25.601Z</time></trkpt><trkpt lat="39.4789819" lon="16.4438932"><ele>1038.0</ele><time>2026-05-03T10:30:26.624Z</time></trkpt><trkpt lat="39.4789152" lon="16.4440591"><ele>1038.0</ele><time>2026-05-03T10:30:27.61Z</time></trkpt><trkpt lat="39.4788262" lon="16.4442012"><ele>1038.0</ele><time>2026-05-03T10:30:28.623Z</time></trkpt><trkpt lat="39.4787101" lon="16.4443152"><ele>1038.0</ele><time>2026-05-03T10:30:29.61Z</time></trkpt><trkpt lat="39.4785865" lon="16.4443959"><ele>1045.0</ele><time>2026-05-03T10:30:30.622Z</time></trkpt><trkpt lat="39.4784548" lon="16.4444443"><ele>1052.0</ele><time>2026-05-03T10:30:31.619Z</time></trkpt><trkpt lat="39.47831" lon="16.4444542"><ele>1059.0</ele><time>2026-05-03T10:30:32.608Z</time></trkpt><trkpt lat="39.4781596" lon="16.4444329"><ele>1066.0</ele><time>2026-05-03T10:30:33.608Z</time></trkpt><trkpt lat="39.4780302" lon="16.4443959"><ele>1064.0</ele><time>2026-05-03T10:30:34.615Z</time></trkpt><trkpt lat="39.4779291" lon="16.4443981"><ele>1062.0</ele><time>2026-05-03T10:30:35.6Z</time></trkpt><trkpt lat="39.4778381" lon="16.4444583"><ele>1060.0</ele><time>2026-05-03T10:30:36.609Z</time></trkpt><trkpt lat="39.4777443" lon="16.4445687"><ele>1058.0</ele><time>2026-05-03T10:30:37.59Z</time></trkpt><trkpt lat="39.477666" lon="16.4446978"><ele>1058.0</ele><time>2026-05-03T10:30:38.606Z</time></trkpt><trkpt lat="39.4776087" lon="16.4448511"><ele>1058.0</ele><time>2026-05-03T10:30:39.618Z</time></trkpt><trkpt lat="39.4775465" lon="16.4450171"><ele>1058.0</ele><time>2026-05-03T10:30:40.611Z</time></trkpt><trkpt lat="39.477452" lon="16.4451411"><ele>1058.0</ele><time>2026-05-03T10:30:41.595Z</time></trkpt><trkpt lat="39.4773275" lon="16.4452394"><ele>1058.0</ele><time>2026-05-03T10:30:42.599Z</time></trkpt><trkpt lat="39.4771816" lon="16.4453069"><ele>1058.0</ele><time>2026-05-03T10:30:43.605Z</time></trkpt><trkpt lat="39.4770365" lon="16.4453355"><ele>1058.0</ele><time>2026-05-03T10:30:44.598Z</time></trkpt><trkpt lat="39.4768866" lon="16.4453406"><ele>1055.6666666666667</ele><time>2026-05-03T10:30:45.607Z</time></trkpt><trkpt lat="39.4767447" lon="16.4453922"><ele>1053.3333333333333</ele><time>2026-05-03T10:30:46.607Z</time></trkpt><trkpt lat="39.4765968" lon="16.4454666"><ele>1051.0</ele><time>2026-05-03T10:30:47.607Z</time></trkpt><trkpt lat="39.4764456" lon="16.4455314"><ele>1051.0</ele><time>2026-05-03T10:30:48.612Z</time></trkpt><trkpt lat="39.4762785" lon="16.4455519"><ele>1051.0</ele><time>2026-05-03T10:30:49.604Z</time></trkpt><trkpt lat="39.4761022" lon="16.4455363"><ele>1051.0</ele><time>2026-05-03T10:30:50.631Z</time></trkpt><trkpt lat="39.4759448" lon="16.4455241"><ele>1055.0</ele><time>2026-05-03T10:30:51.597Z</time></trkpt><trkpt lat="39.4758099" lon="16.4455293"><ele>1059.0</ele><time>2026-05-03T10:30:52.605Z</time></trkpt><trkpt lat="39.4756901" lon="16.445577"><ele>1063.0</ele><time>2026-05-03T10:30:53.59Z</time></trkpt><trkpt lat="39.4755804" lon="16.445681"><ele>1067.0</ele><time>2026-05-03T10:30:54.608Z</time></trkpt><trkpt lat="39.4754756" lon="16.4458191"><ele>1071.3333333333335</ele><time>2026-05-03T10:30:55.606Z</time></trkpt><trkpt lat="39.4753814" lon="16.4459752"><ele>1075.6666666666667</ele><time>2026-05-03T10:30:56.615Z</time></trkpt><trkpt lat="39.4752956" lon="16.446147"><ele>1080.0</ele><time>2026-05-03T10:30:57.604Z</time></trkpt><trkpt lat="39.475234" lon="16.4463119"><ele>1080.0</ele><time>2026-05-03T10:30:58.598Z</time></trkpt><trkpt lat="39.4751746" lon="16.4464484"><ele>1080.0</ele><time>2026-05-03T10:30:59.605Z</time></trkpt><trkpt lat="39.4750878" lon="16.4465544"><ele>1080.0</ele><time>2026-05-03T10:31:00.608Z</time></trkpt><trkpt lat="39.4749878" lon="16.4466313"><ele>1080.0</ele><time>2026-05-03T10:31:01.602Z</time></trkpt><trkpt lat="39.4748937" lon="16.4466878"><ele>1080.0</ele><time>2026-05-03T10:31:02.596Z</time></trkpt><trkpt lat="39.4748009" lon="16.4467012"><ele>1080.0</ele><time>2026-05-03T10:31:03.626Z</time></trkpt><trkpt lat="39.4747122" lon="16.4466672"><ele>1080.0</ele><time>2026-05-03T10:31:04.598Z</time></trkpt><trkpt lat="39.4746141" lon="16.446599"><ele>1080.0</ele><time>2026-05-03T10:31:05.613Z</time></trkpt><trkpt lat="39.4745137" lon="16.4465304"><ele>1080.0</ele><time>2026-05-03T10:31:06.602Z</time></trkpt><trkpt lat="39.4744061" lon="16.4464433"><ele>1084.0</ele><time>2026-05-03T10:31:07.601Z</time></trkpt><trkpt lat="39.4742965" lon="16.4463447"><ele>1088.0</ele><time>2026-05-03T10:31:08.602Z</time></trkpt><trkpt lat="39.4741898" lon="16.4462437"><ele>1092.0</ele><time>2026-05-03T10:31:09.608Z</time></trkpt><trkpt lat="39.4740791" lon="16.4461638"><ele>1096.0</ele><time>2026-05-03T10:31:10.598Z</time></trkpt><trkpt lat="39.4739717" lon="16.4460999"><ele>1097.25</ele><time>2026-05-03T10:31:11.617Z</time></trkpt><trkpt lat="39.4738675" lon="16.4460806"><ele>1098.5</ele><time>2026-05-03T10:31:12.605Z</time></trkpt><trkpt lat="39.4737471" lon="16.4460997"><ele>1099.75</ele><time>2026-05-03T10:31:13.6Z</time></trkpt><trkpt lat="39.47363" lon="16.4461655"><ele>1101.0</ele><time>2026-05-03T10:31:14.606Z</time></trkpt><trkpt lat="39.4735201" lon="16.4462786"><ele>1100.0</ele><time>2026-05-03T10:31:15.598Z</time></trkpt><trkpt lat="39.4734091" lon="16.446419"><ele>1099.0</ele><time>2026-05-03T10:31:16.599Z</time></trkpt><trkpt lat="39.4732984" lon="16.4465807"><ele>1098.0</ele><time>2026-05-03T10:31:17.596Z</time></trkpt><trkpt lat="39.4731863" lon="16.4467543"><ele>1098.0</ele><time>2026-05-03T10:31:18.599Z</time></trkpt><trkpt lat="39.4730709" lon="16.4469266"><ele>1098.0</ele><time>2026-05-03T10:31:19.6Z</time></trkpt><trkpt lat="39.4729538" lon="16.4471023"><ele>1098.0</ele><time>2026-05-03T10:31:20.6Z</time></trkpt><trkpt lat="39.47284" lon="16.4472884"><ele>1098.3333333333333</ele><time>2026-05-03T10:31:21.609Z</time></trkpt><trkpt lat="39.4727236" lon="16.4474788"><ele>1098.6666666666665</ele><time>2026-05-03T10:31:22.617Z</time></trkpt><trkpt lat="39.4725983" lon="16.4476598"><ele>1099.0</ele><time>2026-05-03T10:31:23.601Z</time></trkpt><trkpt lat="39.4724814" lon="16.447842"><ele>1101.75</ele><time>2026-05-03T10:31:24.608Z</time></trkpt><trkpt lat="39.4723812" lon="16.4480084"><ele>1104.5</ele><time>2026-05-03T10:31:25.606Z</time></trkpt><trkpt lat="39.4722957" lon="16.4481472"><ele>1107.25</ele><time>2026-05-03T10:31:26.621Z</time></trkpt><trkpt lat="39.4722191" lon="16.4482713"><ele>1110.0</ele><time>2026-05-03T10:31:27.593Z</time></trkpt><trkpt lat="39.4721386" lon="16.448352"><ele>1107.8</ele><time>2026-05-03T10:31:28.607Z</time></trkpt><trkpt lat="39.4720531" lon="16.4483817"><ele>1105.6</ele><time>2026-05-03T10:31:29.597Z</time></trkpt><trkpt lat="39.4719614" lon="16.4483725"><ele>1103.4</ele><time>2026-05-03T10:31:30.603Z</time></trkpt><trkpt lat="39.4718636" lon="16.44831"><ele>1101.2</ele><time>2026-05-03T10:31:31.606Z</time></trkpt><trkpt lat="39.4717749" lon="16.4482001"><ele>1099.0</ele><time>2026-05-03T10:31:32.606Z</time></trkpt><trkpt lat="39.47171" lon="16.4480396"><ele>1097.75</ele><time>2026-05-03T10:31:33.602Z</time></trkpt><trkpt lat="39.4716597" lon="16.4478764"><ele>1096.5</ele><time>2026-05-03T10:31:34.587Z</time></trkpt><trkpt lat="39.4716018" lon="16.4477579"><ele>1095.25</ele><time>2026-05-03T10:31:35.602Z</time></trkpt><trkpt lat="39.4715138" lon="16.4476627"><ele>1094.0</ele><time>2026-05-03T10:31:36.613Z</time></trkpt><trkpt lat="39.4713991" lon="16.4475945"><ele>1094.0</ele><time>2026-05-03T10:31:37.591Z</time></trkpt><trkpt lat="39.4713023" lon="16.4475621"><ele>1094.0</ele><time>2026-05-03T10:31:38.609Z</time></trkpt><trkpt lat="39.4712195" lon="16.4475776"><ele>1094.0</ele><time>2026-05-03T10:31:39.603Z</time></trkpt><trkpt lat="39.4711603" lon="16.4476478"><ele>1094.0</ele><time>2026-05-03T10:31:40.619Z</time></trkpt><trkpt lat="39.4711274" lon="16.4477546"><ele>1094.0</ele><time>2026-05-03T10:31:41.606Z</time></trkpt><trkpt lat="39.4711249" lon="16.447894"><ele>1096.5</ele><time>2026-05-03T10:31:42.616Z</time></trkpt><trkpt lat="39.4711131" lon="16.4480437"><ele>1099.0</ele><time>2026-05-03T10:31:43.613Z</time></trkpt><trkpt lat="39.4710553" lon="16.448196"><ele>1101.5</ele><time>2026-05-03T10:31:44.604Z</time></trkpt><trkpt lat="39.4709509" lon="16.4483387"><ele>1104.0</ele><time>2026-05-03T10:31:45.613Z</time></trkpt><trkpt lat="39.4708187" lon="16.4484632"><ele>1104.0</ele><time>2026-05-03T10:31:46.606Z</time></trkpt><trkpt lat="39.4706761" lon="16.4485708"><ele>1104.0</ele><time>2026-05-03T10:31:47.615Z</time></trkpt><trkpt lat="39.4705156" lon="16.4486594"><ele>1104.0</ele><time>2026-05-03T10:31:48.609Z</time></trkpt><trkpt lat="39.4703392" lon="16.4487216"><ele>1104.0</ele><time>2026-05-03T10:31:49.613Z</time></trkpt><trkpt lat="39.4701643" lon="16.4487679"><ele>1104.0</ele><time>2026-05-03T10:31:50.619Z</time></trkpt><trkpt lat="39.4700256" lon="16.4487995"><ele>1104.0</ele><time>2026-05-03T10:31:51.604Z</time></trkpt><trkpt lat="39.4699151" lon="16.4488255"><ele>1104.0</ele><time>2026-05-03T10:31:52.604Z</time></trkpt><trkpt lat="39.469826" lon="16.4488132"><ele>1104.0</ele><time>2026-05-03T10:31:53.593Z</time></trkpt><trkpt lat="39.4697508" lon="16.4487576"><ele>1104.0</ele><time>2026-05-03T10:31:54.607Z</time></trkpt><trkpt lat="39.4696859" lon="16.4486332"><ele>1104.0</ele><time>2026-05-03T10:31:55.61Z</time></trkpt><trkpt lat="39.4696366" lon="16.4484825"><ele>1104.0</ele><time>2026-05-03T10:31:56.607Z</time></trkpt><trkpt lat="39.4695771" lon="16.4483293"><ele>1109.0</ele><time>2026-05-03T10:31:57.593Z</time></trkpt><trkpt lat="39.4694879" lon="16.4481842"><ele>1114.0</ele><time>2026-05-03T10:31:58.598Z</time></trkpt><trkpt lat="39.4693814" lon="16.4480311"><ele>1119.0</ele><time>2026-05-03T10:31:59.606Z</time></trkpt><trkpt lat="39.4692879" lon="16.4478695"><ele>1119.0</ele><time>2026-05-03T10:32:00.604Z</time></trkpt><trkpt lat="39.4692274" lon="16.447717"><ele>1119.0</ele><time>2026-05-03T10:32:01.612Z</time></trkpt><trkpt lat="39.4691727" lon="16.4476161"><ele>1119.0</ele><time>2026-05-03T10:32:02.612Z</time></trkpt><trkpt lat="39.4690874" lon="16.4475572"><ele>1119.0</ele><time>2026-05-03T10:32:03.605Z</time></trkpt><trkpt lat="39.4689892" lon="16.4475606"><ele>1119.0</ele><time>2026-05-03T10:32:04.611Z</time></trkpt><trkpt lat="39.4688909" lon="16.4476308"><ele>1119.0</ele><time>2026-05-03T10:32:05.605Z</time></trkpt><trkpt lat="39.4688015" lon="16.4477433"><ele>1119.0</ele><time>2026-05-03T10:32:06.618Z</time></trkpt><trkpt lat="39.46871" lon="16.4478752"><ele>1119.0</ele><time>2026-05-03T10:32:07.59Z</time></trkpt><trkpt lat="39.4685956" lon="16.4479962"><ele>1119.0</ele><time>2026-05-03T10:32:08.6Z</time></trkpt><trkpt lat="39.4684902" lon="16.4480994"><ele>1121.25</ele><time>2026-05-03T10:32:09.604Z</time></trkpt><trkpt lat="39.4684089" lon="16.4482151"><ele>1123.5</ele><time>2026-05-03T10:32:10.604Z</time></trkpt><trkpt lat="39.4683724" lon="16.4483517"><ele>1125.75</ele><time>2026-05-03T10:32:11.602Z</time></trkpt><trkpt lat="39.4683842" lon="16.4484908"><ele>1128.0</ele><time>2026-05-03T10:32:12.61Z</time></trkpt><trkpt lat="39.4684428" lon="16.4486262"><ele>1128.0</ele><time>2026-05-03T10:32:13.597Z</time></trkpt><trkpt lat="39.4685381" lon="16.4487547"><ele>1128.0</ele><time>2026-05-03T10:32:14.605Z</time></trkpt><trkpt lat="39.4686327" lon="16.4489059"><ele>1128.0</ele><time>2026-05-03T10:32:15.592Z</time></trkpt><trkpt lat="39.4687049" lon="16.449081"><ele>1128.0</ele><time>2026-05-03T10:32:16.624Z</time></trkpt><trkpt lat="39.4687596" lon="16.4492376"><ele>1130.0</ele><time>2026-05-03T10:32:17.607Z</time></trkpt><trkpt lat="39.4687739" lon="16.4493981"><ele>1132.0</ele><time>2026-05-03T10:32:18.607Z</time></trkpt><trkpt lat="39.4687383" lon="16.4495639"><ele>1134.0</ele><time>2026-05-03T10:32:19.614Z</time></trkpt><trkpt lat="39.4687002" lon="16.4497377"><ele>1136.0</ele><time>2026-05-03T10:32:20.628Z</time></trkpt><trkpt lat="39.468643" lon="16.4499197"><ele>1137.3333333333335</ele><time>2026-05-03T10:32:21.607Z</time></trkpt><trkpt lat="39.4685737" lon="16.4501139"><ele>1138.6666666666667</ele><time>2026-05-03T10:32:22.617Z</time></trkpt><trkpt lat="39.4685059" lon="16.4503172"><ele>1140.0</ele><time>2026-05-03T10:32:23.599Z</time></trkpt><trkpt lat="39.4684464" lon="16.4505223"><ele>1141.0</ele><time>2026-05-03T10:32:24.604Z</time></trkpt><trkpt lat="39.4683944" lon="16.4507163"><ele>1142.0</ele><time>2026-05-03T10:32:25.601Z</time></trkpt><trkpt lat="39.468387" lon="16.4509224"><ele>1143.0</ele><time>2026-05-03T10:32:26.608Z</time></trkpt><trkpt lat="39.4684038" lon="16.4511424"><ele>1143.0</ele><time>2026-05-03T10:32:27.6Z</time></trkpt><trkpt lat="39.4684117" lon="16.4513716"><ele>1143.0</ele><time>2026-05-03T10:32:28.617Z</time></trkpt><trkpt lat="39.4684099" lon="16.4515856"><ele>1143.0</ele><time>2026-05-03T10:32:29.608Z</time></trkpt><trkpt lat="39.4684168" lon="16.4517641"><ele>1143.0</ele><time>2026-05-03T10:32:30.611Z</time></trkpt><trkpt lat="39.4684307" lon="16.4519055"><ele>1143.0</ele><time>2026-05-03T10:32:31.601Z</time></trkpt><trkpt lat="39.468427" lon="16.452028"><ele>1143.0</ele><time>2026-05-03T10:32:32.617Z</time></trkpt><trkpt lat="39.4683935" lon="16.4521233"><ele>1143.0</ele><time>2026-05-03T10:32:33.602Z</time></trkpt><trkpt lat="39.4683263" lon="16.4521931"><ele>1143.0</ele><time>2026-05-03T10:32:34.61Z</time></trkpt><trkpt lat="39.4682317" lon="16.4522473"><ele>1142.25</ele><time>2026-05-03T10:32:35.605Z</time></trkpt><trkpt lat="39.4681189" lon="16.4522957"><ele>1141.5</ele><time>2026-05-03T10:32:36.602Z</time></trkpt><trkpt lat="39.4680232" lon="16.4524093"><ele>1140.75</ele><time>2026-05-03T10:32:37.595Z</time></trkpt><trkpt lat="39.4679563" lon="16.4525604"><ele>1140.0</ele><time>2026-05-03T10:32:38.608Z</time></trkpt><trkpt lat="39.4679313" lon="16.4527463"><ele>1139.0</ele><time>2026-05-03T10:32:39.611Z</time></trkpt><trkpt lat="39.4679428" lon="16.4529152"><ele>1138.0</ele><time>2026-05-03T10:32:40.606Z</time></trkpt><trkpt lat="39.4679486" lon="16.4530441"><ele>1137.0</ele><time>2026-05-03T10:32:41.603Z</time></trkpt><trkpt lat="39.4679216" lon="16.4531686"><ele>1136.0</ele><time>2026-05-03T10:32:42.609Z</time></trkpt><trkpt lat="39.4678607" lon="16.4532852"><ele>1135.0</ele><time>2026-05-03T10:32:43.617Z</time></trkpt><trkpt lat="39.4677725" lon="16.4533562"><ele>1137.5</ele><time>2026-05-03T10:32:44.611Z</time></trkpt><trkpt lat="39.4676608" lon="16.4533719"><ele>1140.0</ele><time>2026-05-03T10:32:45.61Z</time></trkpt><trkpt lat="39.4675432" lon="16.4533288"><ele>1142.5</ele><time>2026-05-03T10:32:46.614Z</time></trkpt><trkpt lat="39.4674166" lon="16.4532628"><ele>1145.0</ele><time>2026-05-03T10:32:47.605Z</time></trkpt><trkpt lat="39.4672826" lon="16.4531845"><ele>1145.0</ele><time>2026-05-03T10:32:48.631Z</time></trkpt><trkpt lat="39.4671627" lon="16.45313"><ele>1145.0</ele><time>2026-05-03T10:32:49.601Z</time></trkpt><trkpt lat="39.4670597" lon="16.4531425"><ele>1145.0</ele><time>2026-05-03T10:32:50.611Z</time></trkpt><trkpt lat="39.4669667" lon="16.4532114"><ele>1145.0</ele><time>2026-05-03T10:32:51.615Z</time></trkpt><trkpt lat="39.4668847" lon="16.4533344"><ele>1145.5</ele><time>2026-05-03T10:32:52.605Z</time></trkpt><trkpt lat="39.4667981" lon="16.4534541"><ele>1146.0</ele><time>2026-05-03T10:32:53.605Z</time></trkpt><trkpt lat="39.4666897" lon="16.4535332"><ele>1146.5</ele><time>2026-05-03T10:32:54.626Z</time></trkpt><trkpt lat="39.4665528" lon="16.4535693"><ele>1147.0</ele><time>2026-05-03T10:32:55.613Z</time></trkpt><trkpt lat="39.4664033" lon="16.4535792"><ele>1146.5</ele><time>2026-05-03T10:32:56.627Z</time></trkpt><trkpt lat="39.466251" lon="16.4535699"><ele>1146.0</ele><time>2026-05-03T10:32:57.603Z</time></trkpt><trkpt lat="39.4661156" lon="16.4535924"><ele>1145.5</ele><time>2026-05-03T10:32:58.623Z</time></trkpt><trkpt lat="39.4660021" lon="16.4536812"><ele>1145.0</ele><time>2026-05-03T10:32:59.6Z</time></trkpt><trkpt lat="39.4659035" lon="16.4538221"><ele>1145.0</ele><time>2026-05-03T10:33:00.619Z</time></trkpt><trkpt lat="39.4658113" lon="16.4539592"><ele>1145.0</ele><time>2026-05-03T10:33:01.61Z</time></trkpt><trkpt lat="39.4656925" lon="16.454058"><ele>1145.0</ele><time>2026-05-03T10:33:02.61Z</time></trkpt><trkpt lat="39.4655584" lon="16.4541078"><ele>1145.0</ele><time>2026-05-03T10:33:03.605Z</time></trkpt><trkpt lat="39.4654439" lon="16.4541601"><ele>1144.5</ele><time>2026-05-03T10:33:04.615Z</time></trkpt><trkpt lat="39.4653657" lon="16.4542537"><ele>1144.0</ele><time>2026-05-03T10:33:05.615Z</time></trkpt><trkpt lat="39.4653124" lon="16.4543963"><ele>1143.5</ele><time>2026-05-03T10:33:06.593Z</time></trkpt><trkpt lat="39.4652829" lon="16.4545708"><ele>1143.0</ele><time>2026-05-03T10:33:07.612Z</time></trkpt><trkpt lat="39.4652746" lon="16.454762"><ele>1143.0</ele><time>2026-05-03T10:33:08.61Z</time></trkpt><trkpt lat="39.4652971" lon="16.454963"><ele>1143.0</ele><time>2026-05-03T10:33:09.581Z</time></trkpt><trkpt lat="39.4653372" lon="16.4551448"><ele>1143.0</ele><time>2026-05-03T10:33:10.612Z</time></trkpt><trkpt lat="39.4653605" lon="16.4553217"><ele>1143.0</ele><time>2026-05-03T10:33:11.604Z</time></trkpt><trkpt lat="39.4653493" lon="16.4555207"><ele>1142.75</ele><time>2026-05-03T10:33:12.614Z</time></trkpt><trkpt lat="39.4653136" lon="16.4557167"><ele>1142.5</ele><time>2026-05-03T10:33:13.604Z</time></trkpt><trkpt lat="39.4652644" lon="16.4558918"><ele>1142.25</ele><time>2026-05-03T10:33:14.608Z</time></trkpt><trkpt lat="39.465199" lon="16.4560286"><ele>1142.0</ele><time>2026-05-03T10:33:15.602Z</time></trkpt><trkpt lat="39.4651246" lon="16.4561361"><ele>1142.0</ele><time>2026-05-03T10:33:16.604Z</time></trkpt><trkpt lat="39.4650373" lon="16.4562125"><ele>1142.0</ele><time>2026-05-03T10:33:17.602Z</time></trkpt><trkpt lat="39.4649334" lon="16.4562669"><ele>1142.0</ele><time>2026-05-03T10:33:18.606Z</time></trkpt><trkpt lat="39.4648171" lon="16.4562954"><ele>1142.0</ele><time>2026-05-03T10:33:19.608Z</time></trkpt><trkpt lat="39.4646892" lon="16.456276"><ele>1140.6666666666667</ele><time>2026-05-03T10:33:20.618Z</time></trkpt><trkpt lat="39.4645451" lon="16.4562338"><ele>1139.3333333333333</ele><time>2026-05-03T10:33:21.607Z</time></trkpt><trkpt lat="39.4643849" lon="16.4561818"><ele>1138.0</ele><time>2026-05-03T10:33:22.616Z</time></trkpt><trkpt lat="39.464224" lon="16.4561269"><ele>1138.0</ele><time>2026-05-03T10:33:23.607Z</time></trkpt><trkpt lat="39.4640758" lon="16.4560664"><ele>1138.0</ele><time>2026-05-03T10:33:24.621Z</time></trkpt><trkpt lat="39.4639446" lon="16.4560115"><ele>1138.0</ele><time>2026-05-03T10:33:25.615Z</time></trkpt><trkpt lat="39.4638381" lon="16.4559736"><ele>1138.0</ele><time>2026-05-03T10:33:26.615Z</time></trkpt><trkpt lat="39.4637483" lon="16.4559522"><ele>1137.6</ele><time>2026-05-03T10:33:27.617Z</time></trkpt><trkpt lat="39.4636552" lon="16.4559473"><ele>1137.1999999999998</ele><time>2026-05-03T10:33:28.594Z</time></trkpt><trkpt lat="39.4635608" lon="16.455978"><ele>1136.8</ele><time>2026-05-03T10:33:29.617Z</time></trkpt><trkpt lat="39.4634638" lon="16.4560566"><ele>1136.3999999999999</ele><time>2026-05-03T10:33:30.605Z</time></trkpt><trkpt lat="39.4633884" lon="16.456187"><ele>1136.0</ele><time>2026-05-03T10:33:31.616Z</time></trkpt><trkpt lat="39.4633327" lon="16.4563355"><ele>1135.0</ele><time>2026-05-03T10:33:32.608Z</time></trkpt><trkpt lat="39.4633192" lon="16.4565034"><ele>1134.0</ele><time>2026-05-03T10:33:33.61Z</time></trkpt><trkpt lat="39.4633512" lon="16.4566804"><ele>1133.0</ele><time>2026-05-03T10:33:34.622Z</time></trkpt><trkpt lat="39.4634005" lon="16.4568543"><ele>1132.0</ele><time>2026-05-03T10:33:35.605Z</time></trkpt><trkpt lat="39.4634345" lon="16.4570227"><ele>1131.0</ele><time>2026-05-03T10:33:36.609Z</time></trkpt><trkpt lat="39.4634402" lon="16.4571682"><ele>1130.0</ele><time>2026-05-03T10:33:37.606Z</time></trkpt><trkpt lat="39.4634191" lon="16.4573058"><ele>1129.0</ele><time>2026-05-03T10:33:38.606Z</time></trkpt><trkpt lat="39.4633549" lon="16.4574277"><ele>1128.0</ele><time>2026-05-03T10:33:39.612Z</time></trkpt><trkpt lat="39.4632505" lon="16.4575285"><ele>1128.0</ele><time>2026-05-03T10:33:40.615Z</time></trkpt><trkpt lat="39.4631276" lon="16.4576119"><ele>1128.0</ele><time>2026-05-03T10:33:41.594Z</time></trkpt><trkpt lat="39.4630007" lon="16.4576773"><ele>1128.0</ele><time>2026-05-03T10:33:42.603Z</time></trkpt><trkpt lat="39.4628529" lon="16.4577074"><ele>1128.0</ele><time>2026-05-03T10:33:43.6Z</time></trkpt><trkpt lat="39.4626924" lon="16.4577177"><ele>1127.25</ele><time>2026-05-03T10:33:44.613Z</time></trkpt><trkpt lat="39.4625375" lon="16.4577303"><ele>1126.5</ele><time>2026-05-03T10:33:45.607Z</time></trkpt><trkpt lat="39.4623958" lon="16.4577423"><ele>1125.75</ele><time>2026-05-03T10:33:46.616Z</time></trkpt><trkpt lat="39.4622759" lon="16.4577159"><ele>1125.0</ele><time>2026-05-03T10:33:47.61Z</time></trkpt><trkpt lat="39.4621684" lon="16.4576258"><ele>1124.0</ele><time>2026-05-03T10:33:48.596Z</time></trkpt><trkpt lat="39.4620713" lon="16.4575"><ele>1123.0</ele><time>2026-05-03T10:33:49.608Z</time></trkpt><trkpt lat="39.4619806" lon="16.4573744"><ele>1122.0</ele><time>2026-05-03T10:33:50.61Z</time></trkpt><trkpt lat="39.4618863" lon="16.457295"><ele>1121.0</ele><time>2026-05-03T10:33:51.597Z</time></trkpt><trkpt lat="39.4617667" lon="16.4572726"><ele>1121.0</ele><time>2026-05-03T10:33:52.612Z</time></trkpt><trkpt lat="39.46166" lon="16.4572973"><ele>1121.0</ele><time>2026-05-03T10:33:53.604Z</time></trkpt><trkpt lat="39.4615462" lon="16.4573765"><ele>1121.0</ele><time>2026-05-03T10:33:54.608Z</time></trkpt><trkpt lat="39.4614595" lon="16.4575144"><ele>1121.0</ele><time>2026-05-03T10:33:55.6Z</time></trkpt><trkpt lat="39.4613919" lon="16.4576974"><ele>1121.0</ele><time>2026-05-03T10:33:56.601Z</time></trkpt><trkpt lat="39.4613301" lon="16.4579086"><ele>1121.0</ele><time>2026-05-03T10:33:57.601Z</time></trkpt><trkpt lat="39.4612541" lon="16.4581352"><ele>1121.0</ele><time>2026-05-03T10:33:58.602Z</time></trkpt><trkpt lat="39.4611646" lon="16.4583609"><ele>1122.0</ele><time>2026-05-03T10:33:59.607Z</time></trkpt><trkpt lat="39.46109" lon="16.4585705"><ele>1123.0</ele><time>2026-05-03T10:34:00.602Z</time></trkpt><trkpt lat="39.4610203" lon="16.4587554"><ele>1124.0</ele><time>2026-05-03T10:34:01.598Z</time></trkpt><trkpt lat="39.4609453" lon="16.4589267"><ele>1120.6666666666667</ele><time>2026-05-03T10:34:02.609Z</time></trkpt><trkpt lat="39.4608342" lon="16.4591054"><ele>1117.3333333333333</ele><time>2026-05-03T10:34:03.604Z</time></trkpt><trkpt lat="39.4606964" lon="16.4592776"><ele>1114.0</ele><time>2026-05-03T10:34:04.6Z</time></trkpt><trkpt lat="39.4605596" lon="16.459444"><ele>1114.3333333333333</ele><time>2026-05-03T10:34:05.604Z</time></trkpt><trkpt lat="39.4604353" lon="16.4596074"><ele>1114.6666666666667</ele><time>2026-05-03T10:34:06.61Z</time></trkpt><trkpt lat="39.4603158" lon="16.4597642"><ele>1115.0</ele><time>2026-05-03T10:34:07.59Z</time></trkpt><trkpt lat="39.4601986" lon="16.4599124"><ele>1113.3333333333335</ele><time>2026-05-03T10:34:08.609Z</time></trkpt><trkpt lat="39.4600832" lon="16.4600613"><ele>1111.6666666666667</ele><time>2026-05-03T10:34:09.595Z</time></trkpt><trkpt lat="39.4599686" lon="16.4602165"><ele>1110.0</ele><time>2026-05-03T10:34:10.616Z</time></trkpt><trkpt lat="39.4598498" lon="16.4603716"><ele>1109.3333333333333</ele><time>2026-05-03T10:34:11.603Z</time></trkpt><trkpt lat="39.4597307" lon="16.4605292"><ele>1108.6666666666665</ele><time>2026-05-03T10:34:12.607Z</time></trkpt><trkpt lat="39.4596151" lon="16.4606819"><ele>1108.0</ele><time>2026-05-03T10:34:13.61Z</time></trkpt><trkpt lat="39.4595041" lon="16.4608225"><ele>1109.25</ele><time>2026-05-03T10:34:14.604Z</time></trkpt><trkpt lat="39.4594055" lon="16.4609492"><ele>1110.5</ele><time>2026-05-03T10:34:15.603Z</time></trkpt><trkpt lat="39.4593141" lon="16.4610605"><ele>1111.75</ele><time>2026-05-03T10:34:16.613Z</time></trkpt><trkpt lat="39.4592258" lon="16.4611541"><ele>1113.0</ele><time>2026-05-03T10:34:17.606Z</time></trkpt><trkpt lat="39.4591408" lon="16.4612357"><ele>1112.0</ele><time>2026-05-03T10:34:18.614Z</time></trkpt><trkpt lat="39.4590525" lon="16.4612957"><ele>1111.0</ele><time>2026-05-03T10:34:19.613Z</time></trkpt><trkpt lat="39.4589504" lon="16.4613546"><ele>1110.0</ele><time>2026-05-03T10:34:20.619Z</time></trkpt><trkpt lat="39.4588312" lon="16.4614184"><ele>1109.0</ele><time>2026-05-03T10:34:21.611Z</time></trkpt><trkpt lat="39.4586852" lon="16.461463"><ele>1108.3333333333335</ele><time>2026-05-03T10:34:22.609Z</time></trkpt><trkpt lat="39.4585171" lon="16.4614851"><ele>1107.6666666666667</ele><time>2026-05-03T10:34:23.61Z</time></trkpt><trkpt lat="39.4583419" lon="16.4615048"><ele>1107.0</ele><time>2026-05-03T10:34:24.605Z</time></trkpt><trkpt lat="39.4581585" lon="16.4615244"><ele>1107.0</ele><time>2026-05-03T10:34:25.608Z</time></trkpt><trkpt lat="39.4579904" lon="16.4615471"><ele>1107.0</ele><time>2026-05-03T10:34:26.611Z</time></trkpt><trkpt lat="39.457842" lon="16.4615771"><ele>1107.0</ele><time>2026-05-03T10:34:27.614Z</time></trkpt><trkpt lat="39.4577144" lon="16.4616432"><ele>1107.3333333333333</ele><time>2026-05-03T10:34:28.621Z</time></trkpt><trkpt lat="39.4575991" lon="16.4617557"><ele>1107.6666666666665</ele><time>2026-05-03T10:34:29.61Z</time></trkpt><trkpt lat="39.4574985" lon="16.4619148"><ele>1108.0</ele><time>2026-05-03T10:34:30.619Z</time></trkpt><trkpt lat="39.4574115" lon="16.4621082"><ele>1106.0</ele><time>2026-05-03T10:34:31.616Z</time></trkpt><trkpt lat="39.4573253" lon="16.4623217"><ele>1104.0</ele><time>2026-05-03T10:34:32.615Z</time></trkpt><trkpt lat="39.4572388" lon="16.4625334"><ele>1102.0</ele><time>2026-05-03T10:34:33.614Z</time></trkpt><trkpt lat="39.4571587" lon="16.462731"><ele>1105.0</ele><time>2026-05-03T10:34:34.612Z</time></trkpt><trkpt lat="39.4570848" lon="16.4629109"><ele>1108.0</ele><time>2026-05-03T10:34:35.608Z</time></trkpt><trkpt lat="39.4570069" lon="16.4630856"><ele>1111.0</ele><time>2026-05-03T10:34:36.61Z</time></trkpt><trkpt lat="39.4569347" lon="16.4632693"><ele>1111.0</ele><time>2026-05-03T10:34:37.591Z</time></trkpt><trkpt lat="39.4568607" lon="16.4634642"><ele>1111.0</ele><time>2026-05-03T10:34:38.61Z</time></trkpt><trkpt lat="39.4567762" lon="16.463663"><ele>1111.0</ele><time>2026-05-03T10:34:39.606Z</time></trkpt><trkpt lat="39.4566849" lon="16.4638591"><ele>1110.0</ele><time>2026-05-03T10:34:40.62Z</time></trkpt><trkpt lat="39.4565974" lon="16.4640619"><ele>1109.0</ele><time>2026-05-03T10:34:41.607Z</time></trkpt><trkpt lat="39.4565191" lon="16.4642462"><ele>1108.0</ele><time>2026-05-03T10:34:42.609Z</time></trkpt><trkpt lat="39.4564305" lon="16.4644153"><ele>1108.0</ele><time>2026-05-03T10:34:43.609Z</time></trkpt><trkpt lat="39.4563234" lon="16.464575"><ele>1108.0</ele><time>2026-05-03T10:34:44.61Z</time></trkpt><trkpt lat="39.4561997" lon="16.4647384"><ele>1108.0</ele><time>2026-05-03T10:34:45.616Z</time></trkpt><trkpt lat="39.4560733" lon="16.4649141"><ele>1107.3333333333333</ele><time>2026-05-03T10:34:46.607Z</time></trkpt><trkpt lat="39.4559426" lon="16.4650979"><ele>1106.6666666666667</ele><time>2026-05-03T10:34:47.602Z</time></trkpt><trkpt lat="39.4558111" lon="16.4652844"><ele>1106.0</ele><time>2026-05-03T10:34:48.623Z</time></trkpt><trkpt lat="39.455683" lon="16.4654632"><ele>1106.0</ele><time>2026-05-03T10:34:49.611Z</time></trkpt><trkpt lat="39.4555632" lon="16.4656494"><ele>1106.0</ele><time>2026-05-03T10:34:50.608Z</time></trkpt><trkpt lat="39.4554606" lon="16.4658551"><ele>1106.0</ele><time>2026-05-03T10:34:51.612Z</time></trkpt><trkpt lat="39.4553712" lon="16.4660826"><ele>1106.3333333333335</ele><time>2026-05-03T10:34:52.614Z</time></trkpt><trkpt lat="39.4552954" lon="16.4663231"><ele>1106.6666666666667</ele><time>2026-05-03T10:34:53.606Z</time></trkpt><trkpt lat="39.4552195" lon="16.4665694"><ele>1107.0</ele><time>2026-05-03T10:34:54.611Z</time></trkpt><trkpt lat="39.4551405" lon="16.4668097"><ele>1107.0</ele><time>2026-05-03T10:34:55.605Z</time></trkpt><trkpt lat="39.4550636" lon="16.4670492"><ele>1107.0</ele><time>2026-05-03T10:34:56.625Z</time></trkpt><trkpt lat="39.4549676" lon="16.4672814"><ele>1107.0</ele><time>2026-05-03T10:34:57.609Z</time></trkpt><trkpt lat="39.4548591" lon="16.4675132"><ele>1108.0</ele><time>2026-05-03T10:34:58.607Z</time></trkpt><trkpt lat="39.4547436" lon="16.4677532"><ele>1109.0</ele><time>2026-05-03T10:34:59.608Z</time></trkpt><trkpt lat="39.4546285" lon="16.4680033"><ele>1110.0</ele><time>2026-05-03T10:35:00.602Z</time></trkpt><trkpt lat="39.4545083" lon="16.468265"><ele>1112.0</ele><time>2026-05-03T10:35:01.6Z</time></trkpt><trkpt lat="39.4543792" lon="16.4685266"><ele>1114.0</ele><time>2026-05-03T10:35:02.611Z</time></trkpt><trkpt lat="39.4542505" lon="16.4687863"><ele>1114.0</ele><time>2026-05-03T10:35:03.615Z</time></trkpt><trkpt lat="39.4541255" lon="16.4690444"><ele>1114.0</ele><time>2026-05-03T10:35:04.606Z</time></trkpt><trkpt lat="39.4540012" lon="16.4693101"><ele>1114.0</ele><time>2026-05-03T10:35:05.61Z</time></trkpt><trkpt lat="39.453881" lon="16.4695793"><ele>1114.0</ele><time>2026-05-03T10:35:06.614Z</time></trkpt><trkpt lat="39.453766" lon="16.4698491"><ele>1120.5</ele><time>2026-05-03T10:35:07.613Z</time></trkpt><trkpt lat="39.4536495" lon="16.4701185"><ele>1127.0</ele><time>2026-05-03T10:35:08.608Z</time></trkpt><trkpt lat="39.4535342" lon="16.4703761"><ele>1127.0</ele><time>2026-05-03T10:35:09.605Z</time></trkpt><trkpt lat="39.4534264" lon="16.4706169"><ele>1127.0</ele><time>2026-05-03T10:35:10.617Z</time></trkpt><trkpt lat="39.453321" lon="16.4708428"><ele>1127.0</ele><time>2026-05-03T10:35:11.602Z</time></trkpt><trkpt lat="39.4532031" lon="16.4710648"><ele>1126.6666666666667</ele><time>2026-05-03T10:35:12.621Z</time></trkpt><trkpt lat="39.453073" lon="16.4712853"><ele>1126.3333333333333</ele><time>2026-05-03T10:35:13.61Z</time></trkpt><trkpt lat="39.4529412" lon="16.4715037"><ele>1126.0</ele><time>2026-05-03T10:35:14.616Z</time></trkpt><trkpt lat="39.4528105" lon="16.471729"><ele>1126.0</ele><time>2026-05-03T10:35:15.599Z</time></trkpt><trkpt lat="39.4526784" lon="16.4719549"><ele>1126.0</ele><time>2026-05-03T10:35:16.6Z</time></trkpt><trkpt lat="39.4525506" lon="16.4721737"><ele>1126.0</ele><time>2026-05-03T10:35:17.61Z</time></trkpt><trkpt lat="39.4524304" lon="16.4723821"><ele>1126.0</ele><time>2026-05-03T10:35:18.618Z</time></trkpt><trkpt lat="39.4523213" lon="16.4725723"><ele>1126.0</ele><time>2026-05-03T10:35:19.615Z</time></trkpt><trkpt lat="39.4522253" lon="16.472762"><ele>1126.0</ele><time>2026-05-03T10:35:20.609Z</time></trkpt><trkpt lat="39.4521451" lon="16.4729497"><ele>1125.6666666666665</ele><time>2026-05-03T10:35:21.599Z</time></trkpt><trkpt lat="39.4520697" lon="16.4731344"><ele>1125.3333333333333</ele><time>2026-05-03T10:35:22.614Z</time></trkpt><trkpt lat="39.4519942" lon="16.473325"><ele>1125.0</ele><time>2026-05-03T10:35:23.614Z</time></trkpt><trkpt lat="39.4519177" lon="16.4735265"><ele>1125.0</ele><time>2026-05-03T10:35:24.618Z</time></trkpt><trkpt lat="39.4518387" lon="16.47374"><ele>1125.0</ele><time>2026-05-03T10:35:25.606Z</time></trkpt><trkpt lat="39.4517534" lon="16.4739611"><ele>1125.0</ele><time>2026-05-03T10:35:26.611Z</time></trkpt><trkpt lat="39.4516669" lon="16.4741717"><ele>1125.0</ele><time>2026-05-03T10:35:27.61Z</time></trkpt><trkpt lat="39.4515848" lon="16.4743746"><ele>1125.0</ele><time>2026-05-03T10:35:28.601Z</time></trkpt><trkpt lat="39.451514" lon="16.4745584"><ele>1125.0</ele><time>2026-05-03T10:35:29.597Z</time></trkpt><trkpt lat="39.4514528" lon="16.4747132"><ele>1125.0</ele><time>2026-05-03T10:35:30.614Z</time></trkpt><trkpt lat="39.4513962" lon="16.474853"><ele>1125.0</ele><time>2026-05-03T10:35:31.592Z</time></trkpt><trkpt lat="39.4513374" lon="16.4749965"><ele>1125.0</ele><time>2026-05-03T10:35:32.615Z</time></trkpt><trkpt lat="39.4512708" lon="16.4751494"><ele>1125.0</ele><time>2026-05-03T10:35:33.6Z</time></trkpt><trkpt lat="39.4511849" lon="16.4753087"><ele>1124.3333333333333</ele><time>2026-05-03T10:35:34.616Z</time></trkpt><trkpt lat="39.4510881" lon="16.4754649"><ele>1123.6666666666665</ele><time>2026-05-03T10:35:35.603Z</time></trkpt><trkpt lat="39.4509876" lon="16.4756272"><ele>1123.0</ele><time>2026-05-03T10:35:36.604Z</time></trkpt><trkpt lat="39.4508745" lon="16.4757996"><ele>1123.0</ele><time>2026-05-03T10:35:37.597Z</time></trkpt><trkpt lat="39.4507478" lon="16.4759747"><ele>1123.0</ele><time>2026-05-03T10:35:38.607Z</time></trkpt><trkpt lat="39.4506033" lon="16.4761529"><ele>1123.0</ele><time>2026-05-03T10:35:39.601Z</time></trkpt><trkpt lat="39.4504562" lon="16.4763278"><ele>1121.3333333333333</ele><time>2026-05-03T10:35:40.606Z</time></trkpt><trkpt lat="39.45032" lon="16.4764937"><ele>1119.6666666666667</ele><time>2026-05-03T10:35:41.605Z</time></trkpt><trkpt lat="39.4501907" lon="16.4766493"><ele>1118.0</ele><time>2026-05-03T10:35:42.604Z</time></trkpt><trkpt lat="39.450068" lon="16.4767968"><ele>1118.0</ele><time>2026-05-03T10:35:43.607Z</time></trkpt><trkpt lat="39.4499505" lon="16.4769401"><ele>1118.0</ele><time>2026-05-03T10:35:44.604Z</time></trkpt><trkpt lat="39.4498375" lon="16.4770806"><ele>1118.0</ele><time>2026-05-03T10:35:45.602Z</time></trkpt><trkpt lat="39.4497304" lon="16.4772121"><ele>1117.25</ele><time>2026-05-03T10:35:46.613Z</time></trkpt><trkpt lat="39.4496263" lon="16.4773323"><ele>1116.5</ele><time>2026-05-03T10:35:47.59Z</time></trkpt><trkpt lat="39.4495282" lon="16.477449"><ele>1115.75</ele><time>2026-05-03T10:35:48.619Z</time></trkpt><trkpt lat="39.4494338" lon="16.4775631"><ele>1115.0</ele><time>2026-05-03T10:35:49.607Z</time></trkpt><trkpt lat="39.4493408" lon="16.4776716"><ele>1115.0</ele><time>2026-05-03T10:35:50.59Z</time></trkpt><trkpt lat="39.4492595" lon="16.47777"><ele>1115.0</ele><time>2026-05-03T10:35:51.594Z</time></trkpt><trkpt lat="39.4491893" lon="16.4778545"><ele>1115.0</ele><time>2026-05-03T10:35:52.612Z</time></trkpt><trkpt lat="39.4491279" lon="16.4779228"><ele>1115.0</ele><time>2026-05-03T10:35:53.614Z</time></trkpt><trkpt lat="39.4490769" lon="16.4779907"><ele>1115.0</ele><time>2026-05-03T10:35:54.62Z</time></trkpt><trkpt lat="39.449028" lon="16.4780585"><ele>1115.0</ele><time>2026-05-03T10:35:55.61Z</time></trkpt><trkpt lat="39.448979" lon="16.4781282"><ele>1114.8333333333335</ele><time>2026-05-03T10:35:56.605Z</time></trkpt><trkpt lat="39.4489356" lon="16.4781948"><ele>1114.6666666666667</ele><time>2026-05-03T10:35:57.6Z</time></trkpt><trkpt lat="39.4488939" lon="16.4782594"><ele>1114.5</ele><time>2026-05-03T10:35:58.62Z</time></trkpt><trkpt lat="39.4488452" lon="16.4783294"><ele>1114.3333333333333</ele><time>2026-05-03T10:35:59.6Z</time></trkpt><trkpt lat="39.4487845" lon="16.4784146"><ele>1114.1666666666665</ele><time>2026-05-03T10:36:00.611Z</time></trkpt><trkpt lat="39.4487179" lon="16.4785379"><ele>1114.0</ele><time>2026-05-03T10:36:01.595Z</time></trkpt><trkpt lat="39.4486309" lon="16.4786859"><ele>1114.0</ele><time>2026-05-03T10:36:02.602Z</time></trkpt><trkpt lat="39.4485306" lon="16.4788541"><ele>1114.0</ele><time>2026-05-03T10:36:03.614Z</time></trkpt><trkpt lat="39.4484281" lon="16.4790323"><ele>1114.0</ele><time>2026-05-03T10:36:04.607Z</time></trkpt><trkpt lat="39.4483306" lon="16.4792396"><ele>1114.0</ele><time>2026-05-03T10:36:05.61Z</time></trkpt><trkpt lat="39.4482307" lon="16.4794673"><ele>1114.0</ele><time>2026-05-03T10:36:06.607Z</time></trkpt><trkpt lat="39.4481153" lon="16.4797034"><ele>1114.0</ele><time>2026-05-03T10:36:07.591Z</time></trkpt><trkpt lat="39.4479917" lon="16.4799442"><ele>1121.5</ele><time>2026-05-03T10:36:08.612Z</time></trkpt><trkpt lat="39.4478685" lon="16.4801881"><ele>1129.0</ele><time>2026-05-03T10:36:09.604Z</time></trkpt><trkpt lat="39.4477553" lon="16.4804406"><ele>1129.5</ele><time>2026-05-03T10:36:10.614Z</time></trkpt><trkpt lat="39.4476388" lon="16.4806941"><ele>1130.0</ele><time>2026-05-03T10:36:11.621Z</time></trkpt><trkpt lat="39.4475163" lon="16.480949"><ele>1130.0</ele><time>2026-05-03T10:36:12.617Z</time></trkpt><trkpt lat="39.4473934" lon="16.4811894"><ele>1130.0</ele><time>2026-05-03T10:36:13.611Z</time></trkpt><trkpt lat="39.4472719" lon="16.481419"><ele>1130.0</ele><time>2026-05-03T10:36:14.613Z</time></trkpt><trkpt lat="39.4471411" lon="16.4816214"><ele>1130.0</ele><time>2026-05-03T10:36:15.6Z</time></trkpt><trkpt lat="39.4470041" lon="16.4818208"><ele>1130.0</ele><time>2026-05-03T10:36:16.604Z</time></trkpt><trkpt lat="39.4468607" lon="16.4820006"><ele>1130.0</ele><time>2026-05-03T10:36:17.605Z</time></trkpt><trkpt lat="39.4467079" lon="16.4821667"><ele>1130.0</ele><time>2026-05-03T10:36:18.626Z</time></trkpt><trkpt lat="39.4465481" lon="16.4823298"><ele>1130.0</ele><time>2026-05-03T10:36:19.605Z</time></trkpt><trkpt lat="39.4463856" lon="16.4824915"><ele>1130.0</ele><time>2026-05-03T10:36:20.606Z</time></trkpt><trkpt lat="39.446224" lon="16.4826574"><ele>1130.3333333333335</ele><time>2026-05-03T10:36:21.616Z</time></trkpt><trkpt lat="39.4460601" lon="16.4828196"><ele>1130.6666666666667</ele><time>2026-05-03T10:36:22.622Z</time></trkpt><trkpt lat="39.4458934" lon="16.4829793"><ele>1131.0</ele><time>2026-05-03T10:36:23.612Z</time></trkpt><trkpt lat="39.4457255" lon="16.4831348"><ele>1131.6666666666667</ele><time>2026-05-03T10:36:24.609Z</time></trkpt><trkpt lat="39.4455647" lon="16.4832801"><ele>1132.3333333333335</ele><time>2026-05-03T10:36:25.606Z</time></trkpt><trkpt lat="39.4454205" lon="16.4834135"><ele>1133.0</ele><time>2026-05-03T10:36:26.608Z</time></trkpt><trkpt lat="39.4452916" lon="16.4835315"><ele>1134.0</ele><time>2026-05-03T10:36:27.61Z</time></trkpt><trkpt lat="39.4451781" lon="16.483637"><ele>1135.0</ele><time>2026-05-03T10:36:28.617Z</time></trkpt><trkpt lat="39.4450779" lon="16.4837204"><ele>1136.0</ele><time>2026-05-03T10:36:29.602Z</time></trkpt><trkpt lat="39.4449753" lon="16.4837785"><ele>1137.0</ele><time>2026-05-03T10:36:30.608Z</time></trkpt><trkpt lat="39.4448705" lon="16.4837886"><ele>1137.0</ele><time>2026-05-03T10:36:31.614Z</time></trkpt><trkpt lat="39.4447685" lon="16.4837635"><ele>1137.0</ele><time>2026-05-03T10:36:32.61Z</time></trkpt><trkpt lat="39.4446706" lon="16.4836997"><ele>1137.0</ele><time>2026-05-03T10:36:33.602Z</time></trkpt><trkpt lat="39.4445574" lon="16.4836095"><ele>1137.0</ele><time>2026-05-03T10:36:34.609Z</time></trkpt><trkpt lat="39.444435" lon="16.4835065"><ele>1138.0</ele><time>2026-05-03T10:36:35.613Z</time></trkpt><trkpt lat="39.4443147" lon="16.4834075"><ele>1139.0</ele><time>2026-05-03T10:36:36.612Z</time></trkpt><trkpt lat="39.444211" lon="16.4833297"><ele>1140.0</ele><time>2026-05-03T10:36:37.621Z</time></trkpt><trkpt lat="39.4441085" lon="16.4832979"><ele>1141.0</ele><time>2026-05-03T10:36:38.611Z</time></trkpt><trkpt lat="39.4440148" lon="16.4833312"><ele>1141.0</ele><time>2026-05-03T10:36:39.604Z</time></trkpt><trkpt lat="39.4439416" lon="16.4833973"><ele>1141.0</ele><time>2026-05-03T10:36:40.625Z</time></trkpt><trkpt lat="39.4438998" lon="16.4835072"><ele>1141.0</ele><time>2026-05-03T10:36:41.603Z</time></trkpt><trkpt lat="39.4438902" lon="16.4836426"><ele>1141.0</ele><time>2026-05-03T10:36:42.603Z</time></trkpt><trkpt lat="39.443916" lon="16.4838044"><ele>1141.0</ele><time>2026-05-03T10:36:43.604Z</time></trkpt><trkpt lat="39.4439643" lon="16.4839692"><ele>1142.0</ele><time>2026-05-03T10:36:44.604Z</time></trkpt><trkpt lat="39.4440032" lon="16.4841638"><ele>1143.0</ele><time>2026-05-03T10:36:45.609Z</time></trkpt><trkpt lat="39.4440172" lon="16.4843738"><ele>1144.0</ele><time>2026-05-03T10:36:46.603Z</time></trkpt><trkpt lat="39.4440018" lon="16.4845909"><ele>1145.3333333333333</ele><time>2026-05-03T10:36:47.614Z</time></trkpt><trkpt lat="39.4439556" lon="16.4848149"><ele>1146.6666666666667</ele><time>2026-05-03T10:36:48.616Z</time></trkpt><trkpt lat="39.4438831" lon="16.4850444"><ele>1148.0</ele><time>2026-05-03T10:36:49.602Z</time></trkpt><trkpt lat="39.4438039" lon="16.4852854"><ele>1149.0</ele><time>2026-05-03T10:36:50.612Z</time></trkpt><trkpt lat="39.4437287" lon="16.4855494"><ele>1150.0</ele><time>2026-05-03T10:36:51.609Z</time></trkpt><trkpt lat="39.4436469" lon="16.4858282"><ele>1151.0</ele><time>2026-05-03T10:36:52.616Z</time></trkpt><trkpt lat="39.4435485" lon="16.4861114"><ele>1152.0</ele><time>2026-05-03T10:36:53.605Z</time></trkpt><trkpt lat="39.4434501" lon="16.4863995"><ele>1153.0</ele><time>2026-05-03T10:36:54.6Z</time></trkpt><trkpt lat="39.4433628" lon="16.4866967"><ele>1153.0</ele><time>2026-05-03T10:36:55.61Z</time></trkpt><trkpt lat="39.4432849" lon="16.4869738"><ele>1153.0</ele><time>2026-05-03T10:36:56.612Z</time></trkpt><trkpt lat="39.4432117" lon="16.4872231"><ele>1153.0</ele><time>2026-05-03T10:36:57.604Z</time></trkpt><trkpt lat="39.4431422" lon="16.4874364"><ele>1152.6666666666665</ele><time>2026-05-03T10:36:58.619Z</time></trkpt><trkpt lat="39.4430709" lon="16.4876196"><ele>1152.3333333333333</ele><time>2026-05-03T10:36:59.605Z</time></trkpt><trkpt lat="39.4429815" lon="16.4877714"><ele>1152.0</ele><time>2026-05-03T10:37:00.605Z</time></trkpt><trkpt lat="39.4428536" lon="16.4879002"><ele>1153.0</ele><time>2026-05-03T10:37:01.603Z</time></trkpt><trkpt lat="39.442707" lon="16.4880209"><ele>1154.0</ele><time>2026-05-03T10:37:02.61Z</time></trkpt><trkpt lat="39.4425501" lon="16.4881602"><ele>1155.0</ele><time>2026-05-03T10:37:03.605Z</time></trkpt><trkpt lat="39.4423793" lon="16.4883093"><ele>1155.0</ele><time>2026-05-03T10:37:04.614Z</time></trkpt><trkpt lat="39.4421972" lon="16.4884679"><ele>1155.0</ele><time>2026-05-03T10:37:05.615Z</time></trkpt><trkpt lat="39.4420205" lon="16.4886351"><ele>1155.0</ele><time>2026-05-03T10:37:06.605Z</time></trkpt><trkpt lat="39.4418467" lon="16.488822"><ele>1154.0</ele><time>2026-05-03T10:37:07.611Z</time></trkpt><trkpt lat="39.4416751" lon="16.4890266"><ele>1153.0</ele><time>2026-05-03T10:37:08.6Z</time></trkpt><trkpt lat="39.44151" lon="16.4892417"><ele>1153.0</ele><time>2026-05-03T10:37:09.6Z</time></trkpt><trkpt lat="39.4413383" lon="16.4894541"><ele>1153.0</ele><time>2026-05-03T10:37:10.617Z</time></trkpt><trkpt lat="39.4411621" lon="16.489663"><ele>1154.5</ele><time>2026-05-03T10:37:11.603Z</time></trkpt><trkpt lat="39.4409852" lon="16.4898635"><ele>1156.0</ele><time>2026-05-03T10:37:12.612Z</time></trkpt><trkpt lat="39.4408183" lon="16.4900453"><ele>1156.0</ele><time>2026-05-03T10:37:13.597Z</time></trkpt><trkpt lat="39.4406761" lon="16.4901931"><ele>1156.0</ele><time>2026-05-03T10:37:14.606Z</time></trkpt><trkpt lat="39.4405538" lon="16.49032"><ele>1156.0</ele><time>2026-05-03T10:37:15.625Z</time></trkpt><trkpt lat="39.4404467" lon="16.4904145"><ele>1156.5</ele><time>2026-05-03T10:37:16.596Z</time></trkpt><trkpt lat="39.4403474" lon="16.4904664"><ele>1157.0</ele><time>2026-05-03T10:37:17.609Z</time></trkpt><trkpt lat="39.4402485" lon="16.4904752"><ele>1157.5</ele><time>2026-05-03T10:37:18.6Z</time></trkpt><trkpt lat="39.4401322" lon="16.4904353"><ele>1158.0</ele><time>2026-05-03T10:37:19.609Z</time></trkpt><trkpt lat="39.44001" lon="16.4903712"><ele>1158.0</ele><time>2026-05-03T10:37:20.603Z</time></trkpt><trkpt lat="39.4398822" lon="16.4902919"><ele>1158.0</ele><time>2026-05-03T10:37:21.602Z</time></trkpt><trkpt lat="39.439745" lon="16.4902074"><ele>1158.0</ele><time>2026-05-03T10:37:22.61Z</time></trkpt><trkpt lat="39.4396103" lon="16.4901213"><ele>1158.0</ele><time>2026-05-03T10:37:23.607Z</time></trkpt><trkpt lat="39.439521" lon="16.490009"><ele>1160.25</ele><time>2026-05-03T10:37:24.615Z</time></trkpt><trkpt lat="39.4394588" lon="16.4898728"><ele>1162.5</ele><time>2026-05-03T10:37:25.605Z</time></trkpt><trkpt lat="39.4394227" lon="16.4897218"><ele>1164.75</ele><time>2026-05-03T10:37:26.604Z</time></trkpt><trkpt lat="39.4393747" lon="16.4895811"><ele>1167.0</ele><time>2026-05-03T10:37:27.606Z</time></trkpt><trkpt lat="39.4392644" lon="16.4894554"><ele>1167.0</ele><time>2026-05-03T10:37:28.611Z</time></trkpt><trkpt lat="39.4391253" lon="16.4893502"><ele>1167.0</ele><time>2026-05-03T10:37:29.615Z</time></trkpt><trkpt lat="39.4389882" lon="16.4892366"><ele>1167.0</ele><time>2026-05-03T10:37:30.605Z</time></trkpt><trkpt lat="39.4388714" lon="16.4891325"><ele>1166.6</ele><time>2026-05-03T10:37:31.622Z</time></trkpt><trkpt lat="39.4387665" lon="16.4890664"><ele>1166.2</ele><time>2026-05-03T10:37:32.601Z</time></trkpt><trkpt lat="39.4386475" lon="16.4890372"><ele>1165.8</ele><time>2026-05-03T10:37:33.602Z</time></trkpt><trkpt lat="39.438544" lon="16.4890594"><ele>1165.4</ele><time>2026-05-03T10:37:34.606Z</time></trkpt><trkpt lat="39.4384667" lon="16.4891384"><ele>1165.0</ele><time>2026-05-03T10:37:35.605Z</time></trkpt><trkpt lat="39.4384238" lon="16.4892442"><ele>1165.0</ele><time>2026-05-03T10:37:36.608Z</time></trkpt><trkpt lat="39.4384311" lon="16.4893958"><ele>1165.0</ele><time>2026-05-03T10:37:37.592Z</time></trkpt><trkpt lat="39.4384744" lon="16.4895615"><ele>1165.0</ele><time>2026-05-03T10:37:38.604Z</time></trkpt><trkpt lat="39.4385673" lon="16.489736"><ele>1165.0</ele><time>2026-05-03T10:37:39.598Z</time></trkpt><trkpt lat="39.4386693" lon="16.4899119"><ele>1166.0</ele><time>2026-05-03T10:37:40.615Z</time></trkpt><trkpt lat="39.4387482" lon="16.4901016"><ele>1167.0</ele><time>2026-05-03T10:37:41.602Z</time></trkpt><trkpt lat="39.4387924" lon="16.4903116"><ele>1168.0</ele><time>2026-05-03T10:37:42.603Z</time></trkpt><trkpt lat="39.4388098" lon="16.4905341"><ele>1170.0</ele><time>2026-05-03T10:37:43.617Z</time></trkpt><trkpt lat="39.4388247" lon="16.4907664"><ele>1172.0</ele><time>2026-05-03T10:37:44.605Z</time></trkpt><trkpt lat="39.4388424" lon="16.4909778"><ele>1174.0</ele><time>2026-05-03T10:37:45.595Z</time></trkpt><trkpt lat="39.4388798" lon="16.4911681"><ele>1172.6666666666665</ele><time>2026-05-03T10:37:46.601Z</time></trkpt><trkpt lat="39.4389278" lon="16.4913574"><ele>1171.3333333333333</ele><time>2026-05-03T10:37:47.618Z</time></trkpt><trkpt lat="39.4389934" lon="16.4915265"><ele>1170.0</ele><time>2026-05-03T10:37:48.617Z</time></trkpt><trkpt lat="39.4390924" lon="16.4916848"><ele>1170.0</ele><time>2026-05-03T10:37:49.599Z</time></trkpt><trkpt lat="39.4392208" lon="16.4918341"><ele>1170.0</ele><time>2026-05-03T10:37:50.623Z</time></trkpt><trkpt lat="39.4393656" lon="16.4919945"><ele>1170.0</ele><time>2026-05-03T10:37:51.604Z</time></trkpt><trkpt lat="39.4395121" lon="16.4921636"><ele>1170.6666666666667</ele><time>2026-05-03T10:37:52.615Z</time></trkpt><trkpt lat="39.439664" lon="16.492325"><ele>1171.3333333333335</ele><time>2026-05-03T10:37:53.604Z</time></trkpt><trkpt lat="39.4398338" lon="16.4924644"><ele>1172.0</ele><time>2026-05-03T10:37:54.608Z</time></trkpt><trkpt lat="39.4400061" lon="16.4926027"><ele>1172.0</ele><time>2026-05-03T10:37:55.617Z</time></trkpt><trkpt lat="39.4401636" lon="16.4927622"><ele>1172.0</ele><time>2026-05-03T10:37:56.607Z</time></trkpt><trkpt lat="39.440292" lon="16.4929408"><ele>1172.0</ele><time>2026-05-03T10:37:57.602Z</time></trkpt><trkpt lat="39.4403998" lon="16.4931378"><ele>1173.0</ele><time>2026-05-03T10:37:58.611Z</time></trkpt><trkpt lat="39.4404765" lon="16.4933419"><ele>1174.0</ele><time>2026-05-03T10:37:59.598Z</time></trkpt><trkpt lat="39.4405231" lon="16.4935422"><ele>1175.0</ele><time>2026-05-03T10:38:00.615Z</time></trkpt><trkpt lat="39.4405385" lon="16.4937527"><ele>1173.6666666666667</ele><time>2026-05-03T10:38:01.607Z</time></trkpt><trkpt lat="39.4405254" lon="16.4939785"><ele>1172.3333333333333</ele><time>2026-05-03T10:38:02.607Z</time></trkpt><trkpt lat="39.4404688" lon="16.494204"><ele>1171.0</ele><time>2026-05-03T10:38:03.586Z</time></trkpt><trkpt lat="39.4403967" lon="16.4944453"><ele>1171.0</ele><time>2026-05-03T10:38:04.622Z</time></trkpt><trkpt lat="39.4403293" lon="16.4947064"><ele>1171.0</ele><time>2026-05-03T10:38:05.599Z</time></trkpt><trkpt lat="39.4402552" lon="16.4949605"><ele>1171.0</ele><time>2026-05-03T10:38:06.602Z</time></trkpt><trkpt lat="39.4401828" lon="16.4951892"><ele>1171.0</ele><time>2026-05-03T10:38:07.587Z</time></trkpt><trkpt lat="39.4401272" lon="16.4954024"><ele>1171.0</ele><time>2026-05-03T10:38:08.604Z</time></trkpt><trkpt lat="39.4400977" lon="16.4956213"><ele>1171.0</ele><time>2026-05-03T10:38:09.592Z</time></trkpt><trkpt lat="39.4401041" lon="16.4958549"><ele>1171.0</ele><time>2026-05-03T10:38:10.614Z</time></trkpt><trkpt lat="39.4401294" lon="16.4961054"><ele>1171.0</ele><time>2026-05-03T10:38:11.604Z</time></trkpt><trkpt lat="39.4401426" lon="16.496355"><ele>1171.0</ele><time>2026-05-03T10:38:12.607Z</time></trkpt><trkpt lat="39.4401115" lon="16.4965997"><ele>1172.0</ele><time>2026-05-03T10:38:13.605Z</time></trkpt><trkpt lat="39.4400403" lon="16.4968167"><ele>1173.0</ele><time>2026-05-03T10:38:14.6Z</time></trkpt><trkpt lat="39.4399727" lon="16.4969948"><ele>1174.0</ele><time>2026-05-03T10:38:15.61Z</time></trkpt><trkpt lat="39.4399275" lon="16.4971648"><ele>1174.75</ele><time>2026-05-03T10:38:16.604Z</time></trkpt><trkpt lat="39.4399313" lon="16.4972938"><ele>1175.5</ele><time>2026-05-03T10:38:17.595Z</time></trkpt><trkpt lat="39.4399643" lon="16.4974313"><ele>1176.25</ele><time>2026-05-03T10:38:18.602Z</time></trkpt><trkpt lat="39.4400342" lon="16.4975637"><ele>1177.0</ele><time>2026-05-03T10:38:19.615Z</time></trkpt><trkpt lat="39.4401089" lon="16.4976768"><ele>1177.0</ele><time>2026-05-03T10:38:20.612Z</time></trkpt><trkpt lat="39.4401315" lon="16.4978025"><ele>1177.0</ele><time>2026-05-03T10:38:21.611Z</time></trkpt><trkpt lat="39.4401012" lon="16.4979335"><ele>1177.0</ele><time>2026-05-03T10:38:22.606Z</time></trkpt><trkpt lat="39.4400243" lon="16.4980454"><ele>1177.0</ele><time>2026-05-03T10:38:23.605Z</time></trkpt><trkpt lat="39.4399249" lon="16.498092"><ele>1177.0</ele><time>2026-05-03T10:38:24.61Z</time></trkpt><trkpt lat="39.439827" lon="16.4981432"><ele>1178.75</ele><time>2026-05-03T10:38:25.604Z</time></trkpt><trkpt lat="39.4397498" lon="16.4982616"><ele>1180.5</ele><time>2026-05-03T10:38:26.621Z</time></trkpt><trkpt lat="39.4397032" lon="16.4984241"><ele>1182.25</ele><time>2026-05-03T10:38:27.59Z</time></trkpt><trkpt lat="39.4396851" lon="16.4986054"><ele>1184.0</ele><time>2026-05-03T10:38:28.599Z</time></trkpt><trkpt lat="39.4396836" lon="16.4987722"><ele>1184.0</ele><time>2026-05-03T10:38:29.601Z</time></trkpt><trkpt lat="39.4397206" lon="16.4989281"><ele>1184.0</ele><time>2026-05-03T10:38:30.603Z</time></trkpt><trkpt lat="39.4397814" lon="16.4990562"><ele>1184.0</ele><time>2026-05-03T10:38:31.641Z</time></trkpt><trkpt lat="39.4398862" lon="16.4991654"><ele>1184.0</ele><time>2026-05-03T10:38:32.61Z</time></trkpt><trkpt lat="39.440001" lon="16.4992587"><ele>1184.0</ele><time>2026-05-03T10:38:33.596Z</time></trkpt><trkpt lat="39.4400965" lon="16.4993639"><ele>1184.0</ele><time>2026-05-03T10:38:34.605Z</time></trkpt><trkpt lat="39.4401655" lon="16.4994695"><ele>1184.0</ele><time>2026-05-03T10:38:35.596Z</time></trkpt><trkpt lat="39.4401952" lon="16.4995814"><ele>1184.0</ele><time>2026-05-03T10:38:36.611Z</time></trkpt><trkpt lat="39.4401743" lon="16.4996945"><ele>1184.0</ele><time>2026-05-03T10:38:37.598Z</time></trkpt><trkpt lat="39.4401113" lon="16.4998004"><ele>1184.75</ele><time>2026-05-03T10:38:38.607Z</time></trkpt><trkpt lat="39.4400305" lon="16.4999014"><ele>1185.5</ele><time>2026-05-03T10:38:39.607Z</time></trkpt><trkpt lat="39.4399536" lon="16.500004"><ele>1186.25</ele><time>2026-05-03T10:38:40.597Z</time></trkpt><trkpt lat="39.4399237" lon="16.5001439"><ele>1187.0</ele><time>2026-05-03T10:38:41.603Z</time></trkpt><trkpt lat="39.4399706" lon="16.5003526"><ele>1189.6666666666667</ele><time>2026-05-03T10:38:42.601Z</time></trkpt><trkpt lat="39.4399889" lon="16.5005547"><ele>1192.3333333333333</ele><time>2026-05-03T10:38:43.61Z</time></trkpt><trkpt lat="39.4399734" lon="16.5007655"><ele>1195.0</ele><time>2026-05-03T10:38:44.603Z</time></trkpt><trkpt lat="39.4399438" lon="16.5009587"><ele>1195.0</ele><time>2026-05-03T10:38:45.606Z</time></trkpt><trkpt lat="39.4399498" lon="16.5011309"><ele>1195.0</ele><time>2026-05-03T10:38:46.619Z</time></trkpt><trkpt lat="39.4400007" lon="16.5013034"><ele>1195.0</ele><time>2026-05-03T10:38:47.608Z</time></trkpt><trkpt lat="39.4400525" lon="16.5014778"><ele>1195.0</ele><time>2026-05-03T10:38:48.594Z</time></trkpt><trkpt lat="39.4400479" lon="16.5016799"><ele>1196.0</ele><time>2026-05-03T10:38:49.585Z</time></trkpt><trkpt lat="39.4400081" lon="16.5018808"><ele>1197.0</ele><time>2026-05-03T10:38:50.587Z</time></trkpt><trkpt lat="39.4399534" lon="16.5020827"><ele>1198.0</ele><time>2026-05-03T10:38:51.598Z</time></trkpt><trkpt lat="39.4399244" lon="16.5022629"><ele>1198.75</ele><time>2026-05-03T10:38:52.604Z</time></trkpt><trkpt lat="39.4399353" lon="16.5024195"><ele>1199.5</ele><time>2026-05-03T10:38:53.603Z</time></trkpt><trkpt lat="39.4399958" lon="16.5025593"><ele>1200.25</ele><time>2026-05-03T10:38:54.597Z</time></trkpt><trkpt lat="39.4400907" lon="16.5027007"><ele>1201.0</ele><time>2026-05-03T10:38:55.592Z</time></trkpt><trkpt lat="39.4401594" lon="16.5028335"><ele>1201.25</ele><time>2026-05-03T10:38:56.602Z</time></trkpt><trkpt lat="39.440182" lon="16.5029791"><ele>1201.5</ele><time>2026-05-03T10:38:57.604Z</time></trkpt><trkpt lat="39.4401545" lon="16.5031389"><ele>1201.75</ele><time>2026-05-03T10:38:58.601Z</time></trkpt><trkpt lat="39.4400935" lon="16.5033083"><ele>1202.0</ele><time>2026-05-03T10:38:59.59Z</time></trkpt><trkpt lat="39.4400311" lon="16.5034813"><ele>1202.0</ele><time>2026-05-03T10:39:00.615Z</time></trkpt><trkpt lat="39.439972" lon="16.5036544"><ele>1202.0</ele><time>2026-05-03T10:39:01.598Z</time></trkpt><trkpt lat="39.4399135" lon="16.5038053"><ele>1202.0</ele><time>2026-05-03T10:39:02.601Z</time></trkpt><trkpt lat="39.4398538" lon="16.5039156"><ele>1202.0</ele><time>2026-05-03T10:39:03.588Z</time></trkpt><trkpt lat="39.4397834" lon="16.5039881"><ele>1202.8</ele><time>2026-05-03T10:39:04.606Z</time></trkpt><trkpt lat="39.4396871" lon="16.5040144"><ele>1203.6</ele><time>2026-05-03T10:39:05.598Z</time></trkpt><trkpt lat="39.4395855" lon="16.5040115"><ele>1204.3999999999999</ele><time>2026-05-03T10:39:06.612Z</time></trkpt><trkpt lat="39.4394677" lon="16.5040123"><ele>1205.2</ele><time>2026-05-03T10:39:07.595Z</time></trkpt><trkpt lat="39.4393793" lon="16.5040886"><ele>1206.0</ele><time>2026-05-03T10:39:08.609Z</time></trkpt><trkpt lat="39.4393293" lon="16.5042312"><ele>1206.0</ele><time>2026-05-03T10:39:09.611Z</time></trkpt><trkpt lat="39.4392988" lon="16.5044015"><ele>1206.0</ele><time>2026-05-03T10:39:10.599Z</time></trkpt><trkpt lat="39.4392887" lon="16.5045891"><ele>1206.0</ele><time>2026-05-03T10:39:11.614Z</time></trkpt><trkpt lat="39.439281" lon="16.5047783"><ele>1206.0</ele><time>2026-05-03T10:39:12.603Z</time></trkpt><trkpt lat="39.4392599" lon="16.5049608"><ele>1207.6666666666667</ele><time>2026-05-03T10:39:13.595Z</time></trkpt><trkpt lat="39.4391949" lon="16.5051235"><ele>1209.3333333333335</ele><time>2026-05-03T10:39:14.604Z</time></trkpt><trkpt lat="39.4390711" lon="16.5052395"><ele>1211.0</ele><time>2026-05-03T10:39:15.604Z</time></trkpt><trkpt lat="39.4389276" lon="16.5053533"><ele>1210.75</ele><time>2026-05-03T10:39:16.61Z</time></trkpt><trkpt lat="39.4388206" lon="16.505472"><ele>1210.5</ele><time>2026-05-03T10:39:17.6Z</time></trkpt><trkpt lat="39.4387628" lon="16.5056001"><ele>1210.25</ele><time>2026-05-03T10:39:18.606Z</time></trkpt><trkpt lat="39.4387331" lon="16.5057596"><ele>1210.0</ele><time>2026-05-03T10:39:19.608Z</time></trkpt><trkpt lat="39.4387277" lon="16.5059441"><ele>1210.0</ele><time>2026-05-03T10:39:20.597Z</time></trkpt><trkpt lat="39.4387447" lon="16.5061382"><ele>1210.0</ele><time>2026-05-03T10:39:21.608Z</time></trkpt><trkpt lat="39.438792" lon="16.5063372"><ele>1210.0</ele><time>2026-05-03T10:39:22.609Z</time></trkpt><trkpt lat="39.4388532" lon="16.5065583"><ele>1211.6666666666665</ele><time>2026-05-03T10:39:23.606Z</time></trkpt><trkpt lat="39.4388833" lon="16.5067942"><ele>1213.3333333333333</ele><time>2026-05-03T10:39:24.617Z</time></trkpt><trkpt lat="39.4388888" lon="16.5070348"><ele>1215.0</ele><time>2026-05-03T10:39:25.61Z</time></trkpt><trkpt lat="39.4388962" lon="16.507255"><ele>1211.6666666666667</ele><time>2026-05-03T10:39:26.62Z</time></trkpt><trkpt lat="39.4389326" lon="16.5074625"><ele>1208.3333333333335</ele><time>2026-05-03T10:39:27.599Z</time></trkpt><trkpt lat="39.4390139" lon="16.5076478"><ele>1205.0</ele><time>2026-05-03T10:39:28.609Z</time></trkpt><trkpt lat="39.4391035" lon="16.5078141"><ele>1202.0</ele><time>2026-05-03T10:39:29.606Z</time></trkpt><trkpt lat="39.4392006" lon="16.5079513"><ele>1199.0</ele><time>2026-05-03T10:39:30.628Z</time></trkpt><trkpt lat="39.4393172" lon="16.5080516"><ele>1196.0</ele><time>2026-05-03T10:39:31.618Z</time></trkpt><trkpt lat="39.4394707" lon="16.5081089"><ele>1193.0</ele><time>2026-05-03T10:39:32.61Z</time></trkpt><trkpt lat="39.4396309" lon="16.5081399"><ele>1195.75</ele><time>2026-05-03T10:39:33.619Z</time></trkpt><trkpt lat="39.439769" lon="16.5081959"><ele>1198.5</ele><time>2026-05-03T10:39:34.622Z</time></trkpt><trkpt lat="39.4398749" lon="16.5082907"><ele>1201.25</ele><time>2026-05-03T10:39:35.604Z</time></trkpt><trkpt lat="39.4399554" lon="16.5084273"><ele>1204.0</ele><time>2026-05-03T10:39:36.608Z</time></trkpt><trkpt lat="39.439989" lon="16.5086158"><ele>1200.6666666666665</ele><time>2026-05-03T10:39:37.59Z</time></trkpt><trkpt lat="39.4400233" lon="16.5088176"><ele>1197.3333333333333</ele><time>2026-05-03T10:39:38.606Z</time></trkpt><trkpt lat="39.4400877" lon="16.5090186"><ele>1194.0</ele><time>2026-05-03T10:39:39.608Z</time></trkpt><trkpt lat="39.4401726" lon="16.5092168"><ele>1194.0</ele><time>2026-05-03T10:39:40.612Z</time></trkpt><trkpt lat="39.4402659" lon="16.5093458"><ele>1194.0</ele><time>2026-05-03T10:39:41.601Z</time></trkpt><trkpt lat="39.4403391" lon="16.509445"><ele>1194.0</ele><time>2026-05-03T10:39:42.612Z</time></trkpt><trkpt lat="39.4403719" lon="16.5095682"><ele>1194.0</ele><time>2026-05-03T10:39:43.603Z</time></trkpt><trkpt lat="39.4403522" lon="16.509703"><ele>1194.0</ele><time>2026-05-03T10:39:44.608Z</time></trkpt><trkpt lat="39.4402866" lon="16.5098255"><ele>1193.25</ele><time>2026-05-03T10:39:45.604Z</time></trkpt><trkpt lat="39.440188" lon="16.5099162"><ele>1192.5</ele><time>2026-05-03T10:39:46.619Z</time></trkpt><trkpt lat="39.4400623" lon="16.509954"><ele>1191.75</ele><time>2026-05-03T10:39:47.59Z</time></trkpt><trkpt lat="39.4399235" lon="16.5099787"><ele>1191.0</ele><time>2026-05-03T10:39:48.595Z</time></trkpt><trkpt lat="39.4397862" lon="16.5100415"><ele>1191.0</ele><time>2026-05-03T10:39:49.615Z</time></trkpt><trkpt lat="39.4396588" lon="16.5101533"><ele>1191.0</ele><time>2026-05-03T10:39:50.619Z</time></trkpt><trkpt lat="39.4395482" lon="16.5102808"><ele>1191.0</ele><time>2026-05-03T10:39:51.614Z</time></trkpt><trkpt lat="39.4394551" lon="16.5104498"><ele>1190.5</ele><time>2026-05-03T10:39:52.603Z</time></trkpt><trkpt lat="39.4393763" lon="16.5106397"><ele>1190.0</ele><time>2026-05-03T10:39:53.612Z</time></trkpt><trkpt lat="39.4393285" lon="16.5108139"><ele>1189.5</ele><time>2026-05-03T10:39:54.609Z</time></trkpt><trkpt lat="39.4392962" lon="16.5109548"><ele>1189.0</ele><time>2026-05-03T10:39:55.587Z</time></trkpt><trkpt lat="39.439253" lon="16.5110699"><ele>1189.0</ele><time>2026-05-03T10:39:56.612Z</time></trkpt><trkpt lat="39.4391813" lon="16.5111527"><ele>1189.0</ele><time>2026-05-03T10:39:57.601Z</time></trkpt><trkpt lat="39.4390882" lon="16.5111917"><ele>1189.0</ele><time>2026-05-03T10:39:58.614Z</time></trkpt><trkpt lat="39.4389708" lon="16.511183"><ele>1189.0</ele><time>2026-05-03T10:39:59.6Z</time></trkpt><trkpt lat="39.4388605" lon="16.5111754"><ele>1189.0</ele><time>2026-05-03T10:40:00.61Z</time></trkpt><trkpt lat="39.4387688" lon="16.5112084"><ele>1188.2</ele><time>2026-05-03T10:40:01.623Z</time></trkpt><trkpt lat="39.4386928" lon="16.5112699"><ele>1187.4</ele><time>2026-05-03T10:40:02.613Z</time></trkpt><trkpt lat="39.4386563" lon="16.511357"><ele>1186.6</ele><time>2026-05-03T10:40:03.605Z</time></trkpt><trkpt lat="39.4386451" lon="16.51147"><ele>1185.8</ele><time>2026-05-03T10:40:04.602Z</time></trkpt><trkpt lat="39.4386598" lon="16.5116068"><ele>1185.0</ele><time>2026-05-03T10:40:05.618Z</time></trkpt><trkpt lat="39.4386931" lon="16.511757"><ele>1185.0</ele><time>2026-05-03T10:40:06.608Z</time></trkpt><trkpt lat="39.4387503" lon="16.5119157"><ele>1185.0</ele><time>2026-05-03T10:40:07.6Z</time></trkpt><trkpt lat="39.438819" lon="16.512094"><ele>1185.0</ele><time>2026-05-03T10:40:08.601Z</time></trkpt><trkpt lat="39.4388831" lon="16.5122969"><ele>1187.3333333333333</ele><time>2026-05-03T10:40:09.598Z</time></trkpt><trkpt lat="39.4389302" lon="16.5125233"><ele>1189.6666666666665</ele><time>2026-05-03T10:40:10.593Z</time></trkpt><trkpt lat="39.4389514" lon="16.5127585"><ele>1192.0</ele><time>2026-05-03T10:40:11.604Z</time></trkpt><trkpt lat="39.4389525" lon="16.5130059"><ele>1192.0</ele><time>2026-05-03T10:40:12.608Z</time></trkpt><trkpt lat="39.4389204" lon="16.5132629"><ele>1192.0</ele><time>2026-05-03T10:40:13.605Z</time></trkpt><trkpt lat="39.4388756" lon="16.513518"><ele>1192.0</ele><time>2026-05-03T10:40:14.62Z</time></trkpt><trkpt lat="39.4388328" lon="16.5137692"><ele>1194.6666666666665</ele><time>2026-05-03T10:40:15.594Z</time></trkpt><trkpt lat="39.4388154" lon="16.5140031"><ele>1197.3333333333333</ele><time>2026-05-03T10:40:16.61Z</time></trkpt><trkpt lat="39.4388149" lon="16.5142345"><ele>1200.0</ele><time>2026-05-03T10:40:17.597Z</time></trkpt><trkpt lat="39.4388178" lon="16.5144647"><ele>1203.3333333333333</ele><time>2026-05-03T10:40:18.597Z</time></trkpt><trkpt lat="39.4388053" lon="16.5146917"><ele>1206.6666666666665</ele><time>2026-05-03T10:40:19.604Z</time></trkpt><trkpt lat="39.4387644" lon="16.5149216"><ele>1210.0</ele><time>2026-05-03T10:40:20.607Z</time></trkpt><trkpt lat="39.4387173" lon="16.5151589"><ele>1210.0</ele><time>2026-05-03T10:40:21.587Z</time></trkpt><trkpt lat="39.4386656" lon="16.5154019"><ele>1210.0</ele><time>2026-05-03T10:40:22.574Z</time></trkpt><trkpt lat="39.4386092" lon="16.5156303"><ele>1210.0</ele><time>2026-05-03T10:40:23.608Z</time></trkpt><trkpt lat="39.4385549" lon="16.5158303"><ele>1210.0</ele><time>2026-05-03T10:40:24.608Z</time></trkpt><trkpt lat="39.4385096" lon="16.5160199"><ele>1210.0</ele><time>2026-05-03T10:40:25.599Z</time></trkpt><trkpt lat="39.4384681" lon="16.5162093"><ele>1210.0</ele><time>2026-05-03T10:40:26.608Z</time></trkpt><trkpt lat="39.4384283" lon="16.5163959"><ele>1209.0</ele><time>2026-05-03T10:40:27.596Z</time></trkpt><trkpt lat="39.4383914" lon="16.5165791"><ele>1208.0</ele><time>2026-05-03T10:40:28.61Z</time></trkpt><trkpt lat="39.4383525" lon="16.5167663"><ele>1207.0</ele><time>2026-05-03T10:40:29.598Z</time></trkpt><trkpt lat="39.4383129" lon="16.5169461"><ele>1206.0</ele><time>2026-05-03T10:40:30.6Z</time></trkpt><trkpt lat="39.4382719" lon="16.5171268"><ele>1205.5</ele><time>2026-05-03T10:40:31.614Z</time></trkpt><trkpt lat="39.438234" lon="16.5173071"><ele>1205.0</ele><time>2026-05-03T10:40:32.598Z</time></trkpt><trkpt lat="39.4381975" lon="16.5174855"><ele>1204.5</ele><time>2026-05-03T10:40:33.606Z</time></trkpt><trkpt lat="39.4381575" lon="16.5176614"><ele>1204.0</ele><time>2026-05-03T10:40:34.604Z</time></trkpt><trkpt lat="39.4381194" lon="16.517836"><ele>1204.0</ele><time>2026-05-03T10:40:35.617Z</time></trkpt><trkpt lat="39.4380786" lon="16.5180142"><ele>1204.0</ele><time>2026-05-03T10:40:36.612Z</time></trkpt><trkpt lat="39.4380382" lon="16.518198"><ele>1204.0</ele><time>2026-05-03T10:40:37.605Z</time></trkpt><trkpt lat="39.4379957" lon="16.518381"><ele>1204.0</ele><time>2026-05-03T10:40:38.59Z</time></trkpt><trkpt lat="39.4379462" lon="16.5185649"><ele>1205.75</ele><time>2026-05-03T10:40:39.587Z</time></trkpt><trkpt lat="39.4379051" lon="16.5187434"><ele>1207.5</ele><time>2026-05-03T10:40:40.597Z</time></trkpt><trkpt lat="39.4378849" lon="16.5189236"><ele>1209.25</ele><time>2026-05-03T10:40:41.596Z</time></trkpt><trkpt lat="39.4379007" lon="16.5191184"><ele>1211.0</ele><time>2026-05-03T10:40:42.59Z</time></trkpt><trkpt lat="39.4379316" lon="16.5193184"><ele>1211.0</ele><time>2026-05-03T10:40:43.612Z</time></trkpt><trkpt lat="39.437968" lon="16.5195249"><ele>1211.0</ele><time>2026-05-03T10:40:44.606Z</time></trkpt><trkpt lat="39.4380148" lon="16.519738"><ele>1211.0</ele><time>2026-05-03T10:40:45.6Z</time></trkpt><trkpt lat="39.4380545" lon="16.5199604"><ele>1211.0</ele><time>2026-05-03T10:40:46.605Z</time></trkpt><trkpt lat="39.4380907" lon="16.5201865"><ele>1211.0</ele><time>2026-05-03T10:40:47.605Z</time></trkpt><trkpt lat="39.4381314" lon="16.5204111"><ele>1211.0</ele><time>2026-05-03T10:40:48.611Z</time></trkpt><trkpt lat="39.4381784" lon="16.520614"><ele>1211.25</ele><time>2026-05-03T10:40:49.602Z</time></trkpt><trkpt lat="39.438249" lon="16.5207718"><ele>1211.5</ele><time>2026-05-03T10:40:50.61Z</time></trkpt><trkpt lat="39.4383489" lon="16.5208908"><ele>1211.75</ele><time>2026-05-03T10:40:51.608Z</time></trkpt><trkpt lat="39.4384671" lon="16.5209803"><ele>1212.0</ele><time>2026-05-03T10:40:52.615Z</time></trkpt><trkpt lat="39.4385632" lon="16.5210757"><ele>1212.0</ele><time>2026-05-03T10:40:53.596Z</time></trkpt><trkpt lat="39.4386362" lon="16.5212089"><ele>1212.0</ele><time>2026-05-03T10:40:54.605Z</time></trkpt><trkpt lat="39.438658" lon="16.521383"><ele>1212.0</ele><time>2026-05-03T10:40:55.575Z</time></trkpt><trkpt lat="39.4386374" lon="16.5215679"><ele>1212.0</ele><time>2026-05-03T10:40:56.58Z</time></trkpt><trkpt lat="39.4386059" lon="16.5217644"><ele>1211.0</ele><time>2026-05-03T10:40:57.575Z</time></trkpt><trkpt lat="39.4385847" lon="16.5219588"><ele>1210.0</ele><time>2026-05-03T10:40:58.58Z</time></trkpt><trkpt lat="39.4386071" lon="16.522172"><ele>1209.0</ele><time>2026-05-03T10:40:59.601Z</time></trkpt><trkpt lat="39.4386549" lon="16.5223885"><ele>1209.0</ele><time>2026-05-03T10:41:00.595Z</time></trkpt><trkpt lat="39.4387234" lon="16.5225683"><ele>1209.0</ele><time>2026-05-03T10:41:01.584Z</time></trkpt><trkpt lat="39.4387966" lon="16.5227215"><ele>1209.0</ele><time>2026-05-03T10:41:02.612Z</time></trkpt><trkpt lat="39.438893" lon="16.5228344"><ele>1209.0</ele><time>2026-05-03T10:41:03.599Z</time></trkpt><trkpt lat="39.4390094" lon="16.522902"><ele>1209.0</ele><time>2026-05-03T10:41:04.583Z</time></trkpt><trkpt lat="39.4391264" lon="16.5228983"><ele>1209.0</ele><time>2026-05-03T10:41:05.595Z</time></trkpt><trkpt lat="39.4392307" lon="16.5228535"><ele>1209.0</ele><time>2026-05-03T10:41:06.6Z</time></trkpt><trkpt lat="39.4393348" lon="16.5227515"><ele>1209.0</ele><time>2026-05-03T10:41:07.601Z</time></trkpt><trkpt lat="39.4394337" lon="16.5226317"><ele>1210.0</ele><time>2026-05-03T10:41:08.6Z</time></trkpt><trkpt lat="39.439555" lon="16.5225108"><ele>1211.0</ele><time>2026-05-03T10:41:09.602Z</time></trkpt><trkpt lat="39.4396927" lon="16.5223914"><ele>1212.0</ele><time>2026-05-03T10:41:10.623Z</time></trkpt><trkpt lat="39.4398379" lon="16.5222781"><ele>1212.0</ele><time>2026-05-03T10:41:11.604Z</time></trkpt><trkpt lat="39.4399914" lon="16.5222015"><ele>1212.0</ele><time>2026-05-03T10:41:12.597Z</time></trkpt><trkpt lat="39.440173" lon="16.5221628"><ele>1212.0</ele><time>2026-05-03T10:41:13.605Z</time></trkpt><trkpt lat="39.4403431" lon="16.5221616"><ele>1213.0</ele><time>2026-05-03T10:41:14.591Z</time></trkpt><trkpt lat="39.4404925" lon="16.5221781"><ele>1214.0</ele><time>2026-05-03T10:41:15.607Z</time></trkpt><trkpt lat="39.4406326" lon="16.5222226"><ele>1215.0</ele><time>2026-05-03T10:41:16.585Z</time></trkpt><trkpt lat="39.4407449" lon="16.5223088"><ele>1216.0</ele><time>2026-05-03T10:41:17.615Z</time></trkpt><trkpt lat="39.4408305" lon="16.5224199"><ele>1216.0</ele><time>2026-05-03T10:41:18.599Z</time></trkpt><trkpt lat="39.4408802" lon="16.5225402"><ele>1216.0</ele><time>2026-05-03T10:41:19.611Z</time></trkpt><trkpt lat="39.4408856" lon="16.5226644"><ele>1216.0</ele><time>2026-05-03T10:41:20.599Z</time></trkpt><trkpt lat="39.4408464" lon="16.5228022"><ele>1216.0</ele><time>2026-05-03T10:41:21.602Z</time></trkpt><trkpt lat="39.4407856" lon="16.5229467"><ele>1216.0</ele><time>2026-05-03T10:41:22.607Z</time></trkpt><trkpt lat="39.4407265" lon="16.5231083"><ele>1216.0</ele><time>2026-05-03T10:41:23.604Z</time></trkpt><trkpt lat="39.4406593" lon="16.5232943"><ele>1216.0</ele><time>2026-05-03T10:41:24.623Z</time></trkpt><trkpt lat="39.4405841" lon="16.5234928"><ele>1216.0</ele><time>2026-05-03T10:41:25.601Z</time></trkpt><trkpt lat="39.4405" lon="16.5236957"><ele>1215.0</ele><time>2026-05-03T10:41:26.614Z</time></trkpt><trkpt lat="39.4404164" lon="16.5239037"><ele>1214.0</ele><time>2026-05-03T10:41:27.594Z</time></trkpt><trkpt lat="39.4403351" lon="16.5241184"><ele>1213.0</ele><time>2026-05-03T10:41:28.591Z</time></trkpt><trkpt lat="39.440251" lon="16.5243409"><ele>1213.0</ele><time>2026-05-03T10:41:29.608Z</time></trkpt><trkpt lat="39.4401638" lon="16.524552"><ele>1213.0</ele><time>2026-05-03T10:41:30.607Z</time></trkpt><trkpt lat="39.4400723" lon="16.5247508"><ele>1213.0</ele><time>2026-05-03T10:41:31.612Z</time></trkpt><trkpt lat="39.4399593" lon="16.5249443"><ele>1214.6666666666665</ele><time>2026-05-03T10:41:32.623Z</time></trkpt><trkpt lat="39.4398158" lon="16.5251164"><ele>1216.3333333333333</ele><time>2026-05-03T10:41:33.593Z</time></trkpt><trkpt lat="39.4396537" lon="16.5252778"><ele>1218.0</ele><time>2026-05-03T10:41:34.609Z</time></trkpt><trkpt lat="39.4394892" lon="16.5254434"><ele>1218.0</ele><time>2026-05-03T10:41:35.599Z</time></trkpt><trkpt lat="39.439331" lon="16.5256151"><ele>1218.0</ele><time>2026-05-03T10:41:36.609Z</time></trkpt><trkpt lat="39.4391876" lon="16.5257644"><ele>1218.0</ele><time>2026-05-03T10:41:37.585Z</time></trkpt><trkpt lat="39.4390624" lon="16.5258935"><ele>1218.0</ele><time>2026-05-03T10:41:38.616Z</time></trkpt><trkpt lat="39.4389645" lon="16.526056"><ele>1218.0</ele><time>2026-05-03T10:41:39.594Z</time></trkpt><trkpt lat="39.4388924" lon="16.5262516"><ele>1218.0</ele><time>2026-05-03T10:41:40.603Z</time></trkpt><trkpt lat="39.438824" lon="16.5264806"><ele>1216.6666666666667</ele><time>2026-05-03T10:41:41.608Z</time></trkpt><trkpt lat="39.4387541" lon="16.526717"><ele>1215.3333333333335</ele><time>2026-05-03T10:41:42.613Z</time></trkpt><trkpt lat="39.4386769" lon="16.5269464"><ele>1214.0</ele><time>2026-05-03T10:41:43.599Z</time></trkpt><trkpt lat="39.4386056" lon="16.5271607"><ele>1214.0</ele><time>2026-05-03T10:41:44.607Z</time></trkpt><trkpt lat="39.4385482" lon="16.5273716"><ele>1214.0</ele><time>2026-05-03T10:41:45.602Z</time></trkpt><trkpt lat="39.4385092" lon="16.527601"><ele>1214.0</ele><time>2026-05-03T10:41:46.609Z</time></trkpt><trkpt lat="39.4384793" lon="16.5278449"><ele>1215.3333333333335</ele><time>2026-05-03T10:41:47.591Z</time></trkpt><trkpt lat="39.4384456" lon="16.5280715"><ele>1216.6666666666667</ele><time>2026-05-03T10:41:48.613Z</time></trkpt><trkpt lat="39.438409" lon="16.5282827"><ele>1218.0</ele><time>2026-05-03T10:41:49.612Z</time></trkpt><trkpt lat="39.4383453" lon="16.5284644"><ele>1218.0</ele><time>2026-05-03T10:41:50.609Z</time></trkpt><trkpt lat="39.4382446" lon="16.52864"><ele>1218.0</ele><time>2026-05-03T10:41:51.608Z</time></trkpt><trkpt lat="39.4381172" lon="16.5288151"><ele>1218.0</ele><time>2026-05-03T10:41:52.612Z</time></trkpt><trkpt lat="39.4379739" lon="16.5289907"><ele>1219.6666666666667</ele><time>2026-05-03T10:41:53.622Z</time></trkpt><trkpt lat="39.4378226" lon="16.5291675"><ele>1221.3333333333335</ele><time>2026-05-03T10:41:54.609Z</time></trkpt><trkpt lat="39.4376704" lon="16.5293477"><ele>1223.0</ele><time>2026-05-03T10:41:55.613Z</time></trkpt><trkpt lat="39.4375315" lon="16.5295221"><ele>1223.3333333333335</ele><time>2026-05-03T10:41:56.602Z</time></trkpt><trkpt lat="39.4373986" lon="16.5296854"><ele>1223.6666666666667</ele><time>2026-05-03T10:41:57.602Z</time></trkpt><trkpt lat="39.4372695" lon="16.5298488"><ele>1224.0</ele><time>2026-05-03T10:41:58.611Z</time></trkpt><trkpt lat="39.437149" lon="16.530047"><ele>1224.6666666666667</ele><time>2026-05-03T10:41:59.614Z</time></trkpt><trkpt lat="39.4370444" lon="16.5302651"><ele>1225.3333333333335</ele><time>2026-05-03T10:42:00.6Z</time></trkpt><trkpt lat="39.4369399" lon="16.5304854"><ele>1226.0</ele><time>2026-05-03T10:42:01.6Z</time></trkpt><trkpt lat="39.4368352" lon="16.5306547"><ele>1226.0</ele><time>2026-05-03T10:42:02.611Z</time></trkpt><trkpt lat="39.4367546" lon="16.5307847"><ele>1226.0</ele><time>2026-05-03T10:42:03.608Z</time></trkpt><trkpt lat="39.4366643" lon="16.5308686"><ele>1226.0</ele><time>2026-05-03T10:42:04.611Z</time></trkpt><trkpt lat="39.4365559" lon="16.530895"><ele>1226.0</ele><time>2026-05-03T10:42:05.601Z</time></trkpt><trkpt lat="39.4364444" lon="16.5308852"><ele>1226.0</ele><time>2026-05-03T10:42:06.605Z</time></trkpt><trkpt lat="39.4363337" lon="16.5308951"><ele>1226.0</ele><time>2026-05-03T10:42:07.598Z</time></trkpt><trkpt lat="39.4362481" lon="16.5309505"><ele>1226.0</ele><time>2026-05-03T10:42:08.596Z</time></trkpt><trkpt lat="39.4361929" lon="16.5310453"><ele>1226.0</ele><time>2026-05-03T10:42:09.6Z</time></trkpt><trkpt lat="39.4361778" lon="16.5311882"><ele>1226.0</ele><time>2026-05-03T10:42:10.609Z</time></trkpt><trkpt lat="39.4361808" lon="16.5313517"><ele>1225.8</ele><time>2026-05-03T10:42:11.601Z</time></trkpt><trkpt lat="39.4361583" lon="16.5315282"><ele>1225.6</ele><time>2026-05-03T10:42:12.593Z</time></trkpt><trkpt lat="39.4361229" lon="16.5316653"><ele>1225.4</ele><time>2026-05-03T10:42:13.614Z</time></trkpt><trkpt lat="39.4360873" lon="16.5317536"><ele>1225.2</ele><time>2026-05-03T10:42:14.602Z</time></trkpt><trkpt lat="39.43601" lon="16.5318139"><ele>1225.0</ele><time>2026-05-03T10:42:15.592Z</time></trkpt><trkpt lat="39.4359108" lon="16.5318495"><ele>1225.0</ele><time>2026-05-03T10:42:16.617Z</time></trkpt><trkpt lat="39.435809" lon="16.5319026"><ele>1225.0</ele><time>2026-05-03T10:42:17.602Z</time></trkpt><trkpt lat="39.4357452" lon="16.5320214"><ele>1225.0</ele><time>2026-05-03T10:42:18.61Z</time></trkpt><trkpt lat="39.435731" lon="16.5321984"><ele>1225.0</ele><time>2026-05-03T10:42:19.602Z</time></trkpt><trkpt lat="39.435716" lon="16.532387"><ele>1223.5</ele><time>2026-05-03T10:42:20.607Z</time></trkpt><trkpt lat="39.4356818" lon="16.5325738"><ele>1222.0</ele><time>2026-05-03T10:42:21.6Z</time></trkpt><trkpt lat="39.4356221" lon="16.5327446"><ele>1220.5</ele><time>2026-05-03T10:42:22.594Z</time></trkpt><trkpt lat="39.435552" lon="16.5328728"><ele>1219.0</ele><time>2026-05-03T10:42:23.606Z</time></trkpt><trkpt lat="39.4354682" lon="16.5329458"><ele>1219.2</ele><time>2026-05-03T10:42:24.611Z</time></trkpt><trkpt lat="39.4353644" lon="16.5329656"><ele>1219.4</ele><time>2026-05-03T10:42:25.587Z</time></trkpt><trkpt lat="39.4352726" lon="16.5329339"><ele>1219.6</ele><time>2026-05-03T10:42:26.601Z</time></trkpt><trkpt lat="39.4351994" lon="16.5328492"><ele>1219.8</ele><time>2026-05-03T10:42:27.605Z</time></trkpt><trkpt lat="39.4351619" lon="16.5327334"><ele>1220.0</ele><time>2026-05-03T10:42:28.606Z</time></trkpt><trkpt lat="39.4351337" lon="16.5325792"><ele>1220.0</ele><time>2026-05-03T10:42:29.604Z</time></trkpt><trkpt lat="39.4350951" lon="16.5324143"><ele>1220.0</ele><time>2026-05-03T10:42:30.609Z</time></trkpt><trkpt lat="39.435056" lon="16.5322305"><ele>1220.0</ele><time>2026-05-03T10:42:31.602Z</time></trkpt><trkpt lat="39.435012" lon="16.5320487"><ele>1220.0</ele><time>2026-05-03T10:42:32.6Z</time></trkpt><trkpt lat="39.4349702" lon="16.5318956"><ele>1221.25</ele><time>2026-05-03T10:42:33.602Z</time></trkpt><trkpt lat="39.4349106" lon="16.5317852"><ele>1222.5</ele><time>2026-05-03T10:42:34.602Z</time></trkpt><trkpt lat="39.4348188" lon="16.5317083"><ele>1223.75</ele><time>2026-05-03T10:42:35.604Z</time></trkpt><trkpt lat="39.4346981" lon="16.5316871"><ele>1225.0</ele><time>2026-05-03T10:42:36.605Z</time></trkpt><trkpt lat="39.434575" lon="16.5317115"><ele>1225.0</ele><time>2026-05-03T10:42:37.601Z</time></trkpt><trkpt lat="39.434458" lon="16.5317805"><ele>1225.0</ele><time>2026-05-03T10:42:38.612Z</time></trkpt><trkpt lat="39.434315" lon="16.5318507"><ele>1225.0</ele><time>2026-05-03T10:42:39.602Z</time></trkpt><trkpt lat="39.4341671" lon="16.5319134"><ele>1225.0</ele><time>2026-05-03T10:42:40.617Z</time></trkpt><trkpt lat="39.4340243" lon="16.5319815"><ele>1225.0</ele><time>2026-05-03T10:42:41.616Z</time></trkpt><trkpt lat="39.4338861" lon="16.5320466"><ele>1225.0</ele><time>2026-05-03T10:42:42.611Z</time></trkpt><trkpt lat="39.4337462" lon="16.5320922"><ele>1225.0</ele><time>2026-05-03T10:42:43.615Z</time></trkpt><trkpt lat="39.4335916" lon="16.5320848"><ele>1225.0</ele><time>2026-05-03T10:42:44.604Z</time></trkpt><trkpt lat="39.4334303" lon="16.532055"><ele>1225.6666666666665</ele><time>2026-05-03T10:42:45.618Z</time></trkpt><trkpt lat="39.4332579" lon="16.5320313"><ele>1226.3333333333333</ele><time>2026-05-03T10:42:46.606Z</time></trkpt><trkpt lat="39.4330778" lon="16.5320172"><ele>1227.0</ele><time>2026-05-03T10:42:47.602Z</time></trkpt><trkpt lat="39.4329016" lon="16.5320011"><ele>1228.0</ele><time>2026-05-03T10:42:48.603Z</time></trkpt><trkpt lat="39.4327158" lon="16.5319901"><ele>1229.0</ele><time>2026-05-03T10:42:49.609Z</time></trkpt><trkpt lat="39.4325159" lon="16.5319853"><ele>1230.0</ele><time>2026-05-03T10:42:50.606Z</time></trkpt><trkpt lat="39.4323099" lon="16.5319899"><ele>1229.3333333333333</ele><time>2026-05-03T10:42:51.616Z</time></trkpt><trkpt lat="39.4321211" lon="16.5319937"><ele>1228.6666666666665</ele><time>2026-05-03T10:42:52.609Z</time></trkpt><trkpt lat="39.4319433" lon="16.5320085"><ele>1228.0</ele><time>2026-05-03T10:42:53.613Z</time></trkpt><trkpt lat="39.4317674" lon="16.5320663"><ele>1228.0</ele><time>2026-05-03T10:42:54.609Z</time></trkpt><trkpt lat="39.4315987" lon="16.5321557"><ele>1228.0</ele><time>2026-05-03T10:42:55.608Z</time></trkpt><trkpt lat="39.4314291" lon="16.5322733"><ele>1228.0</ele><time>2026-05-03T10:42:56.597Z</time></trkpt><trkpt lat="39.4312545" lon="16.5324019"><ele>1229.3333333333333</ele><time>2026-05-03T10:42:57.602Z</time></trkpt><trkpt lat="39.4310737" lon="16.5325274"><ele>1230.6666666666667</ele><time>2026-05-03T10:42:58.616Z</time></trkpt><trkpt lat="39.4308841" lon="16.5326557"><ele>1232.0</ele><time>2026-05-03T10:42:59.594Z</time></trkpt><trkpt lat="39.4306971" lon="16.5327902"><ele>1231.6666666666667</ele><time>2026-05-03T10:43:00.605Z</time></trkpt><trkpt lat="39.4305058" lon="16.5329254"><ele>1231.3333333333333</ele><time>2026-05-03T10:43:01.604Z</time></trkpt><trkpt lat="39.4303076" lon="16.5330679"><ele>1231.0</ele><time>2026-05-03T10:43:02.595Z</time></trkpt><trkpt lat="39.4301195" lon="16.5331919"><ele>1231.0</ele><time>2026-05-03T10:43:03.596Z</time></trkpt><trkpt lat="39.4299589" lon="16.5333007"><ele>1231.0</ele><time>2026-05-03T10:43:04.604Z</time></trkpt><trkpt lat="39.4298231" lon="16.5334095"><ele>1231.0</ele><time>2026-05-03T10:43:05.61Z</time></trkpt><trkpt lat="39.4297161" lon="16.5335511"><ele>1229.3333333333333</ele><time>2026-05-03T10:43:06.607Z</time></trkpt><trkpt lat="39.4296256" lon="16.533731"><ele>1227.6666666666667</ele><time>2026-05-03T10:43:07.609Z</time></trkpt><trkpt lat="39.4295331" lon="16.5339332"><ele>1226.0</ele><time>2026-05-03T10:43:08.608Z</time></trkpt><trkpt lat="39.4294274" lon="16.5341446"><ele>1226.0</ele><time>2026-05-03T10:43:09.612Z</time></trkpt><trkpt lat="39.4292961" lon="16.534346"><ele>1226.0</ele><time>2026-05-03T10:43:10.613Z</time></trkpt><trkpt lat="39.4291539" lon="16.5345319"><ele>1226.0</ele><time>2026-05-03T10:43:11.603Z</time></trkpt><trkpt lat="39.4289931" lon="16.5347069"><ele>1226.3333333333335</ele><time>2026-05-03T10:43:12.612Z</time></trkpt><trkpt lat="39.4288231" lon="16.5348737"><ele>1226.6666666666667</ele><time>2026-05-03T10:43:13.614Z</time></trkpt><trkpt lat="39.4286493" lon="16.5350363"><ele>1227.0</ele><time>2026-05-03T10:43:14.605Z</time></trkpt><trkpt lat="39.4284773" lon="16.5351999"><ele>1227.0</ele><time>2026-05-03T10:43:15.619Z</time></trkpt><trkpt lat="39.4283127" lon="16.5353515"><ele>1227.0</ele><time>2026-05-03T10:43:16.619Z</time></trkpt><trkpt lat="39.4281537" lon="16.535495"><ele>1227.0</ele><time>2026-05-03T10:43:17.616Z</time></trkpt><trkpt lat="39.4279897" lon="16.5356422"><ele>1227.6666666666667</ele><time>2026-05-03T10:43:18.612Z</time></trkpt><trkpt lat="39.4278204" lon="16.5358073"><ele>1228.3333333333335</ele><time>2026-05-03T10:43:19.621Z</time></trkpt><trkpt lat="39.4276475" lon="16.5359794"><ele>1229.0</ele><time>2026-05-03T10:43:20.621Z</time></trkpt><trkpt lat="39.4274695" lon="16.5361632"><ele>1230.0</ele><time>2026-05-03T10:43:21.598Z</time></trkpt><trkpt lat="39.4272913" lon="16.5363563"><ele>1231.0</ele><time>2026-05-03T10:43:22.599Z</time></trkpt><trkpt lat="39.4271044" lon="16.5365605"><ele>1233.5</ele><time>2026-05-03T10:43:23.609Z</time></trkpt><trkpt lat="39.4269099" lon="16.5367468"><ele>1236.0</ele><time>2026-05-03T10:43:24.6Z</time></trkpt><trkpt lat="39.4267138" lon="16.536911"><ele>1235.3333333333333</ele><time>2026-05-03T10:43:25.598Z</time></trkpt><trkpt lat="39.4265355" lon="16.5370663"><ele>1234.6666666666665</ele><time>2026-05-03T10:43:26.618Z</time></trkpt><trkpt lat="39.4263677" lon="16.5372138"><ele>1234.0</ele><time>2026-05-03T10:43:27.583Z</time></trkpt><trkpt lat="39.4262159" lon="16.5373558"><ele>1237.3333333333333</ele><time>2026-05-03T10:43:28.578Z</time></trkpt><trkpt lat="39.4260806" lon="16.5375051"><ele>1240.6666666666667</ele><time>2026-05-03T10:43:29.57Z</time></trkpt><trkpt lat="39.425969" lon="16.5376639"><ele>1244.0</ele><time>2026-05-03T10:43:30.578Z</time></trkpt><trkpt lat="39.4258823" lon="16.5378402"><ele>1243.0</ele><time>2026-05-03T10:43:31.574Z</time></trkpt><trkpt lat="39.4258217" lon="16.5380513"><ele>1242.0</ele><time>2026-05-03T10:43:32.593Z</time></trkpt><trkpt lat="39.4257848" lon="16.5382855"><ele>1241.0</ele><time>2026-05-03T10:43:33.583Z</time></trkpt><trkpt lat="39.4257498" lon="16.5384984"><ele>1241.0</ele><time>2026-05-03T10:43:34.605Z</time></trkpt><trkpt lat="39.4257057" lon="16.5386837"><ele>1241.0</ele><time>2026-05-03T10:43:35.593Z</time></trkpt><trkpt lat="39.4256399" lon="16.5388545"><ele>1241.0</ele><time>2026-05-03T10:43:36.6Z</time></trkpt><trkpt lat="39.4255215" lon="16.5389941"><ele>1240.75</ele><time>2026-05-03T10:43:37.604Z</time></trkpt><trkpt lat="39.4254088" lon="16.5391078"><ele>1240.5</ele><time>2026-05-03T10:43:38.594Z</time></trkpt><trkpt lat="39.4252966" lon="16.5392111"><ele>1240.25</ele><time>2026-05-03T10:43:39.614Z</time></trkpt><trkpt lat="39.4252002" lon="16.5393293"><ele>1240.0</ele><time>2026-05-03T10:43:40.61Z</time></trkpt><trkpt lat="39.425097" lon="16.5394464"><ele>1241.0</ele><time>2026-05-03T10:43:41.604Z</time></trkpt><trkpt lat="39.4250062" lon="16.539555"><ele>1242.0</ele><time>2026-05-03T10:43:42.603Z</time></trkpt><trkpt lat="39.4249265" lon="16.5396564"><ele>1243.0</ele><time>2026-05-03T10:43:43.604Z</time></trkpt><trkpt lat="39.4248497" lon="16.5397597"><ele>1244.0</ele><time>2026-05-03T10:43:44.607Z</time></trkpt><trkpt lat="39.4247733" lon="16.5398636"><ele>1244.0</ele><time>2026-05-03T10:43:45.613Z</time></trkpt><trkpt lat="39.4246934" lon="16.5399571"><ele>1244.0</ele><time>2026-05-03T10:43:46.61Z</time></trkpt><trkpt lat="39.4246127" lon="16.5400534"><ele>1244.0</ele><time>2026-05-03T10:43:47.592Z</time></trkpt><trkpt lat="39.4245325" lon="16.5401441"><ele>1244.0</ele><time>2026-05-03T10:43:48.594Z</time></trkpt><trkpt lat="39.4244583" lon="16.5402394"><ele>1244.0</ele><time>2026-05-03T10:43:49.609Z</time></trkpt><trkpt lat="39.4243818" lon="16.540338"><ele>1244.1666666666667</ele><time>2026-05-03T10:43:50.599Z</time></trkpt><trkpt lat="39.4243119" lon="16.5404212"><ele>1244.3333333333335</ele><time>2026-05-03T10:43:51.601Z</time></trkpt><trkpt lat="39.4242498" lon="16.5405003"><ele>1244.5</ele><time>2026-05-03T10:43:52.613Z</time></trkpt><trkpt lat="39.4241886" lon="16.5405585"><ele>1244.6666666666667</ele><time>2026-05-03T10:43:53.6Z</time></trkpt><trkpt lat="39.4240879" lon="16.5406215"><ele>1244.8333333333333</ele><time>2026-05-03T10:43:55.603Z</time></trkpt><trkpt lat="39.4240298" lon="16.5406663"><ele>1245.0</ele><time>2026-05-03T10:43:57.607Z</time></trkpt><trkpt lat="39.4239715" lon="16.5407536"><ele>1245.0</ele><time>2026-05-03T10:45:49.602Z</time></trkpt><trkpt lat="39.4238984" lon="16.5408233"><ele>1245.0</ele><time>2026-05-03T10:45:51.598Z</time></trkpt><trkpt lat="39.4237782" lon="16.5408804"><ele>1245.0</ele><time>2026-05-03T10:45:53.61Z</time></trkpt><trkpt lat="39.4236692" lon="16.5408966"><ele>1245.0</ele><time>2026-05-03T10:45:55.61Z</time></trkpt><trkpt lat="39.4235668" lon="16.5408862"><ele>1245.0</ele><time>2026-05-03T10:45:57.612Z</time></trkpt><trkpt lat="39.4234645" lon="16.5408344"><ele>1244.6666666666667</ele><time>2026-05-03T10:45:59.609Z</time></trkpt><trkpt lat="39.4234066" lon="16.5407907"><ele>1244.3333333333333</ele><time>2026-05-03T10:46:00.601Z</time></trkpt><trkpt lat="39.4233434" lon="16.5407462"><ele>1244.0</ele><time>2026-05-03T10:46:01.611Z</time></trkpt><trkpt lat="39.423269" lon="16.5406908"><ele>1243.6666666666665</ele><time>2026-05-03T10:46:02.612Z</time></trkpt><trkpt lat="39.4231904" lon="16.5406352"><ele>1243.3333333333333</ele><time>2026-05-03T10:46:03.596Z</time></trkpt><trkpt lat="39.423106" lon="16.5406043"><ele>1243.0</ele><time>2026-05-03T10:46:04.602Z</time></trkpt><trkpt lat="39.4230122" lon="16.5406054"><ele>1242.6</ele><time>2026-05-03T10:46:05.601Z</time></trkpt><trkpt lat="39.4229213" lon="16.5406434"><ele>1242.1999999999998</ele><time>2026-05-03T10:46:06.591Z</time></trkpt><trkpt lat="39.4228481" lon="16.5407139"><ele>1241.8</ele><time>2026-05-03T10:46:07.6Z</time></trkpt><trkpt lat="39.4227953" lon="16.5408369"><ele>1241.3999999999999</ele><time>2026-05-03T10:46:08.618Z</time></trkpt><trkpt lat="39.4227595" lon="16.5409676"><ele>1241.0</ele><time>2026-05-03T10:46:09.612Z</time></trkpt><trkpt lat="39.4227282" lon="16.5411136"><ele>1241.0</ele><time>2026-05-03T10:46:10.617Z</time></trkpt><trkpt lat="39.4226852" lon="16.5412639"><ele>1241.0</ele><time>2026-05-03T10:46:11.613Z</time></trkpt><trkpt lat="39.4226448" lon="16.5414111"><ele>1241.0</ele><time>2026-05-03T10:46:12.601Z</time></trkpt><trkpt lat="39.4226084" lon="16.5415558"><ele>1241.0</ele><time>2026-05-03T10:46:13.604Z</time></trkpt><trkpt lat="39.4225642" lon="16.5416945"><ele>1241.0</ele><time>2026-05-03T10:46:14.613Z</time></trkpt><trkpt lat="39.4225033" lon="16.5418166"><ele>1241.0</ele><time>2026-05-03T10:46:15.6Z</time></trkpt><trkpt lat="39.4224101" lon="16.5419103"><ele>1241.0</ele><time>2026-05-03T10:46:16.594Z</time></trkpt><trkpt lat="39.4222984" lon="16.5419733"><ele>1241.0</ele><time>2026-05-03T10:46:17.604Z</time></trkpt><trkpt lat="39.4221827" lon="16.5420072"><ele>1240.2</ele><time>2026-05-03T10:46:18.608Z</time></trkpt><trkpt lat="39.422068" lon="16.542028"><ele>1239.3999999999999</ele><time>2026-05-03T10:46:19.6Z</time></trkpt><trkpt lat="39.4219586" lon="16.5420366"><ele>1238.6</ele><time>2026-05-03T10:46:20.601Z</time></trkpt><trkpt lat="39.4218548" lon="16.5420437"><ele>1237.8</ele><time>2026-05-03T10:46:21.605Z</time></trkpt><trkpt lat="39.4217516" lon="16.5420477"><ele>1237.0</ele><time>2026-05-03T10:46:22.602Z</time></trkpt><trkpt lat="39.4216521" lon="16.5420572"><ele>1236.3333333333333</ele><time>2026-05-03T10:46:23.588Z</time></trkpt><trkpt lat="39.4215603" lon="16.5420731"><ele>1235.6666666666665</ele><time>2026-05-03T10:46:24.594Z</time></trkpt><trkpt lat="39.4214734" lon="16.5420899"><ele>1235.0</ele><time>2026-05-03T10:46:25.604Z</time></trkpt><trkpt lat="39.4213895" lon="16.5421151"><ele>1234.3333333333333</ele><time>2026-05-03T10:46:26.602Z</time></trkpt><trkpt lat="39.4213067" lon="16.5421442"><ele>1233.6666666666667</ele><time>2026-05-03T10:46:27.597Z</time></trkpt><trkpt lat="39.4212284" lon="16.5421782"><ele>1233.0</ele><time>2026-05-03T10:46:28.604Z</time></trkpt><trkpt lat="39.4211593" lon="16.5422168"><ele>1233.0</ele><time>2026-05-03T10:46:29.602Z</time></trkpt><trkpt lat="39.4210853" lon="16.5422462"><ele>1233.0</ele><time>2026-05-03T10:46:30.597Z</time></trkpt><trkpt lat="39.4210106" lon="16.5422673"><ele>1233.0</ele><time>2026-05-03T10:46:31.597Z</time></trkpt><trkpt lat="39.4209271" lon="16.5422949"><ele>1233.0</ele><time>2026-05-03T10:46:32.605Z</time></trkpt><trkpt lat="39.4208379" lon="16.5423327"><ele>1233.0</ele><time>2026-05-03T10:46:33.61Z</time></trkpt><trkpt lat="39.4207658" lon="16.5423862"><ele>1233.0</ele><time>2026-05-03T10:46:34.608Z</time></trkpt><trkpt lat="39.4207219" lon="16.5424742"><ele>1233.0</ele><time>2026-05-03T10:46:35.604Z</time></trkpt><trkpt lat="39.4207156" lon="16.5425997"><ele>1233.0</ele><time>2026-05-03T10:46:36.597Z</time></trkpt><trkpt lat="39.4207442" lon="16.5427176"><ele>1233.0</ele><time>2026-05-03T10:46:37.591Z</time></trkpt><trkpt lat="39.4208048" lon="16.5428461"><ele>1233.0</ele><time>2026-05-03T10:46:38.597Z</time></trkpt><trkpt lat="39.4208814" lon="16.5429842"><ele>1233.0</ele><time>2026-05-03T10:46:39.588Z</time></trkpt><trkpt lat="39.4209709" lon="16.5431232"><ele>1233.8</ele><time>2026-05-03T10:46:40.612Z</time></trkpt><trkpt lat="39.4210624" lon="16.5432506"><ele>1234.6</ele><time>2026-05-03T10:46:41.598Z</time></trkpt><trkpt lat="39.4211283" lon="16.5433677"><ele>1235.4</ele><time>2026-05-03T10:46:42.612Z</time></trkpt><trkpt lat="39.4211741" lon="16.5434843"><ele>1236.2</ele><time>2026-05-03T10:46:43.6Z</time></trkpt><trkpt lat="39.421199" lon="16.5435858"><ele>1237.0</ele><time>2026-05-03T10:46:44.603Z</time></trkpt><trkpt lat="39.4211969" lon="16.543679"><ele>1237.0</ele><time>2026-05-03T10:46:45.597Z</time></trkpt><trkpt lat="39.4211624" lon="16.5437484"><ele>1237.0</ele><time>2026-05-03T10:46:46.608Z</time></trkpt><trkpt lat="39.4210287" lon="16.5437332"><ele>1237.0</ele><time>2026-05-03T10:46:48.599Z</time></trkpt><trkpt lat="39.4209462" lon="16.5436536"><ele>1237.0</ele><time>2026-05-03T10:46:49.596Z</time></trkpt><trkpt lat="39.4208534" lon="16.5435806"><ele>1237.0</ele><time>2026-05-03T10:46:50.603Z</time></trkpt><trkpt lat="39.4207523" lon="16.54352"><ele>1237.0</ele><time>2026-05-03T10:46:51.605Z</time></trkpt><trkpt lat="39.4206353" lon="16.5434669"><ele>1237.0</ele><time>2026-05-03T10:46:52.597Z</time></trkpt><trkpt lat="39.4204919" lon="16.5434354"><ele>1237.0</ele><time>2026-05-03T10:46:53.605Z</time></trkpt><trkpt lat="39.4203397" lon="16.5434046"><ele>1237.0</ele><time>2026-05-03T10:46:54.598Z</time></trkpt><trkpt lat="39.4201899" lon="16.5433249"><ele>1241.3333333333333</ele><time>2026-05-03T10:46:55.602Z</time></trkpt><trkpt lat="39.4200341" lon="16.5432045"><ele>1245.6666666666667</ele><time>2026-05-03T10:46:56.599Z</time></trkpt><trkpt lat="39.4198802" lon="16.5430952"><ele>1250.0</ele><time>2026-05-03T10:46:57.596Z</time></trkpt><trkpt lat="39.4196989" lon="16.5430043"><ele>1255.0</ele><time>2026-05-03T10:46:58.598Z</time></trkpt><trkpt lat="39.4195133" lon="16.5429327"><ele>1260.0</ele><time>2026-05-03T10:46:59.593Z</time></trkpt><trkpt lat="39.4193206" lon="16.5428565"><ele>1265.0</ele><time>2026-05-03T10:47:00.606Z</time></trkpt><trkpt lat="39.4191256" lon="16.5427732"><ele>1261.3333333333335</ele><time>2026-05-03T10:47:01.594Z</time></trkpt><trkpt lat="39.4189507" lon="16.5426948"><ele>1257.6666666666667</ele><time>2026-05-03T10:47:02.599Z</time></trkpt><trkpt lat="39.4187941" lon="16.5426325"><ele>1254.0</ele><time>2026-05-03T10:47:03.6Z</time></trkpt><trkpt lat="39.4186582" lon="16.5425633"><ele>1254.0</ele><time>2026-05-03T10:47:04.596Z</time></trkpt><trkpt lat="39.4185338" lon="16.5424667"><ele>1254.0</ele><time>2026-05-03T10:47:05.595Z</time></trkpt><trkpt lat="39.4184076" lon="16.5423365"><ele>1254.0</ele><time>2026-05-03T10:47:06.607Z</time></trkpt><trkpt lat="39.4182622" lon="16.5422037"><ele>1254.0</ele><time>2026-05-03T10:47:07.59Z</time></trkpt><trkpt lat="39.4180802" lon="16.5421027"><ele>1254.0</ele><time>2026-05-03T10:47:08.594Z</time></trkpt><trkpt lat="39.4178836" lon="16.5420136"><ele>1254.0</ele><time>2026-05-03T10:47:09.593Z</time></trkpt><trkpt lat="39.417705" lon="16.5419118"><ele>1252.3333333333333</ele><time>2026-05-03T10:47:10.604Z</time></trkpt><trkpt lat="39.4175428" lon="16.5418238"><ele>1250.6666666666665</ele><time>2026-05-03T10:47:11.594Z</time></trkpt><trkpt lat="39.4173989" lon="16.5417818"><ele>1249.0</ele><time>2026-05-03T10:47:12.6Z</time></trkpt><trkpt lat="39.4172605" lon="16.5418015"><ele>1250.6666666666665</ele><time>2026-05-03T10:47:13.598Z</time></trkpt><trkpt lat="39.4171063" lon="16.5418762"><ele>1252.3333333333333</ele><time>2026-05-03T10:47:14.612Z</time></trkpt><trkpt lat="39.4169554" lon="16.541976"><ele>1254.0</ele><time>2026-05-03T10:47:15.596Z</time></trkpt><trkpt lat="39.4167961" lon="16.5420903"><ele>1255.3333333333333</ele><time>2026-05-03T10:47:16.608Z</time></trkpt><trkpt lat="39.416619" lon="16.5422082"><ele>1256.6666666666665</ele><time>2026-05-03T10:47:17.593Z</time></trkpt><trkpt lat="39.4164409" lon="16.5423309"><ele>1258.0</ele><time>2026-05-03T10:47:18.589Z</time></trkpt><trkpt lat="39.4162587" lon="16.5424448"><ele>1258.0</ele><time>2026-05-03T10:47:19.602Z</time></trkpt><trkpt lat="39.416071" lon="16.5425591"><ele>1258.0</ele><time>2026-05-03T10:47:20.601Z</time></trkpt><trkpt lat="39.4158724" lon="16.5426611"><ele>1258.0</ele><time>2026-05-03T10:47:21.604Z</time></trkpt><trkpt lat="39.4156624" lon="16.5427413"><ele>1257.0</ele><time>2026-05-03T10:47:22.598Z</time></trkpt><trkpt lat="39.4154512" lon="16.5428123"><ele>1256.0</ele><time>2026-05-03T10:47:23.602Z</time></trkpt><trkpt lat="39.4152548" lon="16.5428782"><ele>1255.0</ele><time>2026-05-03T10:47:24.603Z</time></trkpt><trkpt lat="39.4150846" lon="16.5429341"><ele>1256.6666666666665</ele><time>2026-05-03T10:47:25.594Z</time></trkpt><trkpt lat="39.4149123" lon="16.5429669"><ele>1258.3333333333333</ele><time>2026-05-03T10:47:26.603Z</time></trkpt><trkpt lat="39.4147362" lon="16.5429559"><ele>1260.0</ele><time>2026-05-03T10:47:27.597Z</time></trkpt><trkpt lat="39.4145581" lon="16.5429184"><ele>1260.0</ele><time>2026-05-03T10:47:28.602Z</time></trkpt><trkpt lat="39.4143691" lon="16.5428787"><ele>1260.0</ele><time>2026-05-03T10:47:29.597Z</time></trkpt><trkpt lat="39.414176" lon="16.542844"><ele>1260.0</ele><time>2026-05-03T10:47:30.618Z</time></trkpt><trkpt lat="39.4139905" lon="16.5428151"><ele>1257.6666666666667</ele><time>2026-05-03T10:47:31.615Z</time></trkpt><trkpt lat="39.4138148" lon="16.5427885"><ele>1255.3333333333335</ele><time>2026-05-03T10:47:32.595Z</time></trkpt><trkpt lat="39.4136357" lon="16.5427597"><ele>1253.0</ele><time>2026-05-03T10:47:33.585Z</time></trkpt><trkpt lat="39.4134535" lon="16.5427315"><ele>1253.0</ele><time>2026-05-03T10:47:34.612Z</time></trkpt><trkpt lat="39.4132783" lon="16.5427114"><ele>1253.0</ele><time>2026-05-03T10:47:35.61Z</time></trkpt><trkpt lat="39.4130874" lon="16.5427162"><ele>1253.0</ele><time>2026-05-03T10:47:36.597Z</time></trkpt><trkpt lat="39.4128816" lon="16.5427534"><ele>1252.3333333333335</ele><time>2026-05-03T10:47:37.593Z</time></trkpt><trkpt lat="39.4126714" lon="16.5427932"><ele>1251.6666666666667</ele><time>2026-05-03T10:47:38.606Z</time></trkpt><trkpt lat="39.4124656" lon="16.5428431"><ele>1251.0</ele><time>2026-05-03T10:47:39.607Z</time></trkpt><trkpt lat="39.412257" lon="16.5428932"><ele>1248.6666666666667</ele><time>2026-05-03T10:47:40.609Z</time></trkpt><trkpt lat="39.4120588" lon="16.5429428"><ele>1246.3333333333335</ele><time>2026-05-03T10:47:41.598Z</time></trkpt><trkpt lat="39.4118751" lon="16.5430043"><ele>1244.0</ele><time>2026-05-03T10:47:42.614Z</time></trkpt><trkpt lat="39.4116896" lon="16.5430817"><ele>1244.0</ele><time>2026-05-03T10:47:43.614Z</time></trkpt><trkpt lat="39.4115083" lon="16.5431784"><ele>1244.0</ele><time>2026-05-03T10:47:44.603Z</time></trkpt><trkpt lat="39.411334" lon="16.5432786"><ele>1244.0</ele><time>2026-05-03T10:47:45.594Z</time></trkpt><trkpt lat="39.4111853" lon="16.5433726"><ele>1243.0</ele><time>2026-05-03T10:47:46.595Z</time></trkpt><trkpt lat="39.4110445" lon="16.5434819"><ele>1242.0</ele><time>2026-05-03T10:47:47.587Z</time></trkpt><trkpt lat="39.4109089" lon="16.5436287"><ele>1241.0</ele><time>2026-05-03T10:47:48.592Z</time></trkpt><trkpt lat="39.4107835" lon="16.5438086"><ele>1241.0</ele><time>2026-05-03T10:47:49.6Z</time></trkpt><trkpt lat="39.4106718" lon="16.5439977"><ele>1241.0</ele><time>2026-05-03T10:47:50.597Z</time></trkpt><trkpt lat="39.4105715" lon="16.5441741"><ele>1241.0</ele><time>2026-05-03T10:47:51.595Z</time></trkpt><trkpt lat="39.410486" lon="16.5443313"><ele>1240.5</ele><time>2026-05-03T10:47:52.594Z</time></trkpt><trkpt lat="39.4104138" lon="16.5444579"><ele>1240.0</ele><time>2026-05-03T10:47:53.599Z</time></trkpt><trkpt lat="39.4103348" lon="16.5445524"><ele>1239.5</ele><time>2026-05-03T10:47:54.595Z</time></trkpt><trkpt lat="39.4102273" lon="16.5446238"><ele>1239.0</ele><time>2026-05-03T10:47:55.589Z</time></trkpt><trkpt lat="39.4100923" lon="16.5446322"><ele>1239.0</ele><time>2026-05-03T10:47:56.597Z</time></trkpt><trkpt lat="39.409965" lon="16.5445786"><ele>1239.0</ele><time>2026-05-03T10:47:57.613Z</time></trkpt><trkpt lat="39.4098398" lon="16.5444753"><ele>1239.0</ele><time>2026-05-03T10:47:58.596Z</time></trkpt><trkpt lat="39.4097207" lon="16.5443276"><ele>1239.0</ele><time>2026-05-03T10:47:59.596Z</time></trkpt><trkpt lat="39.4096034" lon="16.5441756"><ele>1238.3333333333333</ele><time>2026-05-03T10:48:00.597Z</time></trkpt><trkpt lat="39.4094658" lon="16.5440257"><ele>1237.6666666666665</ele><time>2026-05-03T10:48:01.589Z</time></trkpt><trkpt lat="39.4092943" lon="16.5439085"><ele>1237.0</ele><time>2026-05-03T10:48:02.605Z</time></trkpt><trkpt lat="39.4091034" lon="16.5438018"><ele>1230.6666666666665</ele><time>2026-05-03T10:48:03.599Z</time></trkpt><trkpt lat="39.4089027" lon="16.5437027"><ele>1224.3333333333333</ele><time>2026-05-03T10:48:04.593Z</time></trkpt><trkpt lat="39.4086891" lon="16.5436232"><ele>1218.0</ele><time>2026-05-03T10:48:05.601Z</time></trkpt><trkpt lat="39.4084762" lon="16.5435502"><ele>1218.0</ele><time>2026-05-03T10:48:06.597Z</time></trkpt><trkpt lat="39.408285" lon="16.5434757"><ele>1218.0</ele><time>2026-05-03T10:48:07.587Z</time></trkpt><trkpt lat="39.4081109" lon="16.5434086"><ele>1218.0</ele><time>2026-05-03T10:48:08.593Z</time></trkpt><trkpt lat="39.4079521" lon="16.5433356"><ele>1222.0</ele><time>2026-05-03T10:48:09.605Z</time></trkpt><trkpt lat="39.4077959" lon="16.5432277"><ele>1226.0</ele><time>2026-05-03T10:48:10.614Z</time></trkpt><trkpt lat="39.4076328" lon="16.543089"><ele>1230.0</ele><time>2026-05-03T10:48:11.614Z</time></trkpt><trkpt lat="39.4074631" lon="16.5429508"><ele>1222.6666666666667</ele><time>2026-05-03T10:48:12.6Z</time></trkpt><trkpt lat="39.407313" lon="16.542819"><ele>1215.3333333333335</ele><time>2026-05-03T10:48:13.608Z</time></trkpt><trkpt lat="39.4071662" lon="16.542703"><ele>1208.0</ele><time>2026-05-03T10:48:14.602Z</time></trkpt><trkpt lat="39.4070188" lon="16.5426198"><ele>1208.0</ele><time>2026-05-03T10:48:15.608Z</time></trkpt><trkpt lat="39.4068649" lon="16.5425591"><ele>1208.0</ele><time>2026-05-03T10:48:16.602Z</time></trkpt><trkpt lat="39.4067218" lon="16.5425471"><ele>1208.0</ele><time>2026-05-03T10:48:17.595Z</time></trkpt><trkpt lat="39.4065662" lon="16.5425653"><ele>1208.0</ele><time>2026-05-03T10:48:18.602Z</time></trkpt><trkpt lat="39.40642" lon="16.542581"><ele>1208.0</ele><time>2026-05-03T10:48:19.599Z</time></trkpt><trkpt lat="39.406287" lon="16.5425634"><ele>1208.0</ele><time>2026-05-03T10:48:20.6Z</time></trkpt><trkpt lat="39.4061545" lon="16.5424861"><ele>1208.0</ele><time>2026-05-03T10:48:21.593Z</time></trkpt><trkpt lat="39.4060264" lon="16.5423891"><ele>1205.6666666666667</ele><time>2026-05-03T10:48:22.591Z</time></trkpt><trkpt lat="39.4059095" lon="16.5422678"><ele>1203.3333333333333</ele><time>2026-05-03T10:48:23.578Z</time></trkpt><trkpt lat="39.4057835" lon="16.5421498"><ele>1201.0</ele><time>2026-05-03T10:48:24.595Z</time></trkpt><trkpt lat="39.4056535" lon="16.5420465"><ele>1201.0</ele><time>2026-05-03T10:48:25.587Z</time></trkpt><trkpt lat="39.4055229" lon="16.5419528"><ele>1201.0</ele><time>2026-05-03T10:48:26.603Z</time></trkpt><trkpt lat="39.4053902" lon="16.5418608"><ele>1201.0</ele><time>2026-05-03T10:48:27.588Z</time></trkpt><trkpt lat="39.4052583" lon="16.5417713"><ele>1201.0</ele><time>2026-05-03T10:48:28.592Z</time></trkpt><trkpt lat="39.4051393" lon="16.5416765"><ele>1202.5</ele><time>2026-05-03T10:48:29.599Z</time></trkpt><trkpt lat="39.4050211" lon="16.5415782"><ele>1204.0</ele><time>2026-05-03T10:48:30.599Z</time></trkpt><trkpt lat="39.4049042" lon="16.5414776"><ele>1205.5</ele><time>2026-05-03T10:48:31.589Z</time></trkpt><trkpt lat="39.4047824" lon="16.5413703"><ele>1207.0</ele><time>2026-05-03T10:48:32.616Z</time></trkpt><trkpt lat="39.4046596" lon="16.5412678"><ele>1203.0</ele><time>2026-05-03T10:48:33.597Z</time></trkpt><trkpt lat="39.4045297" lon="16.5411746"><ele>1199.0</ele><time>2026-05-03T10:48:34.606Z</time></trkpt><trkpt lat="39.4044035" lon="16.5410885"><ele>1195.0</ele><time>2026-05-03T10:48:35.616Z</time></trkpt><trkpt lat="39.4042844" lon="16.5410168"><ele>1191.0</ele><time>2026-05-03T10:48:36.601Z</time></trkpt><trkpt lat="39.4041476" lon="16.5409708"><ele>1191.0</ele><time>2026-05-03T10:48:37.594Z</time></trkpt><trkpt lat="39.4040043" lon="16.5409579"><ele>1191.0</ele><time>2026-05-03T10:48:38.608Z</time></trkpt><trkpt lat="39.4038679" lon="16.5409652"><ele>1191.0</ele><time>2026-05-03T10:48:39.605Z</time></trkpt><trkpt lat="39.403748" lon="16.5409819"><ele>1191.0</ele><time>2026-05-03T10:48:40.607Z</time></trkpt><trkpt lat="39.4036303" lon="16.5409941"><ele>1190.6</ele><time>2026-05-03T10:48:41.614Z</time></trkpt><trkpt lat="39.4035225" lon="16.5410127"><ele>1190.1999999999998</ele><time>2026-05-03T10:48:42.605Z</time></trkpt><trkpt lat="39.4034231" lon="16.5410485"><ele>1189.8000000000002</ele><time>2026-05-03T10:48:43.614Z</time></trkpt><trkpt lat="39.4033399" lon="16.5411147"><ele>1189.4</ele><time>2026-05-03T10:48:44.611Z</time></trkpt><trkpt lat="39.40327" lon="16.5412185"><ele>1189.0</ele><time>2026-05-03T10:48:45.61Z</time></trkpt><trkpt lat="39.4032286" lon="16.5413472"><ele>1189.0</ele><time>2026-05-03T10:48:46.611Z</time></trkpt><trkpt lat="39.4031937" lon="16.541492"><ele>1189.0</ele><time>2026-05-03T10:48:47.602Z</time></trkpt><trkpt lat="39.4031753" lon="16.5416427"><ele>1189.0</ele><time>2026-05-03T10:48:48.627Z</time></trkpt><trkpt lat="39.4031544" lon="16.5418122"><ele>1189.0</ele><time>2026-05-03T10:48:49.603Z</time></trkpt><trkpt lat="39.4031437" lon="16.5419934"><ele>1188.75</ele><time>2026-05-03T10:48:50.613Z</time></trkpt><trkpt lat="39.4031378" lon="16.5421836"><ele>1188.5</ele><time>2026-05-03T10:48:51.604Z</time></trkpt><trkpt lat="39.4031264" lon="16.5423703"><ele>1188.25</ele><time>2026-05-03T10:48:52.614Z</time></trkpt><trkpt lat="39.4031098" lon="16.5425435"><ele>1188.0</ele><time>2026-05-03T10:48:53.592Z</time></trkpt><trkpt lat="39.4030977" lon="16.5427041"><ele>1188.0</ele><time>2026-05-03T10:48:54.61Z</time></trkpt><trkpt lat="39.4030794" lon="16.5428524"><ele>1188.0</ele><time>2026-05-03T10:48:55.606Z</time></trkpt><trkpt lat="39.4030373" lon="16.5429864"><ele>1188.0</ele><time>2026-05-03T10:48:56.617Z</time></trkpt><trkpt lat="39.4029699" lon="16.5430859"><ele>1188.0</ele><time>2026-05-03T10:48:57.598Z</time></trkpt><trkpt lat="39.4028884" lon="16.5431741"><ele>1188.0</ele><time>2026-05-03T10:48:58.591Z</time></trkpt><trkpt lat="39.4027968" lon="16.5432567"><ele>1189.0</ele><time>2026-05-03T10:48:59.595Z</time></trkpt><trkpt lat="39.4027028" lon="16.5433272"><ele>1190.0</ele><time>2026-05-03T10:49:00.6Z</time></trkpt><trkpt lat="39.4025883" lon="16.5434063"><ele>1191.0</ele><time>2026-05-03T10:49:01.592Z</time></trkpt><trkpt lat="39.4024875" lon="16.5434794"><ele>1192.0</ele><time>2026-05-03T10:49:02.594Z</time></trkpt><trkpt lat="39.4023963" lon="16.5435297"><ele>1192.0</ele><time>2026-05-03T10:49:03.6Z</time></trkpt><trkpt lat="39.4022979" lon="16.5435662"><ele>1192.0</ele><time>2026-05-03T10:49:04.607Z</time></trkpt><trkpt lat="39.4021862" lon="16.5435785"><ele>1192.0</ele><time>2026-05-03T10:49:05.596Z</time></trkpt><trkpt lat="39.4020632" lon="16.5435695"><ele>1192.0</ele><time>2026-05-03T10:49:06.596Z</time></trkpt><trkpt lat="39.4019386" lon="16.543531"><ele>1192.0</ele><time>2026-05-03T10:49:07.596Z</time></trkpt><trkpt lat="39.401829" lon="16.5434801"><ele>1192.0</ele><time>2026-05-03T10:49:08.588Z</time></trkpt><trkpt lat="39.4017215" lon="16.5434258"><ele>1192.0</ele><time>2026-05-03T10:49:09.602Z</time></trkpt><trkpt lat="39.4016223" lon="16.5433625"><ele>1192.0</ele><time>2026-05-03T10:49:10.603Z</time></trkpt><trkpt lat="39.4015177" lon="16.5432755"><ele>1192.0</ele><time>2026-05-03T10:49:11.601Z</time></trkpt><trkpt lat="39.4014182" lon="16.5431873"><ele>1192.0</ele><time>2026-05-03T10:49:12.594Z</time></trkpt><trkpt lat="39.4013111" lon="16.5430823"><ele>1192.0</ele><time>2026-05-03T10:49:13.606Z</time></trkpt><trkpt lat="39.4012051" lon="16.5429689"><ele>1192.0</ele><time>2026-05-03T10:49:14.599Z</time></trkpt><trkpt lat="39.401104" lon="16.542861"><ele>1190.0</ele><time>2026-05-03T10:49:15.596Z</time></trkpt><trkpt lat="39.4009958" lon="16.5427525"><ele>1188.0</ele><time>2026-05-03T10:49:16.609Z</time></trkpt><trkpt lat="39.4008931" lon="16.5426383"><ele>1186.0</ele><time>2026-05-03T10:49:17.598Z</time></trkpt><trkpt lat="39.4007853" lon="16.5425289"><ele>1184.0</ele><time>2026-05-03T10:49:18.605Z</time></trkpt><trkpt lat="39.4006799" lon="16.5424166"><ele>1184.0</ele><time>2026-05-03T10:49:19.597Z</time></trkpt><trkpt lat="39.4005667" lon="16.5423056"><ele>1184.0</ele><time>2026-05-03T10:49:20.599Z</time></trkpt><trkpt lat="39.4004604" lon="16.5421908"><ele>1184.0</ele><time>2026-05-03T10:49:21.611Z</time></trkpt><trkpt lat="39.4003638" lon="16.5420814"><ele>1184.0</ele><time>2026-05-03T10:49:22.6Z</time></trkpt><trkpt lat="39.4002676" lon="16.5419835"><ele>1180.8</ele><time>2026-05-03T10:49:23.598Z</time></trkpt><trkpt lat="39.4001734" lon="16.5419019"><ele>1177.6000000000001</ele><time>2026-05-03T10:49:24.605Z</time></trkpt><trkpt lat="39.4000695" lon="16.5418572"><ele>1174.4</ele><time>2026-05-03T10:49:25.604Z</time></trkpt><trkpt lat="39.3999571" lon="16.5418389"><ele>1171.2</ele><time>2026-05-03T10:49:26.603Z</time></trkpt><trkpt lat="39.3998594" lon="16.5418721"><ele>1168.0</ele><time>2026-05-03T10:49:27.603Z</time></trkpt><trkpt lat="39.3997772" lon="16.5419447"><ele>1168.0</ele><time>2026-05-03T10:49:28.614Z</time></trkpt><trkpt lat="39.399731" lon="16.5420358"><ele>1168.0</ele><time>2026-05-03T10:49:29.605Z</time></trkpt><trkpt lat="39.3996974" lon="16.542145"><ele>1168.0</ele><time>2026-05-03T10:49:30.6Z</time></trkpt><trkpt lat="39.3996635" lon="16.5422646"><ele>1168.0</ele><time>2026-05-03T10:49:31.603Z</time></trkpt><trkpt lat="39.399625" lon="16.5423959"><ele>1168.0</ele><time>2026-05-03T10:49:32.607Z</time></trkpt><trkpt lat="39.3995749" lon="16.542526"><ele>1169.4</ele><time>2026-05-03T10:49:33.585Z</time></trkpt><trkpt lat="39.3995086" lon="16.5426442"><ele>1170.8</ele><time>2026-05-03T10:49:34.604Z</time></trkpt><trkpt lat="39.3994284" lon="16.5427269"><ele>1172.2</ele><time>2026-05-03T10:49:35.6Z</time></trkpt><trkpt lat="39.3993371" lon="16.5427739"><ele>1173.6</ele><time>2026-05-03T10:49:36.594Z</time></trkpt><trkpt lat="39.3992407" lon="16.5427709"><ele>1175.0</ele><time>2026-05-03T10:49:37.607Z</time></trkpt><trkpt lat="39.399148" lon="16.5427249"><ele>1175.0</ele><time>2026-05-03T10:49:38.598Z</time></trkpt><trkpt lat="39.3990836" lon="16.5426303"><ele>1175.0</ele><time>2026-05-03T10:49:39.602Z</time></trkpt><trkpt lat="39.3990427" lon="16.5425037"><ele>1175.0</ele><time>2026-05-03T10:49:40.603Z</time></trkpt><trkpt lat="39.3990112" lon="16.5423726"><ele>1175.0</ele><time>2026-05-03T10:49:41.602Z</time></trkpt><trkpt lat="39.3989675" lon="16.5422384"><ele>1175.0</ele><time>2026-05-03T10:49:42.602Z</time></trkpt><trkpt lat="39.3989164" lon="16.5421063"><ele>1174.75</ele><time>2026-05-03T10:49:43.607Z</time></trkpt><trkpt lat="39.3988367" lon="16.5419904"><ele>1174.5</ele><time>2026-05-03T10:49:44.595Z</time></trkpt><trkpt lat="39.3987382" lon="16.5418896"><ele>1174.25</ele><time>2026-05-03T10:49:45.607Z</time></trkpt><trkpt lat="39.3986238" lon="16.5418156"><ele>1174.0</ele><time>2026-05-03T10:49:46.6Z</time></trkpt><trkpt lat="39.398501" lon="16.5417777"><ele>1174.0</ele><time>2026-05-03T10:49:47.602Z</time></trkpt><trkpt lat="39.3983661" lon="16.5417638"><ele>1174.0</ele><time>2026-05-03T10:49:48.596Z</time></trkpt><trkpt lat="39.3982352" lon="16.5417666"><ele>1174.0</ele><time>2026-05-03T10:49:49.6Z</time></trkpt><trkpt lat="39.3981132" lon="16.5417971"><ele>1174.0</ele><time>2026-05-03T10:49:50.601Z</time></trkpt><trkpt lat="39.3980018" lon="16.541868"><ele>1173.75</ele><time>2026-05-03T10:49:51.606Z</time></trkpt><trkpt lat="39.3979031" lon="16.5419719"><ele>1173.5</ele><time>2026-05-03T10:49:52.593Z</time></trkpt><trkpt lat="39.3978234" lon="16.5421156"><ele>1173.25</ele><time>2026-05-03T10:49:53.606Z</time></trkpt><trkpt lat="39.3977553" lon="16.5422457"><ele>1173.0</ele><time>2026-05-03T10:49:54.6Z</time></trkpt><trkpt lat="39.3976923" lon="16.5423765"><ele>1173.0</ele><time>2026-05-03T10:49:55.602Z</time></trkpt><trkpt lat="39.3976611" lon="16.5425073"><ele>1173.0</ele><time>2026-05-03T10:49:56.608Z</time></trkpt><trkpt lat="39.397648" lon="16.5426616"><ele>1173.0</ele><time>2026-05-03T10:49:57.595Z</time></trkpt><trkpt lat="39.3976699" lon="16.5428132"><ele>1173.0</ele><time>2026-05-03T10:49:58.597Z</time></trkpt><trkpt lat="39.3976992" lon="16.5429532"><ele>1174.2</ele><time>2026-05-03T10:49:59.595Z</time></trkpt><trkpt lat="39.3977107" lon="16.5430873"><ele>1175.4</ele><time>2026-05-03T10:50:00.602Z</time></trkpt><trkpt lat="39.3977006" lon="16.5432075"><ele>1176.6000000000001</ele><time>2026-05-03T10:50:01.59Z</time></trkpt><trkpt lat="39.3976509" lon="16.5433056"><ele>1177.8</ele><time>2026-05-03T10:50:02.594Z</time></trkpt><trkpt lat="39.3975804" lon="16.5433832"><ele>1179.0</ele><time>2026-05-03T10:50:03.606Z</time></trkpt><trkpt lat="39.3974913" lon="16.543426"><ele>1179.0</ele><time>2026-05-03T10:50:04.605Z</time></trkpt><trkpt lat="39.3973966" lon="16.5434339"><ele>1179.0</ele><time>2026-05-03T10:50:05.588Z</time></trkpt><trkpt lat="39.3973016" lon="16.5434193"><ele>1179.0</ele><time>2026-05-03T10:50:06.584Z</time></trkpt><trkpt lat="39.3972081" lon="16.5433708"><ele>1179.0</ele><time>2026-05-03T10:50:07.589Z</time></trkpt><trkpt lat="39.3971138" lon="16.5432972"><ele>1179.0</ele><time>2026-05-03T10:50:08.594Z</time></trkpt><trkpt lat="39.3970204" lon="16.5432038"><ele>1180.8</ele><time>2026-05-03T10:50:09.59Z</time></trkpt><trkpt lat="39.3969289" lon="16.5430916"><ele>1182.6000000000001</ele><time>2026-05-03T10:50:10.599Z</time></trkpt><trkpt lat="39.3968547" lon="16.5429883"><ele>1184.4</ele><time>2026-05-03T10:50:11.594Z</time></trkpt><trkpt lat="39.3967876" lon="16.5428981"><ele>1186.2</ele><time>2026-05-03T10:50:12.61Z</time></trkpt><trkpt lat="39.3967206" lon="16.542821"><ele>1188.0</ele><time>2026-05-03T10:50:13.595Z</time></trkpt><trkpt lat="39.3966612" lon="16.5427493"><ele>1186.6666666666667</ele><time>2026-05-03T10:50:14.606Z</time></trkpt><trkpt lat="39.3965903" lon="16.5427018"><ele>1185.3333333333333</ele><time>2026-05-03T10:50:15.599Z</time></trkpt><trkpt lat="39.3965054" lon="16.5426864"><ele>1184.0</ele><time>2026-05-03T10:50:16.606Z</time></trkpt><trkpt lat="39.3964199" lon="16.5427088"><ele>1182.6666666666665</ele><time>2026-05-03T10:50:17.592Z</time></trkpt><trkpt lat="39.3963408" lon="16.5427644"><ele>1181.3333333333333</ele><time>2026-05-03T10:50:18.596Z</time></trkpt><trkpt lat="39.3962598" lon="16.5428508"><ele>1180.0</ele><time>2026-05-03T10:50:19.594Z</time></trkpt><trkpt lat="39.3961832" lon="16.5429388"><ele>1180.0</ele><time>2026-05-03T10:50:20.598Z</time></trkpt><trkpt lat="39.3960944" lon="16.5430452"><ele>1180.0</ele><time>2026-05-03T10:50:21.602Z</time></trkpt><trkpt lat="39.3960032" lon="16.5431531"><ele>1180.0</ele><time>2026-05-03T10:50:22.603Z</time></trkpt><trkpt lat="39.395913" lon="16.5432439"><ele>1180.0</ele><time>2026-05-03T10:50:23.605Z</time></trkpt><trkpt lat="39.3958174" lon="16.5433044"><ele>1180.0</ele><time>2026-05-03T10:50:24.603Z</time></trkpt><trkpt lat="39.3957211" lon="16.5433516"><ele>1180.0</ele><time>2026-05-03T10:50:25.601Z</time></trkpt><trkpt lat="39.395626" lon="16.5433811"><ele>1180.0</ele><time>2026-05-03T10:50:26.603Z</time></trkpt><trkpt lat="39.3955256" lon="16.5433833"><ele>1180.0</ele><time>2026-05-03T10:50:27.592Z</time></trkpt><trkpt lat="39.3954212" lon="16.5433692"><ele>1180.0</ele><time>2026-05-03T10:50:28.604Z</time></trkpt><trkpt lat="39.3953055" lon="16.5433555"><ele>1178.0</ele><time>2026-05-03T10:50:29.6Z</time></trkpt><trkpt lat="39.3951866" lon="16.5433207"><ele>1176.0</ele><time>2026-05-03T10:50:30.607Z</time></trkpt><trkpt lat="39.3950637" lon="16.5432842"><ele>1174.0</ele><time>2026-05-03T10:50:31.594Z</time></trkpt><trkpt lat="39.3949473" lon="16.5432537"><ele>1172.0</ele><time>2026-05-03T10:50:32.601Z</time></trkpt><trkpt lat="39.3948279" lon="16.5432302"><ele>1172.0</ele><time>2026-05-03T10:50:33.6Z</time></trkpt><trkpt lat="39.3947131" lon="16.5432167"><ele>1172.0</ele><time>2026-05-03T10:50:34.59Z</time></trkpt><trkpt lat="39.3945961" lon="16.5432138"><ele>1172.0</ele><time>2026-05-03T10:50:35.598Z</time></trkpt><trkpt lat="39.3944783" lon="16.54322"><ele>1172.0</ele><time>2026-05-03T10:50:36.614Z</time></trkpt><trkpt lat="39.3943596" lon="16.5432427"><ele>1170.75</ele><time>2026-05-03T10:50:37.603Z</time></trkpt><trkpt lat="39.3942433" lon="16.5432724"><ele>1169.5</ele><time>2026-05-03T10:50:38.599Z</time></trkpt><trkpt lat="39.394125" lon="16.5433201"><ele>1168.25</ele><time>2026-05-03T10:50:39.605Z</time></trkpt><trkpt lat="39.394" lon="16.5433703"><ele>1167.0</ele><time>2026-05-03T10:50:40.606Z</time></trkpt><trkpt lat="39.3938779" lon="16.5434201"><ele>1167.0</ele><time>2026-05-03T10:50:41.612Z</time></trkpt><trkpt lat="39.3937524" lon="16.5434698"><ele>1167.0</ele><time>2026-05-03T10:50:42.609Z</time></trkpt><trkpt lat="39.3936388" lon="16.5435167"><ele>1167.0</ele><time>2026-05-03T10:50:43.588Z</time></trkpt><trkpt lat="39.3935319" lon="16.5435624"><ele>1167.0</ele><time>2026-05-03T10:50:44.607Z</time></trkpt><trkpt lat="39.3934291" lon="16.5436127"><ele>1167.0</ele><time>2026-05-03T10:50:45.596Z</time></trkpt><trkpt lat="39.39333" lon="16.5436743"><ele>1167.0</ele><time>2026-05-03T10:50:46.619Z</time></trkpt><trkpt lat="39.3932365" lon="16.5437489"><ele>1167.0</ele><time>2026-05-03T10:50:47.599Z</time></trkpt><trkpt lat="39.3931501" lon="16.5438431"><ele>1167.0</ele><time>2026-05-03T10:50:48.609Z</time></trkpt><trkpt lat="39.3930723" lon="16.5439503"><ele>1167.0</ele><time>2026-05-03T10:50:49.593Z</time></trkpt><trkpt lat="39.3930062" lon="16.5440733"><ele>1166.5</ele><time>2026-05-03T10:50:50.606Z</time></trkpt><trkpt lat="39.3929506" lon="16.5442222"><ele>1166.0</ele><time>2026-05-03T10:50:51.602Z</time></trkpt><trkpt lat="39.3929062" lon="16.5443754"><ele>1165.5</ele><time>2026-05-03T10:50:52.612Z</time></trkpt><trkpt lat="39.3928789" lon="16.5445424"><ele>1165.0</ele><time>2026-05-03T10:50:53.599Z</time></trkpt><trkpt lat="39.3928685" lon="16.5447152"><ele>1165.0</ele><time>2026-05-03T10:50:54.612Z</time></trkpt><trkpt lat="39.3928793" lon="16.5448827"><ele>1165.0</ele><time>2026-05-03T10:50:55.606Z</time></trkpt><trkpt lat="39.3929025" lon="16.5450553"><ele>1165.0</ele><time>2026-05-03T10:50:56.616Z</time></trkpt><trkpt lat="39.3929348" lon="16.5452263"><ele>1165.0</ele><time>2026-05-03T10:50:57.594Z</time></trkpt><trkpt lat="39.3929816" lon="16.5453905"><ele>1167.75</ele><time>2026-05-03T10:50:58.6Z</time></trkpt><trkpt lat="39.3930488" lon="16.5455453"><ele>1170.5</ele><time>2026-05-03T10:50:59.585Z</time></trkpt><trkpt lat="39.393134" lon="16.5456847"><ele>1173.25</ele><time>2026-05-03T10:51:00.606Z</time></trkpt><trkpt lat="39.3932315" lon="16.5458004"><ele>1176.0</ele><time>2026-05-03T10:51:01.604Z</time></trkpt><trkpt lat="39.3933412" lon="16.5458963"><ele>1176.0</ele><time>2026-05-03T10:51:02.598Z</time></trkpt><trkpt lat="39.393448" lon="16.5459944"><ele>1176.0</ele><time>2026-05-03T10:51:03.594Z</time></trkpt><trkpt lat="39.393549" lon="16.5460957"><ele>1176.0</ele><time>2026-05-03T10:51:04.614Z</time></trkpt><trkpt lat="39.3936542" lon="16.5461851"><ele>1176.0</ele><time>2026-05-03T10:51:05.602Z</time></trkpt><trkpt lat="39.3937734" lon="16.5462458"><ele>1179.75</ele><time>2026-05-03T10:51:06.615Z</time></trkpt><trkpt lat="39.3938987" lon="16.5462852"><ele>1183.5</ele><time>2026-05-03T10:51:07.613Z</time></trkpt><trkpt lat="39.3940231" lon="16.5463198"><ele>1187.25</ele><time>2026-05-03T10:51:08.573Z</time></trkpt><trkpt lat="39.394134" lon="16.5463768"><ele>1191.0</ele><time>2026-05-03T10:51:09.58Z</time></trkpt><trkpt lat="39.3942214" lon="16.546457"><ele>1191.0</ele><time>2026-05-03T10:51:10.592Z</time></trkpt><trkpt lat="39.3942961" lon="16.5465695"><ele>1191.0</ele><time>2026-05-03T10:51:11.59Z</time></trkpt><trkpt lat="39.3943658" lon="16.5466985"><ele>1191.0</ele><time>2026-05-03T10:51:12.609Z</time></trkpt><trkpt lat="39.3944309" lon="16.5468323"><ele>1191.0</ele><time>2026-05-03T10:51:13.599Z</time></trkpt><trkpt lat="39.3944987" lon="16.5469658"><ele>1190.75</ele><time>2026-05-03T10:51:14.598Z</time></trkpt><trkpt lat="39.394576" lon="16.5470904"><ele>1190.5</ele><time>2026-05-03T10:51:15.616Z</time></trkpt><trkpt lat="39.3946541" lon="16.5472237"><ele>1190.25</ele><time>2026-05-03T10:51:16.594Z</time></trkpt><trkpt lat="39.3947035" lon="16.5473689"><ele>1190.0</ele><time>2026-05-03T10:51:17.591Z</time></trkpt><trkpt lat="39.3947263" lon="16.5475124"><ele>1190.0</ele><time>2026-05-03T10:51:18.602Z</time></trkpt><trkpt lat="39.3947228" lon="16.5476575"><ele>1190.0</ele><time>2026-05-03T10:51:19.612Z</time></trkpt><trkpt lat="39.3946898" lon="16.547807"><ele>1190.0</ele><time>2026-05-03T10:51:20.61Z</time></trkpt><trkpt lat="39.3946384" lon="16.5479363"><ele>1190.0</ele><time>2026-05-03T10:51:21.61Z</time></trkpt><trkpt lat="39.3945731" lon="16.5480568"><ele>1192.6</ele><time>2026-05-03T10:51:22.609Z</time></trkpt><trkpt lat="39.394494" lon="16.5481574"><ele>1195.2</ele><time>2026-05-03T10:51:23.606Z</time></trkpt><trkpt lat="39.3944034" lon="16.5482111"><ele>1197.8</ele><time>2026-05-03T10:51:24.596Z</time></trkpt><trkpt lat="39.3942982" lon="16.5482447"><ele>1200.4</ele><time>2026-05-03T10:51:25.603Z</time></trkpt><trkpt lat="39.3941796" lon="16.5482617"><ele>1203.0</ele><time>2026-05-03T10:51:26.596Z</time></trkpt><trkpt lat="39.3940612" lon="16.548272"><ele>1203.0</ele><time>2026-05-03T10:51:27.589Z</time></trkpt><trkpt lat="39.3939449" lon="16.5483101"><ele>1203.0</ele><time>2026-05-03T10:51:28.603Z</time></trkpt><trkpt lat="39.393839" lon="16.5483918"><ele>1203.0</ele><time>2026-05-03T10:51:29.596Z</time></trkpt><trkpt lat="39.3937438" lon="16.5485027"><ele>1203.0</ele><time>2026-05-03T10:51:30.602Z</time></trkpt><trkpt lat="39.3936505" lon="16.5485922"><ele>1203.4</ele><time>2026-05-03T10:51:31.599Z</time></trkpt><trkpt lat="39.3935623" lon="16.5486465"><ele>1203.8</ele><time>2026-05-03T10:51:32.587Z</time></trkpt><trkpt lat="39.3934617" lon="16.5486612"><ele>1204.2</ele><time>2026-05-03T10:51:33.609Z</time></trkpt><trkpt lat="39.3933615" lon="16.5486438"><ele>1204.6</ele><time>2026-05-03T10:51:34.59Z</time></trkpt><trkpt lat="39.393264" lon="16.5485791"><ele>1205.0</ele><time>2026-05-03T10:51:35.609Z</time></trkpt><trkpt lat="39.3931784" lon="16.5484608"><ele>1205.0</ele><time>2026-05-03T10:51:36.604Z</time></trkpt><trkpt lat="39.3931026" lon="16.5483364"><ele>1205.0</ele><time>2026-05-03T10:51:37.604Z</time></trkpt><trkpt lat="39.3930077" lon="16.5482151"><ele>1205.0</ele><time>2026-05-03T10:51:38.596Z</time></trkpt><trkpt lat="39.3928993" lon="16.5481124"><ele>1205.0</ele><time>2026-05-03T10:51:39.595Z</time></trkpt><trkpt lat="39.3927723" lon="16.5480241"><ele>1203.3333333333335</ele><time>2026-05-03T10:51:40.609Z</time></trkpt><trkpt lat="39.3926287" lon="16.5479539"><ele>1201.6666666666667</ele><time>2026-05-03T10:51:41.594Z</time></trkpt><trkpt lat="39.3924838" lon="16.5479016"><ele>1200.0</ele><time>2026-05-03T10:51:42.596Z</time></trkpt><trkpt lat="39.3923341" lon="16.5478538"><ele>1200.0</ele><time>2026-05-03T10:51:43.598Z</time></trkpt><trkpt lat="39.3921778" lon="16.5478066"><ele>1200.0</ele><time>2026-05-03T10:51:44.598Z</time></trkpt><trkpt lat="39.3920221" lon="16.5477774"><ele>1200.0</ele><time>2026-05-03T10:51:45.602Z</time></trkpt><trkpt lat="39.391869" lon="16.5477645"><ele>1199.0</ele><time>2026-05-03T10:51:46.616Z</time></trkpt><trkpt lat="39.3917172" lon="16.5477701"><ele>1198.0</ele><time>2026-05-03T10:51:47.602Z</time></trkpt><trkpt lat="39.3915656" lon="16.54778"><ele>1197.0</ele><time>2026-05-03T10:51:48.61Z</time></trkpt><trkpt lat="39.3914345" lon="16.547787"><ele>1196.0</ele><time>2026-05-03T10:51:49.599Z</time></trkpt><trkpt lat="39.3913043" lon="16.5477899"><ele>1194.5</ele><time>2026-05-03T10:51:50.603Z</time></trkpt><trkpt lat="39.3911727" lon="16.547781"><ele>1193.0</ele><time>2026-05-03T10:51:51.601Z</time></trkpt><trkpt lat="39.3910374" lon="16.547742"><ele>1191.5</ele><time>2026-05-03T10:51:52.596Z</time></trkpt><trkpt lat="39.3908993" lon="16.5476837"><ele>1190.0</ele><time>2026-05-03T10:51:53.597Z</time></trkpt><trkpt lat="39.3907628" lon="16.5476288"><ele>1190.0</ele><time>2026-05-03T10:51:54.604Z</time></trkpt><trkpt lat="39.3906348" lon="16.5475763"><ele>1190.0</ele><time>2026-05-03T10:51:55.598Z</time></trkpt><trkpt lat="39.3905104" lon="16.5475227"><ele>1190.0</ele><time>2026-05-03T10:51:56.606Z</time></trkpt><trkpt lat="39.3903896" lon="16.5474768"><ele>1190.0</ele><time>2026-05-03T10:51:57.607Z</time></trkpt><trkpt lat="39.3902691" lon="16.5474483"><ele>1188.75</ele><time>2026-05-03T10:51:58.599Z</time></trkpt><trkpt lat="39.3901461" lon="16.5474344"><ele>1187.5</ele><time>2026-05-03T10:51:59.607Z</time></trkpt><trkpt lat="39.390027" lon="16.5474439"><ele>1186.25</ele><time>2026-05-03T10:52:00.602Z</time></trkpt><trkpt lat="39.3899186" lon="16.5474738"><ele>1185.0</ele><time>2026-05-03T10:52:01.609Z</time></trkpt><trkpt lat="39.3898214" lon="16.5475362"><ele>1185.0</ele><time>2026-05-03T10:52:02.6Z</time></trkpt><trkpt lat="39.3897377" lon="16.5476348"><ele>1185.0</ele><time>2026-05-03T10:52:03.603Z</time></trkpt><trkpt lat="39.3896726" lon="16.5477523"><ele>1185.0</ele><time>2026-05-03T10:52:04.593Z</time></trkpt><trkpt lat="39.3896253" lon="16.5478807"><ele>1185.0</ele><time>2026-05-03T10:52:05.6Z</time></trkpt><trkpt lat="39.3895739" lon="16.5479932"><ele>1185.0</ele><time>2026-05-03T10:52:06.608Z</time></trkpt><trkpt lat="39.3895106" lon="16.5480869"><ele>1182.8</ele><time>2026-05-03T10:52:07.598Z</time></trkpt><trkpt lat="39.3894374" lon="16.548149"><ele>1180.6</ele><time>2026-05-03T10:52:08.607Z</time></trkpt><trkpt lat="39.3893426" lon="16.5481862"><ele>1178.4</ele><time>2026-05-03T10:52:09.602Z</time></trkpt><trkpt lat="39.3892476" lon="16.5482038"><ele>1176.2</ele><time>2026-05-03T10:52:10.603Z</time></trkpt><trkpt lat="39.3891561" lon="16.5482047"><ele>1174.0</ele><time>2026-05-03T10:52:11.598Z</time></trkpt><trkpt lat="39.3890608" lon="16.5481996"><ele>1174.0</ele><time>2026-05-03T10:52:12.601Z</time></trkpt><trkpt lat="39.388966" lon="16.548209"><ele>1174.0</ele><time>2026-05-03T10:52:13.597Z</time></trkpt><trkpt lat="39.3888752" lon="16.5482524"><ele>1174.0</ele><time>2026-05-03T10:52:14.614Z</time></trkpt><trkpt lat="39.3887989" lon="16.5483282"><ele>1174.0</ele><time>2026-05-03T10:52:15.606Z</time></trkpt><trkpt lat="39.3887303" lon="16.5484196"><ele>1174.0</ele><time>2026-05-03T10:52:16.596Z</time></trkpt><trkpt lat="39.388662" lon="16.5485149"><ele>1171.2</ele><time>2026-05-03T10:52:17.609Z</time></trkpt><trkpt lat="39.3885965" lon="16.5486224"><ele>1168.4</ele><time>2026-05-03T10:52:18.601Z</time></trkpt><trkpt lat="39.3885304" lon="16.5487332"><ele>1165.6</ele><time>2026-05-03T10:52:19.587Z</time></trkpt><trkpt lat="39.3884679" lon="16.5488357"><ele>1162.8</ele><time>2026-05-03T10:52:20.609Z</time></trkpt><trkpt lat="39.3884138" lon="16.548939"><ele>1160.0</ele><time>2026-05-03T10:52:21.597Z</time></trkpt><trkpt lat="39.3883663" lon="16.5490536"><ele>1160.0</ele><time>2026-05-03T10:52:22.597Z</time></trkpt><trkpt lat="39.3883297" lon="16.5491697"><ele>1160.0</ele><time>2026-05-03T10:52:23.6Z</time></trkpt><trkpt lat="39.3883045" lon="16.5492859"><ele>1160.0</ele><time>2026-05-03T10:52:24.595Z</time></trkpt><trkpt lat="39.3882885" lon="16.5494107"><ele>1160.0</ele><time>2026-05-03T10:52:25.601Z</time></trkpt><trkpt lat="39.3882797" lon="16.5495485"><ele>1160.0</ele><time>2026-05-03T10:52:26.606Z</time></trkpt><trkpt lat="39.3882902" lon="16.549703"><ele>1161.75</ele><time>2026-05-03T10:52:27.604Z</time></trkpt><trkpt lat="39.3882911" lon="16.5498571"><ele>1163.5</ele><time>2026-05-03T10:52:28.606Z</time></trkpt><trkpt lat="39.3883054" lon="16.5500079"><ele>1165.25</ele><time>2026-05-03T10:52:29.61Z</time></trkpt><trkpt lat="39.388311" lon="16.5501583"><ele>1167.0</ele><time>2026-05-03T10:52:30.602Z</time></trkpt><trkpt lat="39.3883198" lon="16.5502936"><ele>1167.4</ele><time>2026-05-03T10:52:31.605Z</time></trkpt><trkpt lat="39.3883271" lon="16.5504215"><ele>1167.8000000000002</ele><time>2026-05-03T10:52:32.6Z</time></trkpt><trkpt lat="39.3883333" lon="16.550539"><ele>1168.2</ele><time>2026-05-03T10:52:33.587Z</time></trkpt><trkpt lat="39.3883353" lon="16.5506556"><ele>1168.6000000000001</ele><time>2026-05-03T10:52:34.598Z</time></trkpt><trkpt lat="39.3883092" lon="16.5507664"><ele>1169.0</ele><time>2026-05-03T10:52:35.598Z</time></trkpt><trkpt lat="39.3882576" lon="16.5508482"><ele>1169.0</ele><time>2026-05-03T10:52:36.601Z</time></trkpt><trkpt lat="39.3881883" lon="16.5509003"><ele>1169.0</ele><time>2026-05-03T10:52:37.593Z</time></trkpt><trkpt lat="39.3881067" lon="16.550914"><ele>1169.0</ele><time>2026-05-03T10:52:38.599Z</time></trkpt><trkpt lat="39.3880326" lon="16.5508954"><ele>1169.0</ele><time>2026-05-03T10:52:39.598Z</time></trkpt><trkpt lat="39.3879309" lon="16.5508448"><ele>1169.0</ele><time>2026-05-03T10:52:41.596Z</time></trkpt><trkpt lat="39.3878591" lon="16.5508192"><ele>1169.0</ele><time>2026-05-03T10:52:43.618Z</time></trkpt><trkpt lat="39.387793" lon="16.5508034"><ele>1164.3333333333335</ele><time>2026-05-03T10:53:43.603Z</time></trkpt><trkpt lat="39.3877032" lon="16.5507942"><ele>1159.6666666666667</ele><time>2026-05-03T10:53:45.609Z</time></trkpt><trkpt lat="39.387632" lon="16.5507848"><ele>1155.0</ele><time>2026-05-03T10:53:46.614Z</time></trkpt><trkpt lat="39.3875602" lon="16.550773"><ele>1150.3333333333333</ele><time>2026-05-03T10:53:47.6Z</time></trkpt><trkpt lat="39.387477" lon="16.5507585"><ele>1145.6666666666665</ele><time>2026-05-03T10:53:48.606Z</time></trkpt><trkpt lat="39.3873947" lon="16.5507468"><ele>1141.0</ele><time>2026-05-03T10:53:49.598Z</time></trkpt><trkpt lat="39.3873268" lon="16.5507308"><ele>1141.0</ele><time>2026-05-03T10:53:50.607Z</time></trkpt><trkpt lat="39.387218" lon="16.5506897"><ele>1141.0</ele><time>2026-05-03T10:53:52.6Z</time></trkpt><trkpt lat="39.387138" lon="16.5506212"><ele>1141.0</ele><time>2026-05-03T10:53:54.592Z</time></trkpt><trkpt lat="39.3870731" lon="16.5505069"><ele>1141.0</ele><time>2026-05-03T10:53:56.591Z</time></trkpt><trkpt lat="39.3869916" lon="16.5503994"><ele>1141.0</ele><time>2026-05-03T10:53:58.602Z</time></trkpt><trkpt lat="39.3869465" lon="16.5503416"><ele>1145.5</ele><time>2026-05-03T10:53:59.604Z</time></trkpt><trkpt lat="39.3868974" lon="16.5502804"><ele>1150.0</ele><time>2026-05-03T10:54:00.6Z</time></trkpt><trkpt lat="39.3868485" lon="16.550215"><ele>1154.5</ele><time>2026-05-03T10:54:01.604Z</time></trkpt><trkpt lat="39.3868026" lon="16.5501355"><ele>1159.0</ele><time>2026-05-03T10:54:02.611Z</time></trkpt><trkpt lat="39.386762" lon="16.5500482"><ele>1163.5</ele><time>2026-05-03T10:54:03.612Z</time></trkpt><trkpt lat="39.3867313" lon="16.5499404"><ele>1168.0</ele><time>2026-05-03T10:54:04.605Z</time></trkpt><trkpt lat="39.3867094" lon="16.5498289"><ele>1168.0</ele><time>2026-05-03T10:54:05.595Z</time></trkpt><trkpt lat="39.3866825" lon="16.5497239"><ele>1168.0</ele><time>2026-05-03T10:54:06.603Z</time></trkpt><trkpt lat="39.3866762" lon="16.5496041"><ele>1168.0</ele><time>2026-05-03T10:54:07.595Z</time></trkpt><trkpt lat="39.3866558" lon="16.5494775"><ele>1168.0</ele><time>2026-05-03T10:54:08.602Z</time></trkpt><trkpt lat="39.3866186" lon="16.5493458"><ele>1168.0</ele><time>2026-05-03T10:54:09.596Z</time></trkpt><trkpt lat="39.3865743" lon="16.5492117"><ele>1167.8333333333333</ele><time>2026-05-03T10:54:10.596Z</time></trkpt><trkpt lat="39.3865294" lon="16.5490925"><ele>1167.6666666666665</ele><time>2026-05-03T10:54:11.598Z</time></trkpt><trkpt lat="39.3864846" lon="16.5489774"><ele>1167.5</ele><time>2026-05-03T10:54:12.601Z</time></trkpt><trkpt lat="39.3864561" lon="16.5488735"><ele>1167.3333333333333</ele><time>2026-05-03T10:54:13.6Z</time></trkpt><trkpt lat="39.3864393" lon="16.5487729"><ele>1167.1666666666667</ele><time>2026-05-03T10:54:14.602Z</time></trkpt><trkpt lat="39.386433" lon="16.54868"><ele>1167.0</ele><time>2026-05-03T10:54:15.601Z</time></trkpt><trkpt lat="39.3864392" lon="16.548583"><ele>1166.5</ele><time>2026-05-03T10:54:16.599Z</time></trkpt><trkpt lat="39.3864542" lon="16.5484902"><ele>1166.0</ele><time>2026-05-03T10:54:17.605Z</time></trkpt><trkpt lat="39.3864672" lon="16.5483991"><ele>1165.5</ele><time>2026-05-03T10:54:18.596Z</time></trkpt><trkpt lat="39.3864788" lon="16.548312"><ele>1165.0</ele><time>2026-05-03T10:54:19.593Z</time></trkpt><trkpt lat="39.3864776" lon="16.5481673"><ele>1164.5</ele><time>2026-05-03T10:54:21.611Z</time></trkpt><trkpt lat="39.3864618" lon="16.54803"><ele>1164.0</ele><time>2026-05-03T10:54:23.6Z</time></trkpt><trkpt lat="39.3864001" lon="16.5479019"><ele>1164.0</ele><time>2026-05-03T10:54:25.598Z</time></trkpt><trkpt lat="39.3863315" lon="16.5478028"><ele>1164.0</ele><time>2026-05-03T10:54:27.605Z</time></trkpt><trkpt lat="39.38627" lon="16.5477425"><ele>1164.0</ele><time>2026-05-03T10:54:29.589Z</time></trkpt><trkpt lat="39.3861885" lon="16.5476796"><ele>1164.0</ele><time>2026-05-03T10:54:31.605Z</time></trkpt><trkpt lat="39.3861232" lon="16.5476327"><ele>1164.0</ele><time>2026-05-03T10:54:33.608Z</time></trkpt><trkpt lat="39.3860497" lon="16.5476045"><ele>1164.0</ele><time>2026-05-03T10:54:58.606Z</time></trkpt><trkpt lat="39.3859578" lon="16.5475829"><ele>1164.0</ele><time>2026-05-03T10:55:01.603Z</time></trkpt><trkpt lat="39.3858715" lon="16.5475328"><ele>1164.0</ele><time>2026-05-03T10:55:03.617Z</time></trkpt><trkpt lat="39.385781" lon="16.5474934"><ele>1164.0</ele><time>2026-05-03T10:55:05.6Z</time></trkpt><trkpt lat="39.3856881" lon="16.5474532"><ele>1164.0</ele><time>2026-05-03T10:55:07.593Z</time></trkpt><trkpt lat="39.3855969" lon="16.5474205"><ele>1164.0</ele><time>2026-05-03T10:55:09.599Z</time></trkpt><trkpt lat="39.385524" lon="16.547386"><ele>1164.0</ele><time>2026-05-03T10:55:11.602Z</time></trkpt><trkpt lat="39.3854334" lon="16.5473683"><ele>1164.0</ele><time>2026-05-03T10:55:13.595Z</time></trkpt><trkpt lat="39.3853592" lon="16.5473512"><ele>1164.0</ele><time>2026-05-03T10:55:15.612Z</time></trkpt><trkpt lat="39.3853203" lon="16.5472797"><ele>1164.0</ele><time>2026-05-03T10:55:21.6Z</time></trkpt><trkpt lat="39.3853646" lon="16.5472157"><ele>1164.0</ele><time>2026-05-03T10:55:25.597Z</time></trkpt><trkpt lat="39.3854295" lon="16.5471318"><ele>1164.0</ele><time>2026-05-03T10:55:28.594Z</time></trkpt><trkpt lat="39.3854561" lon="16.5470448"><ele>1164.6000000000001</ele><time>2026-05-03T10:55:31.604Z</time></trkpt><trkpt lat="39.3854058" lon="16.5469461"><ele>1165.2</ele><time>2026-05-03T10:55:34.603Z</time></trkpt><trkpt lat="39.3853391" lon="16.5468904"><ele>1165.8000000000002</ele><time>2026-05-03T10:55:36.611Z</time></trkpt><trkpt lat="39.3852508" lon="16.5468234"><ele>1166.4</ele><time>2026-05-03T10:55:38.604Z</time></trkpt><trkpt lat="39.3851647" lon="16.5467563"><ele>1167.0</ele><time>2026-05-03T10:55:40.605Z</time></trkpt><trkpt lat="39.3850811" lon="16.5466683"><ele>1167.0</ele><time>2026-05-03T10:55:42.61Z</time></trkpt><trkpt lat="39.3850043" lon="16.5465783"><ele>1167.0</ele><time>2026-05-03T10:55:44.595Z</time></trkpt><trkpt lat="39.384922" lon="16.5464801"><ele>1167.0</ele><time>2026-05-03T10:55:46.596Z</time></trkpt><trkpt lat="39.3848602" lon="16.5463845"><ele>1167.0</ele><time>2026-05-03T10:55:48.603Z</time></trkpt><trkpt lat="39.3848242" lon="16.5462995"><ele>1167.0</ele><time>2026-05-03T10:55:50.611Z</time></trkpt><trkpt lat="39.3847948" lon="16.5462063"><ele>1166.1666666666667</ele><time>2026-05-03T10:55:53.593Z</time></trkpt><trkpt lat="39.3847466" lon="16.5461117"><ele>1165.3333333333333</ele><time>2026-05-03T10:55:56.606Z</time></trkpt><trkpt lat="39.3847136" lon="16.5460372"><ele>1164.5</ele><time>2026-05-03T10:55:58.591Z</time></trkpt><trkpt lat="39.3846593" lon="16.5459427"><ele>1163.6666666666665</ele><time>2026-05-03T10:56:00.581Z</time></trkpt><trkpt lat="39.3846065" lon="16.545846"><ele>1162.8333333333333</ele><time>2026-05-03T10:56:02.592Z</time></trkpt><trkpt lat="39.384544" lon="16.5457458"><ele>1162.0</ele><time>2026-05-03T10:56:04.596Z</time></trkpt><trkpt lat="39.3844806" lon="16.5456777"><ele>1162.0</ele><time>2026-05-03T10:56:06.615Z</time></trkpt><trkpt lat="39.3844344" lon="16.5456138"><ele>1162.0</ele><time>2026-05-03T10:56:09.59Z</time></trkpt><trkpt lat="39.3844204" lon="16.5454977"><ele>1162.0</ele><time>2026-05-03T10:56:18.605Z</time></trkpt><trkpt lat="39.3844258" lon="16.5453939"><ele>1162.0</ele><time>2026-05-03T10:56:20.605Z</time></trkpt><trkpt lat="39.3844672" lon="16.5452566"><ele>1162.0</ele><time>2026-05-03T10:56:22.602Z</time></trkpt><trkpt lat="39.3844909" lon="16.5451705"><ele>1162.0</ele><time>2026-05-03T10:56:23.601Z</time></trkpt><trkpt lat="39.3845089" lon="16.5450679"><ele>1159.8333333333333</ele><time>2026-05-03T10:56:24.597Z</time></trkpt><trkpt lat="39.3845286" lon="16.5449663"><ele>1157.6666666666665</ele><time>2026-05-03T10:56:25.608Z</time></trkpt><trkpt lat="39.3845471" lon="16.5448706"><ele>1155.5</ele><time>2026-05-03T10:56:26.604Z</time></trkpt><trkpt lat="39.3845666" lon="16.5447704"><ele>1153.3333333333333</ele><time>2026-05-03T10:56:27.603Z</time></trkpt><trkpt lat="39.38459" lon="16.5446726"><ele>1151.1666666666667</ele><time>2026-05-03T10:56:28.606Z</time></trkpt><trkpt lat="39.3846145" lon="16.5445674"><ele>1149.0</ele><time>2026-05-03T10:56:29.6Z</time></trkpt><trkpt lat="39.3846374" lon="16.5444623"><ele>1148.0</ele><time>2026-05-03T10:56:30.603Z</time></trkpt><trkpt lat="39.3846544" lon="16.5443529"><ele>1147.0</ele><time>2026-05-03T10:56:31.594Z</time></trkpt><trkpt lat="39.3846728" lon="16.5442549"><ele>1146.0</ele><time>2026-05-03T10:56:32.604Z</time></trkpt><trkpt lat="39.3846928" lon="16.5441665"><ele>1145.0</ele><time>2026-05-03T10:56:33.588Z</time></trkpt><trkpt lat="39.3847174" lon="16.5440718"><ele>1144.0</ele><time>2026-05-03T10:56:34.592Z</time></trkpt><trkpt lat="39.3847408" lon="16.5439729"><ele>1143.0</ele><time>2026-05-03T10:56:35.596Z</time></trkpt><trkpt lat="39.3847613" lon="16.5438674"><ele>1143.0</ele><time>2026-05-03T10:56:36.598Z</time></trkpt><trkpt lat="39.3847808" lon="16.54377"><ele>1143.0</ele><time>2026-05-03T10:56:37.598Z</time></trkpt><trkpt lat="39.3848078" lon="16.5436305"><ele>1143.0</ele><time>2026-05-03T10:56:39.615Z</time></trkpt><trkpt lat="39.3848251" lon="16.5435351"><ele>1143.0</ele><time>2026-05-03T10:56:41.609Z</time></trkpt><trkpt lat="39.3848671" lon="16.5434591"><ele>1143.0</ele><time>2026-05-03T10:56:44.604Z</time></trkpt><trkpt lat="39.3849278" lon="16.5434357"><ele>1143.0</ele><time>2026-05-03T10:56:59.602Z</time></trkpt><trkpt lat="39.3849968" lon="16.5434524"><ele>1142.857142857143</ele><time>2026-05-03T10:57:03.599Z</time></trkpt><trkpt lat="39.3850521" lon="16.5434999"><ele>1142.7142857142856</ele><time>2026-05-03T10:57:09.608Z</time></trkpt><trkpt lat="39.3850044" lon="16.5434395"><ele>1142.5714285714284</ele><time>2026-05-03T11:09:08.598Z</time></trkpt><trkpt lat="39.3849398" lon="16.5434519"><ele>1142.4285714285713</ele><time>2026-05-03T11:32:33.603Z</time></trkpt><trkpt lat="39.3848701" lon="16.5434527"><ele>1142.2857142857142</ele><time>2026-05-03T11:32:40.646Z</time></trkpt><trkpt lat="39.3848044" lon="16.5434348"><ele>1142.142857142857</ele><time>2026-05-03T11:32:49.674Z</time></trkpt><trkpt lat="39.3847393" lon="16.5434032"><ele>1142.0</ele><time>2026-05-03T11:33:11.636Z</time></trkpt><trkpt lat="39.3848093" lon="16.5434508"><ele>1142.0</ele><time>2026-05-03T11:34:58.623Z</time></trkpt><trkpt lat="39.3848732" lon="16.5434569"><ele>1142.0</ele><time>2026-05-03T11:35:03.597Z</time></trkpt><trkpt lat="39.3849733" lon="16.5433877"><ele>1142.0</ele><time>2026-05-03T11:38:50.599Z</time></trkpt><trkpt lat="39.3850271" lon="16.5434508"><ele>1142.0</ele><time>2026-05-03T11:39:32.6Z</time></trkpt><trkpt lat="39.3850551" lon="16.5435304"><ele>1142.0</ele><time>2026-05-03T11:44:43.514Z</time></trkpt><trkpt lat="39.3850793" lon="16.5436483"><ele>1142.0</ele><time>2026-05-03T11:44:44.623Z</time></trkpt><trkpt lat="39.385139" lon="16.5438726"><ele>1142.2</ele><time>2026-05-03T11:44:46.581Z</time></trkpt><trkpt lat="39.3851914" lon="16.5440079"><ele>1142.4</ele><time>2026-05-03T11:44:48.601Z</time></trkpt><trkpt lat="39.3852481" lon="16.5441426"><ele>1142.6</ele><time>2026-05-03T11:44:50.598Z</time></trkpt><trkpt lat="39.3852944" lon="16.5442674"><ele>1142.8</ele><time>2026-05-03T11:44:52.595Z</time></trkpt><trkpt lat="39.3853015" lon="16.5443526"><ele>1143.0</ele><time>2026-05-03T11:44:54.586Z</time></trkpt><trkpt lat="39.385297" lon="16.5444497"><ele>1143.6</ele><time>2026-05-03T11:44:56.591Z</time></trkpt><trkpt lat="39.3852913" lon="16.5445804"><ele>1144.1999999999998</ele><time>2026-05-03T11:44:58.604Z</time></trkpt><trkpt lat="39.3852698" lon="16.5447137"><ele>1144.8</ele><time>2026-05-03T11:45:00.597Z</time></trkpt><trkpt lat="39.385212" lon="16.5448533"><ele>1145.3999999999999</ele><time>2026-05-03T11:45:02.589Z</time></trkpt><trkpt lat="39.385168" lon="16.5449458"><ele>1146.0</ele><time>2026-05-03T11:45:03.566Z</time></trkpt><trkpt lat="39.3851299" lon="16.5450477"><ele>1146.0</ele><time>2026-05-03T11:45:04.586Z</time></trkpt><trkpt lat="39.3850897" lon="16.5451488"><ele>1146.0</ele><time>2026-05-03T11:45:05.579Z</time></trkpt><trkpt lat="39.385057" lon="16.5452432"><ele>1146.0</ele><time>2026-05-03T11:45:06.607Z</time></trkpt><trkpt lat="39.3850207" lon="16.5453233"><ele>1146.0</ele><time>2026-05-03T11:45:07.572Z</time></trkpt><trkpt lat="39.3849684" lon="16.5454034"><ele>1146.0</ele><time>2026-05-03T11:45:08.585Z</time></trkpt><trkpt lat="39.3849105" lon="16.5454843"><ele>1146.0</ele><time>2026-05-03T11:45:09.578Z</time></trkpt><trkpt lat="39.3848611" lon="16.5455681"><ele>1147.3333333333333</ele><time>2026-05-03T11:45:10.603Z</time></trkpt><trkpt lat="39.3848228" lon="16.5456583"><ele>1148.6666666666667</ele><time>2026-05-03T11:45:11.587Z</time></trkpt><trkpt lat="39.3847919" lon="16.5457353"><ele>1150.0</ele><time>2026-05-03T11:45:12.586Z</time></trkpt><trkpt lat="39.3847577" lon="16.5458267"><ele>1151.3333333333335</ele><time>2026-05-03T11:45:14.574Z</time></trkpt><trkpt lat="39.3847402" lon="16.5459349"><ele>1152.6666666666667</ele><time>2026-05-03T11:45:16.578Z</time></trkpt><trkpt lat="39.3847357" lon="16.5460611"><ele>1154.0</ele><time>2026-05-03T11:45:18.586Z</time></trkpt><trkpt lat="39.3847716" lon="16.5461972"><ele>1156.6000000000001</ele><time>2026-05-03T11:45:20.595Z</time></trkpt><trkpt lat="39.384807" lon="16.5463496"><ele>1159.2</ele><time>2026-05-03T11:45:22.578Z</time></trkpt><trkpt lat="39.3849099" lon="16.5465364"><ele>1161.8000000000002</ele><time>2026-05-03T11:45:25.575Z</time></trkpt><trkpt lat="39.3849587" lon="16.5465995"><ele>1164.4</ele><time>2026-05-03T11:45:26.571Z</time></trkpt><trkpt lat="39.3850199" lon="16.5466621"><ele>1167.0</ele><time>2026-05-03T11:45:27.596Z</time></trkpt><trkpt lat="39.3850839" lon="16.5467135"><ele>1167.0</ele><time>2026-05-03T11:45:28.611Z</time></trkpt><trkpt lat="39.3851474" lon="16.5467553"><ele>1167.0</ele><time>2026-05-03T11:45:29.579Z</time></trkpt><trkpt lat="39.3852192" lon="16.5468046"><ele>1167.0</ele><time>2026-05-03T11:45:30.593Z</time></trkpt><trkpt lat="39.38528" lon="16.5468616"><ele>1167.0</ele><time>2026-05-03T11:45:31.6Z</time></trkpt><trkpt lat="39.3853397" lon="16.5469065"><ele>1167.0</ele><time>2026-05-03T11:45:32.584Z</time></trkpt><trkpt lat="39.3854298" lon="16.5469607"><ele>1167.0</ele><time>2026-05-03T11:45:34.623Z</time></trkpt><trkpt lat="39.3854674" lon="16.5470513"><ele>1166.5714285714287</ele><time>2026-05-03T11:45:36.593Z</time></trkpt><trkpt lat="39.3854586" lon="16.5471322"><ele>1166.1428571428573</ele><time>2026-05-03T11:45:38.596Z</time></trkpt><trkpt lat="39.3854005" lon="16.5471986"><ele>1165.7142857142858</ele><time>2026-05-03T11:45:41.596Z</time></trkpt><trkpt lat="39.3853387" lon="16.5472388"><ele>1165.2857142857142</ele><time>2026-05-03T11:45:44.598Z</time></trkpt><trkpt lat="39.3852877" lon="16.5473009"><ele>1164.8571428571427</ele><time>2026-05-03T11:45:47.606Z</time></trkpt><trkpt lat="39.3852203" lon="16.5473232"><ele>1164.4285714285713</ele><time>2026-05-03T11:46:04.609Z</time></trkpt><trkpt lat="39.3851329" lon="16.5473118"><ele>1164.0</ele><time>2026-05-03T11:46:11.593Z</time></trkpt><trkpt lat="39.3850406" lon="16.5472791"><ele>1164.0</ele><time>2026-05-03T11:46:13.598Z</time></trkpt><trkpt lat="39.3849714" lon="16.5472592"><ele>1164.0</ele><time>2026-05-03T11:46:14.601Z</time></trkpt><trkpt lat="39.3848962" lon="16.5472302"><ele>1164.0</ele><time>2026-05-03T11:46:15.591Z</time></trkpt><trkpt lat="39.3848156" lon="16.5471935"><ele>1164.0</ele><time>2026-05-03T11:46:16.586Z</time></trkpt><trkpt lat="39.3847215" lon="16.547157"><ele>1164.0</ele><time>2026-05-03T11:46:17.585Z</time></trkpt><trkpt lat="39.3846201" lon="16.5471207"><ele>1164.0</ele><time>2026-05-03T11:46:18.591Z</time></trkpt><trkpt lat="39.384509" lon="16.5470929"><ele>1164.25</ele><time>2026-05-03T11:46:19.603Z</time></trkpt><trkpt lat="39.3843876" lon="16.547058"><ele>1164.5</ele><time>2026-05-03T11:46:20.602Z</time></trkpt><trkpt lat="39.3842645" lon="16.5470135"><ele>1164.75</ele><time>2026-05-03T11:46:21.589Z</time></trkpt><trkpt lat="39.3841412" lon="16.5469687"><ele>1165.0</ele><time>2026-05-03T11:46:22.587Z</time></trkpt><trkpt lat="39.3840245" lon="16.5469322"><ele>1165.8</ele><time>2026-05-03T11:46:23.599Z</time></trkpt><trkpt lat="39.3839155" lon="16.546906"><ele>1166.6</ele><time>2026-05-03T11:46:24.596Z</time></trkpt><trkpt lat="39.3838171" lon="16.5468803"><ele>1167.4</ele><time>2026-05-03T11:46:25.603Z</time></trkpt><trkpt lat="39.3837243" lon="16.5468528"><ele>1168.2</ele><time>2026-05-03T11:46:26.587Z</time></trkpt><trkpt lat="39.3836281" lon="16.546817"><ele>1169.0</ele><time>2026-05-03T11:46:27.587Z</time></trkpt><trkpt lat="39.383526" lon="16.5467729"><ele>1167.0</ele><time>2026-05-03T11:46:28.597Z</time></trkpt><trkpt lat="39.3834193" lon="16.5467337"><ele>1165.0</ele><time>2026-05-03T11:46:29.592Z</time></trkpt><trkpt lat="39.3832983" lon="16.5466967"><ele>1163.0</ele><time>2026-05-03T11:46:30.607Z</time></trkpt><trkpt lat="39.3831755" lon="16.5466635"><ele>1161.0</ele><time>2026-05-03T11:46:31.597Z</time></trkpt><trkpt lat="39.3830553" lon="16.5466221"><ele>1161.5</ele><time>2026-05-03T11:46:32.594Z</time></trkpt><trkpt lat="39.3829294" lon="16.5465856"><ele>1162.0</ele><time>2026-05-03T11:46:33.589Z</time></trkpt><trkpt lat="39.3828028" lon="16.5465359"><ele>1162.5</ele><time>2026-05-03T11:46:34.586Z</time></trkpt><trkpt lat="39.3826718" lon="16.5464945"><ele>1163.0</ele><time>2026-05-03T11:46:35.584Z</time></trkpt><trkpt lat="39.3825348" lon="16.546454"><ele>1163.0</ele><time>2026-05-03T11:46:36.586Z</time></trkpt><trkpt lat="39.3823918" lon="16.5464075"><ele>1163.0</ele><time>2026-05-03T11:46:37.589Z</time></trkpt><trkpt lat="39.3822498" lon="16.5463581"><ele>1163.0</ele><time>2026-05-03T11:46:38.583Z</time></trkpt><trkpt lat="39.3821041" lon="16.5463135"><ele>1163.0</ele><time>2026-05-03T11:46:39.584Z</time></trkpt><trkpt lat="39.3819621" lon="16.546271"><ele>1162.0</ele><time>2026-05-03T11:46:40.586Z</time></trkpt><trkpt lat="39.3818199" lon="16.5462468"><ele>1161.0</ele><time>2026-05-03T11:46:41.594Z</time></trkpt><trkpt lat="39.3816683" lon="16.5462391"><ele>1160.0</ele><time>2026-05-03T11:46:42.595Z</time></trkpt><trkpt lat="39.3815176" lon="16.5462493"><ele>1159.0</ele><time>2026-05-03T11:46:43.585Z</time></trkpt><trkpt lat="39.3813587" lon="16.5462613"><ele>1159.3333333333333</ele><time>2026-05-03T11:46:44.6Z</time></trkpt><trkpt lat="39.381199" lon="16.5462786"><ele>1159.6666666666667</ele><time>2026-05-03T11:46:45.591Z</time></trkpt><trkpt lat="39.3810429" lon="16.5462878"><ele>1160.0</ele><time>2026-05-03T11:46:46.595Z</time></trkpt><trkpt lat="39.3808838" lon="16.5462984"><ele>1160.0</ele><time>2026-05-03T11:46:47.594Z</time></trkpt><trkpt lat="39.3807191" lon="16.5463095"><ele>1160.0</ele><time>2026-05-03T11:46:48.589Z</time></trkpt><trkpt lat="39.3805557" lon="16.5463258"><ele>1160.0</ele><time>2026-05-03T11:46:49.591Z</time></trkpt><trkpt lat="39.3804006" lon="16.546345"><ele>1159.5</ele><time>2026-05-03T11:46:50.595Z</time></trkpt><trkpt lat="39.3802543" lon="16.5463816"><ele>1159.0</ele><time>2026-05-03T11:46:51.598Z</time></trkpt><trkpt lat="39.3801216" lon="16.5464397"><ele>1158.5</ele><time>2026-05-03T11:46:52.591Z</time></trkpt><trkpt lat="39.3799937" lon="16.5465236"><ele>1158.0</ele><time>2026-05-03T11:46:53.59Z</time></trkpt><trkpt lat="39.37988" lon="16.5466258"><ele>1158.0</ele><time>2026-05-03T11:46:54.598Z</time></trkpt><trkpt lat="39.3797623" lon="16.5467311"><ele>1158.0</ele><time>2026-05-03T11:46:55.59Z</time></trkpt><trkpt lat="39.3796489" lon="16.5468153"><ele>1158.0</ele><time>2026-05-03T11:46:56.589Z</time></trkpt><trkpt lat="39.3795305" lon="16.5468617"><ele>1158.0</ele><time>2026-05-03T11:46:57.59Z</time></trkpt><trkpt lat="39.3794148" lon="16.5468775"><ele>1158.8</ele><time>2026-05-03T11:46:58.6Z</time></trkpt><trkpt lat="39.3792979" lon="16.5468524"><ele>1159.6</ele><time>2026-05-03T11:46:59.582Z</time></trkpt><trkpt lat="39.3791957" lon="16.5468087"><ele>1160.4</ele><time>2026-05-03T11:47:00.598Z</time></trkpt><trkpt lat="39.3791146" lon="16.5467525"><ele>1161.2</ele><time>2026-05-03T11:47:01.585Z</time></trkpt><trkpt lat="39.3790551" lon="16.5466867"><ele>1162.0</ele><time>2026-05-03T11:47:02.584Z</time></trkpt><trkpt lat="39.3790129" lon="16.5465892"><ele>1162.0</ele><time>2026-05-03T11:47:03.598Z</time></trkpt><trkpt lat="39.379001" lon="16.5464669"><ele>1162.0</ele><time>2026-05-03T11:47:04.593Z</time></trkpt><trkpt lat="39.3790017" lon="16.5463421"><ele>1162.0</ele><time>2026-05-03T11:47:05.59Z</time></trkpt><trkpt lat="39.3790256" lon="16.5462131"><ele>1162.0</ele><time>2026-05-03T11:47:06.591Z</time></trkpt><trkpt lat="39.379055" lon="16.546097"><ele>1162.0</ele><time>2026-05-03T11:47:07.581Z</time></trkpt><trkpt lat="39.3790866" lon="16.5459629"><ele>1162.0</ele><time>2026-05-03T11:47:08.593Z</time></trkpt><trkpt lat="39.3791171" lon="16.545822"><ele>1162.0</ele><time>2026-05-03T11:47:09.589Z</time></trkpt><trkpt lat="39.3791465" lon="16.5456785"><ele>1162.0</ele><time>2026-05-03T11:47:10.593Z</time></trkpt><trkpt lat="39.379173" lon="16.5455256"><ele>1162.0</ele><time>2026-05-03T11:47:11.573Z</time></trkpt><trkpt lat="39.3792065" lon="16.5453674"><ele>1162.5</ele><time>2026-05-03T11:47:12.596Z</time></trkpt><trkpt lat="39.3792451" lon="16.5452153"><ele>1163.0</ele><time>2026-05-03T11:47:13.586Z</time></trkpt><trkpt lat="39.3792831" lon="16.5450579"><ele>1163.5</ele><time>2026-05-03T11:47:14.592Z</time></trkpt><trkpt lat="39.3793086" lon="16.5448932"><ele>1164.0</ele><time>2026-05-03T11:47:15.589Z</time></trkpt><trkpt lat="39.3793161" lon="16.5447274"><ele>1164.0</ele><time>2026-05-03T11:47:16.595Z</time></trkpt><trkpt lat="39.3792967" lon="16.5445655"><ele>1164.0</ele><time>2026-05-03T11:47:17.598Z</time></trkpt><trkpt lat="39.3792523" lon="16.5444049"><ele>1164.0</ele><time>2026-05-03T11:47:18.596Z</time></trkpt><trkpt lat="39.379176" lon="16.5442498"><ele>1164.0</ele><time>2026-05-03T11:47:19.583Z</time></trkpt><trkpt lat="39.379084" lon="16.544109"><ele>1165.25</ele><time>2026-05-03T11:47:20.6Z</time></trkpt><trkpt lat="39.378969" lon="16.543988"><ele>1166.5</ele><time>2026-05-03T11:47:21.584Z</time></trkpt><trkpt lat="39.3788455" lon="16.5438741"><ele>1167.75</ele><time>2026-05-03T11:47:22.601Z</time></trkpt><trkpt lat="39.3787294" lon="16.5437557"><ele>1169.0</ele><time>2026-05-03T11:47:23.581Z</time></trkpt><trkpt lat="39.3786186" lon="16.5436469"><ele>1164.25</ele><time>2026-05-03T11:47:24.591Z</time></trkpt><trkpt lat="39.3785009" lon="16.5435671"><ele>1159.5</ele><time>2026-05-03T11:47:25.593Z</time></trkpt><trkpt lat="39.3783623" lon="16.5435189"><ele>1154.75</ele><time>2026-05-03T11:47:26.599Z</time></trkpt><trkpt lat="39.3782195" lon="16.5435035"><ele>1150.0</ele><time>2026-05-03T11:47:27.589Z</time></trkpt><trkpt lat="39.37808" lon="16.5434959"><ele>1149.75</ele><time>2026-05-03T11:47:28.591Z</time></trkpt><trkpt lat="39.3779524" lon="16.5434941"><ele>1149.5</ele><time>2026-05-03T11:47:29.591Z</time></trkpt><trkpt lat="39.3778411" lon="16.5435048"><ele>1149.25</ele><time>2026-05-03T11:47:30.594Z</time></trkpt><trkpt lat="39.3777427" lon="16.5435671"><ele>1149.0</ele><time>2026-05-03T11:47:31.589Z</time></trkpt><trkpt lat="39.3776569" lon="16.5436547"><ele>1152.25</ele><time>2026-05-03T11:47:32.587Z</time></trkpt><trkpt lat="39.3775696" lon="16.5437643"><ele>1155.5</ele><time>2026-05-03T11:47:33.599Z</time></trkpt><trkpt lat="39.3774669" lon="16.5438505"><ele>1158.75</ele><time>2026-05-03T11:47:34.585Z</time></trkpt><trkpt lat="39.3773483" lon="16.5439214"><ele>1162.0</ele><time>2026-05-03T11:47:35.583Z</time></trkpt><trkpt lat="39.3772212" lon="16.5439747"><ele>1161.25</ele><time>2026-05-03T11:47:36.587Z</time></trkpt><trkpt lat="39.3770833" lon="16.5439956"><ele>1160.5</ele><time>2026-05-03T11:47:37.591Z</time></trkpt><trkpt lat="39.376946" lon="16.5439842"><ele>1159.75</ele><time>2026-05-03T11:47:38.588Z</time></trkpt><trkpt lat="39.376842" lon="16.5439396"><ele>1159.0</ele><time>2026-05-03T11:47:39.58Z</time></trkpt><trkpt lat="39.3767636" lon="16.5438666"><ele>1159.0</ele><time>2026-05-03T11:47:40.59Z</time></trkpt><trkpt lat="39.3767094" lon="16.5437546"><ele>1159.0</ele><time>2026-05-03T11:47:41.587Z</time></trkpt><trkpt lat="39.3766758" lon="16.5436329"><ele>1159.0</ele><time>2026-05-03T11:47:42.594Z</time></trkpt><trkpt lat="39.3766505" lon="16.5435019"><ele>1159.0</ele><time>2026-05-03T11:47:43.595Z</time></trkpt><trkpt lat="39.376636" lon="16.5433527"><ele>1159.0</ele><time>2026-05-03T11:47:44.59Z</time></trkpt><trkpt lat="39.3766195" lon="16.5431866"><ele>1158.0</ele><time>2026-05-03T11:47:45.586Z</time></trkpt><trkpt lat="39.3765866" lon="16.5430247"><ele>1157.0</ele><time>2026-05-03T11:47:46.578Z</time></trkpt><trkpt lat="39.3765353" lon="16.5428654"><ele>1156.0</ele><time>2026-05-03T11:47:47.593Z</time></trkpt><trkpt lat="39.3764608" lon="16.5427329"><ele>1155.0</ele><time>2026-05-03T11:47:48.588Z</time></trkpt><trkpt lat="39.3763799" lon="16.5426332"><ele>1155.4</ele><time>2026-05-03T11:47:49.588Z</time></trkpt><trkpt lat="39.3763306" lon="16.542549"><ele>1155.8</ele><time>2026-05-03T11:47:50.586Z</time></trkpt><trkpt lat="39.3763058" lon="16.5424368"><ele>1156.2</ele><time>2026-05-03T11:47:51.601Z</time></trkpt><trkpt lat="39.3763133" lon="16.5423148"><ele>1156.6</ele><time>2026-05-03T11:47:52.599Z</time></trkpt><trkpt lat="39.3763338" lon="16.5421792"><ele>1157.0</ele><time>2026-05-03T11:47:53.579Z</time></trkpt><trkpt lat="39.3763377" lon="16.5420431"><ele>1157.0</ele><time>2026-05-03T11:47:54.59Z</time></trkpt><trkpt lat="39.3763068" lon="16.5418907"><ele>1157.0</ele><time>2026-05-03T11:47:55.586Z</time></trkpt><trkpt lat="39.3762548" lon="16.5417298"><ele>1157.0</ele><time>2026-05-03T11:47:56.588Z</time></trkpt><trkpt lat="39.3762012" lon="16.5415626"><ele>1157.0</ele><time>2026-05-03T11:47:57.59Z</time></trkpt><trkpt lat="39.3761554" lon="16.5414112"><ele>1157.0</ele><time>2026-05-03T11:47:58.587Z</time></trkpt><trkpt lat="39.3761287" lon="16.5412593"><ele>1157.0</ele><time>2026-05-03T11:47:59.579Z</time></trkpt><trkpt lat="39.3761212" lon="16.5411049"><ele>1157.0</ele><time>2026-05-03T11:48:00.593Z</time></trkpt><trkpt lat="39.3761308" lon="16.540943"><ele>1157.0</ele><time>2026-05-03T11:48:01.588Z</time></trkpt><trkpt lat="39.3761573" lon="16.5407838"><ele>1158.0</ele><time>2026-05-03T11:48:02.594Z</time></trkpt><trkpt lat="39.3761959" lon="16.5406228"><ele>1159.0</ele><time>2026-05-03T11:48:03.598Z</time></trkpt><trkpt lat="39.3762437" lon="16.5404524"><ele>1160.0</ele><time>2026-05-03T11:48:04.589Z</time></trkpt><trkpt lat="39.3762973" lon="16.5402783"><ele>1161.0</ele><time>2026-05-03T11:48:05.602Z</time></trkpt><trkpt lat="39.3763516" lon="16.5400997"><ele>1160.0</ele><time>2026-05-03T11:48:06.6Z</time></trkpt><trkpt lat="39.3764054" lon="16.539916"><ele>1159.0</ele><time>2026-05-03T11:48:07.587Z</time></trkpt><trkpt lat="39.3764569" lon="16.5397384"><ele>1158.0</ele><time>2026-05-03T11:48:08.596Z</time></trkpt><trkpt lat="39.3765114" lon="16.539561"><ele>1157.0</ele><time>2026-05-03T11:48:09.583Z</time></trkpt><trkpt lat="39.3765636" lon="16.5393874"><ele>1157.0</ele><time>2026-05-03T11:48:10.591Z</time></trkpt><trkpt lat="39.3766153" lon="16.5392227"><ele>1157.0</ele><time>2026-05-03T11:48:11.598Z</time></trkpt><trkpt lat="39.3766575" lon="16.5390705"><ele>1157.0</ele><time>2026-05-03T11:48:12.608Z</time></trkpt><trkpt lat="39.3766793" lon="16.53891"><ele>1157.0</ele><time>2026-05-03T11:48:13.594Z</time></trkpt><trkpt lat="39.3766876" lon="16.5387315"><ele>1156.0</ele><time>2026-05-03T11:48:14.606Z</time></trkpt><trkpt lat="39.3766843" lon="16.5385441"><ele>1155.0</ele><time>2026-05-03T11:48:15.603Z</time></trkpt><trkpt lat="39.3766833" lon="16.5383507"><ele>1154.0</ele><time>2026-05-03T11:48:16.595Z</time></trkpt><trkpt lat="39.3766873" lon="16.5381569"><ele>1153.0</ele><time>2026-05-03T11:48:17.594Z</time></trkpt><trkpt lat="39.3766865" lon="16.5379708"><ele>1152.75</ele><time>2026-05-03T11:48:18.587Z</time></trkpt><trkpt lat="39.3766854" lon="16.5377977"><ele>1152.5</ele><time>2026-05-03T11:48:19.598Z</time></trkpt><trkpt lat="39.3766918" lon="16.5376249"><ele>1152.25</ele><time>2026-05-03T11:48:20.594Z</time></trkpt><trkpt lat="39.3766942" lon="16.5374647"><ele>1152.0</ele><time>2026-05-03T11:48:21.608Z</time></trkpt><trkpt lat="39.376676" lon="16.5373087"><ele>1152.0</ele><time>2026-05-03T11:48:22.597Z</time></trkpt><trkpt lat="39.3766299" lon="16.5371543"><ele>1152.0</ele><time>2026-05-03T11:48:23.603Z</time></trkpt><trkpt lat="39.3765564" lon="16.5370119"><ele>1152.0</ele><time>2026-05-03T11:48:24.597Z</time></trkpt><trkpt lat="39.3764648" lon="16.5368735"><ele>1152.0</ele><time>2026-05-03T11:48:25.61Z</time></trkpt><trkpt lat="39.3763854" lon="16.5367348"><ele>1151.75</ele><time>2026-05-03T11:48:26.601Z</time></trkpt><trkpt lat="39.3763469" lon="16.5365817"><ele>1151.5</ele><time>2026-05-03T11:48:27.594Z</time></trkpt><trkpt lat="39.3763428" lon="16.5364123"><ele>1151.25</ele><time>2026-05-03T11:48:28.592Z</time></trkpt><trkpt lat="39.3763736" lon="16.5362327"><ele>1151.0</ele><time>2026-05-03T11:48:29.601Z</time></trkpt><trkpt lat="39.3764313" lon="16.536069"><ele>1151.75</ele><time>2026-05-03T11:48:30.595Z</time></trkpt><trkpt lat="39.3765089" lon="16.5359078"><ele>1152.5</ele><time>2026-05-03T11:48:31.589Z</time></trkpt><trkpt lat="39.3765683" lon="16.5357318"><ele>1153.25</ele><time>2026-05-03T11:48:32.593Z</time></trkpt><trkpt lat="39.3766093" lon="16.5355411"><ele>1154.0</ele><time>2026-05-03T11:48:33.596Z</time></trkpt><trkpt lat="39.376622" lon="16.5353367"><ele>1154.6666666666667</ele><time>2026-05-03T11:48:34.607Z</time></trkpt><trkpt lat="39.3766072" lon="16.5351355"><ele>1155.3333333333333</ele><time>2026-05-03T11:48:35.587Z</time></trkpt><trkpt lat="39.3765708" lon="16.5349405"><ele>1156.0</ele><time>2026-05-03T11:48:36.598Z</time></trkpt><trkpt lat="39.3765222" lon="16.5347399"><ele>1155.25</ele><time>2026-05-03T11:48:37.585Z</time></trkpt><trkpt lat="39.3764724" lon="16.5345441"><ele>1154.5</ele><time>2026-05-03T11:48:38.6Z</time></trkpt><trkpt lat="39.3764241" lon="16.5343558"><ele>1153.75</ele><time>2026-05-03T11:48:39.613Z</time></trkpt><trkpt lat="39.3763878" lon="16.5341942"><ele>1153.0</ele><time>2026-05-03T11:48:40.588Z</time></trkpt><trkpt lat="39.376351" lon="16.5340372"><ele>1155.0</ele><time>2026-05-03T11:48:41.6Z</time></trkpt><trkpt lat="39.3763148" lon="16.5338849"><ele>1157.0</ele><time>2026-05-03T11:48:42.606Z</time></trkpt><trkpt lat="39.3762636" lon="16.5337311"><ele>1159.0</ele><time>2026-05-03T11:48:43.6Z</time></trkpt><trkpt lat="39.3761968" lon="16.5335708"><ele>1161.0</ele><time>2026-05-03T11:48:44.601Z</time></trkpt><trkpt lat="39.376109" lon="16.5334208"><ele>1161.0</ele><time>2026-05-03T11:48:45.599Z</time></trkpt><trkpt lat="39.3760043" lon="16.5332862"><ele>1161.0</ele><time>2026-05-03T11:48:46.611Z</time></trkpt><trkpt lat="39.3758984" lon="16.5331462"><ele>1161.0</ele><time>2026-05-03T11:48:47.596Z</time></trkpt><trkpt lat="39.3757923" lon="16.532999"><ele>1161.3333333333333</ele><time>2026-05-03T11:48:48.6Z</time></trkpt><trkpt lat="39.3756877" lon="16.5328375"><ele>1161.6666666666665</ele><time>2026-05-03T11:48:49.592Z</time></trkpt><trkpt lat="39.3755766" lon="16.5326884"><ele>1162.0</ele><time>2026-05-03T11:48:50.592Z</time></trkpt><trkpt lat="39.3754675" lon="16.5325433"><ele>1162.0</ele><time>2026-05-03T11:48:51.591Z</time></trkpt><trkpt lat="39.3753658" lon="16.5324027"><ele>1162.0</ele><time>2026-05-03T11:48:52.611Z</time></trkpt><trkpt lat="39.3752687" lon="16.5322746"><ele>1162.0</ele><time>2026-05-03T11:48:53.597Z</time></trkpt><trkpt lat="39.37516" lon="16.5321605"><ele>1162.0</ele><time>2026-05-03T11:48:54.586Z</time></trkpt><trkpt lat="39.3750244" lon="16.5320745"><ele>1164.0</ele><time>2026-05-03T11:48:55.59Z</time></trkpt><trkpt lat="39.3748812" lon="16.5320077"><ele>1166.0</ele><time>2026-05-03T11:48:56.602Z</time></trkpt><trkpt lat="39.3747578" lon="16.5319298"><ele>1168.0</ele><time>2026-05-03T11:48:57.601Z</time></trkpt><trkpt lat="39.3746384" lon="16.5318388"><ele>1170.0</ele><time>2026-05-03T11:48:58.599Z</time></trkpt><trkpt lat="39.3745607" lon="16.5317104"><ele>1170.0</ele><time>2026-05-03T11:48:59.591Z</time></trkpt><trkpt lat="39.3745233" lon="16.5315657"><ele>1170.0</ele><time>2026-05-03T11:49:00.596Z</time></trkpt><trkpt lat="39.3745068" lon="16.5314089"><ele>1170.0</ele><time>2026-05-03T11:49:01.601Z</time></trkpt><trkpt lat="39.3744594" lon="16.531239"><ele>1170.0</ele><time>2026-05-03T11:49:02.594Z</time></trkpt><trkpt lat="39.3743775" lon="16.5310889"><ele>1165.3333333333333</ele><time>2026-05-03T11:49:03.603Z</time></trkpt><trkpt lat="39.3742779" lon="16.5309448"><ele>1160.6666666666665</ele><time>2026-05-03T11:49:04.608Z</time></trkpt><trkpt lat="39.37417" lon="16.5308143"><ele>1156.0</ele><time>2026-05-03T11:49:05.593Z</time></trkpt><trkpt lat="39.3740435" lon="16.5306992"><ele>1156.0</ele><time>2026-05-03T11:49:06.593Z</time></trkpt><trkpt lat="39.3739018" lon="16.5305987"><ele>1156.0</ele><time>2026-05-03T11:49:07.589Z</time></trkpt><trkpt lat="39.3737586" lon="16.530516"><ele>1156.0</ele><time>2026-05-03T11:49:08.603Z</time></trkpt><trkpt lat="39.3736132" lon="16.5304444"><ele>1153.6666666666665</ele><time>2026-05-03T11:49:09.61Z</time></trkpt><trkpt lat="39.3734656" lon="16.5303779"><ele>1151.3333333333333</ele><time>2026-05-03T11:49:10.587Z</time></trkpt><trkpt lat="39.3733163" lon="16.5303034"><ele>1149.0</ele><time>2026-05-03T11:49:11.585Z</time></trkpt><trkpt lat="39.3731648" lon="16.5302363"><ele>1153.6666666666667</ele><time>2026-05-03T11:49:12.599Z</time></trkpt><trkpt lat="39.3730126" lon="16.5301686"><ele>1158.3333333333335</ele><time>2026-05-03T11:49:13.593Z</time></trkpt><trkpt lat="39.3728637" lon="16.5300931"><ele>1163.0</ele><time>2026-05-03T11:49:14.605Z</time></trkpt><trkpt lat="39.3727245" lon="16.5300251"><ele>1163.0</ele><time>2026-05-03T11:49:15.588Z</time></trkpt><trkpt lat="39.3725987" lon="16.5299582"><ele>1163.0</ele><time>2026-05-03T11:49:16.598Z</time></trkpt><trkpt lat="39.3724846" lon="16.5299009"><ele>1163.0</ele><time>2026-05-03T11:49:17.586Z</time></trkpt><trkpt lat="39.3723776" lon="16.5298357"><ele>1163.0</ele><time>2026-05-03T11:49:18.603Z</time></trkpt><trkpt lat="39.3722907" lon="16.5297464"><ele>1163.0</ele><time>2026-05-03T11:49:19.592Z</time></trkpt><trkpt lat="39.3722255" lon="16.5296238"><ele>1163.0</ele><time>2026-05-03T11:49:20.596Z</time></trkpt><trkpt lat="39.3721935" lon="16.5294662"><ele>1163.0</ele><time>2026-05-03T11:49:21.597Z</time></trkpt><trkpt lat="39.3721797" lon="16.5292916"><ele>1163.0</ele><time>2026-05-03T11:49:22.582Z</time></trkpt><trkpt lat="39.3721632" lon="16.5291209"><ele>1165.0</ele><time>2026-05-03T11:49:23.605Z</time></trkpt><trkpt lat="39.3721363" lon="16.5289385"><ele>1167.0</ele><time>2026-05-03T11:49:24.592Z</time></trkpt><trkpt lat="39.372087" lon="16.5287547"><ele>1169.0</ele><time>2026-05-03T11:49:25.597Z</time></trkpt><trkpt lat="39.3720198" lon="16.5285728"><ele>1169.0</ele><time>2026-05-03T11:49:26.589Z</time></trkpt><trkpt lat="39.3719322" lon="16.5283999"><ele>1169.0</ele><time>2026-05-03T11:49:27.594Z</time></trkpt><trkpt lat="39.3718316" lon="16.5282314"><ele>1169.0</ele><time>2026-05-03T11:49:28.594Z</time></trkpt><trkpt lat="39.3717356" lon="16.5280529"><ele>1169.0</ele><time>2026-05-03T11:49:29.582Z</time></trkpt><trkpt lat="39.3716373" lon="16.5278954"><ele>1169.0</ele><time>2026-05-03T11:49:30.595Z</time></trkpt><trkpt lat="39.3715392" lon="16.5277442"><ele>1169.0</ele><time>2026-05-03T11:49:31.589Z</time></trkpt><trkpt lat="39.3714586" lon="16.5275989"><ele>1169.0</ele><time>2026-05-03T11:49:32.595Z</time></trkpt><trkpt lat="39.3714053" lon="16.5274308"><ele>1165.75</ele><time>2026-05-03T11:49:33.595Z</time></trkpt><trkpt lat="39.3713737" lon="16.5272549"><ele>1162.5</ele><time>2026-05-03T11:49:34.591Z</time></trkpt><trkpt lat="39.3713732" lon="16.5270654"><ele>1159.25</ele><time>2026-05-03T11:49:35.582Z</time></trkpt><trkpt lat="39.3713966" lon="16.5268748"><ele>1156.0</ele><time>2026-05-03T11:49:36.583Z</time></trkpt><trkpt lat="39.3714073" lon="16.5266608"><ele>1155.0</ele><time>2026-05-03T11:49:37.578Z</time></trkpt><trkpt lat="39.3713734" lon="16.5264534"><ele>1154.0</ele><time>2026-05-03T11:49:38.583Z</time></trkpt><trkpt lat="39.3712753" lon="16.5262506"><ele>1153.0</ele><time>2026-05-03T11:49:39.57Z</time></trkpt><trkpt lat="39.3711532" lon="16.5260568"><ele>1155.3333333333333</ele><time>2026-05-03T11:49:40.579Z</time></trkpt><trkpt lat="39.3710231" lon="16.5258755"><ele>1157.6666666666667</ele><time>2026-05-03T11:49:41.567Z</time></trkpt><trkpt lat="39.3709056" lon="16.5257157"><ele>1160.0</ele><time>2026-05-03T11:49:42.575Z</time></trkpt><trkpt lat="39.3707861" lon="16.5255608"><ele>1160.0</ele><time>2026-05-03T11:49:43.57Z</time></trkpt><trkpt lat="39.3706403" lon="16.525433"><ele>1160.0</ele><time>2026-05-03T11:49:44.609Z</time></trkpt><trkpt lat="39.3704871" lon="16.525321"><ele>1160.0</ele><time>2026-05-03T11:49:45.588Z</time></trkpt><trkpt lat="39.3703229" lon="16.5252081"><ele>1158.3333333333335</ele><time>2026-05-03T11:49:46.59Z</time></trkpt><trkpt lat="39.3701708" lon="16.5250747"><ele>1156.6666666666667</ele><time>2026-05-03T11:49:47.584Z</time></trkpt><trkpt lat="39.3700416" lon="16.5249166"><ele>1155.0</ele><time>2026-05-03T11:49:48.597Z</time></trkpt><trkpt lat="39.369927" lon="16.5247542"><ele>1155.0</ele><time>2026-05-03T11:49:49.589Z</time></trkpt><trkpt lat="39.3698365" lon="16.5246118"><ele>1155.0</ele><time>2026-05-03T11:49:50.596Z</time></trkpt><trkpt lat="39.3697609" lon="16.5244862"><ele>1155.0</ele><time>2026-05-03T11:49:51.601Z</time></trkpt><trkpt lat="39.3697044" lon="16.5243634"><ele>1155.0</ele><time>2026-05-03T11:49:52.603Z</time></trkpt><trkpt lat="39.369666" lon="16.5242279"><ele>1156.25</ele><time>2026-05-03T11:49:53.609Z</time></trkpt><trkpt lat="39.3696446" lon="16.5240719"><ele>1157.5</ele><time>2026-05-03T11:49:54.6Z</time></trkpt><trkpt lat="39.3696395" lon="16.523904"><ele>1158.75</ele><time>2026-05-03T11:49:55.597Z</time></trkpt><trkpt lat="39.3696599" lon="16.5237283"><ele>1160.0</ele><time>2026-05-03T11:49:56.587Z</time></trkpt><trkpt lat="39.3696918" lon="16.5235594"><ele>1160.25</ele><time>2026-05-03T11:49:57.592Z</time></trkpt><trkpt lat="39.3697173" lon="16.5233814"><ele>1160.5</ele><time>2026-05-03T11:49:58.602Z</time></trkpt><trkpt lat="39.3697118" lon="16.523193"><ele>1160.75</ele><time>2026-05-03T11:49:59.58Z</time></trkpt><trkpt lat="39.3696787" lon="16.523005"><ele>1161.0</ele><time>2026-05-03T11:50:00.599Z</time></trkpt><trkpt lat="39.369614" lon="16.522824"><ele>1163.6666666666667</ele><time>2026-05-03T11:50:01.603Z</time></trkpt><trkpt lat="39.3695137" lon="16.5226634"><ele>1166.3333333333335</ele><time>2026-05-03T11:50:02.596Z</time></trkpt><trkpt lat="39.3694045" lon="16.5225095"><ele>1169.0</ele><time>2026-05-03T11:50:03.59Z</time></trkpt><trkpt lat="39.3692945" lon="16.5223477"><ele>1169.0</ele><time>2026-05-03T11:50:04.6Z</time></trkpt><trkpt lat="39.3691885" lon="16.5221765"><ele>1169.0</ele><time>2026-05-03T11:50:05.603Z</time></trkpt><trkpt lat="39.3690825" lon="16.5220036"><ele>1169.0</ele><time>2026-05-03T11:50:06.599Z</time></trkpt><trkpt lat="39.3689792" lon="16.5218381"><ele>1170.3333333333335</ele><time>2026-05-03T11:50:07.597Z</time></trkpt><trkpt lat="39.3688762" lon="16.5216814"><ele>1171.6666666666667</ele><time>2026-05-03T11:50:08.594Z</time></trkpt><trkpt lat="39.3687789" lon="16.5215265"><ele>1173.0</ele><time>2026-05-03T11:50:09.597Z</time></trkpt><trkpt lat="39.3686915" lon="16.5213563"><ele>1173.0</ele><time>2026-05-03T11:50:10.597Z</time></trkpt><trkpt lat="39.368619" lon="16.5211752"><ele>1173.0</ele><time>2026-05-03T11:50:11.597Z</time></trkpt><trkpt lat="39.3685562" lon="16.5209885"><ele>1173.0</ele><time>2026-05-03T11:50:12.597Z</time></trkpt><trkpt lat="39.3685045" lon="16.5207928"><ele>1173.0</ele><time>2026-05-03T11:50:13.597Z</time></trkpt><trkpt lat="39.3684617" lon="16.5205894"><ele>1173.0</ele><time>2026-05-03T11:50:14.591Z</time></trkpt><trkpt lat="39.3684353" lon="16.520381"><ele>1173.0</ele><time>2026-05-03T11:50:15.596Z</time></trkpt><trkpt lat="39.3684229" lon="16.5201725"><ele>1173.6666666666667</ele><time>2026-05-03T11:50:16.599Z</time></trkpt><trkpt lat="39.3684214" lon="16.5199484"><ele>1174.3333333333335</ele><time>2026-05-03T11:50:17.592Z</time></trkpt><trkpt lat="39.3684196" lon="16.5197276"><ele>1175.0</ele><time>2026-05-03T11:50:18.603Z</time></trkpt><trkpt lat="39.3684148" lon="16.5195006"><ele>1175.3333333333335</ele><time>2026-05-03T11:50:19.599Z</time></trkpt><trkpt lat="39.3684116" lon="16.5192688"><ele>1175.6666666666667</ele><time>2026-05-03T11:50:20.616Z</time></trkpt><trkpt lat="39.3684073" lon="16.5190372"><ele>1176.0</ele><time>2026-05-03T11:50:21.596Z</time></trkpt><trkpt lat="39.3683994" lon="16.5188033"><ele>1175.6666666666667</ele><time>2026-05-03T11:50:22.602Z</time></trkpt><trkpt lat="39.368393" lon="16.51858"><ele>1175.3333333333335</ele><time>2026-05-03T11:50:23.589Z</time></trkpt><trkpt lat="39.3683873" lon="16.5183754"><ele>1175.0</ele><time>2026-05-03T11:50:24.588Z</time></trkpt><trkpt lat="39.368385" lon="16.5181887"><ele>1175.0</ele><time>2026-05-03T11:50:25.599Z</time></trkpt><trkpt lat="39.368394" lon="16.5180093"><ele>1175.0</ele><time>2026-05-03T11:50:26.594Z</time></trkpt><trkpt lat="39.368418" lon="16.5178239"><ele>1175.0</ele><time>2026-05-03T11:50:27.591Z</time></trkpt><trkpt lat="39.3684555" lon="16.5176324"><ele>1175.0</ele><time>2026-05-03T11:50:28.61Z</time></trkpt><trkpt lat="39.3685002" lon="16.5174336"><ele>1174.6666666666667</ele><time>2026-05-03T11:50:29.601Z</time></trkpt><trkpt lat="39.3685542" lon="16.5172272"><ele>1174.3333333333333</ele><time>2026-05-03T11:50:30.593Z</time></trkpt><trkpt lat="39.3686075" lon="16.517018"><ele>1174.0</ele><time>2026-05-03T11:50:31.6Z</time></trkpt><trkpt lat="39.3686577" lon="16.5167938"><ele>1173.0</ele><time>2026-05-03T11:50:32.599Z</time></trkpt><trkpt lat="39.3687103" lon="16.516564"><ele>1172.0</ele><time>2026-05-03T11:50:33.592Z</time></trkpt><trkpt lat="39.3687676" lon="16.516339"><ele>1171.0</ele><time>2026-05-03T11:50:34.599Z</time></trkpt><trkpt lat="39.3688264" lon="16.5161224"><ele>1168.6666666666665</ele><time>2026-05-03T11:50:35.585Z</time></trkpt><trkpt lat="39.3688831" lon="16.5159052"><ele>1166.3333333333333</ele><time>2026-05-03T11:50:36.579Z</time></trkpt><trkpt lat="39.3689329" lon="16.5156991"><ele>1164.0</ele><time>2026-05-03T11:50:37.568Z</time></trkpt><trkpt lat="39.3689752" lon="16.5155072"><ele>1163.75</ele><time>2026-05-03T11:50:38.575Z</time></trkpt><trkpt lat="39.3690206" lon="16.5153251"><ele>1163.5</ele><time>2026-05-03T11:50:39.614Z</time></trkpt><trkpt lat="39.3690716" lon="16.5151493"><ele>1163.25</ele><time>2026-05-03T11:50:40.592Z</time></trkpt><trkpt lat="39.3691482" lon="16.5149828"><ele>1163.0</ele><time>2026-05-03T11:50:41.599Z</time></trkpt><trkpt lat="39.3692452" lon="16.5148229"><ele>1163.0</ele><time>2026-05-03T11:50:42.589Z</time></trkpt><trkpt lat="39.3693461" lon="16.5146643"><ele>1163.0</ele><time>2026-05-03T11:50:43.573Z</time></trkpt><trkpt lat="39.3694513" lon="16.5144962"><ele>1163.0</ele><time>2026-05-03T11:50:44.593Z</time></trkpt><trkpt lat="39.3695617" lon="16.514325"><ele>1162.6666666666667</ele><time>2026-05-03T11:50:45.576Z</time></trkpt><trkpt lat="39.369671" lon="16.514149"><ele>1162.3333333333333</ele><time>2026-05-03T11:50:46.598Z</time></trkpt><trkpt lat="39.3697813" lon="16.5139741"><ele>1162.0</ele><time>2026-05-03T11:50:47.587Z</time></trkpt><trkpt lat="39.3698782" lon="16.513811"><ele>1160.3333333333333</ele><time>2026-05-03T11:50:48.574Z</time></trkpt><trkpt lat="39.3699616" lon="16.5136529"><ele>1158.6666666666667</ele><time>2026-05-03T11:50:49.576Z</time></trkpt><trkpt lat="39.3700235" lon="16.5134808"><ele>1157.0</ele><time>2026-05-03T11:50:50.576Z</time></trkpt><trkpt lat="39.3700616" lon="16.5132812"><ele>1157.0</ele><time>2026-05-03T11:50:51.571Z</time></trkpt><trkpt lat="39.3700792" lon="16.5130734"><ele>1157.0</ele><time>2026-05-03T11:50:52.575Z</time></trkpt><trkpt lat="39.3700944" lon="16.5128519"><ele>1157.0</ele><time>2026-05-03T11:50:53.588Z</time></trkpt><trkpt lat="39.3701069" lon="16.5126254"><ele>1155.6666666666667</ele><time>2026-05-03T11:50:54.587Z</time></trkpt><trkpt lat="39.370127" lon="16.5123987"><ele>1154.3333333333333</ele><time>2026-05-03T11:50:55.585Z</time></trkpt><trkpt lat="39.3701473" lon="16.5121779"><ele>1153.0</ele><time>2026-05-03T11:50:56.587Z</time></trkpt><trkpt lat="39.3701624" lon="16.5119581"><ele>1151.3333333333333</ele><time>2026-05-03T11:50:57.605Z</time></trkpt><trkpt lat="39.3701804" lon="16.5117363"><ele>1149.6666666666667</ele><time>2026-05-03T11:50:58.576Z</time></trkpt><trkpt lat="39.370199" lon="16.5115111"><ele>1148.0</ele><time>2026-05-03T11:50:59.604Z</time></trkpt><trkpt lat="39.3702137" lon="16.5112868"><ele>1146.3333333333335</ele><time>2026-05-03T11:51:00.6Z</time></trkpt><trkpt lat="39.3702269" lon="16.5110669"><ele>1144.6666666666667</ele><time>2026-05-03T11:51:01.571Z</time></trkpt><trkpt lat="39.3702423" lon="16.5108601"><ele>1143.0</ele><time>2026-05-03T11:51:02.608Z</time></trkpt><trkpt lat="39.3702557" lon="16.5106609"><ele>1143.0</ele><time>2026-05-03T11:51:03.591Z</time></trkpt><trkpt lat="39.37027" lon="16.5104606"><ele>1143.0</ele><time>2026-05-03T11:51:04.589Z</time></trkpt><trkpt lat="39.370289" lon="16.5102539"><ele>1143.0</ele><time>2026-05-03T11:51:05.601Z</time></trkpt><trkpt lat="39.3703083" lon="16.5100437"><ele>1141.3333333333333</ele><time>2026-05-03T11:51:06.596Z</time></trkpt><trkpt lat="39.3703215" lon="16.5098296"><ele>1139.6666666666665</ele><time>2026-05-03T11:51:07.605Z</time></trkpt><trkpt lat="39.3703339" lon="16.5096122"><ele>1138.0</ele><time>2026-05-03T11:51:08.604Z</time></trkpt><trkpt lat="39.3703488" lon="16.5093892"><ele>1138.0</ele><time>2026-05-03T11:51:09.568Z</time></trkpt><trkpt lat="39.3703649" lon="16.5091639"><ele>1138.0</ele><time>2026-05-03T11:51:10.624Z</time></trkpt><trkpt lat="39.3703839" lon="16.5089343"><ele>1138.0</ele><time>2026-05-03T11:51:11.59Z</time></trkpt><trkpt lat="39.3704007" lon="16.5087037"><ele>1139.0</ele><time>2026-05-03T11:51:12.596Z</time></trkpt><trkpt lat="39.3704141" lon="16.5084704"><ele>1140.0</ele><time>2026-05-03T11:51:13.594Z</time></trkpt><trkpt lat="39.3704286" lon="16.5082445"><ele>1141.0</ele><time>2026-05-03T11:51:14.598Z</time></trkpt><trkpt lat="39.3704455" lon="16.5080174"><ele>1141.3333333333333</ele><time>2026-05-03T11:51:15.603Z</time></trkpt><trkpt lat="39.3704646" lon="16.5077887"><ele>1141.6666666666667</ele><time>2026-05-03T11:51:16.602Z</time></trkpt><trkpt lat="39.3704806" lon="16.5075608"><ele>1142.0</ele><time>2026-05-03T11:51:17.608Z</time></trkpt><trkpt lat="39.3704954" lon="16.5073313"><ele>1142.0</ele><time>2026-05-03T11:51:18.603Z</time></trkpt><trkpt lat="39.3705101" lon="16.5070988"><ele>1142.0</ele><time>2026-05-03T11:51:19.611Z</time></trkpt><trkpt lat="39.370528" lon="16.5068636"><ele>1142.0</ele><time>2026-05-03T11:51:20.603Z</time></trkpt><trkpt lat="39.3705501" lon="16.5066286"><ele>1145.3333333333335</ele><time>2026-05-03T11:51:21.599Z</time></trkpt><trkpt lat="39.3705696" lon="16.506391"><ele>1148.6666666666667</ele><time>2026-05-03T11:51:22.606Z</time></trkpt><trkpt lat="39.370592" lon="16.5061508"><ele>1152.0</ele><time>2026-05-03T11:51:23.597Z</time></trkpt><trkpt lat="39.3706182" lon="16.505918"><ele>1152.0</ele><time>2026-05-03T11:51:24.604Z</time></trkpt><trkpt lat="39.3706428" lon="16.5056928"><ele>1152.0</ele><time>2026-05-03T11:51:25.596Z</time></trkpt><trkpt lat="39.3706485" lon="16.505485"><ele>1152.0</ele><time>2026-05-03T11:51:26.615Z</time></trkpt><trkpt lat="39.3706361" lon="16.5052908"><ele>1151.0</ele><time>2026-05-03T11:51:27.616Z</time></trkpt><trkpt lat="39.3706118" lon="16.5050893"><ele>1150.0</ele><time>2026-05-03T11:51:28.621Z</time></trkpt><trkpt lat="39.3705674" lon="16.504889"><ele>1149.0</ele><time>2026-05-03T11:51:29.589Z</time></trkpt><trkpt lat="39.3704974" lon="16.5046996"><ele>1150.3333333333333</ele><time>2026-05-03T11:51:30.582Z</time></trkpt><trkpt lat="39.3704089" lon="16.5045096"><ele>1151.6666666666665</ele><time>2026-05-03T11:51:31.581Z</time></trkpt><trkpt lat="39.3703206" lon="16.5043133"><ele>1153.0</ele><time>2026-05-03T11:51:32.571Z</time></trkpt><trkpt lat="39.3702295" lon="16.5041082"><ele>1153.0</ele><time>2026-05-03T11:51:33.568Z</time></trkpt><trkpt lat="39.3701352" lon="16.5038988"><ele>1153.0</ele><time>2026-05-03T11:51:34.606Z</time></trkpt><trkpt lat="39.3700391" lon="16.5036894"><ele>1153.0</ele><time>2026-05-03T11:51:35.584Z</time></trkpt><trkpt lat="39.3699433" lon="16.503476"><ele>1153.0</ele><time>2026-05-03T11:51:36.597Z</time></trkpt><trkpt lat="39.3698496" lon="16.503258"><ele>1153.0</ele><time>2026-05-03T11:51:37.565Z</time></trkpt><trkpt lat="39.3697542" lon="16.5030483"><ele>1153.0</ele><time>2026-05-03T11:51:38.609Z</time></trkpt><trkpt lat="39.3696617" lon="16.5028405"><ele>1153.0</ele><time>2026-05-03T11:51:39.573Z</time></trkpt><trkpt lat="39.369572" lon="16.5026225"><ele>1153.0</ele><time>2026-05-03T11:51:40.583Z</time></trkpt><trkpt lat="39.3694807" lon="16.5024003"><ele>1153.0</ele><time>2026-05-03T11:51:41.585Z</time></trkpt><trkpt lat="39.3693845" lon="16.5021812"><ele>1153.3333333333333</ele><time>2026-05-03T11:51:42.577Z</time></trkpt><trkpt lat="39.3692842" lon="16.5019559"><ele>1153.6666666666667</ele><time>2026-05-03T11:51:43.572Z</time></trkpt><trkpt lat="39.3691867" lon="16.5017233"><ele>1154.0</ele><time>2026-05-03T11:51:44.586Z</time></trkpt><trkpt lat="39.3690856" lon="16.5014932"><ele>1154.0</ele><time>2026-05-03T11:51:45.572Z</time></trkpt><trkpt lat="39.3689858" lon="16.5012597"><ele>1154.0</ele><time>2026-05-03T11:51:46.579Z</time></trkpt><trkpt lat="39.368884" lon="16.5010307"><ele>1154.0</ele><time>2026-05-03T11:51:47.591Z</time></trkpt><trkpt lat="39.3687842" lon="16.5008025"><ele>1154.0</ele><time>2026-05-03T11:51:48.577Z</time></trkpt><trkpt lat="39.3686852" lon="16.5005783"><ele>1154.0</ele><time>2026-05-03T11:51:49.59Z</time></trkpt><trkpt lat="39.3685857" lon="16.5003573"><ele>1154.0</ele><time>2026-05-03T11:51:50.601Z</time></trkpt><trkpt lat="39.3684899" lon="16.5001398"><ele>1154.0</ele><time>2026-05-03T11:51:51.59Z</time></trkpt><trkpt lat="39.3683967" lon="16.4999284"><ele>1154.0</ele><time>2026-05-03T11:51:52.6Z</time></trkpt><trkpt lat="39.3683071" lon="16.499721"><ele>1154.0</ele><time>2026-05-03T11:51:53.593Z</time></trkpt><trkpt lat="39.3682143" lon="16.4995096"><ele>1154.0</ele><time>2026-05-03T11:51:54.6Z</time></trkpt><trkpt lat="39.3681226" lon="16.4993014"><ele>1154.0</ele><time>2026-05-03T11:51:55.595Z</time></trkpt><trkpt lat="39.3680306" lon="16.4990896"><ele>1154.0</ele><time>2026-05-03T11:51:56.589Z</time></trkpt><trkpt lat="39.3679369" lon="16.4988748"><ele>1155.0</ele><time>2026-05-03T11:51:57.59Z</time></trkpt><trkpt lat="39.3678432" lon="16.4986522"><ele>1156.0</ele><time>2026-05-03T11:51:58.599Z</time></trkpt><trkpt lat="39.3677461" lon="16.4984325"><ele>1157.0</ele><time>2026-05-03T11:51:59.603Z</time></trkpt><trkpt lat="39.367648" lon="16.4982101"><ele>1157.0</ele><time>2026-05-03T11:52:00.601Z</time></trkpt><trkpt lat="39.3675494" lon="16.4979843"><ele>1157.0</ele><time>2026-05-03T11:52:01.601Z</time></trkpt><trkpt lat="39.3674485" lon="16.497763"><ele>1157.0</ele><time>2026-05-03T11:52:02.62Z</time></trkpt><trkpt lat="39.3673485" lon="16.4975378"><ele>1157.0</ele><time>2026-05-03T11:52:03.595Z</time></trkpt><trkpt lat="39.3672478" lon="16.4973097"><ele>1157.0</ele><time>2026-05-03T11:52:04.602Z</time></trkpt><trkpt lat="39.3671484" lon="16.4970828"><ele>1157.0</ele><time>2026-05-03T11:52:05.595Z</time></trkpt><trkpt lat="39.3670508" lon="16.4968589"><ele>1157.0</ele><time>2026-05-03T11:52:06.598Z</time></trkpt><trkpt lat="39.3669515" lon="16.4966361"><ele>1157.0</ele><time>2026-05-03T11:52:07.584Z</time></trkpt><trkpt lat="39.3668528" lon="16.4964127"><ele>1157.0</ele><time>2026-05-03T11:52:08.6Z</time></trkpt><trkpt lat="39.3667516" lon="16.4961895"><ele>1158.0</ele><time>2026-05-03T11:52:09.599Z</time></trkpt><trkpt lat="39.3666563" lon="16.4959676"><ele>1159.0</ele><time>2026-05-03T11:52:10.601Z</time></trkpt><trkpt lat="39.3665606" lon="16.4957468"><ele>1160.0</ele><time>2026-05-03T11:52:11.605Z</time></trkpt><trkpt lat="39.366465" lon="16.4955225"><ele>1159.6666666666667</ele><time>2026-05-03T11:52:12.591Z</time></trkpt><trkpt lat="39.3663686" lon="16.4952989"><ele>1159.3333333333333</ele><time>2026-05-03T11:52:13.596Z</time></trkpt><trkpt lat="39.3662714" lon="16.4950762"><ele>1159.0</ele><time>2026-05-03T11:52:14.594Z</time></trkpt><trkpt lat="39.3661734" lon="16.4948564"><ele>1159.0</ele><time>2026-05-03T11:52:15.589Z</time></trkpt><trkpt lat="39.3660764" lon="16.4946385"><ele>1159.0</ele><time>2026-05-03T11:52:16.594Z</time></trkpt><trkpt lat="39.3659813" lon="16.4944197"><ele>1159.0</ele><time>2026-05-03T11:52:17.592Z</time></trkpt><trkpt lat="39.3658884" lon="16.4942019"><ele>1159.3333333333333</ele><time>2026-05-03T11:52:18.601Z</time></trkpt><trkpt lat="39.3657956" lon="16.4939813"><ele>1159.6666666666667</ele><time>2026-05-03T11:52:19.577Z</time></trkpt><trkpt lat="39.3656991" lon="16.4937635"><ele>1160.0</ele><time>2026-05-03T11:52:20.591Z</time></trkpt><trkpt lat="39.3656025" lon="16.4935487"><ele>1159.6666666666667</ele><time>2026-05-03T11:52:21.585Z</time></trkpt><trkpt lat="39.3655037" lon="16.4933376"><ele>1159.3333333333333</ele><time>2026-05-03T11:52:22.59Z</time></trkpt><trkpt lat="39.36541" lon="16.4931233"><ele>1159.0</ele><time>2026-05-03T11:52:23.602Z</time></trkpt><trkpt lat="39.3653184" lon="16.4929103"><ele>1159.6666666666665</ele><time>2026-05-03T11:52:24.605Z</time></trkpt><trkpt lat="39.3652262" lon="16.4926938"><ele>1160.3333333333333</ele><time>2026-05-03T11:52:25.599Z</time></trkpt><trkpt lat="39.3651323" lon="16.4924828"><ele>1161.0</ele><time>2026-05-03T11:52:26.61Z</time></trkpt><trkpt lat="39.3650349" lon="16.4922693"><ele>1161.6666666666667</ele><time>2026-05-03T11:52:27.592Z</time></trkpt><trkpt lat="39.3649428" lon="16.4920562"><ele>1162.3333333333335</ele><time>2026-05-03T11:52:28.597Z</time></trkpt><trkpt lat="39.3648537" lon="16.4918417"><ele>1163.0</ele><time>2026-05-03T11:52:29.599Z</time></trkpt><trkpt lat="39.3647657" lon="16.491628"><ele>1162.3333333333335</ele><time>2026-05-03T11:52:30.617Z</time></trkpt><trkpt lat="39.364675" lon="16.4914195"><ele>1161.6666666666667</ele><time>2026-05-03T11:52:31.608Z</time></trkpt><trkpt lat="39.3645871" lon="16.4912093"><ele>1161.0</ele><time>2026-05-03T11:52:32.598Z</time></trkpt><trkpt lat="39.3644979" lon="16.4910057"><ele>1162.6666666666667</ele><time>2026-05-03T11:52:33.592Z</time></trkpt><trkpt lat="39.3644061" lon="16.4908034"><ele>1164.3333333333335</ele><time>2026-05-03T11:52:34.603Z</time></trkpt><trkpt lat="39.3643048" lon="16.4906032"><ele>1166.0</ele><time>2026-05-03T11:52:35.596Z</time></trkpt><trkpt lat="39.3641896" lon="16.4904234"><ele>1166.3333333333335</ele><time>2026-05-03T11:52:36.593Z</time></trkpt><trkpt lat="39.3640565" lon="16.4902564"><ele>1166.6666666666667</ele><time>2026-05-03T11:52:37.574Z</time></trkpt><trkpt lat="39.363918" lon="16.4900994"><ele>1167.0</ele><time>2026-05-03T11:52:38.605Z</time></trkpt><trkpt lat="39.3637796" lon="16.4899468"><ele>1167.0</ele><time>2026-05-03T11:52:39.588Z</time></trkpt><trkpt lat="39.3636432" lon="16.4897856"><ele>1167.0</ele><time>2026-05-03T11:52:40.596Z</time></trkpt><trkpt lat="39.3635142" lon="16.4896298"><ele>1167.0</ele><time>2026-05-03T11:52:41.598Z</time></trkpt><trkpt lat="39.3633884" lon="16.4894797"><ele>1167.3333333333333</ele><time>2026-05-03T11:52:42.6Z</time></trkpt><trkpt lat="39.363267" lon="16.48933"><ele>1167.6666666666665</ele><time>2026-05-03T11:52:43.601Z</time></trkpt><trkpt lat="39.3631429" lon="16.4891817"><ele>1168.0</ele><time>2026-05-03T11:52:44.596Z</time></trkpt><trkpt lat="39.3630239" lon="16.4890245"><ele>1168.0</ele><time>2026-05-03T11:52:45.595Z</time></trkpt><trkpt lat="39.3629121" lon="16.4888576"><ele>1168.0</ele><time>2026-05-03T11:52:46.594Z</time></trkpt><trkpt lat="39.3628081" lon="16.4886798"><ele>1168.0</ele><time>2026-05-03T11:52:47.578Z</time></trkpt><trkpt lat="39.3627065" lon="16.488497"><ele>1168.0</ele><time>2026-05-03T11:52:48.604Z</time></trkpt><trkpt lat="39.3626058" lon="16.4883018"><ele>1168.0</ele><time>2026-05-03T11:52:49.592Z</time></trkpt><trkpt lat="39.3625006" lon="16.4881114"><ele>1168.0</ele><time>2026-05-03T11:52:50.592Z</time></trkpt><trkpt lat="39.3623935" lon="16.4879183"><ele>1168.0</ele><time>2026-05-03T11:52:51.585Z</time></trkpt><trkpt lat="39.3622886" lon="16.4877257"><ele>1168.0</ele><time>2026-05-03T11:52:52.605Z</time></trkpt><trkpt lat="39.3621802" lon="16.4875329"><ele>1168.0</ele><time>2026-05-03T11:52:53.601Z</time></trkpt><trkpt lat="39.3620737" lon="16.4873448"><ele>1168.0</ele><time>2026-05-03T11:52:54.6Z</time></trkpt><trkpt lat="39.361961" lon="16.4871505"><ele>1168.0</ele><time>2026-05-03T11:52:55.605Z</time></trkpt><trkpt lat="39.3618513" lon="16.4869605"><ele>1168.0</ele><time>2026-05-03T11:52:56.602Z</time></trkpt><trkpt lat="39.3617379" lon="16.4867745"><ele>1169.0</ele><time>2026-05-03T11:52:57.598Z</time></trkpt><trkpt lat="39.3616129" lon="16.4865957"><ele>1170.0</ele><time>2026-05-03T11:52:58.609Z</time></trkpt><trkpt lat="39.3614817" lon="16.4864185"><ele>1171.0</ele><time>2026-05-03T11:52:59.6Z</time></trkpt><trkpt lat="39.3613489" lon="16.4862398"><ele>1171.3333333333333</ele><time>2026-05-03T11:53:00.602Z</time></trkpt><trkpt lat="39.3612129" lon="16.4860567"><ele>1171.6666666666667</ele><time>2026-05-03T11:53:01.592Z</time></trkpt><trkpt lat="39.3610773" lon="16.4858739"><ele>1172.0</ele><time>2026-05-03T11:53:02.596Z</time></trkpt><trkpt lat="39.3609338" lon="16.4856981"><ele>1172.0</ele><time>2026-05-03T11:53:03.588Z</time></trkpt><trkpt lat="39.3607796" lon="16.4855278"><ele>1172.0</ele><time>2026-05-03T11:53:04.597Z</time></trkpt><trkpt lat="39.3606279" lon="16.4853652"><ele>1172.0</ele><time>2026-05-03T11:53:05.605Z</time></trkpt><trkpt lat="39.3604772" lon="16.4851991"><ele>1172.3333333333335</ele><time>2026-05-03T11:53:06.602Z</time></trkpt><trkpt lat="39.3603244" lon="16.4850422"><ele>1172.6666666666667</ele><time>2026-05-03T11:53:07.592Z</time></trkpt><trkpt lat="39.3601689" lon="16.4848945"><ele>1173.0</ele><time>2026-05-03T11:53:08.597Z</time></trkpt><trkpt lat="39.3600134" lon="16.4847476"><ele>1173.0</ele><time>2026-05-03T11:53:09.587Z</time></trkpt><trkpt lat="39.3598617" lon="16.4845978"><ele>1173.0</ele><time>2026-05-03T11:53:10.586Z</time></trkpt><trkpt lat="39.3597116" lon="16.4844436"><ele>1173.0</ele><time>2026-05-03T11:53:11.592Z</time></trkpt><trkpt lat="39.3595619" lon="16.4842959"><ele>1174.3333333333333</ele><time>2026-05-03T11:53:12.611Z</time></trkpt><trkpt lat="39.3594084" lon="16.4841569"><ele>1175.6666666666665</ele><time>2026-05-03T11:53:13.578Z</time></trkpt><trkpt lat="39.35925" lon="16.4840282"><ele>1177.0</ele><time>2026-05-03T11:53:14.604Z</time></trkpt><trkpt lat="39.3590842" lon="16.4839106"><ele>1177.0</ele><time>2026-05-03T11:53:15.61Z</time></trkpt><trkpt lat="39.3589152" lon="16.4838067"><ele>1177.0</ele><time>2026-05-03T11:53:16.609Z</time></trkpt><trkpt lat="39.3587488" lon="16.4836986"><ele>1177.0</ele><time>2026-05-03T11:53:17.604Z</time></trkpt><trkpt lat="39.358578" lon="16.4835934"><ele>1178.3333333333333</ele><time>2026-05-03T11:53:18.603Z</time></trkpt><trkpt lat="39.3584032" lon="16.4834882"><ele>1179.6666666666667</ele><time>2026-05-03T11:53:19.606Z</time></trkpt><trkpt lat="39.3582294" lon="16.4833815"><ele>1181.0</ele><time>2026-05-03T11:53:20.596Z</time></trkpt><trkpt lat="39.3580531" lon="16.4832727"><ele>1181.0</ele><time>2026-05-03T11:53:21.595Z</time></trkpt><trkpt lat="39.3578782" lon="16.4831665"><ele>1181.0</ele><time>2026-05-03T11:53:22.606Z</time></trkpt><trkpt lat="39.3577048" lon="16.4830589"><ele>1181.0</ele><time>2026-05-03T11:53:23.589Z</time></trkpt><trkpt lat="39.3575337" lon="16.4829522"><ele>1183.0</ele><time>2026-05-03T11:53:24.591Z</time></trkpt><trkpt lat="39.3573611" lon="16.4828515"><ele>1185.0</ele><time>2026-05-03T11:53:25.602Z</time></trkpt><trkpt lat="39.3571905" lon="16.4827472"><ele>1187.0</ele><time>2026-05-03T11:53:26.602Z</time></trkpt><trkpt lat="39.3570292" lon="16.4826413"><ele>1187.0</ele><time>2026-05-03T11:53:27.613Z</time></trkpt><trkpt lat="39.356882" lon="16.4825381"><ele>1187.0</ele><time>2026-05-03T11:53:28.59Z</time></trkpt><trkpt lat="39.3567532" lon="16.4824202"><ele>1187.0</ele><time>2026-05-03T11:53:29.594Z</time></trkpt><trkpt lat="39.3566425" lon="16.4822812"><ele>1187.0</ele><time>2026-05-03T11:53:30.595Z</time></trkpt><trkpt lat="39.3565462" lon="16.4821182"><ele>1187.0</ele><time>2026-05-03T11:53:31.594Z</time></trkpt><trkpt lat="39.3564576" lon="16.4819411"><ele>1187.0</ele><time>2026-05-03T11:53:32.588Z</time></trkpt><trkpt lat="39.3563674" lon="16.4817612"><ele>1187.0</ele><time>2026-05-03T11:53:33.6Z</time></trkpt><trkpt lat="39.3562751" lon="16.4815745"><ele>1187.0</ele><time>2026-05-03T11:53:34.603Z</time></trkpt><trkpt lat="39.3561789" lon="16.481387"><ele>1187.0</ele><time>2026-05-03T11:53:35.592Z</time></trkpt><trkpt lat="39.35608" lon="16.4812053"><ele>1188.0</ele><time>2026-05-03T11:53:36.608Z</time></trkpt><trkpt lat="39.3559805" lon="16.4810153"><ele>1189.0</ele><time>2026-05-03T11:53:37.603Z</time></trkpt><trkpt lat="39.3558823" lon="16.4808206"><ele>1190.0</ele><time>2026-05-03T11:53:38.604Z</time></trkpt><trkpt lat="39.3557811" lon="16.4806278"><ele>1191.0</ele><time>2026-05-03T11:53:39.589Z</time></trkpt><trkpt lat="39.3556772" lon="16.4804328"><ele>1192.0</ele><time>2026-05-03T11:53:40.602Z</time></trkpt><trkpt lat="39.3555731" lon="16.4802399"><ele>1193.0</ele><time>2026-05-03T11:53:41.594Z</time></trkpt><trkpt lat="39.3554708" lon="16.480044"><ele>1193.0</ele><time>2026-05-03T11:53:42.602Z</time></trkpt><trkpt lat="39.3553696" lon="16.4798503"><ele>1193.0</ele><time>2026-05-03T11:53:43.598Z</time></trkpt><trkpt lat="39.3552695" lon="16.4796563"><ele>1193.0</ele><time>2026-05-03T11:53:44.616Z</time></trkpt><trkpt lat="39.3551699" lon="16.4794626"><ele>1193.6666666666667</ele><time>2026-05-03T11:53:45.59Z</time></trkpt><trkpt lat="39.3550678" lon="16.4792639"><ele>1194.3333333333333</ele><time>2026-05-03T11:53:46.602Z</time></trkpt><trkpt lat="39.3549627" lon="16.4790604"><ele>1195.0</ele><time>2026-05-03T11:53:47.599Z</time></trkpt><trkpt lat="39.3548578" lon="16.4788492"><ele>1195.3333333333333</ele><time>2026-05-03T11:53:48.599Z</time></trkpt><trkpt lat="39.3547486" lon="16.4786412"><ele>1195.6666666666667</ele><time>2026-05-03T11:53:49.594Z</time></trkpt><trkpt lat="39.3546372" lon="16.4784289"><ele>1196.0</ele><time>2026-05-03T11:53:50.601Z</time></trkpt><trkpt lat="39.3545324" lon="16.4782153"><ele>1196.0</ele><time>2026-05-03T11:53:51.6Z</time></trkpt><trkpt lat="39.3544228" lon="16.4780035"><ele>1196.0</ele><time>2026-05-03T11:53:52.599Z</time></trkpt><trkpt lat="39.3543133" lon="16.4777897"><ele>1196.0</ele><time>2026-05-03T11:53:53.585Z</time></trkpt><trkpt lat="39.3542028" lon="16.4775789"><ele>1196.6666666666667</ele><time>2026-05-03T11:53:54.59Z</time></trkpt><trkpt lat="39.3540939" lon="16.4773673"><ele>1197.3333333333333</ele><time>2026-05-03T11:53:55.596Z</time></trkpt><trkpt lat="39.3539798" lon="16.4771611"><ele>1198.0</ele><time>2026-05-03T11:53:56.599Z</time></trkpt><trkpt lat="39.3538583" lon="16.4769578"><ele>1199.0</ele><time>2026-05-03T11:53:57.597Z</time></trkpt><trkpt lat="39.3537402" lon="16.4767613"><ele>1200.0</ele><time>2026-05-03T11:53:58.599Z</time></trkpt><trkpt lat="39.3536285" lon="16.4765801"><ele>1201.0</ele><time>2026-05-03T11:53:59.589Z</time></trkpt><trkpt lat="39.3535184" lon="16.476409"><ele>1202.25</ele><time>2026-05-03T11:54:00.586Z</time></trkpt><trkpt lat="39.3534165" lon="16.4762528"><ele>1203.5</ele><time>2026-05-03T11:54:01.603Z</time></trkpt><trkpt lat="39.3533129" lon="16.4761179"><ele>1204.75</ele><time>2026-05-03T11:54:02.597Z</time></trkpt><trkpt lat="39.3532044" lon="16.4760222"><ele>1206.0</ele><time>2026-05-03T11:54:03.606Z</time></trkpt><trkpt lat="39.3530769" lon="16.4759729"><ele>1206.0</ele><time>2026-05-03T11:54:04.599Z</time></trkpt><trkpt lat="39.3529481" lon="16.4759778"><ele>1206.0</ele><time>2026-05-03T11:54:05.595Z</time></trkpt><trkpt lat="39.3528262" lon="16.4760426"><ele>1206.0</ele><time>2026-05-03T11:54:06.597Z</time></trkpt><trkpt lat="39.3527125" lon="16.4761102"><ele>1206.0</ele><time>2026-05-03T11:54:07.594Z</time></trkpt><trkpt lat="39.3525907" lon="16.476155"><ele>1206.0</ele><time>2026-05-03T11:54:08.594Z</time></trkpt><trkpt lat="39.3524836" lon="16.4761649"><ele>1206.0</ele><time>2026-05-03T11:54:09.604Z</time></trkpt><trkpt lat="39.3523917" lon="16.4761511"><ele>1206.0</ele><time>2026-05-03T11:54:10.598Z</time></trkpt><trkpt lat="39.3523173" lon="16.4760984"><ele>1206.0</ele><time>2026-05-03T11:54:11.592Z</time></trkpt><trkpt lat="39.352269" lon="16.4760021"><ele>1206.0</ele><time>2026-05-03T11:54:12.61Z</time></trkpt><trkpt lat="39.3522414" lon="16.4758689"><ele>1206.0</ele><time>2026-05-03T11:54:13.593Z</time></trkpt><trkpt lat="39.3522222" lon="16.4757171"><ele>1206.0</ele><time>2026-05-03T11:54:14.609Z</time></trkpt><trkpt lat="39.3521957" lon="16.4755545"><ele>1206.0</ele><time>2026-05-03T11:54:15.6Z</time></trkpt><trkpt lat="39.3521615" lon="16.4753787"><ele>1206.0</ele><time>2026-05-03T11:54:16.603Z</time></trkpt><trkpt lat="39.3521213" lon="16.4751959"><ele>1208.0</ele><time>2026-05-03T11:54:17.596Z</time></trkpt><trkpt lat="39.3520766" lon="16.4750075"><ele>1210.0</ele><time>2026-05-03T11:54:18.602Z</time></trkpt><trkpt lat="39.3520386" lon="16.4748133"><ele>1212.0</ele><time>2026-05-03T11:54:19.599Z</time></trkpt><trkpt lat="39.3520087" lon="16.4746252"><ele>1212.5</ele><time>2026-05-03T11:54:20.612Z</time></trkpt><trkpt lat="39.3519974" lon="16.4744428"><ele>1213.0</ele><time>2026-05-03T11:54:21.59Z</time></trkpt><trkpt lat="39.3520187" lon="16.4742544"><ele>1213.5</ele><time>2026-05-03T11:54:22.6Z</time></trkpt><trkpt lat="39.3520487" lon="16.474074"><ele>1214.0</ele><time>2026-05-03T11:54:23.597Z</time></trkpt><trkpt lat="39.352068" lon="16.4738947"><ele>1215.25</ele><time>2026-05-03T11:54:24.598Z</time></trkpt><trkpt lat="39.3520478" lon="16.4737236"><ele>1216.5</ele><time>2026-05-03T11:54:25.591Z</time></trkpt><trkpt lat="39.3519959" lon="16.4735499"><ele>1217.75</ele><time>2026-05-03T11:54:26.599Z</time></trkpt><trkpt lat="39.3519248" lon="16.4733818"><ele>1219.0</ele><time>2026-05-03T11:54:27.595Z</time></trkpt><trkpt lat="39.3518265" lon="16.4732249"><ele>1219.0</ele><time>2026-05-03T11:54:28.602Z</time></trkpt><trkpt lat="39.3517246" lon="16.4730678"><ele>1219.0</ele><time>2026-05-03T11:54:29.601Z</time></trkpt><trkpt lat="39.3516192" lon="16.4729154"><ele>1219.0</ele><time>2026-05-03T11:54:30.62Z</time></trkpt><trkpt lat="39.3515137" lon="16.4727611"><ele>1220.6666666666665</ele><time>2026-05-03T11:54:31.596Z</time></trkpt><trkpt lat="39.3514237" lon="16.4726035"><ele>1222.3333333333333</ele><time>2026-05-03T11:54:32.601Z</time></trkpt><trkpt lat="39.3513516" lon="16.4724325"><ele>1224.0</ele><time>2026-05-03T11:54:33.606Z</time></trkpt><trkpt lat="39.3512917" lon="16.4722461"><ele>1226.0</ele><time>2026-05-03T11:54:34.601Z</time></trkpt><trkpt lat="39.3512407" lon="16.472051"><ele>1228.0</ele><time>2026-05-03T11:54:35.602Z</time></trkpt><trkpt lat="39.351199" lon="16.4718432"><ele>1230.0</ele><time>2026-05-03T11:54:36.602Z</time></trkpt><trkpt lat="39.3511563" lon="16.4716377"><ele>1230.0</ele><time>2026-05-03T11:54:37.591Z</time></trkpt><trkpt lat="39.351109" lon="16.4714272"><ele>1230.0</ele><time>2026-05-03T11:54:38.608Z</time></trkpt><trkpt lat="39.3510614" lon="16.4712112"><ele>1230.0</ele><time>2026-05-03T11:54:39.596Z</time></trkpt><trkpt lat="39.3510151" lon="16.470995"><ele>1230.3333333333333</ele><time>2026-05-03T11:54:40.612Z</time></trkpt><trkpt lat="39.3509713" lon="16.4707783"><ele>1230.6666666666665</ele><time>2026-05-03T11:54:41.601Z</time></trkpt><trkpt lat="39.3509176" lon="16.4705607"><ele>1231.0</ele><time>2026-05-03T11:54:42.614Z</time></trkpt><trkpt lat="39.3508687" lon="16.470341"><ele>1231.0</ele><time>2026-05-03T11:54:43.602Z</time></trkpt><trkpt lat="39.3508277" lon="16.4701164"><ele>1231.0</ele><time>2026-05-03T11:54:44.604Z</time></trkpt><trkpt lat="39.3507838" lon="16.469897"><ele>1231.0</ele><time>2026-05-03T11:54:45.591Z</time></trkpt><trkpt lat="39.3507372" lon="16.4696875"><ele>1231.3333333333333</ele><time>2026-05-03T11:54:46.59Z</time></trkpt><trkpt lat="39.3506845" lon="16.4694811"><ele>1231.6666666666667</ele><time>2026-05-03T11:54:47.585Z</time></trkpt><trkpt lat="39.3506364" lon="16.4692708"><ele>1232.0</ele><time>2026-05-03T11:54:48.597Z</time></trkpt><trkpt lat="39.3505949" lon="16.4690506"><ele>1232.0</ele><time>2026-05-03T11:54:49.587Z</time></trkpt><trkpt lat="39.3505684" lon="16.4688269"><ele>1232.0</ele><time>2026-05-03T11:54:50.585Z</time></trkpt><trkpt lat="39.3505568" lon="16.468604"><ele>1232.0</ele><time>2026-05-03T11:54:51.598Z</time></trkpt><trkpt lat="39.3505557" lon="16.4684015"><ele>1231.75</ele><time>2026-05-03T11:54:52.595Z</time></trkpt><trkpt lat="39.350558" lon="16.4682159"><ele>1231.5</ele><time>2026-05-03T11:54:53.59Z</time></trkpt><trkpt lat="39.350552" lon="16.4680481"><ele>1231.25</ele><time>2026-05-03T11:54:54.596Z</time></trkpt><trkpt lat="39.3505359" lon="16.4678979"><ele>1231.0</ele><time>2026-05-03T11:54:55.569Z</time></trkpt><trkpt lat="39.3505157" lon="16.4677553"><ele>1234.8</ele><time>2026-05-03T11:54:56.592Z</time></trkpt><trkpt lat="39.3504876" lon="16.4676272"><ele>1238.6</ele><time>2026-05-03T11:54:57.581Z</time></trkpt><trkpt lat="39.3504444" lon="16.4675327"><ele>1242.4</ele><time>2026-05-03T11:54:58.591Z</time></trkpt><trkpt lat="39.3503715" lon="16.4674663"><ele>1246.2</ele><time>2026-05-03T11:54:59.586Z</time></trkpt><trkpt lat="39.3502916" lon="16.4674586"><ele>1250.0</ele><time>2026-05-03T11:55:00.569Z</time></trkpt><trkpt lat="39.3501906" lon="16.4674948"><ele>1250.0</ele><time>2026-05-03T11:55:01.585Z</time></trkpt><trkpt lat="39.3501" lon="16.4675732"><ele>1250.0</ele><time>2026-05-03T11:55:02.589Z</time></trkpt><trkpt lat="39.3500187" lon="16.4676457"><ele>1250.0</ele><time>2026-05-03T11:55:03.592Z</time></trkpt><trkpt lat="39.349962" lon="16.4677067"><ele>1250.0</ele><time>2026-05-03T11:55:04.573Z</time></trkpt><trkpt lat="39.3498793" lon="16.46769"><ele>1250.0</ele><time>2026-05-03T11:55:06.581Z</time></trkpt><trkpt lat="39.3498415" lon="16.4675597"><ele>1250.0</ele><time>2026-05-03T11:55:07.599Z</time></trkpt><trkpt lat="39.3498153" lon="16.4673969"><ele>1250.0</ele><time>2026-05-03T11:55:08.577Z</time></trkpt><trkpt lat="39.3498059" lon="16.4672095"><ele>1250.0</ele><time>2026-05-03T11:55:09.569Z</time></trkpt><trkpt lat="39.3498074" lon="16.4670454"><ele>1250.0</ele><time>2026-05-03T11:55:10.598Z</time></trkpt><trkpt lat="39.3498085" lon="16.4668908"><ele>1250.2</ele><time>2026-05-03T11:55:11.581Z</time></trkpt><trkpt lat="39.3498203" lon="16.46674"><ele>1250.4</ele><time>2026-05-03T11:55:12.582Z</time></trkpt><trkpt lat="39.349847" lon="16.466609"><ele>1250.6</ele><time>2026-05-03T11:55:13.58Z</time></trkpt><trkpt lat="39.3498946" lon="16.4664964"><ele>1250.8</ele><time>2026-05-03T11:55:14.577Z</time></trkpt><trkpt lat="39.3499476" lon="16.4664012"><ele>1251.0</ele><time>2026-05-03T11:55:15.585Z</time></trkpt><trkpt lat="39.3499963" lon="16.4662936"><ele>1253.0</ele><time>2026-05-03T11:55:16.589Z</time></trkpt><trkpt lat="39.350026" lon="16.4661581"><ele>1255.0</ele><time>2026-05-03T11:55:17.589Z</time></trkpt><trkpt lat="39.3500213" lon="16.4660059"><ele>1257.0</ele><time>2026-05-03T11:55:18.579Z</time></trkpt><trkpt lat="39.3499763" lon="16.4658452"><ele>1259.0</ele><time>2026-05-03T11:55:19.586Z</time></trkpt><trkpt lat="39.3499269" lon="16.4656657"><ele>1259.0</ele><time>2026-05-03T11:55:20.592Z</time></trkpt><trkpt lat="39.3498741" lon="16.4654801"><ele>1259.0</ele><time>2026-05-03T11:55:21.593Z</time></trkpt><trkpt lat="39.349811" lon="16.4652875"><ele>1259.0</ele><time>2026-05-03T11:55:22.583Z</time></trkpt><trkpt lat="39.3497583" lon="16.4650966"><ele>1259.0</ele><time>2026-05-03T11:55:23.581Z</time></trkpt><trkpt lat="39.3497452" lon="16.4648947"><ele>1259.0</ele><time>2026-05-03T11:55:24.599Z</time></trkpt><trkpt lat="39.3497382" lon="16.4646841"><ele>1259.0</ele><time>2026-05-03T11:55:25.584Z</time></trkpt><trkpt lat="39.349732" lon="16.4644738"><ele>1259.6666666666667</ele><time>2026-05-03T11:55:26.59Z</time></trkpt><trkpt lat="39.3496921" lon="16.464264"><ele>1260.3333333333333</ele><time>2026-05-03T11:55:27.577Z</time></trkpt><trkpt lat="39.3496263" lon="16.4640519"><ele>1261.0</ele><time>2026-05-03T11:55:28.598Z</time></trkpt><trkpt lat="39.3495621" lon="16.463839"><ele>1260.0</ele><time>2026-05-03T11:55:29.592Z</time></trkpt><trkpt lat="39.349496" lon="16.4636182"><ele>1259.0</ele><time>2026-05-03T11:55:30.593Z</time></trkpt><trkpt lat="39.3494176" lon="16.4633832"><ele>1258.0</ele><time>2026-05-03T11:55:31.593Z</time></trkpt><trkpt lat="39.3493258" lon="16.463149"><ele>1257.6666666666665</ele><time>2026-05-03T11:55:32.598Z</time></trkpt><trkpt lat="39.3492491" lon="16.4629106"><ele>1257.3333333333333</ele><time>2026-05-03T11:55:33.606Z</time></trkpt><trkpt lat="39.3491801" lon="16.4626866"><ele>1257.0</ele><time>2026-05-03T11:55:34.603Z</time></trkpt><trkpt lat="39.3491012" lon="16.4624688"><ele>1257.0</ele><time>2026-05-03T11:55:35.578Z</time></trkpt><trkpt lat="39.3490296" lon="16.4622585"><ele>1257.0</ele><time>2026-05-03T11:55:36.6Z</time></trkpt><trkpt lat="39.3489634" lon="16.4620504"><ele>1257.0</ele><time>2026-05-03T11:55:37.587Z</time></trkpt><trkpt lat="39.3489004" lon="16.4618325"><ele>1255.6666666666667</ele><time>2026-05-03T11:55:38.615Z</time></trkpt><trkpt lat="39.3488447" lon="16.4616091"><ele>1254.3333333333335</ele><time>2026-05-03T11:55:39.596Z</time></trkpt><trkpt lat="39.3487898" lon="16.4613869"><ele>1253.0</ele><time>2026-05-03T11:55:40.6Z</time></trkpt><trkpt lat="39.348733" lon="16.4611668"><ele>1253.0</ele><time>2026-05-03T11:55:41.61Z</time></trkpt><trkpt lat="39.3486659" lon="16.4609678"><ele>1253.0</ele><time>2026-05-03T11:55:42.568Z</time></trkpt><trkpt lat="39.3486002" lon="16.4607808"><ele>1253.0</ele><time>2026-05-03T11:55:43.6Z</time></trkpt><trkpt lat="39.3485254" lon="16.4606099"><ele>1253.0</ele><time>2026-05-03T11:55:44.588Z</time></trkpt><trkpt lat="39.3484391" lon="16.4604666"><ele>1253.0</ele><time>2026-05-03T11:55:45.587Z</time></trkpt><trkpt lat="39.3483549" lon="16.460355"><ele>1253.0</ele><time>2026-05-03T11:55:46.605Z</time></trkpt><trkpt lat="39.3482772" lon="16.4602623"><ele>1253.0</ele><time>2026-05-03T11:55:47.601Z</time></trkpt><trkpt lat="39.3481947" lon="16.4602085"><ele>1251.0</ele><time>2026-05-03T11:55:48.594Z</time></trkpt><trkpt lat="39.3480831" lon="16.4602143"><ele>1249.0</ele><time>2026-05-03T11:55:49.601Z</time></trkpt><trkpt lat="39.3479759" lon="16.4602731"><ele>1247.0</ele><time>2026-05-03T11:55:50.594Z</time></trkpt><trkpt lat="39.3478787" lon="16.4603744"><ele>1245.0</ele><time>2026-05-03T11:55:51.597Z</time></trkpt><trkpt lat="39.3477861" lon="16.4605178"><ele>1245.0</ele><time>2026-05-03T11:55:52.602Z</time></trkpt><trkpt lat="39.3476804" lon="16.4606645"><ele>1245.0</ele><time>2026-05-03T11:55:53.6Z</time></trkpt><trkpt lat="39.3475583" lon="16.4608199"><ele>1245.0</ele><time>2026-05-03T11:55:54.599Z</time></trkpt><trkpt lat="39.3474409" lon="16.4609812"><ele>1245.0</ele><time>2026-05-03T11:55:55.605Z</time></trkpt><trkpt lat="39.3473354" lon="16.4611305"><ele>1245.0</ele><time>2026-05-03T11:55:56.598Z</time></trkpt><trkpt lat="39.3472355" lon="16.4612615"><ele>1245.0</ele><time>2026-05-03T11:55:57.594Z</time></trkpt><trkpt lat="39.3471266" lon="16.4613664"><ele>1245.0</ele><time>2026-05-03T11:55:58.589Z</time></trkpt><trkpt lat="39.3470133" lon="16.461414"><ele>1244.0</ele><time>2026-05-03T11:55:59.591Z</time></trkpt><trkpt lat="39.3468938" lon="16.4614124"><ele>1243.0</ele><time>2026-05-03T11:56:00.598Z</time></trkpt><trkpt lat="39.3467639" lon="16.4613622"><ele>1242.0</ele><time>2026-05-03T11:56:01.602Z</time></trkpt><trkpt lat="39.3466468" lon="16.4612916"><ele>1241.0</ele><time>2026-05-03T11:56:02.596Z</time></trkpt><trkpt lat="39.3465411" lon="16.4612038"><ele>1240.75</ele><time>2026-05-03T11:56:03.6Z</time></trkpt><trkpt lat="39.3464369" lon="16.4611053"><ele>1240.5</ele><time>2026-05-03T11:56:04.591Z</time></trkpt><trkpt lat="39.3463415" lon="16.4609867"><ele>1240.25</ele><time>2026-05-03T11:56:05.599Z</time></trkpt><trkpt lat="39.3462536" lon="16.4608488"><ele>1240.0</ele><time>2026-05-03T11:56:06.602Z</time></trkpt><trkpt lat="39.3461655" lon="16.4607085"><ele>1240.25</ele><time>2026-05-03T11:56:07.605Z</time></trkpt><trkpt lat="39.3460795" lon="16.4605677"><ele>1240.5</ele><time>2026-05-03T11:56:08.602Z</time></trkpt><trkpt lat="39.3459914" lon="16.4604255"><ele>1240.75</ele><time>2026-05-03T11:56:09.567Z</time></trkpt><trkpt lat="39.3459052" lon="16.4602783"><ele>1241.0</ele><time>2026-05-03T11:56:10.61Z</time></trkpt><trkpt lat="39.3458217" lon="16.460129"><ele>1241.0</ele><time>2026-05-03T11:56:11.578Z</time></trkpt><trkpt lat="39.3457376" lon="16.4599801"><ele>1241.0</ele><time>2026-05-03T11:56:12.598Z</time></trkpt><trkpt lat="39.3456511" lon="16.4598279"><ele>1241.0</ele><time>2026-05-03T11:56:13.592Z</time></trkpt><trkpt lat="39.3455659" lon="16.4596756"><ele>1241.0</ele><time>2026-05-03T11:56:14.608Z</time></trkpt><trkpt lat="39.3454724" lon="16.459527"><ele>1244.6666666666667</ele><time>2026-05-03T11:56:15.59Z</time></trkpt><trkpt lat="39.3453685" lon="16.4593821"><ele>1248.3333333333333</ele><time>2026-05-03T11:56:16.587Z</time></trkpt><trkpt lat="39.3452582" lon="16.4592465"><ele>1252.0</ele><time>2026-05-03T11:56:17.581Z</time></trkpt><trkpt lat="39.3451379" lon="16.4591329"><ele>1252.0</ele><time>2026-05-03T11:56:18.596Z</time></trkpt><trkpt lat="39.345008" lon="16.459034"><ele>1252.0</ele><time>2026-05-03T11:56:19.588Z</time></trkpt><trkpt lat="39.3448764" lon="16.458954"><ele>1252.0</ele><time>2026-05-03T11:56:20.609Z</time></trkpt><trkpt lat="39.3447417" lon="16.458881"><ele>1252.0</ele><time>2026-05-03T11:56:21.592Z</time></trkpt><trkpt lat="39.3446047" lon="16.4588125"><ele>1248.0</ele><time>2026-05-03T11:56:22.599Z</time></trkpt><trkpt lat="39.344463" lon="16.4587409"><ele>1244.0</ele><time>2026-05-03T11:56:23.587Z</time></trkpt><trkpt lat="39.3443195" lon="16.4586673"><ele>1240.0</ele><time>2026-05-03T11:56:24.591Z</time></trkpt><trkpt lat="39.3441806" lon="16.4585966"><ele>1240.0</ele><time>2026-05-03T11:56:25.596Z</time></trkpt><trkpt lat="39.3440417" lon="16.4585177"><ele>1240.0</ele><time>2026-05-03T11:56:26.586Z</time></trkpt><trkpt lat="39.3438969" lon="16.4584395"><ele>1240.0</ele><time>2026-05-03T11:56:27.575Z</time></trkpt><trkpt lat="39.3437469" lon="16.4583748"><ele>1240.25</ele><time>2026-05-03T11:56:28.589Z</time></trkpt><trkpt lat="39.3436148" lon="16.4583045"><ele>1240.5</ele><time>2026-05-03T11:56:29.584Z</time></trkpt><trkpt lat="39.3434959" lon="16.458204"><ele>1240.75</ele><time>2026-05-03T11:56:30.593Z</time></trkpt><trkpt lat="39.343391" lon="16.4580753"><ele>1241.0</ele><time>2026-05-03T11:56:31.582Z</time></trkpt><trkpt lat="39.343303" lon="16.4579307"><ele>1241.0</ele><time>2026-05-03T11:56:32.603Z</time></trkpt><trkpt lat="39.3432316" lon="16.457777"><ele>1241.0</ele><time>2026-05-03T11:56:33.595Z</time></trkpt><trkpt lat="39.3431788" lon="16.4576001"><ele>1241.0</ele><time>2026-05-03T11:56:34.603Z</time></trkpt><trkpt lat="39.3431375" lon="16.4574082"><ele>1241.0</ele><time>2026-05-03T11:56:35.602Z</time></trkpt><trkpt lat="39.3431219" lon="16.4572022"><ele>1241.6666666666667</ele><time>2026-05-03T11:56:36.59Z</time></trkpt><trkpt lat="39.3430979" lon="16.4570009"><ele>1242.3333333333333</ele><time>2026-05-03T11:56:37.594Z</time></trkpt><trkpt lat="39.3430755" lon="16.4567882"><ele>1243.0</ele><time>2026-05-03T11:56:38.603Z</time></trkpt><trkpt lat="39.3430472" lon="16.4565735"><ele>1243.0</ele><time>2026-05-03T11:56:39.595Z</time></trkpt><trkpt lat="39.3430178" lon="16.4563641"><ele>1243.0</ele><time>2026-05-03T11:56:40.609Z</time></trkpt><trkpt lat="39.3429842" lon="16.4561571"><ele>1243.0</ele><time>2026-05-03T11:56:41.6Z</time></trkpt><trkpt lat="39.3429403" lon="16.455972"><ele>1243.0</ele><time>2026-05-03T11:56:42.592Z</time></trkpt><trkpt lat="39.3428719" lon="16.4557962"><ele>1243.0</ele><time>2026-05-03T11:56:43.594Z</time></trkpt><trkpt lat="39.3427869" lon="16.4556336"><ele>1243.0</ele><time>2026-05-03T11:56:44.597Z</time></trkpt><trkpt lat="39.3426982" lon="16.4554786"><ele>1244.0</ele><time>2026-05-03T11:56:45.596Z</time></trkpt><trkpt lat="39.3426135" lon="16.4553204"><ele>1245.0</ele><time>2026-05-03T11:56:46.585Z</time></trkpt><trkpt lat="39.3425328" lon="16.4551493"><ele>1246.0</ele><time>2026-05-03T11:56:47.592Z</time></trkpt><trkpt lat="39.3424573" lon="16.4549887"><ele>1247.0</ele><time>2026-05-03T11:56:48.604Z</time></trkpt><trkpt lat="39.342373" lon="16.4548342"><ele>1247.0</ele><time>2026-05-03T11:56:49.6Z</time></trkpt><trkpt lat="39.342296" lon="16.4546813"><ele>1247.0</ele><time>2026-05-03T11:56:50.603Z</time></trkpt><trkpt lat="39.3422334" lon="16.4545329"><ele>1247.0</ele><time>2026-05-03T11:56:51.592Z</time></trkpt><trkpt lat="39.3421786" lon="16.4543943"><ele>1247.0</ele><time>2026-05-03T11:56:52.603Z</time></trkpt><trkpt lat="39.3421177" lon="16.454255"><ele>1248.25</ele><time>2026-05-03T11:56:53.594Z</time></trkpt><trkpt lat="39.3420428" lon="16.4541179"><ele>1249.5</ele><time>2026-05-03T11:56:54.586Z</time></trkpt><trkpt lat="39.3419656" lon="16.4539715"><ele>1250.75</ele><time>2026-05-03T11:56:55.587Z</time></trkpt><trkpt lat="39.341891" lon="16.4538214"><ele>1252.0</ele><time>2026-05-03T11:56:56.599Z</time></trkpt><trkpt lat="39.3418259" lon="16.4536644"><ele>1252.6666666666665</ele><time>2026-05-03T11:56:57.597Z</time></trkpt><trkpt lat="39.3417682" lon="16.4534999"><ele>1253.3333333333333</ele><time>2026-05-03T11:56:58.592Z</time></trkpt><trkpt lat="39.3417199" lon="16.4533122"><ele>1254.0</ele><time>2026-05-03T11:56:59.603Z</time></trkpt><trkpt lat="39.3416623" lon="16.4531161"><ele>1255.6666666666667</ele><time>2026-05-03T11:57:00.598Z</time></trkpt><trkpt lat="39.3416104" lon="16.4529139"><ele>1257.3333333333335</ele><time>2026-05-03T11:57:01.599Z</time></trkpt><trkpt lat="39.3415673" lon="16.4526981"><ele>1259.0</ele><time>2026-05-03T11:57:02.584Z</time></trkpt><trkpt lat="39.3415298" lon="16.4524846"><ele>1259.0</ele><time>2026-05-03T11:57:03.598Z</time></trkpt><trkpt lat="39.3414988" lon="16.4522963"><ele>1259.0</ele><time>2026-05-03T11:57:04.588Z</time></trkpt><trkpt lat="39.3414512" lon="16.4521122"><ele>1259.0</ele><time>2026-05-03T11:57:05.593Z</time></trkpt><trkpt lat="39.3413829" lon="16.4519384"><ele>1258.6666666666667</ele><time>2026-05-03T11:57:06.598Z</time></trkpt><trkpt lat="39.341297" lon="16.451774"><ele>1258.3333333333333</ele><time>2026-05-03T11:57:07.591Z</time></trkpt><trkpt lat="39.3412061" lon="16.4516183"><ele>1258.0</ele><time>2026-05-03T11:57:08.595Z</time></trkpt><trkpt lat="39.3411095" lon="16.4514762"><ele>1258.0</ele><time>2026-05-03T11:57:09.598Z</time></trkpt><trkpt lat="39.3410303" lon="16.4513359"><ele>1258.0</ele><time>2026-05-03T11:57:10.585Z</time></trkpt><trkpt lat="39.3409585" lon="16.4511746"><ele>1258.0</ele><time>2026-05-03T11:57:11.593Z</time></trkpt><trkpt lat="39.3408958" lon="16.4509987"><ele>1258.0</ele><time>2026-05-03T11:57:12.598Z</time></trkpt><trkpt lat="39.3408479" lon="16.4508209"><ele>1259.0</ele><time>2026-05-03T11:57:13.591Z</time></trkpt><trkpt lat="39.3408088" lon="16.4506562"><ele>1260.0</ele><time>2026-05-03T11:57:14.601Z</time></trkpt><trkpt lat="39.3407857" lon="16.450536"><ele>1261.0</ele><time>2026-05-03T11:57:15.593Z</time></trkpt><trkpt lat="39.3407653" lon="16.4504489"><ele>1262.0</ele><time>2026-05-03T11:57:16.587Z</time></trkpt><trkpt lat="39.3407179" lon="16.4503372"><ele>1263.0</ele><time>2026-05-03T11:57:18.597Z</time></trkpt><trkpt lat="39.3406462" lon="16.4503214"><ele>1264.0</ele><time>2026-05-03T11:57:20.593Z</time></trkpt><trkpt lat="39.3405634" lon="16.4503973"><ele>1265.0</ele><time>2026-05-03T11:57:22.587Z</time></trkpt><trkpt lat="39.340486" lon="16.4505252"><ele>1266.0</ele><time>2026-05-03T11:57:24.596Z</time></trkpt><trkpt lat="39.3404396" lon="16.4506178"><ele>1267.0</ele><time>2026-05-03T11:57:25.588Z</time></trkpt><trkpt lat="39.3403846" lon="16.4507164"><ele>1268.0</ele><time>2026-05-03T11:57:26.598Z</time></trkpt><trkpt lat="39.3403241" lon="16.4508399"><ele>1265.8</ele><time>2026-05-03T11:57:27.595Z</time></trkpt><trkpt lat="39.3402643" lon="16.4509576"><ele>1263.6</ele><time>2026-05-03T11:57:28.597Z</time></trkpt><trkpt lat="39.3402077" lon="16.4510683"><ele>1261.4</ele><time>2026-05-03T11:57:29.582Z</time></trkpt><trkpt lat="39.3401473" lon="16.4511741"><ele>1259.2</ele><time>2026-05-03T11:57:30.594Z</time></trkpt><trkpt lat="39.3400834" lon="16.4512627"><ele>1257.0</ele><time>2026-05-03T11:57:31.594Z</time></trkpt><trkpt lat="39.3400181" lon="16.4513456"><ele>1256.6</ele><time>2026-05-03T11:57:32.59Z</time></trkpt><trkpt lat="39.3399458" lon="16.4514152"><ele>1256.2</ele><time>2026-05-03T11:57:33.594Z</time></trkpt><trkpt lat="39.339865" lon="16.4514673"><ele>1255.8</ele><time>2026-05-03T11:57:34.595Z</time></trkpt><trkpt lat="39.3397655" lon="16.4514962"><ele>1255.4</ele><time>2026-05-03T11:57:35.599Z</time></trkpt><trkpt lat="39.33967" lon="16.4515027"><ele>1255.0</ele><time>2026-05-03T11:57:36.588Z</time></trkpt><trkpt lat="39.3395725" lon="16.4514799"><ele>1262.6</ele><time>2026-05-03T11:57:37.578Z</time></trkpt><trkpt lat="39.3394882" lon="16.4514279"><ele>1270.2</ele><time>2026-05-03T11:57:38.587Z</time></trkpt><trkpt lat="39.3394102" lon="16.4513422"><ele>1277.8000000000002</ele><time>2026-05-03T11:57:39.591Z</time></trkpt><trkpt lat="39.3393531" lon="16.4512375"><ele>1285.4</ele><time>2026-05-03T11:57:40.595Z</time></trkpt><trkpt lat="39.3393124" lon="16.4511052"><ele>1293.0</ele><time>2026-05-03T11:57:41.578Z</time></trkpt><trkpt lat="39.3392981" lon="16.4509692"><ele>1293.0</ele><time>2026-05-03T11:57:42.589Z</time></trkpt><trkpt lat="39.3393042" lon="16.4508255"><ele>1293.0</ele><time>2026-05-03T11:57:43.577Z</time></trkpt><trkpt lat="39.339311" lon="16.4506807"><ele>1293.0</ele><time>2026-05-03T11:57:44.581Z</time></trkpt><trkpt lat="39.3393056" lon="16.4505282"><ele>1293.0</ele><time>2026-05-03T11:57:45.591Z</time></trkpt><trkpt lat="39.3392975" lon="16.4503678"><ele>1291.25</ele><time>2026-05-03T11:57:46.591Z</time></trkpt><trkpt lat="39.3392853" lon="16.450211"><ele>1289.5</ele><time>2026-05-03T11:57:47.591Z</time></trkpt><trkpt lat="39.3392716" lon="16.4500656"><ele>1287.75</ele><time>2026-05-03T11:57:48.591Z</time></trkpt><trkpt lat="39.3392538" lon="16.4499293"><ele>1286.0</ele><time>2026-05-03T11:57:49.598Z</time></trkpt><trkpt lat="39.3392272" lon="16.4497934"><ele>1286.0</ele><time>2026-05-03T11:57:50.598Z</time></trkpt><trkpt lat="39.3391936" lon="16.449658"><ele>1286.0</ele><time>2026-05-03T11:57:51.584Z</time></trkpt><trkpt lat="39.3391527" lon="16.4495219"><ele>1286.0</ele><time>2026-05-03T11:57:52.603Z</time></trkpt><trkpt lat="39.3391056" lon="16.4493784"><ele>1286.0</ele><time>2026-05-03T11:57:53.587Z</time></trkpt><trkpt lat="39.3390617" lon="16.4492279"><ele>1284.0</ele><time>2026-05-03T11:57:54.59Z</time></trkpt><trkpt lat="39.3390143" lon="16.4490774"><ele>1282.0</ele><time>2026-05-03T11:57:55.577Z</time></trkpt><trkpt lat="39.3389653" lon="16.448916"><ele>1280.0</ele><time>2026-05-03T11:57:56.59Z</time></trkpt><trkpt lat="39.3389176" lon="16.4487516"><ele>1278.0</ele><time>2026-05-03T11:57:57.58Z</time></trkpt><trkpt lat="39.3388637" lon="16.4485888"><ele>1280.75</ele><time>2026-05-03T11:57:58.593Z</time></trkpt><trkpt lat="39.3388058" lon="16.4484222"><ele>1283.5</ele><time>2026-05-03T11:57:59.588Z</time></trkpt><trkpt lat="39.3387393" lon="16.4482564"><ele>1286.25</ele><time>2026-05-03T11:58:00.587Z</time></trkpt><trkpt lat="39.338682" lon="16.4480806"><ele>1289.0</ele><time>2026-05-03T11:58:01.584Z</time></trkpt><trkpt lat="39.338621" lon="16.4478992"><ele>1289.0</ele><time>2026-05-03T11:58:02.585Z</time></trkpt><trkpt lat="39.3385564" lon="16.4477151"><ele>1289.0</ele><time>2026-05-03T11:58:03.597Z</time></trkpt><trkpt lat="39.3384933" lon="16.4475286"><ele>1289.0</ele><time>2026-05-03T11:58:04.585Z</time></trkpt><trkpt lat="39.3384379" lon="16.4473323"><ele>1284.3333333333335</ele><time>2026-05-03T11:58:05.584Z</time></trkpt><trkpt lat="39.338386" lon="16.4471261"><ele>1279.6666666666667</ele><time>2026-05-03T11:58:06.584Z</time></trkpt><trkpt lat="39.3383382" lon="16.4469117"><ele>1275.0</ele><time>2026-05-03T11:58:07.59Z</time></trkpt><trkpt lat="39.3382768" lon="16.4466986"><ele>1275.0</ele><time>2026-05-03T11:58:08.581Z</time></trkpt><trkpt lat="39.3382228" lon="16.4464875"><ele>1275.0</ele><time>2026-05-03T11:58:09.603Z</time></trkpt><trkpt lat="39.3381653" lon="16.446279"><ele>1275.0</ele><time>2026-05-03T11:58:10.599Z</time></trkpt><trkpt lat="39.3381113" lon="16.4460697"><ele>1275.0</ele><time>2026-05-03T11:58:11.592Z</time></trkpt><trkpt lat="39.3380558" lon="16.4458611"><ele>1275.0</ele><time>2026-05-03T11:58:12.59Z</time></trkpt><trkpt lat="39.3380028" lon="16.445639"><ele>1275.0</ele><time>2026-05-03T11:58:13.594Z</time></trkpt><trkpt lat="39.3379444" lon="16.4454192"><ele>1281.3333333333333</ele><time>2026-05-03T11:58:14.585Z</time></trkpt><trkpt lat="39.3378889" lon="16.4451995"><ele>1287.6666666666665</ele><time>2026-05-03T11:58:15.592Z</time></trkpt><trkpt lat="39.3378371" lon="16.4449748"><ele>1294.0</ele><time>2026-05-03T11:58:16.592Z</time></trkpt><trkpt lat="39.3377815" lon="16.4447587"><ele>1292.6666666666665</ele><time>2026-05-03T11:58:17.586Z</time></trkpt><trkpt lat="39.3377281" lon="16.4445346"><ele>1291.3333333333333</ele><time>2026-05-03T11:58:18.579Z</time></trkpt><trkpt lat="39.3376736" lon="16.4443161"><ele>1290.0</ele><time>2026-05-03T11:58:19.582Z</time></trkpt><trkpt lat="39.3376216" lon="16.4440985"><ele>1290.0</ele><time>2026-05-03T11:58:20.597Z</time></trkpt><trkpt lat="39.3375707" lon="16.4438788"><ele>1290.0</ele><time>2026-05-03T11:58:21.577Z</time></trkpt><trkpt lat="39.3375096" lon="16.4436582"><ele>1290.0</ele><time>2026-05-03T11:58:22.583Z</time></trkpt><trkpt lat="39.3374531" lon="16.4434301"><ele>1289.0</ele><time>2026-05-03T11:58:23.586Z</time></trkpt><trkpt lat="39.3373945" lon="16.4432034"><ele>1288.0</ele><time>2026-05-03T11:58:24.587Z</time></trkpt><trkpt lat="39.3373306" lon="16.4429779"><ele>1287.0</ele><time>2026-05-03T11:58:25.565Z</time></trkpt><trkpt lat="39.3372716" lon="16.4427501"><ele>1295.3333333333333</ele><time>2026-05-03T11:58:26.589Z</time></trkpt><trkpt lat="39.3372119" lon="16.4425218"><ele>1303.6666666666665</ele><time>2026-05-03T11:58:27.579Z</time></trkpt><trkpt lat="39.3371512" lon="16.4422915"><ele>1312.0</ele><time>2026-05-03T11:58:28.589Z</time></trkpt><trkpt lat="39.337095" lon="16.4420578"><ele>1312.0</ele><time>2026-05-03T11:58:29.596Z</time></trkpt><trkpt lat="39.3370371" lon="16.4418294"><ele>1312.0</ele><time>2026-05-03T11:58:30.592Z</time></trkpt><trkpt lat="39.3369722" lon="16.441607"><ele>1312.0</ele><time>2026-05-03T11:58:31.586Z</time></trkpt><trkpt lat="39.3369029" lon="16.4413933"><ele>1308.0</ele><time>2026-05-03T11:58:32.59Z</time></trkpt><trkpt lat="39.3368294" lon="16.4411706"><ele>1304.0</ele><time>2026-05-03T11:58:33.576Z</time></trkpt><trkpt lat="39.3367544" lon="16.4409572"><ele>1300.0</ele><time>2026-05-03T11:58:34.588Z</time></trkpt><trkpt lat="39.3366654" lon="16.4407442"><ele>1300.0</ele><time>2026-05-03T11:58:35.584Z</time></trkpt><trkpt lat="39.3365731" lon="16.4405297"><ele>1300.0</ele><time>2026-05-03T11:58:36.588Z</time></trkpt><trkpt lat="39.3364795" lon="16.4403093"><ele>1300.0</ele><time>2026-05-03T11:58:37.593Z</time></trkpt><trkpt lat="39.33638" lon="16.4400879"><ele>1304.0</ele><time>2026-05-03T11:58:38.597Z</time></trkpt><trkpt lat="39.3362937" lon="16.4398615"><ele>1308.0</ele><time>2026-05-03T11:58:39.586Z</time></trkpt><trkpt lat="39.3362026" lon="16.4396442"><ele>1312.0</ele><time>2026-05-03T11:58:40.594Z</time></trkpt><trkpt lat="39.3361025" lon="16.4394304"><ele>1312.0</ele><time>2026-05-03T11:58:41.585Z</time></trkpt><trkpt lat="39.3360047" lon="16.4392119"><ele>1312.0</ele><time>2026-05-03T11:58:42.593Z</time></trkpt><trkpt lat="39.3359153" lon="16.4389879"><ele>1312.0</ele><time>2026-05-03T11:58:43.582Z</time></trkpt><trkpt lat="39.3358359" lon="16.438759"><ele>1312.6666666666665</ele><time>2026-05-03T11:58:44.598Z</time></trkpt><trkpt lat="39.3357595" lon="16.4385246"><ele>1313.3333333333333</ele><time>2026-05-03T11:58:45.581Z</time></trkpt><trkpt lat="39.3356893" lon="16.4382862"><ele>1314.0</ele><time>2026-05-03T11:58:46.585Z</time></trkpt><trkpt lat="39.3356225" lon="16.4380552"><ele>1315.3333333333333</ele><time>2026-05-03T11:58:47.58Z</time></trkpt><trkpt lat="39.3355633" lon="16.4378245"><ele>1316.6666666666665</ele><time>2026-05-03T11:58:48.592Z</time></trkpt><trkpt lat="39.3355172" lon="16.437589"><ele>1318.0</ele><time>2026-05-03T11:58:49.583Z</time></trkpt><trkpt lat="39.335477" lon="16.4373503"><ele>1327.0</ele><time>2026-05-03T11:58:50.588Z</time></trkpt><trkpt lat="39.3354391" lon="16.4371114"><ele>1336.0</ele><time>2026-05-03T11:58:51.579Z</time></trkpt><trkpt lat="39.3354062" lon="16.4368623"><ele>1345.0</ele><time>2026-05-03T11:58:52.611Z</time></trkpt><trkpt lat="39.3353752" lon="16.4366136"><ele>1345.0</ele><time>2026-05-03T11:58:53.569Z</time></trkpt><trkpt lat="39.3353474" lon="16.4363622"><ele>1345.0</ele><time>2026-05-03T11:58:54.579Z</time></trkpt><trkpt lat="39.3353191" lon="16.4361105"><ele>1345.0</ele><time>2026-05-03T11:58:55.56Z</time></trkpt><trkpt lat="39.3352937" lon="16.4358594"><ele>1345.3333333333333</ele><time>2026-05-03T11:58:56.576Z</time></trkpt><trkpt lat="39.3352683" lon="16.4356088"><ele>1345.6666666666667</ele><time>2026-05-03T11:58:57.561Z</time></trkpt><trkpt lat="39.335244" lon="16.4353639"><ele>1346.0</ele><time>2026-05-03T11:58:58.575Z</time></trkpt><trkpt lat="39.3352185" lon="16.4351186"><ele>1346.0</ele><time>2026-05-03T11:58:59.586Z</time></trkpt><trkpt lat="39.3351926" lon="16.4348723"><ele>1346.0</ele><time>2026-05-03T11:59:00.571Z</time></trkpt><trkpt lat="39.3351675" lon="16.4346301"><ele>1346.0</ele><time>2026-05-03T11:59:01.573Z</time></trkpt><trkpt lat="39.3351435" lon="16.43439"><ele>1346.3333333333335</ele><time>2026-05-03T11:59:02.564Z</time></trkpt><trkpt lat="39.335126" lon="16.4341512"><ele>1346.6666666666667</ele><time>2026-05-03T11:59:03.563Z</time></trkpt><trkpt lat="39.3351095" lon="16.4339145"><ele>1347.0</ele><time>2026-05-03T11:59:04.595Z</time></trkpt><trkpt lat="39.3350902" lon="16.4336737"><ele>1347.0</ele><time>2026-05-03T11:59:05.566Z</time></trkpt><trkpt lat="39.3350638" lon="16.4334351"><ele>1347.0</ele><time>2026-05-03T11:59:06.578Z</time></trkpt><trkpt lat="39.3350445" lon="16.4331955"><ele>1347.0</ele><time>2026-05-03T11:59:07.56Z</time></trkpt><trkpt lat="39.3350313" lon="16.4329579"><ele>1348.0</ele><time>2026-05-03T11:59:08.579Z</time></trkpt><trkpt lat="39.3350203" lon="16.4327176"><ele>1349.0</ele><time>2026-05-03T11:59:09.57Z</time></trkpt><trkpt lat="39.3350112" lon="16.4324824"><ele>1350.0</ele><time>2026-05-03T11:59:10.577Z</time></trkpt><trkpt lat="39.3350101" lon="16.4322497"><ele>1351.3333333333333</ele><time>2026-05-03T11:59:11.58Z</time></trkpt><trkpt lat="39.3350088" lon="16.4320166"><ele>1352.6666666666665</ele><time>2026-05-03T11:59:12.57Z</time></trkpt><trkpt lat="39.3350152" lon="16.4317778"><ele>1354.0</ele><time>2026-05-03T11:59:13.621Z</time></trkpt><trkpt lat="39.3350093" lon="16.4315375"><ele>1357.0</ele><time>2026-05-03T11:59:14.581Z</time></trkpt><trkpt lat="39.3350008" lon="16.4312966"><ele>1360.0</ele><time>2026-05-03T11:59:15.576Z</time></trkpt><trkpt lat="39.3348576" lon="16.4248915"><ele>1360.0</ele><time>2026-05-03T11:59:41.556Z</time></trkpt><trkpt lat="39.335021" lon="16.4247244"><ele>1360.0</ele><time>2026-05-03T11:59:42.581Z</time></trkpt><trkpt lat="39.3350223" lon="16.4244798"><ele>1360.0</ele><time>2026-05-03T11:59:43.567Z</time></trkpt><trkpt lat="39.3349846" lon="16.4242223"><ele>1357.6666666666665</ele><time>2026-05-03T11:59:44.575Z</time></trkpt><trkpt lat="39.33497" lon="16.4239603"><ele>1355.3333333333333</ele><time>2026-05-03T11:59:45.572Z</time></trkpt><trkpt lat="39.3349789" lon="16.4236989"><ele>1353.0</ele><time>2026-05-03T11:59:46.571Z</time></trkpt><trkpt lat="39.3349962" lon="16.4234404"><ele>1352.3333333333333</ele><time>2026-05-03T11:59:47.568Z</time></trkpt><trkpt lat="39.335009" lon="16.4231837"><ele>1351.6666666666665</ele><time>2026-05-03T11:59:48.583Z</time></trkpt><trkpt lat="39.3350195" lon="16.4229231"><ele>1351.0</ele><time>2026-05-03T11:59:49.583Z</time></trkpt><trkpt lat="39.3350405" lon="16.4226655"><ele>1349.6666666666665</ele><time>2026-05-03T11:59:50.581Z</time></trkpt><trkpt lat="39.3350657" lon="16.4224087"><ele>1348.3333333333333</ele><time>2026-05-03T11:59:51.583Z</time></trkpt><trkpt lat="39.3350985" lon="16.4221467"><ele>1347.0</ele><time>2026-05-03T11:59:52.596Z</time></trkpt><trkpt lat="39.3351369" lon="16.4218845"><ele>1348.0</ele><time>2026-05-03T11:59:53.598Z</time></trkpt><trkpt lat="39.3351839" lon="16.4216289"><ele>1349.0</ele><time>2026-05-03T11:59:54.589Z</time></trkpt><trkpt lat="39.335232" lon="16.4213723"><ele>1350.0</ele><time>2026-05-03T11:59:55.598Z</time></trkpt><trkpt lat="39.3352849" lon="16.421115"><ele>1350.0</ele><time>2026-05-03T11:59:56.597Z</time></trkpt><trkpt lat="39.3353422" lon="16.4208586"><ele>1350.0</ele><time>2026-05-03T11:59:57.576Z</time></trkpt><trkpt lat="39.3354065" lon="16.4206083"><ele>1350.0</ele><time>2026-05-03T11:59:58.6Z</time></trkpt><trkpt lat="39.3354745" lon="16.4203646"><ele>1351.0</ele><time>2026-05-03T11:59:59.594Z</time></trkpt><trkpt lat="39.33555" lon="16.4201204"><ele>1352.0</ele><time>2026-05-03T12:00:00.584Z</time></trkpt><trkpt lat="39.3356282" lon="16.4198749"><ele>1353.0</ele><time>2026-05-03T12:00:01.597Z</time></trkpt><trkpt lat="39.3357025" lon="16.4196323"><ele>1359.6666666666667</ele><time>2026-05-03T12:00:02.598Z</time></trkpt><trkpt lat="39.3357758" lon="16.4193856"><ele>1366.3333333333335</ele><time>2026-05-03T12:00:03.584Z</time></trkpt><trkpt lat="39.3358496" lon="16.4191383"><ele>1373.0</ele><time>2026-05-03T12:00:04.589Z</time></trkpt><trkpt lat="39.335921" lon="16.4189002"><ele>1378.3333333333335</ele><time>2026-05-03T12:00:05.589Z</time></trkpt><trkpt lat="39.3359926" lon="16.4186538"><ele>1383.6666666666667</ele><time>2026-05-03T12:00:06.585Z</time></trkpt><trkpt lat="39.336068" lon="16.4184077"><ele>1389.0</ele><time>2026-05-03T12:00:07.578Z</time></trkpt><trkpt lat="39.3377271" lon="16.4128795"><ele>1389.0</ele><time>2026-05-03T12:00:30.571Z</time></trkpt><trkpt lat="39.3378416" lon="16.4126623"><ele>1389.0</ele><time>2026-05-03T12:00:31.574Z</time></trkpt><trkpt lat="39.3379162" lon="16.4124289"><ele>1389.0</ele><time>2026-05-03T12:00:32.577Z</time></trkpt><trkpt lat="39.3379788" lon="16.4121936"><ele>1383.3333333333333</ele><time>2026-05-03T12:00:33.58Z</time></trkpt><trkpt lat="39.3380511" lon="16.4119731"><ele>1377.6666666666665</ele><time>2026-05-03T12:00:34.573Z</time></trkpt><trkpt lat="39.3381321" lon="16.4117713"><ele>1372.0</ele><time>2026-05-03T12:00:35.572Z</time></trkpt><trkpt lat="39.3382195" lon="16.4115844"><ele>1372.0</ele><time>2026-05-03T12:00:36.573Z</time></trkpt><trkpt lat="39.3383036" lon="16.4114103"><ele>1372.0</ele><time>2026-05-03T12:00:37.578Z</time></trkpt><trkpt lat="39.3384008" lon="16.4112562"><ele>1372.0</ele><time>2026-05-03T12:00:38.584Z</time></trkpt><trkpt lat="39.3385077" lon="16.4111031"><ele>1378.0</ele><time>2026-05-03T12:00:39.581Z</time></trkpt><trkpt lat="39.3386198" lon="16.4109636"><ele>1384.0</ele><time>2026-05-03T12:00:40.578Z</time></trkpt><trkpt lat="39.3387512" lon="16.4108388"><ele>1390.0</ele><time>2026-05-03T12:00:41.582Z</time></trkpt><trkpt lat="39.3388874" lon="16.410723"><ele>1394.0</ele><time>2026-05-03T12:00:42.595Z</time></trkpt><trkpt lat="39.3390301" lon="16.4106093"><ele>1398.0</ele><time>2026-05-03T12:00:43.58Z</time></trkpt><trkpt lat="39.3391797" lon="16.4104888"><ele>1402.0</ele><time>2026-05-03T12:00:44.58Z</time></trkpt><trkpt lat="39.3393358" lon="16.4103668"><ele>1403.6666666666665</ele><time>2026-05-03T12:00:45.571Z</time></trkpt><trkpt lat="39.3394956" lon="16.4102422"><ele>1405.3333333333333</ele><time>2026-05-03T12:00:46.571Z</time></trkpt><trkpt lat="39.3396614" lon="16.4101122"><ele>1407.0</ele><time>2026-05-03T12:00:47.558Z</time></trkpt><trkpt lat="39.341876" lon="16.4084368"><ele>1407.0</ele><time>2026-05-03T12:01:01.567Z</time></trkpt><trkpt lat="39.3420145" lon="16.4082562"><ele>1407.0</ele><time>2026-05-03T12:01:02.57Z</time></trkpt><trkpt lat="39.3421095" lon="16.4081264"><ele>1407.0</ele><time>2026-05-03T12:01:03.585Z</time></trkpt><trkpt lat="39.342275" lon="16.4079968"><ele>1408.0</ele><time>2026-05-03T12:01:04.592Z</time></trkpt><trkpt lat="39.3424355" lon="16.4078712"><ele>1409.0</ele><time>2026-05-03T12:01:05.584Z</time></trkpt><trkpt lat="39.3425937" lon="16.4077276"><ele>1410.0</ele><time>2026-05-03T12:01:06.574Z</time></trkpt><trkpt lat="39.3427598" lon="16.4075926"><ele>1410.0</ele><time>2026-05-03T12:01:07.574Z</time></trkpt><trkpt lat="39.3429181" lon="16.4074603"><ele>1410.0</ele><time>2026-05-03T12:01:08.594Z</time></trkpt><trkpt lat="39.3430795" lon="16.4073365"><ele>1410.0</ele><time>2026-05-03T12:01:09.58Z</time></trkpt><trkpt lat="39.3432361" lon="16.4072144"><ele>1415.3333333333333</ele><time>2026-05-03T12:01:10.575Z</time></trkpt><trkpt lat="39.3433833" lon="16.4070837"><ele>1420.6666666666665</ele><time>2026-05-03T12:01:11.58Z</time></trkpt><trkpt lat="39.343533" lon="16.4069549"><ele>1426.0</ele><time>2026-05-03T12:01:12.587Z</time></trkpt><trkpt lat="39.3436892" lon="16.4068338"><ele>1426.0</ele><time>2026-05-03T12:01:13.575Z</time></trkpt><trkpt lat="39.3438467" lon="16.4067144"><ele>1426.0</ele><time>2026-05-03T12:01:14.578Z</time></trkpt><trkpt lat="39.3440035" lon="16.40659"><ele>1426.0</ele><time>2026-05-03T12:01:15.564Z</time></trkpt><trkpt lat="39.3441598" lon="16.4064685"><ele>1426.0</ele><time>2026-05-03T12:01:16.593Z</time></trkpt><trkpt lat="39.3443191" lon="16.4063385"><ele>1426.0</ele><time>2026-05-03T12:01:17.584Z</time></trkpt><trkpt lat="39.3444826" lon="16.4062121"><ele>1426.0</ele><time>2026-05-03T12:01:18.589Z</time></trkpt><trkpt lat="39.3446432" lon="16.4060846"><ele>1427.0</ele><time>2026-05-03T12:01:19.586Z</time></trkpt><trkpt lat="39.3448023" lon="16.4059565"><ele>1428.0</ele><time>2026-05-03T12:01:20.564Z</time></trkpt><trkpt lat="39.3449617" lon="16.4058269"><ele>1429.0</ele><time>2026-05-03T12:01:21.58Z</time></trkpt><trkpt lat="39.3451221" lon="16.4056865"><ele>1429.0</ele><time>2026-05-03T12:01:22.582Z</time></trkpt><trkpt lat="39.3452839" lon="16.4055442"><ele>1429.0</ele><time>2026-05-03T12:01:23.581Z</time></trkpt><trkpt lat="39.345449" lon="16.4054081"><ele>1429.0</ele><time>2026-05-03T12:01:24.583Z</time></trkpt><trkpt lat="39.3456106" lon="16.4052683"><ele>1448.0</ele><time>2026-05-03T12:01:25.58Z</time></trkpt><trkpt lat="39.3517867" lon="16.4002928"><ele>1448.0</ele><time>2026-05-03T12:02:01.577Z</time></trkpt><trkpt lat="39.3519668" lon="16.4001606"><ele>1448.0</ele><time>2026-05-03T12:02:02.579Z</time></trkpt><trkpt lat="39.3521449" lon="16.4000431"><ele>1448.0</ele><time>2026-05-03T12:02:03.575Z</time></trkpt><trkpt lat="39.3523297" lon="16.3999089"><ele>1446.6666666666667</ele><time>2026-05-03T12:02:04.576Z</time></trkpt><trkpt lat="39.3524948" lon="16.3997651"><ele>1445.3333333333333</ele><time>2026-05-03T12:02:05.581Z</time></trkpt><trkpt lat="39.3526665" lon="16.3996452"><ele>1444.0</ele><time>2026-05-03T12:02:06.58Z</time></trkpt><trkpt lat="39.3528276" lon="16.399507"><ele>1444.0</ele><time>2026-05-03T12:02:07.58Z</time></trkpt><trkpt lat="39.3529794" lon="16.3993626"><ele>1444.0</ele><time>2026-05-03T12:02:08.575Z</time></trkpt><trkpt lat="39.3531221" lon="16.3992045"><ele>1444.0</ele><time>2026-05-03T12:02:09.575Z</time></trkpt><trkpt lat="39.3532458" lon="16.3990343"><ele>1443.3333333333333</ele><time>2026-05-03T12:02:10.596Z</time></trkpt><trkpt lat="39.3533467" lon="16.3988609"><ele>1442.6666666666667</ele><time>2026-05-03T12:02:11.593Z</time></trkpt><trkpt lat="39.3534306" lon="16.3986955"><ele>1442.0</ele><time>2026-05-03T12:02:12.592Z</time></trkpt><trkpt lat="39.3535017" lon="16.3985315"><ele>1442.0</ele><time>2026-05-03T12:02:13.583Z</time></trkpt><trkpt lat="39.3535649" lon="16.3983613"><ele>1442.0</ele><time>2026-05-03T12:02:14.584Z</time></trkpt><trkpt lat="39.3536153" lon="16.3981767"><ele>1442.0</ele><time>2026-05-03T12:02:15.582Z</time></trkpt><trkpt lat="39.3536521" lon="16.3979804"><ele>1445.3333333333335</ele><time>2026-05-03T12:02:16.589Z</time></trkpt><trkpt lat="39.3536704" lon="16.3977737"><ele>1448.6666666666667</ele><time>2026-05-03T12:02:17.597Z</time></trkpt><trkpt lat="39.3536764" lon="16.3975562"><ele>1452.0</ele><time>2026-05-03T12:02:18.589Z</time></trkpt><trkpt lat="39.3536741" lon="16.3973411"><ele>1449.25</ele><time>2026-05-03T12:02:19.592Z</time></trkpt><trkpt lat="39.3536537" lon="16.3971433"><ele>1446.5</ele><time>2026-05-03T12:02:20.594Z</time></trkpt><trkpt lat="39.3536199" lon="16.396963"><ele>1443.75</ele><time>2026-05-03T12:02:21.59Z</time></trkpt><trkpt lat="39.3535826" lon="16.3967938"><ele>1441.0</ele><time>2026-05-03T12:02:22.602Z</time></trkpt><trkpt lat="39.3535385" lon="16.3966318"><ele>1441.0</ele><time>2026-05-03T12:02:23.593Z</time></trkpt><trkpt lat="39.3534806" lon="16.3964646"><ele>1441.0</ele><time>2026-05-03T12:02:24.594Z</time></trkpt><trkpt lat="39.3533982" lon="16.3962808"><ele>1441.0</ele><time>2026-05-03T12:02:25.605Z</time></trkpt><trkpt lat="39.3533064" lon="16.3961042"><ele>1435.0</ele><time>2026-05-03T12:02:26.587Z</time></trkpt><trkpt lat="39.3532164" lon="16.3959341"><ele>1429.0</ele><time>2026-05-03T12:02:27.587Z</time></trkpt><trkpt lat="39.3531298" lon="16.3957782"><ele>1423.0</ele><time>2026-05-03T12:02:28.601Z</time></trkpt><trkpt lat="39.3530479" lon="16.3956255"><ele>1428.0</ele><time>2026-05-03T12:02:29.599Z</time></trkpt><trkpt lat="39.3529599" lon="16.3954664"><ele>1433.0</ele><time>2026-05-03T12:02:30.593Z</time></trkpt><trkpt lat="39.352861" lon="16.3952988"><ele>1438.0</ele><time>2026-05-03T12:02:31.586Z</time></trkpt><trkpt lat="39.3527498" lon="16.3951183"><ele>1438.0</ele><time>2026-05-03T12:02:32.605Z</time></trkpt><trkpt lat="39.3526398" lon="16.394917"><ele>1438.0</ele><time>2026-05-03T12:02:33.59Z</time></trkpt><trkpt lat="39.3525322" lon="16.3947128"><ele>1438.0</ele><time>2026-05-03T12:02:34.589Z</time></trkpt><trkpt lat="39.352424" lon="16.3945156"><ele>1435.0</ele><time>2026-05-03T12:02:35.579Z</time></trkpt><trkpt lat="39.3523249" lon="16.3943381"><ele>1432.0</ele><time>2026-05-03T12:02:36.586Z</time></trkpt><trkpt lat="39.3522406" lon="16.3941738"><ele>1429.0</ele><time>2026-05-03T12:02:37.584Z</time></trkpt><trkpt lat="39.3521581" lon="16.3940248"><ele>1429.75</ele><time>2026-05-03T12:02:38.598Z</time></trkpt><trkpt lat="39.352081" lon="16.3938828"><ele>1430.5</ele><time>2026-05-03T12:02:39.592Z</time></trkpt><trkpt lat="39.3520036" lon="16.3937645"><ele>1431.25</ele><time>2026-05-03T12:02:40.581Z</time></trkpt><trkpt lat="39.3519213" lon="16.3936433"><ele>1432.0</ele><time>2026-05-03T12:02:41.595Z</time></trkpt><trkpt lat="39.3518356" lon="16.3935335"><ele>1432.0</ele><time>2026-05-03T12:02:42.59Z</time></trkpt><trkpt lat="39.3517521" lon="16.3934343"><ele>1432.0</ele><time>2026-05-03T12:02:43.59Z</time></trkpt><trkpt lat="39.3516654" lon="16.3933458"><ele>1432.0</ele><time>2026-05-03T12:02:44.595Z</time></trkpt><trkpt lat="39.3515708" lon="16.3932569"><ele>1432.0</ele><time>2026-05-03T12:02:45.591Z</time></trkpt><trkpt lat="39.3514688" lon="16.3931613"><ele>1433.0</ele><time>2026-05-03T12:02:46.591Z</time></trkpt><trkpt lat="39.3513649" lon="16.3930516"><ele>1434.0</ele><time>2026-05-03T12:02:47.588Z</time></trkpt><trkpt lat="39.3512639" lon="16.3929409"><ele>1435.0</ele><time>2026-05-03T12:02:48.583Z</time></trkpt><trkpt lat="39.351141" lon="16.3928338"><ele>1436.0</ele><time>2026-05-03T12:02:49.573Z</time></trkpt><trkpt lat="39.351023" lon="16.3927169"><ele>1409.0</ele><time>2026-05-03T12:02:50.583Z</time></trkpt><trkpt lat="39.3495418" lon="16.3918793"><ele>1409.0</ele><time>2026-05-03T12:02:59.58Z</time></trkpt><trkpt lat="39.3493481" lon="16.3918415"><ele>1409.0</ele><time>2026-05-03T12:03:00.58Z</time></trkpt><trkpt lat="39.3491929" lon="16.3917733"><ele>1409.0</ele><time>2026-05-03T12:03:01.554Z</time></trkpt><trkpt lat="39.3490364" lon="16.3916723"><ele>1401.6666666666667</ele><time>2026-05-03T12:03:02.585Z</time></trkpt><trkpt lat="39.3488631" lon="16.3916005"><ele>1394.3333333333333</ele><time>2026-05-03T12:03:03.571Z</time></trkpt><trkpt lat="39.3486815" lon="16.3915263"><ele>1387.0</ele><time>2026-05-03T12:03:04.599Z</time></trkpt><trkpt lat="39.34852" lon="16.3914441"><ele>1387.0</ele><time>2026-05-03T12:03:05.586Z</time></trkpt><trkpt lat="39.3483565" lon="16.3913758"><ele>1387.0</ele><time>2026-05-03T12:03:06.588Z</time></trkpt><trkpt lat="39.3481876" lon="16.3912791"><ele>1387.0</ele><time>2026-05-03T12:03:07.565Z</time></trkpt><trkpt lat="39.3480227" lon="16.391154"><ele>1390.0</ele><time>2026-05-03T12:03:08.569Z</time></trkpt><trkpt lat="39.3478734" lon="16.391012"><ele>1393.0</ele><time>2026-05-03T12:03:09.591Z</time></trkpt><trkpt lat="39.3477398" lon="16.3908329"><ele>1396.0</ele><time>2026-05-03T12:03:10.593Z</time></trkpt><trkpt lat="39.3476155" lon="16.3906399"><ele>1395.3333333333333</ele><time>2026-05-03T12:03:11.566Z</time></trkpt><trkpt lat="39.3475087" lon="16.3904515"><ele>1394.6666666666667</ele><time>2026-05-03T12:03:12.564Z</time></trkpt><trkpt lat="39.347416" lon="16.3902599"><ele>1394.0</ele><time>2026-05-03T12:03:13.581Z</time></trkpt><trkpt lat="39.3473434" lon="16.3900472"><ele>1394.0</ele><time>2026-05-03T12:03:14.579Z</time></trkpt><trkpt lat="39.3472924" lon="16.3898357"><ele>1394.0</ele><time>2026-05-03T12:03:15.565Z</time></trkpt><trkpt lat="39.3472592" lon="16.3895955"><ele>1394.0</ele><time>2026-05-03T12:03:16.583Z</time></trkpt><trkpt lat="39.3472412" lon="16.389346"><ele>1392.3333333333335</ele><time>2026-05-03T12:03:17.579Z</time></trkpt><trkpt lat="39.3472366" lon="16.389097"><ele>1390.6666666666667</ele><time>2026-05-03T12:03:18.591Z</time></trkpt><trkpt lat="39.3472236" lon="16.3888411"><ele>1389.0</ele><time>2026-05-03T12:03:19.597Z</time></trkpt><trkpt lat="39.3472046" lon="16.38857"><ele>1400.3333333333333</ele><time>2026-05-03T12:03:20.597Z</time></trkpt><trkpt lat="39.3471827" lon="16.3883037"><ele>1411.6666666666665</ele><time>2026-05-03T12:03:21.587Z</time></trkpt><trkpt lat="39.3471617" lon="16.3880362"><ele>1423.0</ele><time>2026-05-03T12:03:22.6Z</time></trkpt><trkpt lat="39.3471408" lon="16.387774"><ele>1423.0</ele><time>2026-05-03T12:03:23.59Z</time></trkpt><trkpt lat="39.3471239" lon="16.3875105"><ele>1423.0</ele><time>2026-05-03T12:03:24.593Z</time></trkpt><trkpt lat="39.3471042" lon="16.3872458"><ele>1423.0</ele><time>2026-05-03T12:03:25.573Z</time></trkpt><trkpt lat="39.3470891" lon="16.3869806"><ele>1419.6666666666665</ele><time>2026-05-03T12:03:26.594Z</time></trkpt><trkpt lat="39.3470768" lon="16.386712"><ele>1416.3333333333333</ele><time>2026-05-03T12:03:27.58Z</time></trkpt><trkpt lat="39.3470643" lon="16.3864391"><ele>1413.0</ele><time>2026-05-03T12:03:28.587Z</time></trkpt><trkpt lat="39.3470514" lon="16.3861684"><ele>1409.3333333333333</ele><time>2026-05-03T12:03:29.586Z</time></trkpt><trkpt lat="39.3470331" lon="16.3858935"><ele>1405.6666666666665</ele><time>2026-05-03T12:03:30.613Z</time></trkpt><trkpt lat="39.3470288" lon="16.3856219"><ele>1402.0</ele><time>2026-05-03T12:03:31.563Z</time></trkpt><trkpt lat="39.3470118" lon="16.3853472"><ele>1398.6666666666665</ele><time>2026-05-03T12:03:32.597Z</time></trkpt><trkpt lat="39.3469936" lon="16.3850737"><ele>1395.3333333333333</ele><time>2026-05-03T12:03:33.581Z</time></trkpt><trkpt lat="39.3469804" lon="16.3848029"><ele>1392.0</ele><time>2026-05-03T12:03:34.593Z</time></trkpt><trkpt lat="39.3469554" lon="16.3845426"><ele>1386.0</ele><time>2026-05-03T12:03:35.581Z</time></trkpt><trkpt lat="39.3469192" lon="16.3842904"><ele>1380.0</ele><time>2026-05-03T12:03:36.604Z</time></trkpt><trkpt lat="39.346861" lon="16.3840563"><ele>1374.0</ele><time>2026-05-03T12:03:37.575Z</time></trkpt><trkpt lat="39.3467871" lon="16.3838455"><ele>1367.0</ele><time>2026-05-03T12:03:38.588Z</time></trkpt><trkpt lat="39.3466895" lon="16.383651"><ele>1360.0</ele><time>2026-05-03T12:03:39.593Z</time></trkpt><trkpt lat="39.3465701" lon="16.3834679"><ele>1353.0</ele><time>2026-05-03T12:03:40.591Z</time></trkpt><trkpt lat="39.3464328" lon="16.383293"><ele>1355.6666666666667</ele><time>2026-05-03T12:03:41.574Z</time></trkpt><trkpt lat="39.3462811" lon="16.3831419"><ele>1358.3333333333335</ele><time>2026-05-03T12:03:42.596Z</time></trkpt><trkpt lat="39.3461155" lon="16.3830115"><ele>1361.0</ele><time>2026-05-03T12:03:43.586Z</time></trkpt><trkpt lat="39.3459332" lon="16.3829001"><ele>1361.0</ele><time>2026-05-03T12:03:44.588Z</time></trkpt><trkpt lat="39.3457508" lon="16.38282"><ele>1361.0</ele><time>2026-05-03T12:03:45.565Z</time></trkpt><trkpt lat="39.3455715" lon="16.3827588"><ele>1361.0</ele><time>2026-05-03T12:03:46.588Z</time></trkpt><trkpt lat="39.3453908" lon="16.3827095"><ele>1348.0</ele><time>2026-05-03T12:03:47.572Z</time></trkpt><trkpt lat="39.3443217" lon="16.3831583"><ele>1348.0</ele><time>2026-05-03T12:03:53.574Z</time></trkpt><trkpt lat="39.3441202" lon="16.3833982"><ele>1348.0</ele><time>2026-05-03T12:03:54.564Z</time></trkpt><trkpt lat="39.3439356" lon="16.3835606"><ele>1347.6666666666665</ele><time>2026-05-03T12:03:55.57Z</time></trkpt><trkpt lat="39.3437883" lon="16.3837183"><ele>1347.3333333333333</ele><time>2026-05-03T12:03:56.595Z</time></trkpt><trkpt lat="39.3436401" lon="16.3838908"><ele>1347.0</ele><time>2026-05-03T12:03:57.575Z</time></trkpt><trkpt lat="39.3434749" lon="16.3840711"><ele>1347.0</ele><time>2026-05-03T12:03:58.582Z</time></trkpt><trkpt lat="39.3433097" lon="16.384247"><ele>1347.0</ele><time>2026-05-03T12:03:59.591Z</time></trkpt><trkpt lat="39.3431444" lon="16.3844163"><ele>1347.0</ele><time>2026-05-03T12:04:00.586Z</time></trkpt><trkpt lat="39.3429872" lon="16.3845887"><ele>1345.0</ele><time>2026-05-03T12:04:01.58Z</time></trkpt><trkpt lat="39.3428387" lon="16.3847502"><ele>1343.0</ele><time>2026-05-03T12:04:02.602Z</time></trkpt><trkpt lat="39.3426892" lon="16.3849124"><ele>1341.0</ele><time>2026-05-03T12:04:03.579Z</time></trkpt><trkpt lat="39.3425369" lon="16.385073"><ele>1341.0</ele><time>2026-05-03T12:04:04.586Z</time></trkpt><trkpt lat="39.342385" lon="16.3852424"><ele>1341.0</ele><time>2026-05-03T12:04:05.58Z</time></trkpt><trkpt lat="39.3422302" lon="16.3854078"><ele>1341.0</ele><time>2026-05-03T12:04:06.587Z</time></trkpt><trkpt lat="39.342077" lon="16.3855681"><ele>1340.0</ele><time>2026-05-03T12:04:07.581Z</time></trkpt><trkpt lat="39.3419233" lon="16.385722"><ele>1339.0</ele><time>2026-05-03T12:04:08.591Z</time></trkpt><trkpt lat="39.3417647" lon="16.3858582"><ele>1338.0</ele><time>2026-05-03T12:04:09.587Z</time></trkpt><trkpt lat="39.3415968" lon="16.385974"><ele>1338.0</ele><time>2026-05-03T12:04:10.595Z</time></trkpt><trkpt lat="39.3414244" lon="16.3860677"><ele>1338.0</ele><time>2026-05-03T12:04:11.579Z</time></trkpt><trkpt lat="39.3412363" lon="16.386137"><ele>1338.0</ele><time>2026-05-03T12:04:12.573Z</time></trkpt><trkpt lat="39.3410487" lon="16.3861851"><ele>1332.0</ele><time>2026-05-03T12:04:13.567Z</time></trkpt><trkpt lat="39.3408706" lon="16.3862064"><ele>1326.0</ele><time>2026-05-03T12:04:14.597Z</time></trkpt><trkpt lat="39.3406939" lon="16.3862078"><ele>1320.0</ele><time>2026-05-03T12:04:15.587Z</time></trkpt><trkpt lat="39.3405247" lon="16.3861817"><ele>1317.0</ele><time>2026-05-03T12:04:16.587Z</time></trkpt><trkpt lat="39.3403503" lon="16.3861394"><ele>1314.0</ele><time>2026-05-03T12:04:17.593Z</time></trkpt><trkpt lat="39.3401715" lon="16.3860775"><ele>1311.0</ele><time>2026-05-03T12:04:18.592Z</time></trkpt><trkpt lat="39.3400015" lon="16.3859865"><ele>1311.0</ele><time>2026-05-03T12:04:19.585Z</time></trkpt><trkpt lat="39.3398398" lon="16.3858693"><ele>1311.0</ele><time>2026-05-03T12:04:20.592Z</time></trkpt><trkpt lat="39.3396906" lon="16.3857309"><ele>1311.0</ele><time>2026-05-03T12:04:21.585Z</time></trkpt><trkpt lat="39.339546" lon="16.3855748"><ele>1319.6666666666667</ele><time>2026-05-03T12:04:22.597Z</time></trkpt><trkpt lat="39.3394003" lon="16.3853927"><ele>1328.3333333333335</ele><time>2026-05-03T12:04:23.588Z</time></trkpt><trkpt lat="39.3392603" lon="16.385202"><ele>1337.0</ele><time>2026-05-03T12:04:24.576Z</time></trkpt><trkpt lat="39.3391218" lon="16.3850177"><ele>1337.0</ele><time>2026-05-03T12:04:25.555Z</time></trkpt><trkpt lat="39.3389825" lon="16.3848193"><ele>1337.0</ele><time>2026-05-03T12:04:26.589Z</time></trkpt><trkpt lat="39.3388511" lon="16.3846124"><ele>1337.0</ele><time>2026-05-03T12:04:27.573Z</time></trkpt><trkpt lat="39.3378876" lon="16.3833066"><ele>1318.6666666666667</ele><time>2026-05-03T12:04:33.569Z</time></trkpt><trkpt lat="39.3377791" lon="16.3831515"><ele>1300.3333333333333</ele><time>2026-05-03T12:04:34.582Z</time></trkpt><trkpt lat="39.3376717" lon="16.3829697"><ele>1282.0</ele><time>2026-05-03T12:04:35.58Z</time></trkpt><trkpt lat="39.3375474" lon="16.3828048"><ele>1278.0</ele><time>2026-05-03T12:04:36.584Z</time></trkpt><trkpt lat="39.3374397" lon="16.3826321"><ele>1274.0</ele><time>2026-05-03T12:04:37.577Z</time></trkpt><trkpt lat="39.3373449" lon="16.3824432"><ele>1270.0</ele><time>2026-05-03T12:04:38.594Z</time></trkpt><trkpt lat="39.3372632" lon="16.3822464"><ele>1279.3333333333333</ele><time>2026-05-03T12:04:39.584Z</time></trkpt><trkpt lat="39.3371856" lon="16.3820295"><ele>1288.6666666666667</ele><time>2026-05-03T12:04:40.592Z</time></trkpt><trkpt lat="39.3371295" lon="16.381804"><ele>1298.0</ele><time>2026-05-03T12:04:41.584Z</time></trkpt><trkpt lat="39.3370934" lon="16.3815673"><ele>1294.0</ele><time>2026-05-03T12:04:42.6Z</time></trkpt><trkpt lat="39.3370784" lon="16.3813196"><ele>1290.0</ele><time>2026-05-03T12:04:43.579Z</time></trkpt><trkpt lat="39.3370833" lon="16.3810663"><ele>1286.0</ele><time>2026-05-03T12:04:44.593Z</time></trkpt><trkpt lat="39.3371091" lon="16.380811"><ele>1286.0</ele><time>2026-05-03T12:04:45.585Z</time></trkpt><trkpt lat="39.3371602" lon="16.3805601"><ele>1286.0</ele><time>2026-05-03T12:04:46.585Z</time></trkpt><trkpt lat="39.3372308" lon="16.3803175"><ele>1286.0</ele><time>2026-05-03T12:04:47.577Z</time></trkpt><trkpt lat="39.3373241" lon="16.3800818"><ele>1283.0</ele><time>2026-05-03T12:04:48.58Z</time></trkpt><trkpt lat="39.3374432" lon="16.3798541"><ele>1280.0</ele><time>2026-05-03T12:04:49.578Z</time></trkpt><trkpt lat="39.3375735" lon="16.3796367"><ele>1277.0</ele><time>2026-05-03T12:04:50.593Z</time></trkpt><trkpt lat="39.3377258" lon="16.3794349"><ele>1284.3333333333335</ele><time>2026-05-03T12:04:51.604Z</time></trkpt><trkpt lat="39.3378783" lon="16.3792303"><ele>1291.6666666666667</ele><time>2026-05-03T12:04:52.602Z</time></trkpt><trkpt lat="39.3380347" lon="16.3790282"><ele>1299.0</ele><time>2026-05-03T12:04:53.59Z</time></trkpt><trkpt lat="39.3381914" lon="16.3788195"><ele>1304.0</ele><time>2026-05-03T12:04:54.593Z</time></trkpt><trkpt lat="39.3383486" lon="16.3786133"><ele>1309.0</ele><time>2026-05-03T12:04:55.596Z</time></trkpt><trkpt lat="39.3385049" lon="16.3784055"><ele>1314.0</ele><time>2026-05-03T12:04:56.599Z</time></trkpt><trkpt lat="39.3386614" lon="16.3781968"><ele>1308.5</ele><time>2026-05-03T12:04:57.586Z</time></trkpt><trkpt lat="39.3388222" lon="16.3779816"><ele>1303.0</ele><time>2026-05-03T12:04:58.588Z</time></trkpt><trkpt lat="39.3389848" lon="16.3777701"><ele>1303.0</ele><time>2026-05-03T12:04:59.591Z</time></trkpt><trkpt lat="39.339148" lon="16.3775563"><ele>1303.0</ele><time>2026-05-03T12:05:00.584Z</time></trkpt><trkpt lat="39.3393092" lon="16.3773376"><ele>1311.5</ele><time>2026-05-03T12:05:01.599Z</time></trkpt><trkpt lat="39.3394651" lon="16.3771218"><ele>1320.0</ele><time>2026-05-03T12:05:02.594Z</time></trkpt><trkpt lat="39.3396123" lon="16.3769038"><ele>1313.3333333333333</ele><time>2026-05-03T12:05:03.58Z</time></trkpt><trkpt lat="39.3397492" lon="16.3766772"><ele>1306.6666666666665</ele><time>2026-05-03T12:05:04.596Z</time></trkpt><trkpt lat="39.3398721" lon="16.3764374"><ele>1300.0</ele><time>2026-05-03T12:05:05.588Z</time></trkpt><trkpt lat="39.3399827" lon="16.376189"><ele>1300.0</ele><time>2026-05-03T12:05:06.607Z</time></trkpt><trkpt lat="39.3400731" lon="16.3759278"><ele>1300.0</ele><time>2026-05-03T12:05:07.582Z</time></trkpt><trkpt lat="39.3401555" lon="16.3756599"><ele>1300.0</ele><time>2026-05-03T12:05:08.609Z</time></trkpt><trkpt lat="39.3402284" lon="16.3753781"><ele>1305.5</ele><time>2026-05-03T12:05:09.579Z</time></trkpt><trkpt lat="39.3402967" lon="16.3750965"><ele>1311.0</ele><time>2026-05-03T12:05:10.589Z</time></trkpt><trkpt lat="39.3403606" lon="16.374809"><ele>1317.0</ele><time>2026-05-03T12:05:11.574Z</time></trkpt><trkpt lat="39.3404285" lon="16.3745278"><ele>1323.0</ele><time>2026-05-03T12:05:12.605Z</time></trkpt><trkpt lat="39.3404978" lon="16.3742436"><ele>1301.5</ele><time>2026-05-03T12:05:13.595Z</time></trkpt><trkpt lat="39.3405706" lon="16.3739493"><ele>1280.0</ele><time>2026-05-03T12:05:14.598Z</time></trkpt><trkpt lat="39.3406571" lon="16.3736649"><ele>1280.0</ele><time>2026-05-03T12:05:15.592Z</time></trkpt><trkpt lat="39.3407619" lon="16.3733899"><ele>1280.0</ele><time>2026-05-03T12:05:16.58Z</time></trkpt><trkpt lat="39.3408839" lon="16.3731248"><ele>1281.5</ele><time>2026-05-03T12:05:17.571Z</time></trkpt><trkpt lat="39.3410224" lon="16.3728749"><ele>1283.0</ele><time>2026-05-03T12:05:18.596Z</time></trkpt><trkpt lat="39.3411628" lon="16.3726332"><ele>1283.0</ele><time>2026-05-03T12:05:19.595Z</time></trkpt><trkpt lat="39.3413096" lon="16.3723976"><ele>1283.0</ele><time>2026-05-03T12:05:20.594Z</time></trkpt><trkpt lat="39.3414761" lon="16.3721809"><ele>1282.0</ele><time>2026-05-03T12:05:21.589Z</time></trkpt><trkpt lat="39.3416555" lon="16.3719734"><ele>1281.0</ele><time>2026-05-03T12:05:22.604Z</time></trkpt><trkpt lat="39.3418357" lon="16.371775"><ele>1281.0</ele><time>2026-05-03T12:05:23.585Z</time></trkpt><trkpt lat="39.3420137" lon="16.3715842"><ele>1281.0</ele><time>2026-05-03T12:05:24.604Z</time></trkpt><trkpt lat="39.3421811" lon="16.37139"><ele>1280.0</ele><time>2026-05-03T12:05:25.582Z</time></trkpt><trkpt lat="39.3423487" lon="16.3711916"><ele>1279.0</ele><time>2026-05-03T12:05:26.591Z</time></trkpt><trkpt lat="39.342507" lon="16.3710028"><ele>1278.0</ele><time>2026-05-03T12:05:27.589Z</time></trkpt><trkpt lat="39.3426541" lon="16.3708259"><ele>1278.0</ele><time>2026-05-03T12:05:28.599Z</time></trkpt><trkpt lat="39.3427885" lon="16.3706415"><ele>1278.0</ele><time>2026-05-03T12:05:29.592Z</time></trkpt><trkpt lat="39.3429033" lon="16.3704429"><ele>1278.0</ele><time>2026-05-03T12:05:30.591Z</time></trkpt><trkpt lat="39.3430077" lon="16.3702234"><ele>1271.6666666666667</ele><time>2026-05-03T12:05:31.594Z</time></trkpt><trkpt lat="39.343099" lon="16.3699951"><ele>1265.3333333333335</ele><time>2026-05-03T12:05:32.605Z</time></trkpt><trkpt lat="39.3431632" lon="16.3697505"><ele>1259.0</ele><time>2026-05-03T12:05:33.579Z</time></trkpt><trkpt lat="39.3432087" lon="16.3694982"><ele>1259.0</ele><time>2026-05-03T12:05:34.593Z</time></trkpt><trkpt lat="39.3432269" lon="16.3692376"><ele>1259.0</ele><time>2026-05-03T12:05:35.585Z</time></trkpt><trkpt lat="39.3432218" lon="16.3689787"><ele>1259.0</ele><time>2026-05-03T12:05:36.59Z</time></trkpt><trkpt lat="39.3432033" lon="16.3687118"><ele>1258.0</ele><time>2026-05-03T12:05:37.585Z</time></trkpt><trkpt lat="39.34318" lon="16.3684416"><ele>1257.0</ele><time>2026-05-03T12:05:38.589Z</time></trkpt><trkpt lat="39.3431531" lon="16.3681689"><ele>1256.0</ele><time>2026-05-03T12:05:39.587Z</time></trkpt><trkpt lat="39.3431274" lon="16.3679038"><ele>1250.0</ele><time>2026-05-03T12:05:40.596Z</time></trkpt><trkpt lat="39.3431076" lon="16.3676412"><ele>1244.0</ele><time>2026-05-03T12:05:41.588Z</time></trkpt><trkpt lat="39.3430835" lon="16.3673859"><ele>1238.0</ele><time>2026-05-03T12:05:42.603Z</time></trkpt><trkpt lat="39.3430588" lon="16.3671506"><ele>1246.6666666666667</ele><time>2026-05-03T12:05:43.59Z</time></trkpt><trkpt lat="39.343016" lon="16.3669293"><ele>1255.3333333333333</ele><time>2026-05-03T12:05:44.599Z</time></trkpt><trkpt lat="39.3429779" lon="16.3667037"><ele>1264.0</ele><time>2026-05-03T12:05:45.593Z</time></trkpt><trkpt lat="39.3429221" lon="16.366482"><ele>1263.6666666666665</ele><time>2026-05-03T12:05:46.59Z</time></trkpt><trkpt lat="39.342844" lon="16.366265"><ele>1263.3333333333333</ele><time>2026-05-03T12:05:47.586Z</time></trkpt><trkpt lat="39.3427442" lon="16.3660492"><ele>1263.0</ele><time>2026-05-03T12:05:48.593Z</time></trkpt><trkpt lat="39.3426323" lon="16.3658404"><ele>1263.0</ele><time>2026-05-03T12:05:49.58Z</time></trkpt><trkpt lat="39.3425042" lon="16.3656462"><ele>1263.0</ele><time>2026-05-03T12:05:50.607Z</time></trkpt><trkpt lat="39.3423614" lon="16.365454"><ele>1263.0</ele><time>2026-05-03T12:05:51.579Z</time></trkpt><trkpt lat="39.3422104" lon="16.3652629"><ele>1246.0</ele><time>2026-05-03T12:05:52.589Z</time></trkpt><trkpt lat="39.3420554" lon="16.3650792"><ele>1229.0</ele><time>2026-05-03T12:05:53.573Z</time></trkpt><trkpt lat="39.3386311" lon="16.3608391"><ele>1229.0</ele><time>2026-05-03T12:06:14.58Z</time></trkpt><trkpt lat="39.3384389" lon="16.3607017"><ele>1229.0</ele><time>2026-05-03T12:06:15.581Z</time></trkpt><trkpt lat="39.3382301" lon="16.360581"><ele>1229.0</ele><time>2026-05-03T12:06:16.58Z</time></trkpt><trkpt lat="39.3380154" lon="16.3604468"><ele>1218.0</ele><time>2026-05-03T12:06:17.576Z</time></trkpt><trkpt lat="39.3378077" lon="16.3603066"><ele>1207.0</ele><time>2026-05-03T12:06:18.589Z</time></trkpt><trkpt lat="39.3375968" lon="16.3601548"><ele>1207.0</ele><time>2026-05-03T12:06:19.579Z</time></trkpt><trkpt lat="39.3373944" lon="16.3600048"><ele>1207.0</ele><time>2026-05-03T12:06:20.587Z</time></trkpt><trkpt lat="39.3371889" lon="16.3598687"><ele>1209.0</ele><time>2026-05-03T12:06:21.583Z</time></trkpt><trkpt lat="39.3369888" lon="16.3597471"><ele>1211.0</ele><time>2026-05-03T12:06:22.589Z</time></trkpt><trkpt lat="39.3367934" lon="16.3596375"><ele>1213.0</ele><time>2026-05-03T12:06:23.579Z</time></trkpt><trkpt lat="39.3365942" lon="16.3595417"><ele>1213.0</ele><time>2026-05-03T12:06:24.592Z</time></trkpt><trkpt lat="39.3363884" lon="16.3594622"><ele>1213.0</ele><time>2026-05-03T12:06:25.577Z</time></trkpt><trkpt lat="39.3361772" lon="16.359402"><ele>1213.0</ele><time>2026-05-03T12:06:26.595Z</time></trkpt><trkpt lat="39.335963" lon="16.3593518"><ele>1214.6666666666665</ele><time>2026-05-03T12:06:27.583Z</time></trkpt><trkpt lat="39.3357473" lon="16.3593161"><ele>1216.3333333333333</ele><time>2026-05-03T12:06:28.559Z</time></trkpt><trkpt lat="39.3355307" lon="16.3593014"><ele>1218.0</ele><time>2026-05-03T12:06:29.586Z</time></trkpt><trkpt lat="39.3353131" lon="16.359306"><ele>1212.0</ele><time>2026-05-03T12:06:30.59Z</time></trkpt><trkpt lat="39.3350885" lon="16.3593155"><ele>1206.0</ele><time>2026-05-03T12:06:31.584Z</time></trkpt><trkpt lat="39.3348636" lon="16.3593328"><ele>1202.6666666666667</ele><time>2026-05-03T12:06:32.598Z</time></trkpt><trkpt lat="39.3346461" lon="16.3593576"><ele>1199.3333333333335</ele><time>2026-05-03T12:06:33.587Z</time></trkpt><trkpt lat="39.3344439" lon="16.3593925"><ele>1196.0</ele><time>2026-05-03T12:06:34.566Z</time></trkpt><trkpt lat="39.3342573" lon="16.3594415"><ele>1196.0</ele><time>2026-05-03T12:06:35.555Z</time></trkpt><trkpt lat="39.334074" lon="16.3595138"><ele>1196.0</ele><time>2026-05-03T12:06:36.573Z</time></trkpt><trkpt lat="39.33389" lon="16.359614"><ele>1196.0</ele><time>2026-05-03T12:06:37.567Z</time></trkpt><trkpt lat="39.3337241" lon="16.3597409"><ele>1196.6666666666667</ele><time>2026-05-03T12:06:38.572Z</time></trkpt><trkpt lat="39.3335681" lon="16.3598865"><ele>1197.3333333333333</ele><time>2026-05-03T12:06:39.585Z</time></trkpt><trkpt lat="39.3334331" lon="16.360045"><ele>1198.0</ele><time>2026-05-03T12:06:40.579Z</time></trkpt><trkpt lat="39.3333074" lon="16.3602185"><ele>1198.0</ele><time>2026-05-03T12:06:41.604Z</time></trkpt><trkpt lat="39.3332028" lon="16.3603717"><ele>1198.0</ele><time>2026-05-03T12:06:42.596Z</time></trkpt><trkpt lat="39.3331057" lon="16.3605042"><ele>1198.0</ele><time>2026-05-03T12:06:43.583Z</time></trkpt><trkpt lat="39.3330197" lon="16.3606231"><ele>1198.0</ele><time>2026-05-03T12:06:44.597Z</time></trkpt><trkpt lat="39.3329521" lon="16.3607326"><ele>1195.3333333333333</ele><time>2026-05-03T12:06:45.586Z</time></trkpt><trkpt lat="39.3328868" lon="16.360818"><ele>1192.6666666666665</ele><time>2026-05-03T12:06:46.591Z</time></trkpt><trkpt lat="39.3328309" lon="16.3608921"><ele>1190.0</ele><time>2026-05-03T12:06:47.579Z</time></trkpt><trkpt lat="39.3327854" lon="16.3609607"><ele>1187.3333333333333</ele><time>2026-05-03T12:06:48.595Z</time></trkpt><trkpt lat="39.3327123" lon="16.3610546"><ele>1184.6666666666667</ele><time>2026-05-03T12:06:50.593Z</time></trkpt><trkpt lat="39.3326511" lon="16.3610926"><ele>1182.0</ele><time>2026-05-03T12:07:22.6Z</time></trkpt><trkpt lat="39.3325805" lon="16.3611802"><ele>1182.0</ele><time>2026-05-03T12:08:25.588Z</time></trkpt><trkpt lat="39.3324825" lon="16.3612953"><ele>1182.0</ele><time>2026-05-03T12:08:27.597Z</time></trkpt><trkpt lat="39.3324262" lon="16.3613645"><ele>1182.0</ele><time>2026-05-03T12:08:28.587Z</time></trkpt><trkpt lat="39.3323498" lon="16.3614408"><ele>1182.0</ele><time>2026-05-03T12:08:29.604Z</time></trkpt><trkpt lat="39.3322584" lon="16.3615104"><ele>1182.0</ele><time>2026-05-03T12:08:30.595Z</time></trkpt><trkpt lat="39.3321582" lon="16.3615783"><ele>1178.0</ele><time>2026-05-03T12:08:31.593Z</time></trkpt><trkpt lat="39.3320451" lon="16.3616444"><ele>1174.0</ele><time>2026-05-03T12:08:32.605Z</time></trkpt><trkpt lat="39.3319251" lon="16.3617027"><ele>1170.0</ele><time>2026-05-03T12:08:33.599Z</time></trkpt><trkpt lat="39.3317935" lon="16.3617526"><ele>1166.0</ele><time>2026-05-03T12:08:34.597Z</time></trkpt><trkpt lat="39.3316483" lon="16.3617902"><ele>1166.0</ele><time>2026-05-03T12:08:35.59Z</time></trkpt><trkpt lat="39.3314936" lon="16.3618097"><ele>1166.0</ele><time>2026-05-03T12:08:36.592Z</time></trkpt><trkpt lat="39.3313318" lon="16.3618155"><ele>1166.0</ele><time>2026-05-03T12:08:37.597Z</time></trkpt><trkpt lat="39.3311657" lon="16.3618093"><ele>1168.6666666666667</ele><time>2026-05-03T12:08:38.585Z</time></trkpt><trkpt lat="39.3309986" lon="16.3617921"><ele>1171.3333333333333</ele><time>2026-05-03T12:08:39.574Z</time></trkpt><trkpt lat="39.3308293" lon="16.3617596"><ele>1174.0</ele><time>2026-05-03T12:08:40.599Z</time></trkpt><trkpt lat="39.3306556" lon="16.3617184"><ele>1177.0</ele><time>2026-05-03T12:08:41.589Z</time></trkpt><trkpt lat="39.3304747" lon="16.3616767"><ele>1180.0</ele><time>2026-05-03T12:08:42.593Z</time></trkpt><trkpt lat="39.3302914" lon="16.3616337"><ele>1183.0</ele><time>2026-05-03T12:08:43.599Z</time></trkpt><trkpt lat="39.3301051" lon="16.361591"><ele>1183.0</ele><time>2026-05-03T12:08:44.588Z</time></trkpt><trkpt lat="39.3299176" lon="16.3615596"><ele>1183.0</ele><time>2026-05-03T12:08:45.582Z</time></trkpt><trkpt lat="39.3297263" lon="16.3615299"><ele>1183.0</ele><time>2026-05-03T12:08:46.585Z</time></trkpt><trkpt lat="39.3295337" lon="16.3615166"><ele>1179.6666666666665</ele><time>2026-05-03T12:08:47.597Z</time></trkpt><trkpt lat="39.3293368" lon="16.361514"><ele>1176.3333333333333</ele><time>2026-05-03T12:08:48.585Z</time></trkpt><trkpt lat="39.3291359" lon="16.3615274"><ele>1173.0</ele><time>2026-05-03T12:08:49.584Z</time></trkpt><trkpt lat="39.3289323" lon="16.3615431"><ele>1170.6666666666667</ele><time>2026-05-03T12:08:50.589Z</time></trkpt><trkpt lat="39.3287261" lon="16.36156"><ele>1168.3333333333335</ele><time>2026-05-03T12:08:51.59Z</time></trkpt><trkpt lat="39.3285167" lon="16.3615726"><ele>1166.0</ele><time>2026-05-03T12:08:52.617Z</time></trkpt><trkpt lat="39.3283058" lon="16.3615829"><ele>1166.0</ele><time>2026-05-03T12:08:53.592Z</time></trkpt><trkpt lat="39.3280971" lon="16.3615976"><ele>1166.0</ele><time>2026-05-03T12:08:54.592Z</time></trkpt><trkpt lat="39.3278891" lon="16.3616322"><ele>1166.0</ele><time>2026-05-03T12:08:55.587Z</time></trkpt><trkpt lat="39.3276817" lon="16.3616899"><ele>1162.6666666666667</ele><time>2026-05-03T12:08:56.603Z</time></trkpt><trkpt lat="39.3274717" lon="16.361765"><ele>1159.3333333333333</ele><time>2026-05-03T12:08:57.593Z</time></trkpt><trkpt lat="39.3272641" lon="16.3618533"><ele>1156.0</ele><time>2026-05-03T12:08:58.59Z</time></trkpt><trkpt lat="39.3270493" lon="16.3619378"><ele>1146.0</ele><time>2026-05-03T12:08:59.587Z</time></trkpt><trkpt lat="39.3268287" lon="16.3620218"><ele>1136.0</ele><time>2026-05-03T12:09:00.578Z</time></trkpt><trkpt lat="39.3266079" lon="16.3621067"><ele>1121.0</ele><time>2026-05-03T12:09:01.573Z</time></trkpt><trkpt lat="39.3263862" lon="16.3621983"><ele>1106.0</ele><time>2026-05-03T12:09:02.582Z</time></trkpt><trkpt lat="39.3261623" lon="16.3622836"><ele>1106.0</ele><time>2026-05-03T12:09:03.567Z</time></trkpt><trkpt lat="39.3259424" lon="16.3623755"><ele>1106.0</ele><time>2026-05-03T12:09:04.586Z</time></trkpt><trkpt lat="39.3257222" lon="16.3624714"><ele>1098.0</ele><time>2026-05-03T12:09:05.583Z</time></trkpt><trkpt lat="39.3255052" lon="16.362563"><ele>1090.0</ele><time>2026-05-03T12:09:06.588Z</time></trkpt><trkpt lat="39.3252876" lon="16.3626539"><ele>1090.0</ele><time>2026-05-03T12:09:07.592Z</time></trkpt><trkpt lat="39.3250675" lon="16.3627407"><ele>1090.0</ele><time>2026-05-03T12:09:08.6Z</time></trkpt><trkpt lat="39.3248457" lon="16.3628275"><ele>1095.3333333333333</ele><time>2026-05-03T12:09:09.596Z</time></trkpt><trkpt lat="39.32463" lon="16.3629156"><ele>1100.6666666666667</ele><time>2026-05-03T12:09:10.595Z</time></trkpt><trkpt lat="39.32442" lon="16.3630053"><ele>1106.0</ele><time>2026-05-03T12:09:11.587Z</time></trkpt><trkpt lat="39.324212" lon="16.3630909"><ele>1113.6666666666667</ele><time>2026-05-03T12:09:12.599Z</time></trkpt><trkpt lat="39.3240116" lon="16.3631661"><ele>1121.3333333333333</ele><time>2026-05-03T12:09:13.59Z</time></trkpt><trkpt lat="39.32382" lon="16.3632644"><ele>1129.0</ele><time>2026-05-03T12:09:14.594Z</time></trkpt><trkpt lat="39.3236387" lon="16.3633709"><ele>1129.0</ele><time>2026-05-03T12:09:15.601Z</time></trkpt><trkpt lat="39.323466" lon="16.3635024"><ele>1129.0</ele><time>2026-05-03T12:09:16.589Z</time></trkpt><trkpt lat="39.3233067" lon="16.3636516"><ele>1129.0</ele><time>2026-05-03T12:09:17.597Z</time></trkpt><trkpt lat="39.3231522" lon="16.36383"><ele>1124.6666666666665</ele><time>2026-05-03T12:09:18.581Z</time></trkpt><trkpt lat="39.3230071" lon="16.3640281"><ele>1120.3333333333333</ele><time>2026-05-03T12:09:19.567Z</time></trkpt><trkpt lat="39.3228904" lon="16.3642602"><ele>1116.0</ele><time>2026-05-03T12:09:20.598Z</time></trkpt><trkpt lat="39.3227942" lon="16.3645084"><ele>1118.6666666666667</ele><time>2026-05-03T12:09:21.589Z</time></trkpt><trkpt lat="39.3227137" lon="16.3647654"><ele>1121.3333333333335</ele><time>2026-05-03T12:09:22.588Z</time></trkpt><trkpt lat="39.3226393" lon="16.3650362"><ele>1124.0</ele><time>2026-05-03T12:09:23.563Z</time></trkpt><trkpt lat="39.3225724" lon="16.3653128"><ele>1126.5</ele><time>2026-05-03T12:09:24.581Z</time></trkpt><trkpt lat="39.3224967" lon="16.365599"><ele>1129.0</ele><time>2026-05-03T12:09:25.583Z</time></trkpt><trkpt lat="39.3224175" lon="16.3658828"><ele>1129.0</ele><time>2026-05-03T12:09:26.563Z</time></trkpt><trkpt lat="39.3223373" lon="16.3661618"><ele>1129.0</ele><time>2026-05-03T12:09:27.587Z</time></trkpt><trkpt lat="39.3222655" lon="16.3664512"><ele>1112.0</ele><time>2026-05-03T12:09:28.584Z</time></trkpt><trkpt lat="39.3221992" lon="16.3667443"><ele>1095.0</ele><time>2026-05-03T12:09:29.59Z</time></trkpt><trkpt lat="39.3221262" lon="16.3670259"><ele>1096.3333333333333</ele><time>2026-05-03T12:09:30.61Z</time></trkpt><trkpt lat="39.3220504" lon="16.367291"><ele>1097.6666666666665</ele><time>2026-05-03T12:09:31.607Z</time></trkpt><trkpt lat="39.3219863" lon="16.3675505"><ele>1099.0</ele><time>2026-05-03T12:09:32.61Z</time></trkpt><trkpt lat="39.3219239" lon="16.3678051"><ele>1100.3333333333333</ele><time>2026-05-03T12:09:33.586Z</time></trkpt><trkpt lat="39.3218661" lon="16.3680449"><ele>1101.6666666666667</ele><time>2026-05-03T12:09:34.589Z</time></trkpt><trkpt lat="39.3217976" lon="16.3682848"><ele>1103.0</ele><time>2026-05-03T12:09:35.584Z</time></trkpt><trkpt lat="39.3217097" lon="16.3685196"><ele>1103.0</ele><time>2026-05-03T12:09:36.594Z</time></trkpt><trkpt lat="39.3215965" lon="16.3687312"><ele>1103.0</ele><time>2026-05-03T12:09:37.58Z</time></trkpt><trkpt lat="39.3214734" lon="16.3689246"><ele>1103.0</ele><time>2026-05-03T12:09:38.589Z</time></trkpt><trkpt lat="39.3213374" lon="16.369093"><ele>1096.6666666666667</ele><time>2026-05-03T12:09:39.576Z</time></trkpt><trkpt lat="39.3211994" lon="16.3692448"><ele>1090.3333333333333</ele><time>2026-05-03T12:09:40.591Z</time></trkpt><trkpt lat="39.3210493" lon="16.3693729"><ele>1084.0</ele><time>2026-05-03T12:09:41.576Z</time></trkpt><trkpt lat="39.3208892" lon="16.3694801"><ele>1084.0</ele><time>2026-05-03T12:09:42.606Z</time></trkpt><trkpt lat="39.3207162" lon="16.3695679"><ele>1084.0</ele><time>2026-05-03T12:09:43.584Z</time></trkpt><trkpt lat="39.3205349" lon="16.3696354"><ele>1084.0</ele><time>2026-05-03T12:09:44.594Z</time></trkpt><trkpt lat="39.3203489" lon="16.3696813"><ele>1077.0</ele><time>2026-05-03T12:09:45.584Z</time></trkpt><trkpt lat="39.320149" lon="16.3696965"><ele>1070.0</ele><time>2026-05-03T12:09:46.59Z</time></trkpt><trkpt lat="39.3199558" lon="16.3696852"><ele>1063.0</ele><time>2026-05-03T12:09:47.587Z</time></trkpt><trkpt lat="39.3197584" lon="16.3696417"><ele>1067.0</ele><time>2026-05-03T12:09:48.598Z</time></trkpt><trkpt lat="39.3195691" lon="16.3695733"><ele>1071.0</ele><time>2026-05-03T12:09:49.594Z</time></trkpt><trkpt lat="39.3193861" lon="16.3694744"><ele>1075.0</ele><time>2026-05-03T12:09:50.589Z</time></trkpt><trkpt lat="39.3192183" lon="16.3693531"><ele>1075.0</ele><time>2026-05-03T12:09:51.606Z</time></trkpt><trkpt lat="39.3190534" lon="16.3692033"><ele>1075.0</ele><time>2026-05-03T12:09:52.605Z</time></trkpt><trkpt lat="39.3189001" lon="16.3690343"><ele>1075.0</ele><time>2026-05-03T12:09:53.592Z</time></trkpt><trkpt lat="39.3187644" lon="16.3688412"><ele>1085.0</ele><time>2026-05-03T12:09:54.588Z</time></trkpt><trkpt lat="39.3186461" lon="16.3686206"><ele>1095.0</ele><time>2026-05-03T12:09:55.587Z</time></trkpt><trkpt lat="39.3185434" lon="16.3683838"><ele>1105.0</ele><time>2026-05-03T12:09:56.588Z</time></trkpt><trkpt lat="39.3184589" lon="16.3681223"><ele>1097.6666666666665</ele><time>2026-05-03T12:09:57.589Z</time></trkpt><trkpt lat="39.3183957" lon="16.3678517"><ele>1090.3333333333333</ele><time>2026-05-03T12:09:58.593Z</time></trkpt><trkpt lat="39.3183447" lon="16.3675757"><ele>1083.0</ele><time>2026-05-03T12:09:59.571Z</time></trkpt><trkpt lat="39.3182955" lon="16.3672914"><ele>1075.0</ele><time>2026-05-03T12:10:00.579Z</time></trkpt><trkpt lat="39.3182385" lon="16.3670047"><ele>1067.0</ele><time>2026-05-03T12:10:01.587Z</time></trkpt><trkpt lat="39.318176" lon="16.3667135"><ele>1067.0</ele><time>2026-05-03T12:10:02.602Z</time></trkpt><trkpt lat="39.3181095" lon="16.3664201"><ele>1067.0</ele><time>2026-05-03T12:10:03.579Z</time></trkpt><trkpt lat="39.3180488" lon="16.366118"><ele>1084.0</ele><time>2026-05-03T12:10:04.603Z</time></trkpt><trkpt lat="39.3179929" lon="16.3658166"><ele>1101.0</ele><time>2026-05-03T12:10:05.585Z</time></trkpt><trkpt lat="39.3179385" lon="16.365514"><ele>1101.0</ele><time>2026-05-03T12:10:06.594Z</time></trkpt><trkpt lat="39.3178805" lon="16.3652132"><ele>1101.0</ele><time>2026-05-03T12:10:07.604Z</time></trkpt><trkpt lat="39.3178138" lon="16.3649122"><ele>1093.5</ele><time>2026-05-03T12:10:08.59Z</time></trkpt><trkpt lat="39.3177381" lon="16.3646129"><ele>1086.0</ele><time>2026-05-03T12:10:09.584Z</time></trkpt><trkpt lat="39.3176549" lon="16.364314"><ele>1086.0</ele><time>2026-05-03T12:10:10.619Z</time></trkpt><trkpt lat="39.3175657" lon="16.3640212"><ele>1086.0</ele><time>2026-05-03T12:10:11.58Z</time></trkpt><trkpt lat="39.3174751" lon="16.3637405"><ele>1078.0</ele><time>2026-05-03T12:10:12.596Z</time></trkpt><trkpt lat="39.3173897" lon="16.363468"><ele>1070.0</ele><time>2026-05-03T12:10:13.59Z</time></trkpt><trkpt lat="39.3173101" lon="16.3632059"><ele>1062.0</ele><time>2026-05-03T12:10:14.59Z</time></trkpt><trkpt lat="39.3172359" lon="16.3629538"><ele>1067.0</ele><time>2026-05-03T12:10:15.587Z</time></trkpt><trkpt lat="39.3171704" lon="16.3627022"><ele>1072.0</ele><time>2026-05-03T12:10:16.595Z</time></trkpt><trkpt lat="39.3171307" lon="16.3624475"><ele>1077.0</ele><time>2026-05-03T12:10:17.597Z</time></trkpt><trkpt lat="39.3171098" lon="16.3621872"><ele>1077.6666666666667</ele><time>2026-05-03T12:10:18.592Z</time></trkpt><trkpt lat="39.3171075" lon="16.3619137"><ele>1078.3333333333335</ele><time>2026-05-03T12:10:19.579Z</time></trkpt><trkpt lat="39.317132" lon="16.3616396"><ele>1079.0</ele><time>2026-05-03T12:10:20.588Z</time></trkpt><trkpt lat="39.3171783" lon="16.3613662"><ele>1068.6666666666667</ele><time>2026-05-03T12:10:21.589Z</time></trkpt><trkpt lat="39.317246" lon="16.3610923"><ele>1058.3333333333333</ele><time>2026-05-03T12:10:22.596Z</time></trkpt><trkpt lat="39.3173284" lon="16.3608293"><ele>1048.0</ele><time>2026-05-03T12:10:23.58Z</time></trkpt><trkpt lat="39.317411" lon="16.3605679"><ele>1050.6666666666665</ele><time>2026-05-03T12:10:24.594Z</time></trkpt><trkpt lat="39.3174828" lon="16.3602986"><ele>1053.3333333333333</ele><time>2026-05-03T12:10:25.6Z</time></trkpt><trkpt lat="39.3175615" lon="16.3600293"><ele>1056.0</ele><time>2026-05-03T12:10:26.582Z</time></trkpt><trkpt lat="39.31764" lon="16.3597659"><ele>1057.0</ele><time>2026-05-03T12:10:27.582Z</time></trkpt><trkpt lat="39.3177019" lon="16.3595126"><ele>1058.0</ele><time>2026-05-03T12:10:28.592Z</time></trkpt><trkpt lat="39.3177424" lon="16.3592493"><ele>1059.0</ele><time>2026-05-03T12:10:29.596Z</time></trkpt><trkpt lat="39.3177602" lon="16.3589763"><ele>1057.0</ele><time>2026-05-03T12:10:30.58Z</time></trkpt><trkpt lat="39.3177552" lon="16.3587021"><ele>1055.0</ele><time>2026-05-03T12:10:31.59Z</time></trkpt><trkpt lat="39.3177272" lon="16.3584334"><ele>1053.0</ele><time>2026-05-03T12:10:32.599Z</time></trkpt><trkpt lat="39.3176722" lon="16.3581727"><ele>1048.6666666666667</ele><time>2026-05-03T12:10:33.598Z</time></trkpt><trkpt lat="39.3175943" lon="16.357916"><ele>1044.3333333333335</ele><time>2026-05-03T12:10:34.587Z</time></trkpt><trkpt lat="39.3174902" lon="16.3576698"><ele>1040.0</ele><time>2026-05-03T12:10:35.607Z</time></trkpt><trkpt lat="39.3173612" lon="16.3574472"><ele>1037.0</ele><time>2026-05-03T12:10:36.583Z</time></trkpt><trkpt lat="39.3172099" lon="16.3572422"><ele>1034.0</ele><time>2026-05-03T12:10:37.592Z</time></trkpt><trkpt lat="39.3170469" lon="16.3570593"><ele>1031.0</ele><time>2026-05-03T12:10:38.595Z</time></trkpt><trkpt lat="39.3168711" lon="16.3569031"><ele>1031.0</ele><time>2026-05-03T12:10:39.586Z</time></trkpt><trkpt lat="39.3166764" lon="16.356775"><ele>1031.0</ele><time>2026-05-03T12:10:40.589Z</time></trkpt><trkpt lat="39.3164714" lon="16.3566733"><ele>1031.0</ele><time>2026-05-03T12:10:41.57Z</time></trkpt><trkpt lat="39.3162532" lon="16.3565974"><ele>1032.5</ele><time>2026-05-03T12:10:42.585Z</time></trkpt><trkpt lat="39.3160369" lon="16.3565296"><ele>1034.0</ele><time>2026-05-03T12:10:43.571Z</time></trkpt><trkpt lat="39.3158143" lon="16.3564588"><ele>1034.0</ele><time>2026-05-03T12:10:44.602Z</time></trkpt><trkpt lat="39.3155967" lon="16.3563929"><ele>1034.0</ele><time>2026-05-03T12:10:45.582Z</time></trkpt><trkpt lat="39.3153868" lon="16.3563189"><ele>1034.0</ele><time>2026-05-03T12:10:46.601Z</time></trkpt><trkpt lat="39.315185" lon="16.356247"><ele>1021.3333333333334</ele><time>2026-05-03T12:10:47.589Z</time></trkpt><trkpt lat="39.3149792" lon="16.3561809"><ele>1008.6666666666667</ele><time>2026-05-03T12:10:48.58Z</time></trkpt><trkpt lat="39.3147754" lon="16.3561169"><ele>996.0</ele><time>2026-05-03T12:10:49.598Z</time></trkpt><trkpt lat="39.314571" lon="16.3560568"><ele>992.6666666666667</ele><time>2026-05-03T12:10:50.595Z</time></trkpt><trkpt lat="39.3143625" lon="16.3559939"><ele>989.3333333333334</ele><time>2026-05-03T12:10:51.592Z</time></trkpt><trkpt lat="39.3141522" lon="16.3559244"><ele>986.0</ele><time>2026-05-03T12:10:52.609Z</time></trkpt><trkpt lat="39.3139433" lon="16.355846"><ele>988.6666666666667</ele><time>2026-05-03T12:10:53.605Z</time></trkpt><trkpt lat="39.313732" lon="16.3557516"><ele>991.3333333333333</ele><time>2026-05-03T12:10:54.6Z</time></trkpt><trkpt lat="39.3135234" lon="16.3556444"><ele>994.0</ele><time>2026-05-03T12:10:55.598Z</time></trkpt><trkpt lat="39.3133126" lon="16.3555352"><ele>994.0</ele><time>2026-05-03T12:10:56.59Z</time></trkpt><trkpt lat="39.3131011" lon="16.3554253"><ele>994.0</ele><time>2026-05-03T12:10:57.584Z</time></trkpt><trkpt lat="39.3128881" lon="16.3553199"><ele>1006.5</ele><time>2026-05-03T12:10:58.594Z</time></trkpt><trkpt lat="39.312675" lon="16.3552135"><ele>1019.0</ele><time>2026-05-03T12:10:59.571Z</time></trkpt><trkpt lat="39.3124685" lon="16.3550974"><ele>993.0</ele><time>2026-05-03T12:11:00.577Z</time></trkpt><trkpt lat="39.3111372" lon="16.3544994"><ele>993.0</ele><time>2026-05-03T12:11:06.553Z</time></trkpt><trkpt lat="39.3109008" lon="16.3543736"><ele>993.0</ele><time>2026-05-03T12:11:07.569Z</time></trkpt><trkpt lat="39.3106821" lon="16.3542523"><ele>996.5</ele><time>2026-05-03T12:11:08.582Z</time></trkpt><trkpt lat="39.3104607" lon="16.3541442"><ele>1000.0</ele><time>2026-05-03T12:11:09.581Z</time></trkpt><trkpt lat="39.3102288" lon="16.3540374"><ele>1000.0</ele><time>2026-05-03T12:11:10.575Z</time></trkpt><trkpt lat="39.3099991" lon="16.3539419"><ele>1000.0</ele><time>2026-05-03T12:11:11.588Z</time></trkpt><trkpt lat="39.3097679" lon="16.35387"><ele>996.0</ele><time>2026-05-03T12:11:12.593Z</time></trkpt><trkpt lat="39.3095334" lon="16.3538135"><ele>992.0</ele><time>2026-05-03T12:11:13.578Z</time></trkpt><trkpt lat="39.3093055" lon="16.353781"><ele>992.0</ele><time>2026-05-03T12:11:14.585Z</time></trkpt><trkpt lat="39.3090763" lon="16.3537828"><ele>992.0</ele><time>2026-05-03T12:11:15.603Z</time></trkpt><trkpt lat="39.3088567" lon="16.3537998"><ele>992.0</ele><time>2026-05-03T12:11:16.577Z</time></trkpt><trkpt lat="39.3045657" lon="16.3541417"><ele>985.3333333333334</ele><time>2026-05-03T12:11:35.564Z</time></trkpt><trkpt lat="39.3043598" lon="16.3541716"><ele>978.6666666666667</ele><time>2026-05-03T12:11:36.564Z</time></trkpt><trkpt lat="39.3041364" lon="16.3542069"><ele>972.0</ele><time>2026-05-03T12:11:37.573Z</time></trkpt><trkpt lat="39.3039265" lon="16.354228"><ele>972.0</ele><time>2026-05-03T12:11:38.56Z</time></trkpt><trkpt lat="39.3037126" lon="16.3542563"><ele>972.0</ele><time>2026-05-03T12:11:39.575Z</time></trkpt><trkpt lat="39.3035057" lon="16.354317"><ele>972.0</ele><time>2026-05-03T12:11:40.576Z</time></trkpt><trkpt lat="39.3033126" lon="16.3544163"><ele>972.0</ele><time>2026-05-03T12:11:41.571Z</time></trkpt><trkpt lat="39.3031335" lon="16.3545363"><ele>972.0</ele><time>2026-05-03T12:11:42.566Z</time></trkpt><trkpt lat="39.302964" lon="16.354681"><ele>972.0</ele><time>2026-05-03T12:11:43.584Z</time></trkpt><trkpt lat="39.3028077" lon="16.3548227"><ele>967.6666666666667</ele><time>2026-05-03T12:11:44.59Z</time></trkpt><trkpt lat="39.3026578" lon="16.3549607"><ele>963.3333333333334</ele><time>2026-05-03T12:11:45.574Z</time></trkpt><trkpt lat="39.3025093" lon="16.3550974"><ele>959.0</ele><time>2026-05-03T12:11:46.582Z</time></trkpt><trkpt lat="39.3023608" lon="16.3552202"><ele>966.3333333333334</ele><time>2026-05-03T12:11:47.571Z</time></trkpt><trkpt lat="39.3022054" lon="16.3553289"><ele>973.6666666666667</ele><time>2026-05-03T12:11:48.579Z</time></trkpt><trkpt lat="39.3020407" lon="16.3554215"><ele>981.0</ele><time>2026-05-03T12:11:49.586Z</time></trkpt><trkpt lat="39.3018679" lon="16.3555123"><ele>970.6666666666667</ele><time>2026-05-03T12:11:50.586Z</time></trkpt><trkpt lat="39.301689" lon="16.3556005"><ele>960.3333333333334</ele><time>2026-05-03T12:11:51.585Z</time></trkpt><trkpt lat="39.3015071" lon="16.3556818"><ele>950.0</ele><time>2026-05-03T12:11:52.598Z</time></trkpt><trkpt lat="39.3013158" lon="16.3557478"><ele>950.0</ele><time>2026-05-03T12:11:53.584Z</time></trkpt><trkpt lat="39.3011164" lon="16.3557966"><ele>950.0</ele><time>2026-05-03T12:11:54.575Z</time></trkpt><trkpt lat="39.300914" lon="16.3558345"><ele>950.0</ele><time>2026-05-03T12:11:55.588Z</time></trkpt><trkpt lat="39.300714" lon="16.3558602"><ele>949.3333333333334</ele><time>2026-05-03T12:11:56.587Z</time></trkpt><trkpt lat="39.3005171" lon="16.3558759"><ele>948.6666666666667</ele><time>2026-05-03T12:11:57.58Z</time></trkpt><trkpt lat="39.3003383" lon="16.3558869"><ele>948.0</ele><time>2026-05-03T12:11:58.583Z</time></trkpt><trkpt lat="39.3001778" lon="16.3558939"><ele>948.0</ele><time>2026-05-03T12:11:59.591Z</time></trkpt><trkpt lat="39.3000269" lon="16.3558978"><ele>948.0</ele><time>2026-05-03T12:12:00.581Z</time></trkpt><trkpt lat="39.299881" lon="16.3559078"><ele>948.0</ele><time>2026-05-03T12:12:01.589Z</time></trkpt><trkpt lat="39.2997365" lon="16.3559125"><ele>948.0</ele><time>2026-05-03T12:12:02.579Z</time></trkpt><trkpt lat="39.2995973" lon="16.3559154"><ele>944.25</ele><time>2026-05-03T12:12:03.578Z</time></trkpt><trkpt lat="39.2994612" lon="16.3559019"><ele>940.5</ele><time>2026-05-03T12:12:04.581Z</time></trkpt><trkpt lat="39.2993288" lon="16.3558744"><ele>936.75</ele><time>2026-05-03T12:12:05.575Z</time></trkpt><trkpt lat="39.299199" lon="16.355839"><ele>933.0</ele><time>2026-05-03T12:12:06.582Z</time></trkpt><trkpt lat="39.2990745" lon="16.3557963"><ele>933.0</ele><time>2026-05-03T12:12:07.577Z</time></trkpt><trkpt lat="39.2989501" lon="16.3557381"><ele>933.0</ele><time>2026-05-03T12:12:08.584Z</time></trkpt><trkpt lat="39.2988191" lon="16.3556767"><ele>933.0</ele><time>2026-05-03T12:12:09.589Z</time></trkpt><trkpt lat="39.2986832" lon="16.3556084"><ele>933.0</ele><time>2026-05-03T12:12:10.601Z</time></trkpt><trkpt lat="39.2985419" lon="16.355537"><ele>935.0</ele><time>2026-05-03T12:12:11.607Z</time></trkpt><trkpt lat="39.2984022" lon="16.3554575"><ele>937.0</ele><time>2026-05-03T12:12:12.603Z</time></trkpt><trkpt lat="39.2982526" lon="16.3553707"><ele>939.0</ele><time>2026-05-03T12:12:13.588Z</time></trkpt><trkpt lat="39.2980944" lon="16.355281"><ele>932.6666666666667</ele><time>2026-05-03T12:12:14.574Z</time></trkpt><trkpt lat="39.297935" lon="16.3551921"><ele>926.3333333333334</ele><time>2026-05-03T12:12:15.583Z</time></trkpt><trkpt lat="39.2977736" lon="16.355098"><ele>920.0</ele><time>2026-05-03T12:12:16.603Z</time></trkpt><trkpt lat="39.29761" lon="16.355006"><ele>920.0</ele><time>2026-05-03T12:12:17.59Z</time></trkpt><trkpt lat="39.2974409" lon="16.3549222"><ele>920.0</ele><time>2026-05-03T12:12:18.593Z</time></trkpt><trkpt lat="39.2972645" lon="16.3548628"><ele>920.0</ele><time>2026-05-03T12:12:19.59Z</time></trkpt><trkpt lat="39.297075" lon="16.3548203"><ele>916.3333333333334</ele><time>2026-05-03T12:12:20.593Z</time></trkpt><trkpt lat="39.2968826" lon="16.3547991"><ele>912.6666666666667</ele><time>2026-05-03T12:12:21.572Z</time></trkpt><trkpt lat="39.2966803" lon="16.3548051"><ele>909.0</ele><time>2026-05-03T12:12:22.605Z</time></trkpt><trkpt lat="39.2964784" lon="16.3548133"><ele>907.6666666666667</ele><time>2026-05-03T12:12:23.593Z</time></trkpt><trkpt lat="39.2962742" lon="16.3548198"><ele>906.3333333333334</ele><time>2026-05-03T12:12:24.597Z</time></trkpt><trkpt lat="39.2960654" lon="16.354823"><ele>905.0</ele><time>2026-05-03T12:12:25.586Z</time></trkpt><trkpt lat="39.2958666" lon="16.3548194"><ele>905.0</ele><time>2026-05-03T12:12:26.599Z</time></trkpt><trkpt lat="39.2956702" lon="16.3548013"><ele>905.0</ele><time>2026-05-03T12:12:27.599Z</time></trkpt><trkpt lat="39.2954856" lon="16.354759"><ele>905.0</ele><time>2026-05-03T12:12:28.587Z</time></trkpt><trkpt lat="39.2953041" lon="16.3546864"><ele>907.0</ele><time>2026-05-03T12:12:29.586Z</time></trkpt><trkpt lat="39.2951304" lon="16.3545964"><ele>909.0</ele><time>2026-05-03T12:12:30.584Z</time></trkpt><trkpt lat="39.2949742" lon="16.3544992"><ele>911.0</ele><time>2026-05-03T12:12:31.591Z</time></trkpt><trkpt lat="39.2948434" lon="16.3543803"><ele>901.6666666666667</ele><time>2026-05-03T12:12:32.593Z</time></trkpt><trkpt lat="39.2947279" lon="16.3542293"><ele>892.3333333333333</ele><time>2026-05-03T12:12:33.585Z</time></trkpt><trkpt lat="39.2946266" lon="16.3540516"><ele>883.0</ele><time>2026-05-03T12:12:34.596Z</time></trkpt><trkpt lat="39.2945284" lon="16.3538659"><ele>883.0</ele><time>2026-05-03T12:12:35.589Z</time></trkpt><trkpt lat="39.2944314" lon="16.3536648"><ele>883.0</ele><time>2026-05-03T12:12:36.587Z</time></trkpt><trkpt lat="39.2943497" lon="16.3534546"><ele>883.0</ele><time>2026-05-03T12:12:37.589Z</time></trkpt><trkpt lat="39.294282" lon="16.3532355"><ele>887.0</ele><time>2026-05-03T12:12:38.593Z</time></trkpt><trkpt lat="39.2942105" lon="16.3530064"><ele>891.0</ele><time>2026-05-03T12:12:39.584Z</time></trkpt><trkpt lat="39.294135" lon="16.3527739"><ele>895.0</ele><time>2026-05-03T12:12:40.604Z</time></trkpt><trkpt lat="39.2940568" lon="16.3525378"><ele>895.0</ele><time>2026-05-03T12:12:41.591Z</time></trkpt><trkpt lat="39.2939835" lon="16.3522999"><ele>895.0</ele><time>2026-05-03T12:12:42.587Z</time></trkpt><trkpt lat="39.2938995" lon="16.3520635"><ele>895.0</ele><time>2026-05-03T12:12:43.591Z</time></trkpt><trkpt lat="39.2937973" lon="16.3518471"><ele>892.3333333333333</ele><time>2026-05-03T12:12:44.59Z</time></trkpt><trkpt lat="39.2936826" lon="16.3516529"><ele>889.6666666666667</ele><time>2026-05-03T12:12:45.588Z</time></trkpt><trkpt lat="39.2935535" lon="16.3514858"><ele>887.0</ele><time>2026-05-03T12:12:46.6Z</time></trkpt><trkpt lat="39.293405" lon="16.3513311"><ele>884.6666666666667</ele><time>2026-05-03T12:12:47.58Z</time></trkpt><trkpt lat="39.2932483" lon="16.3511921"><ele>882.3333333333333</ele><time>2026-05-03T12:12:48.605Z</time></trkpt><trkpt lat="39.2930823" lon="16.3510634"><ele>880.0</ele><time>2026-05-03T12:12:49.594Z</time></trkpt><trkpt lat="39.292912" lon="16.3509384"><ele>880.0</ele><time>2026-05-03T12:12:50.595Z</time></trkpt><trkpt lat="39.2927385" lon="16.3508104"><ele>880.0</ele><time>2026-05-03T12:12:51.595Z</time></trkpt><trkpt lat="39.292557" lon="16.3506814"><ele>880.0</ele><time>2026-05-03T12:12:52.59Z</time></trkpt><trkpt lat="39.2923746" lon="16.3505511"><ele>873.3333333333333</ele><time>2026-05-03T12:12:53.594Z</time></trkpt><trkpt lat="39.2921873" lon="16.3504205"><ele>866.6666666666667</ele><time>2026-05-03T12:12:54.601Z</time></trkpt><trkpt lat="39.2919983" lon="16.3502815"><ele>860.0</ele><time>2026-05-03T12:12:55.592Z</time></trkpt><trkpt lat="39.2918035" lon="16.3501368"><ele>860.0</ele><time>2026-05-03T12:12:56.604Z</time></trkpt><trkpt lat="39.291607" lon="16.3499935"><ele>860.0</ele><time>2026-05-03T12:12:57.59Z</time></trkpt><trkpt lat="39.2914028" lon="16.3498514"><ele>856.5</ele><time>2026-05-03T12:12:58.592Z</time></trkpt><trkpt lat="39.2912039" lon="16.3496989"><ele>853.0</ele><time>2026-05-03T12:12:59.598Z</time></trkpt><trkpt lat="39.2910027" lon="16.3495517"><ele>853.0</ele><time>2026-05-03T12:13:00.595Z</time></trkpt><trkpt lat="39.2908062" lon="16.34941"><ele>853.0</ele><time>2026-05-03T12:13:01.591Z</time></trkpt><trkpt lat="39.2906225" lon="16.3492786"><ele>853.0</ele><time>2026-05-03T12:13:02.587Z</time></trkpt><trkpt lat="39.2904455" lon="16.3491459"><ele>850.3333333333333</ele><time>2026-05-03T12:13:03.595Z</time></trkpt><trkpt lat="39.2902764" lon="16.3490137"><ele>847.6666666666667</ele><time>2026-05-03T12:13:04.601Z</time></trkpt><trkpt lat="39.2901104" lon="16.3488793"><ele>845.0</ele><time>2026-05-03T12:13:05.587Z</time></trkpt><trkpt lat="39.2899583" lon="16.3487269"><ele>846.6666666666667</ele><time>2026-05-03T12:13:06.597Z</time></trkpt><trkpt lat="39.2898256" lon="16.3485538"><ele>848.3333333333333</ele><time>2026-05-03T12:13:07.592Z</time></trkpt><trkpt lat="39.2897097" lon="16.3483655"><ele>850.0</ele><time>2026-05-03T12:13:08.595Z</time></trkpt><trkpt lat="39.2896207" lon="16.3481539"><ele>852.3333333333333</ele><time>2026-05-03T12:13:09.59Z</time></trkpt><trkpt lat="39.2895503" lon="16.347926"><ele>854.6666666666667</ele><time>2026-05-03T12:13:10.598Z</time></trkpt><trkpt lat="39.289505" lon="16.3476883"><ele>857.0</ele><time>2026-05-03T12:13:11.6Z</time></trkpt><trkpt lat="39.2894777" lon="16.3474516"><ele>857.0</ele><time>2026-05-03T12:13:12.601Z</time></trkpt><trkpt lat="39.2894716" lon="16.3472139"><ele>857.0</ele><time>2026-05-03T12:13:13.591Z</time></trkpt><trkpt lat="39.2894941" lon="16.3469858"><ele>857.0</ele><time>2026-05-03T12:13:14.599Z</time></trkpt><trkpt lat="39.289541" lon="16.3467613"><ele>852.3333333333334</ele><time>2026-05-03T12:13:15.591Z</time></trkpt><trkpt lat="39.2896118" lon="16.3465515"><ele>847.6666666666667</ele><time>2026-05-03T12:13:16.597Z</time></trkpt><trkpt lat="39.2897025" lon="16.3463524"><ele>843.0</ele><time>2026-05-03T12:13:17.596Z</time></trkpt><trkpt lat="39.2898164" lon="16.3461646"><ele>840.3333333333333</ele><time>2026-05-03T12:13:18.594Z</time></trkpt><trkpt lat="39.2899475" lon="16.3459965"><ele>837.6666666666666</ele><time>2026-05-03T12:13:19.591Z</time></trkpt><trkpt lat="39.2900888" lon="16.3458469"><ele>835.0</ele><time>2026-05-03T12:13:20.628Z</time></trkpt><trkpt lat="39.2902525" lon="16.3457263"><ele>835.0</ele><time>2026-05-03T12:13:21.595Z</time></trkpt><trkpt lat="39.2904261" lon="16.3456263"><ele>835.0</ele><time>2026-05-03T12:13:22.6Z</time></trkpt><trkpt lat="39.2906144" lon="16.3455465"><ele>835.0</ele><time>2026-05-03T12:13:23.604Z</time></trkpt><trkpt lat="39.290824" lon="16.3454948"><ele>833.3333333333333</ele><time>2026-05-03T12:13:24.594Z</time></trkpt><trkpt lat="39.2910436" lon="16.3454618"><ele>831.6666666666667</ele><time>2026-05-03T12:13:25.605Z</time></trkpt><trkpt lat="39.2912674" lon="16.3454272"><ele>830.0</ele><time>2026-05-03T12:13:26.591Z</time></trkpt><trkpt lat="39.291497" lon="16.3453908"><ele>830.0</ele><time>2026-05-03T12:13:27.595Z</time></trkpt><trkpt lat="39.2917295" lon="16.345359"><ele>830.0</ele><time>2026-05-03T12:13:28.594Z</time></trkpt><trkpt lat="39.2919607" lon="16.3453243"><ele>830.0</ele><time>2026-05-03T12:13:29.59Z</time></trkpt><trkpt lat="39.2921902" lon="16.3452846"><ele>830.0</ele><time>2026-05-03T12:13:30.577Z</time></trkpt><trkpt lat="39.2924147" lon="16.3452484"><ele>830.0</ele><time>2026-05-03T12:13:31.589Z</time></trkpt><trkpt lat="39.2933034" lon="16.3450931"><ele>830.0</ele><time>2026-05-03T12:13:35.589Z</time></trkpt><trkpt lat="39.2935264" lon="16.3450594"><ele>830.0</ele><time>2026-05-03T12:13:36.593Z</time></trkpt><trkpt lat="39.2937581" lon="16.345019"><ele>830.5</ele><time>2026-05-03T12:13:37.594Z</time></trkpt><trkpt lat="39.2939933" lon="16.3449872"><ele>831.0</ele><time>2026-05-03T12:13:38.591Z</time></trkpt><trkpt lat="39.2942246" lon="16.3449579"><ele>831.0</ele><time>2026-05-03T12:13:39.595Z</time></trkpt><trkpt lat="39.294448" lon="16.3449262"><ele>831.0</ele><time>2026-05-03T12:13:40.592Z</time></trkpt><trkpt lat="39.2946648" lon="16.3448893"><ele>831.0</ele><time>2026-05-03T12:13:41.586Z</time></trkpt><trkpt lat="39.2948841" lon="16.3448591"><ele>833.3333333333333</ele><time>2026-05-03T12:13:42.616Z</time></trkpt><trkpt lat="39.2951012" lon="16.344825"><ele>835.6666666666666</ele><time>2026-05-03T12:13:43.587Z</time></trkpt><trkpt lat="39.2953174" lon="16.3447942"><ele>838.0</ele><time>2026-05-03T12:13:44.59Z</time></trkpt><trkpt lat="39.2955318" lon="16.3447621"><ele>838.0</ele><time>2026-05-03T12:13:45.582Z</time></trkpt><trkpt lat="39.2957475" lon="16.3447223"><ele>838.0</ele><time>2026-05-03T12:13:46.585Z</time></trkpt><trkpt lat="39.2959618" lon="16.3446855"><ele>838.0</ele><time>2026-05-03T12:13:47.586Z</time></trkpt><trkpt lat="39.2961676" lon="16.3446553"><ele>830.0</ele><time>2026-05-03T12:13:48.597Z</time></trkpt><trkpt lat="39.2963549" lon="16.3446163"><ele>822.0</ele><time>2026-05-03T12:13:49.58Z</time></trkpt><trkpt lat="39.2965206" lon="16.3445529"><ele>814.0</ele><time>2026-05-03T12:13:50.588Z</time></trkpt><trkpt lat="39.296669" lon="16.3444498"><ele>814.0</ele><time>2026-05-03T12:13:51.59Z</time></trkpt><trkpt lat="39.2968087" lon="16.3443218"><ele>814.0</ele><time>2026-05-03T12:13:52.591Z</time></trkpt><trkpt lat="39.2969319" lon="16.3441654"><ele>814.0</ele><time>2026-05-03T12:13:53.587Z</time></trkpt><trkpt lat="39.2970335" lon="16.3439769"><ele>811.0</ele><time>2026-05-03T12:13:54.579Z</time></trkpt><trkpt lat="39.2971238" lon="16.3437727"><ele>808.0</ele><time>2026-05-03T12:13:55.595Z</time></trkpt><trkpt lat="39.2972094" lon="16.3435783"><ele>805.0</ele><time>2026-05-03T12:13:56.592Z</time></trkpt><trkpt lat="39.2972951" lon="16.3433988"><ele>805.6666666666666</ele><time>2026-05-03T12:13:57.588Z</time></trkpt><trkpt lat="39.2973898" lon="16.3432369"><ele>806.3333333333333</ele><time>2026-05-03T12:13:58.588Z</time></trkpt><trkpt lat="39.2975011" lon="16.3430968"><ele>807.0</ele><time>2026-05-03T12:13:59.594Z</time></trkpt><trkpt lat="39.297623" lon="16.3429688"><ele>807.0</ele><time>2026-05-03T12:14:00.588Z</time></trkpt><trkpt lat="39.2977553" lon="16.342862"><ele>807.0</ele><time>2026-05-03T12:14:01.583Z</time></trkpt><trkpt lat="39.2978933" lon="16.342767"><ele>807.0</ele><time>2026-05-03T12:14:02.609Z</time></trkpt><trkpt lat="39.2980263" lon="16.3426645"><ele>810.25</ele><time>2026-05-03T12:14:03.575Z</time></trkpt><trkpt lat="39.2981549" lon="16.3425488"><ele>813.5</ele><time>2026-05-03T12:14:04.591Z</time></trkpt><trkpt lat="39.2982708" lon="16.3424233"><ele>816.75</ele><time>2026-05-03T12:14:05.608Z</time></trkpt><trkpt lat="39.2983704" lon="16.342313"><ele>820.0</ele><time>2026-05-03T12:14:06.584Z</time></trkpt><trkpt lat="39.2984611" lon="16.3422168"><ele>816.0</ele><time>2026-05-03T12:14:07.59Z</time></trkpt><trkpt lat="39.2985487" lon="16.3421553"><ele>812.0</ele><time>2026-05-03T12:14:08.576Z</time></trkpt><trkpt lat="39.2986432" lon="16.3421229"><ele>808.0</ele><time>2026-05-03T12:14:09.593Z</time></trkpt><trkpt lat="39.2987368" lon="16.3421226"><ele>804.0</ele><time>2026-05-03T12:14:10.606Z</time></trkpt><trkpt lat="39.2988487" lon="16.3421464"><ele>800.0</ele><time>2026-05-03T12:14:11.589Z</time></trkpt><trkpt lat="39.2989655" lon="16.3421812"><ele>800.0</ele><time>2026-05-03T12:14:12.606Z</time></trkpt><trkpt lat="39.299096" lon="16.3422119"><ele>800.0</ele><time>2026-05-03T12:14:13.593Z</time></trkpt><trkpt lat="39.2992282" lon="16.3422319"><ele>800.0</ele><time>2026-05-03T12:14:14.592Z</time></trkpt><trkpt lat="39.2993701" lon="16.342238"><ele>800.0</ele><time>2026-05-03T12:14:15.588Z</time></trkpt><trkpt lat="39.299506" lon="16.3422092"><ele>800.0</ele><time>2026-05-03T12:14:16.587Z</time></trkpt><trkpt lat="39.2996459" lon="16.3421644"><ele>800.0</ele><time>2026-05-03T12:14:17.591Z</time></trkpt><trkpt lat="39.2997798" lon="16.3420783"><ele>800.0</ele><time>2026-05-03T12:14:18.59Z</time></trkpt><trkpt lat="39.2998976" lon="16.3419542"><ele>800.0</ele><time>2026-05-03T12:14:19.591Z</time></trkpt><trkpt lat="39.3000001" lon="16.3418229"><ele>802.0</ele><time>2026-05-03T12:14:20.589Z</time></trkpt><trkpt lat="39.3000976" lon="16.3416757"><ele>804.0</ele><time>2026-05-03T12:14:21.591Z</time></trkpt><trkpt lat="39.30019" lon="16.341535"><ele>806.0</ele><time>2026-05-03T12:14:22.589Z</time></trkpt><trkpt lat="39.3002784" lon="16.3414014"><ele>808.0</ele><time>2026-05-03T12:14:23.591Z</time></trkpt><trkpt lat="39.3003593" lon="16.3412764"><ele>808.0</ele><time>2026-05-03T12:14:24.59Z</time></trkpt><trkpt lat="39.3004446" lon="16.3411557"><ele>808.0</ele><time>2026-05-03T12:14:25.588Z</time></trkpt><trkpt lat="39.3005292" lon="16.3410413"><ele>808.0</ele><time>2026-05-03T12:14:26.602Z</time></trkpt><trkpt lat="39.3006231" lon="16.3409362"><ele>808.0</ele><time>2026-05-03T12:14:27.593Z</time></trkpt><trkpt lat="39.3007216" lon="16.3408509"><ele>809.75</ele><time>2026-05-03T12:14:28.592Z</time></trkpt><trkpt lat="39.3008266" lon="16.3407806"><ele>811.5</ele><time>2026-05-03T12:14:29.582Z</time></trkpt><trkpt lat="39.3009463" lon="16.3407333"><ele>813.25</ele><time>2026-05-03T12:14:30.61Z</time></trkpt><trkpt lat="39.301074" lon="16.3406989"><ele>815.0</ele><time>2026-05-03T12:14:31.585Z</time></trkpt><trkpt lat="39.3012048" lon="16.3406676"><ele>815.0</ele><time>2026-05-03T12:14:32.6Z</time></trkpt><trkpt lat="39.3013433" lon="16.340637"><ele>815.0</ele><time>2026-05-03T12:14:33.581Z</time></trkpt><trkpt lat="39.3014815" lon="16.3406066"><ele>815.0</ele><time>2026-05-03T12:14:34.595Z</time></trkpt><trkpt lat="39.3016254" lon="16.3405757"><ele>815.0</ele><time>2026-05-03T12:14:35.587Z</time></trkpt><trkpt lat="39.3017805" lon="16.3405428"><ele>809.0</ele><time>2026-05-03T12:14:36.59Z</time></trkpt><trkpt lat="39.3019361" lon="16.3405133"><ele>803.0</ele><time>2026-05-03T12:14:37.6Z</time></trkpt><trkpt lat="39.3020854" lon="16.3404851"><ele>797.0</ele><time>2026-05-03T12:14:38.594Z</time></trkpt><trkpt lat="39.3022327" lon="16.3404568"><ele>796.25</ele><time>2026-05-03T12:14:39.595Z</time></trkpt><trkpt lat="39.3023705" lon="16.3404236"><ele>795.5</ele><time>2026-05-03T12:14:40.596Z</time></trkpt><trkpt lat="39.3024995" lon="16.3403957"><ele>794.75</ele><time>2026-05-03T12:14:41.598Z</time></trkpt><trkpt lat="39.3026265" lon="16.3403688"><ele>794.0</ele><time>2026-05-03T12:14:42.612Z</time></trkpt><trkpt lat="39.3027521" lon="16.3403236"><ele>794.0</ele><time>2026-05-03T12:14:43.591Z</time></trkpt><trkpt lat="39.3028765" lon="16.3402505"><ele>794.0</ele><time>2026-05-03T12:14:44.594Z</time></trkpt><trkpt lat="39.3030102" lon="16.3401755"><ele>794.0</ele><time>2026-05-03T12:14:45.593Z</time></trkpt><trkpt lat="39.3031427" lon="16.3400948"><ele>794.0</ele><time>2026-05-03T12:14:46.571Z</time></trkpt><trkpt lat="39.3032671" lon="16.3400028"><ele>794.5</ele><time>2026-05-03T12:14:47.604Z</time></trkpt><trkpt lat="39.303383" lon="16.3399101"><ele>795.0</ele><time>2026-05-03T12:14:48.59Z</time></trkpt><trkpt lat="39.3034967" lon="16.3398298"><ele>795.5</ele><time>2026-05-03T12:14:49.588Z</time></trkpt><trkpt lat="39.3036121" lon="16.3397515"><ele>796.0</ele><time>2026-05-03T12:14:50.607Z</time></trkpt><trkpt lat="39.3037221" lon="16.3396811"><ele>793.0</ele><time>2026-05-03T12:14:51.593Z</time></trkpt><trkpt lat="39.3038324" lon="16.3396272"><ele>790.0</ele><time>2026-05-03T12:14:52.584Z</time></trkpt><trkpt lat="39.3039482" lon="16.3395924"><ele>787.0</ele><time>2026-05-03T12:14:53.592Z</time></trkpt><trkpt lat="39.3040661" lon="16.339572"><ele>784.0</ele><time>2026-05-03T12:14:54.582Z</time></trkpt><trkpt lat="39.3041844" lon="16.3395684"><ele>784.0</ele><time>2026-05-03T12:14:55.592Z</time></trkpt><trkpt lat="39.3043028" lon="16.3395715"><ele>784.0</ele><time>2026-05-03T12:14:56.609Z</time></trkpt><trkpt lat="39.3044121" lon="16.3396069"><ele>784.0</ele><time>2026-05-03T12:14:57.593Z</time></trkpt><trkpt lat="39.3045196" lon="16.3396877"><ele>784.0</ele><time>2026-05-03T12:14:58.586Z</time></trkpt><trkpt lat="39.3046182" lon="16.3397927"><ele>783.0</ele><time>2026-05-03T12:14:59.588Z</time></trkpt><trkpt lat="39.3047012" lon="16.3399278"><ele>782.0</ele><time>2026-05-03T12:15:00.587Z</time></trkpt><trkpt lat="39.3047824" lon="16.3400767"><ele>781.0</ele><time>2026-05-03T12:15:01.593Z</time></trkpt><trkpt lat="39.3048632" lon="16.3402394"><ele>780.0</ele><time>2026-05-03T12:15:02.598Z</time></trkpt><trkpt lat="39.304942" lon="16.3403963"><ele>781.6666666666667</ele><time>2026-05-03T12:15:03.595Z</time></trkpt><trkpt lat="39.3050236" lon="16.3405572"><ele>783.3333333333334</ele><time>2026-05-03T12:15:04.603Z</time></trkpt><trkpt lat="39.305104" lon="16.3407279"><ele>785.0</ele><time>2026-05-03T12:15:05.603Z</time></trkpt><trkpt lat="39.305185" lon="16.3409026"><ele>785.0</ele><time>2026-05-03T12:15:06.601Z</time></trkpt><trkpt lat="39.3052652" lon="16.3410804"><ele>785.0</ele><time>2026-05-03T12:15:07.598Z</time></trkpt><trkpt lat="39.3053437" lon="16.3412577"><ele>785.0</ele><time>2026-05-03T12:15:08.593Z</time></trkpt><trkpt lat="39.3054314" lon="16.3414352"><ele>785.3333333333334</ele><time>2026-05-03T12:15:09.587Z</time></trkpt><trkpt lat="39.3055241" lon="16.3416188"><ele>785.6666666666667</ele><time>2026-05-03T12:15:10.591Z</time></trkpt><trkpt lat="39.3056128" lon="16.3418079"><ele>786.0</ele><time>2026-05-03T12:15:11.577Z</time></trkpt><trkpt lat="39.3056953" lon="16.3419908"><ele>786.0</ele><time>2026-05-03T12:15:12.595Z</time></trkpt><trkpt lat="39.3057785" lon="16.3421617"><ele>786.0</ele><time>2026-05-03T12:15:13.573Z</time></trkpt><trkpt lat="39.3058584" lon="16.3423185"><ele>786.0</ele><time>2026-05-03T12:15:14.589Z</time></trkpt><trkpt lat="39.3059471" lon="16.3424605"><ele>786.0</ele><time>2026-05-03T12:15:15.58Z</time></trkpt><trkpt lat="39.3060516" lon="16.3425813"><ele>784.6666666666667</ele><time>2026-05-03T12:15:16.58Z</time></trkpt><trkpt lat="39.3061823" lon="16.3426733"><ele>783.3333333333334</ele><time>2026-05-03T12:15:17.601Z</time></trkpt><trkpt lat="39.3063268" lon="16.3427476"><ele>782.0</ele><time>2026-05-03T12:15:18.579Z</time></trkpt><trkpt lat="39.3064823" lon="16.3427789"><ele>782.0</ele><time>2026-05-03T12:15:19.593Z</time></trkpt><trkpt lat="39.3066372" lon="16.3427688"><ele>782.0</ele><time>2026-05-03T12:15:20.589Z</time></trkpt><trkpt lat="39.3067997" lon="16.3427181"><ele>782.0</ele><time>2026-05-03T12:15:21.576Z</time></trkpt><trkpt lat="39.3069358" lon="16.3426269"><ele>782.0</ele><time>2026-05-03T12:15:22.576Z</time></trkpt><trkpt lat="39.3070621" lon="16.3424842"><ele>782.0</ele><time>2026-05-03T12:15:23.596Z</time></trkpt><trkpt lat="39.307194" lon="16.3423378"><ele>782.0</ele><time>2026-05-03T12:15:24.588Z</time></trkpt><trkpt lat="39.3073188" lon="16.3421754"><ele>780.3333333333334</ele><time>2026-05-03T12:15:25.59Z</time></trkpt><trkpt lat="39.3074334" lon="16.3420099"><ele>778.6666666666667</ele><time>2026-05-03T12:15:26.589Z</time></trkpt><trkpt lat="39.3075374" lon="16.3418608"><ele>777.0</ele><time>2026-05-03T12:15:27.593Z</time></trkpt><trkpt lat="39.3076311" lon="16.3417054"><ele>777.0</ele><time>2026-05-03T12:15:28.598Z</time></trkpt><trkpt lat="39.3077005" lon="16.3415228"><ele>777.0</ele><time>2026-05-03T12:15:29.597Z</time></trkpt><trkpt lat="39.3077503" lon="16.3413217"><ele>777.0</ele><time>2026-05-03T12:15:30.585Z</time></trkpt><trkpt lat="39.3077808" lon="16.3411104"><ele>774.5</ele><time>2026-05-03T12:15:31.599Z</time></trkpt><trkpt lat="39.307815" lon="16.3409182"><ele>772.0</ele><time>2026-05-03T12:15:32.586Z</time></trkpt><trkpt lat="39.3078559" lon="16.3407289"><ele>769.5</ele><time>2026-05-03T12:15:33.586Z</time></trkpt><trkpt lat="39.3079052" lon="16.3405545"><ele>767.0</ele><time>2026-05-03T12:15:34.596Z</time></trkpt><trkpt lat="39.3079668" lon="16.3403968"><ele>767.5</ele><time>2026-05-03T12:15:35.591Z</time></trkpt><trkpt lat="39.3080413" lon="16.3402529"><ele>768.0</ele><time>2026-05-03T12:15:36.589Z</time></trkpt><trkpt lat="39.3081215" lon="16.340128"><ele>768.5</ele><time>2026-05-03T12:15:37.573Z</time></trkpt><trkpt lat="39.3082213" lon="16.3400146"><ele>769.0</ele><time>2026-05-03T12:15:38.572Z</time></trkpt><trkpt lat="39.3088755" lon="16.3397473"><ele>767.3333333333333</ele><time>2026-05-03T12:15:43.591Z</time></trkpt><trkpt lat="39.3089991" lon="16.33975"><ele>765.6666666666666</ele><time>2026-05-03T12:15:44.593Z</time></trkpt><trkpt lat="39.3091547" lon="16.3397242"><ele>764.0</ele><time>2026-05-03T12:15:45.585Z</time></trkpt><trkpt lat="39.3093344" lon="16.339709"><ele>759.6666666666666</ele><time>2026-05-03T12:15:46.589Z</time></trkpt><trkpt lat="39.3095025" lon="16.3396767"><ele>755.3333333333334</ele><time>2026-05-03T12:15:47.593Z</time></trkpt><trkpt lat="39.309679" lon="16.3396517"><ele>751.0</ele><time>2026-05-03T12:15:48.591Z</time></trkpt><trkpt lat="39.3098558" lon="16.3396268"><ele>751.0</ele><time>2026-05-03T12:15:49.588Z</time></trkpt><trkpt lat="39.310026" lon="16.3396053"><ele>751.0</ele><time>2026-05-03T12:15:50.586Z</time></trkpt><trkpt lat="39.310197" lon="16.3395717"><ele>751.0</ele><time>2026-05-03T12:15:51.591Z</time></trkpt><trkpt lat="39.3103688" lon="16.3395341"><ele>751.0</ele><time>2026-05-03T12:15:52.615Z</time></trkpt><trkpt lat="39.310545" lon="16.3394908"><ele>751.0</ele><time>2026-05-03T12:15:53.578Z</time></trkpt><trkpt lat="39.3107285" lon="16.3394556"><ele>751.0</ele><time>2026-05-03T12:15:54.586Z</time></trkpt><trkpt lat="39.3112666" lon="16.3393231"><ele>751.3333333333334</ele><time>2026-05-03T12:15:57.578Z</time></trkpt><trkpt lat="39.3114568" lon="16.3392732"><ele>751.6666666666666</ele><time>2026-05-03T12:15:58.582Z</time></trkpt><trkpt lat="39.31164" lon="16.339245"><ele>752.0</ele><time>2026-05-03T12:15:59.582Z</time></trkpt><trkpt lat="39.3118369" lon="16.3392227"><ele>752.0</ele><time>2026-05-03T12:16:00.579Z</time></trkpt><trkpt lat="39.3120294" lon="16.3391848"><ele>752.0</ele><time>2026-05-03T12:16:01.583Z</time></trkpt><trkpt lat="39.312219" lon="16.3391409"><ele>752.0</ele><time>2026-05-03T12:16:02.589Z</time></trkpt><trkpt lat="39.3124082" lon="16.3390997"><ele>747.3333333333333</ele><time>2026-05-03T12:16:03.587Z</time></trkpt><trkpt lat="39.3126035" lon="16.3390508"><ele>742.6666666666666</ele><time>2026-05-03T12:16:04.589Z</time></trkpt><trkpt lat="39.3127998" lon="16.3389955"><ele>738.0</ele><time>2026-05-03T12:16:05.592Z</time></trkpt><trkpt lat="39.3129968" lon="16.3389273"><ele>721.6666666666666</ele><time>2026-05-03T12:16:06.594Z</time></trkpt><trkpt lat="39.3131981" lon="16.3388596"><ele>705.3333333333333</ele><time>2026-05-03T12:16:07.584Z</time></trkpt><trkpt lat="39.3133972" lon="16.3387811"><ele>689.0</ele><time>2026-05-03T12:16:08.593Z</time></trkpt><trkpt lat="39.3136021" lon="16.3387017"><ele>689.0</ele><time>2026-05-03T12:16:09.59Z</time></trkpt><trkpt lat="39.3138051" lon="16.3386092"><ele>689.0</ele><time>2026-05-03T12:16:10.601Z</time></trkpt><trkpt lat="39.3140106" lon="16.3385217"><ele>689.0</ele><time>2026-05-03T12:16:11.59Z</time></trkpt><trkpt lat="39.3142178" lon="16.3384405"><ele>689.6666666666666</ele><time>2026-05-03T12:16:12.588Z</time></trkpt><trkpt lat="39.314428" lon="16.3383564"><ele>690.3333333333334</ele><time>2026-05-03T12:16:13.589Z</time></trkpt><trkpt lat="39.314642" lon="16.3382705"><ele>691.0</ele><time>2026-05-03T12:16:14.588Z</time></trkpt><trkpt lat="39.3148527" lon="16.3381897"><ele>691.0</ele><time>2026-05-03T12:16:15.592Z</time></trkpt><trkpt lat="39.3150637" lon="16.3381091"><ele>691.0</ele><time>2026-05-03T12:16:16.597Z</time></trkpt><trkpt lat="39.3152692" lon="16.3380228"><ele>691.0</ele><time>2026-05-03T12:16:17.594Z</time></trkpt><trkpt lat="39.3154628" lon="16.3379388"><ele>707.0</ele><time>2026-05-03T12:16:18.596Z</time></trkpt><trkpt lat="39.3156516" lon="16.3378482"><ele>723.0</ele><time>2026-05-03T12:16:19.594Z</time></trkpt><trkpt lat="39.3158328" lon="16.3377476"><ele>739.0</ele><time>2026-05-03T12:16:20.588Z</time></trkpt><trkpt lat="39.3160059" lon="16.3376214"><ele>739.0</ele><time>2026-05-03T12:16:21.595Z</time></trkpt><trkpt lat="39.3161618" lon="16.3374634"><ele>739.0</ele><time>2026-05-03T12:16:22.601Z</time></trkpt><trkpt lat="39.3162994" lon="16.337279"><ele>739.0</ele><time>2026-05-03T12:16:23.599Z</time></trkpt><trkpt lat="39.3164202" lon="16.3370735"><ele>733.3333333333334</ele><time>2026-05-03T12:16:24.594Z</time></trkpt><trkpt lat="39.3165224" lon="16.3368583"><ele>727.6666666666666</ele><time>2026-05-03T12:16:25.596Z</time></trkpt><trkpt lat="39.3166074" lon="16.3366222"><ele>722.0</ele><time>2026-05-03T12:16:26.588Z</time></trkpt><trkpt lat="39.3166658" lon="16.3363726"><ele>720.6666666666666</ele><time>2026-05-03T12:16:27.602Z</time></trkpt><trkpt lat="39.3167039" lon="16.336114"><ele>719.3333333333334</ele><time>2026-05-03T12:16:28.588Z</time></trkpt><trkpt lat="39.3167107" lon="16.3358422"><ele>718.0</ele><time>2026-05-03T12:16:29.602Z</time></trkpt><trkpt lat="39.3166827" lon="16.3355757"><ele>725.0</ele><time>2026-05-03T12:16:30.577Z</time></trkpt><trkpt lat="39.316635" lon="16.3353125"><ele>732.0</ele><time>2026-05-03T12:16:31.565Z</time></trkpt><trkpt lat="39.3165633" lon="16.3350541"><ele>739.0</ele><time>2026-05-03T12:16:32.562Z</time></trkpt><trkpt lat="39.3164681" lon="16.3348077"><ele>738.0</ele><time>2026-05-03T12:16:33.593Z</time></trkpt><trkpt lat="39.3163499" lon="16.3345739"><ele>737.0</ele><time>2026-05-03T12:16:34.604Z</time></trkpt><trkpt lat="39.3161997" lon="16.3343628"><ele>736.0</ele><time>2026-05-03T12:16:35.593Z</time></trkpt><trkpt lat="39.3160354" lon="16.3341744"><ele>736.0</ele><time>2026-05-03T12:16:36.591Z</time></trkpt><trkpt lat="39.3158602" lon="16.3339991"><ele>736.0</ele><time>2026-05-03T12:16:37.594Z</time></trkpt><trkpt lat="39.3156751" lon="16.3338318"><ele>736.0</ele><time>2026-05-03T12:16:38.594Z</time></trkpt><trkpt lat="39.315487" lon="16.3336581"><ele>732.5</ele><time>2026-05-03T12:16:39.594Z</time></trkpt><trkpt lat="39.3153077" lon="16.3334738"><ele>729.0</ele><time>2026-05-03T12:16:40.592Z</time></trkpt><trkpt lat="39.3151267" lon="16.3333029"><ele>729.0</ele><time>2026-05-03T12:16:41.586Z</time></trkpt><trkpt lat="39.3149523" lon="16.3331444"><ele>729.0</ele><time>2026-05-03T12:16:42.587Z</time></trkpt><trkpt lat="39.3147843" lon="16.3329956"><ele>729.0</ele><time>2026-05-03T12:16:43.602Z</time></trkpt><trkpt lat="39.3146343" lon="16.3328346"><ele>727.6666666666666</ele><time>2026-05-03T12:16:44.586Z</time></trkpt><trkpt lat="39.314502" lon="16.3326458"><ele>726.3333333333333</ele><time>2026-05-03T12:16:45.588Z</time></trkpt><trkpt lat="39.3143889" lon="16.3324355"><ele>725.0</ele><time>2026-05-03T12:16:46.613Z</time></trkpt><trkpt lat="39.3142746" lon="16.3322121"><ele>725.0</ele><time>2026-05-03T12:16:47.597Z</time></trkpt><trkpt lat="39.3141693" lon="16.3319859"><ele>725.0</ele><time>2026-05-03T12:16:48.596Z</time></trkpt><trkpt lat="39.3140703" lon="16.3317548"><ele>725.0</ele><time>2026-05-03T12:16:49.59Z</time></trkpt><trkpt lat="39.3139792" lon="16.3315151"><ele>718.3333333333333</ele><time>2026-05-03T12:16:50.592Z</time></trkpt><trkpt lat="39.3138855" lon="16.3312732"><ele>711.6666666666666</ele><time>2026-05-03T12:16:51.603Z</time></trkpt><trkpt lat="39.3137831" lon="16.3310369"><ele>705.0</ele><time>2026-05-03T12:16:52.588Z</time></trkpt><trkpt lat="39.3136795" lon="16.3308049"><ele>705.0</ele><time>2026-05-03T12:16:53.6Z</time></trkpt><trkpt lat="39.3135795" lon="16.3305723"><ele>705.0</ele><time>2026-05-03T12:16:54.596Z</time></trkpt><trkpt lat="39.3134833" lon="16.3303293"><ele>705.0</ele><time>2026-05-03T12:16:55.593Z</time></trkpt><trkpt lat="39.3133799" lon="16.3300998"><ele>705.0</ele><time>2026-05-03T12:16:56.586Z</time></trkpt><trkpt lat="39.3132643" lon="16.3298777"><ele>705.0</ele><time>2026-05-03T12:16:57.6Z</time></trkpt><trkpt lat="39.3131319" lon="16.3296753"><ele>705.0</ele><time>2026-05-03T12:16:58.591Z</time></trkpt><trkpt lat="39.3129769" lon="16.3294925"><ele>704.0</ele><time>2026-05-03T12:16:59.591Z</time></trkpt><trkpt lat="39.3128153" lon="16.3293117"><ele>703.0</ele><time>2026-05-03T12:17:00.578Z</time></trkpt><trkpt lat="39.3126462" lon="16.3291343"><ele>702.0</ele><time>2026-05-03T12:17:01.587Z</time></trkpt><trkpt lat="39.3124716" lon="16.328968"><ele>701.6666666666666</ele><time>2026-05-03T12:17:02.601Z</time></trkpt><trkpt lat="39.312299" lon="16.3287942"><ele>701.3333333333333</ele><time>2026-05-03T12:17:03.588Z</time></trkpt><trkpt lat="39.312134" lon="16.3286193"><ele>701.0</ele><time>2026-05-03T12:17:04.589Z</time></trkpt><trkpt lat="39.3119701" lon="16.3284555"><ele>701.0</ele><time>2026-05-03T12:17:05.587Z</time></trkpt><trkpt lat="39.311806" lon="16.3282893"><ele>701.0</ele><time>2026-05-03T12:17:06.605Z</time></trkpt><trkpt lat="39.3116395" lon="16.3281217"><ele>701.0</ele><time>2026-05-03T12:17:07.592Z</time></trkpt><trkpt lat="39.3114671" lon="16.3279519"><ele>700.0</ele><time>2026-05-03T12:17:08.6Z</time></trkpt><trkpt lat="39.3112933" lon="16.3277816"><ele>699.0</ele><time>2026-05-03T12:17:09.59Z</time></trkpt><trkpt lat="39.3111205" lon="16.3276063"><ele>698.0</ele><time>2026-05-03T12:17:10.593Z</time></trkpt><trkpt lat="39.3109442" lon="16.3274287"><ele>698.0</ele><time>2026-05-03T12:17:11.587Z</time></trkpt><trkpt lat="39.3107684" lon="16.3272499"><ele>698.0</ele><time>2026-05-03T12:17:12.588Z</time></trkpt><trkpt lat="39.3105915" lon="16.327076"><ele>698.0</ele><time>2026-05-03T12:17:13.591Z</time></trkpt><trkpt lat="39.3104184" lon="16.3268998"><ele>696.3333333333333</ele><time>2026-05-03T12:17:14.585Z</time></trkpt><trkpt lat="39.3102536" lon="16.3267317"><ele>694.6666666666666</ele><time>2026-05-03T12:17:15.596Z</time></trkpt><trkpt lat="39.3100889" lon="16.326555"><ele>693.0</ele><time>2026-05-03T12:17:16.598Z</time></trkpt><trkpt lat="39.3099215" lon="16.3263723"><ele>692.3333333333334</ele><time>2026-05-03T12:17:17.584Z</time></trkpt><trkpt lat="39.3097517" lon="16.3261905"><ele>691.6666666666667</ele><time>2026-05-03T12:17:18.595Z</time></trkpt><trkpt lat="39.3095764" lon="16.3260169"><ele>691.0</ele><time>2026-05-03T12:17:19.588Z</time></trkpt><trkpt lat="39.3093964" lon="16.3258456"><ele>691.0</ele><time>2026-05-03T12:17:20.619Z</time></trkpt><trkpt lat="39.3092149" lon="16.3256683"><ele>691.0</ele><time>2026-05-03T12:17:21.595Z</time></trkpt><trkpt lat="39.3090309" lon="16.3254947"><ele>689.5</ele><time>2026-05-03T12:17:22.59Z</time></trkpt><trkpt lat="39.3088368" lon="16.3253368"><ele>688.0</ele><time>2026-05-03T12:17:23.598Z</time></trkpt><trkpt lat="39.3086294" lon="16.3251947"><ele>688.0</ele><time>2026-05-03T12:17:24.599Z</time></trkpt><trkpt lat="39.3084189" lon="16.325055"><ele>688.0</ele><time>2026-05-03T12:17:25.597Z</time></trkpt><trkpt lat="39.3082002" lon="16.3249117"><ele>684.0</ele><time>2026-05-03T12:17:26.593Z</time></trkpt><trkpt lat="39.3079853" lon="16.3247713"><ele>680.0</ele><time>2026-05-03T12:17:27.606Z</time></trkpt><trkpt lat="39.3077806" lon="16.3246349"><ele>680.0</ele><time>2026-05-03T12:17:28.594Z</time></trkpt><trkpt lat="39.3075817" lon="16.3245095"><ele>680.0</ele><time>2026-05-03T12:17:29.585Z</time></trkpt><trkpt lat="39.3073885" lon="16.3243841"><ele>680.0</ele><time>2026-05-03T12:17:30.592Z</time></trkpt><trkpt lat="39.3071938" lon="16.3242598"><ele>680.3333333333333</ele><time>2026-05-03T12:17:31.612Z</time></trkpt><trkpt lat="39.3069934" lon="16.3241355"><ele>680.6666666666666</ele><time>2026-05-03T12:17:32.605Z</time></trkpt><trkpt lat="39.3067958" lon="16.3240144"><ele>681.0</ele><time>2026-05-03T12:17:33.591Z</time></trkpt><trkpt lat="39.3065979" lon="16.3238867"><ele>677.3333333333334</ele><time>2026-05-03T12:17:34.604Z</time></trkpt><trkpt lat="39.3064046" lon="16.3237563"><ele>673.6666666666667</ele><time>2026-05-03T12:17:35.579Z</time></trkpt><trkpt lat="39.3062155" lon="16.323632"><ele>670.0</ele><time>2026-05-03T12:17:36.585Z</time></trkpt><trkpt lat="39.3060275" lon="16.323508"><ele>670.0</ele><time>2026-05-03T12:17:37.6Z</time></trkpt><trkpt lat="39.3058464" lon="16.3233947"><ele>670.0</ele><time>2026-05-03T12:17:38.602Z</time></trkpt><trkpt lat="39.3056754" lon="16.3232841"><ele>670.0</ele><time>2026-05-03T12:17:39.595Z</time></trkpt><trkpt lat="39.3055203" lon="16.3231752"><ele>667.6666666666667</ele><time>2026-05-03T12:17:40.59Z</time></trkpt><trkpt lat="39.3053653" lon="16.3230535"><ele>665.3333333333334</ele><time>2026-05-03T12:17:41.585Z</time></trkpt><trkpt lat="39.3052251" lon="16.3229042"><ele>663.0</ele><time>2026-05-03T12:17:42.601Z</time></trkpt><trkpt lat="39.3051044" lon="16.3227428"><ele>663.0</ele><time>2026-05-03T12:17:43.584Z</time></trkpt><trkpt lat="39.3050034" lon="16.3225623"><ele>663.0</ele><time>2026-05-03T12:17:44.594Z</time></trkpt><trkpt lat="39.3049146" lon="16.3223824"><ele>663.0</ele><time>2026-05-03T12:17:45.587Z</time></trkpt><trkpt lat="39.3048456" lon="16.3221927"><ele>663.0</ele><time>2026-05-03T12:17:46.597Z</time></trkpt><trkpt lat="39.3047922" lon="16.3219992"><ele>663.0</ele><time>2026-05-03T12:17:47.601Z</time></trkpt><trkpt lat="39.3047483" lon="16.3218043"><ele>663.0</ele><time>2026-05-03T12:17:48.596Z</time></trkpt><trkpt lat="39.3047219" lon="16.3215941"><ele>658.6666666666666</ele><time>2026-05-03T12:17:49.591Z</time></trkpt><trkpt lat="39.3047129" lon="16.3213879"><ele>654.3333333333333</ele><time>2026-05-03T12:17:50.601Z</time></trkpt><trkpt lat="39.3047281" lon="16.3211709"><ele>650.0</ele><time>2026-05-03T12:17:51.592Z</time></trkpt><trkpt lat="39.3047603" lon="16.3209618"><ele>650.0</ele><time>2026-05-03T12:17:52.612Z</time></trkpt><trkpt lat="39.3048039" lon="16.3207578"><ele>650.0</ele><time>2026-05-03T12:17:53.598Z</time></trkpt><trkpt lat="39.3048669" lon="16.3205527"><ele>650.0</ele><time>2026-05-03T12:17:54.595Z</time></trkpt><trkpt lat="39.3049394" lon="16.3203463"><ele>647.0</ele><time>2026-05-03T12:17:55.602Z</time></trkpt><trkpt lat="39.3050156" lon="16.3201396"><ele>644.0</ele><time>2026-05-03T12:17:56.602Z</time></trkpt><trkpt lat="39.3050966" lon="16.3199215"><ele>641.0</ele><time>2026-05-03T12:17:57.596Z</time></trkpt><trkpt lat="39.3051751" lon="16.3196988"><ele>641.0</ele><time>2026-05-03T12:17:58.586Z</time></trkpt><trkpt lat="39.3052541" lon="16.3194721"><ele>641.0</ele><time>2026-05-03T12:17:59.595Z</time></trkpt><trkpt lat="39.3053366" lon="16.3192425"><ele>641.0</ele><time>2026-05-03T12:18:00.597Z</time></trkpt><trkpt lat="39.3054244" lon="16.3190145"><ele>641.0</ele><time>2026-05-03T12:18:01.585Z</time></trkpt><trkpt lat="39.3055078" lon="16.3187829"><ele>641.0</ele><time>2026-05-03T12:18:02.588Z</time></trkpt><trkpt lat="39.3055899" lon="16.3185483"><ele>641.0</ele><time>2026-05-03T12:18:03.573Z</time></trkpt><trkpt lat="39.3068153" lon="16.3153532"><ele>641.0</ele><time>2026-05-03T12:18:16.555Z</time></trkpt><trkpt lat="39.306968" lon="16.3148252"><ele>641.0</ele><time>2026-05-03T12:18:18.56Z</time></trkpt><trkpt lat="39.3070501" lon="16.3145569"><ele>642.5</ele><time>2026-05-03T12:18:19.559Z</time></trkpt><trkpt lat="39.3071365" lon="16.3142839"><ele>644.0</ele><time>2026-05-03T12:18:20.561Z</time></trkpt><trkpt lat="39.3072204" lon="16.314014"><ele>636.3333333333333</ele><time>2026-05-03T12:18:21.571Z</time></trkpt><trkpt lat="39.3072865" lon="16.3137421"><ele>628.6666666666666</ele><time>2026-05-03T12:18:22.591Z</time></trkpt><trkpt lat="39.3073231" lon="16.3134587"><ele>621.0</ele><time>2026-05-03T12:18:23.566Z</time></trkpt><trkpt lat="39.3073352" lon="16.3131739"><ele>620.6666666666666</ele><time>2026-05-03T12:18:24.566Z</time></trkpt><trkpt lat="39.3073394" lon="16.3128999"><ele>620.3333333333333</ele><time>2026-05-03T12:18:25.556Z</time></trkpt><trkpt lat="39.307321" lon="16.3126445"><ele>620.0</ele><time>2026-05-03T12:18:26.563Z</time></trkpt><trkpt lat="39.3069586" lon="16.3114063"><ele>617.0</ele><time>2026-05-03T12:18:31.588Z</time></trkpt><trkpt lat="39.3068499" lon="16.3111738"><ele>614.0</ele><time>2026-05-03T12:18:32.571Z</time></trkpt><trkpt lat="39.3067531" lon="16.3109459"><ele>611.0</ele><time>2026-05-03T12:18:33.583Z</time></trkpt><trkpt lat="39.3066333" lon="16.3107107"><ele>610.0</ele><time>2026-05-03T12:18:34.586Z</time></trkpt><trkpt lat="39.3065238" lon="16.3104883"><ele>609.0</ele><time>2026-05-03T12:18:35.594Z</time></trkpt><trkpt lat="39.3064126" lon="16.3102786"><ele>608.0</ele><time>2026-05-03T12:18:36.592Z</time></trkpt><trkpt lat="39.3062899" lon="16.3100807"><ele>610.0</ele><time>2026-05-03T12:18:37.578Z</time></trkpt><trkpt lat="39.3061493" lon="16.309897"><ele>612.0</ele><time>2026-05-03T12:18:38.584Z</time></trkpt><trkpt lat="39.3059883" lon="16.3097399"><ele>614.0</ele><time>2026-05-03T12:18:39.569Z</time></trkpt><trkpt lat="39.3058109" lon="16.3096043"><ele>608.6666666666666</ele><time>2026-05-03T12:18:40.586Z</time></trkpt><trkpt lat="39.3056307" lon="16.3095068"><ele>603.3333333333334</ele><time>2026-05-03T12:18:41.592Z</time></trkpt><trkpt lat="39.305438" lon="16.3094375"><ele>598.0</ele><time>2026-05-03T12:18:42.59Z</time></trkpt><trkpt lat="39.3052358" lon="16.3093981"><ele>598.0</ele><time>2026-05-03T12:18:43.566Z</time></trkpt><trkpt lat="39.3050317" lon="16.3093894"><ele>598.0</ele><time>2026-05-03T12:18:44.586Z</time></trkpt><trkpt lat="39.3048325" lon="16.3094128"><ele>598.0</ele><time>2026-05-03T12:18:45.582Z</time></trkpt><trkpt lat="39.3046475" lon="16.3094594"><ele>595.0</ele><time>2026-05-03T12:18:46.593Z</time></trkpt><trkpt lat="39.3044727" lon="16.3095377"><ele>592.0</ele><time>2026-05-03T12:18:47.588Z</time></trkpt><trkpt lat="39.3043004" lon="16.3096385"><ele>589.0</ele><time>2026-05-03T12:18:48.584Z</time></trkpt><trkpt lat="39.3041314" lon="16.309771"><ele>589.0</ele><time>2026-05-03T12:18:49.597Z</time></trkpt><trkpt lat="39.3039861" lon="16.3099283"><ele>589.0</ele><time>2026-05-03T12:18:50.598Z</time></trkpt><trkpt lat="39.3038527" lon="16.3101114"><ele>589.0</ele><time>2026-05-03T12:18:51.579Z</time></trkpt><trkpt lat="39.3037384" lon="16.3103112"><ele>582.3333333333334</ele><time>2026-05-03T12:18:52.608Z</time></trkpt><trkpt lat="39.3036337" lon="16.3105077"><ele>575.6666666666666</ele><time>2026-05-03T12:18:53.59Z</time></trkpt><trkpt lat="39.3035447" lon="16.3107004"><ele>569.0</ele><time>2026-05-03T12:18:54.597Z</time></trkpt><trkpt lat="39.3034551" lon="16.310904"><ele>569.0</ele><time>2026-05-03T12:18:55.594Z</time></trkpt><trkpt lat="39.3033693" lon="16.3111063"><ele>569.0</ele><time>2026-05-03T12:18:56.601Z</time></trkpt><trkpt lat="39.303285" lon="16.3113148"><ele>569.0</ele><time>2026-05-03T12:18:57.598Z</time></trkpt><trkpt lat="39.303204" lon="16.311517"><ele>571.6666666666666</ele><time>2026-05-03T12:18:58.595Z</time></trkpt><trkpt lat="39.3031151" lon="16.3117153"><ele>574.3333333333334</ele><time>2026-05-03T12:18:59.598Z</time></trkpt><trkpt lat="39.3030303" lon="16.3119161"><ele>577.0</ele><time>2026-05-03T12:19:00.604Z</time></trkpt><trkpt lat="39.3029526" lon="16.3121137"><ele>572.3333333333334</ele><time>2026-05-03T12:19:01.587Z</time></trkpt><trkpt lat="39.302867" lon="16.312306"><ele>567.6666666666666</ele><time>2026-05-03T12:19:02.597Z</time></trkpt><trkpt lat="39.3027777" lon="16.3125011"><ele>563.0</ele><time>2026-05-03T12:19:03.596Z</time></trkpt><trkpt lat="39.3026854" lon="16.3127046"><ele>563.0</ele><time>2026-05-03T12:19:04.594Z</time></trkpt><trkpt lat="39.3025869" lon="16.3129097"><ele>563.0</ele><time>2026-05-03T12:19:05.586Z</time></trkpt><trkpt lat="39.3024699" lon="16.3131023"><ele>563.0</ele><time>2026-05-03T12:19:06.584Z</time></trkpt><trkpt lat="39.3023319" lon="16.3132721"><ele>561.6666666666666</ele><time>2026-05-03T12:19:07.581Z</time></trkpt><trkpt lat="39.3021838" lon="16.3134229"><ele>560.3333333333334</ele><time>2026-05-03T12:19:08.584Z</time></trkpt><trkpt lat="39.3020235" lon="16.3135433"><ele>559.0</ele><time>2026-05-03T12:19:09.589Z</time></trkpt><trkpt lat="39.3018511" lon="16.3136339"><ele>559.0</ele><time>2026-05-03T12:19:10.601Z</time></trkpt><trkpt lat="39.3016743" lon="16.3137074"><ele>559.0</ele><time>2026-05-03T12:19:11.581Z</time></trkpt><trkpt lat="39.3014884" lon="16.3137432"><ele>559.0</ele><time>2026-05-03T12:19:12.586Z</time></trkpt><trkpt lat="39.3013052" lon="16.3137578"><ele>561.6666666666667</ele><time>2026-05-03T12:19:13.595Z</time></trkpt><trkpt lat="39.3011288" lon="16.3137492"><ele>564.3333333333334</ele><time>2026-05-03T12:19:14.6Z</time></trkpt><trkpt lat="39.3009575" lon="16.3137128"><ele>567.0</ele><time>2026-05-03T12:19:15.593Z</time></trkpt><trkpt lat="39.3007982" lon="16.3136645"><ele>567.0</ele><time>2026-05-03T12:19:16.598Z</time></trkpt><trkpt lat="39.3006493" lon="16.3135871"><ele>567.0</ele><time>2026-05-03T12:19:17.599Z</time></trkpt><trkpt lat="39.3005076" lon="16.3134857"><ele>567.0</ele><time>2026-05-03T12:19:18.588Z</time></trkpt><trkpt lat="39.3003766" lon="16.3133664"><ele>565.3333333333334</ele><time>2026-05-03T12:19:19.582Z</time></trkpt><trkpt lat="39.3002561" lon="16.31322"><ele>563.6666666666667</ele><time>2026-05-03T12:19:20.61Z</time></trkpt><trkpt lat="39.3001429" lon="16.3130413"><ele>562.0</ele><time>2026-05-03T12:19:21.586Z</time></trkpt><trkpt lat="39.3000429" lon="16.312857"><ele>562.0</ele><time>2026-05-03T12:19:22.598Z</time></trkpt><trkpt lat="39.2999458" lon="16.3126598"><ele>562.0</ele><time>2026-05-03T12:19:23.595Z</time></trkpt><trkpt lat="39.29985" lon="16.3124651"><ele>562.0</ele><time>2026-05-03T12:19:24.599Z</time></trkpt><trkpt lat="39.2997538" lon="16.3122648"><ele>555.3333333333334</ele><time>2026-05-03T12:19:25.577Z</time></trkpt><trkpt lat="39.2996626" lon="16.3120591"><ele>548.6666666666666</ele><time>2026-05-03T12:19:26.599Z</time></trkpt><trkpt lat="39.2995666" lon="16.3118517"><ele>542.0</ele><time>2026-05-03T12:19:27.597Z</time></trkpt><trkpt lat="39.2994646" lon="16.3116389"><ele>542.0</ele><time>2026-05-03T12:19:28.595Z</time></trkpt><trkpt lat="39.2993604" lon="16.3114218"><ele>542.0</ele><time>2026-05-03T12:19:29.594Z</time></trkpt><trkpt lat="39.29926" lon="16.3111986"><ele>542.0</ele><time>2026-05-03T12:19:30.589Z</time></trkpt><trkpt lat="39.2991637" lon="16.3109712"><ele>545.0</ele><time>2026-05-03T12:19:31.586Z</time></trkpt><trkpt lat="39.2990641" lon="16.3107485"><ele>548.0</ele><time>2026-05-03T12:19:32.598Z</time></trkpt><trkpt lat="39.2989633" lon="16.3105294"><ele>551.0</ele><time>2026-05-03T12:19:33.585Z</time></trkpt><trkpt lat="39.2988647" lon="16.3103105"><ele>548.3333333333333</ele><time>2026-05-03T12:19:34.585Z</time></trkpt><trkpt lat="39.2987697" lon="16.3100892"><ele>545.6666666666666</ele><time>2026-05-03T12:19:35.6Z</time></trkpt><trkpt lat="39.2986687" lon="16.3098693"><ele>543.0</ele><time>2026-05-03T12:19:36.591Z</time></trkpt><trkpt lat="39.298564" lon="16.3096526"><ele>543.0</ele><time>2026-05-03T12:19:37.584Z</time></trkpt><trkpt lat="39.2984514" lon="16.3094533"><ele>543.0</ele><time>2026-05-03T12:19:38.601Z</time></trkpt><trkpt lat="39.2983341" lon="16.3092721"><ele>543.0</ele><time>2026-05-03T12:19:39.6Z</time></trkpt><trkpt lat="39.2982131" lon="16.309109"><ele>543.0</ele><time>2026-05-03T12:19:40.6Z</time></trkpt><trkpt lat="39.2980928" lon="16.3089495"><ele>543.0</ele><time>2026-05-03T12:19:41.588Z</time></trkpt><trkpt lat="39.2979715" lon="16.3087949"><ele>543.0</ele><time>2026-05-03T12:19:42.588Z</time></trkpt><trkpt lat="39.2978565" lon="16.3086382"><ele>537.6666666666666</ele><time>2026-05-03T12:19:43.597Z</time></trkpt><trkpt lat="39.2977404" lon="16.3084733"><ele>532.3333333333333</ele><time>2026-05-03T12:19:44.589Z</time></trkpt><trkpt lat="39.2976169" lon="16.3083099"><ele>527.0</ele><time>2026-05-03T12:19:45.585Z</time></trkpt><trkpt lat="39.2974867" lon="16.3081449"><ele>525.3333333333333</ele><time>2026-05-03T12:19:46.594Z</time></trkpt><trkpt lat="39.2973588" lon="16.3079745"><ele>523.6666666666666</ele><time>2026-05-03T12:19:47.598Z</time></trkpt><trkpt lat="39.2972356" lon="16.3077996"><ele>522.0</ele><time>2026-05-03T12:19:48.594Z</time></trkpt><trkpt lat="39.2971189" lon="16.3076249"><ele>522.0</ele><time>2026-05-03T12:19:49.585Z</time></trkpt><trkpt lat="39.2970093" lon="16.3074371"><ele>522.0</ele><time>2026-05-03T12:19:50.596Z</time></trkpt><trkpt lat="39.2969029" lon="16.3072405"><ele>522.0</ele><time>2026-05-03T12:19:51.601Z</time></trkpt><trkpt lat="39.2968059" lon="16.3070189"><ele>526.0</ele><time>2026-05-03T12:19:52.591Z</time></trkpt><trkpt lat="39.2967277" lon="16.3067863"><ele>530.0</ele><time>2026-05-03T12:19:53.586Z</time></trkpt><trkpt lat="39.2966582" lon="16.3065474"><ele>534.0</ele><time>2026-05-03T12:19:54.6Z</time></trkpt><trkpt lat="39.2966025" lon="16.3062954"><ele>534.3333333333334</ele><time>2026-05-03T12:19:55.593Z</time></trkpt><trkpt lat="39.2965586" lon="16.3060231"><ele>534.6666666666667</ele><time>2026-05-03T12:19:56.59Z</time></trkpt><trkpt lat="39.2965315" lon="16.3057418"><ele>535.0</ele><time>2026-05-03T12:19:57.565Z</time></trkpt><trkpt lat="39.2965191" lon="16.3054543"><ele>532.5</ele><time>2026-05-03T12:19:58.578Z</time></trkpt><trkpt lat="39.2965282" lon="16.3051691"><ele>530.0</ele><time>2026-05-03T12:19:59.582Z</time></trkpt><trkpt lat="39.2965584" lon="16.3048746"><ele>526.0</ele><time>2026-05-03T12:20:00.596Z</time></trkpt><trkpt lat="39.296604" lon="16.3045868"><ele>522.0</ele><time>2026-05-03T12:20:01.589Z</time></trkpt><trkpt lat="39.296667" lon="16.3043037"><ele>522.0</ele><time>2026-05-03T12:20:02.567Z</time></trkpt><trkpt lat="39.2967369" lon="16.3040383"><ele>522.0</ele><time>2026-05-03T12:20:03.597Z</time></trkpt><trkpt lat="39.296817" lon="16.3037895"><ele>522.0</ele><time>2026-05-03T12:20:04.58Z</time></trkpt><trkpt lat="39.2968907" lon="16.3035493"><ele>520.0</ele><time>2026-05-03T12:20:05.599Z</time></trkpt><trkpt lat="39.296964" lon="16.3033018"><ele>518.0</ele><time>2026-05-03T12:20:06.596Z</time></trkpt><trkpt lat="39.2970375" lon="16.3030499"><ele>516.0</ele><time>2026-05-03T12:20:07.578Z</time></trkpt><trkpt lat="39.2971081" lon="16.3028002"><ele>516.3333333333334</ele><time>2026-05-03T12:20:08.572Z</time></trkpt><trkpt lat="39.2971794" lon="16.3025488"><ele>516.6666666666667</ele><time>2026-05-03T12:20:09.582Z</time></trkpt><trkpt lat="39.2972543" lon="16.3022957"><ele>517.0</ele><time>2026-05-03T12:20:10.578Z</time></trkpt><trkpt lat="39.2973336" lon="16.3020417"><ele>514.6666666666667</ele><time>2026-05-03T12:20:11.581Z</time></trkpt><trkpt lat="39.2974108" lon="16.3017842"><ele>512.3333333333334</ele><time>2026-05-03T12:20:12.594Z</time></trkpt><trkpt lat="39.2974909" lon="16.3015271"><ele>510.0</ele><time>2026-05-03T12:20:13.596Z</time></trkpt><trkpt lat="39.2975695" lon="16.3012675"><ele>508.0</ele><time>2026-05-03T12:20:14.587Z</time></trkpt><trkpt lat="39.2976511" lon="16.3010022"><ele>506.0</ele><time>2026-05-03T12:20:15.583Z</time></trkpt><trkpt lat="39.2977302" lon="16.3007312"><ele>504.0</ele><time>2026-05-03T12:20:16.586Z</time></trkpt><trkpt lat="39.2978114" lon="16.3004562"><ele>500.66666666666663</ele><time>2026-05-03T12:20:17.572Z</time></trkpt><trkpt lat="39.2978884" lon="16.3001853"><ele>497.3333333333333</ele><time>2026-05-03T12:20:18.593Z</time></trkpt><trkpt lat="39.297964" lon="16.2999191"><ele>494.0</ele><time>2026-05-03T12:20:19.583Z</time></trkpt><trkpt lat="39.2980284" lon="16.2996524"><ele>494.3333333333333</ele><time>2026-05-03T12:20:20.596Z</time></trkpt><trkpt lat="39.298085" lon="16.2993847"><ele>494.66666666666663</ele><time>2026-05-03T12:20:21.582Z</time></trkpt><trkpt lat="39.298131" lon="16.2991087"><ele>495.0</ele><time>2026-05-03T12:20:22.593Z</time></trkpt><trkpt lat="39.298166" lon="16.2988286"><ele>491.66666666666663</ele><time>2026-05-03T12:20:23.586Z</time></trkpt><trkpt lat="39.2981926" lon="16.2985424"><ele>488.3333333333333</ele><time>2026-05-03T12:20:24.585Z</time></trkpt><trkpt lat="39.2982121" lon="16.2982543"><ele>485.0</ele><time>2026-05-03T12:20:25.585Z</time></trkpt><trkpt lat="39.2982218" lon="16.2979656"><ele>479.0</ele><time>2026-05-03T12:20:26.593Z</time></trkpt><trkpt lat="39.2982235" lon="16.2976717"><ele>473.0</ele><time>2026-05-03T12:20:27.585Z</time></trkpt><trkpt lat="39.2982301" lon="16.2973834"><ele>465.3333333333333</ele><time>2026-05-03T12:20:28.604Z</time></trkpt><trkpt lat="39.2982402" lon="16.2971047"><ele>457.66666666666663</ele><time>2026-05-03T12:20:29.577Z</time></trkpt><trkpt lat="39.2982475" lon="16.2968303"><ele>450.0</ele><time>2026-05-03T12:20:30.602Z</time></trkpt><trkpt lat="39.298254" lon="16.2965598"><ele>447.0</ele><time>2026-05-03T12:20:31.578Z</time></trkpt><trkpt lat="39.2982608" lon="16.296286"><ele>444.0</ele><time>2026-05-03T12:20:32.594Z</time></trkpt><trkpt lat="39.2982678" lon="16.29601"><ele>441.0</ele><time>2026-05-03T12:20:33.594Z</time></trkpt><trkpt lat="39.2982746" lon="16.2957386"><ele>445.33333333333337</ele><time>2026-05-03T12:20:34.598Z</time></trkpt><trkpt lat="39.2982826" lon="16.2954672"><ele>449.6666666666667</ele><time>2026-05-03T12:20:35.589Z</time></trkpt><trkpt lat="39.2982957" lon="16.295191"><ele>454.0</ele><time>2026-05-03T12:20:36.594Z</time></trkpt><trkpt lat="39.2983131" lon="16.2949127"><ele>457.33333333333337</ele><time>2026-05-03T12:20:37.603Z</time></trkpt><trkpt lat="39.2983354" lon="16.2946312"><ele>460.66666666666663</ele><time>2026-05-03T12:20:38.587Z</time></trkpt><trkpt lat="39.2983591" lon="16.2943446"><ele>464.0</ele><time>2026-05-03T12:20:39.588Z</time></trkpt><trkpt lat="39.2983837" lon="16.2940521"><ele>463.0</ele><time>2026-05-03T12:20:40.582Z</time></trkpt><trkpt lat="39.2984079" lon="16.2937544"><ele>462.0</ele><time>2026-05-03T12:20:41.586Z</time></trkpt><trkpt lat="39.2984324" lon="16.2934573"><ele>462.0</ele><time>2026-05-03T12:20:42.602Z</time></trkpt><trkpt lat="39.2984617" lon="16.293158"><ele>462.0</ele><time>2026-05-03T12:20:43.588Z</time></trkpt><trkpt lat="39.2984982" lon="16.2928612"><ele>459.0</ele><time>2026-05-03T12:20:44.591Z</time></trkpt><trkpt lat="39.2985463" lon="16.2925617"><ele>456.0</ele><time>2026-05-03T12:20:45.587Z</time></trkpt><trkpt lat="39.2986023" lon="16.2922634"><ele>454.5</ele><time>2026-05-03T12:20:46.594Z</time></trkpt><trkpt lat="39.2986723" lon="16.2919751"><ele>453.0</ele><time>2026-05-03T12:20:47.582Z</time></trkpt><trkpt lat="39.2987482" lon="16.2917021"><ele>453.0</ele><time>2026-05-03T12:20:48.594Z</time></trkpt><trkpt lat="39.2988288" lon="16.2914433"><ele>453.0</ele><time>2026-05-03T12:20:49.584Z</time></trkpt><trkpt lat="39.2989053" lon="16.2911911"><ele>453.0</ele><time>2026-05-03T12:20:50.599Z</time></trkpt><trkpt lat="39.298974" lon="16.2909388"><ele>449.66666666666663</ele><time>2026-05-03T12:20:51.593Z</time></trkpt><trkpt lat="39.2990341" lon="16.2906762"><ele>446.3333333333333</ele><time>2026-05-03T12:20:52.583Z</time></trkpt><trkpt lat="39.2990911" lon="16.2904072"><ele>443.0</ele><time>2026-05-03T12:20:53.603Z</time></trkpt><trkpt lat="39.2991378" lon="16.2901469"><ele>438.66666666666663</ele><time>2026-05-03T12:20:54.591Z</time></trkpt><trkpt lat="39.299173" lon="16.2899119"><ele>434.33333333333337</ele><time>2026-05-03T12:20:55.595Z</time></trkpt><trkpt lat="39.2992035" lon="16.2896974"><ele>430.0</ele><time>2026-05-03T12:20:56.596Z</time></trkpt><trkpt lat="39.2992291" lon="16.2894915"><ele>428.33333333333337</ele><time>2026-05-03T12:20:57.574Z</time></trkpt><trkpt lat="39.2992499" lon="16.2892921"><ele>426.66666666666663</ele><time>2026-05-03T12:20:58.603Z</time></trkpt><trkpt lat="39.2992651" lon="16.2890804"><ele>425.0</ele><time>2026-05-03T12:20:59.606Z</time></trkpt><trkpt lat="39.299276" lon="16.2888554"><ele>424.3333333333333</ele><time>2026-05-03T12:21:00.596Z</time></trkpt><trkpt lat="39.2992796" lon="16.2886175"><ele>423.66666666666663</ele><time>2026-05-03T12:21:01.586Z</time></trkpt><trkpt lat="39.2992859" lon="16.2883717"><ele>423.0</ele><time>2026-05-03T12:21:02.649Z</time></trkpt><trkpt lat="39.2992908" lon="16.2881141"><ele>421.66666666666663</ele><time>2026-05-03T12:21:03.583Z</time></trkpt><trkpt lat="39.2992985" lon="16.2878546"><ele>420.3333333333333</ele><time>2026-05-03T12:21:04.587Z</time></trkpt><trkpt lat="39.2993071" lon="16.2875995"><ele>419.0</ele><time>2026-05-03T12:21:05.591Z</time></trkpt><trkpt lat="39.2993131" lon="16.2873492"><ele>417.66666666666663</ele><time>2026-05-03T12:21:06.582Z</time></trkpt><trkpt lat="39.2993154" lon="16.2870969"><ele>416.33333333333337</ele><time>2026-05-03T12:21:07.588Z</time></trkpt><trkpt lat="39.2993137" lon="16.2868398"><ele>415.0</ele><time>2026-05-03T12:21:08.595Z</time></trkpt><trkpt lat="39.2993088" lon="16.2865848"><ele>414.6666666666667</ele><time>2026-05-03T12:21:09.605Z</time></trkpt><trkpt lat="39.2992944" lon="16.2863239"><ele>414.33333333333337</ele><time>2026-05-03T12:21:10.592Z</time></trkpt><trkpt lat="39.2992649" lon="16.2860612"><ele>414.0</ele><time>2026-05-03T12:21:11.586Z</time></trkpt><trkpt lat="39.2992227" lon="16.285785"><ele>412.33333333333337</ele><time>2026-05-03T12:21:12.59Z</time></trkpt><trkpt lat="39.2991748" lon="16.2855023"><ele>410.6666666666667</ele><time>2026-05-03T12:21:13.578Z</time></trkpt><trkpt lat="39.2991248" lon="16.2852192"><ele>409.0</ele><time>2026-05-03T12:21:14.583Z</time></trkpt><trkpt lat="39.2990786" lon="16.2849333"><ele>405.6666666666667</ele><time>2026-05-03T12:21:15.579Z</time></trkpt><trkpt lat="39.2990252" lon="16.2846476"><ele>402.33333333333337</ele><time>2026-05-03T12:21:16.6Z</time></trkpt><trkpt lat="39.2989619" lon="16.2843772"><ele>399.0</ele><time>2026-05-03T12:21:17.581Z</time></trkpt><trkpt lat="39.2988852" lon="16.2841056"><ele>399.0</ele><time>2026-05-03T12:21:18.604Z</time></trkpt><trkpt lat="39.2987952" lon="16.2838434"><ele>399.0</ele><time>2026-05-03T12:21:19.593Z</time></trkpt><trkpt lat="39.2986948" lon="16.2836037"><ele>399.0</ele><time>2026-05-03T12:21:20.608Z</time></trkpt><trkpt lat="39.2985845" lon="16.2833784"><ele>399.0</ele><time>2026-05-03T12:21:21.585Z</time></trkpt><trkpt lat="39.2984639" lon="16.2831736"><ele>399.0</ele><time>2026-05-03T12:21:22.585Z</time></trkpt><trkpt lat="39.2983297" lon="16.2829954"><ele>399.0</ele><time>2026-05-03T12:21:23.597Z</time></trkpt><trkpt lat="39.2981862" lon="16.2828177"><ele>398.33333333333337</ele><time>2026-05-03T12:21:24.59Z</time></trkpt><trkpt lat="39.2980306" lon="16.2826491"><ele>397.6666666666667</ele><time>2026-05-03T12:21:25.592Z</time></trkpt><trkpt lat="39.2978648" lon="16.2824956"><ele>397.0</ele><time>2026-05-03T12:21:26.585Z</time></trkpt><trkpt lat="39.2977002" lon="16.2823466"><ele>398.33333333333337</ele><time>2026-05-03T12:21:27.599Z</time></trkpt><trkpt lat="39.2975324" lon="16.2822054"><ele>399.66666666666663</ele><time>2026-05-03T12:21:28.606Z</time></trkpt><trkpt lat="39.2973615" lon="16.2820703"><ele>401.0</ele><time>2026-05-03T12:21:29.593Z</time></trkpt><trkpt lat="39.2971842" lon="16.2819455"><ele>401.0</ele><time>2026-05-03T12:21:30.605Z</time></trkpt><trkpt lat="39.2970079" lon="16.2818098"><ele>401.0</ele><time>2026-05-03T12:21:31.593Z</time></trkpt><trkpt lat="39.2968369" lon="16.2816707"><ele>401.0</ele><time>2026-05-03T12:21:32.595Z</time></trkpt><trkpt lat="39.2966774" lon="16.281523"><ele>402.3333333333333</ele><time>2026-05-03T12:21:33.58Z</time></trkpt><trkpt lat="39.2965345" lon="16.2813792"><ele>403.66666666666663</ele><time>2026-05-03T12:21:34.586Z</time></trkpt><trkpt lat="39.2964062" lon="16.2812402"><ele>405.0</ele><time>2026-05-03T12:21:35.572Z</time></trkpt><trkpt lat="39.2962913" lon="16.2811025"><ele>405.0</ele><time>2026-05-03T12:21:36.576Z</time></trkpt><trkpt lat="39.2961922" lon="16.2809538"><ele>405.0</ele><time>2026-05-03T12:21:37.558Z</time></trkpt><trkpt lat="39.2955633" lon="16.2772174"><ele>383.6666666666667</ele><time>2026-05-03T12:21:54.575Z</time></trkpt><trkpt lat="39.2955404" lon="16.2769536"><ele>362.33333333333337</ele><time>2026-05-03T12:21:55.568Z</time></trkpt><trkpt lat="39.2955206" lon="16.2766989"><ele>341.0</ele><time>2026-05-03T12:21:56.585Z</time></trkpt><trkpt lat="39.2955136" lon="16.2764708"><ele>341.0</ele><time>2026-05-03T12:21:57.579Z</time></trkpt><trkpt lat="39.2954816" lon="16.2762327"><ele>341.0</ele><time>2026-05-03T12:21:58.589Z</time></trkpt><trkpt lat="39.2954454" lon="16.2759948"><ele>341.0</ele><time>2026-05-03T12:21:59.585Z</time></trkpt><trkpt lat="39.2953929" lon="16.2757515"><ele>344.0</ele><time>2026-05-03T12:22:00.596Z</time></trkpt><trkpt lat="39.2953292" lon="16.2755099"><ele>347.0</ele><time>2026-05-03T12:22:01.592Z</time></trkpt><trkpt lat="39.2952645" lon="16.2752627"><ele>350.0</ele><time>2026-05-03T12:22:02.592Z</time></trkpt><trkpt lat="39.2952022" lon="16.2750219"><ele>350.0</ele><time>2026-05-03T12:22:03.586Z</time></trkpt><trkpt lat="39.2951434" lon="16.2747956"><ele>350.0</ele><time>2026-05-03T12:22:04.577Z</time></trkpt><trkpt lat="39.295088" lon="16.27459"><ele>350.0</ele><time>2026-05-03T12:22:05.604Z</time></trkpt><trkpt lat="39.2950367" lon="16.2743911"><ele>348.0</ele><time>2026-05-03T12:22:06.599Z</time></trkpt><trkpt lat="39.2949917" lon="16.2742033"><ele>346.0</ele><time>2026-05-03T12:22:07.586Z</time></trkpt><trkpt lat="39.2949485" lon="16.2740177"><ele>344.0</ele><time>2026-05-03T12:22:08.59Z</time></trkpt><trkpt lat="39.294897" lon="16.2738289"><ele>345.6666666666667</ele><time>2026-05-03T12:22:09.579Z</time></trkpt><trkpt lat="39.2948381" lon="16.273624"><ele>347.3333333333333</ele><time>2026-05-03T12:22:10.616Z</time></trkpt><trkpt lat="39.2947816" lon="16.2734083"><ele>349.0</ele><time>2026-05-03T12:22:11.585Z</time></trkpt><trkpt lat="39.2947328" lon="16.2731851"><ele>345.0</ele><time>2026-05-03T12:22:12.584Z</time></trkpt><trkpt lat="39.294711" lon="16.2729432"><ele>341.0</ele><time>2026-05-03T12:22:13.603Z</time></trkpt><trkpt lat="39.2947048" lon="16.2727004"><ele>337.0</ele><time>2026-05-03T12:22:14.591Z</time></trkpt><trkpt lat="39.2947226" lon="16.2724545"><ele>331.66666666666663</ele><time>2026-05-03T12:22:15.598Z</time></trkpt><trkpt lat="39.2947569" lon="16.2722052"><ele>326.3333333333333</ele><time>2026-05-03T12:22:16.593Z</time></trkpt><trkpt lat="39.294811" lon="16.2719613"><ele>321.0</ele><time>2026-05-03T12:22:17.588Z</time></trkpt><trkpt lat="39.2948863" lon="16.2717267"><ele>321.0</ele><time>2026-05-03T12:22:18.585Z</time></trkpt><trkpt lat="39.2949787" lon="16.271495"><ele>321.0</ele><time>2026-05-03T12:22:19.6Z</time></trkpt><trkpt lat="39.2950966" lon="16.2712754"><ele>321.0</ele><time>2026-05-03T12:22:20.599Z</time></trkpt><trkpt lat="39.2952191" lon="16.2710548"><ele>321.0</ele><time>2026-05-03T12:22:21.585Z</time></trkpt><trkpt lat="39.2953353" lon="16.2708419"><ele>321.0</ele><time>2026-05-03T12:22:22.603Z</time></trkpt><trkpt lat="39.2954477" lon="16.2706289"><ele>321.0</ele><time>2026-05-03T12:22:23.591Z</time></trkpt><trkpt lat="39.2955614" lon="16.2704226"><ele>321.0</ele><time>2026-05-03T12:22:24.587Z</time></trkpt><trkpt lat="39.2956708" lon="16.2702263"><ele>321.0</ele><time>2026-05-03T12:22:25.59Z</time></trkpt><trkpt lat="39.2957728" lon="16.2700305"><ele>321.0</ele><time>2026-05-03T12:22:26.584Z</time></trkpt><trkpt lat="39.2958732" lon="16.2698318"><ele>318.0</ele><time>2026-05-03T12:22:27.594Z</time></trkpt><trkpt lat="39.2959785" lon="16.2696299"><ele>315.0</ele><time>2026-05-03T12:22:28.597Z</time></trkpt><trkpt lat="39.296087" lon="16.2694276"><ele>312.0</ele><time>2026-05-03T12:22:29.593Z</time></trkpt><trkpt lat="39.2961986" lon="16.269217"><ele>312.0</ele><time>2026-05-03T12:22:30.588Z</time></trkpt><trkpt lat="39.2963026" lon="16.2689982"><ele>312.0</ele><time>2026-05-03T12:22:31.598Z</time></trkpt><trkpt lat="39.2963853" lon="16.2687665"><ele>312.0</ele><time>2026-05-03T12:22:32.589Z</time></trkpt><trkpt lat="39.296447" lon="16.268518"><ele>316.0</ele><time>2026-05-03T12:22:33.586Z</time></trkpt><trkpt lat="39.2964816" lon="16.2682559"><ele>320.0</ele><time>2026-05-03T12:22:34.584Z</time></trkpt><trkpt lat="39.2964943" lon="16.2679958"><ele>324.0</ele><time>2026-05-03T12:22:35.576Z</time></trkpt><trkpt lat="39.2964894" lon="16.2677383"><ele>324.0</ele><time>2026-05-03T12:22:36.59Z</time></trkpt><trkpt lat="39.2964536" lon="16.2674849"><ele>324.0</ele><time>2026-05-03T12:22:37.589Z</time></trkpt><trkpt lat="39.2963986" lon="16.2672397"><ele>324.0</ele><time>2026-05-03T12:22:38.595Z</time></trkpt><trkpt lat="39.2963179" lon="16.2670056"><ele>324.0</ele><time>2026-05-03T12:22:39.61Z</time></trkpt><trkpt lat="39.2962191" lon="16.2667902"><ele>324.0</ele><time>2026-05-03T12:22:40.583Z</time></trkpt><trkpt lat="39.2961056" lon="16.2665897"><ele>324.0</ele><time>2026-05-03T12:22:41.586Z</time></trkpt><trkpt lat="39.295969" lon="16.2664208"><ele>324.0</ele><time>2026-05-03T12:22:42.582Z</time></trkpt><trkpt lat="39.2958205" lon="16.2662742"><ele>324.0</ele><time>2026-05-03T12:22:43.584Z</time></trkpt><trkpt lat="39.2956601" lon="16.266147"><ele>324.0</ele><time>2026-05-03T12:22:44.59Z</time></trkpt><trkpt lat="39.2954832" lon="16.2660349"><ele>317.3333333333333</ele><time>2026-05-03T12:22:45.583Z</time></trkpt><trkpt lat="39.2952951" lon="16.2659318"><ele>310.66666666666663</ele><time>2026-05-03T12:22:46.581Z</time></trkpt><trkpt lat="39.2950983" lon="16.2658232"><ele>304.0</ele><time>2026-05-03T12:22:47.59Z</time></trkpt><trkpt lat="39.2948988" lon="16.265717"><ele>304.66666666666663</ele><time>2026-05-03T12:22:48.593Z</time></trkpt><trkpt lat="39.2947035" lon="16.2656194"><ele>305.3333333333333</ele><time>2026-05-03T12:22:49.582Z</time></trkpt><trkpt lat="39.2945176" lon="16.2655295"><ele>306.0</ele><time>2026-05-03T12:22:50.6Z</time></trkpt><trkpt lat="39.2943311" lon="16.2654364"><ele>306.0</ele><time>2026-05-03T12:22:51.571Z</time></trkpt><trkpt lat="39.2941457" lon="16.2653422"><ele>306.0</ele><time>2026-05-03T12:22:52.599Z</time></trkpt><trkpt lat="39.293959" lon="16.2652485"><ele>306.0</ele><time>2026-05-03T12:22:53.599Z</time></trkpt><trkpt lat="39.2937671" lon="16.2651551"><ele>300.6666666666667</ele><time>2026-05-03T12:22:54.59Z</time></trkpt><trkpt lat="39.2935787" lon="16.2650621"><ele>295.33333333333337</ele><time>2026-05-03T12:22:55.59Z</time></trkpt><trkpt lat="39.2934048" lon="16.2649648"><ele>290.0</ele><time>2026-05-03T12:22:56.574Z</time></trkpt><trkpt lat="39.2932448" lon="16.2648882"><ele>290.0</ele><time>2026-05-03T12:22:57.585Z</time></trkpt><trkpt lat="39.2931024" lon="16.2648129"><ele>290.0</ele><time>2026-05-03T12:22:58.594Z</time></trkpt><trkpt lat="39.2929762" lon="16.2647384"><ele>290.0</ele><time>2026-05-03T12:22:59.575Z</time></trkpt><trkpt lat="39.2928655" lon="16.2646672"><ele>290.0</ele><time>2026-05-03T12:23:00.595Z</time></trkpt><trkpt lat="39.2927633" lon="16.2645888"><ele>291.75</ele><time>2026-05-03T12:23:01.597Z</time></trkpt><trkpt lat="39.2926621" lon="16.264487"><ele>293.5</ele><time>2026-05-03T12:23:02.607Z</time></trkpt><trkpt lat="39.292573" lon="16.2643442"><ele>295.25</ele><time>2026-05-03T12:23:03.586Z</time></trkpt><trkpt lat="39.2924905" lon="16.2641922"><ele>297.0</ele><time>2026-05-03T12:23:04.59Z</time></trkpt><trkpt lat="39.2924245" lon="16.2640242"><ele>297.5</ele><time>2026-05-03T12:23:05.576Z</time></trkpt><trkpt lat="39.2923835" lon="16.2638358"><ele>298.0</ele><time>2026-05-03T12:23:06.604Z</time></trkpt><trkpt lat="39.2923711" lon="16.2636543"><ele>298.5</ele><time>2026-05-03T12:23:07.582Z</time></trkpt><trkpt lat="39.2923844" lon="16.2634703"><ele>299.0</ele><time>2026-05-03T12:23:08.575Z</time></trkpt><trkpt lat="39.2924181" lon="16.2632839"><ele>295.5</ele><time>2026-05-03T12:23:09.575Z</time></trkpt><trkpt lat="39.2924658" lon="16.2631051"><ele>292.0</ele><time>2026-05-03T12:23:10.584Z</time></trkpt><trkpt lat="39.2925224" lon="16.2629349"><ele>288.5</ele><time>2026-05-03T12:23:11.601Z</time></trkpt><trkpt lat="39.2925863" lon="16.2627793"><ele>285.0</ele><time>2026-05-03T12:23:12.589Z</time></trkpt><trkpt lat="39.2926647" lon="16.2626417"><ele>285.0</ele><time>2026-05-03T12:23:13.577Z</time></trkpt><trkpt lat="39.2927561" lon="16.2625165"><ele>285.0</ele><time>2026-05-03T12:23:14.571Z</time></trkpt><trkpt lat="39.2928606" lon="16.2624073"><ele>285.0</ele><time>2026-05-03T12:23:15.574Z</time></trkpt><trkpt lat="39.2929775" lon="16.2623198"><ele>285.0</ele><time>2026-05-03T12:23:16.559Z</time></trkpt><trkpt lat="39.2931071" lon="16.2622508"><ele>280.25</ele><time>2026-05-03T12:23:17.571Z</time></trkpt><trkpt lat="39.2932472" lon="16.2622077"><ele>275.5</ele><time>2026-05-03T12:23:18.599Z</time></trkpt><trkpt lat="39.2933861" lon="16.2621903"><ele>270.75</ele><time>2026-05-03T12:23:19.57Z</time></trkpt><trkpt lat="39.2935323" lon="16.262208"><ele>266.0</ele><time>2026-05-03T12:23:20.57Z</time></trkpt><trkpt lat="39.2936728" lon="16.2622648"><ele>268.33333333333337</ele><time>2026-05-03T12:23:21.572Z</time></trkpt><trkpt lat="39.2938207" lon="16.2623342"><ele>270.6666666666667</ele><time>2026-05-03T12:23:22.571Z</time></trkpt><trkpt lat="39.2939628" lon="16.2624177"><ele>273.0</ele><time>2026-05-03T12:23:23.566Z</time></trkpt><trkpt lat="39.2940998" lon="16.2625044"><ele>273.0</ele><time>2026-05-03T12:23:24.587Z</time></trkpt><trkpt lat="39.2942476" lon="16.2625877"><ele>273.0</ele><time>2026-05-03T12:23:25.58Z</time></trkpt><trkpt lat="39.2943944" lon="16.2626781"><ele>273.0</ele><time>2026-05-03T12:23:26.595Z</time></trkpt><trkpt lat="39.2945374" lon="16.2627959"><ele>273.0</ele><time>2026-05-03T12:23:27.586Z</time></trkpt><trkpt lat="39.2946677" lon="16.2629263"><ele>273.0</ele><time>2026-05-03T12:23:28.607Z</time></trkpt><trkpt lat="39.2947985" lon="16.2630755"><ele>273.0</ele><time>2026-05-03T12:23:29.589Z</time></trkpt><trkpt lat="39.294934" lon="16.2632356"><ele>273.6666666666667</ele><time>2026-05-03T12:23:30.57Z</time></trkpt><trkpt lat="39.2950724" lon="16.2633931"><ele>274.33333333333337</ele><time>2026-05-03T12:23:31.583Z</time></trkpt><trkpt lat="39.2952217" lon="16.2635405"><ele>275.0</ele><time>2026-05-03T12:23:32.577Z</time></trkpt><trkpt lat="39.2953934" lon="16.2636668"><ele>275.0</ele><time>2026-05-03T12:23:33.576Z</time></trkpt><trkpt lat="39.2955857" lon="16.2637644"><ele>275.0</ele><time>2026-05-03T12:23:34.58Z</time></trkpt><trkpt lat="39.2957911" lon="16.2638398"><ele>275.0</ele><time>2026-05-03T12:23:35.577Z</time></trkpt><trkpt lat="39.2960077" lon="16.2638914"><ele>273.6666666666667</ele><time>2026-05-03T12:23:36.589Z</time></trkpt><trkpt lat="39.29622" lon="16.2639356"><ele>272.3333333333333</ele><time>2026-05-03T12:23:37.589Z</time></trkpt><trkpt lat="39.2964222" lon="16.2639758"><ele>271.0</ele><time>2026-05-03T12:23:38.585Z</time></trkpt><trkpt lat="39.2966146" lon="16.2640289"><ele>271.0</ele><time>2026-05-03T12:23:39.595Z</time></trkpt><trkpt lat="39.2968013" lon="16.2641023"><ele>271.0</ele><time>2026-05-03T12:23:40.587Z</time></trkpt><trkpt lat="39.296985" lon="16.2641991"><ele>271.0</ele><time>2026-05-03T12:23:41.586Z</time></trkpt><trkpt lat="39.297169" lon="16.2643194"><ele>261.3333333333333</ele><time>2026-05-03T12:23:42.581Z</time></trkpt><trkpt lat="39.2973547" lon="16.264452"><ele>251.66666666666669</ele><time>2026-05-03T12:23:43.589Z</time></trkpt><trkpt lat="39.2975395" lon="16.2645908"><ele>242.0</ele><time>2026-05-03T12:23:44.58Z</time></trkpt><trkpt lat="39.2977276" lon="16.2647006"><ele>248.66666666666669</ele><time>2026-05-03T12:23:45.576Z</time></trkpt><trkpt lat="39.2979192" lon="16.2648001"><ele>255.33333333333331</ele><time>2026-05-03T12:23:46.595Z</time></trkpt><trkpt lat="39.2981154" lon="16.2648749"><ele>262.0</ele><time>2026-05-03T12:23:47.578Z</time></trkpt><trkpt lat="39.2983208" lon="16.2649196"><ele>262.0</ele><time>2026-05-03T12:23:48.587Z</time></trkpt><trkpt lat="39.2985312" lon="16.2649482"><ele>262.0</ele><time>2026-05-03T12:23:49.588Z</time></trkpt><trkpt lat="39.2987458" lon="16.2649499"><ele>262.0</ele><time>2026-05-03T12:23:50.595Z</time></trkpt><trkpt lat="39.2989562" lon="16.264936"><ele>260.3333333333333</ele><time>2026-05-03T12:23:51.591Z</time></trkpt><trkpt lat="39.2991607" lon="16.2649187"><ele>258.6666666666667</ele><time>2026-05-03T12:23:52.592Z</time></trkpt><trkpt lat="39.299363" lon="16.2649228"><ele>257.0</ele><time>2026-05-03T12:23:53.59Z</time></trkpt><trkpt lat="39.2995653" lon="16.2649474"><ele>252.66666666666669</ele><time>2026-05-03T12:23:54.588Z</time></trkpt><trkpt lat="39.2997684" lon="16.2649878"><ele>248.33333333333331</ele><time>2026-05-03T12:23:55.586Z</time></trkpt><trkpt lat="39.2999723" lon="16.2650406"><ele>244.0</ele><time>2026-05-03T12:23:56.574Z</time></trkpt><trkpt lat="39.3001802" lon="16.2651151"><ele>244.0</ele><time>2026-05-03T12:23:57.576Z</time></trkpt><trkpt lat="39.3003817" lon="16.2652015"><ele>244.0</ele><time>2026-05-03T12:23:58.581Z</time></trkpt><trkpt lat="39.3005791" lon="16.2652749"><ele>244.0</ele><time>2026-05-03T12:23:59.569Z</time></trkpt><trkpt lat="39.3007702" lon="16.2653407"><ele>239.33333333333331</ele><time>2026-05-03T12:24:00.588Z</time></trkpt><trkpt lat="39.3009608" lon="16.2653796"><ele>234.66666666666669</ele><time>2026-05-03T12:24:01.587Z</time></trkpt><trkpt lat="39.3011538" lon="16.2653827"><ele>230.0</ele><time>2026-05-03T12:24:02.594Z</time></trkpt><trkpt lat="39.3013587" lon="16.2653732"><ele>229.0</ele><time>2026-05-03T12:24:03.585Z</time></trkpt><trkpt lat="39.3015568" lon="16.2653337"><ele>228.0</ele><time>2026-05-03T12:24:04.582Z</time></trkpt><trkpt lat="39.3017555" lon="16.265266"><ele>227.0</ele><time>2026-05-03T12:24:05.586Z</time></trkpt><trkpt lat="39.3019481" lon="16.2651663"><ele>227.0</ele><time>2026-05-03T12:24:06.597Z</time></trkpt><trkpt lat="39.3021331" lon="16.2650324"><ele>227.0</ele><time>2026-05-03T12:24:07.603Z</time></trkpt><trkpt lat="39.3023022" lon="16.2648737"><ele>227.0</ele><time>2026-05-03T12:24:08.582Z</time></trkpt><trkpt lat="39.3024637" lon="16.2646884"><ele>224.33333333333334</ele><time>2026-05-03T12:24:09.567Z</time></trkpt><trkpt lat="39.3026198" lon="16.2645118"><ele>221.66666666666669</ele><time>2026-05-03T12:24:10.598Z</time></trkpt><trkpt lat="39.3027733" lon="16.2643387"><ele>219.0</ele><time>2026-05-03T12:24:11.591Z</time></trkpt><trkpt lat="39.3029156" lon="16.264179"><ele>219.0</ele><time>2026-05-03T12:24:12.592Z</time></trkpt><trkpt lat="39.3030572" lon="16.2640184"><ele>219.0</ele><time>2026-05-03T12:24:13.584Z</time></trkpt><trkpt lat="39.3031974" lon="16.2638592"><ele>219.0</ele><time>2026-05-03T12:24:14.601Z</time></trkpt><trkpt lat="39.3033409" lon="16.2637096"><ele>218.66666666666669</ele><time>2026-05-03T12:24:15.593Z</time></trkpt><trkpt lat="39.3034807" lon="16.2635689"><ele>218.33333333333334</ele><time>2026-05-03T12:24:16.597Z</time></trkpt><trkpt lat="39.3036334" lon="16.2634526"><ele>218.0</ele><time>2026-05-03T12:24:17.609Z</time></trkpt><trkpt lat="39.3037986" lon="16.2633537"><ele>217.66666666666669</ele><time>2026-05-03T12:24:18.602Z</time></trkpt><trkpt lat="39.3039679" lon="16.2632889"><ele>217.33333333333331</ele><time>2026-05-03T12:24:19.59Z</time></trkpt><trkpt lat="39.3041354" lon="16.263241"><ele>217.0</ele><time>2026-05-03T12:24:20.591Z</time></trkpt><trkpt lat="39.3043042" lon="16.263203"><ele>217.0</ele><time>2026-05-03T12:24:21.596Z</time></trkpt><trkpt lat="39.3044736" lon="16.2631679"><ele>217.0</ele><time>2026-05-03T12:24:22.586Z</time></trkpt><trkpt lat="39.3046494" lon="16.26315"><ele>217.0</ele><time>2026-05-03T12:24:23.588Z</time></trkpt><trkpt lat="39.3048248" lon="16.2631326"><ele>217.0</ele><time>2026-05-03T12:24:24.6Z</time></trkpt><trkpt lat="39.3050068" lon="16.263115"><ele>217.0</ele><time>2026-05-03T12:24:25.59Z</time></trkpt><trkpt lat="39.3051902" lon="16.2630951"><ele>217.0</ele><time>2026-05-03T12:24:26.595Z</time></trkpt><trkpt lat="39.305375" lon="16.2630664"><ele>216.0</ele><time>2026-05-03T12:24:27.59Z</time></trkpt><trkpt lat="39.3055608" lon="16.2630389"><ele>215.0</ele><time>2026-05-03T12:24:28.583Z</time></trkpt><trkpt lat="39.305743" lon="16.2630174"><ele>214.0</ele><time>2026-05-03T12:24:29.584Z</time></trkpt><trkpt lat="39.3059188" lon="16.2629988"><ele>213.33333333333331</ele><time>2026-05-03T12:24:30.586Z</time></trkpt><trkpt lat="39.3060896" lon="16.2629732"><ele>212.66666666666669</ele><time>2026-05-03T12:24:31.6Z</time></trkpt><trkpt lat="39.306261" lon="16.2629479"><ele>212.0</ele><time>2026-05-03T12:24:32.613Z</time></trkpt><trkpt lat="39.3064315" lon="16.2629273"><ele>211.0</ele><time>2026-05-03T12:24:33.593Z</time></trkpt><trkpt lat="39.3066037" lon="16.2629026"><ele>210.0</ele><time>2026-05-03T12:24:34.591Z</time></trkpt><trkpt lat="39.3067763" lon="16.2628789"><ele>209.0</ele><time>2026-05-03T12:24:35.594Z</time></trkpt><trkpt lat="39.3069488" lon="16.2628539"><ele>209.0</ele><time>2026-05-03T12:24:36.589Z</time></trkpt><trkpt lat="39.3071276" lon="16.2628315"><ele>209.0</ele><time>2026-05-03T12:24:37.589Z</time></trkpt><trkpt lat="39.3073115" lon="16.2628098"><ele>209.0</ele><time>2026-05-03T12:24:38.593Z</time></trkpt><trkpt lat="39.3074955" lon="16.2627827"><ele>209.0</ele><time>2026-05-03T12:24:39.595Z</time></trkpt><trkpt lat="39.3076822" lon="16.2627551"><ele>209.0</ele><time>2026-05-03T12:24:40.592Z</time></trkpt><trkpt lat="39.3078752" lon="16.2627339"><ele>209.0</ele><time>2026-05-03T12:24:41.598Z</time></trkpt><trkpt lat="39.3080725" lon="16.2627187"><ele>209.0</ele><time>2026-05-03T12:24:42.608Z</time></trkpt><trkpt lat="39.3082714" lon="16.2627136"><ele>209.0</ele><time>2026-05-03T12:24:43.586Z</time></trkpt><trkpt lat="39.3084748" lon="16.2627119"><ele>209.0</ele><time>2026-05-03T12:24:44.584Z</time></trkpt><trkpt lat="39.3086801" lon="16.2627119"><ele>209.0</ele><time>2026-05-03T12:24:45.588Z</time></trkpt><trkpt lat="39.3088846" lon="16.2627148"><ele>209.0</ele><time>2026-05-03T12:24:46.591Z</time></trkpt><trkpt lat="39.3090941" lon="16.2627262"><ele>209.0</ele><time>2026-05-03T12:24:47.583Z</time></trkpt><trkpt lat="39.3093008" lon="16.2627363"><ele>209.0</ele><time>2026-05-03T12:24:48.587Z</time></trkpt><trkpt lat="39.3095045" lon="16.2627556"><ele>209.0</ele><time>2026-05-03T12:24:49.587Z</time></trkpt><trkpt lat="39.3096979" lon="16.2627746"><ele>209.0</ele><time>2026-05-03T12:24:50.585Z</time></trkpt><trkpt lat="39.3098732" lon="16.2627816"><ele>208.33333333333334</ele><time>2026-05-03T12:24:51.591Z</time></trkpt><trkpt lat="39.3100444" lon="16.2627819"><ele>207.66666666666669</ele><time>2026-05-03T12:24:52.585Z</time></trkpt><trkpt lat="39.310205" lon="16.2627685"><ele>207.0</ele><time>2026-05-03T12:24:53.585Z</time></trkpt><trkpt lat="39.3103656" lon="16.2627416"><ele>207.0</ele><time>2026-05-03T12:24:54.59Z</time></trkpt><trkpt lat="39.3105288" lon="16.2626849"><ele>207.0</ele><time>2026-05-03T12:24:55.59Z</time></trkpt><trkpt lat="39.3106849" lon="16.2626066"><ele>207.0</ele><time>2026-05-03T12:24:56.592Z</time></trkpt><trkpt lat="39.310834" lon="16.2625148"><ele>207.0</ele><time>2026-05-03T12:24:57.59Z</time></trkpt><trkpt lat="39.3109688" lon="16.2624044"><ele>207.0</ele><time>2026-05-03T12:24:58.597Z</time></trkpt><trkpt lat="39.3110911" lon="16.2622882"><ele>207.0</ele><time>2026-05-03T12:24:59.588Z</time></trkpt><trkpt lat="39.3112134" lon="16.2621671"><ele>207.0</ele><time>2026-05-03T12:25:00.6Z</time></trkpt><trkpt lat="39.3113269" lon="16.2620313"><ele>207.0</ele><time>2026-05-03T12:25:01.591Z</time></trkpt><trkpt lat="39.3114285" lon="16.2619025"><ele>207.0</ele><time>2026-05-03T12:25:02.599Z</time></trkpt><trkpt lat="39.311534" lon="16.2617819"><ele>207.0</ele><time>2026-05-03T12:25:03.581Z</time></trkpt><trkpt lat="39.3116459" lon="16.2616575"><ele>207.0</ele><time>2026-05-03T12:25:04.581Z</time></trkpt><trkpt lat="39.3117584" lon="16.2615297"><ele>207.0</ele><time>2026-05-03T12:25:05.57Z</time></trkpt><trkpt lat="39.3118724" lon="16.261397"><ele>207.0</ele><time>2026-05-03T12:25:06.57Z</time></trkpt><trkpt lat="39.3119899" lon="16.2612642"><ele>207.0</ele><time>2026-05-03T12:25:07.577Z</time></trkpt><trkpt lat="39.3121107" lon="16.2611217"><ele>207.0</ele><time>2026-05-03T12:25:08.566Z</time></trkpt><trkpt lat="39.3122356" lon="16.2609792"><ele>207.0</ele><time>2026-05-03T12:25:09.568Z</time></trkpt><trkpt lat="39.3123609" lon="16.260826"><ele>207.33333333333331</ele><time>2026-05-03T12:25:10.583Z</time></trkpt><trkpt lat="39.3124867" lon="16.2606777"><ele>207.66666666666666</ele><time>2026-05-03T12:25:11.587Z</time></trkpt><trkpt lat="39.3126073" lon="16.2605368"><ele>208.0</ele><time>2026-05-03T12:25:12.58Z</time></trkpt><trkpt lat="39.3127251" lon="16.2604043"><ele>207.5</ele><time>2026-05-03T12:25:13.597Z</time></trkpt><trkpt lat="39.3128355" lon="16.2602792"><ele>207.0</ele><time>2026-05-03T12:25:14.599Z</time></trkpt><trkpt lat="39.3129313" lon="16.2601597"><ele>206.5</ele><time>2026-05-03T12:25:15.605Z</time></trkpt><trkpt lat="39.313019" lon="16.2600482"><ele>206.0</ele><time>2026-05-03T12:25:16.582Z</time></trkpt><trkpt lat="39.3131107" lon="16.2599482"><ele>206.0</ele><time>2026-05-03T12:25:17.596Z</time></trkpt><trkpt lat="39.3132061" lon="16.2598489"><ele>206.0</ele><time>2026-05-03T12:25:18.593Z</time></trkpt><trkpt lat="39.3133126" lon="16.2597495"><ele>206.0</ele><time>2026-05-03T12:25:19.585Z</time></trkpt><trkpt lat="39.3134248" lon="16.2596462"><ele>206.0</ele><time>2026-05-03T12:25:20.598Z</time></trkpt><trkpt lat="39.3135347" lon="16.259554"><ele>206.0</ele><time>2026-05-03T12:25:21.592Z</time></trkpt><trkpt lat="39.3136397" lon="16.2594725"><ele>206.0</ele><time>2026-05-03T12:25:22.593Z</time></trkpt><trkpt lat="39.3137372" lon="16.2593993"><ele>206.0</ele><time>2026-05-03T12:25:23.59Z</time></trkpt><trkpt lat="39.3138333" lon="16.2593262"><ele>206.0</ele><time>2026-05-03T12:25:24.589Z</time></trkpt><trkpt lat="39.3139331" lon="16.2592544"><ele>205.25</ele><time>2026-05-03T12:25:25.587Z</time></trkpt><trkpt lat="39.3140407" lon="16.2591807"><ele>204.5</ele><time>2026-05-03T12:25:26.583Z</time></trkpt><trkpt lat="39.3141512" lon="16.2591064"><ele>203.75</ele><time>2026-05-03T12:25:27.596Z</time></trkpt><trkpt lat="39.3142549" lon="16.2590429"><ele>203.0</ele><time>2026-05-03T12:25:28.598Z</time></trkpt><trkpt lat="39.3143502" lon="16.2589856"><ele>202.8</ele><time>2026-05-03T12:25:29.591Z</time></trkpt><trkpt lat="39.314435" lon="16.2589332"><ele>202.60000000000002</ele><time>2026-05-03T12:25:30.59Z</time></trkpt><trkpt lat="39.3145248" lon="16.2588781"><ele>202.39999999999998</ele><time>2026-05-03T12:25:31.597Z</time></trkpt><trkpt lat="39.3146179" lon="16.2588327"><ele>202.2</ele><time>2026-05-03T12:25:32.589Z</time></trkpt><trkpt lat="39.3147227" lon="16.2587936"><ele>202.0</ele><time>2026-05-03T12:25:33.573Z</time></trkpt><trkpt lat="39.3148424" lon="16.2587467"><ele>202.0</ele><time>2026-05-03T12:25:34.587Z</time></trkpt><trkpt lat="39.3149701" lon="16.2586966"><ele>202.0</ele><time>2026-05-03T12:25:35.59Z</time></trkpt><trkpt lat="39.3151054" lon="16.2586499"><ele>202.0</ele><time>2026-05-03T12:25:36.585Z</time></trkpt><trkpt lat="39.315249" lon="16.258607"><ele>202.0</ele><time>2026-05-03T12:25:37.59Z</time></trkpt><trkpt lat="39.3153958" lon="16.2585727"><ele>202.0</ele><time>2026-05-03T12:25:38.59Z</time></trkpt><trkpt lat="39.3155257" lon="16.2585455"><ele>202.0</ele><time>2026-05-03T12:25:39.599Z</time></trkpt><trkpt lat="39.3156469" lon="16.2585097"><ele>202.0</ele><time>2026-05-03T12:25:40.603Z</time></trkpt><trkpt lat="39.3157692" lon="16.2584793"><ele>202.0</ele><time>2026-05-03T12:25:41.58Z</time></trkpt><trkpt lat="39.3158935" lon="16.2584376"><ele>202.25</ele><time>2026-05-03T12:25:42.591Z</time></trkpt><trkpt lat="39.3160183" lon="16.2584059"><ele>202.5</ele><time>2026-05-03T12:25:43.583Z</time></trkpt><trkpt lat="39.3161402" lon="16.2583731"><ele>202.75</ele><time>2026-05-03T12:25:44.594Z</time></trkpt><trkpt lat="39.3162637" lon="16.2583356"><ele>203.0</ele><time>2026-05-03T12:25:45.578Z</time></trkpt><trkpt lat="39.3163853" lon="16.2583031"><ele>202.75</ele><time>2026-05-03T12:25:46.595Z</time></trkpt><trkpt lat="39.3165035" lon="16.2582651"><ele>202.5</ele><time>2026-05-03T12:25:47.597Z</time></trkpt><trkpt lat="39.3166278" lon="16.2582195"><ele>202.25</ele><time>2026-05-03T12:25:48.601Z</time></trkpt><trkpt lat="39.3167604" lon="16.2581786"><ele>202.0</ele><time>2026-05-03T12:25:49.604Z</time></trkpt><trkpt lat="39.316894" lon="16.258133"><ele>201.25</ele><time>2026-05-03T12:25:50.584Z</time></trkpt><trkpt lat="39.3170252" lon="16.2580888"><ele>200.5</ele><time>2026-05-03T12:25:51.584Z</time></trkpt><trkpt lat="39.3171608" lon="16.2580506"><ele>199.75</ele><time>2026-05-03T12:25:52.601Z</time></trkpt><trkpt lat="39.3173007" lon="16.2580105"><ele>199.0</ele><time>2026-05-03T12:25:53.593Z</time></trkpt><trkpt lat="39.3174404" lon="16.25797"><ele>198.79999999999998</ele><time>2026-05-03T12:25:54.595Z</time></trkpt><trkpt lat="39.3175787" lon="16.2579278"><ele>198.6</ele><time>2026-05-03T12:25:55.579Z</time></trkpt><trkpt lat="39.3177019" lon="16.2578934"><ele>198.4</ele><time>2026-05-03T12:25:56.601Z</time></trkpt><trkpt lat="39.3177964" lon="16.2578612"><ele>198.2</ele><time>2026-05-03T12:25:57.59Z</time></trkpt><trkpt lat="39.3178684" lon="16.257831"><ele>198.0</ele><time>2026-05-03T12:25:58.602Z</time></trkpt><trkpt lat="39.3179656" lon="16.257745"><ele>198.0</ele><time>2026-05-03T12:26:00.594Z</time></trkpt><trkpt lat="39.3179896" lon="16.2576211"><ele>198.0</ele><time>2026-05-03T12:26:02.63Z</time></trkpt><trkpt lat="39.3179502" lon="16.257513"><ele>198.0</ele><time>2026-05-03T12:26:04.609Z</time></trkpt><trkpt lat="39.3178924" lon="16.2574655"><ele>198.0</ele><time>2026-05-03T12:26:26.603Z</time></trkpt><trkpt lat="39.3178175" lon="16.257443"><ele>198.0</ele><time>2026-05-03T12:26:28.596Z</time></trkpt><trkpt lat="39.317749" lon="16.2574499"><ele>198.0</ele><time>2026-05-03T12:26:29.61Z</time></trkpt><trkpt lat="39.3176677" lon="16.2574558"><ele>198.0</ele><time>2026-05-03T12:26:30.626Z</time></trkpt><trkpt lat="39.3175816" lon="16.2574725"><ele>198.0</ele><time>2026-05-03T12:26:31.584Z</time></trkpt><trkpt lat="39.3174946" lon="16.257492"><ele>198.0</ele><time>2026-05-03T12:26:32.618Z</time></trkpt><trkpt lat="39.3173948" lon="16.2575227"><ele>198.0</ele><time>2026-05-03T12:26:33.609Z</time></trkpt><trkpt lat="39.3172861" lon="16.2575598"><ele>198.0</ele><time>2026-05-03T12:26:34.606Z</time></trkpt><trkpt lat="39.3171713" lon="16.2575953"><ele>198.25</ele><time>2026-05-03T12:26:35.626Z</time></trkpt><trkpt lat="39.3170566" lon="16.2576311"><ele>198.5</ele><time>2026-05-03T12:26:36.609Z</time></trkpt><trkpt lat="39.3169352" lon="16.2576673"><ele>198.75</ele><time>2026-05-03T12:26:37.612Z</time></trkpt><trkpt lat="39.3168118" lon="16.2577"><ele>199.0</ele><time>2026-05-03T12:26:38.608Z</time></trkpt><trkpt lat="39.3166924" lon="16.2577282"><ele>199.0</ele><time>2026-05-03T12:26:39.581Z</time></trkpt><trkpt lat="39.3165742" lon="16.2577609"><ele>199.0</ele><time>2026-05-03T12:26:40.586Z</time></trkpt><trkpt lat="39.3164564" lon="16.2577934"><ele>199.0</ele><time>2026-05-03T12:26:41.589Z</time></trkpt><trkpt lat="39.3163422" lon="16.2578206"><ele>199.0</ele><time>2026-05-03T12:26:42.585Z</time></trkpt><trkpt lat="39.3162249" lon="16.2578426"><ele>199.75</ele><time>2026-05-03T12:26:43.601Z</time></trkpt><trkpt lat="39.31611" lon="16.2578714"><ele>200.5</ele><time>2026-05-03T12:26:44.588Z</time></trkpt><trkpt lat="39.3159931" lon="16.25791"><ele>201.25</ele><time>2026-05-03T12:26:45.612Z</time></trkpt><trkpt lat="39.3158685" lon="16.2579521"><ele>202.0</ele><time>2026-05-03T12:26:46.598Z</time></trkpt><trkpt lat="39.3157431" lon="16.2579892"><ele>202.0</ele><time>2026-05-03T12:26:47.597Z</time></trkpt><trkpt lat="39.315619" lon="16.2580238"><ele>202.0</ele><time>2026-05-03T12:26:48.596Z</time></trkpt><trkpt lat="39.3154998" lon="16.258059"><ele>202.0</ele><time>2026-05-03T12:26:49.587Z</time></trkpt><trkpt lat="39.3153848" lon="16.2580897"><ele>202.0</ele><time>2026-05-03T12:26:50.605Z</time></trkpt><trkpt lat="39.3152706" lon="16.2581183"><ele>202.0</ele><time>2026-05-03T12:26:51.595Z</time></trkpt><trkpt lat="39.3151593" lon="16.2581479"><ele>202.0</ele><time>2026-05-03T12:26:52.602Z</time></trkpt><trkpt lat="39.3150428" lon="16.2581799"><ele>202.0</ele><time>2026-05-03T12:26:53.598Z</time></trkpt><trkpt lat="39.3149266" lon="16.2582164"><ele>202.0</ele><time>2026-05-03T12:26:54.601Z</time></trkpt><trkpt lat="39.3148046" lon="16.2582549"><ele>201.75</ele><time>2026-05-03T12:26:55.588Z</time></trkpt><trkpt lat="39.3146778" lon="16.2582858"><ele>201.5</ele><time>2026-05-03T12:26:56.609Z</time></trkpt><trkpt lat="39.3145583" lon="16.2583177"><ele>201.25</ele><time>2026-05-03T12:26:57.599Z</time></trkpt><trkpt lat="39.314447" lon="16.2583462"><ele>201.0</ele><time>2026-05-03T12:26:58.601Z</time></trkpt><trkpt lat="39.3143388" lon="16.2583666"><ele>201.0</ele><time>2026-05-03T12:26:59.586Z</time></trkpt><trkpt lat="39.314236" lon="16.2583658"><ele>201.0</ele><time>2026-05-03T12:27:00.603Z</time></trkpt><trkpt lat="39.3141285" lon="16.2583464"><ele>201.0</ele><time>2026-05-03T12:27:01.604Z</time></trkpt><trkpt lat="39.314013" lon="16.2582989"><ele>201.0</ele><time>2026-05-03T12:27:02.583Z</time></trkpt><trkpt lat="39.3139007" lon="16.2582304"><ele>201.5</ele><time>2026-05-03T12:27:03.61Z</time></trkpt><trkpt lat="39.3138028" lon="16.258137"><ele>202.0</ele><time>2026-05-03T12:27:04.613Z</time></trkpt><trkpt lat="39.3137135" lon="16.2580309"><ele>202.5</ele><time>2026-05-03T12:27:05.616Z</time></trkpt><trkpt lat="39.3136252" lon="16.2579141"><ele>203.0</ele><time>2026-05-03T12:27:06.627Z</time></trkpt><trkpt lat="39.3135523" lon="16.2577907"><ele>203.5</ele><time>2026-05-03T12:27:07.606Z</time></trkpt><trkpt lat="39.313488" lon="16.2576678"><ele>204.0</ele><time>2026-05-03T12:27:08.607Z</time></trkpt><trkpt lat="39.3134207" lon="16.2575512"><ele>204.5</ele><time>2026-05-03T12:27:09.602Z</time></trkpt><trkpt lat="39.3133514" lon="16.2574221"><ele>205.0</ele><time>2026-05-03T12:27:10.592Z</time></trkpt><trkpt lat="39.3132817" lon="16.2573011"><ele>205.25</ele><time>2026-05-03T12:27:11.6Z</time></trkpt><trkpt lat="39.3132144" lon="16.2571823"><ele>205.5</ele><time>2026-05-03T12:27:12.61Z</time></trkpt><trkpt lat="39.3131514" lon="16.2570567"><ele>205.75</ele><time>2026-05-03T12:27:13.607Z</time></trkpt><trkpt lat="39.3130838" lon="16.2569238"><ele>206.0</ele><time>2026-05-03T12:27:14.602Z</time></trkpt><trkpt lat="39.3130083" lon="16.2567807"><ele>206.0</ele><time>2026-05-03T12:27:15.576Z</time></trkpt><trkpt lat="39.3129369" lon="16.2566254"><ele>206.0</ele><time>2026-05-03T12:27:16.583Z</time></trkpt><trkpt lat="39.3128603" lon="16.2564696"><ele>206.0</ele><time>2026-05-03T12:27:17.575Z</time></trkpt><trkpt lat="39.3127825" lon="16.2563114"><ele>206.0</ele><time>2026-05-03T12:27:18.608Z</time></trkpt><trkpt lat="39.3126988" lon="16.2561536"><ele>206.75</ele><time>2026-05-03T12:27:19.603Z</time></trkpt><trkpt lat="39.3126149" lon="16.2560019"><ele>207.5</ele><time>2026-05-03T12:27:20.611Z</time></trkpt><trkpt lat="39.3125319" lon="16.2558516"><ele>208.25</ele><time>2026-05-03T12:27:21.582Z</time></trkpt><trkpt lat="39.3124487" lon="16.2557024"><ele>209.0</ele><time>2026-05-03T12:27:22.591Z</time></trkpt><trkpt lat="39.3123691" lon="16.2555515"><ele>209.5</ele><time>2026-05-03T12:27:23.577Z</time></trkpt><trkpt lat="39.3122907" lon="16.2553981"><ele>210.0</ele><time>2026-05-03T12:27:24.587Z</time></trkpt><trkpt lat="39.3122092" lon="16.2552391"><ele>210.5</ele><time>2026-05-03T12:27:25.576Z</time></trkpt><trkpt lat="39.3121282" lon="16.255081"><ele>211.0</ele><time>2026-05-03T12:27:26.584Z</time></trkpt><trkpt lat="39.3120371" lon="16.2549158"><ele>211.66666666666666</ele><time>2026-05-03T12:27:27.579Z</time></trkpt><trkpt lat="39.3119483" lon="16.2547548"><ele>212.33333333333331</ele><time>2026-05-03T12:27:28.607Z</time></trkpt><trkpt lat="39.3118545" lon="16.2545871"><ele>213.0</ele><time>2026-05-03T12:27:29.614Z</time></trkpt><trkpt lat="39.3117546" lon="16.2544103"><ele>213.0</ele><time>2026-05-03T12:27:30.607Z</time></trkpt><trkpt lat="39.3116499" lon="16.254236"><ele>213.0</ele><time>2026-05-03T12:27:31.61Z</time></trkpt><trkpt lat="39.3115381" lon="16.2540622"><ele>213.0</ele><time>2026-05-03T12:27:32.6Z</time></trkpt><trkpt lat="39.3114155" lon="16.2538858"><ele>213.66666666666669</ele><time>2026-05-03T12:27:33.576Z</time></trkpt><trkpt lat="39.3112819" lon="16.2537103"><ele>214.33333333333334</ele><time>2026-05-03T12:27:34.603Z</time></trkpt><trkpt lat="39.3111433" lon="16.253533"><ele>215.0</ele><time>2026-05-03T12:27:35.589Z</time></trkpt><trkpt lat="39.3110069" lon="16.2533448"><ele>215.0</ele><time>2026-05-03T12:27:36.61Z</time></trkpt><trkpt lat="39.3108624" lon="16.2531607"><ele>215.0</ele><time>2026-05-03T12:27:37.616Z</time></trkpt><trkpt lat="39.3107187" lon="16.2529726"><ele>215.0</ele><time>2026-05-03T12:27:38.615Z</time></trkpt><trkpt lat="39.3105796" lon="16.252776"><ele>217.66666666666669</ele><time>2026-05-03T12:27:39.593Z</time></trkpt><trkpt lat="39.3104448" lon="16.2525865"><ele>220.33333333333331</ele><time>2026-05-03T12:27:40.598Z</time></trkpt><trkpt lat="39.3103119" lon="16.2524041"><ele>223.0</ele><time>2026-05-03T12:27:41.6Z</time></trkpt><trkpt lat="39.3101965" lon="16.2522277"><ele>224.0</ele><time>2026-05-03T12:27:42.59Z</time></trkpt><trkpt lat="39.3100979" lon="16.252058"><ele>225.0</ele><time>2026-05-03T12:27:43.602Z</time></trkpt><trkpt lat="39.3100082" lon="16.2519087"><ele>226.0</ele><time>2026-05-03T12:27:44.619Z</time></trkpt><trkpt lat="39.3099421" lon="16.2517857"><ele>227.0</ele><time>2026-05-03T12:27:45.601Z</time></trkpt><trkpt lat="39.3098921" lon="16.2516596"><ele>227.00000000000003</ele><time>2026-05-03T12:27:46.594Z</time></trkpt><trkpt lat="39.3098431" lon="16.2515499"><ele>227.0</ele><time>2026-05-03T12:27:47.579Z</time></trkpt><trkpt lat="39.3097969" lon="16.2514461"><ele>227.0</ele><time>2026-05-03T12:27:48.596Z</time></trkpt><trkpt lat="39.3097616" lon="16.251342"><ele>227.0</ele><time>2026-05-03T12:27:49.579Z</time></trkpt><trkpt lat="39.3097313" lon="16.2512481"><ele>227.00000000000003</ele><time>2026-05-03T12:27:50.596Z</time></trkpt><trkpt lat="39.3097007" lon="16.2511419"><ele>227.0</ele><time>2026-05-03T12:27:51.623Z</time></trkpt><trkpt lat="39.3096704" lon="16.2510355"><ele>227.25</ele><time>2026-05-03T12:27:52.621Z</time></trkpt><trkpt lat="39.3096458" lon="16.2509231"><ele>227.5</ele><time>2026-05-03T12:27:53.608Z</time></trkpt><trkpt lat="39.3096198" lon="16.2507916"><ele>227.75</ele><time>2026-05-03T12:27:54.612Z</time></trkpt><trkpt lat="39.3095935" lon="16.2506309"><ele>228.0</ele><time>2026-05-03T12:27:55.596Z</time></trkpt><trkpt lat="39.3095704" lon="16.2504405"><ele>229.0</ele><time>2026-05-03T12:27:56.607Z</time></trkpt><trkpt lat="39.309556" lon="16.250237"><ele>230.0</ele><time>2026-05-03T12:27:57.604Z</time></trkpt><trkpt lat="39.3095538" lon="16.2500237"><ele>231.0</ele><time>2026-05-03T12:27:58.61Z</time></trkpt><trkpt lat="39.3095587" lon="16.2498075"><ele>233.33333333333331</ele><time>2026-05-03T12:27:59.618Z</time></trkpt><trkpt lat="39.3095553" lon="16.249583"><ele>235.66666666666666</ele><time>2026-05-03T12:28:00.614Z</time></trkpt><trkpt lat="39.3095453" lon="16.2493584"><ele>238.0</ele><time>2026-05-03T12:28:01.616Z</time></trkpt><trkpt lat="39.3095331" lon="16.2491282"><ele>238.0</ele><time>2026-05-03T12:28:02.584Z</time></trkpt><trkpt lat="39.3095273" lon="16.248894"><ele>238.0</ele><time>2026-05-03T12:28:03.582Z</time></trkpt><trkpt lat="39.3095195" lon="16.2486589"><ele>238.0</ele><time>2026-05-03T12:28:04.602Z</time></trkpt><trkpt lat="39.3095049" lon="16.2484263"><ele>238.0</ele><time>2026-05-03T12:28:05.594Z</time></trkpt><trkpt lat="39.3094878" lon="16.2481884"><ele>238.0</ele><time>2026-05-03T12:28:06.579Z</time></trkpt><trkpt lat="39.3094627" lon="16.2479503"><ele>238.0</ele><time>2026-05-03T12:28:07.581Z</time></trkpt><trkpt lat="39.3094332" lon="16.2477149"><ele>238.66666666666666</ele><time>2026-05-03T12:28:08.605Z</time></trkpt><trkpt lat="39.3094094" lon="16.2474831"><ele>239.33333333333331</ele><time>2026-05-03T12:28:09.616Z</time></trkpt><trkpt lat="39.3093895" lon="16.247261"><ele>240.0</ele><time>2026-05-03T12:28:10.602Z</time></trkpt><trkpt lat="39.3093775" lon="16.2470546"><ele>240.0</ele><time>2026-05-03T12:28:11.594Z</time></trkpt><trkpt lat="39.3093643" lon="16.2468606"><ele>240.0</ele><time>2026-05-03T12:28:12.601Z</time></trkpt><trkpt lat="39.3093529" lon="16.246679"><ele>240.0</ele><time>2026-05-03T12:28:13.612Z</time></trkpt><trkpt lat="39.3093388" lon="16.2465176"><ele>240.0</ele><time>2026-05-03T12:28:14.62Z</time></trkpt><trkpt lat="39.3093183" lon="16.2462434"><ele>240.83333333333334</ele><time>2026-05-03T12:28:16.611Z</time></trkpt><trkpt lat="39.3093113" lon="16.2461247"><ele>241.66666666666669</ele><time>2026-05-03T12:28:17.595Z</time></trkpt><trkpt lat="39.3093" lon="16.2460185"><ele>242.5</ele><time>2026-05-03T12:28:18.607Z</time></trkpt><trkpt lat="39.3092866" lon="16.2459357"><ele>243.33333333333334</ele><time>2026-05-03T12:28:19.589Z</time></trkpt><trkpt lat="39.309257" lon="16.2458569"><ele>244.16666666666669</ele><time>2026-05-03T12:28:21.578Z</time></trkpt><trkpt lat="39.3091912" lon="16.2458013"><ele>245.0</ele><time>2026-05-03T12:28:24.601Z</time></trkpt><trkpt lat="39.3091215" lon="16.2457248"><ele>245.00000000000003</ele><time>2026-05-03T12:28:26.591Z</time></trkpt><trkpt lat="39.3090482" lon="16.2456844"><ele>245.0</ele><time>2026-05-03T12:28:27.584Z</time></trkpt><trkpt lat="39.3089749" lon="16.2456738"><ele>245.0</ele><time>2026-05-03T12:28:28.572Z</time></trkpt><trkpt lat="39.3088932" lon="16.2456739"><ele>245.0</ele><time>2026-05-03T12:28:29.583Z</time></trkpt><trkpt lat="39.3087887" lon="16.245673"><ele>245.00000000000003</ele><time>2026-05-03T12:28:30.582Z</time></trkpt><trkpt lat="39.3086824" lon="16.2456727"><ele>245.0</ele><time>2026-05-03T12:28:31.59Z</time></trkpt><trkpt lat="39.3085713" lon="16.24565"><ele>247.75</ele><time>2026-05-03T12:28:32.587Z</time></trkpt><trkpt lat="39.3084508" lon="16.2456261"><ele>250.5</ele><time>2026-05-03T12:28:33.601Z</time></trkpt><trkpt lat="39.3083269" lon="16.2456093"><ele>253.25</ele><time>2026-05-03T12:28:34.61Z</time></trkpt><trkpt lat="39.3081991" lon="16.2455995"><ele>256.0</ele><time>2026-05-03T12:28:35.6Z</time></trkpt><trkpt lat="39.30807" lon="16.2455966"><ele>256.0</ele><time>2026-05-03T12:28:36.6Z</time></trkpt><trkpt lat="39.3079466" lon="16.245601"><ele>256.0</ele><time>2026-05-03T12:28:37.611Z</time></trkpt><trkpt lat="39.3078369" lon="16.2456115"><ele>256.0</ele><time>2026-05-03T12:28:38.606Z</time></trkpt><trkpt lat="39.307741" lon="16.2456191"><ele>256.0</ele><time>2026-05-03T12:28:39.6Z</time></trkpt><trkpt lat="39.3076591" lon="16.2456258"><ele>256.0</ele><time>2026-05-03T12:28:40.597Z</time></trkpt><trkpt lat="39.3075884" lon="16.2456305"><ele>254.66666666666666</ele><time>2026-05-03T12:28:41.614Z</time></trkpt><trkpt lat="39.3075229" lon="16.2456398"><ele>253.33333333333331</ele><time>2026-05-03T12:28:42.589Z</time></trkpt><trkpt lat="39.3074514" lon="16.2456547"><ele>252.0</ele><time>2026-05-03T12:28:43.593Z</time></trkpt><trkpt lat="39.3073788" lon="16.2456798"><ele>250.66666666666669</ele><time>2026-05-03T12:28:44.599Z</time></trkpt><trkpt lat="39.3073034" lon="16.2457151"><ele>249.33333333333334</ele><time>2026-05-03T12:28:45.562Z</time></trkpt><trkpt lat="39.3072241" lon="16.2457206"><ele>248.0</ele><time>2026-05-03T12:28:46.589Z</time></trkpt><trkpt lat="39.3071327" lon="16.2457022"><ele>248.0</ele><time>2026-05-03T12:28:47.585Z</time></trkpt><trkpt lat="39.3070366" lon="16.2456673"><ele>248.0</ele><time>2026-05-03T12:28:48.586Z</time></trkpt><trkpt lat="39.3069349" lon="16.2456208"><ele>248.0</ele><time>2026-05-03T12:28:49.579Z</time></trkpt><trkpt lat="39.3068379" lon="16.2455694"><ele>248.0</ele><time>2026-05-03T12:28:50.588Z</time></trkpt><trkpt lat="39.3067314" lon="16.2455209"><ele>248.0</ele><time>2026-05-03T12:28:51.587Z</time></trkpt><trkpt lat="39.3066257" lon="16.2454768"><ele>249.75</ele><time>2026-05-03T12:28:52.586Z</time></trkpt><trkpt lat="39.3065113" lon="16.245437"><ele>251.5</ele><time>2026-05-03T12:28:53.572Z</time></trkpt><trkpt lat="39.3063891" lon="16.2453995"><ele>253.25</ele><time>2026-05-03T12:28:54.568Z</time></trkpt><trkpt lat="39.3062747" lon="16.2453719"><ele>255.0</ele><time>2026-05-03T12:28:55.558Z</time></trkpt><trkpt lat="39.3061739" lon="16.245348"><ele>255.0</ele><time>2026-05-03T12:28:56.571Z</time></trkpt><trkpt lat="39.3060759" lon="16.2453179"><ele>255.0</ele><time>2026-05-03T12:28:57.582Z</time></trkpt><trkpt lat="39.3059961" lon="16.2452872"><ele>255.0</ele><time>2026-05-03T12:28:58.586Z</time></trkpt><trkpt lat="39.3059335" lon="16.2452536"><ele>255.0</ele><time>2026-05-03T12:28:59.594Z</time></trkpt><trkpt lat="39.305829" lon="16.2451691"><ele>255.0</ele><time>2026-05-03T12:29:01.598Z</time></trkpt><trkpt lat="39.3057936" lon="16.2451017"><ele>255.0</ele><time>2026-05-03T12:29:02.592Z</time></trkpt><trkpt lat="39.3057371" lon="16.2449418"><ele>255.0</ele><time>2026-05-03T12:29:04.581Z</time></trkpt><trkpt lat="39.3057027" lon="16.2448571"><ele>255.0</ele><time>2026-05-03T12:29:05.606Z</time></trkpt><trkpt lat="39.3056163" lon="16.244738"><ele>255.0</ele><time>2026-05-03T12:29:07.607Z</time></trkpt><trkpt lat="39.3055483" lon="16.244694"><ele>255.0</ele><time>2026-05-03T12:29:08.607Z</time></trkpt><trkpt lat="39.3054686" lon="16.24464"><ele>255.0</ele><time>2026-05-03T12:29:09.589Z</time></trkpt><trkpt lat="39.3053972" lon="16.2445713"><ele>255.4</ele><time>2026-05-03T12:29:10.595Z</time></trkpt><trkpt lat="39.305351" lon="16.2444878"><ele>255.8</ele><time>2026-05-03T12:29:11.603Z</time></trkpt><trkpt lat="39.305335" lon="16.2443759"><ele>256.2</ele><time>2026-05-03T12:29:12.582Z</time></trkpt><trkpt lat="39.3053297" lon="16.2442486"><ele>256.6</ele><time>2026-05-03T12:29:13.587Z</time></trkpt><trkpt lat="39.3053131" lon="16.244094"><ele>257.0</ele><time>2026-05-03T12:29:14.586Z</time></trkpt><trkpt lat="39.3052848" lon="16.2439293"><ele>255.66666666666669</ele><time>2026-05-03T12:29:15.587Z</time></trkpt><trkpt lat="39.3052432" lon="16.243764"><ele>254.33333333333331</ele><time>2026-05-03T12:29:16.605Z</time></trkpt><trkpt lat="39.3051497" lon="16.2434331"><ele>253.0</ele><time>2026-05-03T12:29:18.577Z</time></trkpt><trkpt lat="39.3050892" lon="16.2432421"><ele>253.33333333333331</ele><time>2026-05-03T12:29:19.602Z</time></trkpt><trkpt lat="39.3050275" lon="16.2430378"><ele>253.66666666666669</ele><time>2026-05-03T12:29:20.597Z</time></trkpt><trkpt lat="39.3049728" lon="16.2428204"><ele>254.0</ele><time>2026-05-03T12:29:21.587Z</time></trkpt><trkpt lat="39.3049217" lon="16.2425951"><ele>254.0</ele><time>2026-05-03T12:29:22.595Z</time></trkpt><trkpt lat="39.3048597" lon="16.2423607"><ele>254.0</ele><time>2026-05-03T12:29:23.612Z</time></trkpt><trkpt lat="39.3047946" lon="16.2421271"><ele>254.0</ele><time>2026-05-03T12:29:24.606Z</time></trkpt><trkpt lat="39.3047255" lon="16.2418917"><ele>255.33333333333334</ele><time>2026-05-03T12:29:25.593Z</time></trkpt><trkpt lat="39.3046522" lon="16.2416575"><ele>256.6666666666667</ele><time>2026-05-03T12:29:26.584Z</time></trkpt><trkpt lat="39.3045771" lon="16.2414247"><ele>258.0</ele><time>2026-05-03T12:29:27.609Z</time></trkpt><trkpt lat="39.304488" lon="16.2412022"><ele>258.0</ele><time>2026-05-03T12:29:28.585Z</time></trkpt><trkpt lat="39.3043753" lon="16.2409937"><ele>258.0</ele><time>2026-05-03T12:29:29.593Z</time></trkpt><trkpt lat="39.3042458" lon="16.2407884"><ele>258.0</ele><time>2026-05-03T12:29:30.584Z</time></trkpt><trkpt lat="39.3041093" lon="16.2405862"><ele>257.0</ele><time>2026-05-03T12:29:31.614Z</time></trkpt><trkpt lat="39.3039702" lon="16.2403781"><ele>256.0</ele><time>2026-05-03T12:29:32.6Z</time></trkpt><trkpt lat="39.3038307" lon="16.2401798"><ele>255.0</ele><time>2026-05-03T12:29:33.604Z</time></trkpt><trkpt lat="39.3036873" lon="16.2399798"><ele>256.6666666666667</ele><time>2026-05-03T12:29:34.603Z</time></trkpt><trkpt lat="39.3035488" lon="16.2397758"><ele>258.33333333333337</ele><time>2026-05-03T12:29:35.61Z</time></trkpt><trkpt lat="39.3034081" lon="16.2395736"><ele>260.0</ele><time>2026-05-03T12:29:36.615Z</time></trkpt><trkpt lat="39.3032682" lon="16.2393748"><ele>260.0</ele><time>2026-05-03T12:29:37.587Z</time></trkpt><trkpt lat="39.3031244" lon="16.2391732"><ele>260.0</ele><time>2026-05-03T12:29:38.618Z</time></trkpt><trkpt lat="39.3029844" lon="16.2389751"><ele>260.0</ele><time>2026-05-03T12:29:39.595Z</time></trkpt><trkpt lat="39.3028452" lon="16.2387771"><ele>261.6666666666667</ele><time>2026-05-03T12:29:40.584Z</time></trkpt><trkpt lat="39.302706" lon="16.2385773"><ele>263.3333333333333</ele><time>2026-05-03T12:29:41.597Z</time></trkpt><trkpt lat="39.302568" lon="16.2383752"><ele>265.0</ele><time>2026-05-03T12:29:42.606Z</time></trkpt><trkpt lat="39.3024256" lon="16.2381845"><ele>266.0</ele><time>2026-05-03T12:29:43.594Z</time></trkpt><trkpt lat="39.3022827" lon="16.238013"><ele>267.0</ele><time>2026-05-03T12:29:44.575Z</time></trkpt><trkpt lat="39.3021451" lon="16.2378604"><ele>268.0</ele><time>2026-05-03T12:29:45.593Z</time></trkpt><trkpt lat="39.3020095" lon="16.2377223"><ele>268.0</ele><time>2026-05-03T12:29:46.599Z</time></trkpt><trkpt lat="39.3018782" lon="16.2376"><ele>268.0</ele><time>2026-05-03T12:29:47.591Z</time></trkpt><trkpt lat="39.3017576" lon="16.237487"><ele>268.0</ele><time>2026-05-03T12:29:48.606Z</time></trkpt><trkpt lat="39.3016443" lon="16.2373783"><ele>268.0</ele><time>2026-05-03T12:29:49.604Z</time></trkpt><trkpt lat="39.3015471" lon="16.2372653"><ele>268.0</ele><time>2026-05-03T12:29:50.592Z</time></trkpt><trkpt lat="39.3014709" lon="16.2371384"><ele>268.0</ele><time>2026-05-03T12:29:51.579Z</time></trkpt><trkpt lat="39.3014162" lon="16.2369908"><ele>268.0</ele><time>2026-05-03T12:29:52.585Z</time></trkpt><trkpt lat="39.301396" lon="16.2368394"><ele>268.0</ele><time>2026-05-03T12:29:53.592Z</time></trkpt><trkpt lat="39.3014094" lon="16.2366764"><ele>268.0</ele><time>2026-05-03T12:29:54.579Z</time></trkpt><trkpt lat="39.3014561" lon="16.2365303"><ele>268.0</ele><time>2026-05-03T12:29:55.564Z</time></trkpt><trkpt lat="39.3015278" lon="16.2364056"><ele>268.0</ele><time>2026-05-03T12:29:56.614Z</time></trkpt><trkpt lat="39.3016187" lon="16.2363122"><ele>268.5</ele><time>2026-05-03T12:29:57.611Z</time></trkpt><trkpt lat="39.3017434" lon="16.236252"><ele>269.0</ele><time>2026-05-03T12:29:58.598Z</time></trkpt><trkpt lat="39.3018877" lon="16.2362235"><ele>269.5</ele><time>2026-05-03T12:29:59.588Z</time></trkpt><trkpt lat="39.302047" lon="16.236224"><ele>270.0</ele><time>2026-05-03T12:30:00.578Z</time></trkpt><trkpt lat="39.3022105" lon="16.2362533"><ele>272.0</ele><time>2026-05-03T12:30:01.603Z</time></trkpt><trkpt lat="39.3023899" lon="16.236277"><ele>274.0</ele><time>2026-05-03T12:30:02.605Z</time></trkpt><trkpt lat="39.3025725" lon="16.2363091"><ele>276.0</ele><time>2026-05-03T12:30:03.588Z</time></trkpt><trkpt lat="39.3027672" lon="16.2363465"><ele>276.0</ele><time>2026-05-03T12:30:04.606Z</time></trkpt><trkpt lat="39.3029723" lon="16.2363939"><ele>276.0</ele><time>2026-05-03T12:30:05.607Z</time></trkpt><trkpt lat="39.3031743" lon="16.2364462"><ele>276.0</ele><time>2026-05-03T12:30:06.588Z</time></trkpt><trkpt lat="39.3033803" lon="16.2365054"><ele>275.5</ele><time>2026-05-03T12:30:07.595Z</time></trkpt><trkpt lat="39.3035903" lon="16.2365733"><ele>275.0</ele><time>2026-05-03T12:30:08.592Z</time></trkpt><trkpt lat="39.3033566" lon="16.2364633"><ele>276.0</ele><time>2026-05-03T12:30:21.9Z</time></trkpt><trkpt lat="39.302746" lon="16.236146"><ele>277.0</ele><time>2026-05-03T12:30:28.4Z</time></trkpt><trkpt lat="39.3088165" lon="16.2382241"><ele>272.0</ele><time>2026-05-03T12:30:29.588Z</time></trkpt><trkpt lat="39.3090967" lon="16.2383217"><ele>267.0</ele><time>2026-05-03T12:30:30.586Z</time></trkpt><trkpt lat="39.3093851" lon="16.2384155"><ele>267.0</ele><time>2026-05-03T12:30:31.577Z</time></trkpt><trkpt lat="39.3096764" lon="16.2385076"><ele>267.0</ele><time>2026-05-03T12:30:32.573Z</time></trkpt><trkpt lat="39.3099622" lon="16.238602"><ele>261.5</ele><time>2026-05-03T12:30:33.579Z</time></trkpt><trkpt lat="39.3102393" lon="16.2386866"><ele>256.0</ele><time>2026-05-03T12:30:34.581Z</time></trkpt><trkpt lat="39.310516" lon="16.2387698"><ele>251.0</ele><time>2026-05-03T12:30:35.58Z</time></trkpt><trkpt lat="39.3107774" lon="16.2388558"><ele>246.0</ele><time>2026-05-03T12:30:36.619Z</time></trkpt><trkpt lat="39.3110323" lon="16.238946"><ele>247.0</ele><time>2026-05-03T12:30:37.594Z</time></trkpt><trkpt lat="39.3112843" lon="16.2390451"><ele>248.0</ele><time>2026-05-03T12:30:38.594Z</time></trkpt><trkpt lat="39.3115418" lon="16.2391546"><ele>248.0</ele><time>2026-05-03T12:30:39.596Z</time></trkpt><trkpt lat="39.3117957" lon="16.2392805"><ele>248.0</ele><time>2026-05-03T12:30:40.622Z</time></trkpt><trkpt lat="39.3120503" lon="16.2394212"><ele>240.0</ele><time>2026-05-03T12:30:41.613Z</time></trkpt><trkpt lat="39.3123088" lon="16.2395763"><ele>232.0</ele><time>2026-05-03T12:30:42.627Z</time></trkpt><trkpt lat="39.3125704" lon="16.2397351"><ele>232.5</ele><time>2026-05-03T12:30:43.577Z</time></trkpt><trkpt lat="39.3128388" lon="16.239892"><ele>233.0</ele><time>2026-05-03T12:30:44.594Z</time></trkpt><trkpt lat="39.3131023" lon="16.2400645"><ele>233.0</ele><time>2026-05-03T12:30:45.6Z</time></trkpt><trkpt lat="39.3133645" lon="16.2402355"><ele>233.0</ele><time>2026-05-03T12:30:46.6Z</time></trkpt><trkpt lat="39.313625" lon="16.2403981"><ele>233.0</ele><time>2026-05-03T12:30:47.583Z</time></trkpt><trkpt lat="39.3138847" lon="16.2405595"><ele>233.0</ele><time>2026-05-03T12:30:48.61Z</time></trkpt><trkpt lat="39.3141492" lon="16.2407188"><ele>232.0</ele><time>2026-05-03T12:30:49.568Z</time></trkpt><trkpt lat="39.3144194" lon="16.2408697"><ele>231.0</ele><time>2026-05-03T12:30:50.581Z</time></trkpt><trkpt lat="39.3146929" lon="16.2410083"><ele>224.5</ele><time>2026-05-03T12:30:51.581Z</time></trkpt><trkpt lat="39.3149747" lon="16.2411282"><ele>218.0</ele><time>2026-05-03T12:30:52.61Z</time></trkpt><trkpt lat="39.3152613" lon="16.2412321"><ele>218.0</ele><time>2026-05-03T12:30:53.596Z</time></trkpt><trkpt lat="39.3155555" lon="16.241315"><ele>218.0</ele><time>2026-05-03T12:30:54.597Z</time></trkpt><trkpt lat="39.3158588" lon="16.2413904"><ele>215.5</ele><time>2026-05-03T12:30:55.596Z</time></trkpt><trkpt lat="39.3161595" lon="16.2414522"><ele>213.0</ele><time>2026-05-03T12:30:56.605Z</time></trkpt><trkpt lat="39.3164578" lon="16.2414839"><ele>213.0</ele><time>2026-05-03T12:30:57.622Z</time></trkpt><trkpt lat="39.3167575" lon="16.2415048"><ele>213.0</ele><time>2026-05-03T12:30:58.586Z</time></trkpt><trkpt lat="39.3170546" lon="16.2415095"><ele>212.0</ele><time>2026-05-03T12:30:59.586Z</time></trkpt><trkpt lat="39.3173545" lon="16.2414995"><ele>211.0</ele><time>2026-05-03T12:31:00.575Z</time></trkpt><trkpt lat="39.3176521" lon="16.2414727"><ele>210.5</ele><time>2026-05-03T12:31:01.586Z</time></trkpt><trkpt lat="39.3179529" lon="16.2414214"><ele>210.0</ele><time>2026-05-03T12:31:02.601Z</time></trkpt><trkpt lat="39.3182513" lon="16.2413593"><ele>209.5</ele><time>2026-05-03T12:31:03.601Z</time></trkpt><trkpt lat="39.3185477" lon="16.2412731"><ele>209.0</ele><time>2026-05-03T12:31:04.584Z</time></trkpt><trkpt lat="39.31885" lon="16.2411772"><ele>210.5</ele><time>2026-05-03T12:31:05.609Z</time></trkpt><trkpt lat="39.3191481" lon="16.2410769"><ele>212.0</ele><time>2026-05-03T12:31:06.605Z</time></trkpt><trkpt lat="39.3194443" lon="16.2409687"><ele>211.5</ele><time>2026-05-03T12:31:07.603Z</time></trkpt><trkpt lat="39.3197461" lon="16.2408558"><ele>211.0</ele><time>2026-05-03T12:31:08.603Z</time></trkpt><trkpt lat="39.3200448" lon="16.2407367"><ele>211.0</ele><time>2026-05-03T12:31:09.591Z</time></trkpt><trkpt lat="39.3203433" lon="16.2406153"><ele>211.0</ele><time>2026-05-03T12:31:10.601Z</time></trkpt><trkpt lat="39.3206403" lon="16.2404961"><ele>212.0</ele><time>2026-05-03T12:31:11.584Z</time></trkpt><trkpt lat="39.3209369" lon="16.2403767"><ele>213.0</ele><time>2026-05-03T12:31:12.584Z</time></trkpt><trkpt lat="39.3212346" lon="16.240265"><ele>214.0</ele><time>2026-05-03T12:31:13.597Z</time></trkpt><trkpt lat="39.3215397" lon="16.2401674"><ele>215.0</ele><time>2026-05-03T12:31:14.606Z</time></trkpt><trkpt lat="39.3218496" lon="16.2400894"><ele>215.0</ele><time>2026-05-03T12:31:15.586Z</time></trkpt><trkpt lat="39.3221586" lon="16.2400207"><ele>215.0</ele><time>2026-05-03T12:31:16.59Z</time></trkpt><trkpt lat="39.3224732" lon="16.2399419"><ele>215.5</ele><time>2026-05-03T12:31:17.615Z</time></trkpt><trkpt lat="39.3227908" lon="16.2398839"><ele>216.0</ele><time>2026-05-03T12:31:18.579Z</time></trkpt><trkpt lat="39.3231077" lon="16.239848"><ele>216.0</ele><time>2026-05-03T12:31:19.578Z</time></trkpt><trkpt lat="39.323418" lon="16.2398247"><ele>216.0</ele><time>2026-05-03T12:31:20.577Z</time></trkpt><trkpt lat="39.3237116" lon="16.2398123"><ele>217.5</ele><time>2026-05-03T12:31:21.564Z</time></trkpt><trkpt lat="39.3239848" lon="16.2398035"><ele>219.0</ele><time>2026-05-03T12:31:22.585Z</time></trkpt><trkpt lat="39.3242465" lon="16.2397988"><ele>221.0</ele><time>2026-05-03T12:31:23.592Z</time></trkpt><trkpt lat="39.3245066" lon="16.2397957"><ele>223.0</ele><time>2026-05-03T12:31:24.572Z</time></trkpt><trkpt lat="39.3247671" lon="16.239793"><ele>223.0</ele><time>2026-05-03T12:31:25.596Z</time></trkpt><trkpt lat="39.3250342" lon="16.2397998"><ele>223.0</ele><time>2026-05-03T12:31:26.579Z</time></trkpt><trkpt lat="39.3253001" lon="16.2398048"><ele>221.5</ele><time>2026-05-03T12:31:27.584Z</time></trkpt><trkpt lat="39.325563" lon="16.2398123"><ele>220.0</ele><time>2026-05-03T12:31:28.579Z</time></trkpt><trkpt lat="39.3258314" lon="16.2398132"><ele>220.0</ele><time>2026-05-03T12:31:29.585Z</time></trkpt><trkpt lat="39.3261066" lon="16.2398109"><ele>220.0</ele><time>2026-05-03T12:31:30.592Z</time></trkpt><trkpt lat="39.3263833" lon="16.239804"><ele>221.0</ele><time>2026-05-03T12:31:31.607Z</time></trkpt><trkpt lat="39.3266596" lon="16.2397982"><ele>222.0</ele><time>2026-05-03T12:31:32.599Z</time></trkpt><trkpt lat="39.3269428" lon="16.2397827"><ele>220.5</ele><time>2026-05-03T12:31:33.584Z</time></trkpt><trkpt lat="39.3272282" lon="16.2397543"><ele>219.0</ele><time>2026-05-03T12:31:34.588Z</time></trkpt><trkpt lat="39.3275104" lon="16.2397091"><ele>219.0</ele><time>2026-05-03T12:31:35.582Z</time></trkpt><trkpt lat="39.3277931" lon="16.2396574"><ele>219.0</ele><time>2026-05-03T12:31:36.603Z</time></trkpt><trkpt lat="39.3280663" lon="16.239596"><ele>218.0</ele><time>2026-05-03T12:31:37.573Z</time></trkpt><trkpt lat="39.3283412" lon="16.2395139"><ele>217.0</ele><time>2026-05-03T12:31:38.613Z</time></trkpt><trkpt lat="39.3286148" lon="16.2394341"><ele>217.0</ele><time>2026-05-03T12:31:39.62Z</time></trkpt><trkpt lat="39.3288807" lon="16.2393428"><ele>217.0</ele><time>2026-05-03T12:31:40.596Z</time></trkpt><trkpt lat="39.3291473" lon="16.239235"><ele>216.5</ele><time>2026-05-03T12:31:41.604Z</time></trkpt><trkpt lat="39.329412" lon="16.2391257"><ele>216.0</ele><time>2026-05-03T12:31:42.592Z</time></trkpt><trkpt lat="39.3296742" lon="16.2390143"><ele>215.5</ele><time>2026-05-03T12:31:43.589Z</time></trkpt><trkpt lat="39.329937" lon="16.2389065"><ele>215.0</ele><time>2026-05-03T12:31:44.598Z</time></trkpt><trkpt lat="39.3301973" lon="16.2388027"><ele>215.0</ele><time>2026-05-03T12:31:45.59Z</time></trkpt><trkpt lat="39.3304584" lon="16.2386986"><ele>215.0</ele><time>2026-05-03T12:31:46.59Z</time></trkpt><trkpt lat="39.3307158" lon="16.2385963"><ele>214.0</ele><time>2026-05-03T12:31:47.585Z</time></trkpt><trkpt lat="39.3309715" lon="16.2384898"><ele>213.0</ele><time>2026-05-03T12:31:48.607Z</time></trkpt><trkpt lat="39.3312227" lon="16.2383801"><ele>211.5</ele><time>2026-05-03T12:31:49.603Z</time></trkpt><trkpt lat="39.3314729" lon="16.2382687"><ele>210.0</ele><time>2026-05-03T12:31:50.597Z</time></trkpt><trkpt lat="39.3317234" lon="16.2381621"><ele>210.0</ele><time>2026-05-03T12:31:51.608Z</time></trkpt><trkpt lat="39.3319738" lon="16.2380558"><ele>210.0</ele><time>2026-05-03T12:31:52.59Z</time></trkpt><trkpt lat="39.3322309" lon="16.2379505"><ele>208.5</ele><time>2026-05-03T12:31:53.585Z</time></trkpt><trkpt lat="39.3324912" lon="16.2378424"><ele>207.0</ele><time>2026-05-03T12:31:54.581Z</time></trkpt><trkpt lat="39.3327495" lon="16.2377366"><ele>207.0</ele><time>2026-05-03T12:31:55.594Z</time></trkpt><trkpt lat="39.3330044" lon="16.2376346"><ele>207.0</ele><time>2026-05-03T12:31:56.605Z</time></trkpt><trkpt lat="39.3332581" lon="16.2375273"><ele>206.0</ele><time>2026-05-03T12:31:57.576Z</time></trkpt><trkpt lat="39.3335121" lon="16.2374218"><ele>205.0</ele><time>2026-05-03T12:31:58.624Z</time></trkpt><trkpt lat="39.3337652" lon="16.2373182"><ele>203.0</ele><time>2026-05-03T12:31:59.599Z</time></trkpt><trkpt lat="39.3340196" lon="16.2372203"><ele>201.0</ele><time>2026-05-03T12:32:00.609Z</time></trkpt><trkpt lat="39.3342718" lon="16.2371203"><ele>201.0</ele><time>2026-05-03T12:32:01.622Z</time></trkpt><trkpt lat="39.3345198" lon="16.2370119"><ele>201.0</ele><time>2026-05-03T12:32:02.61Z</time></trkpt><trkpt lat="39.3347651" lon="16.2369078"><ele>200.0</ele><time>2026-05-03T12:32:03.602Z</time></trkpt><trkpt lat="39.3350131" lon="16.236801"><ele>199.0</ele><time>2026-05-03T12:32:04.597Z</time></trkpt><trkpt lat="39.335262" lon="16.236699"><ele>199.0</ele><time>2026-05-03T12:32:05.603Z</time></trkpt><trkpt lat="39.3354963" lon="16.2366005"><ele>199.0</ele><time>2026-05-03T12:32:06.618Z</time></trkpt><trkpt lat="39.3357228" lon="16.2365021"><ele>198.0</ele><time>2026-05-03T12:32:07.615Z</time></trkpt><trkpt lat="39.335947" lon="16.2364083"><ele>197.0</ele><time>2026-05-03T12:32:08.599Z</time></trkpt><trkpt lat="39.3361764" lon="16.2363162"><ele>195.5</ele><time>2026-05-03T12:32:09.614Z</time></trkpt><trkpt lat="39.3364083" lon="16.2362222"><ele>194.0</ele><time>2026-05-03T12:32:10.605Z</time></trkpt><trkpt lat="39.3366376" lon="16.2361291"><ele>194.0</ele><time>2026-05-03T12:32:11.616Z</time></trkpt><trkpt lat="39.3368688" lon="16.2360339"><ele>194.0</ele><time>2026-05-03T12:32:12.602Z</time></trkpt><trkpt lat="39.337099" lon="16.2359355"><ele>192.5</ele><time>2026-05-03T12:32:13.62Z</time></trkpt><trkpt lat="39.3373339" lon="16.235838"><ele>191.0</ele><time>2026-05-03T12:32:14.62Z</time></trkpt><trkpt lat="39.3375659" lon="16.2357386"><ele>191.0</ele><time>2026-05-03T12:32:15.606Z</time></trkpt><trkpt lat="39.3377973" lon="16.2356392"><ele>191.0</ele><time>2026-05-03T12:32:16.614Z</time></trkpt><trkpt lat="39.3380312" lon="16.2355412"><ele>191.5</ele><time>2026-05-03T12:32:17.621Z</time></trkpt><trkpt lat="39.338263" lon="16.2354451"><ele>192.0</ele><time>2026-05-03T12:32:18.585Z</time></trkpt><trkpt lat="39.3384951" lon="16.2353521"><ele>192.0</ele><time>2026-05-03T12:32:19.596Z</time></trkpt><trkpt lat="39.3387253" lon="16.235257"><ele>192.0</ele><time>2026-05-03T12:32:20.603Z</time></trkpt><trkpt lat="39.3389564" lon="16.2351646"><ele>192.5</ele><time>2026-05-03T12:32:21.611Z</time></trkpt><trkpt lat="39.3391904" lon="16.2350816"><ele>193.0</ele><time>2026-05-03T12:32:22.61Z</time></trkpt><trkpt lat="39.3394259" lon="16.235008"><ele>193.0</ele><time>2026-05-03T12:32:23.606Z</time></trkpt><trkpt lat="39.3396686" lon="16.2349393"><ele>193.0</ele><time>2026-05-03T12:32:24.608Z</time></trkpt><trkpt lat="39.3399037" lon="16.2348741"><ele>193.0</ele><time>2026-05-03T12:32:25.602Z</time></trkpt><trkpt lat="39.3401252" lon="16.2348262"><ele>193.0</ele><time>2026-05-03T12:32:26.606Z</time></trkpt><trkpt lat="39.3403343" lon="16.2347933"><ele>193.0</ele><time>2026-05-03T12:32:27.592Z</time></trkpt><trkpt lat="39.3405361" lon="16.234768"><ele>194.66666666666666</ele><time>2026-05-03T12:32:28.615Z</time></trkpt><trkpt lat="39.3407317" lon="16.2347453"><ele>196.33333333333331</ele><time>2026-05-03T12:32:29.616Z</time></trkpt><trkpt lat="39.340926" lon="16.2347211"><ele>198.0</ele><time>2026-05-03T12:32:30.612Z</time></trkpt><trkpt lat="39.3411088" lon="16.234714"><ele>198.0</ele><time>2026-05-03T12:32:31.606Z</time></trkpt><trkpt lat="39.3412898" lon="16.2347027"><ele>198.0</ele><time>2026-05-03T12:32:32.599Z</time></trkpt><trkpt lat="39.3414727" lon="16.2346974"><ele>198.0</ele><time>2026-05-03T12:32:33.593Z</time></trkpt><trkpt lat="39.3416598" lon="16.2346965"><ele>199.0</ele><time>2026-05-03T12:32:34.574Z</time></trkpt><trkpt lat="39.3418546" lon="16.2347014"><ele>200.0</ele><time>2026-05-03T12:32:35.596Z</time></trkpt><trkpt lat="39.3420551" lon="16.2347154"><ele>201.0</ele><time>2026-05-03T12:32:36.582Z</time></trkpt><trkpt lat="39.3422579" lon="16.2347373"><ele>201.33333333333331</ele><time>2026-05-03T12:32:37.588Z</time></trkpt><trkpt lat="39.3424628" lon="16.234767"><ele>201.66666666666666</ele><time>2026-05-03T12:32:38.614Z</time></trkpt><trkpt lat="39.34267" lon="16.2347949"><ele>202.0</ele><time>2026-05-03T12:32:39.589Z</time></trkpt><trkpt lat="39.3428774" lon="16.2348304"><ele>202.0</ele><time>2026-05-03T12:32:40.611Z</time></trkpt><trkpt lat="39.3430823" lon="16.2348724"><ele>202.0</ele><time>2026-05-03T12:32:41.614Z</time></trkpt><trkpt lat="39.3432867" lon="16.2349202"><ele>202.0</ele><time>2026-05-03T12:32:42.598Z</time></trkpt><trkpt lat="39.3434887" lon="16.2349721"><ele>202.0</ele><time>2026-05-03T12:32:43.614Z</time></trkpt><trkpt lat="39.3436799" lon="16.2350252"><ele>202.0</ele><time>2026-05-03T12:32:44.579Z</time></trkpt><trkpt lat="39.3438456" lon="16.2350815"><ele>202.0</ele><time>2026-05-03T12:32:45.616Z</time></trkpt><trkpt lat="39.3439835" lon="16.2351357"><ele>201.8</ele><time>2026-05-03T12:32:46.623Z</time></trkpt><trkpt lat="39.3441007" lon="16.2351812"><ele>201.6</ele><time>2026-05-03T12:32:47.585Z</time></trkpt><trkpt lat="39.3441996" lon="16.2352369"><ele>201.4</ele><time>2026-05-03T12:32:48.612Z</time></trkpt><trkpt lat="39.3442815" lon="16.2352968"><ele>201.20000000000002</ele><time>2026-05-03T12:32:49.591Z</time></trkpt><trkpt lat="39.3443543" lon="16.2353664"><ele>201.0</ele><time>2026-05-03T12:32:50.587Z</time></trkpt><trkpt lat="39.3444164" lon="16.2354328"><ele>201.0</ele><time>2026-05-03T12:32:51.59Z</time></trkpt><trkpt lat="39.3444771" lon="16.2354837"><ele>201.0</ele><time>2026-05-03T12:32:52.604Z</time></trkpt><trkpt lat="39.3445426" lon="16.2355268"><ele>201.0</ele><time>2026-05-03T12:32:53.606Z</time></trkpt><trkpt lat="39.3446135" lon="16.2355436"><ele>201.0</ele><time>2026-05-03T12:32:54.616Z</time></trkpt><trkpt lat="39.3446946" lon="16.2355503"><ele>201.0</ele><time>2026-05-03T12:32:55.612Z</time></trkpt><trkpt lat="39.3447717" lon="16.2355472"><ele>201.0</ele><time>2026-05-03T12:32:56.617Z</time></trkpt><trkpt lat="39.3448403" lon="16.2355382"><ele>201.0</ele><time>2026-05-03T12:32:57.576Z</time></trkpt><trkpt lat="39.3449465" lon="16.2355573"><ele>201.0</ele><time>2026-05-03T12:32:59.591Z</time></trkpt><trkpt lat="39.3450194" lon="16.235621"><ele>201.0</ele><time>2026-05-03T12:33:01.574Z</time></trkpt><trkpt lat="39.3450796" lon="16.2356733"><ele>201.0</ele><time>2026-05-03T12:33:03.589Z</time></trkpt><trkpt lat="39.3450281" lon="16.2357205"><ele>201.0</ele><time>2026-05-03T12:34:59.566Z</time></trkpt><trkpt lat="39.3449629" lon="16.2357579"><ele>201.0</ele><time>2026-05-03T12:35:30.57Z</time></trkpt><trkpt lat="39.3449516" lon="16.2358521"><ele>201.0</ele><time>2026-05-03T12:35:34.577Z</time></trkpt><trkpt lat="39.3449628" lon="16.235952"><ele>201.0</ele><time>2026-05-03T12:35:36.599Z</time></trkpt><trkpt lat="39.3449934" lon="16.2360895"><ele>200.33333333333334</ele><time>2026-05-03T12:35:38.576Z</time></trkpt><trkpt lat="39.3450201" lon="16.2362412"><ele>199.66666666666669</ele><time>2026-05-03T12:35:40.583Z</time></trkpt><trkpt lat="39.3450302" lon="16.2363297"><ele>199.0</ele><time>2026-05-03T12:35:41.568Z</time></trkpt><trkpt lat="39.3450376" lon="16.236417"><ele>198.33333333333334</ele><time>2026-05-03T12:35:42.567Z</time></trkpt><trkpt lat="39.3450448" lon="16.2365526"><ele>197.66666666666669</ele><time>2026-05-03T12:35:44.551Z</time></trkpt><trkpt lat="39.3449893" lon="16.2365097"><ele>197.0</ele><time>2026-05-03T12:35:52.591Z</time></trkpt><trkpt lat="39.3449799" lon="16.2366188"><ele>196.83333333333334</ele><time>2026-05-03T12:36:01.577Z</time></trkpt><trkpt lat="39.3450094" lon="16.2367065"><ele>196.66666666666669</ele><time>2026-05-03T12:36:03.556Z</time></trkpt><trkpt lat="39.3450542" lon="16.2367918"><ele>196.5</ele><time>2026-05-03T12:36:05.562Z</time></trkpt><trkpt lat="39.3451038" lon="16.2368659"><ele>196.33333333333331</ele><time>2026-05-03T12:36:07.468Z</time></trkpt><trkpt lat="39.3451497" lon="16.236926"><ele>196.16666666666666</ele><time>2026-05-03T12:36:08.557Z</time></trkpt><trkpt lat="39.345233" lon="16.2369502"><ele>196.0</ele><time>2026-05-03T12:36:11.566Z</time></trkpt><trkpt lat="39.3452847" lon="16.2368862"><ele>196.0</ele><time>2026-05-03T12:36:14.558Z</time></trkpt><trkpt lat="39.3453032" lon="16.2367955"><ele>196.0</ele><time>2026-05-03T12:36:17.559Z</time></trkpt><trkpt lat="39.3452833" lon="16.2366962"><ele>196.0</ele><time>2026-05-03T12:36:21.544Z</time></trkpt><trkpt lat="39.3452286" lon="16.2366328"><ele>196.0</ele><time>2026-05-03T12:36:24.554Z</time></trkpt><trkpt lat="39.3451869" lon="16.236553"><ele>196.0</ele><time>2026-05-03T12:36:27.564Z</time></trkpt><trkpt lat="39.3451866" lon="16.2364564"><ele>196.0</ele><time>2026-05-03T12:36:31.573Z</time></trkpt><trkpt lat="39.3452026" lon="16.2363644"><ele>196.0</ele><time>2026-05-03T12:36:34.549Z</time></trkpt><trkpt lat="39.3452147" lon="16.2362459"><ele>196.16666666666666</ele><time>2026-05-03T12:36:37.547Z</time></trkpt><trkpt lat="39.3452178" lon="16.2361548"><ele>196.33333333333331</ele><time>2026-05-03T12:36:39.548Z</time></trkpt><trkpt lat="39.3452226" lon="16.2360659"><ele>196.5</ele><time>2026-05-03T12:36:41.546Z</time></trkpt><trkpt lat="39.3451991" lon="16.235956"><ele>196.66666666666669</ele><time>2026-05-03T12:36:43.551Z</time></trkpt><trkpt lat="39.3451579" lon="16.2358379"><ele>196.83333333333334</ele><time>2026-05-03T12:36:45.545Z</time></trkpt><trkpt lat="39.3451172" lon="16.2357061"><ele>197.0</ele><time>2026-05-03T12:36:47.55Z</time></trkpt><trkpt lat="39.3450541" lon="16.235733"><ele>197.0</ele><time>2026-05-03T12:36:55.571Z</time></trkpt><trkpt lat="39.3449918" lon="16.2357973"><ele>197.0</ele><time>2026-05-03T12:37:00.559Z</time></trkpt><trkpt lat="39.3449708" lon="16.235876"><ele>197.0</ele><time>2026-05-03T12:37:02.548Z</time></trkpt><trkpt lat="39.3449949" lon="16.2359672"><ele>197.0</ele><time>2026-05-03T12:37:04.561Z</time></trkpt><trkpt lat="39.3450371" lon="16.2360308"><ele>197.0</ele><time>2026-05-03T12:37:06.574Z</time></trkpt><trkpt lat="39.3451061" lon="16.2360546"><ele>197.0</ele><time>2026-05-03T12:37:10.554Z</time></trkpt><trkpt lat="39.3451437" lon="16.2359809"><ele>197.0</ele><time>2026-05-03T12:37:25.579Z</time></trkpt><trkpt lat="39.3451126" lon="16.2359059"><ele>197.00000000000003</ele><time>2026-05-03T12:37:28.591Z</time></trkpt><trkpt lat="39.345059" lon="16.2358485"><ele>197.0</ele><time>2026-05-03T12:37:50.555Z</time></trkpt><trkpt lat="39.3451071" lon="16.2359103"><ele>197.0</ele><time>2026-05-03T12:38:01.562Z</time></trkpt><trkpt lat="39.3451407" lon="16.2359802"><ele>197.0</ele><time>2026-05-03T12:38:04.565Z</time></trkpt><trkpt lat="39.3451637" lon="16.2360649"><ele>197.00000000000003</ele><time>2026-05-03T12:38:06.569Z</time></trkpt><trkpt lat="39.3452021" lon="16.2361802"><ele>197.0</ele><time>2026-05-03T12:38:08.564Z</time></trkpt><trkpt lat="39.3452504" lon="16.2363319"><ele>197.0</ele><time>2026-05-03T12:38:10.562Z</time></trkpt><trkpt lat="39.345278" lon="16.2364133"><ele>197.0</ele><time>2026-05-03T12:38:11.556Z</time></trkpt><trkpt lat="39.345316" lon="16.2365025"><ele>197.0</ele><time>2026-05-03T12:38:12.557Z</time></trkpt><trkpt lat="39.3453596" lon="16.2366014"><ele>197.0</ele><time>2026-05-03T12:38:13.579Z</time></trkpt><trkpt lat="39.3453979" lon="16.2367012"><ele>197.0</ele><time>2026-05-03T12:38:14.552Z</time></trkpt><trkpt lat="39.3451203" lon="16.2359762"><ele>197.0</ele><time>2026-05-03T12:38:23.377Z</time></trkpt><trkpt lat="39.3449991" lon="16.2357539"><ele>197.0</ele><time>2026-05-03T12:38:29.879Z</time></trkpt><trkpt lat="39.3450218" lon="16.2356269"><ele>197.0</ele><time>2026-05-03T12:38:36.357Z</time></trkpt><trkpt lat="39.3448994" lon="16.2353776"><ele>197.00000000000003</ele><time>2026-05-03T12:38:38.597Z</time></trkpt><trkpt lat="39.3450201" lon="16.2354919"><ele>197.0</ele><time>2026-05-03T12:38:47.584Z</time></trkpt><trkpt lat="39.3450286" lon="16.2355787"><ele>197.0</ele><time>2026-05-03T12:39:38.575Z</time></trkpt><trkpt lat="39.3450272" lon="16.2356637"><ele>197.0</ele><time>2026-05-03T12:39:51.572Z</time></trkpt><trkpt lat="39.3450303" lon="16.2357496"><ele>197.00000000000003</ele><time>2026-05-03T12:40:13.597Z</time></trkpt><trkpt lat="39.3450161" lon="16.2358416"><ele>197.0</ele><time>2026-05-03T12:40:21.573Z</time></trkpt><trkpt lat="39.3450715" lon="16.2357721"><ele>197.00000000000003</ele><time>2026-05-03T12:43:29.595Z</time></trkpt><trkpt lat="39.3450782" lon="16.2356842"><ele>197.0</ele><time>2026-05-03T12:43:36.603Z</time></trkpt><trkpt lat="39.3451489" lon="16.2357019"><ele>197.0</ele><time>2026-05-03T12:48:33.587Z</time></trkpt><trkpt lat="39.3452191" lon="16.2356568"><ele>197.0</ele><time>2026-05-03T12:48:35.599Z</time></trkpt><trkpt lat="39.3453224" lon="16.2356505"><ele>197.00000000000003</ele><time>2026-05-03T12:48:37.609Z</time></trkpt><trkpt lat="39.3453897" lon="16.2356604"><ele>197.0</ele><time>2026-05-03T12:48:38.577Z</time></trkpt><trkpt lat="39.3454628" lon="16.2356559"><ele>197.0</ele><time>2026-05-03T12:48:39.575Z</time></trkpt><trkpt lat="39.3455309" lon="16.2356466"><ele>197.0</ele><time>2026-05-03T12:48:40.57Z</time></trkpt><trkpt lat="39.3455937" lon="16.2356392"><ele>197.0</ele><time>2026-05-03T12:48:41.575Z</time></trkpt><trkpt lat="39.3456604" lon="16.2356321"><ele>197.0</ele><time>2026-05-03T12:48:42.575Z</time></trkpt><trkpt lat="39.3457281" lon="16.2356272"><ele>197.0</ele><time>2026-05-03T12:48:43.583Z</time></trkpt><trkpt lat="39.3458001" lon="16.2356236"><ele>197.0</ele><time>2026-05-03T12:48:44.589Z</time></trkpt><trkpt lat="39.3458725" lon="16.2356071"><ele>197.0</ele><time>2026-05-03T12:48:45.573Z</time></trkpt><trkpt lat="39.3459463" lon="16.2355876"><ele>197.0</ele><time>2026-05-03T12:48:46.579Z</time></trkpt><trkpt lat="39.3460209" lon="16.2355532"><ele>197.0</ele><time>2026-05-03T12:48:47.592Z</time></trkpt><trkpt lat="39.3461001" lon="16.2354952"><ele>197.0</ele><time>2026-05-03T12:48:48.591Z</time></trkpt><trkpt lat="39.3461903" lon="16.2354234"><ele>197.0</ele><time>2026-05-03T12:48:49.588Z</time></trkpt><trkpt lat="39.3462998" lon="16.2353654"><ele>197.0</ele><time>2026-05-03T12:48:50.588Z</time></trkpt><trkpt lat="39.3464255" lon="16.2353288"><ele>196.0</ele><time>2026-05-03T12:48:51.589Z</time></trkpt><trkpt lat="39.3465554" lon="16.2353098"><ele>195.0</ele><time>2026-05-03T12:48:52.575Z</time></trkpt><trkpt lat="39.3466874" lon="16.2352985"><ele>194.0</ele><time>2026-05-03T12:48:53.586Z</time></trkpt><trkpt lat="39.3468257" lon="16.235284"><ele>193.0</ele><time>2026-05-03T12:48:54.605Z</time></trkpt><trkpt lat="39.3469648" lon="16.2352604"><ele>193.0</ele><time>2026-05-03T12:48:55.607Z</time></trkpt><trkpt lat="39.3471152" lon="16.2352287"><ele>193.0</ele><time>2026-05-03T12:48:56.622Z</time></trkpt><trkpt lat="39.3472581" lon="16.2351915"><ele>193.0</ele><time>2026-05-03T12:48:57.604Z</time></trkpt><trkpt lat="39.3474113" lon="16.2351484"><ele>193.66666666666666</ele><time>2026-05-03T12:48:58.608Z</time></trkpt><trkpt lat="39.3475713" lon="16.235109"><ele>194.33333333333331</ele><time>2026-05-03T12:48:59.606Z</time></trkpt><trkpt lat="39.3477326" lon="16.2350646"><ele>195.0</ele><time>2026-05-03T12:49:00.615Z</time></trkpt><trkpt lat="39.347891" lon="16.2350161"><ele>194.66666666666669</ele><time>2026-05-03T12:49:01.593Z</time></trkpt><trkpt lat="39.3480546" lon="16.2349683"><ele>194.33333333333334</ele><time>2026-05-03T12:49:02.611Z</time></trkpt><trkpt lat="39.3482252" lon="16.234926"><ele>194.0</ele><time>2026-05-03T12:49:03.599Z</time></trkpt><trkpt lat="39.3484016" lon="16.2348884"><ele>194.0</ele><time>2026-05-03T12:49:04.62Z</time></trkpt><trkpt lat="39.3485774" lon="16.2348487"><ele>194.0</ele><time>2026-05-03T12:49:05.603Z</time></trkpt><trkpt lat="39.3487601" lon="16.2348036"><ele>194.0</ele><time>2026-05-03T12:49:06.626Z</time></trkpt><trkpt lat="39.3489401" lon="16.2347556"><ele>195.0</ele><time>2026-05-03T12:49:07.596Z</time></trkpt><trkpt lat="39.3491284" lon="16.2347081"><ele>196.0</ele><time>2026-05-03T12:49:08.6Z</time></trkpt><trkpt lat="39.3493156" lon="16.2346564"><ele>197.0</ele><time>2026-05-03T12:49:09.604Z</time></trkpt><trkpt lat="39.3495037" lon="16.2346101"><ele>197.0</ele><time>2026-05-03T12:49:10.608Z</time></trkpt><trkpt lat="39.3496959" lon="16.2345623"><ele>197.0</ele><time>2026-05-03T12:49:11.59Z</time></trkpt><trkpt lat="39.3498955" lon="16.2345113"><ele>197.0</ele><time>2026-05-03T12:49:12.592Z</time></trkpt><trkpt lat="39.3500936" lon="16.2344556"><ele>196.66666666666669</ele><time>2026-05-03T12:49:13.6Z</time></trkpt><trkpt lat="39.3502921" lon="16.234401"><ele>196.33333333333331</ele><time>2026-05-03T12:49:14.598Z</time></trkpt><trkpt lat="39.3504964" lon="16.2343484"><ele>196.0</ele><time>2026-05-03T12:49:15.616Z</time></trkpt><trkpt lat="39.3506988" lon="16.2342959"><ele>196.0</ele><time>2026-05-03T12:49:16.6Z</time></trkpt><trkpt lat="39.3509029" lon="16.2342429"><ele>196.0</ele><time>2026-05-03T12:49:17.58Z</time></trkpt><trkpt lat="39.3511118" lon="16.2341955"><ele>196.0</ele><time>2026-05-03T12:49:18.574Z</time></trkpt><trkpt lat="39.3513141" lon="16.2341481"><ele>196.66666666666666</ele><time>2026-05-03T12:49:19.575Z</time></trkpt><trkpt lat="39.3515149" lon="16.2341053"><ele>197.33333333333331</ele><time>2026-05-03T12:49:20.573Z</time></trkpt><trkpt lat="39.3517132" lon="16.2340585"><ele>198.0</ele><time>2026-05-03T12:49:21.567Z</time></trkpt><trkpt lat="39.3519092" lon="16.2340158"><ele>198.0</ele><time>2026-05-03T12:49:22.575Z</time></trkpt><trkpt lat="39.3521067" lon="16.233974"><ele>198.0</ele><time>2026-05-03T12:49:23.569Z</time></trkpt><trkpt lat="39.3523042" lon="16.2339298"><ele>198.0</ele><time>2026-05-03T12:49:24.585Z</time></trkpt><trkpt lat="39.3525059" lon="16.2338908"><ele>197.33333333333331</ele><time>2026-05-03T12:49:25.586Z</time></trkpt><trkpt lat="39.3527156" lon="16.2338619"><ele>196.66666666666666</ele><time>2026-05-03T12:49:26.582Z</time></trkpt><trkpt lat="39.3529295" lon="16.2338312"><ele>196.0</ele><time>2026-05-03T12:49:27.576Z</time></trkpt><trkpt lat="39.3531483" lon="16.233807"><ele>196.0</ele><time>2026-05-03T12:49:28.588Z</time></trkpt><trkpt lat="39.3533676" lon="16.233791"><ele>196.0</ele><time>2026-05-03T12:49:29.583Z</time></trkpt><trkpt lat="39.3535846" lon="16.2337775"><ele>196.0</ele><time>2026-05-03T12:49:30.575Z</time></trkpt><trkpt lat="39.3538011" lon="16.2337622"><ele>196.0</ele><time>2026-05-03T12:49:31.571Z</time></trkpt><trkpt lat="39.3540209" lon="16.233744"><ele>196.0</ele><time>2026-05-03T12:49:32.58Z</time></trkpt><trkpt lat="39.3542406" lon="16.2337311"><ele>196.0</ele><time>2026-05-03T12:49:33.595Z</time></trkpt><trkpt lat="39.3544613" lon="16.2337218"><ele>196.0</ele><time>2026-05-03T12:49:34.585Z</time></trkpt><trkpt lat="39.3546798" lon="16.2337127"><ele>196.0</ele><time>2026-05-03T12:49:35.588Z</time></trkpt><trkpt lat="39.3548996" lon="16.2337032"><ele>196.0</ele><time>2026-05-03T12:49:36.584Z</time></trkpt><trkpt lat="39.3551165" lon="16.2336915"><ele>196.0</ele><time>2026-05-03T12:49:37.579Z</time></trkpt><trkpt lat="39.3553315" lon="16.2336833"><ele>196.0</ele><time>2026-05-03T12:49:38.608Z</time></trkpt><trkpt lat="39.3555477" lon="16.2336792"><ele>196.0</ele><time>2026-05-03T12:49:39.605Z</time></trkpt><trkpt lat="39.3557616" lon="16.233675"><ele>198.5</ele><time>2026-05-03T12:49:40.591Z</time></trkpt><trkpt lat="39.3559884" lon="16.2336684"><ele>201.0</ele><time>2026-05-03T12:49:41.582Z</time></trkpt><trkpt lat="39.3562139" lon="16.233665"><ele>201.33333333333331</ele><time>2026-05-03T12:49:42.592Z</time></trkpt><trkpt lat="39.3564356" lon="16.2336673"><ele>201.66666666666666</ele><time>2026-05-03T12:49:43.595Z</time></trkpt><trkpt lat="39.3566584" lon="16.2336639"><ele>202.0</ele><time>2026-05-03T12:49:44.597Z</time></trkpt><trkpt lat="39.3568827" lon="16.2336634"><ele>202.0</ele><time>2026-05-03T12:49:45.593Z</time></trkpt><trkpt lat="39.3571078" lon="16.2336603"><ele>202.0</ele><time>2026-05-03T12:49:46.6Z</time></trkpt><trkpt lat="39.3573361" lon="16.2336573"><ele>199.5</ele><time>2026-05-03T12:49:47.608Z</time></trkpt><trkpt lat="39.3575663" lon="16.2336531"><ele>197.0</ele><time>2026-05-03T12:49:48.587Z</time></trkpt><trkpt lat="39.3578003" lon="16.2336459"><ele>197.0</ele><time>2026-05-03T12:49:49.582Z</time></trkpt><trkpt lat="39.3580321" lon="16.2336393"><ele>197.0</ele><time>2026-05-03T12:49:50.608Z</time></trkpt><trkpt lat="39.3582664" lon="16.2336407"><ele>195.5</ele><time>2026-05-03T12:49:51.619Z</time></trkpt><trkpt lat="39.358498" lon="16.233644"><ele>194.0</ele><time>2026-05-03T12:49:52.608Z</time></trkpt><trkpt lat="39.3587338" lon="16.233658"><ele>190.5</ele><time>2026-05-03T12:49:53.604Z</time></trkpt><trkpt lat="39.3589697" lon="16.2336704"><ele>187.0</ele><time>2026-05-03T12:49:54.601Z</time></trkpt><trkpt lat="39.359205" lon="16.233692"><ele>187.0</ele><time>2026-05-03T12:49:55.62Z</time></trkpt><trkpt lat="39.359438" lon="16.2337158"><ele>187.0</ele><time>2026-05-03T12:49:56.581Z</time></trkpt><trkpt lat="39.3596743" lon="16.2337442"><ele>187.0</ele><time>2026-05-03T12:49:57.574Z</time></trkpt><trkpt lat="39.3599061" lon="16.2337795"><ele>187.0</ele><time>2026-05-03T12:49:58.592Z</time></trkpt><trkpt lat="39.3601354" lon="16.2338211"><ele>187.0</ele><time>2026-05-03T12:49:59.572Z</time></trkpt><trkpt lat="39.3603634" lon="16.2338735"><ele>187.0</ele><time>2026-05-03T12:50:00.59Z</time></trkpt><trkpt lat="39.3605964" lon="16.2339318"><ele>185.5</ele><time>2026-05-03T12:50:01.586Z</time></trkpt><trkpt lat="39.3608274" lon="16.2339852"><ele>184.0</ele><time>2026-05-03T12:50:02.605Z</time></trkpt><trkpt lat="39.3610586" lon="16.2340484"><ele>184.0</ele><time>2026-05-03T12:50:03.61Z</time></trkpt><trkpt lat="39.3612871" lon="16.2341155"><ele>184.0</ele><time>2026-05-03T12:50:04.588Z</time></trkpt><trkpt lat="39.3615151" lon="16.2341873"><ele>183.5</ele><time>2026-05-03T12:50:05.6Z</time></trkpt><trkpt lat="39.361744" lon="16.234268"><ele>183.0</ele><time>2026-05-03T12:50:06.582Z</time></trkpt><trkpt lat="39.361974" lon="16.2343541"><ele>183.5</ele><time>2026-05-03T12:50:07.595Z</time></trkpt><trkpt lat="39.3621999" lon="16.2344442"><ele>184.0</ele><time>2026-05-03T12:50:08.583Z</time></trkpt><trkpt lat="39.3624304" lon="16.2345345"><ele>184.0</ele><time>2026-05-03T12:50:09.579Z</time></trkpt><trkpt lat="39.3626549" lon="16.2346268"><ele>184.0</ele><time>2026-05-03T12:50:10.579Z</time></trkpt><trkpt lat="39.362878" lon="16.2347171"><ele>180.5</ele><time>2026-05-03T12:50:11.579Z</time></trkpt><trkpt lat="39.3631046" lon="16.2348047"><ele>177.0</ele><time>2026-05-03T12:50:12.59Z</time></trkpt><trkpt lat="39.3633303" lon="16.2348942"><ele>177.0</ele><time>2026-05-03T12:50:13.586Z</time></trkpt><trkpt lat="39.3635482" lon="16.2349865"><ele>177.0</ele><time>2026-05-03T12:50:14.605Z</time></trkpt><trkpt lat="39.3637688" lon="16.2350804"><ele>178.5</ele><time>2026-05-03T12:50:15.611Z</time></trkpt><trkpt lat="39.3639894" lon="16.2351728"><ele>180.0</ele><time>2026-05-03T12:50:16.611Z</time></trkpt><trkpt lat="39.3642115" lon="16.2352697"><ele>180.0</ele><time>2026-05-03T12:50:17.587Z</time></trkpt><trkpt lat="39.3644315" lon="16.2353571"><ele>180.0</ele><time>2026-05-03T12:50:18.595Z</time></trkpt><trkpt lat="39.3646479" lon="16.2354487"><ele>183.0</ele><time>2026-05-03T12:50:19.585Z</time></trkpt><trkpt lat="39.3648626" lon="16.2355423"><ele>186.0</ele><time>2026-05-03T12:50:20.598Z</time></trkpt><trkpt lat="39.3650788" lon="16.2356276"><ele>182.0</ele><time>2026-05-03T12:50:21.598Z</time></trkpt><trkpt lat="39.3652939" lon="16.2357169"><ele>178.0</ele><time>2026-05-03T12:50:22.591Z</time></trkpt><trkpt lat="39.3655115" lon="16.235804"><ele>179.5</ele><time>2026-05-03T12:50:23.58Z</time></trkpt><trkpt lat="39.3657272" lon="16.2358922"><ele>181.0</ele><time>2026-05-03T12:50:24.601Z</time></trkpt><trkpt lat="39.3659473" lon="16.2359762"><ele>181.0</ele><time>2026-05-03T12:50:25.594Z</time></trkpt><trkpt lat="39.3661615" lon="16.2360686"><ele>181.0</ele><time>2026-05-03T12:50:26.597Z</time></trkpt><trkpt lat="39.3663818" lon="16.2361464"><ele>181.0</ele><time>2026-05-03T12:50:27.601Z</time></trkpt><trkpt lat="39.3666057" lon="16.2362236"><ele>181.0</ele><time>2026-05-03T12:50:28.61Z</time></trkpt><trkpt lat="39.3668304" lon="16.2362945"><ele>181.0</ele><time>2026-05-03T12:50:29.584Z</time></trkpt><trkpt lat="39.3670575" lon="16.2363629"><ele>181.0</ele><time>2026-05-03T12:50:30.595Z</time></trkpt><trkpt lat="39.3672853" lon="16.2364258"><ele>177.5</ele><time>2026-05-03T12:50:31.602Z</time></trkpt><trkpt lat="39.3675168" lon="16.2364774"><ele>174.0</ele><time>2026-05-03T12:50:32.606Z</time></trkpt><trkpt lat="39.367748" lon="16.2365071"><ele>174.0</ele><time>2026-05-03T12:50:33.608Z</time></trkpt><trkpt lat="39.3679831" lon="16.236528"><ele>174.0</ele><time>2026-05-03T12:50:34.593Z</time></trkpt><trkpt lat="39.3682237" lon="16.2365476"><ele>175.0</ele><time>2026-05-03T12:50:35.601Z</time></trkpt><trkpt lat="39.3684598" lon="16.236564"><ele>176.0</ele><time>2026-05-03T12:50:36.607Z</time></trkpt><trkpt lat="39.3686939" lon="16.2365823"><ele>175.5</ele><time>2026-05-03T12:50:37.605Z</time></trkpt><trkpt lat="39.3689294" lon="16.236592"><ele>175.0</ele><time>2026-05-03T12:50:38.615Z</time></trkpt><trkpt lat="39.3691619" lon="16.2365998"><ele>175.0</ele><time>2026-05-03T12:50:39.61Z</time></trkpt><trkpt lat="39.369395" lon="16.2365956"><ele>175.0</ele><time>2026-05-03T12:50:40.621Z</time></trkpt><trkpt lat="39.3696252" lon="16.2365873"><ele>173.5</ele><time>2026-05-03T12:50:41.611Z</time></trkpt><trkpt lat="39.3698536" lon="16.2365849"><ele>172.0</ele><time>2026-05-03T12:50:42.614Z</time></trkpt><trkpt lat="39.3700815" lon="16.2365842"><ele>172.0</ele><time>2026-05-03T12:50:43.596Z</time></trkpt><trkpt lat="39.3703027" lon="16.2365809"><ele>172.0</ele><time>2026-05-03T12:50:44.605Z</time></trkpt><trkpt lat="39.370526" lon="16.2365778"><ele>172.0</ele><time>2026-05-03T12:50:45.605Z</time></trkpt><trkpt lat="39.3707524" lon="16.236582"><ele>172.5</ele><time>2026-05-03T12:50:46.593Z</time></trkpt><trkpt lat="39.3709801" lon="16.2365848"><ele>173.0</ele><time>2026-05-03T12:50:47.605Z</time></trkpt><trkpt lat="39.3712069" lon="16.2365837"><ele>172.5</ele><time>2026-05-03T12:50:48.592Z</time></trkpt><trkpt lat="39.3714323" lon="16.2365791"><ele>172.0</ele><time>2026-05-03T12:50:49.597Z</time></trkpt><trkpt lat="39.371657" lon="16.23657"><ele>172.0</ele><time>2026-05-03T12:50:50.606Z</time></trkpt><trkpt lat="39.3718847" lon="16.2365685"><ele>172.0</ele><time>2026-05-03T12:50:51.577Z</time></trkpt><trkpt lat="39.3721146" lon="16.2365705"><ele>173.0</ele><time>2026-05-03T12:50:52.589Z</time></trkpt><trkpt lat="39.3723473" lon="16.2365706"><ele>174.0</ele><time>2026-05-03T12:50:53.601Z</time></trkpt><trkpt lat="39.3725795" lon="16.236566"><ele>174.0</ele><time>2026-05-03T12:50:54.612Z</time></trkpt><trkpt lat="39.3728114" lon="16.236554"><ele>174.0</ele><time>2026-05-03T12:50:55.604Z</time></trkpt><trkpt lat="39.3730465" lon="16.2365504"><ele>173.5</ele><time>2026-05-03T12:50:56.613Z</time></trkpt><trkpt lat="39.37328" lon="16.236551"><ele>173.0</ele><time>2026-05-03T12:50:57.606Z</time></trkpt><trkpt lat="39.3735172" lon="16.2365495"><ele>173.0</ele><time>2026-05-03T12:50:58.58Z</time></trkpt><trkpt lat="39.3737558" lon="16.2365481"><ele>173.0</ele><time>2026-05-03T12:50:59.579Z</time></trkpt><trkpt lat="39.3739959" lon="16.2365373"><ele>171.0</ele><time>2026-05-03T12:51:00.597Z</time></trkpt><trkpt lat="39.3742293" lon="16.2365302"><ele>169.0</ele><time>2026-05-03T12:51:01.591Z</time></trkpt><trkpt lat="39.3744632" lon="16.2365228"><ele>169.5</ele><time>2026-05-03T12:51:02.592Z</time></trkpt><trkpt lat="39.3746983" lon="16.2365211"><ele>170.0</ele><time>2026-05-03T12:51:03.583Z</time></trkpt><trkpt lat="39.3749364" lon="16.2365157"><ele>170.0</ele><time>2026-05-03T12:51:04.6Z</time></trkpt><trkpt lat="39.3751761" lon="16.2365151"><ele>170.0</ele><time>2026-05-03T12:51:05.578Z</time></trkpt><trkpt lat="39.3754148" lon="16.2365117"><ele>171.5</ele><time>2026-05-03T12:51:06.578Z</time></trkpt><trkpt lat="39.3756532" lon="16.2365134"><ele>173.0</ele><time>2026-05-03T12:51:07.574Z</time></trkpt><trkpt lat="39.3758936" lon="16.2365187"><ele>173.0</ele><time>2026-05-03T12:51:08.585Z</time></trkpt><trkpt lat="39.3761298" lon="16.2365154"><ele>173.0</ele><time>2026-05-03T12:51:09.581Z</time></trkpt><trkpt lat="39.3763639" lon="16.2365092"><ele>174.0</ele><time>2026-05-03T12:51:10.599Z</time></trkpt><trkpt lat="39.3766005" lon="16.236513"><ele>175.0</ele><time>2026-05-03T12:51:11.584Z</time></trkpt><trkpt lat="39.376835" lon="16.2365146"><ele>175.0</ele><time>2026-05-03T12:51:12.6Z</time></trkpt><trkpt lat="39.3770697" lon="16.2365071"><ele>175.0</ele><time>2026-05-03T12:51:13.586Z</time></trkpt><trkpt lat="39.3773092" lon="16.236501"><ele>172.0</ele><time>2026-05-03T12:51:14.582Z</time></trkpt><trkpt lat="39.3775512" lon="16.2364986"><ele>169.0</ele><time>2026-05-03T12:51:15.604Z</time></trkpt><trkpt lat="39.3777958" lon="16.2364957"><ele>167.0</ele><time>2026-05-03T12:51:16.606Z</time></trkpt><trkpt lat="39.3780393" lon="16.2364876"><ele>165.0</ele><time>2026-05-03T12:51:17.585Z</time></trkpt><trkpt lat="39.3782821" lon="16.2364793"><ele>165.0</ele><time>2026-05-03T12:51:18.575Z</time></trkpt><trkpt lat="39.3785253" lon="16.2364734"><ele>165.0</ele><time>2026-05-03T12:51:19.599Z</time></trkpt><trkpt lat="39.3787671" lon="16.23648"><ele>164.5</ele><time>2026-05-03T12:51:20.593Z</time></trkpt><trkpt lat="39.3790029" lon="16.2364752"><ele>164.0</ele><time>2026-05-03T12:51:21.614Z</time></trkpt><trkpt lat="39.3792337" lon="16.2364682"><ele>164.0</ele><time>2026-05-03T12:51:22.616Z</time></trkpt><trkpt lat="39.379468" lon="16.2364683"><ele>164.0</ele><time>2026-05-03T12:51:23.588Z</time></trkpt><trkpt lat="39.3797021" lon="16.2364659"><ele>163.0</ele><time>2026-05-03T12:51:24.605Z</time></trkpt><trkpt lat="39.3799357" lon="16.2364663"><ele>162.0</ele><time>2026-05-03T12:51:25.603Z</time></trkpt><trkpt lat="39.3801714" lon="16.2364605"><ele>162.0</ele><time>2026-05-03T12:51:26.605Z</time></trkpt><trkpt lat="39.3804072" lon="16.2364512"><ele>162.0</ele><time>2026-05-03T12:51:27.603Z</time></trkpt><trkpt lat="39.3806436" lon="16.2364516"><ele>161.5</ele><time>2026-05-03T12:51:28.601Z</time></trkpt><trkpt lat="39.3808812" lon="16.2364571"><ele>161.0</ele><time>2026-05-03T12:51:29.601Z</time></trkpt><trkpt lat="39.3811182" lon="16.236456"><ele>161.0</ele><time>2026-05-03T12:51:30.602Z</time></trkpt><trkpt lat="39.3813595" lon="16.2364488"><ele>161.0</ele><time>2026-05-03T12:51:31.613Z</time></trkpt><trkpt lat="39.3816013" lon="16.2364461"><ele>161.0</ele><time>2026-05-03T12:51:32.621Z</time></trkpt><trkpt lat="39.3818425" lon="16.2364508"><ele>161.0</ele><time>2026-05-03T12:51:33.571Z</time></trkpt><trkpt lat="39.3820836" lon="16.2364551"><ele>160.0</ele><time>2026-05-03T12:51:34.589Z</time></trkpt><trkpt lat="39.382328" lon="16.2364568"><ele>159.0</ele><time>2026-05-03T12:51:35.577Z</time></trkpt><trkpt lat="39.3825694" lon="16.2364685"><ele>159.0</ele><time>2026-05-03T12:51:36.595Z</time></trkpt><trkpt lat="39.3828108" lon="16.2364936"><ele>159.0</ele><time>2026-05-03T12:51:37.581Z</time></trkpt><trkpt lat="39.3830473" lon="16.2365211"><ele>158.0</ele><time>2026-05-03T12:51:38.579Z</time></trkpt><trkpt lat="39.383292" lon="16.2365509"><ele>157.0</ele><time>2026-05-03T12:51:39.601Z</time></trkpt><trkpt lat="39.3835327" lon="16.2365933"><ele>157.0</ele><time>2026-05-03T12:51:40.585Z</time></trkpt><trkpt lat="39.3837728" lon="16.2366343"><ele>157.0</ele><time>2026-05-03T12:51:41.58Z</time></trkpt><trkpt lat="39.3840094" lon="16.23669"><ele>158.0</ele><time>2026-05-03T12:51:42.605Z</time></trkpt><trkpt lat="39.3842423" lon="16.2367545"><ele>159.0</ele><time>2026-05-03T12:51:43.576Z</time></trkpt><trkpt lat="39.3844737" lon="16.2368221"><ele>159.0</ele><time>2026-05-03T12:51:44.595Z</time></trkpt><trkpt lat="39.3847039" lon="16.2368985"><ele>159.0</ele><time>2026-05-03T12:51:45.579Z</time></trkpt><trkpt lat="39.3849289" lon="16.2369826"><ele>159.0</ele><time>2026-05-03T12:51:46.575Z</time></trkpt><trkpt lat="39.3851522" lon="16.2370829"><ele>159.0</ele><time>2026-05-03T12:51:47.569Z</time></trkpt><trkpt lat="39.3853756" lon="16.2371884"><ele>160.0</ele><time>2026-05-03T12:51:48.59Z</time></trkpt><trkpt lat="39.3855909" lon="16.2372999"><ele>161.0</ele><time>2026-05-03T12:51:49.603Z</time></trkpt><trkpt lat="39.3858039" lon="16.237419"><ele>161.0</ele><time>2026-05-03T12:51:50.604Z</time></trkpt><trkpt lat="39.3860124" lon="16.2375499"><ele>161.0</ele><time>2026-05-03T12:51:51.594Z</time></trkpt><trkpt lat="39.3862196" lon="16.2376845"><ele>163.0</ele><time>2026-05-03T12:51:52.597Z</time></trkpt><trkpt lat="39.3864274" lon="16.2378192"><ele>165.0</ele><time>2026-05-03T12:51:53.59Z</time></trkpt><trkpt lat="39.3866303" lon="16.2379637"><ele>165.0</ele><time>2026-05-03T12:51:54.602Z</time></trkpt><trkpt lat="39.3868303" lon="16.2381155"><ele>165.0</ele><time>2026-05-03T12:51:55.603Z</time></trkpt><trkpt lat="39.3870297" lon="16.2382785"><ele>162.5</ele><time>2026-05-03T12:51:56.592Z</time></trkpt><trkpt lat="39.3872263" lon="16.2384504"><ele>160.0</ele><time>2026-05-03T12:51:57.589Z</time></trkpt><trkpt lat="39.3874211" lon="16.2386258"><ele>160.0</ele><time>2026-05-03T12:51:58.597Z</time></trkpt><trkpt lat="39.3876158" lon="16.2388067"><ele>160.0</ele><time>2026-05-03T12:51:59.589Z</time></trkpt><trkpt lat="39.3878124" lon="16.2389851"><ele>159.5</ele><time>2026-05-03T12:52:00.583Z</time></trkpt><trkpt lat="39.3880071" lon="16.2391663"><ele>159.0</ele><time>2026-05-03T12:52:01.598Z</time></trkpt><trkpt lat="39.3882006" lon="16.239354"><ele>161.0</ele><time>2026-05-03T12:52:02.595Z</time></trkpt><trkpt lat="39.388397" lon="16.2395423"><ele>163.0</ele><time>2026-05-03T12:52:03.607Z</time></trkpt><trkpt lat="39.3885924" lon="16.2397287"><ele>163.0</ele><time>2026-05-03T12:52:04.606Z</time></trkpt><trkpt lat="39.3887878" lon="16.2399186"><ele>163.0</ele><time>2026-05-03T12:52:05.595Z</time></trkpt><trkpt lat="39.3889808" lon="16.2401"><ele>164.0</ele><time>2026-05-03T12:52:06.612Z</time></trkpt><trkpt lat="39.3891738" lon="16.240283"><ele>165.0</ele><time>2026-05-03T12:52:07.596Z</time></trkpt><trkpt lat="39.3893705" lon="16.2404617"><ele>165.5</ele><time>2026-05-03T12:52:08.598Z</time></trkpt><trkpt lat="39.3895706" lon="16.2406384"><ele>166.0</ele><time>2026-05-03T12:52:09.591Z</time></trkpt><trkpt lat="39.3897725" lon="16.2408074"><ele>166.0</ele><time>2026-05-03T12:52:10.601Z</time></trkpt><trkpt lat="39.3899774" lon="16.2409722"><ele>166.0</ele><time>2026-05-03T12:52:11.602Z</time></trkpt><trkpt lat="39.3901837" lon="16.2411412"><ele>166.0</ele><time>2026-05-03T12:52:12.602Z</time></trkpt><trkpt lat="39.3903915" lon="16.2412984"><ele>166.0</ele><time>2026-05-03T12:52:13.596Z</time></trkpt><trkpt lat="39.3906061" lon="16.2414468"><ele>165.0</ele><time>2026-05-03T12:52:14.594Z</time></trkpt><trkpt lat="39.3908213" lon="16.2415836"><ele>164.0</ele><time>2026-05-03T12:52:15.579Z</time></trkpt><trkpt lat="39.3910427" lon="16.2417118"><ele>164.0</ele><time>2026-05-03T12:52:16.603Z</time></trkpt><trkpt lat="39.3912666" lon="16.2418356"><ele>164.0</ele><time>2026-05-03T12:52:17.591Z</time></trkpt><trkpt lat="39.3914911" lon="16.2419563"><ele>164.0</ele><time>2026-05-03T12:52:18.592Z</time></trkpt><trkpt lat="39.3917172" lon="16.2420636"><ele>164.0</ele><time>2026-05-03T12:52:19.592Z</time></trkpt><trkpt lat="39.3919468" lon="16.2421616"><ele>164.0</ele><time>2026-05-03T12:52:20.597Z</time></trkpt><trkpt lat="39.3921811" lon="16.2422532"><ele>164.0</ele><time>2026-05-03T12:52:21.594Z</time></trkpt><trkpt lat="39.3924165" lon="16.242337"><ele>162.0</ele><time>2026-05-03T12:52:22.586Z</time></trkpt><trkpt lat="39.3926535" lon="16.2424171"><ele>160.0</ele><time>2026-05-03T12:52:23.604Z</time></trkpt><trkpt lat="39.3928917" lon="16.2424815"><ele>160.0</ele><time>2026-05-03T12:52:24.6Z</time></trkpt><trkpt lat="39.3931363" lon="16.2425383"><ele>160.0</ele><time>2026-05-03T12:52:25.611Z</time></trkpt><trkpt lat="39.3933841" lon="16.2425903"><ele>160.0</ele><time>2026-05-03T12:52:26.604Z</time></trkpt><trkpt lat="39.3936315" lon="16.2426344"><ele>160.0</ele><time>2026-05-03T12:52:27.593Z</time></trkpt><trkpt lat="39.3938776" lon="16.2426822"><ele>158.5</ele><time>2026-05-03T12:52:28.6Z</time></trkpt><trkpt lat="39.3941284" lon="16.2427188"><ele>157.0</ele><time>2026-05-03T12:52:29.575Z</time></trkpt><trkpt lat="39.3943758" lon="16.2427526"><ele>157.0</ele><time>2026-05-03T12:52:30.606Z</time></trkpt><trkpt lat="39.3946283" lon="16.2427908"><ele>157.0</ele><time>2026-05-03T12:52:31.59Z</time></trkpt><trkpt lat="39.3948817" lon="16.2428273"><ele>156.5</ele><time>2026-05-03T12:52:32.582Z</time></trkpt><trkpt lat="39.3951364" lon="16.2428712"><ele>156.0</ele><time>2026-05-03T12:52:33.585Z</time></trkpt><trkpt lat="39.3953891" lon="16.2429165"><ele>154.0</ele><time>2026-05-03T12:52:34.609Z</time></trkpt><trkpt lat="39.395641" lon="16.24296"><ele>152.0</ele><time>2026-05-03T12:52:35.599Z</time></trkpt><trkpt lat="39.3958871" lon="16.2429979"><ele>152.0</ele><time>2026-05-03T12:52:36.602Z</time></trkpt><trkpt lat="39.396134" lon="16.24303"><ele>152.0</ele><time>2026-05-03T12:52:37.599Z</time></trkpt><trkpt lat="39.3963775" lon="16.2430526"><ele>150.0</ele><time>2026-05-03T12:52:38.588Z</time></trkpt><trkpt lat="39.3966206" lon="16.2430825"><ele>148.0</ele><time>2026-05-03T12:52:39.605Z</time></trkpt><trkpt lat="39.3968643" lon="16.2431128"><ele>148.0</ele><time>2026-05-03T12:52:40.587Z</time></trkpt><trkpt lat="39.3971074" lon="16.2431387"><ele>148.0</ele><time>2026-05-03T12:52:41.583Z</time></trkpt><trkpt lat="39.3973532" lon="16.2431677"><ele>148.5</ele><time>2026-05-03T12:52:42.577Z</time></trkpt><trkpt lat="39.3975962" lon="16.2431988"><ele>149.0</ele><time>2026-05-03T12:52:43.582Z</time></trkpt><trkpt lat="39.3978426" lon="16.2432285"><ele>147.0</ele><time>2026-05-03T12:52:44.6Z</time></trkpt><trkpt lat="39.3980854" lon="16.2432621"><ele>145.0</ele><time>2026-05-03T12:52:45.586Z</time></trkpt><trkpt lat="39.3983278" lon="16.2432943"><ele>145.0</ele><time>2026-05-03T12:52:46.593Z</time></trkpt><trkpt lat="39.3985692" lon="16.243326"><ele>145.0</ele><time>2026-05-03T12:52:47.59Z</time></trkpt><trkpt lat="39.3988089" lon="16.2433533"><ele>144.5</ele><time>2026-05-03T12:52:48.605Z</time></trkpt><trkpt lat="39.3990473" lon="16.2433851"><ele>144.0</ele><time>2026-05-03T12:52:49.6Z</time></trkpt><trkpt lat="39.3992827" lon="16.2434186"><ele>144.0</ele><time>2026-05-03T12:52:50.594Z</time></trkpt><trkpt lat="39.3995165" lon="16.2434489"><ele>144.0</ele><time>2026-05-03T12:52:51.596Z</time></trkpt><trkpt lat="39.3997482" lon="16.2434786"><ele>144.0</ele><time>2026-05-03T12:52:52.615Z</time></trkpt><trkpt lat="39.3999808" lon="16.2435118"><ele>144.0</ele><time>2026-05-03T12:52:53.601Z</time></trkpt><trkpt lat="39.4002123" lon="16.2435436"><ele>144.0</ele><time>2026-05-03T12:52:54.595Z</time></trkpt><trkpt lat="39.4004415" lon="16.2435741"><ele>144.0</ele><time>2026-05-03T12:52:55.604Z</time></trkpt><trkpt lat="39.4006702" lon="16.2436031"><ele>144.5</ele><time>2026-05-03T12:52:56.589Z</time></trkpt><trkpt lat="39.4009006" lon="16.2436311"><ele>145.0</ele><time>2026-05-03T12:52:57.592Z</time></trkpt><trkpt lat="39.401129" lon="16.2436575"><ele>144.0</ele><time>2026-05-03T12:52:58.597Z</time></trkpt><trkpt lat="39.4013575" lon="16.2436827"><ele>143.0</ele><time>2026-05-03T12:52:59.593Z</time></trkpt><trkpt lat="39.4015838" lon="16.2437072"><ele>143.0</ele><time>2026-05-03T12:53:00.598Z</time></trkpt><trkpt lat="39.4018122" lon="16.243735"><ele>143.0</ele><time>2026-05-03T12:53:01.578Z</time></trkpt><trkpt lat="39.4020447" lon="16.2437667"><ele>143.5</ele><time>2026-05-03T12:53:02.598Z</time></trkpt><trkpt lat="39.4022714" lon="16.2437935"><ele>144.0</ele><time>2026-05-03T12:53:03.607Z</time></trkpt><trkpt lat="39.4024993" lon="16.2438258"><ele>144.0</ele><time>2026-05-03T12:53:04.602Z</time></trkpt><trkpt lat="39.4027294" lon="16.2438564"><ele>144.0</ele><time>2026-05-03T12:53:05.61Z</time></trkpt><trkpt lat="39.402958" lon="16.2438855"><ele>146.0</ele><time>2026-05-03T12:53:06.608Z</time></trkpt><trkpt lat="39.403187" lon="16.2439131"><ele>148.0</ele><time>2026-05-03T12:53:07.611Z</time></trkpt><trkpt lat="39.4034119" lon="16.2439487"><ele>147.0</ele><time>2026-05-03T12:53:08.612Z</time></trkpt><trkpt lat="39.4036395" lon="16.2439812"><ele>146.0</ele><time>2026-05-03T12:53:09.593Z</time></trkpt><trkpt lat="39.4038672" lon="16.2440078"><ele>148.0</ele><time>2026-05-03T12:53:10.574Z</time></trkpt><trkpt lat="39.4040961" lon="16.244033"><ele>150.0</ele><time>2026-05-03T12:53:11.607Z</time></trkpt><trkpt lat="39.404325" lon="16.2440638"><ele>150.0</ele><time>2026-05-03T12:53:12.598Z</time></trkpt><trkpt lat="39.4045569" lon="16.2440912"><ele>150.0</ele><time>2026-05-03T12:53:13.59Z</time></trkpt><trkpt lat="39.4047869" lon="16.244124"><ele>150.0</ele><time>2026-05-03T12:53:14.606Z</time></trkpt><trkpt lat="39.4050161" lon="16.2441553"><ele>150.0</ele><time>2026-05-03T12:53:15.575Z</time></trkpt><trkpt lat="39.4052462" lon="16.244179"><ele>150.0</ele><time>2026-05-03T12:53:16.607Z</time></trkpt><trkpt lat="39.405478" lon="16.2442052"><ele>150.0</ele><time>2026-05-03T12:53:17.602Z</time></trkpt><trkpt lat="39.4057089" lon="16.244234"><ele>150.5</ele><time>2026-05-03T12:53:18.601Z</time></trkpt><trkpt lat="39.4059384" lon="16.2442701"><ele>151.0</ele><time>2026-05-03T12:53:19.577Z</time></trkpt><trkpt lat="39.4061697" lon="16.2443002"><ele>151.0</ele><time>2026-05-03T12:53:20.578Z</time></trkpt><trkpt lat="39.4064023" lon="16.2443301"><ele>151.0</ele><time>2026-05-03T12:53:21.593Z</time></trkpt><trkpt lat="39.4066365" lon="16.2443542"><ele>151.0</ele><time>2026-05-03T12:53:22.6Z</time></trkpt><trkpt lat="39.4068771" lon="16.2443811"><ele>151.0</ele><time>2026-05-03T12:53:23.57Z</time></trkpt><trkpt lat="39.4071147" lon="16.244411"><ele>149.5</ele><time>2026-05-03T12:53:24.583Z</time></trkpt><trkpt lat="39.4073543" lon="16.2444435"><ele>148.0</ele><time>2026-05-03T12:53:25.569Z</time></trkpt><trkpt lat="39.4075931" lon="16.2444769"><ele>148.0</ele><time>2026-05-03T12:53:26.572Z</time></trkpt><trkpt lat="39.4078296" lon="16.2445086"><ele>148.0</ele><time>2026-05-03T12:53:27.588Z</time></trkpt><trkpt lat="39.4080673" lon="16.2445378"><ele>149.0</ele><time>2026-05-03T12:53:28.579Z</time></trkpt><trkpt lat="39.4083091" lon="16.2445666"><ele>150.0</ele><time>2026-05-03T12:53:29.569Z</time></trkpt><trkpt lat="39.4085536" lon="16.2445947"><ele>150.0</ele><time>2026-05-03T12:53:30.577Z</time></trkpt><trkpt lat="39.4087995" lon="16.2446237"><ele>150.0</ele><time>2026-05-03T12:53:31.568Z</time></trkpt><trkpt lat="39.4090451" lon="16.2446537"><ele>149.5</ele><time>2026-05-03T12:53:32.595Z</time></trkpt><trkpt lat="39.409291" lon="16.2446826"><ele>149.0</ele><time>2026-05-03T12:53:33.563Z</time></trkpt><trkpt lat="39.4095393" lon="16.2447147"><ele>148.5</ele><time>2026-05-03T12:53:34.566Z</time></trkpt><trkpt lat="39.4097833" lon="16.2447506"><ele>148.0</ele><time>2026-05-03T12:53:35.571Z</time></trkpt><trkpt lat="39.4100265" lon="16.2447843"><ele>146.0</ele><time>2026-05-03T12:53:36.585Z</time></trkpt><trkpt lat="39.4102721" lon="16.2448157"><ele>144.0</ele><time>2026-05-03T12:53:37.575Z</time></trkpt><trkpt lat="39.4105163" lon="16.2448468"><ele>143.0</ele><time>2026-05-03T12:53:38.578Z</time></trkpt><trkpt lat="39.4107642" lon="16.2448762"><ele>142.0</ele><time>2026-05-03T12:53:39.574Z</time></trkpt><trkpt lat="39.4110114" lon="16.2449083"><ele>142.0</ele><time>2026-05-03T12:53:40.583Z</time></trkpt><trkpt lat="39.4112559" lon="16.2449311"><ele>142.0</ele><time>2026-05-03T12:53:41.565Z</time></trkpt><trkpt lat="39.4115031" lon="16.2449487"><ele>143.0</ele><time>2026-05-03T12:53:42.59Z</time></trkpt><trkpt lat="39.4117479" lon="16.2449675"><ele>144.0</ele><time>2026-05-03T12:53:43.578Z</time></trkpt><trkpt lat="39.4119907" lon="16.2449794"><ele>143.0</ele><time>2026-05-03T12:53:44.579Z</time></trkpt><trkpt lat="39.4122343" lon="16.2449882"><ele>142.0</ele><time>2026-05-03T12:53:45.596Z</time></trkpt><trkpt lat="39.4124804" lon="16.2449819"><ele>142.0</ele><time>2026-05-03T12:53:46.581Z</time></trkpt><trkpt lat="39.412728" lon="16.244988"><ele>142.0</ele><time>2026-05-03T12:53:47.561Z</time></trkpt><trkpt lat="39.4129738" lon="16.244975"><ele>140.0</ele><time>2026-05-03T12:53:48.573Z</time></trkpt><trkpt lat="39.4132157" lon="16.2449628"><ele>138.0</ele><time>2026-05-03T12:53:49.583Z</time></trkpt><trkpt lat="39.4134566" lon="16.2449442"><ele>138.0</ele><time>2026-05-03T12:53:50.584Z</time></trkpt><trkpt lat="39.4136947" lon="16.24492"><ele>138.0</ele><time>2026-05-03T12:53:51.578Z</time></trkpt><trkpt lat="39.4139352" lon="16.2448849"><ele>138.0</ele><time>2026-05-03T12:53:52.581Z</time></trkpt><trkpt lat="39.4141775" lon="16.2448443"><ele>138.0</ele><time>2026-05-03T12:53:53.575Z</time></trkpt><trkpt lat="39.4144167" lon="16.244792"><ele>137.0</ele><time>2026-05-03T12:53:54.599Z</time></trkpt><trkpt lat="39.414657" lon="16.2447412"><ele>136.0</ele><time>2026-05-03T12:53:55.575Z</time></trkpt><trkpt lat="39.4148971" lon="16.2446826"><ele>136.0</ele><time>2026-05-03T12:53:56.583Z</time></trkpt><trkpt lat="39.415137" lon="16.2446129"><ele>136.0</ele><time>2026-05-03T12:53:57.572Z</time></trkpt><trkpt lat="39.4153729" lon="16.2445414"><ele>133.5</ele><time>2026-05-03T12:53:58.568Z</time></trkpt><trkpt lat="39.4156058" lon="16.2444702"><ele>131.0</ele><time>2026-05-03T12:53:59.569Z</time></trkpt><trkpt lat="39.4158373" lon="16.2443972"><ele>131.0</ele><time>2026-05-03T12:54:00.568Z</time></trkpt><trkpt lat="39.4160719" lon="16.2443214"><ele>131.0</ele><time>2026-05-03T12:54:01.563Z</time></trkpt><trkpt lat="39.416302" lon="16.2442402"><ele>131.0</ele><time>2026-05-03T12:54:02.576Z</time></trkpt><trkpt lat="39.4165313" lon="16.2441546"><ele>131.0</ele><time>2026-05-03T12:54:03.567Z</time></trkpt><trkpt lat="39.4167554" lon="16.2440683"><ele>131.0</ele><time>2026-05-03T12:54:04.567Z</time></trkpt><trkpt lat="39.4169802" lon="16.2439848"><ele>131.0</ele><time>2026-05-03T12:54:05.573Z</time></trkpt><trkpt lat="39.4172023" lon="16.2438999"><ele>136.5</ele><time>2026-05-03T12:54:06.563Z</time></trkpt><trkpt lat="39.4174238" lon="16.2438196"><ele>142.0</ele><time>2026-05-03T12:54:07.562Z</time></trkpt><trkpt lat="39.4176444" lon="16.2437339"><ele>142.0</ele><time>2026-05-03T12:54:08.575Z</time></trkpt><trkpt lat="39.4178634" lon="16.2436476"><ele>142.0</ele><time>2026-05-03T12:54:09.573Z</time></trkpt><trkpt lat="39.418082" lon="16.2435631"><ele>142.0</ele><time>2026-05-03T12:54:10.564Z</time></trkpt><trkpt lat="39.4182973" lon="16.2434736"><ele>142.0</ele><time>2026-05-03T12:54:11.595Z</time></trkpt><trkpt lat="39.4185144" lon="16.2433922"><ele>142.0</ele><time>2026-05-03T12:54:12.584Z</time></trkpt><trkpt lat="39.4187359" lon="16.2433207"><ele>142.0</ele><time>2026-05-03T12:54:13.579Z</time></trkpt><trkpt lat="39.418955" lon="16.2432549"><ele>142.0</ele><time>2026-05-03T12:54:14.581Z</time></trkpt><trkpt lat="39.4191758" lon="16.2431892"><ele>142.0</ele><time>2026-05-03T12:54:15.596Z</time></trkpt><trkpt lat="39.4193989" lon="16.2431313"><ele>142.5</ele><time>2026-05-03T12:54:16.598Z</time></trkpt><trkpt lat="39.419625" lon="16.2430731"><ele>143.0</ele><time>2026-05-03T12:54:17.598Z</time></trkpt><trkpt lat="39.4198555" lon="16.2430197"><ele>143.5</ele><time>2026-05-03T12:54:18.588Z</time></trkpt><trkpt lat="39.4200899" lon="16.2429638"><ele>144.0</ele><time>2026-05-03T12:54:19.593Z</time></trkpt><trkpt lat="39.4203224" lon="16.2429084"><ele>143.5</ele><time>2026-05-03T12:54:20.588Z</time></trkpt><trkpt lat="39.4205579" lon="16.242868"><ele>143.0</ele><time>2026-05-03T12:54:21.604Z</time></trkpt><trkpt lat="39.4207989" lon="16.2428145"><ele>143.0</ele><time>2026-05-03T12:54:22.592Z</time></trkpt><trkpt lat="39.4210442" lon="16.2427622"><ele>143.0</ele><time>2026-05-03T12:54:23.593Z</time></trkpt><trkpt lat="39.4212884" lon="16.2427137"><ele>143.0</ele><time>2026-05-03T12:54:24.609Z</time></trkpt><trkpt lat="39.4215301" lon="16.2426636"><ele>143.0</ele><time>2026-05-03T12:54:25.586Z</time></trkpt><trkpt lat="39.4217706" lon="16.2426135"><ele>143.0</ele><time>2026-05-03T12:54:26.592Z</time></trkpt><trkpt lat="39.4220155" lon="16.2425701"><ele>143.0</ele><time>2026-05-03T12:54:27.613Z</time></trkpt><trkpt lat="39.4222622" lon="16.2425239"><ele>142.5</ele><time>2026-05-03T12:54:28.591Z</time></trkpt><trkpt lat="39.4225082" lon="16.2424803"><ele>142.0</ele><time>2026-05-03T12:54:29.606Z</time></trkpt><trkpt lat="39.4227551" lon="16.2424332"><ele>141.0</ele><time>2026-05-03T12:54:30.609Z</time></trkpt><trkpt lat="39.4229996" lon="16.242385"><ele>140.0</ele><time>2026-05-03T12:54:31.591Z</time></trkpt><trkpt lat="39.4232451" lon="16.2423334"><ele>141.0</ele><time>2026-05-03T12:54:32.584Z</time></trkpt><trkpt lat="39.4234896" lon="16.2422929"><ele>142.0</ele><time>2026-05-03T12:54:33.604Z</time></trkpt><trkpt lat="39.4237348" lon="16.2422516"><ele>142.5</ele><time>2026-05-03T12:54:34.606Z</time></trkpt><trkpt lat="39.4239829" lon="16.2422108"><ele>143.0</ele><time>2026-05-03T12:54:35.593Z</time></trkpt><trkpt lat="39.4242265" lon="16.2421675"><ele>143.0</ele><time>2026-05-03T12:54:36.601Z</time></trkpt><trkpt lat="39.4244725" lon="16.2421217"><ele>143.0</ele><time>2026-05-03T12:54:37.599Z</time></trkpt><trkpt lat="39.4247179" lon="16.2420746"><ele>142.0</ele><time>2026-05-03T12:54:38.607Z</time></trkpt><trkpt lat="39.4249595" lon="16.2420242"><ele>141.0</ele><time>2026-05-03T12:54:39.603Z</time></trkpt><trkpt lat="39.4252022" lon="16.2419858"><ele>141.0</ele><time>2026-05-03T12:54:40.589Z</time></trkpt><trkpt lat="39.4254435" lon="16.2419367"><ele>141.0</ele><time>2026-05-03T12:54:41.599Z</time></trkpt><trkpt lat="39.4256848" lon="16.2418911"><ele>140.5</ele><time>2026-05-03T12:54:42.609Z</time></trkpt><trkpt lat="39.4259196" lon="16.2418406"><ele>140.0</ele><time>2026-05-03T12:54:43.585Z</time></trkpt><trkpt lat="39.4261562" lon="16.2417985"><ele>140.0</ele><time>2026-05-03T12:54:44.616Z</time></trkpt><trkpt lat="39.4263912" lon="16.2417546"><ele>140.0</ele><time>2026-05-03T12:54:45.607Z</time></trkpt><trkpt lat="39.4266306" lon="16.2417157"><ele>140.0</ele><time>2026-05-03T12:54:46.605Z</time></trkpt><trkpt lat="39.426868" lon="16.2416674"><ele>140.0</ele><time>2026-05-03T12:54:47.57Z</time></trkpt><trkpt lat="39.427109" lon="16.2416245"><ele>140.5</ele><time>2026-05-03T12:54:48.607Z</time></trkpt><trkpt lat="39.4273493" lon="16.2415796"><ele>141.0</ele><time>2026-05-03T12:54:49.589Z</time></trkpt><trkpt lat="39.4275878" lon="16.2415348"><ele>141.0</ele><time>2026-05-03T12:54:50.578Z</time></trkpt><trkpt lat="39.4278233" lon="16.2414878"><ele>141.0</ele><time>2026-05-03T12:54:51.583Z</time></trkpt><trkpt lat="39.4280599" lon="16.2414411"><ele>141.0</ele><time>2026-05-03T12:54:52.572Z</time></trkpt><trkpt lat="39.4282975" lon="16.2413896"><ele>141.0</ele><time>2026-05-03T12:54:53.605Z</time></trkpt><trkpt lat="39.428536" lon="16.2413513"><ele>141.0</ele><time>2026-05-03T12:54:54.603Z</time></trkpt><trkpt lat="39.4287807" lon="16.2413141"><ele>141.0</ele><time>2026-05-03T12:54:55.601Z</time></trkpt><trkpt lat="39.4290217" lon="16.2412756"><ele>138.0</ele><time>2026-05-03T12:54:56.594Z</time></trkpt><trkpt lat="39.4292691" lon="16.2412384"><ele>135.0</ele><time>2026-05-03T12:54:57.611Z</time></trkpt><trkpt lat="39.4295159" lon="16.2412019"><ele>134.5</ele><time>2026-05-03T12:54:58.592Z</time></trkpt><trkpt lat="39.4297642" lon="16.2411714"><ele>134.0</ele><time>2026-05-03T12:54:59.599Z</time></trkpt><trkpt lat="39.4300184" lon="16.2411464"><ele>134.0</ele><time>2026-05-03T12:55:00.593Z</time></trkpt><trkpt lat="39.4302784" lon="16.2411273"><ele>134.0</ele><time>2026-05-03T12:55:01.614Z</time></trkpt><trkpt lat="39.4305395" lon="16.2411217"><ele>133.5</ele><time>2026-05-03T12:55:02.604Z</time></trkpt><trkpt lat="39.4307986" lon="16.2411193"><ele>133.0</ele><time>2026-05-03T12:55:03.603Z</time></trkpt><trkpt lat="39.4310593" lon="16.2411164"><ele>132.5</ele><time>2026-05-03T12:55:04.578Z</time></trkpt><trkpt lat="39.4313245" lon="16.2411123"><ele>132.0</ele><time>2026-05-03T12:55:05.605Z</time></trkpt><trkpt lat="39.4315882" lon="16.2411071"><ele>132.0</ele><time>2026-05-03T12:55:06.6Z</time></trkpt><trkpt lat="39.431849" lon="16.2410975"><ele>132.0</ele><time>2026-05-03T12:55:07.607Z</time></trkpt><trkpt lat="39.4321122" lon="16.2410866"><ele>132.0</ele><time>2026-05-03T12:55:08.585Z</time></trkpt><trkpt lat="39.4323703" lon="16.2410752"><ele>132.0</ele><time>2026-05-03T12:55:09.57Z</time></trkpt><trkpt lat="39.4326278" lon="16.24107"><ele>132.0</ele><time>2026-05-03T12:55:10.572Z</time></trkpt><trkpt lat="39.4328879" lon="16.241071"><ele>132.0</ele><time>2026-05-03T12:55:11.566Z</time></trkpt><trkpt lat="39.4331473" lon="16.2410741"><ele>131.0</ele><time>2026-05-03T12:55:12.584Z</time></trkpt><trkpt lat="39.4334091" lon="16.2410679"><ele>130.0</ele><time>2026-05-03T12:55:13.583Z</time></trkpt><trkpt lat="39.4336726" lon="16.2410596"><ele>129.5</ele><time>2026-05-03T12:55:14.593Z</time></trkpt><trkpt lat="39.4339344" lon="16.2410568"><ele>129.0</ele><time>2026-05-03T12:55:15.584Z</time></trkpt><trkpt lat="39.434193" lon="16.2410454"><ele>129.0</ele><time>2026-05-03T12:55:16.574Z</time></trkpt><trkpt lat="39.4344513" lon="16.2410317"><ele>129.0</ele><time>2026-05-03T12:55:17.598Z</time></trkpt><trkpt lat="39.4347056" lon="16.2410107"><ele>128.0</ele><time>2026-05-03T12:55:18.592Z</time></trkpt><trkpt lat="39.4349586" lon="16.2409893"><ele>127.0</ele><time>2026-05-03T12:55:19.58Z</time></trkpt><trkpt lat="39.4352158" lon="16.240956"><ele>127.0</ele><time>2026-05-03T12:55:20.609Z</time></trkpt><trkpt lat="39.4354715" lon="16.2409201"><ele>127.0</ele><time>2026-05-03T12:55:21.589Z</time></trkpt><trkpt lat="39.4357244" lon="16.2408722"><ele>127.0</ele><time>2026-05-03T12:55:22.579Z</time></trkpt><trkpt lat="39.4359755" lon="16.2408169"><ele>127.0</ele><time>2026-05-03T12:55:23.605Z</time></trkpt><trkpt lat="39.4362218" lon="16.2407533"><ele>127.0</ele><time>2026-05-03T12:55:24.602Z</time></trkpt><trkpt lat="39.4364712" lon="16.2406758"><ele>127.0</ele><time>2026-05-03T12:55:25.606Z</time></trkpt><trkpt lat="39.4367146" lon="16.2405886"><ele>127.0</ele><time>2026-05-03T12:55:26.589Z</time></trkpt><trkpt lat="39.4369601" lon="16.2405016"><ele>127.0</ele><time>2026-05-03T12:55:27.616Z</time></trkpt><trkpt lat="39.4372039" lon="16.2403992"><ele>126.5</ele><time>2026-05-03T12:55:28.591Z</time></trkpt><trkpt lat="39.4374443" lon="16.2402971"><ele>126.0</ele><time>2026-05-03T12:55:29.583Z</time></trkpt><trkpt lat="39.4376822" lon="16.2401878"><ele>126.0</ele><time>2026-05-03T12:55:30.583Z</time></trkpt><trkpt lat="39.4379191" lon="16.2400719"><ele>126.0</ele><time>2026-05-03T12:55:31.575Z</time></trkpt><trkpt lat="39.4381537" lon="16.2399527"><ele>126.0</ele><time>2026-05-03T12:55:32.577Z</time></trkpt><trkpt lat="39.4383876" lon="16.2398364"><ele>126.0</ele><time>2026-05-03T12:55:33.575Z</time></trkpt><trkpt lat="39.4386171" lon="16.239722"><ele>124.5</ele><time>2026-05-03T12:55:34.583Z</time></trkpt><trkpt lat="39.4388501" lon="16.2396093"><ele>123.0</ele><time>2026-05-03T12:55:35.592Z</time></trkpt><trkpt lat="39.4390847" lon="16.2394959"><ele>123.0</ele><time>2026-05-03T12:55:36.597Z</time></trkpt><trkpt lat="39.4393172" lon="16.2393857"><ele>123.0</ele><time>2026-05-03T12:55:37.581Z</time></trkpt><trkpt lat="39.4395462" lon="16.2392678"><ele>120.5</ele><time>2026-05-03T12:55:38.583Z</time></trkpt><trkpt lat="39.4397759" lon="16.2391475"><ele>118.0</ele><time>2026-05-03T12:55:39.591Z</time></trkpt><trkpt lat="39.4400067" lon="16.2390306"><ele>118.5</ele><time>2026-05-03T12:55:40.585Z</time></trkpt><trkpt lat="39.4402368" lon="16.2389185"><ele>119.0</ele><time>2026-05-03T12:55:41.616Z</time></trkpt><trkpt lat="39.4404656" lon="16.2388047"><ele>119.0</ele><time>2026-05-03T12:55:42.605Z</time></trkpt><trkpt lat="39.440696" lon="16.2386913"><ele>119.0</ele><time>2026-05-03T12:55:43.616Z</time></trkpt><trkpt lat="39.440929" lon="16.2385833"><ele>119.0</ele><time>2026-05-03T12:55:44.581Z</time></trkpt><trkpt lat="39.4411631" lon="16.2384834"><ele>119.0</ele><time>2026-05-03T12:55:45.574Z</time></trkpt><trkpt lat="39.4413994" lon="16.2383945"><ele>118.0</ele><time>2026-05-03T12:55:46.596Z</time></trkpt><trkpt lat="39.4416348" lon="16.2383069"><ele>117.0</ele><time>2026-05-03T12:55:47.588Z</time></trkpt><trkpt lat="39.4418708" lon="16.2382221"><ele>117.0</ele><time>2026-05-03T12:55:48.592Z</time></trkpt><trkpt lat="39.4421092" lon="16.2381421"><ele>117.0</ele><time>2026-05-03T12:55:49.576Z</time></trkpt><trkpt lat="39.4423453" lon="16.238078"><ele>119.0</ele><time>2026-05-03T12:55:50.596Z</time></trkpt><trkpt lat="39.4425835" lon="16.2380259"><ele>121.0</ele><time>2026-05-03T12:55:51.598Z</time></trkpt><trkpt lat="39.442823" lon="16.2379867"><ele>123.0</ele><time>2026-05-03T12:55:52.59Z</time></trkpt><trkpt lat="39.4430624" lon="16.2379505"><ele>125.0</ele><time>2026-05-03T12:55:53.591Z</time></trkpt><trkpt lat="39.4432999" lon="16.2379123"><ele>125.0</ele><time>2026-05-03T12:55:54.575Z</time></trkpt><trkpt lat="39.4435369" lon="16.2378895"><ele>125.0</ele><time>2026-05-03T12:55:55.614Z</time></trkpt><trkpt lat="39.4437769" lon="16.2378739"><ele>124.0</ele><time>2026-05-03T12:55:56.586Z</time></trkpt><trkpt lat="39.4440197" lon="16.2378615"><ele>123.0</ele><time>2026-05-03T12:55:57.566Z</time></trkpt><trkpt lat="39.4442667" lon="16.2378553"><ele>123.0</ele><time>2026-05-03T12:55:58.566Z</time></trkpt><trkpt lat="39.4445066" lon="16.2378658"><ele>123.0</ele><time>2026-05-03T12:55:59.595Z</time></trkpt><trkpt lat="39.4447387" lon="16.237879"><ele>123.5</ele><time>2026-05-03T12:56:00.619Z</time></trkpt><trkpt lat="39.4449736" lon="16.2379023"><ele>124.0</ele><time>2026-05-03T12:56:01.604Z</time></trkpt><trkpt lat="39.4452139" lon="16.2379201"><ele>124.0</ele><time>2026-05-03T12:56:02.608Z</time></trkpt><trkpt lat="39.445453" lon="16.2379416"><ele>124.0</ele><time>2026-05-03T12:56:03.585Z</time></trkpt><trkpt lat="39.4456897" lon="16.2379618"><ele>123.5</ele><time>2026-05-03T12:56:04.593Z</time></trkpt><trkpt lat="39.4459249" lon="16.2379784"><ele>123.0</ele><time>2026-05-03T12:56:05.615Z</time></trkpt><trkpt lat="39.4461598" lon="16.2379909"><ele>122.5</ele><time>2026-05-03T12:56:06.595Z</time></trkpt><trkpt lat="39.4463958" lon="16.2379946"><ele>122.0</ele><time>2026-05-03T12:56:07.579Z</time></trkpt><trkpt lat="39.446632" lon="16.2379962"><ele>122.0</ele><time>2026-05-03T12:56:08.598Z</time></trkpt><trkpt lat="39.4468705" lon="16.2379992"><ele>122.0</ele><time>2026-05-03T12:56:09.606Z</time></trkpt><trkpt lat="39.447108" lon="16.2379965"><ele>120.5</ele><time>2026-05-03T12:56:10.612Z</time></trkpt><trkpt lat="39.4473455" lon="16.2379883"><ele>119.0</ele><time>2026-05-03T12:56:11.597Z</time></trkpt><trkpt lat="39.447581" lon="16.2379727"><ele>119.0</ele><time>2026-05-03T12:56:12.593Z</time></trkpt><trkpt lat="39.4478195" lon="16.2379523"><ele>119.0</ele><time>2026-05-03T12:56:13.596Z</time></trkpt><trkpt lat="39.4480568" lon="16.2379212"><ele>116.5</ele><time>2026-05-03T12:56:14.591Z</time></trkpt><trkpt lat="39.4482923" lon="16.237889"><ele>114.0</ele><time>2026-05-03T12:56:15.569Z</time></trkpt><trkpt lat="39.4485223" lon="16.2378469"><ele>114.0</ele><time>2026-05-03T12:56:16.588Z</time></trkpt><trkpt lat="39.4487523" lon="16.2377977"><ele>114.0</ele><time>2026-05-03T12:56:17.574Z</time></trkpt><trkpt lat="39.4489817" lon="16.2377407"><ele>113.0</ele><time>2026-05-03T12:56:18.58Z</time></trkpt><trkpt lat="39.4492127" lon="16.2376816"><ele>112.0</ele><time>2026-05-03T12:56:19.573Z</time></trkpt><trkpt lat="39.4494401" lon="16.2376174"><ele>110.5</ele><time>2026-05-03T12:56:20.601Z</time></trkpt><trkpt lat="39.4496663" lon="16.2375449"><ele>109.0</ele><time>2026-05-03T12:56:21.577Z</time></trkpt><trkpt lat="39.4498898" lon="16.2374688"><ele>109.0</ele><time>2026-05-03T12:56:22.578Z</time></trkpt><trkpt lat="39.4501098" lon="16.2373799"><ele>109.0</ele><time>2026-05-03T12:56:23.577Z</time></trkpt><trkpt lat="39.4503326" lon="16.2372838"><ele>110.5</ele><time>2026-05-03T12:56:24.611Z</time></trkpt><trkpt lat="39.4505506" lon="16.237186"><ele>112.0</ele><time>2026-05-03T12:56:25.603Z</time></trkpt><trkpt lat="39.450766" lon="16.2370845"><ele>112.0</ele><time>2026-05-03T12:56:26.601Z</time></trkpt><trkpt lat="39.4509794" lon="16.236976"><ele>112.0</ele><time>2026-05-03T12:56:27.584Z</time></trkpt><trkpt lat="39.4511894" lon="16.236859"><ele>111.5</ele><time>2026-05-03T12:56:28.586Z</time></trkpt><trkpt lat="39.4513977" lon="16.2367436"><ele>111.0</ele><time>2026-05-03T12:56:29.578Z</time></trkpt><trkpt lat="39.4516061" lon="16.2366169"><ele>111.0</ele><time>2026-05-03T12:56:30.594Z</time></trkpt><trkpt lat="39.4518152" lon="16.2364927"><ele>111.0</ele><time>2026-05-03T12:56:31.598Z</time></trkpt><trkpt lat="39.4520224" lon="16.2363612"><ele>108.5</ele><time>2026-05-03T12:56:32.574Z</time></trkpt><trkpt lat="39.4522237" lon="16.2362174"><ele>106.0</ele><time>2026-05-03T12:56:33.595Z</time></trkpt><trkpt lat="39.4524233" lon="16.2360644"><ele>106.0</ele><time>2026-05-03T12:56:34.6Z</time></trkpt><trkpt lat="39.4526233" lon="16.2359145"><ele>106.0</ele><time>2026-05-03T12:56:35.598Z</time></trkpt><trkpt lat="39.4528191" lon="16.2357484"><ele>105.0</ele><time>2026-05-03T12:56:36.582Z</time></trkpt><trkpt lat="39.4530102" lon="16.2355751"><ele>104.0</ele><time>2026-05-03T12:56:37.603Z</time></trkpt><trkpt lat="39.4532026" lon="16.2354049"><ele>104.0</ele><time>2026-05-03T12:56:38.594Z</time></trkpt><trkpt lat="39.4533912" lon="16.2352299"><ele>104.0</ele><time>2026-05-03T12:56:39.6Z</time></trkpt><trkpt lat="39.4535748" lon="16.2350493"><ele>104.0</ele><time>2026-05-03T12:56:40.592Z</time></trkpt><trkpt lat="39.4537512" lon="16.2348674"><ele>104.0</ele><time>2026-05-03T12:56:41.585Z</time></trkpt><trkpt lat="39.4539276" lon="16.2346745"><ele>104.0</ele><time>2026-05-03T12:56:42.61Z</time></trkpt><trkpt lat="39.4541033" lon="16.2344798"><ele>104.0</ele><time>2026-05-03T12:56:43.591Z</time></trkpt><trkpt lat="39.4542745" lon="16.2342836"><ele>104.0</ele><time>2026-05-03T12:56:44.604Z</time></trkpt><trkpt lat="39.4544385" lon="16.2340748"><ele>104.0</ele><time>2026-05-03T12:56:45.581Z</time></trkpt><trkpt lat="39.4546041" lon="16.2338637"><ele>103.5</ele><time>2026-05-03T12:56:46.607Z</time></trkpt><trkpt lat="39.4547689" lon="16.2336506"><ele>103.0</ele><time>2026-05-03T12:56:47.601Z</time></trkpt><trkpt lat="39.4549325" lon="16.2334327"><ele>103.0</ele><time>2026-05-03T12:56:48.584Z</time></trkpt><trkpt lat="39.4550941" lon="16.2332054"><ele>103.0</ele><time>2026-05-03T12:56:49.565Z</time></trkpt><trkpt lat="39.4552527" lon="16.232972"><ele>103.0</ele><time>2026-05-03T12:56:50.588Z</time></trkpt><trkpt lat="39.45541" lon="16.2327326"><ele>103.0</ele><time>2026-05-03T12:56:51.587Z</time></trkpt><trkpt lat="39.4555718" lon="16.2324948"><ele>103.5</ele><time>2026-05-03T12:56:52.598Z</time></trkpt><trkpt lat="39.4557349" lon="16.2322561"><ele>104.0</ele><time>2026-05-03T12:56:53.59Z</time></trkpt><trkpt lat="39.4558972" lon="16.2320192"><ele>104.0</ele><time>2026-05-03T12:56:54.604Z</time></trkpt><trkpt lat="39.4560596" lon="16.2317858"><ele>104.0</ele><time>2026-05-03T12:56:55.607Z</time></trkpt><trkpt lat="39.4562236" lon="16.2315541"><ele>103.5</ele><time>2026-05-03T12:56:56.592Z</time></trkpt><trkpt lat="39.456386" lon="16.2313179"><ele>103.0</ele><time>2026-05-03T12:56:57.606Z</time></trkpt><trkpt lat="39.4565457" lon="16.2310773"><ele>103.0</ele><time>2026-05-03T12:56:58.599Z</time></trkpt><trkpt lat="39.4567059" lon="16.2308398"><ele>103.0</ele><time>2026-05-03T12:56:59.598Z</time></trkpt><trkpt lat="39.4568707" lon="16.2305999"><ele>102.5</ele><time>2026-05-03T12:57:00.599Z</time></trkpt><trkpt lat="39.4570353" lon="16.2303581"><ele>102.0</ele><time>2026-05-03T12:57:01.601Z</time></trkpt><trkpt lat="39.4572053" lon="16.2301189"><ele>101.5</ele><time>2026-05-03T12:57:02.583Z</time></trkpt><trkpt lat="39.4573786" lon="16.2298811"><ele>101.0</ele><time>2026-05-03T12:57:03.574Z</time></trkpt><trkpt lat="39.4575546" lon="16.2296411"><ele>102.0</ele><time>2026-05-03T12:57:04.569Z</time></trkpt><trkpt lat="39.4577306" lon="16.2293945"><ele>103.0</ele><time>2026-05-03T12:57:05.573Z</time></trkpt><trkpt lat="39.4579069" lon="16.2291492"><ele>102.5</ele><time>2026-05-03T12:57:06.604Z</time></trkpt><trkpt lat="39.4580795" lon="16.2289033"><ele>102.0</ele><time>2026-05-03T12:57:07.6Z</time></trkpt><trkpt lat="39.4582529" lon="16.2286575"><ele>102.0</ele><time>2026-05-03T12:57:08.611Z</time></trkpt><trkpt lat="39.4584224" lon="16.2284129"><ele>102.0</ele><time>2026-05-03T12:57:09.602Z</time></trkpt><trkpt lat="39.4585911" lon="16.2281698"><ele>101.5</ele><time>2026-05-03T12:57:10.576Z</time></trkpt><trkpt lat="39.4587582" lon="16.2279265"><ele>101.0</ele><time>2026-05-03T12:57:11.601Z</time></trkpt><trkpt lat="39.4589241" lon="16.2276831"><ele>101.0</ele><time>2026-05-03T12:57:12.575Z</time></trkpt><trkpt lat="39.4590915" lon="16.2274396"><ele>101.0</ele><time>2026-05-03T12:57:13.594Z</time></trkpt><trkpt lat="39.4592613" lon="16.2272003"><ele>102.0</ele><time>2026-05-03T12:57:14.576Z</time></trkpt><trkpt lat="39.4594338" lon="16.2269623"><ele>103.0</ele><time>2026-05-03T12:57:15.593Z</time></trkpt><trkpt lat="39.4596061" lon="16.2267284"><ele>101.5</ele><time>2026-05-03T12:57:16.592Z</time></trkpt><trkpt lat="39.4597754" lon="16.2264938"><ele>100.0</ele><time>2026-05-03T12:57:17.593Z</time></trkpt><trkpt lat="39.4599394" lon="16.2262575"><ele>100.0</ele><time>2026-05-03T12:57:18.589Z</time></trkpt><trkpt lat="39.4601028" lon="16.2260194"><ele>100.0</ele><time>2026-05-03T12:57:19.582Z</time></trkpt><trkpt lat="39.4602667" lon="16.2257832"><ele>100.0</ele><time>2026-05-03T12:57:20.607Z</time></trkpt><trkpt lat="39.4604304" lon="16.2255509"><ele>100.0</ele><time>2026-05-03T12:57:21.595Z</time></trkpt><trkpt lat="39.4605981" lon="16.2253207"><ele>100.0</ele><time>2026-05-03T12:57:22.592Z</time></trkpt><trkpt lat="39.4607681" lon="16.2251011"><ele>100.0</ele><time>2026-05-03T12:57:23.596Z</time></trkpt><trkpt lat="39.4609387" lon="16.2248799"><ele>100.5</ele><time>2026-05-03T12:57:24.614Z</time></trkpt><trkpt lat="39.4611065" lon="16.2246672"><ele>101.0</ele><time>2026-05-03T12:57:25.602Z</time></trkpt><trkpt lat="39.4612805" lon="16.2244574"><ele>100.5</ele><time>2026-05-03T12:57:26.599Z</time></trkpt><trkpt lat="39.4614589" lon="16.2242499"><ele>100.0</ele><time>2026-05-03T12:57:27.621Z</time></trkpt><trkpt lat="39.4616445" lon="16.2240407"><ele>100.0</ele><time>2026-05-03T12:57:28.609Z</time></trkpt><trkpt lat="39.4620376" lon="16.2236187"><ele>99.5</ele><time>2026-05-03T12:57:30.609Z</time></trkpt><trkpt lat="39.4622412" lon="16.2234066"><ele>99.0</ele><time>2026-05-03T12:57:31.606Z</time></trkpt><trkpt lat="39.4624476" lon="16.2231937"><ele>99.0</ele><time>2026-05-03T12:57:32.605Z</time></trkpt><trkpt lat="39.4626613" lon="16.2229909"><ele>99.0</ele><time>2026-05-03T12:57:33.575Z</time></trkpt><trkpt lat="39.4628753" lon="16.2227889"><ele>99.5</ele><time>2026-05-03T12:57:34.597Z</time></trkpt><trkpt lat="39.4630917" lon="16.2225926"><ele>100.0</ele><time>2026-05-03T12:57:35.565Z</time></trkpt><trkpt lat="39.4633163" lon="16.2224015"><ele>99.0</ele><time>2026-05-03T12:57:36.577Z</time></trkpt><trkpt lat="39.4635448" lon="16.2222115"><ele>98.0</ele><time>2026-05-03T12:57:37.577Z</time></trkpt><trkpt lat="39.4637752" lon="16.2220279"><ele>97.5</ele><time>2026-05-03T12:57:38.572Z</time></trkpt><trkpt lat="39.4640088" lon="16.2218474"><ele>97.0</ele><time>2026-05-03T12:57:39.574Z</time></trkpt><trkpt lat="39.4642433" lon="16.2216736"><ele>97.0</ele><time>2026-05-03T12:57:40.577Z</time></trkpt><trkpt lat="39.4644795" lon="16.2214992"><ele>97.0</ele><time>2026-05-03T12:57:41.568Z</time></trkpt><trkpt lat="39.4647198" lon="16.2213302"><ele>98.5</ele><time>2026-05-03T12:57:42.578Z</time></trkpt><trkpt lat="39.4649622" lon="16.2211661"><ele>100.0</ele><time>2026-05-03T12:57:43.604Z</time></trkpt><trkpt lat="39.4652076" lon="16.2210161"><ele>99.0</ele><time>2026-05-03T12:57:44.587Z</time></trkpt><trkpt lat="39.465457" lon="16.220868"><ele>98.0</ele><time>2026-05-03T12:57:45.599Z</time></trkpt><trkpt lat="39.4657098" lon="16.2207244"><ele>98.0</ele><time>2026-05-03T12:57:46.588Z</time></trkpt><trkpt lat="39.4659664" lon="16.2205829"><ele>98.0</ele><time>2026-05-03T12:57:47.595Z</time></trkpt><trkpt lat="39.4662284" lon="16.220447"><ele>97.5</ele><time>2026-05-03T12:57:48.593Z</time></trkpt><trkpt lat="39.4664931" lon="16.2203114"><ele>97.0</ele><time>2026-05-03T12:57:49.593Z</time></trkpt><trkpt lat="39.4667604" lon="16.2201766"><ele>97.0</ele><time>2026-05-03T12:57:50.589Z</time></trkpt><trkpt lat="39.4670276" lon="16.2200497"><ele>97.0</ele><time>2026-05-03T12:57:51.575Z</time></trkpt><trkpt lat="39.4672982" lon="16.2199277"><ele>96.5</ele><time>2026-05-03T12:57:52.588Z</time></trkpt><trkpt lat="39.4675701" lon="16.2198058"><ele>96.0</ele><time>2026-05-03T12:57:53.589Z</time></trkpt><trkpt lat="39.4678441" lon="16.2196809"><ele>96.5</ele><time>2026-05-03T12:57:54.592Z</time></trkpt><trkpt lat="39.4681175" lon="16.2195559"><ele>97.0</ele><time>2026-05-03T12:57:55.577Z</time></trkpt><trkpt lat="39.468394" lon="16.2194346"><ele>97.0</ele><time>2026-05-03T12:57:56.61Z</time></trkpt><trkpt lat="39.4686688" lon="16.219311"><ele>97.0</ele><time>2026-05-03T12:57:57.59Z</time></trkpt><trkpt lat="39.4689415" lon="16.2191898"><ele>97.0</ele><time>2026-05-03T12:57:58.599Z</time></trkpt><trkpt lat="39.4692158" lon="16.2190722"><ele>97.0</ele><time>2026-05-03T12:57:59.584Z</time></trkpt><trkpt lat="39.4694881" lon="16.2189538"><ele>96.5</ele><time>2026-05-03T12:58:00.594Z</time></trkpt><trkpt lat="39.4697588" lon="16.2188416"><ele>96.0</ele><time>2026-05-03T12:58:01.613Z</time></trkpt><trkpt lat="39.4700314" lon="16.2187308"><ele>96.0</ele><time>2026-05-03T12:58:02.595Z</time></trkpt><trkpt lat="39.4703048" lon="16.2186161"><ele>96.0</ele><time>2026-05-03T12:58:03.579Z</time></trkpt><trkpt lat="39.4705767" lon="16.2185057"><ele>96.5</ele><time>2026-05-03T12:58:04.613Z</time></trkpt><trkpt lat="39.4708505" lon="16.2183979"><ele>97.0</ele><time>2026-05-03T12:58:05.589Z</time></trkpt><trkpt lat="39.4711223" lon="16.218286"><ele>97.5</ele><time>2026-05-03T12:58:06.593Z</time></trkpt><trkpt lat="39.4713955" lon="16.2181791"><ele>98.0</ele><time>2026-05-03T12:58:07.571Z</time></trkpt><trkpt lat="39.4716709" lon="16.2180721"><ele>95.5</ele><time>2026-05-03T12:58:08.614Z</time></trkpt><trkpt lat="39.4719466" lon="16.2179605"><ele>93.0</ele><time>2026-05-03T12:58:09.589Z</time></trkpt><trkpt lat="39.4722201" lon="16.217847"><ele>93.0</ele><time>2026-05-03T12:58:10.607Z</time></trkpt><trkpt lat="39.4724951" lon="16.2177263"><ele>93.0</ele><time>2026-05-03T12:58:11.601Z</time></trkpt><trkpt lat="39.4727721" lon="16.2176033"><ele>93.5</ele><time>2026-05-03T12:58:12.596Z</time></trkpt><trkpt lat="39.4730525" lon="16.217484"><ele>94.0</ele><time>2026-05-03T12:58:13.584Z</time></trkpt><trkpt lat="39.4733326" lon="16.2173654"><ele>93.5</ele><time>2026-05-03T12:58:14.6Z</time></trkpt><trkpt lat="39.4736107" lon="16.217244"><ele>93.0</ele><time>2026-05-03T12:58:15.591Z</time></trkpt><trkpt lat="39.4738886" lon="16.217126"><ele>93.0</ele><time>2026-05-03T12:58:16.605Z</time></trkpt><trkpt lat="39.4741698" lon="16.2170087"><ele>93.0</ele><time>2026-05-03T12:58:17.595Z</time></trkpt><trkpt lat="39.4744473" lon="16.2168911"><ele>94.0</ele><time>2026-05-03T12:58:18.593Z</time></trkpt><trkpt lat="39.4747276" lon="16.2167713"><ele>95.0</ele><time>2026-05-03T12:58:19.593Z</time></trkpt><trkpt lat="39.4750077" lon="16.216658"><ele>95.0</ele><time>2026-05-03T12:58:20.597Z</time></trkpt><trkpt lat="39.4752926" lon="16.2165525"><ele>95.0</ele><time>2026-05-03T12:58:21.6Z</time></trkpt><trkpt lat="39.4755748" lon="16.2164587"><ele>94.0</ele><time>2026-05-03T12:58:22.607Z</time></trkpt><trkpt lat="39.47586" lon="16.2163759"><ele>93.0</ele><time>2026-05-03T12:58:23.594Z</time></trkpt><trkpt lat="39.4761484" lon="16.2162913"><ele>93.0</ele><time>2026-05-03T12:58:24.597Z</time></trkpt><trkpt lat="39.4764377" lon="16.2162071"><ele>93.0</ele><time>2026-05-03T12:58:25.596Z</time></trkpt><trkpt lat="39.4767273" lon="16.2161331"><ele>93.0</ele><time>2026-05-03T12:58:26.613Z</time></trkpt><trkpt lat="39.4770169" lon="16.2160587"><ele>93.0</ele><time>2026-05-03T12:58:27.6Z</time></trkpt><trkpt lat="39.4773055" lon="16.2159827"><ele>94.0</ele><time>2026-05-03T12:58:28.606Z</time></trkpt><trkpt lat="39.4775869" lon="16.2159087"><ele>95.0</ele><time>2026-05-03T12:58:29.602Z</time></trkpt><trkpt lat="39.4778716" lon="16.2158318"><ele>95.0</ele><time>2026-05-03T12:58:30.601Z</time></trkpt><trkpt lat="39.4781625" lon="16.2157588"><ele>95.0</ele><time>2026-05-03T12:58:31.582Z</time></trkpt><trkpt lat="39.4784521" lon="16.215686"><ele>95.0</ele><time>2026-05-03T12:58:32.589Z</time></trkpt><trkpt lat="39.4787411" lon="16.2156103"><ele>95.0</ele><time>2026-05-03T12:58:33.59Z</time></trkpt><trkpt lat="39.4790274" lon="16.2155433"><ele>95.0</ele><time>2026-05-03T12:58:34.595Z</time></trkpt><trkpt lat="39.4793142" lon="16.2154746"><ele>95.0</ele><time>2026-05-03T12:58:35.591Z</time></trkpt><trkpt lat="39.4795963" lon="16.2154093"><ele>95.5</ele><time>2026-05-03T12:58:36.589Z</time></trkpt><trkpt lat="39.4798764" lon="16.2153369"><ele>96.0</ele><time>2026-05-03T12:58:37.574Z</time></trkpt><trkpt lat="39.4801561" lon="16.2152646"><ele>96.0</ele><time>2026-05-03T12:58:38.59Z</time></trkpt><trkpt lat="39.4804355" lon="16.2151968"><ele>96.0</ele><time>2026-05-03T12:58:39.591Z</time></trkpt><trkpt lat="39.4807206" lon="16.2151208"><ele>96.0</ele><time>2026-05-03T12:58:40.601Z</time></trkpt><trkpt lat="39.4810043" lon="16.2150436"><ele>96.0</ele><time>2026-05-03T12:58:41.597Z</time></trkpt><trkpt lat="39.4812916" lon="16.2149633"><ele>95.5</ele><time>2026-05-03T12:58:42.598Z</time></trkpt><trkpt lat="39.4815779" lon="16.214881"><ele>95.0</ele><time>2026-05-03T12:58:43.596Z</time></trkpt><trkpt lat="39.4818663" lon="16.2147992"><ele>94.5</ele><time>2026-05-03T12:58:44.597Z</time></trkpt><trkpt lat="39.4821561" lon="16.214723"><ele>94.0</ele><time>2026-05-03T12:58:45.603Z</time></trkpt><trkpt lat="39.4824495" lon="16.2146506"><ele>94.0</ele><time>2026-05-03T12:58:46.611Z</time></trkpt><trkpt lat="39.482745" lon="16.2145776"><ele>94.0</ele><time>2026-05-03T12:58:47.608Z</time></trkpt><trkpt lat="39.4830389" lon="16.2145009"><ele>93.5</ele><time>2026-05-03T12:58:48.593Z</time></trkpt><trkpt lat="39.4833317" lon="16.2144256"><ele>93.0</ele><time>2026-05-03T12:58:49.605Z</time></trkpt><trkpt lat="39.4836231" lon="16.2143525"><ele>92.5</ele><time>2026-05-03T12:58:50.6Z</time></trkpt><trkpt lat="39.4839134" lon="16.2142835"><ele>92.0</ele><time>2026-05-03T12:58:51.573Z</time></trkpt><trkpt lat="39.4841972" lon="16.2142154"><ele>92.0</ele><time>2026-05-03T12:58:52.568Z</time></trkpt><trkpt lat="39.4844872" lon="16.2141395"><ele>92.0</ele><time>2026-05-03T12:58:53.569Z</time></trkpt><trkpt lat="39.4847798" lon="16.2140634"><ele>91.5</ele><time>2026-05-03T12:58:54.571Z</time></trkpt><trkpt lat="39.4850756" lon="16.2139878"><ele>91.0</ele><time>2026-05-03T12:58:55.604Z</time></trkpt><trkpt lat="39.4853762" lon="16.2139077"><ele>90.5</ele><time>2026-05-03T12:58:56.607Z</time></trkpt><trkpt lat="39.4856818" lon="16.2138302"><ele>90.0</ele><time>2026-05-03T12:58:57.603Z</time></trkpt><trkpt lat="39.4859886" lon="16.2137581"><ele>90.0</ele><time>2026-05-03T12:58:58.593Z</time></trkpt><trkpt lat="39.4862939" lon="16.2136848"><ele>90.0</ele><time>2026-05-03T12:58:59.589Z</time></trkpt><trkpt lat="39.486599" lon="16.2136118"><ele>90.0</ele><time>2026-05-03T12:59:00.598Z</time></trkpt><trkpt lat="39.4869083" lon="16.213544"><ele>90.0</ele><time>2026-05-03T12:59:01.571Z</time></trkpt><trkpt lat="39.48722" lon="16.2134803"><ele>89.5</ele><time>2026-05-03T12:59:02.587Z</time></trkpt><trkpt lat="39.4875316" lon="16.2134127"><ele>89.0</ele><time>2026-05-03T12:59:03.592Z</time></trkpt><trkpt lat="39.4878423" lon="16.2133435"><ele>89.0</ele><time>2026-05-03T12:59:04.622Z</time></trkpt><trkpt lat="39.4881478" lon="16.2132694"><ele>89.0</ele><time>2026-05-03T12:59:05.575Z</time></trkpt><trkpt lat="39.4884491" lon="16.2131955"><ele>89.0</ele><time>2026-05-03T12:59:06.601Z</time></trkpt><trkpt lat="39.4887508" lon="16.2131185"><ele>89.0</ele><time>2026-05-03T12:59:07.569Z</time></trkpt><trkpt lat="39.489048" lon="16.2130355"><ele>89.0</ele><time>2026-05-03T12:59:08.575Z</time></trkpt><trkpt lat="39.4893458" lon="16.2129602"><ele>89.0</ele><time>2026-05-03T12:59:09.577Z</time></trkpt><trkpt lat="39.4896437" lon="16.2128873"><ele>89.5</ele><time>2026-05-03T12:59:10.59Z</time></trkpt><trkpt lat="39.4899432" lon="16.2128186"><ele>90.0</ele><time>2026-05-03T12:59:11.602Z</time></trkpt><trkpt lat="39.4902442" lon="16.2127505"><ele>89.5</ele><time>2026-05-03T12:59:12.605Z</time></trkpt><trkpt lat="39.4905395" lon="16.212683"><ele>89.0</ele><time>2026-05-03T12:59:13.6Z</time></trkpt><trkpt lat="39.4908319" lon="16.2126075"><ele>89.0</ele><time>2026-05-03T12:59:14.598Z</time></trkpt><trkpt lat="39.4911188" lon="16.2125297"><ele>89.0</ele><time>2026-05-03T12:59:15.6Z</time></trkpt><trkpt lat="39.4914046" lon="16.2124518"><ele>89.0</ele><time>2026-05-03T12:59:16.574Z</time></trkpt><trkpt lat="39.4916932" lon="16.212379"><ele>89.0</ele><time>2026-05-03T12:59:17.575Z</time></trkpt><trkpt lat="39.4919821" lon="16.2123078"><ele>89.0</ele><time>2026-05-03T12:59:18.569Z</time></trkpt><trkpt lat="39.4922699" lon="16.2122385"><ele>89.0</ele><time>2026-05-03T12:59:19.602Z</time></trkpt><trkpt lat="39.4925585" lon="16.2121704"><ele>89.0</ele><time>2026-05-03T12:59:20.605Z</time></trkpt><trkpt lat="39.4928465" lon="16.2120992"><ele>89.0</ele><time>2026-05-03T12:59:21.601Z</time></trkpt><trkpt lat="39.4931354" lon="16.2120399"><ele>88.5</ele><time>2026-05-03T12:59:22.6Z</time></trkpt><trkpt lat="39.4934241" lon="16.2119942"><ele>88.0</ele><time>2026-05-03T12:59:23.593Z</time></trkpt><trkpt lat="39.4937113" lon="16.2119533"><ele>87.5</ele><time>2026-05-03T12:59:24.611Z</time></trkpt><trkpt lat="39.4939998" lon="16.2119153"><ele>87.0</ele><time>2026-05-03T12:59:25.587Z</time></trkpt><trkpt lat="39.4942845" lon="16.2118782"><ele>87.0</ele><time>2026-05-03T12:59:26.598Z</time></trkpt><trkpt lat="39.4945695" lon="16.2118418"><ele>87.0</ele><time>2026-05-03T12:59:27.607Z</time></trkpt><trkpt lat="39.4948532" lon="16.2117974"><ele>88.0</ele><time>2026-05-03T12:59:28.618Z</time></trkpt><trkpt lat="39.4951332" lon="16.2117536"><ele>89.0</ele><time>2026-05-03T12:59:29.606Z</time></trkpt><trkpt lat="39.4954077" lon="16.2117053"><ele>89.0</ele><time>2026-05-03T12:59:30.602Z</time></trkpt><trkpt lat="39.49568" lon="16.2116491"><ele>89.0</ele><time>2026-05-03T12:59:31.589Z</time></trkpt><trkpt lat="39.4959483" lon="16.2115989"><ele>89.0</ele><time>2026-05-03T12:59:32.605Z</time></trkpt><trkpt lat="39.4962138" lon="16.2115352"><ele>89.0</ele><time>2026-05-03T12:59:33.601Z</time></trkpt><trkpt lat="39.4964773" lon="16.2114675"><ele>89.0</ele><time>2026-05-03T12:59:34.602Z</time></trkpt><trkpt lat="39.4967342" lon="16.2113916"><ele>89.0</ele><time>2026-05-03T12:59:35.606Z</time></trkpt><trkpt lat="39.4969962" lon="16.2113222"><ele>88.5</ele><time>2026-05-03T12:59:36.602Z</time></trkpt><trkpt lat="39.4972577" lon="16.2112568"><ele>88.0</ele><time>2026-05-03T12:59:37.595Z</time></trkpt><trkpt lat="39.4975181" lon="16.2111886"><ele>88.0</ele><time>2026-05-03T12:59:38.576Z</time></trkpt><trkpt lat="39.4977839" lon="16.2111258"><ele>88.0</ele><time>2026-05-03T12:59:39.589Z</time></trkpt><trkpt lat="39.4980465" lon="16.2110598"><ele>88.5</ele><time>2026-05-03T12:59:40.596Z</time></trkpt><trkpt lat="39.49831" lon="16.2109954"><ele>89.0</ele><time>2026-05-03T12:59:41.577Z</time></trkpt><trkpt lat="39.4985732" lon="16.2109281"><ele>89.0</ele><time>2026-05-03T12:59:42.604Z</time></trkpt><trkpt lat="39.4988374" lon="16.2108549"><ele>89.0</ele><time>2026-05-03T12:59:43.596Z</time></trkpt><trkpt lat="39.4991022" lon="16.2107888"><ele>89.0</ele><time>2026-05-03T12:59:44.588Z</time></trkpt><trkpt lat="39.4993632" lon="16.2107249"><ele>89.0</ele><time>2026-05-03T12:59:45.572Z</time></trkpt><trkpt lat="39.49962" lon="16.2106589"><ele>87.5</ele><time>2026-05-03T12:59:46.575Z</time></trkpt><trkpt lat="39.4998791" lon="16.2105946"><ele>86.0</ele><time>2026-05-03T12:59:47.573Z</time></trkpt><trkpt lat="39.5001379" lon="16.210523"><ele>86.0</ele><time>2026-05-03T12:59:48.596Z</time></trkpt><trkpt lat="39.500395" lon="16.2104551"><ele>86.0</ele><time>2026-05-03T12:59:49.586Z</time></trkpt><trkpt lat="39.5006543" lon="16.2103892"><ele>85.5</ele><time>2026-05-03T12:59:50.58Z</time></trkpt><trkpt lat="39.5009132" lon="16.2103212"><ele>85.0</ele><time>2026-05-03T12:59:51.597Z</time></trkpt><trkpt lat="39.5011722" lon="16.2102567"><ele>85.0</ele><time>2026-05-03T12:59:52.587Z</time></trkpt><trkpt lat="39.5014354" lon="16.2101909"><ele>85.0</ele><time>2026-05-03T12:59:53.577Z</time></trkpt><trkpt lat="39.5017002" lon="16.2101376"><ele>85.0</ele><time>2026-05-03T12:59:54.602Z</time></trkpt><trkpt lat="39.5019666" lon="16.210092"><ele>85.0</ele><time>2026-05-03T12:59:55.61Z</time></trkpt><trkpt lat="39.5022362" lon="16.2100505"><ele>84.5</ele><time>2026-05-03T12:59:56.6Z</time></trkpt><trkpt lat="39.5025038" lon="16.2100062"><ele>84.0</ele><time>2026-05-03T12:59:57.593Z</time></trkpt><trkpt lat="39.5027687" lon="16.2099702"><ele>84.0</ele><time>2026-05-03T12:59:58.594Z</time></trkpt><trkpt lat="39.5030294" lon="16.2099454"><ele>84.0</ele><time>2026-05-03T12:59:59.594Z</time></trkpt><trkpt lat="39.5032919" lon="16.2099298"><ele>84.0</ele><time>2026-05-03T13:00:00.606Z</time></trkpt><trkpt lat="39.5035478" lon="16.2099201"><ele>84.0</ele><time>2026-05-03T13:00:01.601Z</time></trkpt><trkpt lat="39.5038035" lon="16.2099124"><ele>84.0</ele><time>2026-05-03T13:00:02.605Z</time></trkpt><trkpt lat="39.5040584" lon="16.2099136"><ele>84.0</ele><time>2026-05-03T13:00:03.595Z</time></trkpt><trkpt lat="39.5043108" lon="16.2099173"><ele>84.0</ele><time>2026-05-03T13:00:04.611Z</time></trkpt><trkpt lat="39.504563" lon="16.209912"><ele>84.0</ele><time>2026-05-03T13:00:05.6Z</time></trkpt><trkpt lat="39.5048177" lon="16.2099104"><ele>85.0</ele><time>2026-05-03T13:00:06.622Z</time></trkpt><trkpt lat="39.5050692" lon="16.2099097"><ele>86.0</ele><time>2026-05-03T13:00:07.602Z</time></trkpt><trkpt lat="39.5053245" lon="16.2099177"><ele>86.0</ele><time>2026-05-03T13:00:08.599Z</time></trkpt><trkpt lat="39.5055805" lon="16.2099262"><ele>86.0</ele><time>2026-05-03T13:00:09.586Z</time></trkpt><trkpt lat="39.5058347" lon="16.2099379"><ele>86.0</ele><time>2026-05-03T13:00:10.589Z</time></trkpt><trkpt lat="39.5060885" lon="16.2099443"><ele>86.0</ele><time>2026-05-03T13:00:11.582Z</time></trkpt><trkpt lat="39.5063404" lon="16.2099495"><ele>87.0</ele><time>2026-05-03T13:00:12.59Z</time></trkpt><trkpt lat="39.5065953" lon="16.2099483"><ele>88.0</ele><time>2026-05-03T13:00:13.573Z</time></trkpt><trkpt lat="39.5068524" lon="16.2099454"><ele>88.0</ele><time>2026-05-03T13:00:14.581Z</time></trkpt><trkpt lat="39.5071055" lon="16.2099478"><ele>88.0</ele><time>2026-05-03T13:00:15.57Z</time></trkpt><trkpt lat="39.5073542" lon="16.2099561"><ele>88.0</ele><time>2026-05-03T13:00:16.572Z</time></trkpt><trkpt lat="39.5076028" lon="16.2099689"><ele>88.0</ele><time>2026-05-03T13:00:17.572Z</time></trkpt><trkpt lat="39.5078496" lon="16.2099793"><ele>88.5</ele><time>2026-05-03T13:00:18.577Z</time></trkpt><trkpt lat="39.508105" lon="16.2099861"><ele>89.0</ele><time>2026-05-03T13:00:19.575Z</time></trkpt><trkpt lat="39.5083604" lon="16.2099967"><ele>89.0</ele><time>2026-05-03T13:00:20.568Z</time></trkpt><trkpt lat="39.5086189" lon="16.2100094"><ele>89.0</ele><time>2026-05-03T13:00:21.585Z</time></trkpt><trkpt lat="39.5088723" lon="16.210018"><ele>89.5</ele><time>2026-05-03T13:00:22.612Z</time></trkpt><trkpt lat="39.5091244" lon="16.2100303"><ele>90.0</ele><time>2026-05-03T13:00:23.595Z</time></trkpt><trkpt lat="39.5093775" lon="16.2100346"><ele>90.5</ele><time>2026-05-03T13:00:24.601Z</time></trkpt><trkpt lat="39.5096323" lon="16.2100376"><ele>91.0</ele><time>2026-05-03T13:00:25.587Z</time></trkpt><trkpt lat="39.5098818" lon="16.2100367"><ele>91.0</ele><time>2026-05-03T13:00:26.608Z</time></trkpt><trkpt lat="39.5101309" lon="16.2100469"><ele>91.0</ele><time>2026-05-03T13:00:27.594Z</time></trkpt><trkpt lat="39.5103804" lon="16.2100582"><ele>91.0</ele><time>2026-05-03T13:00:28.585Z</time></trkpt><trkpt lat="39.5106289" lon="16.2100681"><ele>91.0</ele><time>2026-05-03T13:00:29.591Z</time></trkpt><trkpt lat="39.51088" lon="16.2100716"><ele>91.0</ele><time>2026-05-03T13:00:30.601Z</time></trkpt><trkpt lat="39.5111329" lon="16.2100759"><ele>91.0</ele><time>2026-05-03T13:00:31.589Z</time></trkpt><trkpt lat="39.5113863" lon="16.2100801"><ele>91.0</ele><time>2026-05-03T13:00:32.59Z</time></trkpt><trkpt lat="39.511641" lon="16.2100898"><ele>91.0</ele><time>2026-05-03T13:00:33.595Z</time></trkpt><trkpt lat="39.5118987" lon="16.2101075"><ele>89.5</ele><time>2026-05-03T13:00:34.581Z</time></trkpt><trkpt lat="39.5121578" lon="16.2101276"><ele>88.0</ele><time>2026-05-03T13:00:35.587Z</time></trkpt><trkpt lat="39.5124205" lon="16.2101504"><ele>88.0</ele><time>2026-05-03T13:00:36.567Z</time></trkpt><trkpt lat="39.5126838" lon="16.2101782"><ele>88.0</ele><time>2026-05-03T13:00:37.567Z</time></trkpt><trkpt lat="39.5129467" lon="16.2102292"><ele>89.0</ele><time>2026-05-03T13:00:38.578Z</time></trkpt><trkpt lat="39.5132074" lon="16.2102869"><ele>90.0</ele><time>2026-05-03T13:00:39.584Z</time></trkpt><trkpt lat="39.513468" lon="16.2103551"><ele>90.0</ele><time>2026-05-03T13:00:40.595Z</time></trkpt><trkpt lat="39.5137301" lon="16.2104345"><ele>90.0</ele><time>2026-05-03T13:00:41.565Z</time></trkpt><trkpt lat="39.5139898" lon="16.2105219"><ele>90.0</ele><time>2026-05-03T13:00:42.604Z</time></trkpt><trkpt lat="39.5142485" lon="16.2106154"><ele>90.0</ele><time>2026-05-03T13:00:43.587Z</time></trkpt><trkpt lat="39.5145088" lon="16.2107105"><ele>88.5</ele><time>2026-05-03T13:00:44.594Z</time></trkpt><trkpt lat="39.514771" lon="16.2108062"><ele>87.0</ele><time>2026-05-03T13:00:45.579Z</time></trkpt><trkpt lat="39.5150342" lon="16.2109099"><ele>87.0</ele><time>2026-05-03T13:00:46.602Z</time></trkpt><trkpt lat="39.5152965" lon="16.2110068"><ele>87.0</ele><time>2026-05-03T13:00:47.581Z</time></trkpt><trkpt lat="39.515558" lon="16.2110967"><ele>88.5</ele><time>2026-05-03T13:00:48.566Z</time></trkpt><trkpt lat="39.515821" lon="16.2111901"><ele>90.0</ele><time>2026-05-03T13:00:49.573Z</time></trkpt><trkpt lat="39.5160799" lon="16.2112871"><ele>90.5</ele><time>2026-05-03T13:00:50.585Z</time></trkpt><trkpt lat="39.5163379" lon="16.2113851"><ele>91.0</ele><time>2026-05-03T13:00:51.564Z</time></trkpt><trkpt lat="39.516595" lon="16.2114875"><ele>89.0</ele><time>2026-05-03T13:00:52.582Z</time></trkpt><trkpt lat="39.5168503" lon="16.2115873"><ele>87.0</ele><time>2026-05-03T13:00:53.588Z</time></trkpt><trkpt lat="39.5171111" lon="16.2116919"><ele>86.5</ele><time>2026-05-03T13:00:54.592Z</time></trkpt><trkpt lat="39.517368" lon="16.2117887"><ele>86.0</ele><time>2026-05-03T13:00:55.615Z</time></trkpt><trkpt lat="39.5176281" lon="16.2118836"><ele>86.0</ele><time>2026-05-03T13:00:56.582Z</time></trkpt><trkpt lat="39.5178861" lon="16.2119788"><ele>86.0</ele><time>2026-05-03T13:00:57.567Z</time></trkpt><trkpt lat="39.5181435" lon="16.2120749"><ele>86.0</ele><time>2026-05-03T13:00:58.585Z</time></trkpt><trkpt lat="39.5183984" lon="16.2121781"><ele>86.0</ele><time>2026-05-03T13:00:59.591Z</time></trkpt><trkpt lat="39.51865" lon="16.2122771"><ele>83.5</ele><time>2026-05-03T13:01:00.592Z</time></trkpt><trkpt lat="39.5189023" lon="16.2123862"><ele>81.0</ele><time>2026-05-03T13:01:01.595Z</time></trkpt><trkpt lat="39.519153" lon="16.2125002"><ele>81.0</ele><time>2026-05-03T13:01:02.594Z</time></trkpt><trkpt lat="39.5194033" lon="16.2126099"><ele>81.0</ele><time>2026-05-03T13:01:03.6Z</time></trkpt><trkpt lat="39.5196584" lon="16.2127124"><ele>82.0</ele><time>2026-05-03T13:01:04.589Z</time></trkpt><trkpt lat="39.519913" lon="16.2128084"><ele>83.0</ele><time>2026-05-03T13:01:05.568Z</time></trkpt><trkpt lat="39.5201698" lon="16.2129067"><ele>83.5</ele><time>2026-05-03T13:01:06.624Z</time></trkpt><trkpt lat="39.5204296" lon="16.2130104"><ele>84.0</ele><time>2026-05-03T13:01:07.609Z</time></trkpt><trkpt lat="39.5206939" lon="16.213116"><ele>82.0</ele><time>2026-05-03T13:01:08.603Z</time></trkpt><trkpt lat="39.5209584" lon="16.2132187"><ele>80.0</ele><time>2026-05-03T13:01:09.592Z</time></trkpt><trkpt lat="39.5212254" lon="16.2133223"><ele>81.5</ele><time>2026-05-03T13:01:10.598Z</time></trkpt><trkpt lat="39.5214907" lon="16.2134344"><ele>83.0</ele><time>2026-05-03T13:01:11.586Z</time></trkpt><trkpt lat="39.5217556" lon="16.2135476"><ele>83.0</ele><time>2026-05-03T13:01:12.584Z</time></trkpt><trkpt lat="39.5220168" lon="16.2136781"><ele>83.0</ele><time>2026-05-03T13:01:13.584Z</time></trkpt><trkpt lat="39.5222805" lon="16.213822"><ele>83.0</ele><time>2026-05-03T13:01:14.59Z</time></trkpt><trkpt lat="39.5225388" lon="16.2139796"><ele>83.0</ele><time>2026-05-03T13:01:15.602Z</time></trkpt><trkpt lat="39.5227976" lon="16.2141509"><ele>81.0</ele><time>2026-05-03T13:01:16.597Z</time></trkpt><trkpt lat="39.5230538" lon="16.21433"><ele>79.0</ele><time>2026-05-03T13:01:17.596Z</time></trkpt><trkpt lat="39.5233044" lon="16.2145159"><ele>79.0</ele><time>2026-05-03T13:01:18.601Z</time></trkpt><trkpt lat="39.5235491" lon="16.2147102"><ele>79.0</ele><time>2026-05-03T13:01:19.585Z</time></trkpt><trkpt lat="39.5237879" lon="16.2149053"><ele>78.0</ele><time>2026-05-03T13:01:20.592Z</time></trkpt><trkpt lat="39.5240207" lon="16.2151137"><ele>77.0</ele><time>2026-05-03T13:01:21.582Z</time></trkpt><trkpt lat="39.5242553" lon="16.2153197"><ele>77.0</ele><time>2026-05-03T13:01:22.57Z</time></trkpt><trkpt lat="39.5244873" lon="16.2155196"><ele>77.0</ele><time>2026-05-03T13:01:23.583Z</time></trkpt><trkpt lat="39.5247127" lon="16.2157284"><ele>76.0</ele><time>2026-05-03T13:01:24.607Z</time></trkpt><trkpt lat="39.5249378" lon="16.2159398"><ele>75.0</ele><time>2026-05-03T13:01:25.566Z</time></trkpt><trkpt lat="39.5251646" lon="16.2161427"><ele>75.0</ele><time>2026-05-03T13:01:26.572Z</time></trkpt><trkpt lat="39.5253905" lon="16.2163504"><ele>75.0</ele><time>2026-05-03T13:01:27.581Z</time></trkpt><trkpt lat="39.5256153" lon="16.2165572"><ele>74.5</ele><time>2026-05-03T13:01:28.594Z</time></trkpt><trkpt lat="39.5258397" lon="16.2167639"><ele>74.0</ele><time>2026-05-03T13:01:29.607Z</time></trkpt><trkpt lat="39.5260635" lon="16.2169643"><ele>74.5</ele><time>2026-05-03T13:01:30.594Z</time></trkpt><trkpt lat="39.5262964" lon="16.2171529"><ele>75.0</ele><time>2026-05-03T13:01:31.591Z</time></trkpt><trkpt lat="39.5265245" lon="16.2173363"><ele>75.0</ele><time>2026-05-03T13:01:32.606Z</time></trkpt><trkpt lat="39.5267502" lon="16.217519"><ele>75.0</ele><time>2026-05-03T13:01:33.591Z</time></trkpt><trkpt lat="39.5269753" lon="16.2176932"><ele>76.0</ele><time>2026-05-03T13:01:34.611Z</time></trkpt><trkpt lat="39.5272035" lon="16.2178664"><ele>77.0</ele><time>2026-05-03T13:01:35.603Z</time></trkpt><trkpt lat="39.5274357" lon="16.2180283"><ele>76.5</ele><time>2026-05-03T13:01:36.592Z</time></trkpt><trkpt lat="39.527675" lon="16.2181885"><ele>76.0</ele><time>2026-05-03T13:01:37.587Z</time></trkpt><trkpt lat="39.5279154" lon="16.2183466"><ele>77.0</ele><time>2026-05-03T13:01:38.579Z</time></trkpt><trkpt lat="39.5281552" lon="16.2184953"><ele>78.0</ele><time>2026-05-03T13:01:39.599Z</time></trkpt><trkpt lat="39.5283997" lon="16.2186489"><ele>78.0</ele><time>2026-05-03T13:01:40.598Z</time></trkpt><trkpt lat="39.5286427" lon="16.2188041"><ele>78.0</ele><time>2026-05-03T13:01:41.583Z</time></trkpt><trkpt lat="39.5288855" lon="16.2189522"><ele>77.5</ele><time>2026-05-03T13:01:42.583Z</time></trkpt><trkpt lat="39.5291273" lon="16.219097"><ele>77.0</ele><time>2026-05-03T13:01:43.593Z</time></trkpt><trkpt lat="39.5293734" lon="16.2192342"><ele>77.0</ele><time>2026-05-03T13:01:44.577Z</time></trkpt><trkpt lat="39.5296156" lon="16.21937"><ele>77.0</ele><time>2026-05-03T13:01:45.594Z</time></trkpt><trkpt lat="39.5298561" lon="16.2195056"><ele>77.0</ele><time>2026-05-03T13:01:46.582Z</time></trkpt><trkpt lat="39.5300948" lon="16.219642"><ele>77.0</ele><time>2026-05-03T13:01:47.599Z</time></trkpt><trkpt lat="39.5303301" lon="16.2197751"><ele>77.5</ele><time>2026-05-03T13:01:48.595Z</time></trkpt><trkpt lat="39.5305657" lon="16.2199026"><ele>78.0</ele><time>2026-05-03T13:01:49.587Z</time></trkpt><trkpt lat="39.5308013" lon="16.2200339"><ele>78.0</ele><time>2026-05-03T13:01:50.598Z</time></trkpt><trkpt lat="39.5310357" lon="16.2201662"><ele>78.0</ele><time>2026-05-03T13:01:51.587Z</time></trkpt><trkpt lat="39.5312688" lon="16.2203013"><ele>78.5</ele><time>2026-05-03T13:01:52.583Z</time></trkpt><trkpt lat="39.531499" lon="16.2204362"><ele>79.0</ele><time>2026-05-03T13:01:53.599Z</time></trkpt><trkpt lat="39.5317298" lon="16.2205809"><ele>78.5</ele><time>2026-05-03T13:01:54.612Z</time></trkpt><trkpt lat="39.5319609" lon="16.2207251"><ele>78.0</ele><time>2026-05-03T13:01:55.584Z</time></trkpt><trkpt lat="39.532194" lon="16.2208642"><ele>79.5</ele><time>2026-05-03T13:01:56.603Z</time></trkpt><trkpt lat="39.5324299" lon="16.2210013"><ele>81.0</ele><time>2026-05-03T13:01:57.601Z</time></trkpt><trkpt lat="39.5326695" lon="16.2211319"><ele>79.5</ele><time>2026-05-03T13:01:58.599Z</time></trkpt><trkpt lat="39.5329073" lon="16.2212628"><ele>78.0</ele><time>2026-05-03T13:01:59.593Z</time></trkpt><trkpt lat="39.5331461" lon="16.2213969"><ele>78.0</ele><time>2026-05-03T13:02:00.604Z</time></trkpt><trkpt lat="39.5333841" lon="16.2215363"><ele>78.0</ele><time>2026-05-03T13:02:01.598Z</time></trkpt><trkpt lat="39.5336272" lon="16.2216755"><ele>77.5</ele><time>2026-05-03T13:02:02.607Z</time></trkpt><trkpt lat="39.5338668" lon="16.2218194"><ele>77.0</ele><time>2026-05-03T13:02:03.595Z</time></trkpt><trkpt lat="39.5341068" lon="16.2219664"><ele>77.0</ele><time>2026-05-03T13:02:04.598Z</time></trkpt><trkpt lat="39.5343468" lon="16.2221064"><ele>77.0</ele><time>2026-05-03T13:02:05.598Z</time></trkpt><trkpt lat="39.5345897" lon="16.2222486"><ele>77.0</ele><time>2026-05-03T13:02:06.604Z</time></trkpt><trkpt lat="39.5348344" lon="16.2223844"><ele>77.0</ele><time>2026-05-03T13:02:07.602Z</time></trkpt><trkpt lat="39.5350817" lon="16.2225159"><ele>77.0</ele><time>2026-05-03T13:02:08.61Z</time></trkpt><trkpt lat="39.5353286" lon="16.2226569"><ele>77.0</ele><time>2026-05-03T13:02:09.585Z</time></trkpt><trkpt lat="39.5355792" lon="16.2227866"><ele>77.0</ele><time>2026-05-03T13:02:10.595Z</time></trkpt><trkpt lat="39.5358331" lon="16.2229211"><ele>77.0</ele><time>2026-05-03T13:02:11.597Z</time></trkpt><trkpt lat="39.5360889" lon="16.2230447"><ele>76.5</ele><time>2026-05-03T13:02:12.607Z</time></trkpt><trkpt lat="39.5363447" lon="16.2231675"><ele>76.0</ele><time>2026-05-03T13:02:13.575Z</time></trkpt><trkpt lat="39.5366004" lon="16.2232897"><ele>76.0</ele><time>2026-05-03T13:02:14.612Z</time></trkpt><trkpt lat="39.5368587" lon="16.2234183"><ele>76.0</ele><time>2026-05-03T13:02:15.59Z</time></trkpt><trkpt lat="39.5371155" lon="16.2235457"><ele>75.0</ele><time>2026-05-03T13:02:16.603Z</time></trkpt><trkpt lat="39.5373745" lon="16.2236802"><ele>74.0</ele><time>2026-05-03T13:02:17.596Z</time></trkpt><trkpt lat="39.5376384" lon="16.2238063"><ele>74.0</ele><time>2026-05-03T13:02:18.594Z</time></trkpt><trkpt lat="39.5379022" lon="16.2239426"><ele>74.0</ele><time>2026-05-03T13:02:19.575Z</time></trkpt><trkpt lat="39.5381685" lon="16.2240707"><ele>74.0</ele><time>2026-05-03T13:02:20.61Z</time></trkpt><trkpt lat="39.538437" lon="16.2241989"><ele>74.0</ele><time>2026-05-03T13:02:21.584Z</time></trkpt><trkpt lat="39.5387022" lon="16.224329"><ele>74.5</ele><time>2026-05-03T13:02:22.616Z</time></trkpt><trkpt lat="39.5389694" lon="16.2244537"><ele>75.0</ele><time>2026-05-03T13:02:23.592Z</time></trkpt><trkpt lat="39.5392358" lon="16.2245768"><ele>75.0</ele><time>2026-05-03T13:02:24.588Z</time></trkpt><trkpt lat="39.5395005" lon="16.2247031"><ele>75.0</ele><time>2026-05-03T13:02:25.594Z</time></trkpt><trkpt lat="39.5397653" lon="16.2248228"><ele>75.5</ele><time>2026-05-03T13:02:26.601Z</time></trkpt><trkpt lat="39.5400272" lon="16.2249465"><ele>76.0</ele><time>2026-05-03T13:02:27.598Z</time></trkpt><trkpt lat="39.5402865" lon="16.2250695"><ele>76.5</ele><time>2026-05-03T13:02:28.591Z</time></trkpt><trkpt lat="39.5405469" lon="16.2251935"><ele>77.0</ele><time>2026-05-03T13:02:29.579Z</time></trkpt><trkpt lat="39.5408092" lon="16.2253149"><ele>77.0</ele><time>2026-05-03T13:02:30.591Z</time></trkpt><trkpt lat="39.5410696" lon="16.2254375"><ele>77.0</ele><time>2026-05-03T13:02:31.577Z</time></trkpt><trkpt lat="39.5413324" lon="16.2255578"><ele>75.5</ele><time>2026-05-03T13:02:32.586Z</time></trkpt><trkpt lat="39.5415958" lon="16.2256825"><ele>74.0</ele><time>2026-05-03T13:02:33.577Z</time></trkpt><trkpt lat="39.5418582" lon="16.2258007"><ele>73.5</ele><time>2026-05-03T13:02:34.606Z</time></trkpt><trkpt lat="39.5421221" lon="16.2259247"><ele>73.0</ele><time>2026-05-03T13:02:35.6Z</time></trkpt><trkpt lat="39.5423824" lon="16.2260456"><ele>73.0</ele><time>2026-05-03T13:02:36.589Z</time></trkpt><trkpt lat="39.5426455" lon="16.2261682"><ele>73.0</ele><time>2026-05-03T13:02:37.594Z</time></trkpt><trkpt lat="39.5429098" lon="16.2262817"><ele>73.0</ele><time>2026-05-03T13:02:38.591Z</time></trkpt><trkpt lat="39.543173" lon="16.2264039"><ele>73.0</ele><time>2026-05-03T13:02:39.607Z</time></trkpt><trkpt lat="39.5434398" lon="16.2265296"><ele>72.5</ele><time>2026-05-03T13:02:40.602Z</time></trkpt><trkpt lat="39.543706" lon="16.2266581"><ele>72.0</ele><time>2026-05-03T13:02:41.605Z</time></trkpt><trkpt lat="39.5439766" lon="16.2267898"><ele>72.0</ele><time>2026-05-03T13:02:42.591Z</time></trkpt><trkpt lat="39.5442447" lon="16.2269129"><ele>72.0</ele><time>2026-05-03T13:02:43.594Z</time></trkpt><trkpt lat="39.5445126" lon="16.2270338"><ele>72.5</ele><time>2026-05-03T13:02:44.598Z</time></trkpt><trkpt lat="39.5447839" lon="16.2271625"><ele>73.0</ele><time>2026-05-03T13:02:45.603Z</time></trkpt><trkpt lat="39.5450581" lon="16.2272919"><ele>72.0</ele><time>2026-05-03T13:02:46.592Z</time></trkpt><trkpt lat="39.5453315" lon="16.2274247"><ele>71.0</ele><time>2026-05-03T13:02:47.572Z</time></trkpt><trkpt lat="39.5456096" lon="16.2275582"><ele>70.5</ele><time>2026-05-03T13:02:48.594Z</time></trkpt><trkpt lat="39.5458857" lon="16.2276941"><ele>70.0</ele><time>2026-05-03T13:02:49.606Z</time></trkpt><trkpt lat="39.5461592" lon="16.2278346"><ele>70.5</ele><time>2026-05-03T13:02:50.598Z</time></trkpt><trkpt lat="39.5464323" lon="16.2279749"><ele>71.0</ele><time>2026-05-03T13:02:51.596Z</time></trkpt><trkpt lat="39.5466991" lon="16.2281195"><ele>71.0</ele><time>2026-05-03T13:02:52.594Z</time></trkpt><trkpt lat="39.5469648" lon="16.2282558"><ele>71.0</ele><time>2026-05-03T13:02:53.594Z</time></trkpt><trkpt lat="39.5472269" lon="16.2283882"><ele>71.0</ele><time>2026-05-03T13:02:54.602Z</time></trkpt><trkpt lat="39.5474901" lon="16.2285099"><ele>71.0</ele><time>2026-05-03T13:02:55.599Z</time></trkpt><trkpt lat="39.5477532" lon="16.2286332"><ele>71.0</ele><time>2026-05-03T13:02:56.594Z</time></trkpt><trkpt lat="39.5480131" lon="16.2287573"><ele>71.0</ele><time>2026-05-03T13:02:57.597Z</time></trkpt><trkpt lat="39.5482726" lon="16.2288843"><ele>70.5</ele><time>2026-05-03T13:02:58.58Z</time></trkpt><trkpt lat="39.5485335" lon="16.2290151"><ele>70.0</ele><time>2026-05-03T13:02:59.598Z</time></trkpt><trkpt lat="39.5487928" lon="16.2291444"><ele>71.0</ele><time>2026-05-03T13:03:00.589Z</time></trkpt><trkpt lat="39.5490545" lon="16.2292679"><ele>72.0</ele><time>2026-05-03T13:03:01.589Z</time></trkpt><trkpt lat="39.5493152" lon="16.2293904"><ele>72.0</ele><time>2026-05-03T13:03:02.604Z</time></trkpt><trkpt lat="39.5495764" lon="16.2295117"><ele>72.0</ele><time>2026-05-03T13:03:03.599Z</time></trkpt><trkpt lat="39.5498348" lon="16.2296335"><ele>72.0</ele><time>2026-05-03T13:03:04.59Z</time></trkpt><trkpt lat="39.5500903" lon="16.2297571"><ele>72.0</ele><time>2026-05-03T13:03:05.594Z</time></trkpt><trkpt lat="39.5503472" lon="16.2298849"><ele>72.0</ele><time>2026-05-03T13:03:06.594Z</time></trkpt><trkpt lat="39.5506036" lon="16.2300106"><ele>72.0</ele><time>2026-05-03T13:03:07.596Z</time></trkpt><trkpt lat="39.5508585" lon="16.2301404"><ele>72.0</ele><time>2026-05-03T13:03:08.593Z</time></trkpt><trkpt lat="39.5511151" lon="16.2302602"><ele>72.0</ele><time>2026-05-03T13:03:09.609Z</time></trkpt><trkpt lat="39.5513717" lon="16.2303819"><ele>72.5</ele><time>2026-05-03T13:03:10.571Z</time></trkpt><trkpt lat="39.5516259" lon="16.2305044"><ele>73.0</ele><time>2026-05-03T13:03:11.578Z</time></trkpt><trkpt lat="39.5518803" lon="16.2306251"><ele>72.5</ele><time>2026-05-03T13:03:12.574Z</time></trkpt><trkpt lat="39.552137" lon="16.2307432"><ele>72.0</ele><time>2026-05-03T13:03:13.584Z</time></trkpt><trkpt lat="39.5523933" lon="16.2308611"><ele>72.0</ele><time>2026-05-03T13:03:14.613Z</time></trkpt><trkpt lat="39.5526537" lon="16.2309803"><ele>72.0</ele><time>2026-05-03T13:03:15.588Z</time></trkpt><trkpt lat="39.5529093" lon="16.231105"><ele>72.0</ele><time>2026-05-03T13:03:16.607Z</time></trkpt><trkpt lat="39.5531672" lon="16.2312319"><ele>72.0</ele><time>2026-05-03T13:03:17.592Z</time></trkpt><trkpt lat="39.5534237" lon="16.2313589"><ele>72.0</ele><time>2026-05-03T13:03:18.608Z</time></trkpt><trkpt lat="39.5536811" lon="16.2314883"><ele>72.0</ele><time>2026-05-03T13:03:19.617Z</time></trkpt><trkpt lat="39.5539358" lon="16.2316115"><ele>72.0</ele><time>2026-05-03T13:03:20.598Z</time></trkpt><trkpt lat="39.554191" lon="16.2317278"><ele>72.0</ele><time>2026-05-03T13:03:21.582Z</time></trkpt><trkpt lat="39.5544522" lon="16.2318425"><ele>72.5</ele><time>2026-05-03T13:03:22.59Z</time></trkpt><trkpt lat="39.5547136" lon="16.2319548"><ele>73.0</ele><time>2026-05-03T13:03:23.589Z</time></trkpt><trkpt lat="39.5549771" lon="16.2320672"><ele>73.0</ele><time>2026-05-03T13:03:24.597Z</time></trkpt><trkpt lat="39.5552422" lon="16.2321815"><ele>73.0</ele><time>2026-05-03T13:03:25.585Z</time></trkpt><trkpt lat="39.555507" lon="16.2323042"><ele>72.5</ele><time>2026-05-03T13:03:26.611Z</time></trkpt><trkpt lat="39.555772" lon="16.2324265"><ele>72.0</ele><time>2026-05-03T13:03:27.596Z</time></trkpt><trkpt lat="39.556036" lon="16.232554"><ele>70.5</ele><time>2026-05-03T13:03:28.58Z</time></trkpt><trkpt lat="39.5563009" lon="16.2326808"><ele>69.0</ele><time>2026-05-03T13:03:29.596Z</time></trkpt><trkpt lat="39.5565657" lon="16.2328117"><ele>69.0</ele><time>2026-05-03T13:03:30.577Z</time></trkpt><trkpt lat="39.5568317" lon="16.2329418"><ele>69.0</ele><time>2026-05-03T13:03:31.573Z</time></trkpt><trkpt lat="39.5570978" lon="16.2330739"><ele>69.5</ele><time>2026-05-03T13:03:32.565Z</time></trkpt><trkpt lat="39.5573584" lon="16.2332159"><ele>70.0</ele><time>2026-05-03T13:03:33.573Z</time></trkpt><trkpt lat="39.5576167" lon="16.2333612"><ele>70.0</ele><time>2026-05-03T13:03:34.591Z</time></trkpt><trkpt lat="39.5578789" lon="16.2334975"><ele>70.0</ele><time>2026-05-03T13:03:35.593Z</time></trkpt><trkpt lat="39.5581414" lon="16.2336255"><ele>70.0</ele><time>2026-05-03T13:03:36.603Z</time></trkpt><trkpt lat="39.5584007" lon="16.2337495"><ele>70.0</ele><time>2026-05-03T13:03:37.584Z</time></trkpt><trkpt lat="39.5586582" lon="16.233865"><ele>69.5</ele><time>2026-05-03T13:03:38.596Z</time></trkpt><trkpt lat="39.5589171" lon="16.2339869"><ele>69.0</ele><time>2026-05-03T13:03:39.585Z</time></trkpt><trkpt lat="39.5591736" lon="16.2341155"><ele>69.0</ele><time>2026-05-03T13:03:40.596Z</time></trkpt><trkpt lat="39.5594321" lon="16.2342378"><ele>69.0</ele><time>2026-05-03T13:03:41.589Z</time></trkpt><trkpt lat="39.5596923" lon="16.2343566"><ele>68.0</ele><time>2026-05-03T13:03:42.604Z</time></trkpt><trkpt lat="39.5599499" lon="16.2344747"><ele>67.0</ele><time>2026-05-03T13:03:43.593Z</time></trkpt><trkpt lat="39.5602081" lon="16.2345865"><ele>67.5</ele><time>2026-05-03T13:03:44.594Z</time></trkpt><trkpt lat="39.5604657" lon="16.2346932"><ele>68.0</ele><time>2026-05-03T13:03:45.596Z</time></trkpt><trkpt lat="39.5607213" lon="16.2348033"><ele>67.0</ele><time>2026-05-03T13:03:46.591Z</time></trkpt><trkpt lat="39.5609759" lon="16.2349062"><ele>66.0</ele><time>2026-05-03T13:03:47.598Z</time></trkpt><trkpt lat="39.5612261" lon="16.2350124"><ele>66.0</ele><time>2026-05-03T13:03:48.586Z</time></trkpt><trkpt lat="39.5614733" lon="16.2351118"><ele>66.0</ele><time>2026-05-03T13:03:49.595Z</time></trkpt><trkpt lat="39.5617231" lon="16.2352017"><ele>66.0</ele><time>2026-05-03T13:03:50.598Z</time></trkpt><trkpt lat="39.5619737" lon="16.2352911"><ele>66.0</ele><time>2026-05-03T13:03:51.608Z</time></trkpt><trkpt lat="39.5622231" lon="16.2353803"><ele>65.5</ele><time>2026-05-03T13:03:52.6Z</time></trkpt><trkpt lat="39.5624718" lon="16.2354676"><ele>65.0</ele><time>2026-05-03T13:03:53.601Z</time></trkpt><trkpt lat="39.5627214" lon="16.2355471"><ele>65.0</ele><time>2026-05-03T13:03:54.593Z</time></trkpt><trkpt lat="39.5629738" lon="16.2356226"><ele>65.0</ele><time>2026-05-03T13:03:55.586Z</time></trkpt><trkpt lat="39.5632249" lon="16.2357036"><ele>65.0</ele><time>2026-05-03T13:03:56.598Z</time></trkpt><trkpt lat="39.563477" lon="16.235785"><ele>65.0</ele><time>2026-05-03T13:03:57.588Z</time></trkpt><trkpt lat="39.5637286" lon="16.2358686"><ele>64.5</ele><time>2026-05-03T13:03:58.607Z</time></trkpt><trkpt lat="39.5639827" lon="16.2359472"><ele>64.0</ele><time>2026-05-03T13:03:59.579Z</time></trkpt><trkpt lat="39.5642398" lon="16.2360179"><ele>64.0</ele><time>2026-05-03T13:04:00.589Z</time></trkpt><trkpt lat="39.564501" lon="16.2360867"><ele>64.0</ele><time>2026-05-03T13:04:01.585Z</time></trkpt><trkpt lat="39.5647622" lon="16.2361643"><ele>64.5</ele><time>2026-05-03T13:04:02.603Z</time></trkpt><trkpt lat="39.5650245" lon="16.2362455"><ele>65.0</ele><time>2026-05-03T13:04:03.594Z</time></trkpt><trkpt lat="39.5652874" lon="16.2363244"><ele>65.0</ele><time>2026-05-03T13:04:04.59Z</time></trkpt><trkpt lat="39.5655544" lon="16.2364014"><ele>65.0</ele><time>2026-05-03T13:04:05.621Z</time></trkpt><trkpt lat="39.5658197" lon="16.2364779"><ele>64.5</ele><time>2026-05-03T13:04:06.587Z</time></trkpt><trkpt lat="39.5660861" lon="16.2365579"><ele>64.0</ele><time>2026-05-03T13:04:07.61Z</time></trkpt><trkpt lat="39.5663557" lon="16.2366422"><ele>63.5</ele><time>2026-05-03T13:04:08.59Z</time></trkpt><trkpt lat="39.5666258" lon="16.2367214"><ele>63.0</ele><time>2026-05-03T13:04:09.612Z</time></trkpt><trkpt lat="39.566899" lon="16.2368017"><ele>63.0</ele><time>2026-05-03T13:04:10.603Z</time></trkpt><trkpt lat="39.5671754" lon="16.2368817"><ele>63.0</ele><time>2026-05-03T13:04:11.591Z</time></trkpt><trkpt lat="39.5674526" lon="16.2369597"><ele>63.0</ele><time>2026-05-03T13:04:12.595Z</time></trkpt><trkpt lat="39.5677331" lon="16.2370418"><ele>63.0</ele><time>2026-05-03T13:04:13.593Z</time></trkpt><trkpt lat="39.5680139" lon="16.2371196"><ele>64.0</ele><time>2026-05-03T13:04:14.609Z</time></trkpt><trkpt lat="39.5682978" lon="16.237199"><ele>65.0</ele><time>2026-05-03T13:04:15.601Z</time></trkpt><trkpt lat="39.568586" lon="16.2372802"><ele>64.0</ele><time>2026-05-03T13:04:16.594Z</time></trkpt><trkpt lat="39.5688728" lon="16.2373609"><ele>63.0</ele><time>2026-05-03T13:04:17.603Z</time></trkpt><trkpt lat="39.5691625" lon="16.2374419"><ele>63.0</ele><time>2026-05-03T13:04:18.604Z</time></trkpt><trkpt lat="39.5694493" lon="16.2375268"><ele>63.0</ele><time>2026-05-03T13:04:19.596Z</time></trkpt><trkpt lat="39.5697342" lon="16.2376131"><ele>62.5</ele><time>2026-05-03T13:04:20.604Z</time></trkpt><trkpt lat="39.5700187" lon="16.2376941"><ele>62.0</ele><time>2026-05-03T13:04:21.594Z</time></trkpt><trkpt lat="39.5703008" lon="16.2377698"><ele>63.5</ele><time>2026-05-03T13:04:22.587Z</time></trkpt><trkpt lat="39.5705739" lon="16.2378507"><ele>65.0</ele><time>2026-05-03T13:04:23.61Z</time></trkpt><trkpt lat="39.5708396" lon="16.2379354"><ele>65.0</ele><time>2026-05-03T13:04:24.599Z</time></trkpt><trkpt lat="39.5711046" lon="16.2380135"><ele>65.0</ele><time>2026-05-03T13:04:25.594Z</time></trkpt><trkpt lat="39.5713674" lon="16.2380976"><ele>64.5</ele><time>2026-05-03T13:04:26.611Z</time></trkpt><trkpt lat="39.5716319" lon="16.2381811"><ele>64.0</ele><time>2026-05-03T13:04:27.605Z</time></trkpt><trkpt lat="39.571887" lon="16.2382779"><ele>64.0</ele><time>2026-05-03T13:04:28.61Z</time></trkpt><trkpt lat="39.5721433" lon="16.2383762"><ele>64.0</ele><time>2026-05-03T13:04:29.596Z</time></trkpt><trkpt lat="39.5724032" lon="16.2384799"><ele>64.0</ele><time>2026-05-03T13:04:30.597Z</time></trkpt><trkpt lat="39.5726584" lon="16.2385939"><ele>64.0</ele><time>2026-05-03T13:04:31.608Z</time></trkpt><trkpt lat="39.5729131" lon="16.2387205"><ele>65.5</ele><time>2026-05-03T13:04:32.59Z</time></trkpt><trkpt lat="39.5731637" lon="16.2388519"><ele>67.0</ele><time>2026-05-03T13:04:33.603Z</time></trkpt><trkpt lat="39.573409" lon="16.2389908"><ele>65.0</ele><time>2026-05-03T13:04:34.589Z</time></trkpt><trkpt lat="39.5736478" lon="16.2391357"><ele>63.0</ele><time>2026-05-03T13:04:35.597Z</time></trkpt><trkpt lat="39.5738826" lon="16.2392973"><ele>63.0</ele><time>2026-05-03T13:04:36.605Z</time></trkpt><trkpt lat="39.574114" lon="16.2394664"><ele>63.0</ele><time>2026-05-03T13:04:37.598Z</time></trkpt><trkpt lat="39.5745705" lon="16.2398235"><ele>63.0</ele><time>2026-05-03T13:04:39.607Z</time></trkpt><trkpt lat="39.574794" lon="16.2400065"><ele>63.0</ele><time>2026-05-03T13:04:40.595Z</time></trkpt><trkpt lat="39.5750105" lon="16.2401917"><ele>63.0</ele><time>2026-05-03T13:04:41.6Z</time></trkpt><trkpt lat="39.5752287" lon="16.2403834"><ele>63.0</ele><time>2026-05-03T13:04:42.601Z</time></trkpt><trkpt lat="39.575443" lon="16.2405815"><ele>63.5</ele><time>2026-05-03T13:04:43.576Z</time></trkpt><trkpt lat="39.5756544" lon="16.240786"><ele>64.0</ele><time>2026-05-03T13:04:44.589Z</time></trkpt><trkpt lat="39.5758649" lon="16.2409883"><ele>64.0</ele><time>2026-05-03T13:04:45.589Z</time></trkpt><trkpt lat="39.5760771" lon="16.2411889"><ele>64.0</ele><time>2026-05-03T13:04:46.596Z</time></trkpt><trkpt lat="39.5762881" lon="16.241387"><ele>63.5</ele><time>2026-05-03T13:04:47.576Z</time></trkpt><trkpt lat="39.5765001" lon="16.2415859"><ele>63.0</ele><time>2026-05-03T13:04:48.578Z</time></trkpt><trkpt lat="39.5767174" lon="16.241788"><ele>63.0</ele><time>2026-05-03T13:04:49.602Z</time></trkpt><trkpt lat="39.57694" lon="16.2419914"><ele>63.0</ele><time>2026-05-03T13:04:50.587Z</time></trkpt><trkpt lat="39.5771635" lon="16.2421949"><ele>62.0</ele><time>2026-05-03T13:04:51.586Z</time></trkpt><trkpt lat="39.5773934" lon="16.2423971"><ele>61.0</ele><time>2026-05-03T13:04:52.594Z</time></trkpt><trkpt lat="39.5776266" lon="16.2426007"><ele>62.0</ele><time>2026-05-03T13:04:53.591Z</time></trkpt><trkpt lat="39.5778636" lon="16.2428003"><ele>63.0</ele><time>2026-05-03T13:04:54.598Z</time></trkpt><trkpt lat="39.5781011" lon="16.243002"><ele>62.5</ele><time>2026-05-03T13:04:55.593Z</time></trkpt><trkpt lat="39.5783449" lon="16.2431941"><ele>62.0</ele><time>2026-05-03T13:04:56.601Z</time></trkpt><trkpt lat="39.578594" lon="16.2433813"><ele>62.0</ele><time>2026-05-03T13:04:57.597Z</time></trkpt><trkpt lat="39.5788426" lon="16.2435662"><ele>62.0</ele><time>2026-05-03T13:04:58.603Z</time></trkpt><trkpt lat="39.5790957" lon="16.2437445"><ele>62.0</ele><time>2026-05-03T13:04:59.596Z</time></trkpt><trkpt lat="39.5793494" lon="16.2439184"><ele>62.0</ele><time>2026-05-03T13:05:00.59Z</time></trkpt><trkpt lat="39.5796013" lon="16.2440844"><ele>62.0</ele><time>2026-05-03T13:05:01.586Z</time></trkpt><trkpt lat="39.5798561" lon="16.2442378"><ele>62.0</ele><time>2026-05-03T13:05:02.579Z</time></trkpt><trkpt lat="39.5801122" lon="16.244377"><ele>60.5</ele><time>2026-05-03T13:05:03.581Z</time></trkpt><trkpt lat="39.5803709" lon="16.2445039"><ele>59.0</ele><time>2026-05-03T13:05:04.585Z</time></trkpt><trkpt lat="39.5806267" lon="16.244631"><ele>59.0</ele><time>2026-05-03T13:05:05.602Z</time></trkpt><trkpt lat="39.5808802" lon="16.2447574"><ele>59.0</ele><time>2026-05-03T13:05:06.608Z</time></trkpt><trkpt lat="39.5811378" lon="16.2448769"><ele>59.5</ele><time>2026-05-03T13:05:07.593Z</time></trkpt><trkpt lat="39.5813952" lon="16.2449896"><ele>60.0</ele><time>2026-05-03T13:05:08.594Z</time></trkpt><trkpt lat="39.5816534" lon="16.2450921"><ele>60.0</ele><time>2026-05-03T13:05:09.589Z</time></trkpt><trkpt lat="39.5819124" lon="16.2451871"><ele>60.0</ele><time>2026-05-03T13:05:10.598Z</time></trkpt><trkpt lat="39.5821689" lon="16.2452703"><ele>61.0</ele><time>2026-05-03T13:05:11.605Z</time></trkpt><trkpt lat="39.5824262" lon="16.245342"><ele>62.0</ele><time>2026-05-03T13:05:12.591Z</time></trkpt><trkpt lat="39.5826889" lon="16.2454112"><ele>61.5</ele><time>2026-05-03T13:05:13.599Z</time></trkpt><trkpt lat="39.582947" lon="16.2454814"><ele>61.0</ele><time>2026-05-03T13:05:14.595Z</time></trkpt><trkpt lat="39.5832095" lon="16.2455414"><ele>61.0</ele><time>2026-05-03T13:05:15.604Z</time></trkpt><trkpt lat="39.583469" lon="16.2456003"><ele>61.0</ele><time>2026-05-03T13:05:16.597Z</time></trkpt><trkpt lat="39.5837307" lon="16.2456466"><ele>60.5</ele><time>2026-05-03T13:05:17.586Z</time></trkpt><trkpt lat="39.5839923" lon="16.2456889"><ele>60.0</ele><time>2026-05-03T13:05:18.592Z</time></trkpt><trkpt lat="39.5842519" lon="16.2457243"><ele>60.0</ele><time>2026-05-03T13:05:19.584Z</time></trkpt><trkpt lat="39.5845113" lon="16.2457494"><ele>60.0</ele><time>2026-05-03T13:05:20.585Z</time></trkpt><trkpt lat="39.5847667" lon="16.2457699"><ele>60.5</ele><time>2026-05-03T13:05:21.593Z</time></trkpt><trkpt lat="39.5850215" lon="16.2457887"><ele>61.0</ele><time>2026-05-03T13:05:22.604Z</time></trkpt><trkpt lat="39.5852762" lon="16.2458075"><ele>60.5</ele><time>2026-05-03T13:05:23.585Z</time></trkpt><trkpt lat="39.585529" lon="16.2458256"><ele>60.0</ele><time>2026-05-03T13:05:24.618Z</time></trkpt><trkpt lat="39.5857854" lon="16.2458429"><ele>60.0</ele><time>2026-05-03T13:05:25.617Z</time></trkpt><trkpt lat="39.5860458" lon="16.2458523"><ele>60.0</ele><time>2026-05-03T13:05:26.604Z</time></trkpt><trkpt lat="39.586311" lon="16.2458616"><ele>60.0</ele><time>2026-05-03T13:05:27.594Z</time></trkpt><trkpt lat="39.5865778" lon="16.2458673"><ele>60.0</ele><time>2026-05-03T13:05:28.599Z</time></trkpt><trkpt lat="39.5868509" lon="16.2458798"><ele>60.5</ele><time>2026-05-03T13:05:29.617Z</time></trkpt><trkpt lat="39.5871214" lon="16.2458945"><ele>61.0</ele><time>2026-05-03T13:05:30.607Z</time></trkpt><trkpt lat="39.5873901" lon="16.2459123"><ele>61.0</ele><time>2026-05-03T13:05:31.608Z</time></trkpt><trkpt lat="39.5876632" lon="16.2459255"><ele>61.0</ele><time>2026-05-03T13:05:32.594Z</time></trkpt><trkpt lat="39.5879319" lon="16.2459386"><ele>62.5</ele><time>2026-05-03T13:05:33.589Z</time></trkpt><trkpt lat="39.5882001" lon="16.2459425"><ele>64.0</ele><time>2026-05-03T13:05:34.59Z</time></trkpt><trkpt lat="39.5884712" lon="16.2459567"><ele>66.5</ele><time>2026-05-03T13:05:35.578Z</time></trkpt><trkpt lat="39.5887402" lon="16.2459719"><ele>69.0</ele><time>2026-05-03T13:05:36.589Z</time></trkpt><trkpt lat="39.5890086" lon="16.2459828"><ele>69.0</ele><time>2026-05-03T13:05:37.592Z</time></trkpt><trkpt lat="39.589275" lon="16.2459944"><ele>69.0</ele><time>2026-05-03T13:05:38.601Z</time></trkpt><trkpt lat="39.5895456" lon="16.2460004"><ele>71.0</ele><time>2026-05-03T13:05:39.601Z</time></trkpt><trkpt lat="39.5898159" lon="16.2460106"><ele>73.0</ele><time>2026-05-03T13:05:40.596Z</time></trkpt><trkpt lat="39.5900881" lon="16.2460168"><ele>73.5</ele><time>2026-05-03T13:05:41.591Z</time></trkpt><trkpt lat="39.5903616" lon="16.2460283"><ele>74.0</ele><time>2026-05-03T13:05:42.589Z</time></trkpt><trkpt lat="39.5906311" lon="16.2460336"><ele>74.0</ele><time>2026-05-03T13:05:43.606Z</time></trkpt><trkpt lat="39.5908998" lon="16.2460336"><ele>74.0</ele><time>2026-05-03T13:05:44.598Z</time></trkpt><trkpt lat="39.5911674" lon="16.2460215"><ele>76.5</ele><time>2026-05-03T13:05:45.569Z</time></trkpt><trkpt lat="39.5914334" lon="16.2460016"><ele>79.0</ele><time>2026-05-03T13:05:46.579Z</time></trkpt><trkpt lat="39.5917023" lon="16.2459762"><ele>79.0</ele><time>2026-05-03T13:05:47.596Z</time></trkpt><trkpt lat="39.5919703" lon="16.2459416"><ele>79.0</ele><time>2026-05-03T13:05:48.593Z</time></trkpt><trkpt lat="39.592239" lon="16.2459"><ele>75.0</ele><time>2026-05-03T13:05:49.589Z</time></trkpt><trkpt lat="39.5925107" lon="16.2458584"><ele>71.0</ele><time>2026-05-03T13:05:50.603Z</time></trkpt><trkpt lat="39.5927777" lon="16.2457989"><ele>68.5</ele><time>2026-05-03T13:05:51.604Z</time></trkpt><trkpt lat="39.5930477" lon="16.2457252"><ele>66.0</ele><time>2026-05-03T13:05:52.61Z</time></trkpt><trkpt lat="39.5933183" lon="16.245636"><ele>67.5</ele><time>2026-05-03T13:05:53.591Z</time></trkpt><trkpt lat="39.5935816" lon="16.2455497"><ele>69.0</ele><time>2026-05-03T13:05:54.595Z</time></trkpt><trkpt lat="39.5938495" lon="16.2454487"><ele>77.5</ele><time>2026-05-03T13:05:55.6Z</time></trkpt><trkpt lat="39.5941077" lon="16.2453371"><ele>86.0</ele><time>2026-05-03T13:05:56.582Z</time></trkpt><trkpt lat="39.5943663" lon="16.2452155"><ele>88.0</ele><time>2026-05-03T13:05:57.58Z</time></trkpt><trkpt lat="39.5946242" lon="16.2450867"><ele>90.0</ele><time>2026-05-03T13:05:58.599Z</time></trkpt><trkpt lat="39.5948778" lon="16.2449521"><ele>90.0</ele><time>2026-05-03T13:05:59.592Z</time></trkpt><trkpt lat="39.5951299" lon="16.2448106"><ele>90.0</ele><time>2026-05-03T13:06:00.59Z</time></trkpt><trkpt lat="39.5953757" lon="16.2446584"><ele>94.0</ele><time>2026-05-03T13:06:01.588Z</time></trkpt><trkpt lat="39.5956144" lon="16.2445016"><ele>98.0</ele><time>2026-05-03T13:06:02.592Z</time></trkpt><trkpt lat="39.59585" lon="16.2443252"><ele>98.0</ele><time>2026-05-03T13:06:03.596Z</time></trkpt><trkpt lat="39.5960791" lon="16.2441424"><ele>98.0</ele><time>2026-05-03T13:06:04.601Z</time></trkpt><trkpt lat="39.5963016" lon="16.2439556"><ele>103.0</ele><time>2026-05-03T13:06:05.573Z</time></trkpt><trkpt lat="39.5965205" lon="16.2437633"><ele>108.0</ele><time>2026-05-03T13:06:06.566Z</time></trkpt><trkpt lat="39.596736" lon="16.2435684"><ele>108.0</ele><time>2026-05-03T13:06:07.569Z</time></trkpt><trkpt lat="39.5969467" lon="16.2433685"><ele>108.0</ele><time>2026-05-03T13:06:08.581Z</time></trkpt><trkpt lat="39.5971495" lon="16.2431612"><ele>108.5</ele><time>2026-05-03T13:06:09.606Z</time></trkpt><trkpt lat="39.5973454" lon="16.2429528"><ele>109.0</ele><time>2026-05-03T13:06:10.592Z</time></trkpt><trkpt lat="39.5975395" lon="16.2427383"><ele>109.0</ele><time>2026-05-03T13:06:11.599Z</time></trkpt><trkpt lat="39.5977263" lon="16.242522"><ele>109.0</ele><time>2026-05-03T13:06:12.573Z</time></trkpt><trkpt lat="39.5979085" lon="16.2422948"><ele>109.0</ele><time>2026-05-03T13:06:13.603Z</time></trkpt><trkpt lat="39.5980862" lon="16.2420651"><ele>109.0</ele><time>2026-05-03T13:06:14.595Z</time></trkpt><trkpt lat="39.5982588" lon="16.2418258"><ele>109.0</ele><time>2026-05-03T13:06:15.593Z</time></trkpt><trkpt lat="39.5984258" lon="16.2415861"><ele>109.0</ele><time>2026-05-03T13:06:16.596Z</time></trkpt><trkpt lat="39.5985886" lon="16.2413387"><ele>112.5</ele><time>2026-05-03T13:06:17.576Z</time></trkpt><trkpt lat="39.598751" lon="16.2410893"><ele>116.0</ele><time>2026-05-03T13:06:18.583Z</time></trkpt><trkpt lat="39.5989116" lon="16.2408416"><ele>116.0</ele><time>2026-05-03T13:06:19.588Z</time></trkpt><trkpt lat="39.5990702" lon="16.2405961"><ele>116.0</ele><time>2026-05-03T13:06:20.587Z</time></trkpt><trkpt lat="39.599224" lon="16.2403533"><ele>116.0</ele><time>2026-05-03T13:06:21.595Z</time></trkpt><trkpt lat="39.5993768" lon="16.2401039"><ele>116.0</ele><time>2026-05-03T13:06:22.588Z</time></trkpt><trkpt lat="39.5995293" lon="16.2398489"><ele>123.5</ele><time>2026-05-03T13:06:23.594Z</time></trkpt><trkpt lat="39.5996845" lon="16.2396041"><ele>131.0</ele><time>2026-05-03T13:06:24.604Z</time></trkpt><trkpt lat="39.5998403" lon="16.239357"><ele>131.0</ele><time>2026-05-03T13:06:25.591Z</time></trkpt><trkpt lat="39.5999938" lon="16.239109"><ele>131.0</ele><time>2026-05-03T13:06:26.595Z</time></trkpt><trkpt lat="39.6001417" lon="16.2388574"><ele>129.5</ele><time>2026-05-03T13:06:27.593Z</time></trkpt><trkpt lat="39.6002928" lon="16.2386051"><ele>128.0</ele><time>2026-05-03T13:06:28.592Z</time></trkpt><trkpt lat="39.6004574" lon="16.2383572"><ele>133.5</ele><time>2026-05-03T13:06:29.583Z</time></trkpt><trkpt lat="39.600626" lon="16.238115"><ele>139.0</ele><time>2026-05-03T13:06:30.564Z</time></trkpt><trkpt lat="39.6007892" lon="16.2378734"><ele>139.0</ele><time>2026-05-03T13:06:31.565Z</time></trkpt><trkpt lat="39.6009473" lon="16.237628"><ele>139.0</ele><time>2026-05-03T13:06:32.576Z</time></trkpt><trkpt lat="39.601111" lon="16.2373776"><ele>141.5</ele><time>2026-05-03T13:06:33.594Z</time></trkpt><trkpt lat="39.6012786" lon="16.2371323"><ele>144.0</ele><time>2026-05-03T13:06:34.59Z</time></trkpt><trkpt lat="39.6014482" lon="16.2369009"><ele>144.0</ele><time>2026-05-03T13:06:35.58Z</time></trkpt><trkpt lat="39.6016264" lon="16.2366833"><ele>144.0</ele><time>2026-05-03T13:06:36.586Z</time></trkpt><trkpt lat="39.6018125" lon="16.2364605"><ele>153.5</ele><time>2026-05-03T13:06:37.585Z</time></trkpt><trkpt lat="39.6020074" lon="16.2362463"><ele>163.0</ele><time>2026-05-03T13:06:38.584Z</time></trkpt><trkpt lat="39.6022044" lon="16.2360196"><ele>172.0</ele><time>2026-05-03T13:06:39.575Z</time></trkpt><trkpt lat="39.6112078" lon="16.2313822"><ele>172.0</ele><time>2026-05-03T13:07:14.572Z</time></trkpt><trkpt lat="39.6115075" lon="16.2313014"><ele>172.0</ele><time>2026-05-03T13:07:15.572Z</time></trkpt><trkpt lat="39.6118069" lon="16.2311757"><ele>172.0</ele><time>2026-05-03T13:07:16.579Z</time></trkpt><trkpt lat="39.6120987" lon="16.2310801"><ele>172.0</ele><time>2026-05-03T13:07:17.577Z</time></trkpt><trkpt lat="39.6123948" lon="16.2309814"><ele>172.0</ele><time>2026-05-03T13:07:18.58Z</time></trkpt><trkpt lat="39.6126889" lon="16.2308864"><ele>172.0</ele><time>2026-05-03T13:07:19.586Z</time></trkpt><trkpt lat="39.6129784" lon="16.2307926"><ele>173.0</ele><time>2026-05-03T13:07:20.577Z</time></trkpt><trkpt lat="39.6132632" lon="16.2307001"><ele>174.0</ele><time>2026-05-03T13:07:21.567Z</time></trkpt><trkpt lat="39.613542" lon="16.2305964"><ele>168.0</ele><time>2026-05-03T13:07:22.57Z</time></trkpt><trkpt lat="39.6138216" lon="16.2305006"><ele>162.0</ele><time>2026-05-03T13:07:23.586Z</time></trkpt><trkpt lat="39.6141009" lon="16.2304134"><ele>162.0</ele><time>2026-05-03T13:07:24.586Z</time></trkpt><trkpt lat="39.6143796" lon="16.2303294"><ele>162.0</ele><time>2026-05-03T13:07:25.577Z</time></trkpt><trkpt lat="39.6146608" lon="16.2302515"><ele>161.0</ele><time>2026-05-03T13:07:26.571Z</time></trkpt><trkpt lat="39.6149478" lon="16.2301812"><ele>160.0</ele><time>2026-05-03T13:07:27.586Z</time></trkpt><trkpt lat="39.6152357" lon="16.2301322"><ele>161.5</ele><time>2026-05-03T13:07:28.583Z</time></trkpt><trkpt lat="39.615528" lon="16.2300947"><ele>163.0</ele><time>2026-05-03T13:07:29.598Z</time></trkpt><trkpt lat="39.6158188" lon="16.2300722"><ele>163.0</ele><time>2026-05-03T13:07:30.598Z</time></trkpt><trkpt lat="39.6161061" lon="16.2300546"><ele>163.0</ele><time>2026-05-03T13:07:31.58Z</time></trkpt><trkpt lat="39.6163919" lon="16.2300553"><ele>162.0</ele><time>2026-05-03T13:07:32.578Z</time></trkpt><trkpt lat="39.6166766" lon="16.2300715"><ele>161.0</ele><time>2026-05-03T13:07:33.561Z</time></trkpt><trkpt lat="39.6169576" lon="16.2300893"><ele>156.5</ele><time>2026-05-03T13:07:34.592Z</time></trkpt><trkpt lat="39.6172382" lon="16.2301141"><ele>152.0</ele><time>2026-05-03T13:07:35.594Z</time></trkpt><trkpt lat="39.6175206" lon="16.2301381"><ele>152.0</ele><time>2026-05-03T13:07:36.582Z</time></trkpt><trkpt lat="39.6178014" lon="16.2301525"><ele>152.0</ele><time>2026-05-03T13:07:37.581Z</time></trkpt><trkpt lat="39.6180795" lon="16.2301683"><ele>152.0</ele><time>2026-05-03T13:07:38.592Z</time></trkpt><trkpt lat="39.6183538" lon="16.2301666"><ele>152.0</ele><time>2026-05-03T13:07:39.592Z</time></trkpt><trkpt lat="39.6186258" lon="16.2301573"><ele>150.5</ele><time>2026-05-03T13:07:40.598Z</time></trkpt><trkpt lat="39.6188982" lon="16.2301406"><ele>149.0</ele><time>2026-05-03T13:07:41.569Z</time></trkpt><trkpt lat="39.6191661" lon="16.2301156"><ele>149.0</ele><time>2026-05-03T13:07:42.569Z</time></trkpt><trkpt lat="39.6194337" lon="16.2300793"><ele>149.0</ele><time>2026-05-03T13:07:43.559Z</time></trkpt><trkpt lat="39.6196996" lon="16.2300378"><ele>150.0</ele><time>2026-05-03T13:07:44.592Z</time></trkpt><trkpt lat="39.6199601" lon="16.2299834"><ele>151.0</ele><time>2026-05-03T13:07:45.593Z</time></trkpt><trkpt lat="39.6202186" lon="16.2299183"><ele>150.0</ele><time>2026-05-03T13:07:46.6Z</time></trkpt><trkpt lat="39.6204807" lon="16.2298466"><ele>149.0</ele><time>2026-05-03T13:07:47.592Z</time></trkpt><trkpt lat="39.6207447" lon="16.2297818"><ele>147.0</ele><time>2026-05-03T13:07:48.603Z</time></trkpt><trkpt lat="39.6210051" lon="16.2297188"><ele>145.0</ele><time>2026-05-03T13:07:49.612Z</time></trkpt><trkpt lat="39.6212679" lon="16.2296537"><ele>145.0</ele><time>2026-05-03T13:07:50.604Z</time></trkpt><trkpt lat="39.6215304" lon="16.2295822"><ele>145.0</ele><time>2026-05-03T13:07:51.572Z</time></trkpt><trkpt lat="39.6217928" lon="16.2295115"><ele>142.0</ele><time>2026-05-03T13:07:52.581Z</time></trkpt><trkpt lat="39.6220597" lon="16.2294396"><ele>139.0</ele><time>2026-05-03T13:07:53.589Z</time></trkpt><trkpt lat="39.6223297" lon="16.2293686"><ele>139.0</ele><time>2026-05-03T13:07:54.608Z</time></trkpt><trkpt lat="39.6225986" lon="16.2292985"><ele>139.0</ele><time>2026-05-03T13:07:55.594Z</time></trkpt><trkpt lat="39.6228686" lon="16.2292298"><ele>136.5</ele><time>2026-05-03T13:07:56.589Z</time></trkpt><trkpt lat="39.6231409" lon="16.2291641"><ele>134.0</ele><time>2026-05-03T13:07:57.599Z</time></trkpt><trkpt lat="39.623413" lon="16.2290967"><ele>136.0</ele><time>2026-05-03T13:07:58.602Z</time></trkpt><trkpt lat="39.6236904" lon="16.2290378"><ele>138.0</ele><time>2026-05-03T13:07:59.597Z</time></trkpt><trkpt lat="39.6239694" lon="16.2289937"><ele>133.5</ele><time>2026-05-03T13:08:00.602Z</time></trkpt><trkpt lat="39.6242503" lon="16.2289737"><ele>129.0</ele><time>2026-05-03T13:08:01.597Z</time></trkpt><trkpt lat="39.6245321" lon="16.2289605"><ele>128.5</ele><time>2026-05-03T13:08:02.594Z</time></trkpt><trkpt lat="39.6248101" lon="16.2289524"><ele>128.0</ele><time>2026-05-03T13:08:03.611Z</time></trkpt><trkpt lat="39.6250875" lon="16.2289565"><ele>130.0</ele><time>2026-05-03T13:08:04.605Z</time></trkpt><trkpt lat="39.6253639" lon="16.2289769"><ele>132.0</ele><time>2026-05-03T13:08:05.611Z</time></trkpt><trkpt lat="39.6256395" lon="16.2290063"><ele>132.0</ele><time>2026-05-03T13:08:06.595Z</time></trkpt><trkpt lat="39.6259169" lon="16.2290489"><ele>132.0</ele><time>2026-05-03T13:08:07.594Z</time></trkpt><trkpt lat="39.6261943" lon="16.2291082"><ele>131.0</ele><time>2026-05-03T13:08:08.597Z</time></trkpt><trkpt lat="39.6264686" lon="16.2291674"><ele>130.0</ele><time>2026-05-03T13:08:09.589Z</time></trkpt><trkpt lat="39.6267387" lon="16.2292307"><ele>126.5</ele><time>2026-05-03T13:08:10.612Z</time></trkpt><trkpt lat="39.6270096" lon="16.2292931"><ele>123.0</ele><time>2026-05-03T13:08:11.603Z</time></trkpt><trkpt lat="39.6272792" lon="16.22936"><ele>123.0</ele><time>2026-05-03T13:08:12.593Z</time></trkpt><trkpt lat="39.6275464" lon="16.2294267"><ele>123.0</ele><time>2026-05-03T13:08:13.576Z</time></trkpt><trkpt lat="39.6278117" lon="16.2295023"><ele>122.0</ele><time>2026-05-03T13:08:14.584Z</time></trkpt><trkpt lat="39.6280695" lon="16.2295762"><ele>121.0</ele><time>2026-05-03T13:08:15.566Z</time></trkpt><trkpt lat="39.6283238" lon="16.2296507"><ele>121.0</ele><time>2026-05-03T13:08:16.591Z</time></trkpt><trkpt lat="39.6285804" lon="16.2297276"><ele>121.0</ele><time>2026-05-03T13:08:17.577Z</time></trkpt><trkpt lat="39.6288345" lon="16.2298074"><ele>122.5</ele><time>2026-05-03T13:08:18.578Z</time></trkpt><trkpt lat="39.6290839" lon="16.229896"><ele>124.0</ele><time>2026-05-03T13:08:19.564Z</time></trkpt><trkpt lat="39.629333" lon="16.2299946"><ele>122.0</ele><time>2026-05-03T13:08:20.565Z</time></trkpt><trkpt lat="39.6295769" lon="16.2301008"><ele>120.0</ele><time>2026-05-03T13:08:21.571Z</time></trkpt><trkpt lat="39.6298213" lon="16.2302243"><ele>120.0</ele><time>2026-05-03T13:08:22.589Z</time></trkpt><trkpt lat="39.6300628" lon="16.230353"><ele>120.0</ele><time>2026-05-03T13:08:23.57Z</time></trkpt><trkpt lat="39.6303054" lon="16.2304835"><ele>117.0</ele><time>2026-05-03T13:08:24.573Z</time></trkpt><trkpt lat="39.6305457" lon="16.2306193"><ele>114.0</ele><time>2026-05-03T13:08:25.576Z</time></trkpt><trkpt lat="39.6307862" lon="16.2307455"><ele>114.0</ele><time>2026-05-03T13:08:26.57Z</time></trkpt><trkpt lat="39.6310279" lon="16.2308725"><ele>114.0</ele><time>2026-05-03T13:08:27.568Z</time></trkpt><trkpt lat="39.6312652" lon="16.2310009"><ele>112.0</ele><time>2026-05-03T13:08:28.57Z</time></trkpt><trkpt lat="39.6315063" lon="16.2311207"><ele>110.0</ele><time>2026-05-03T13:08:29.573Z</time></trkpt><trkpt lat="39.6317491" lon="16.2312385"><ele>107.5</ele><time>2026-05-03T13:08:30.592Z</time></trkpt><trkpt lat="39.6319958" lon="16.231349"><ele>105.0</ele><time>2026-05-03T13:08:31.611Z</time></trkpt><trkpt lat="39.6322384" lon="16.2314542"><ele>107.5</ele><time>2026-05-03T13:08:32.583Z</time></trkpt><trkpt lat="39.6324785" lon="16.2315568"><ele>110.0</ele><time>2026-05-03T13:08:33.569Z</time></trkpt><trkpt lat="39.6327192" lon="16.2316512"><ele>107.0</ele><time>2026-05-03T13:08:34.564Z</time></trkpt><trkpt lat="39.6329637" lon="16.2317292"><ele>104.0</ele><time>2026-05-03T13:08:35.578Z</time></trkpt><trkpt lat="39.6332064" lon="16.2317934"><ele>104.0</ele><time>2026-05-03T13:08:36.589Z</time></trkpt><trkpt lat="39.6334501" lon="16.2318395"><ele>104.0</ele><time>2026-05-03T13:08:37.577Z</time></trkpt><trkpt lat="39.6336931" lon="16.231885"><ele>103.0</ele><time>2026-05-03T13:08:38.588Z</time></trkpt><trkpt lat="39.6339364" lon="16.2319209"><ele>102.0</ele><time>2026-05-03T13:08:39.587Z</time></trkpt><trkpt lat="39.6341772" lon="16.2319514"><ele>102.0</ele><time>2026-05-03T13:08:40.594Z</time></trkpt><trkpt lat="39.6344185" lon="16.2319735"><ele>102.0</ele><time>2026-05-03T13:08:41.583Z</time></trkpt><trkpt lat="39.634658" lon="16.2319842"><ele>101.0</ele><time>2026-05-03T13:08:42.592Z</time></trkpt><trkpt lat="39.6348969" lon="16.2319819"><ele>100.0</ele><time>2026-05-03T13:08:43.58Z</time></trkpt><trkpt lat="39.6351389" lon="16.2319706"><ele>97.5</ele><time>2026-05-03T13:08:44.59Z</time></trkpt><trkpt lat="39.6353781" lon="16.2319497"><ele>95.0</ele><time>2026-05-03T13:08:45.588Z</time></trkpt><trkpt lat="39.6356191" lon="16.231921"><ele>95.0</ele><time>2026-05-03T13:08:46.597Z</time></trkpt><trkpt lat="39.6358571" lon="16.2318808"><ele>95.0</ele><time>2026-05-03T13:08:47.585Z</time></trkpt><trkpt lat="39.6360955" lon="16.2318285"><ele>93.5</ele><time>2026-05-03T13:08:48.597Z</time></trkpt><trkpt lat="39.6363329" lon="16.2317738"><ele>92.0</ele><time>2026-05-03T13:08:49.586Z</time></trkpt><trkpt lat="39.6365653" lon="16.2317083"><ele>92.0</ele><time>2026-05-03T13:08:50.611Z</time></trkpt><trkpt lat="39.6368015" lon="16.2316392"><ele>92.0</ele><time>2026-05-03T13:08:51.568Z</time></trkpt><trkpt lat="39.6370352" lon="16.2315553"><ele>91.0</ele><time>2026-05-03T13:08:52.615Z</time></trkpt><trkpt lat="39.6372677" lon="16.2314614"><ele>90.0</ele><time>2026-05-03T13:08:53.588Z</time></trkpt><trkpt lat="39.6375034" lon="16.2313684"><ele>90.0</ele><time>2026-05-03T13:08:54.601Z</time></trkpt><trkpt lat="39.6377432" lon="16.2312718"><ele>90.0</ele><time>2026-05-03T13:08:55.578Z</time></trkpt><trkpt lat="39.6379814" lon="16.2311787"><ele>89.0</ele><time>2026-05-03T13:08:56.577Z</time></trkpt><trkpt lat="39.6382188" lon="16.2310823"><ele>88.0</ele><time>2026-05-03T13:08:57.593Z</time></trkpt><trkpt lat="39.6384583" lon="16.230985"><ele>87.5</ele><time>2026-05-03T13:08:58.589Z</time></trkpt><trkpt lat="39.6387007" lon="16.2308963"><ele>87.0</ele><time>2026-05-03T13:08:59.597Z</time></trkpt><trkpt lat="39.6389438" lon="16.2308"><ele>87.0</ele><time>2026-05-03T13:09:00.594Z</time></trkpt><trkpt lat="39.6391881" lon="16.2306976"><ele>87.0</ele><time>2026-05-03T13:09:01.588Z</time></trkpt><trkpt lat="39.6394315" lon="16.2306032"><ele>85.5</ele><time>2026-05-03T13:09:02.588Z</time></trkpt><trkpt lat="39.6396736" lon="16.2304996"><ele>84.0</ele><time>2026-05-03T13:09:03.579Z</time></trkpt><trkpt lat="39.639918" lon="16.2303938"><ele>84.0</ele><time>2026-05-03T13:09:04.585Z</time></trkpt><trkpt lat="39.6401588" lon="16.2302861"><ele>84.0</ele><time>2026-05-03T13:09:05.558Z</time></trkpt><trkpt lat="39.6404024" lon="16.2301744"><ele>82.5</ele><time>2026-05-03T13:09:06.579Z</time></trkpt><trkpt lat="39.6406473" lon="16.2300609"><ele>81.0</ele><time>2026-05-03T13:09:07.566Z</time></trkpt><trkpt lat="39.6408888" lon="16.2299445"><ele>81.0</ele><time>2026-05-03T13:09:08.57Z</time></trkpt><trkpt lat="39.6411324" lon="16.2298214"><ele>81.0</ele><time>2026-05-03T13:09:09.567Z</time></trkpt><trkpt lat="39.641371" lon="16.2296884"><ele>81.0</ele><time>2026-05-03T13:09:10.625Z</time></trkpt><trkpt lat="39.6416073" lon="16.229549"><ele>81.0</ele><time>2026-05-03T13:09:11.567Z</time></trkpt><trkpt lat="39.6418359" lon="16.2293954"><ele>80.5</ele><time>2026-05-03T13:09:12.563Z</time></trkpt><trkpt lat="39.6420575" lon="16.2292366"><ele>80.0</ele><time>2026-05-03T13:09:13.591Z</time></trkpt><trkpt lat="39.6422771" lon="16.2290724"><ele>81.0</ele><time>2026-05-03T13:09:14.576Z</time></trkpt><trkpt lat="39.6424891" lon="16.2288946"><ele>82.0</ele><time>2026-05-03T13:09:15.571Z</time></trkpt><trkpt lat="39.6426966" lon="16.228713"><ele>82.5</ele><time>2026-05-03T13:09:16.585Z</time></trkpt><trkpt lat="39.6428975" lon="16.2285275"><ele>83.0</ele><time>2026-05-03T13:09:17.579Z</time></trkpt><trkpt lat="39.6430945" lon="16.2283293"><ele>83.0</ele><time>2026-05-03T13:09:18.579Z</time></trkpt><trkpt lat="39.643284" lon="16.2281274"><ele>83.0</ele><time>2026-05-03T13:09:19.565Z</time></trkpt><trkpt lat="39.6434712" lon="16.2279197"><ele>82.5</ele><time>2026-05-03T13:09:20.573Z</time></trkpt><trkpt lat="39.6436509" lon="16.2277064"><ele>82.0</ele><time>2026-05-03T13:09:21.568Z</time></trkpt><trkpt lat="39.6438223" lon="16.2274871"><ele>82.5</ele><time>2026-05-03T13:09:22.595Z</time></trkpt><trkpt lat="39.6439886" lon="16.2272611"><ele>83.0</ele><time>2026-05-03T13:09:23.611Z</time></trkpt><trkpt lat="39.6441478" lon="16.227036"><ele>83.0</ele><time>2026-05-03T13:09:24.594Z</time></trkpt><trkpt lat="39.6443012" lon="16.2267991"><ele>83.0</ele><time>2026-05-03T13:09:25.602Z</time></trkpt><trkpt lat="39.6444447" lon="16.2265599"><ele>83.0</ele><time>2026-05-03T13:09:26.603Z</time></trkpt><trkpt lat="39.644583" lon="16.2263203"><ele>83.0</ele><time>2026-05-03T13:09:27.596Z</time></trkpt><trkpt lat="39.6447217" lon="16.2260748"><ele>83.0</ele><time>2026-05-03T13:09:28.58Z</time></trkpt><trkpt lat="39.6448555" lon="16.2258221"><ele>83.0</ele><time>2026-05-03T13:09:29.61Z</time></trkpt><trkpt lat="39.644989" lon="16.2255649"><ele>84.5</ele><time>2026-05-03T13:09:30.588Z</time></trkpt><trkpt lat="39.6451157" lon="16.2252954"><ele>86.0</ele><time>2026-05-03T13:09:31.593Z</time></trkpt><trkpt lat="39.645238" lon="16.2250203"><ele>90.5</ele><time>2026-05-03T13:09:32.575Z</time></trkpt><trkpt lat="39.6453547" lon="16.2247444"><ele>95.0</ele><time>2026-05-03T13:09:33.589Z</time></trkpt><trkpt lat="39.6454705" lon="16.2244663"><ele>95.0</ele><time>2026-05-03T13:09:34.598Z</time></trkpt><trkpt lat="39.6455802" lon="16.224183"><ele>95.0</ele><time>2026-05-03T13:09:35.591Z</time></trkpt><trkpt lat="39.6456885" lon="16.2239021"><ele>98.5</ele><time>2026-05-03T13:09:36.593Z</time></trkpt><trkpt lat="39.6457941" lon="16.2236219"><ele>102.0</ele><time>2026-05-03T13:09:37.602Z</time></trkpt><trkpt lat="39.6459042" lon="16.2233396"><ele>98.5</ele><time>2026-05-03T13:09:38.601Z</time></trkpt><trkpt lat="39.6460153" lon="16.2230631"><ele>95.0</ele><time>2026-05-03T13:09:39.599Z</time></trkpt><trkpt lat="39.6461299" lon="16.222783"><ele>95.0</ele><time>2026-05-03T13:09:40.585Z</time></trkpt><trkpt lat="39.6462433" lon="16.2225047"><ele>95.0</ele><time>2026-05-03T13:09:41.598Z</time></trkpt><trkpt lat="39.6463536" lon="16.2222188"><ele>95.0</ele><time>2026-05-03T13:09:42.586Z</time></trkpt><trkpt lat="39.6465889" lon="16.2216478"><ele>96.0</ele><time>2026-05-03T13:09:44.604Z</time></trkpt><trkpt lat="39.6467162" lon="16.2213691"><ele>97.0</ele><time>2026-05-03T13:09:45.595Z</time></trkpt><trkpt lat="39.6468506" lon="16.2210898"><ele>93.0</ele><time>2026-05-03T13:09:46.595Z</time></trkpt><trkpt lat="39.6469923" lon="16.2208134"><ele>89.0</ele><time>2026-05-03T13:09:47.587Z</time></trkpt><trkpt lat="39.647143" lon="16.2205427"><ele>88.5</ele><time>2026-05-03T13:09:48.591Z</time></trkpt><trkpt lat="39.6472942" lon="16.220276"><ele>88.0</ele><time>2026-05-03T13:09:49.589Z</time></trkpt><trkpt lat="39.64745" lon="16.2200121"><ele>88.0</ele><time>2026-05-03T13:09:50.591Z</time></trkpt><trkpt lat="39.6476133" lon="16.2197514"><ele>88.0</ele><time>2026-05-03T13:09:51.587Z</time></trkpt><trkpt lat="39.6477873" lon="16.2195029"><ele>91.5</ele><time>2026-05-03T13:09:52.589Z</time></trkpt><trkpt lat="39.6479722" lon="16.2192588"><ele>95.0</ele><time>2026-05-03T13:09:53.602Z</time></trkpt><trkpt lat="39.6481617" lon="16.219023"><ele>92.5</ele><time>2026-05-03T13:09:54.594Z</time></trkpt><trkpt lat="39.6483565" lon="16.2187942"><ele>90.0</ele><time>2026-05-03T13:09:55.578Z</time></trkpt><trkpt lat="39.648557" lon="16.2185668"><ele>90.5</ele><time>2026-05-03T13:09:56.594Z</time></trkpt><trkpt lat="39.6487634" lon="16.2183511"><ele>91.0</ele><time>2026-05-03T13:09:57.586Z</time></trkpt><trkpt lat="39.6489773" lon="16.2181483"><ele>91.0</ele><time>2026-05-03T13:09:58.583Z</time></trkpt><trkpt lat="39.6491963" lon="16.2179503"><ele>91.0</ele><time>2026-05-03T13:09:59.596Z</time></trkpt><trkpt lat="39.6494258" lon="16.2177675"><ele>92.5</ele><time>2026-05-03T13:10:00.589Z</time></trkpt><trkpt lat="39.6496597" lon="16.2175887"><ele>94.0</ele><time>2026-05-03T13:10:01.598Z</time></trkpt><trkpt lat="39.6498975" lon="16.2174162"><ele>85.0</ele><time>2026-05-03T13:10:02.6Z</time></trkpt><trkpt lat="39.650381" lon="16.2171001"><ele>85.0</ele><time>2026-05-03T13:10:04.599Z</time></trkpt><trkpt lat="39.6506319" lon="16.216961"><ele>85.0</ele><time>2026-05-03T13:10:05.6Z</time></trkpt><trkpt lat="39.6508872" lon="16.2168373"><ele>84.0</ele><time>2026-05-03T13:10:06.589Z</time></trkpt><trkpt lat="39.6511461" lon="16.2167193"><ele>83.0</ele><time>2026-05-03T13:10:07.599Z</time></trkpt><trkpt lat="39.6514099" lon="16.2166163"><ele>83.0</ele><time>2026-05-03T13:10:08.604Z</time></trkpt><trkpt lat="39.6516759" lon="16.2165224"><ele>83.0</ele><time>2026-05-03T13:10:09.593Z</time></trkpt><trkpt lat="39.6519415" lon="16.2164413"><ele>83.0</ele><time>2026-05-03T13:10:10.585Z</time></trkpt><trkpt lat="39.6522088" lon="16.2163752"><ele>83.0</ele><time>2026-05-03T13:10:11.577Z</time></trkpt><trkpt lat="39.6524769" lon="16.2163076"><ele>83.0</ele><time>2026-05-03T13:10:12.599Z</time></trkpt><trkpt lat="39.6527435" lon="16.2162457"><ele>83.0</ele><time>2026-05-03T13:10:13.586Z</time></trkpt><trkpt lat="39.6530104" lon="16.2161861"><ele>83.5</ele><time>2026-05-03T13:10:14.595Z</time></trkpt><trkpt lat="39.6532783" lon="16.2161293"><ele>84.0</ele><time>2026-05-03T13:10:15.585Z</time></trkpt><trkpt lat="39.6535445" lon="16.2160658"><ele>84.0</ele><time>2026-05-03T13:10:16.607Z</time></trkpt><trkpt lat="39.6538085" lon="16.2160041"><ele>84.0</ele><time>2026-05-03T13:10:17.57Z</time></trkpt><trkpt lat="39.6540709" lon="16.2159413"><ele>84.0</ele><time>2026-05-03T13:10:18.574Z</time></trkpt><trkpt lat="39.6543365" lon="16.2158735"><ele>84.0</ele><time>2026-05-03T13:10:19.57Z</time></trkpt><trkpt lat="39.6546018" lon="16.2158085"><ele>83.5</ele><time>2026-05-03T13:10:20.595Z</time></trkpt><trkpt lat="39.6548622" lon="16.2157512"><ele>83.0</ele><time>2026-05-03T13:10:21.571Z</time></trkpt><trkpt lat="39.6551229" lon="16.2156927"><ele>82.5</ele><time>2026-05-03T13:10:22.585Z</time></trkpt><trkpt lat="39.6553812" lon="16.2156367"><ele>82.0</ele><time>2026-05-03T13:10:23.589Z</time></trkpt><trkpt lat="39.6556368" lon="16.2155791"><ele>82.0</ele><time>2026-05-03T13:10:24.606Z</time></trkpt><trkpt lat="39.6558909" lon="16.2155196"><ele>82.0</ele><time>2026-05-03T13:10:25.606Z</time></trkpt><trkpt lat="39.6561483" lon="16.2154595"><ele>82.5</ele><time>2026-05-03T13:10:26.589Z</time></trkpt><trkpt lat="39.6564077" lon="16.2153962"><ele>83.0</ele><time>2026-05-03T13:10:27.601Z</time></trkpt><trkpt lat="39.6566667" lon="16.2153271"><ele>83.0</ele><time>2026-05-03T13:10:28.61Z</time></trkpt><trkpt lat="39.6569223" lon="16.21527"><ele>83.0</ele><time>2026-05-03T13:10:29.589Z</time></trkpt><trkpt lat="39.6571748" lon="16.2152146"><ele>83.0</ele><time>2026-05-03T13:10:30.591Z</time></trkpt><trkpt lat="39.6574255" lon="16.2151622"><ele>83.0</ele><time>2026-05-03T13:10:31.589Z</time></trkpt><trkpt lat="39.6576701" lon="16.2151107"><ele>82.0</ele><time>2026-05-03T13:10:32.59Z</time></trkpt><trkpt lat="39.6579097" lon="16.215054"><ele>81.0</ele><time>2026-05-03T13:10:33.588Z</time></trkpt><trkpt lat="39.6581459" lon="16.2149952"><ele>81.0</ele><time>2026-05-03T13:10:34.587Z</time></trkpt><trkpt lat="39.6583811" lon="16.2149436"><ele>81.0</ele><time>2026-05-03T13:10:35.574Z</time></trkpt><trkpt lat="39.6586155" lon="16.2148924"><ele>81.0</ele><time>2026-05-03T13:10:36.59Z</time></trkpt><trkpt lat="39.6588463" lon="16.2148426"><ele>81.0</ele><time>2026-05-03T13:10:37.592Z</time></trkpt><trkpt lat="39.6590779" lon="16.214793"><ele>81.5</ele><time>2026-05-03T13:10:38.598Z</time></trkpt><trkpt lat="39.6593096" lon="16.214738"><ele>82.0</ele><time>2026-05-03T13:10:39.619Z</time></trkpt><trkpt lat="39.6595402" lon="16.2146739"><ele>82.5</ele><time>2026-05-03T13:10:40.609Z</time></trkpt><trkpt lat="39.6597765" lon="16.2146126"><ele>83.0</ele><time>2026-05-03T13:10:41.582Z</time></trkpt><trkpt lat="39.6600116" lon="16.2145563"><ele>83.0</ele><time>2026-05-03T13:10:42.575Z</time></trkpt><trkpt lat="39.6602486" lon="16.2145114"><ele>83.0</ele><time>2026-05-03T13:10:43.57Z</time></trkpt><trkpt lat="39.6604827" lon="16.2144681"><ele>83.0</ele><time>2026-05-03T13:10:44.569Z</time></trkpt><trkpt lat="39.6607194" lon="16.2144256"><ele>83.0</ele><time>2026-05-03T13:10:45.568Z</time></trkpt><trkpt lat="39.6609529" lon="16.2143737"><ele>82.5</ele><time>2026-05-03T13:10:46.598Z</time></trkpt><trkpt lat="39.6611868" lon="16.2143189"><ele>82.0</ele><time>2026-05-03T13:10:47.589Z</time></trkpt><trkpt lat="39.6614216" lon="16.2142673"><ele>82.0</ele><time>2026-05-03T13:10:48.606Z</time></trkpt><trkpt lat="39.6616636" lon="16.2142164"><ele>82.0</ele><time>2026-05-03T13:10:49.601Z</time></trkpt><trkpt lat="39.6619035" lon="16.2141816"><ele>82.5</ele><time>2026-05-03T13:10:50.577Z</time></trkpt><trkpt lat="39.6621445" lon="16.2141519"><ele>83.0</ele><time>2026-05-03T13:10:51.584Z</time></trkpt><trkpt lat="39.6623875" lon="16.2141266"><ele>83.0</ele><time>2026-05-03T13:10:52.584Z</time></trkpt><trkpt lat="39.6626296" lon="16.2141078"><ele>83.0</ele><time>2026-05-03T13:10:53.585Z</time></trkpt><trkpt lat="39.6628727" lon="16.2140952"><ele>83.0</ele><time>2026-05-03T13:10:54.596Z</time></trkpt><trkpt lat="39.6631219" lon="16.2140908"><ele>83.0</ele><time>2026-05-03T13:10:55.578Z</time></trkpt><trkpt lat="39.6633675" lon="16.2140957"><ele>83.0</ele><time>2026-05-03T13:10:56.587Z</time></trkpt><trkpt lat="39.6636113" lon="16.2141001"><ele>83.0</ele><time>2026-05-03T13:10:57.585Z</time></trkpt><trkpt lat="39.6638581" lon="16.2141141"><ele>83.5</ele><time>2026-05-03T13:10:58.598Z</time></trkpt><trkpt lat="39.6641035" lon="16.2141369"><ele>84.0</ele><time>2026-05-03T13:10:59.602Z</time></trkpt><trkpt lat="39.6643514" lon="16.2141637"><ele>84.0</ele><time>2026-05-03T13:11:00.584Z</time></trkpt><trkpt lat="39.6646003" lon="16.2142016"><ele>84.0</ele><time>2026-05-03T13:11:01.602Z</time></trkpt><trkpt lat="39.664848" lon="16.2142452"><ele>84.0</ele><time>2026-05-03T13:11:02.601Z</time></trkpt><trkpt lat="39.6650975" lon="16.2142958"><ele>84.0</ele><time>2026-05-03T13:11:03.593Z</time></trkpt><trkpt lat="39.6653441" lon="16.2143517"><ele>84.0</ele><time>2026-05-03T13:11:04.599Z</time></trkpt><trkpt lat="39.6655898" lon="16.2144182"><ele>84.0</ele><time>2026-05-03T13:11:05.591Z</time></trkpt><trkpt lat="39.6658305" lon="16.2144865"><ele>84.0</ele><time>2026-05-03T13:11:06.596Z</time></trkpt><trkpt lat="39.6660714" lon="16.214556"><ele>84.0</ele><time>2026-05-03T13:11:07.58Z</time></trkpt><trkpt lat="39.6663118" lon="16.2146339"><ele>84.5</ele><time>2026-05-03T13:11:08.576Z</time></trkpt><trkpt lat="39.6665511" lon="16.2147064"><ele>85.0</ele><time>2026-05-03T13:11:09.592Z</time></trkpt><trkpt lat="39.6667929" lon="16.2147852"><ele>86.0</ele><time>2026-05-03T13:11:10.599Z</time></trkpt><trkpt lat="39.6670342" lon="16.2148675"><ele>87.0</ele><time>2026-05-03T13:11:11.581Z</time></trkpt><trkpt lat="39.6672763" lon="16.2149501"><ele>87.0</ele><time>2026-05-03T13:11:12.574Z</time></trkpt><trkpt lat="39.6675189" lon="16.2150348"><ele>87.0</ele><time>2026-05-03T13:11:13.564Z</time></trkpt><trkpt lat="39.6677633" lon="16.2151177"><ele>86.5</ele><time>2026-05-03T13:11:14.595Z</time></trkpt><trkpt lat="39.6680107" lon="16.2151987"><ele>86.0</ele><time>2026-05-03T13:11:15.61Z</time></trkpt><trkpt lat="39.6682603" lon="16.215275"><ele>86.0</ele><time>2026-05-03T13:11:16.585Z</time></trkpt><trkpt lat="39.6685088" lon="16.2153551"><ele>86.0</ele><time>2026-05-03T13:11:17.597Z</time></trkpt><trkpt lat="39.6687593" lon="16.2154367"><ele>86.0</ele><time>2026-05-03T13:11:18.584Z</time></trkpt><trkpt lat="39.6690106" lon="16.2155145"><ele>86.0</ele><time>2026-05-03T13:11:19.607Z</time></trkpt><trkpt lat="39.6692632" lon="16.2155875"><ele>86.5</ele><time>2026-05-03T13:11:20.586Z</time></trkpt><trkpt lat="39.6695107" lon="16.2156755"><ele>87.0</ele><time>2026-05-03T13:11:21.598Z</time></trkpt><trkpt lat="39.6697617" lon="16.215766"><ele>87.0</ele><time>2026-05-03T13:11:22.592Z</time></trkpt><trkpt lat="39.6700098" lon="16.2158533"><ele>87.0</ele><time>2026-05-03T13:11:23.605Z</time></trkpt><trkpt lat="39.6702621" lon="16.2159425"><ele>87.5</ele><time>2026-05-03T13:11:24.601Z</time></trkpt><trkpt lat="39.670513" lon="16.2160242"><ele>88.0</ele><time>2026-05-03T13:11:25.582Z</time></trkpt><trkpt lat="39.6707668" lon="16.2161018"><ele>88.0</ele><time>2026-05-03T13:11:26.601Z</time></trkpt><trkpt lat="39.6710197" lon="16.2161807"><ele>88.0</ele><time>2026-05-03T13:11:27.588Z</time></trkpt><trkpt lat="39.6712692" lon="16.2162672"><ele>89.0</ele><time>2026-05-03T13:11:28.602Z</time></trkpt><trkpt lat="39.6715219" lon="16.2163463"><ele>90.0</ele><time>2026-05-03T13:11:29.593Z</time></trkpt><trkpt lat="39.6717754" lon="16.2164354"><ele>90.0</ele><time>2026-05-03T13:11:30.593Z</time></trkpt><trkpt lat="39.6720279" lon="16.2165204"><ele>90.0</ele><time>2026-05-03T13:11:31.601Z</time></trkpt><trkpt lat="39.6722797" lon="16.2166032"><ele>90.0</ele><time>2026-05-03T13:11:32.599Z</time></trkpt><trkpt lat="39.6725301" lon="16.2166873"><ele>90.0</ele><time>2026-05-03T13:11:33.597Z</time></trkpt><trkpt lat="39.6727799" lon="16.2167748"><ele>91.0</ele><time>2026-05-03T13:11:34.618Z</time></trkpt><trkpt lat="39.6730338" lon="16.2168608"><ele>92.0</ele><time>2026-05-03T13:11:35.605Z</time></trkpt><trkpt lat="39.6732851" lon="16.2169473"><ele>92.0</ele><time>2026-05-03T13:11:36.597Z</time></trkpt><trkpt lat="39.673539" lon="16.217029"><ele>92.0</ele><time>2026-05-03T13:11:37.589Z</time></trkpt><trkpt lat="39.6737934" lon="16.2171116"><ele>92.0</ele><time>2026-05-03T13:11:38.583Z</time></trkpt><trkpt lat="39.6740443" lon="16.2171947"><ele>92.0</ele><time>2026-05-03T13:11:39.568Z</time></trkpt><trkpt lat="39.6742986" lon="16.2172775"><ele>92.0</ele><time>2026-05-03T13:11:40.579Z</time></trkpt><trkpt lat="39.6745506" lon="16.2173606"><ele>92.0</ele><time>2026-05-03T13:11:41.593Z</time></trkpt><trkpt lat="39.6748012" lon="16.217447"><ele>92.0</ele><time>2026-05-03T13:11:42.608Z</time></trkpt><trkpt lat="39.6750521" lon="16.2175296"><ele>92.0</ele><time>2026-05-03T13:11:43.595Z</time></trkpt><trkpt lat="39.6753041" lon="16.2176091"><ele>93.0</ele><time>2026-05-03T13:11:44.597Z</time></trkpt><trkpt lat="39.67556" lon="16.2176917"><ele>94.0</ele><time>2026-05-03T13:11:45.597Z</time></trkpt><trkpt lat="39.6758142" lon="16.2177715"><ele>94.0</ele><time>2026-05-03T13:11:46.591Z</time></trkpt><trkpt lat="39.6760684" lon="16.2178542"><ele>94.0</ele><time>2026-05-03T13:11:47.607Z</time></trkpt><trkpt lat="39.6763215" lon="16.2179393"><ele>94.0</ele><time>2026-05-03T13:11:48.588Z</time></trkpt><trkpt lat="39.6765764" lon="16.2180237"><ele>94.0</ele><time>2026-05-03T13:11:49.574Z</time></trkpt><trkpt lat="39.6768306" lon="16.218107"><ele>93.5</ele><time>2026-05-03T13:11:50.588Z</time></trkpt><trkpt lat="39.6770842" lon="16.2181928"><ele>93.0</ele><time>2026-05-03T13:11:51.593Z</time></trkpt><trkpt lat="39.6773399" lon="16.218278"><ele>93.0</ele><time>2026-05-03T13:11:52.61Z</time></trkpt><trkpt lat="39.6775985" lon="16.2183631"><ele>93.0</ele><time>2026-05-03T13:11:53.602Z</time></trkpt><trkpt lat="39.6778581" lon="16.2184516"><ele>93.0</ele><time>2026-05-03T13:11:54.591Z</time></trkpt><trkpt lat="39.6781173" lon="16.2185379"><ele>93.0</ele><time>2026-05-03T13:11:55.594Z</time></trkpt><trkpt lat="39.6783762" lon="16.2186278"><ele>92.5</ele><time>2026-05-03T13:11:56.588Z</time></trkpt><trkpt lat="39.6786361" lon="16.218721"><ele>92.0</ele><time>2026-05-03T13:11:57.589Z</time></trkpt><trkpt lat="39.6788969" lon="16.2188201"><ele>92.0</ele><time>2026-05-03T13:11:58.601Z</time></trkpt><trkpt lat="39.679155" lon="16.2189287"><ele>92.0</ele><time>2026-05-03T13:11:59.59Z</time></trkpt><trkpt lat="39.6794154" lon="16.2190432"><ele>92.5</ele><time>2026-05-03T13:12:00.597Z</time></trkpt><trkpt lat="39.6796769" lon="16.219166"><ele>93.0</ele><time>2026-05-03T13:12:01.6Z</time></trkpt><trkpt lat="39.6799365" lon="16.2192929"><ele>93.0</ele><time>2026-05-03T13:12:02.601Z</time></trkpt><trkpt lat="39.6801951" lon="16.2194208"><ele>93.0</ele><time>2026-05-03T13:12:03.601Z</time></trkpt><trkpt lat="39.6804525" lon="16.2195596"><ele>92.0</ele><time>2026-05-03T13:12:04.598Z</time></trkpt><trkpt lat="39.6807093" lon="16.2197099"><ele>91.0</ele><time>2026-05-03T13:12:05.6Z</time></trkpt><trkpt lat="39.6809599" lon="16.2198704"><ele>90.5</ele><time>2026-05-03T13:12:06.596Z</time></trkpt><trkpt lat="39.6812097" lon="16.2200463"><ele>90.0</ele><time>2026-05-03T13:12:07.607Z</time></trkpt><trkpt lat="39.6814586" lon="16.2202258"><ele>90.0</ele><time>2026-05-03T13:12:08.604Z</time></trkpt><trkpt lat="39.6817064" lon="16.2204107"><ele>90.0</ele><time>2026-05-03T13:12:09.586Z</time></trkpt><trkpt lat="39.6819476" lon="16.2206088"><ele>90.0</ele><time>2026-05-03T13:12:10.598Z</time></trkpt><trkpt lat="39.6821876" lon="16.2208121"><ele>90.0</ele><time>2026-05-03T13:12:11.58Z</time></trkpt><trkpt lat="39.6824254" lon="16.2210234"><ele>90.0</ele><time>2026-05-03T13:12:12.599Z</time></trkpt><trkpt lat="39.6826613" lon="16.2212431"><ele>90.0</ele><time>2026-05-03T13:12:13.596Z</time></trkpt><trkpt lat="39.6828931" lon="16.2214726"><ele>90.0</ele><time>2026-05-03T13:12:14.591Z</time></trkpt><trkpt lat="39.6831208" lon="16.221713"><ele>90.0</ele><time>2026-05-03T13:12:15.593Z</time></trkpt><trkpt lat="39.6833472" lon="16.2219603"><ele>90.0</ele><time>2026-05-03T13:12:16.605Z</time></trkpt><trkpt lat="39.6835687" lon="16.2222121"><ele>90.0</ele><time>2026-05-03T13:12:17.601Z</time></trkpt><trkpt lat="39.6837907" lon="16.2224703"><ele>89.5</ele><time>2026-05-03T13:12:18.593Z</time></trkpt><trkpt lat="39.6840064" lon="16.2227348"><ele>89.0</ele><time>2026-05-03T13:12:19.565Z</time></trkpt><trkpt lat="39.6842217" lon="16.2230044"><ele>89.5</ele><time>2026-05-03T13:12:20.592Z</time></trkpt><trkpt lat="39.6844375" lon="16.2232788"><ele>90.0</ele><time>2026-05-03T13:12:21.572Z</time></trkpt><trkpt lat="39.6846568" lon="16.2235478"><ele>90.0</ele><time>2026-05-03T13:12:22.585Z</time></trkpt><trkpt lat="39.6848758" lon="16.2238197"><ele>90.0</ele><time>2026-05-03T13:12:23.583Z</time></trkpt><trkpt lat="39.6850935" lon="16.2240943"><ele>90.5</ele><time>2026-05-03T13:12:24.591Z</time></trkpt><trkpt lat="39.6853138" lon="16.2243669"><ele>91.0</ele><time>2026-05-03T13:12:25.586Z</time></trkpt><trkpt lat="39.685532" lon="16.2246402"><ele>92.0</ele><time>2026-05-03T13:12:26.587Z</time></trkpt><trkpt lat="39.685752" lon="16.2249177"><ele>93.0</ele><time>2026-05-03T13:12:27.582Z</time></trkpt><trkpt lat="39.6859709" lon="16.2251862"><ele>93.0</ele><time>2026-05-03T13:12:28.575Z</time></trkpt><trkpt lat="39.6861897" lon="16.2254564"><ele>93.0</ele><time>2026-05-03T13:12:29.611Z</time></trkpt><trkpt lat="39.686408" lon="16.2257242"><ele>94.0</ele><time>2026-05-03T13:12:30.583Z</time></trkpt><trkpt lat="39.6866277" lon="16.2259923"><ele>95.0</ele><time>2026-05-03T13:12:31.581Z</time></trkpt><trkpt lat="39.6868439" lon="16.2262616"><ele>96.5</ele><time>2026-05-03T13:12:32.58Z</time></trkpt><trkpt lat="39.6870587" lon="16.2265317"><ele>98.0</ele><time>2026-05-03T13:12:33.576Z</time></trkpt><trkpt lat="39.6872716" lon="16.2268011"><ele>98.0</ele><time>2026-05-03T13:12:34.576Z</time></trkpt><trkpt lat="39.6874756" lon="16.2270771"><ele>98.0</ele><time>2026-05-03T13:12:35.576Z</time></trkpt><trkpt lat="39.6876762" lon="16.2273546"><ele>97.5</ele><time>2026-05-03T13:12:36.597Z</time></trkpt><trkpt lat="39.6878749" lon="16.2276318"><ele>97.0</ele><time>2026-05-03T13:12:37.575Z</time></trkpt><trkpt lat="39.6880731" lon="16.2279084"><ele>98.0</ele><time>2026-05-03T13:12:38.574Z</time></trkpt><trkpt lat="39.6882676" lon="16.228191"><ele>99.0</ele><time>2026-05-03T13:12:39.564Z</time></trkpt><trkpt lat="39.6884613" lon="16.2284714"><ele>99.0</ele><time>2026-05-03T13:12:40.609Z</time></trkpt><trkpt lat="39.6886585" lon="16.2287482"><ele>99.0</ele><time>2026-05-03T13:12:41.592Z</time></trkpt><trkpt lat="39.6888536" lon="16.2290185"><ele>99.0</ele><time>2026-05-03T13:12:42.588Z</time></trkpt><trkpt lat="39.6890459" lon="16.2292879"><ele>99.0</ele><time>2026-05-03T13:12:43.592Z</time></trkpt><trkpt lat="39.6892306" lon="16.2295536"><ele>99.0</ele><time>2026-05-03T13:12:44.599Z</time></trkpt><trkpt lat="39.6894161" lon="16.2298184"><ele>99.0</ele><time>2026-05-03T13:12:45.595Z</time></trkpt><trkpt lat="39.6895981" lon="16.2300809"><ele>99.0</ele><time>2026-05-03T13:12:46.584Z</time></trkpt><trkpt lat="39.6897815" lon="16.2303345"><ele>99.0</ele><time>2026-05-03T13:12:47.593Z</time></trkpt><trkpt lat="39.6899616" lon="16.2305889"><ele>98.0</ele><time>2026-05-03T13:12:48.587Z</time></trkpt><trkpt lat="39.6901432" lon="16.2308451"><ele>97.0</ele><time>2026-05-03T13:12:49.577Z</time></trkpt><trkpt lat="39.6903231" lon="16.2310919"><ele>97.0</ele><time>2026-05-03T13:12:50.6Z</time></trkpt><trkpt lat="39.6905031" lon="16.2313421"><ele>97.0</ele><time>2026-05-03T13:12:51.584Z</time></trkpt><trkpt lat="39.6906767" lon="16.2315899"><ele>97.5</ele><time>2026-05-03T13:12:52.573Z</time></trkpt><trkpt lat="39.6908533" lon="16.2318372"><ele>98.0</ele><time>2026-05-03T13:12:53.575Z</time></trkpt><trkpt lat="39.6910317" lon="16.2320872"><ele>96.0</ele><time>2026-05-03T13:12:54.584Z</time></trkpt><trkpt lat="39.6912061" lon="16.2323382"><ele>94.0</ele><time>2026-05-03T13:12:55.597Z</time></trkpt><trkpt lat="39.6913821" lon="16.2325881"><ele>94.0</ele><time>2026-05-03T13:12:56.601Z</time></trkpt><trkpt lat="39.6915584" lon="16.232835"><ele>94.0</ele><time>2026-05-03T13:12:57.581Z</time></trkpt><trkpt lat="39.6917369" lon="16.2330835"><ele>93.0</ele><time>2026-05-03T13:12:58.586Z</time></trkpt><trkpt lat="39.6919166" lon="16.2333307"><ele>92.0</ele><time>2026-05-03T13:12:59.594Z</time></trkpt><trkpt lat="39.6920954" lon="16.2335793"><ele>92.0</ele><time>2026-05-03T13:13:00.595Z</time></trkpt><trkpt lat="39.6922728" lon="16.2338257"><ele>92.0</ele><time>2026-05-03T13:13:01.59Z</time></trkpt><trkpt lat="39.6924517" lon="16.2340701"><ele>91.5</ele><time>2026-05-03T13:13:02.579Z</time></trkpt><trkpt lat="39.6926319" lon="16.2343101"><ele>91.0</ele><time>2026-05-03T13:13:03.588Z</time></trkpt><trkpt lat="39.6928233" lon="16.2345489"><ele>91.0</ele><time>2026-05-03T13:13:04.573Z</time></trkpt><trkpt lat="39.693012" lon="16.2347827"><ele>91.0</ele><time>2026-05-03T13:13:05.573Z</time></trkpt><trkpt lat="39.6932058" lon="16.235013"><ele>90.5</ele><time>2026-05-03T13:13:06.575Z</time></trkpt><trkpt lat="39.6934018" lon="16.2352402"><ele>90.0</ele><time>2026-05-03T13:13:07.605Z</time></trkpt><trkpt lat="39.6936047" lon="16.2354615"><ele>91.5</ele><time>2026-05-03T13:13:08.59Z</time></trkpt><trkpt lat="39.6938163" lon="16.2356796"><ele>93.0</ele><time>2026-05-03T13:13:09.594Z</time></trkpt><trkpt lat="39.6940367" lon="16.2358973"><ele>93.0</ele><time>2026-05-03T13:13:10.568Z</time></trkpt><trkpt lat="39.6942554" lon="16.2361066"><ele>93.0</ele><time>2026-05-03T13:13:11.585Z</time></trkpt><trkpt lat="39.6944764" lon="16.2363099"><ele>93.0</ele><time>2026-05-03T13:13:12.588Z</time></trkpt><trkpt lat="39.6947065" lon="16.236511"><ele>93.0</ele><time>2026-05-03T13:13:13.579Z</time></trkpt><trkpt lat="39.694941" lon="16.2366994"><ele>93.0</ele><time>2026-05-03T13:13:14.58Z</time></trkpt><trkpt lat="39.6951784" lon="16.2368862"><ele>93.0</ele><time>2026-05-03T13:13:15.578Z</time></trkpt><trkpt lat="39.6954213" lon="16.237062"><ele>93.0</ele><time>2026-05-03T13:13:16.583Z</time></trkpt><trkpt lat="39.6956654" lon="16.2372321"><ele>93.0</ele><time>2026-05-03T13:13:17.58Z</time></trkpt><trkpt lat="39.6959153" lon="16.2373898"><ele>91.5</ele><time>2026-05-03T13:13:18.584Z</time></trkpt><trkpt lat="39.6961664" lon="16.2375447"><ele>90.0</ele><time>2026-05-03T13:13:19.578Z</time></trkpt><trkpt lat="39.6964227" lon="16.2376963"><ele>90.0</ele><time>2026-05-03T13:13:20.59Z</time></trkpt><trkpt lat="39.6966784" lon="16.2378475"><ele>90.0</ele><time>2026-05-03T13:13:21.582Z</time></trkpt><trkpt lat="39.6969321" lon="16.2380022"><ele>90.0</ele><time>2026-05-03T13:13:22.591Z</time></trkpt><trkpt lat="39.6971859" lon="16.2381566"><ele>90.0</ele><time>2026-05-03T13:13:23.594Z</time></trkpt><trkpt lat="39.6974401" lon="16.2383102"><ele>90.0</ele><time>2026-05-03T13:13:24.568Z</time></trkpt><trkpt lat="39.6976946" lon="16.2384655"><ele>90.0</ele><time>2026-05-03T13:13:25.591Z</time></trkpt><trkpt lat="39.6979476" lon="16.2386219"><ele>89.0</ele><time>2026-05-03T13:13:26.609Z</time></trkpt><trkpt lat="39.6982002" lon="16.2387768"><ele>88.0</ele><time>2026-05-03T13:13:27.596Z</time></trkpt><trkpt lat="39.6984568" lon="16.2389306"><ele>87.5</ele><time>2026-05-03T13:13:28.606Z</time></trkpt><trkpt lat="39.698712" lon="16.2390817"><ele>87.0</ele><time>2026-05-03T13:13:29.601Z</time></trkpt><trkpt lat="39.698969" lon="16.2392321"><ele>87.0</ele><time>2026-05-03T13:13:30.608Z</time></trkpt><trkpt lat="39.6992253" lon="16.2393829"><ele>87.0</ele><time>2026-05-03T13:13:31.556Z</time></trkpt><trkpt lat="39.6994795" lon="16.2395395"><ele>87.5</ele><time>2026-05-03T13:13:32.598Z</time></trkpt><trkpt lat="39.6997338" lon="16.239694"><ele>88.0</ele><time>2026-05-03T13:13:33.585Z</time></trkpt><trkpt lat="39.6999866" lon="16.2398404"><ele>88.0</ele><time>2026-05-03T13:13:34.589Z</time></trkpt><trkpt lat="39.7002379" lon="16.2399917"><ele>88.0</ele><time>2026-05-03T13:13:35.578Z</time></trkpt><trkpt lat="39.7004862" lon="16.2401422"><ele>88.5</ele><time>2026-05-03T13:13:36.583Z</time></trkpt><trkpt lat="39.7007347" lon="16.2402936"><ele>89.0</ele><time>2026-05-03T13:13:37.573Z</time></trkpt><trkpt lat="39.7009832" lon="16.240443"><ele>89.0</ele><time>2026-05-03T13:13:38.576Z</time></trkpt><trkpt lat="39.7012318" lon="16.2405903"><ele>89.0</ele><time>2026-05-03T13:13:39.616Z</time></trkpt><trkpt lat="39.7014812" lon="16.2407387"><ele>89.5</ele><time>2026-05-03T13:13:40.571Z</time></trkpt><trkpt lat="39.7017276" lon="16.2408871"><ele>90.0</ele><time>2026-05-03T13:13:41.575Z</time></trkpt><trkpt lat="39.7019763" lon="16.2410375"><ele>90.0</ele><time>2026-05-03T13:13:42.592Z</time></trkpt><trkpt lat="39.7022187" lon="16.2411815"><ele>90.0</ele><time>2026-05-03T13:13:43.581Z</time></trkpt><trkpt lat="39.7024618" lon="16.2413254"><ele>90.0</ele><time>2026-05-03T13:13:44.589Z</time></trkpt><trkpt lat="39.7027036" lon="16.2414694"><ele>90.0</ele><time>2026-05-03T13:13:45.601Z</time></trkpt><trkpt lat="39.7029464" lon="16.2416118"><ele>90.0</ele><time>2026-05-03T13:13:46.586Z</time></trkpt><trkpt lat="39.7031847" lon="16.2417626"><ele>90.0</ele><time>2026-05-03T13:13:47.583Z</time></trkpt><trkpt lat="39.7034251" lon="16.2419142"><ele>91.0</ele><time>2026-05-03T13:13:48.579Z</time></trkpt><trkpt lat="39.7036637" lon="16.2420612"><ele>92.0</ele><time>2026-05-03T13:13:49.588Z</time></trkpt><trkpt lat="39.7039032" lon="16.2422055"><ele>89.5</ele><time>2026-05-03T13:13:50.588Z</time></trkpt><trkpt lat="39.7041444" lon="16.2423462"><ele>87.0</ele><time>2026-05-03T13:13:51.594Z</time></trkpt><trkpt lat="39.704384" lon="16.2424836"><ele>89.5</ele><time>2026-05-03T13:13:52.575Z</time></trkpt><trkpt lat="39.7046187" lon="16.2426293"><ele>92.0</ele><time>2026-05-03T13:13:53.585Z</time></trkpt><trkpt lat="39.7048587" lon="16.2427675"><ele>92.0</ele><time>2026-05-03T13:13:54.601Z</time></trkpt><trkpt lat="39.7050986" lon="16.2429026"><ele>92.0</ele><time>2026-05-03T13:13:55.594Z</time></trkpt><trkpt lat="39.7053408" lon="16.2430302"><ele>92.5</ele><time>2026-05-03T13:13:56.589Z</time></trkpt><trkpt lat="39.7055831" lon="16.2431482"><ele>93.0</ele><time>2026-05-03T13:13:57.585Z</time></trkpt><trkpt lat="39.7058244" lon="16.2432677"><ele>93.0</ele><time>2026-05-03T13:13:58.591Z</time></trkpt><trkpt lat="39.7060709" lon="16.2433783"><ele>93.0</ele><time>2026-05-03T13:13:59.569Z</time></trkpt><trkpt lat="39.7063169" lon="16.2434893"><ele>95.5</ele><time>2026-05-03T13:14:00.597Z</time></trkpt><trkpt lat="39.7065699" lon="16.2435879"><ele>98.0</ele><time>2026-05-03T13:14:01.596Z</time></trkpt><trkpt lat="39.7068187" lon="16.2436746"><ele>99.0</ele><time>2026-05-03T13:14:02.598Z</time></trkpt><trkpt lat="39.7070746" lon="16.2437574"><ele>100.0</ele><time>2026-05-03T13:14:03.601Z</time></trkpt><trkpt lat="39.7073275" lon="16.2438327"><ele>100.0</ele><time>2026-05-03T13:14:04.599Z</time></trkpt><trkpt lat="39.7075819" lon="16.2438939"><ele>100.0</ele><time>2026-05-03T13:14:05.597Z</time></trkpt><trkpt lat="39.7078408" lon="16.2439563"><ele>99.5</ele><time>2026-05-03T13:14:06.605Z</time></trkpt><trkpt lat="39.7080984" lon="16.2440023"><ele>99.0</ele><time>2026-05-03T13:14:07.59Z</time></trkpt><trkpt lat="39.7083587" lon="16.2440456"><ele>98.0</ele><time>2026-05-03T13:14:08.6Z</time></trkpt><trkpt lat="39.7086198" lon="16.2440833"><ele>97.0</ele><time>2026-05-03T13:14:09.599Z</time></trkpt><trkpt lat="39.7088811" lon="16.2441108"><ele>97.0</ele><time>2026-05-03T13:14:10.593Z</time></trkpt><trkpt lat="39.7091436" lon="16.2441327"><ele>97.0</ele><time>2026-05-03T13:14:11.589Z</time></trkpt><trkpt lat="39.7094032" lon="16.2441489"><ele>96.5</ele><time>2026-05-03T13:14:12.607Z</time></trkpt><trkpt lat="39.7096662" lon="16.2441574"><ele>96.0</ele><time>2026-05-03T13:14:13.582Z</time></trkpt><trkpt lat="39.7099241" lon="16.2441537"><ele>96.0</ele><time>2026-05-03T13:14:14.6Z</time></trkpt><trkpt lat="39.710182" lon="16.2441439"><ele>96.0</ele><time>2026-05-03T13:14:15.591Z</time></trkpt><trkpt lat="39.7104444" lon="16.2441283"><ele>97.5</ele><time>2026-05-03T13:14:16.595Z</time></trkpt><trkpt lat="39.7106997" lon="16.2441093"><ele>99.0</ele><time>2026-05-03T13:14:17.603Z</time></trkpt><trkpt lat="39.710954" lon="16.2440832"><ele>97.0</ele><time>2026-05-03T13:14:18.577Z</time></trkpt><trkpt lat="39.7112097" lon="16.244046"><ele>95.0</ele><time>2026-05-03T13:14:19.566Z</time></trkpt><trkpt lat="39.7114624" lon="16.2439984"><ele>98.0</ele><time>2026-05-03T13:14:20.564Z</time></trkpt><trkpt lat="39.711717" lon="16.2439451"><ele>101.0</ele><time>2026-05-03T13:14:21.578Z</time></trkpt><trkpt lat="39.7119691" lon="16.2438856"><ele>94.5</ele><time>2026-05-03T13:14:22.583Z</time></trkpt><trkpt lat="39.7122213" lon="16.2438202"><ele>88.0</ele><time>2026-05-03T13:14:23.584Z</time></trkpt><trkpt lat="39.712472" lon="16.2437476"><ele>88.0</ele><time>2026-05-03T13:14:24.6Z</time></trkpt><trkpt lat="39.7127199" lon="16.2436749"><ele>88.0</ele><time>2026-05-03T13:14:25.59Z</time></trkpt><trkpt lat="39.712967" lon="16.2435889"><ele>90.0</ele><time>2026-05-03T13:14:26.6Z</time></trkpt><trkpt lat="39.7132108" lon="16.2434983"><ele>92.0</ele><time>2026-05-03T13:14:27.583Z</time></trkpt><trkpt lat="39.7134515" lon="16.2434009"><ele>95.0</ele><time>2026-05-03T13:14:28.599Z</time></trkpt><trkpt lat="39.7136916" lon="16.243297"><ele>98.0</ele><time>2026-05-03T13:14:29.581Z</time></trkpt><trkpt lat="39.7139309" lon="16.2431845"><ele>99.5</ele><time>2026-05-03T13:14:30.594Z</time></trkpt><trkpt lat="39.7141683" lon="16.2430674"><ele>101.0</ele><time>2026-05-03T13:14:31.596Z</time></trkpt><trkpt lat="39.7144055" lon="16.2429415"><ele>103.5</ele><time>2026-05-03T13:14:32.581Z</time></trkpt><trkpt lat="39.7146422" lon="16.2428131"><ele>106.0</ele><time>2026-05-03T13:14:33.595Z</time></trkpt><trkpt lat="39.7148816" lon="16.2426924"><ele>106.0</ele><time>2026-05-03T13:14:34.578Z</time></trkpt><trkpt lat="39.71512" lon="16.2425716"><ele>106.0</ele><time>2026-05-03T13:14:35.59Z</time></trkpt><trkpt lat="39.7153566" lon="16.2424475"><ele>106.0</ele><time>2026-05-03T13:14:36.594Z</time></trkpt><trkpt lat="39.7155929" lon="16.242322"><ele>106.0</ele><time>2026-05-03T13:14:37.595Z</time></trkpt><trkpt lat="39.7158309" lon="16.2421964"><ele>108.0</ele><time>2026-05-03T13:14:38.597Z</time></trkpt><trkpt lat="39.7160693" lon="16.2420742"><ele>110.0</ele><time>2026-05-03T13:14:39.593Z</time></trkpt><trkpt lat="39.716548" lon="16.241837"><ele>110.0</ele><time>2026-05-03T13:14:41.586Z</time></trkpt><trkpt lat="39.7167872" lon="16.2417127"><ele>110.0</ele><time>2026-05-03T13:14:42.602Z</time></trkpt><trkpt lat="39.7170218" lon="16.2415861"><ele>110.5</ele><time>2026-05-03T13:14:43.595Z</time></trkpt><trkpt lat="39.7172595" lon="16.2414615"><ele>111.0</ele><time>2026-05-03T13:14:44.578Z</time></trkpt><trkpt lat="39.7174953" lon="16.2413389"><ele>109.0</ele><time>2026-05-03T13:14:45.593Z</time></trkpt><trkpt lat="39.7177373" lon="16.2412166"><ele>107.0</ele><time>2026-05-03T13:14:46.58Z</time></trkpt><trkpt lat="39.7179792" lon="16.241094"><ele>107.0</ele><time>2026-05-03T13:14:47.597Z</time></trkpt><trkpt lat="39.7182209" lon="16.2409664"><ele>107.0</ele><time>2026-05-03T13:14:48.591Z</time></trkpt><trkpt lat="39.7184621" lon="16.2408343"><ele>107.0</ele><time>2026-05-03T13:14:49.599Z</time></trkpt><trkpt lat="39.7187082" lon="16.2407058"><ele>107.0</ele><time>2026-05-03T13:14:50.591Z</time></trkpt><trkpt lat="39.7189556" lon="16.2405733"><ele>107.0</ele><time>2026-05-03T13:14:51.595Z</time></trkpt><trkpt lat="39.7192087" lon="16.2404379"><ele>107.0</ele><time>2026-05-03T13:14:52.594Z</time></trkpt><trkpt lat="39.7194591" lon="16.2403034"><ele>107.5</ele><time>2026-05-03T13:14:53.587Z</time></trkpt><trkpt lat="39.7197042" lon="16.2401718"><ele>108.0</ele><time>2026-05-03T13:14:54.601Z</time></trkpt><trkpt lat="39.7199509" lon="16.2400472"><ele>108.0</ele><time>2026-05-03T13:14:55.596Z</time></trkpt><trkpt lat="39.7201959" lon="16.2399191"><ele>108.0</ele><time>2026-05-03T13:14:56.589Z</time></trkpt><trkpt lat="39.720445" lon="16.2397881"><ele>109.0</ele><time>2026-05-03T13:14:57.571Z</time></trkpt><trkpt lat="39.7209266" lon="16.2395294"><ele>108.0</ele><time>2026-05-03T13:14:59.605Z</time></trkpt><trkpt lat="39.7211718" lon="16.2394071"><ele>107.0</ele><time>2026-05-03T13:15:00.611Z</time></trkpt><trkpt lat="39.7214224" lon="16.2392766"><ele>107.0</ele><time>2026-05-03T13:15:01.568Z</time></trkpt><trkpt lat="39.7216707" lon="16.2391558"><ele>107.0</ele><time>2026-05-03T13:15:02.576Z</time></trkpt><trkpt lat="39.7219123" lon="16.2390337"><ele>107.0</ele><time>2026-05-03T13:15:03.578Z</time></trkpt><trkpt lat="39.7221564" lon="16.238905"><ele>107.0</ele><time>2026-05-03T13:15:04.592Z</time></trkpt><trkpt lat="39.7223998" lon="16.2387762"><ele>107.0</ele><time>2026-05-03T13:15:05.592Z</time></trkpt><trkpt lat="39.7226448" lon="16.2386481"><ele>107.0</ele><time>2026-05-03T13:15:06.582Z</time></trkpt><trkpt lat="39.7228872" lon="16.2385208"><ele>108.0</ele><time>2026-05-03T13:15:07.602Z</time></trkpt><trkpt lat="39.7231345" lon="16.2383937"><ele>109.0</ele><time>2026-05-03T13:15:08.604Z</time></trkpt><trkpt lat="39.7236275" lon="16.2381371"><ele>107.0</ele><time>2026-05-03T13:15:10.606Z</time></trkpt><trkpt lat="39.7238745" lon="16.2380118"><ele>105.0</ele><time>2026-05-03T13:15:11.599Z</time></trkpt><trkpt lat="39.7241226" lon="16.2378839"><ele>105.0</ele><time>2026-05-03T13:15:12.588Z</time></trkpt><trkpt lat="39.7243705" lon="16.2377521"><ele>105.0</ele><time>2026-05-03T13:15:13.599Z</time></trkpt><trkpt lat="39.7246196" lon="16.237619"><ele>105.0</ele><time>2026-05-03T13:15:14.594Z</time></trkpt><trkpt lat="39.72487" lon="16.2374841"><ele>105.0</ele><time>2026-05-03T13:15:15.573Z</time></trkpt><trkpt lat="39.7251198" lon="16.2373562"><ele>104.5</ele><time>2026-05-03T13:15:16.593Z</time></trkpt><trkpt lat="39.7253703" lon="16.2372252"><ele>104.0</ele><time>2026-05-03T13:15:17.603Z</time></trkpt><trkpt lat="39.7256217" lon="16.237096"><ele>104.0</ele><time>2026-05-03T13:15:18.591Z</time></trkpt><trkpt lat="39.7258737" lon="16.2369677"><ele>104.0</ele><time>2026-05-03T13:15:19.583Z</time></trkpt><trkpt lat="39.7261202" lon="16.2368322"><ele>103.0</ele><time>2026-05-03T13:15:20.602Z</time></trkpt><trkpt lat="39.726366" lon="16.2366953"><ele>102.0</ele><time>2026-05-03T13:15:21.598Z</time></trkpt><trkpt lat="39.7266112" lon="16.2365576"><ele>102.0</ele><time>2026-05-03T13:15:22.609Z</time></trkpt><trkpt lat="39.7268542" lon="16.2364272"><ele>102.0</ele><time>2026-05-03T13:15:23.604Z</time></trkpt><trkpt lat="39.7271005" lon="16.2362984"><ele>102.0</ele><time>2026-05-03T13:15:24.602Z</time></trkpt><trkpt lat="39.7273496" lon="16.236171"><ele>102.0</ele><time>2026-05-03T13:15:25.592Z</time></trkpt><trkpt lat="39.7275951" lon="16.2360423"><ele>101.0</ele><time>2026-05-03T13:15:26.607Z</time></trkpt><trkpt lat="39.7280856" lon="16.2357796"><ele>101.0</ele><time>2026-05-03T13:15:28.606Z</time></trkpt><trkpt lat="39.7283273" lon="16.2356443"><ele>101.0</ele><time>2026-05-03T13:15:29.606Z</time></trkpt><trkpt lat="39.7285664" lon="16.2355121"><ele>101.5</ele><time>2026-05-03T13:15:30.581Z</time></trkpt><trkpt lat="39.72881" lon="16.2353774"><ele>102.0</ele><time>2026-05-03T13:15:31.571Z</time></trkpt><trkpt lat="39.7290505" lon="16.2352458"><ele>102.0</ele><time>2026-05-03T13:15:32.583Z</time></trkpt><trkpt lat="39.7292862" lon="16.2351084"><ele>102.0</ele><time>2026-05-03T13:15:33.598Z</time></trkpt><trkpt lat="39.7295248" lon="16.234977"><ele>100.0</ele><time>2026-05-03T13:15:34.605Z</time></trkpt><trkpt lat="39.729763" lon="16.2348466"><ele>98.0</ele><time>2026-05-03T13:15:35.592Z</time></trkpt><trkpt lat="39.7300037" lon="16.2347194"><ele>98.0</ele><time>2026-05-03T13:15:36.585Z</time></trkpt><trkpt lat="39.7302431" lon="16.234592"><ele>98.0</ele><time>2026-05-03T13:15:37.619Z</time></trkpt><trkpt lat="39.7304816" lon="16.2344621"><ele>98.0</ele><time>2026-05-03T13:15:38.605Z</time></trkpt><trkpt lat="39.7307206" lon="16.2343344"><ele>98.0</ele><time>2026-05-03T13:15:39.595Z</time></trkpt><trkpt lat="39.7309607" lon="16.2342076"><ele>98.0</ele><time>2026-05-03T13:15:40.599Z</time></trkpt><trkpt lat="39.7312044" lon="16.2340822"><ele>98.0</ele><time>2026-05-03T13:15:41.596Z</time></trkpt><trkpt lat="39.7314453" lon="16.2339525"><ele>99.5</ele><time>2026-05-03T13:15:42.581Z</time></trkpt><trkpt lat="39.7316835" lon="16.2338151"><ele>101.0</ele><time>2026-05-03T13:15:43.61Z</time></trkpt><trkpt lat="39.7319227" lon="16.2336753"><ele>101.0</ele><time>2026-05-03T13:15:44.593Z</time></trkpt><trkpt lat="39.7323975" lon="16.2333929"><ele>101.0</ele><time>2026-05-03T13:15:46.598Z</time></trkpt><trkpt lat="39.7326418" lon="16.233272"><ele>101.0</ele><time>2026-05-03T13:15:47.589Z</time></trkpt><trkpt lat="39.7328887" lon="16.2331672"><ele>102.0</ele><time>2026-05-03T13:15:48.584Z</time></trkpt><trkpt lat="39.7331332" lon="16.2330541"><ele>103.0</ele><time>2026-05-03T13:15:49.601Z</time></trkpt><trkpt lat="39.7333716" lon="16.2329304"><ele>104.0</ele><time>2026-05-03T13:15:50.599Z</time></trkpt><trkpt lat="39.7336166" lon="16.2328287"><ele>105.0</ele><time>2026-05-03T13:15:51.589Z</time></trkpt><trkpt lat="39.7338668" lon="16.2327499"><ele>105.0</ele><time>2026-05-03T13:15:52.578Z</time></trkpt><trkpt lat="39.7341128" lon="16.2326641"><ele>105.0</ele><time>2026-05-03T13:15:53.568Z</time></trkpt><trkpt lat="39.734361" lon="16.2325709"><ele>105.0</ele><time>2026-05-03T13:15:54.578Z</time></trkpt><trkpt lat="39.7346143" lon="16.2325187"><ele>105.0</ele><time>2026-05-03T13:15:55.581Z</time></trkpt><trkpt lat="39.7348726" lon="16.2324741"><ele>105.0</ele><time>2026-05-03T13:15:56.597Z</time></trkpt><trkpt lat="39.7351265" lon="16.2324156"><ele>105.0</ele><time>2026-05-03T13:15:57.574Z</time></trkpt><trkpt lat="39.7353788" lon="16.2323586"><ele>104.0</ele><time>2026-05-03T13:15:58.598Z</time></trkpt><trkpt lat="39.7356379" lon="16.2323101"><ele>103.0</ele><time>2026-05-03T13:15:59.574Z</time></trkpt><trkpt lat="39.7358989" lon="16.2322732"><ele>107.0</ele><time>2026-05-03T13:16:00.592Z</time></trkpt><trkpt lat="39.7361592" lon="16.2322208"><ele>111.0</ele><time>2026-05-03T13:16:01.599Z</time></trkpt><trkpt lat="39.73667" lon="16.2320958"><ele>111.0</ele><time>2026-05-03T13:16:03.6Z</time></trkpt><trkpt lat="39.7369223" lon="16.2320321"><ele>111.0</ele><time>2026-05-03T13:16:04.605Z</time></trkpt><trkpt lat="39.7371728" lon="16.2319663"><ele>111.0</ele><time>2026-05-03T13:16:05.593Z</time></trkpt><trkpt lat="39.7374183" lon="16.2318879"><ele>111.0</ele><time>2026-05-03T13:16:06.611Z</time></trkpt><trkpt lat="39.7376635" lon="16.2317911"><ele>110.5</ele><time>2026-05-03T13:16:07.596Z</time></trkpt><trkpt lat="39.7379051" lon="16.2316884"><ele>110.0</ele><time>2026-05-03T13:16:08.598Z</time></trkpt><trkpt lat="39.7381431" lon="16.2315893"><ele>110.0</ele><time>2026-05-03T13:16:09.595Z</time></trkpt><trkpt lat="39.7383757" lon="16.2314785"><ele>110.0</ele><time>2026-05-03T13:16:10.612Z</time></trkpt><trkpt lat="39.738606" lon="16.231355"><ele>115.5</ele><time>2026-05-03T13:16:11.579Z</time></trkpt><trkpt lat="39.7388316" lon="16.2312242"><ele>121.0</ele><time>2026-05-03T13:16:12.591Z</time></trkpt><trkpt lat="39.739057" lon="16.2310897"><ele>121.0</ele><time>2026-05-03T13:16:13.601Z</time></trkpt><trkpt lat="39.7392806" lon="16.230948"><ele>121.0</ele><time>2026-05-03T13:16:14.604Z</time></trkpt><trkpt lat="39.7395024" lon="16.2307973"><ele>124.0</ele><time>2026-05-03T13:16:15.61Z</time></trkpt><trkpt lat="39.7397172" lon="16.2306316"><ele>127.0</ele><time>2026-05-03T13:16:16.598Z</time></trkpt><trkpt lat="39.7399256" lon="16.2304644"><ele>127.0</ele><time>2026-05-03T13:16:17.593Z</time></trkpt><trkpt lat="39.7401323" lon="16.2302929"><ele>127.0</ele><time>2026-05-03T13:16:18.59Z</time></trkpt><trkpt lat="39.7405445" lon="16.2299337"><ele>128.5</ele><time>2026-05-03T13:16:20.587Z</time></trkpt><trkpt lat="39.7407503" lon="16.229745"><ele>130.0</ele><time>2026-05-03T13:16:21.582Z</time></trkpt><trkpt lat="39.7409576" lon="16.2295585"><ele>125.0</ele><time>2026-05-03T13:16:22.601Z</time></trkpt><trkpt lat="39.7411654" lon="16.2293786"><ele>120.0</ele><time>2026-05-03T13:16:23.575Z</time></trkpt><trkpt lat="39.7413722" lon="16.2291957"><ele>120.0</ele><time>2026-05-03T13:16:24.574Z</time></trkpt><trkpt lat="39.7415847" lon="16.2290144"><ele>120.0</ele><time>2026-05-03T13:16:25.587Z</time></trkpt><trkpt lat="39.7417884" lon="16.228831"><ele>122.5</ele><time>2026-05-03T13:16:26.579Z</time></trkpt><trkpt lat="39.7419914" lon="16.2286478"><ele>125.0</ele><time>2026-05-03T13:16:27.584Z</time></trkpt><trkpt lat="39.7421951" lon="16.2284643"><ele>125.0</ele><time>2026-05-03T13:16:28.597Z</time></trkpt><trkpt lat="39.7423988" lon="16.2282837"><ele>125.0</ele><time>2026-05-03T13:16:29.598Z</time></trkpt><trkpt lat="39.7426008" lon="16.228101"><ele>129.5</ele><time>2026-05-03T13:16:30.598Z</time></trkpt><trkpt lat="39.742801" lon="16.2279209"><ele>134.0</ele><time>2026-05-03T13:16:31.589Z</time></trkpt><trkpt lat="39.7430005" lon="16.2277423"><ele>134.0</ele><time>2026-05-03T13:16:32.592Z</time></trkpt><trkpt lat="39.7431965" lon="16.2275677"><ele>134.0</ele><time>2026-05-03T13:16:33.582Z</time></trkpt><trkpt lat="39.7433944" lon="16.2273956"><ele>138.0</ele><time>2026-05-03T13:16:34.609Z</time></trkpt><trkpt lat="39.7435921" lon="16.2272224"><ele>142.0</ele><time>2026-05-03T13:16:35.594Z</time></trkpt><trkpt lat="39.7437894" lon="16.2270584"><ele>142.0</ele><time>2026-05-03T13:16:36.606Z</time></trkpt><trkpt lat="39.7441974" lon="16.2267699"><ele>140.0</ele><time>2026-05-03T13:16:38.594Z</time></trkpt><trkpt lat="39.7444051" lon="16.2266392"><ele>138.0</ele><time>2026-05-03T13:16:39.604Z</time></trkpt><trkpt lat="39.7446113" lon="16.2265101"><ele>144.0</ele><time>2026-05-03T13:16:40.595Z</time></trkpt><trkpt lat="39.7448214" lon="16.2263832"><ele>150.0</ele><time>2026-05-03T13:16:41.588Z</time></trkpt><trkpt lat="39.7450301" lon="16.226261"><ele>152.0</ele><time>2026-05-03T13:16:42.605Z</time></trkpt><trkpt lat="39.7452384" lon="16.226149"><ele>154.0</ele><time>2026-05-03T13:16:43.592Z</time></trkpt><trkpt lat="39.7454485" lon="16.2260419"><ele>154.0</ele><time>2026-05-03T13:16:44.603Z</time></trkpt><trkpt lat="39.7456654" lon="16.2259555"><ele>154.0</ele><time>2026-05-03T13:16:45.593Z</time></trkpt><trkpt lat="39.7458828" lon="16.2258763"><ele>150.0</ele><time>2026-05-03T13:16:46.605Z</time></trkpt><trkpt lat="39.7461" lon="16.2257944"><ele>146.0</ele><time>2026-05-03T13:16:47.604Z</time></trkpt><trkpt lat="39.7463199" lon="16.2257196"><ele>146.0</ele><time>2026-05-03T13:16:48.604Z</time></trkpt><trkpt lat="39.7465412" lon="16.2256515"><ele>146.0</ele><time>2026-05-03T13:16:49.595Z</time></trkpt><trkpt lat="39.7467644" lon="16.2255882"><ele>154.0</ele><time>2026-05-03T13:16:50.605Z</time></trkpt><trkpt lat="39.74699" lon="16.2255286"><ele>162.0</ele><time>2026-05-03T13:16:51.599Z</time></trkpt><trkpt lat="39.7472197" lon="16.2254768"><ele>162.0</ele><time>2026-05-03T13:16:52.566Z</time></trkpt><trkpt lat="39.7474468" lon="16.2254237"><ele>162.0</ele><time>2026-05-03T13:16:53.591Z</time></trkpt><trkpt lat="39.7476754" lon="16.2253614"><ele>167.0</ele><time>2026-05-03T13:16:54.596Z</time></trkpt><trkpt lat="39.7481397" lon="16.2252359"><ele>167.0</ele><time>2026-05-03T13:16:56.598Z</time></trkpt><trkpt lat="39.7483725" lon="16.2251788"><ele>167.0</ele><time>2026-05-03T13:16:57.603Z</time></trkpt><trkpt lat="39.7486089" lon="16.2251212"><ele>169.0</ele><time>2026-05-03T13:16:58.598Z</time></trkpt><trkpt lat="39.7488461" lon="16.2250593"><ele>171.0</ele><time>2026-05-03T13:16:59.59Z</time></trkpt><trkpt lat="39.7490855" lon="16.2250018"><ele>171.0</ele><time>2026-05-03T13:17:00.601Z</time></trkpt><trkpt lat="39.749323" lon="16.2249399"><ele>171.0</ele><time>2026-05-03T13:17:01.595Z</time></trkpt><trkpt lat="39.7495633" lon="16.2248796"><ele>170.0</ele><time>2026-05-03T13:17:02.624Z</time></trkpt><trkpt lat="39.7498037" lon="16.2248177"><ele>169.0</ele><time>2026-05-03T13:17:03.604Z</time></trkpt><trkpt lat="39.7500468" lon="16.2247599"><ele>175.0</ele><time>2026-05-03T13:17:04.608Z</time></trkpt><trkpt lat="39.7502895" lon="16.2247035"><ele>181.0</ele><time>2026-05-03T13:17:05.602Z</time></trkpt><trkpt lat="39.7505336" lon="16.2246424"><ele>181.0</ele><time>2026-05-03T13:17:06.594Z</time></trkpt><trkpt lat="39.7507755" lon="16.2245799"><ele>181.0</ele><time>2026-05-03T13:17:07.601Z</time></trkpt><trkpt lat="39.7510162" lon="16.2245154"><ele>179.5</ele><time>2026-05-03T13:17:08.605Z</time></trkpt><trkpt lat="39.7512589" lon="16.2244553"><ele>178.0</ele><time>2026-05-03T13:17:09.569Z</time></trkpt><trkpt lat="39.7515013" lon="16.2243898"><ele>178.0</ele><time>2026-05-03T13:17:10.612Z</time></trkpt><trkpt lat="39.751741" lon="16.2243274"><ele>178.0</ele><time>2026-05-03T13:17:11.592Z</time></trkpt><trkpt lat="39.7519809" lon="16.2242629"><ele>179.5</ele><time>2026-05-03T13:17:12.591Z</time></trkpt><trkpt lat="39.7522121" lon="16.2241947"><ele>181.0</ele><time>2026-05-03T13:17:13.582Z</time></trkpt><trkpt lat="39.7524447" lon="16.2241183"><ele>181.0</ele><time>2026-05-03T13:17:14.598Z</time></trkpt><trkpt lat="39.7526666" lon="16.2240234"><ele>181.0</ele><time>2026-05-03T13:17:15.606Z</time></trkpt><trkpt lat="39.752877" lon="16.2239032"><ele>187.5</ele><time>2026-05-03T13:17:16.599Z</time></trkpt><trkpt lat="39.7530816" lon="16.2237648"><ele>194.0</ele><time>2026-05-03T13:17:17.574Z</time></trkpt><trkpt lat="39.7532841" lon="16.2236108"><ele>194.0</ele><time>2026-05-03T13:17:18.577Z</time></trkpt><trkpt lat="39.7534652" lon="16.2234309"><ele>194.0</ele><time>2026-05-03T13:17:19.592Z</time></trkpt><trkpt lat="39.7536448" lon="16.2232422"><ele>196.5</ele><time>2026-05-03T13:17:20.579Z</time></trkpt><trkpt lat="39.7538138" lon="16.2230324"><ele>199.0</ele><time>2026-05-03T13:17:21.57Z</time></trkpt><trkpt lat="39.754131" lon="16.2225888"><ele>199.0</ele><time>2026-05-03T13:17:23.579Z</time></trkpt><trkpt lat="39.7542884" lon="16.2223655"><ele>199.0</ele><time>2026-05-03T13:17:24.579Z</time></trkpt><trkpt lat="39.7544497" lon="16.222142"><ele>201.0</ele><time>2026-05-03T13:17:25.577Z</time></trkpt><trkpt lat="39.7546173" lon="16.2219242"><ele>203.0</ele><time>2026-05-03T13:17:26.579Z</time></trkpt><trkpt lat="39.7547847" lon="16.2217172"><ele>203.0</ele><time>2026-05-03T13:17:27.581Z</time></trkpt><trkpt lat="39.7549599" lon="16.2215329"><ele>203.0</ele><time>2026-05-03T13:17:28.582Z</time></trkpt><trkpt lat="39.7551462" lon="16.2213696"><ele>203.66666666666669</ele><time>2026-05-03T13:17:29.576Z</time></trkpt><trkpt lat="39.755336" lon="16.2212126"><ele>204.33333333333331</ele><time>2026-05-03T13:17:30.585Z</time></trkpt><trkpt lat="39.7555329" lon="16.221078"><ele>205.0</ele><time>2026-05-03T13:17:31.577Z</time></trkpt><trkpt lat="39.7557453" lon="16.2209664"><ele>205.0</ele><time>2026-05-03T13:17:32.597Z</time></trkpt><trkpt lat="39.7559636" lon="16.2208764"><ele>205.0</ele><time>2026-05-03T13:17:33.588Z</time></trkpt><trkpt lat="39.7561842" lon="16.2208015"><ele>194.5</ele><time>2026-05-03T13:17:34.595Z</time></trkpt><trkpt lat="39.7564113" lon="16.2207436"><ele>184.0</ele><time>2026-05-03T13:17:35.566Z</time></trkpt><trkpt lat="39.7566425" lon="16.2207047"><ele>166.5</ele><time>2026-05-03T13:17:36.599Z</time></trkpt><trkpt lat="39.7568768" lon="16.2206861"><ele>149.0</ele><time>2026-05-03T13:17:37.59Z</time></trkpt><trkpt lat="39.7571154" lon="16.2206832"><ele>149.0</ele><time>2026-05-03T13:17:38.599Z</time></trkpt><trkpt lat="39.7573529" lon="16.2206808"><ele>149.0</ele><time>2026-05-03T13:17:39.611Z</time></trkpt><trkpt lat="39.7575902" lon="16.2206714"><ele>146.0</ele><time>2026-05-03T13:17:40.599Z</time></trkpt><trkpt lat="39.7578332" lon="16.2206511"><ele>143.0</ele><time>2026-05-03T13:17:41.602Z</time></trkpt><trkpt lat="39.7580769" lon="16.2206314"><ele>143.0</ele><time>2026-05-03T13:17:42.608Z</time></trkpt><trkpt lat="39.7583243" lon="16.2206143"><ele>143.0</ele><time>2026-05-03T13:17:43.599Z</time></trkpt><trkpt lat="39.7585771" lon="16.2205988"><ele>143.0</ele><time>2026-05-03T13:17:44.585Z</time></trkpt><trkpt lat="39.7588323" lon="16.2205785"><ele>143.0</ele><time>2026-05-03T13:17:45.581Z</time></trkpt><trkpt lat="39.7590863" lon="16.2205563"><ele>143.0</ele><time>2026-05-03T13:17:46.599Z</time></trkpt><trkpt lat="39.7593362" lon="16.2205328"><ele>143.0</ele><time>2026-05-03T13:17:47.597Z</time></trkpt><trkpt lat="39.7595831" lon="16.2205284"><ele>150.5</ele><time>2026-05-03T13:17:48.589Z</time></trkpt><trkpt lat="39.7598299" lon="16.2205191"><ele>158.0</ele><time>2026-05-03T13:17:49.593Z</time></trkpt><trkpt lat="39.7600756" lon="16.2205055"><ele>170.5</ele><time>2026-05-03T13:17:50.588Z</time></trkpt><trkpt lat="39.7603227" lon="16.2204928"><ele>183.0</ele><time>2026-05-03T13:17:51.594Z</time></trkpt><trkpt lat="39.7605693" lon="16.2204723"><ele>183.0</ele><time>2026-05-03T13:17:52.599Z</time></trkpt><trkpt lat="39.7608219" lon="16.2204512"><ele>183.0</ele><time>2026-05-03T13:17:53.597Z</time></trkpt><trkpt lat="39.761077" lon="16.2204469"><ele>192.5</ele><time>2026-05-03T13:17:54.601Z</time></trkpt><trkpt lat="39.7613348" lon="16.2204625"><ele>202.0</ele><time>2026-05-03T13:17:55.603Z</time></trkpt><trkpt lat="39.7615904" lon="16.2205052"><ele>202.0</ele><time>2026-05-03T13:17:56.596Z</time></trkpt><trkpt lat="39.7618427" lon="16.2205818"><ele>202.0</ele><time>2026-05-03T13:17:57.593Z</time></trkpt><trkpt lat="39.7623394" lon="16.2207852"><ele>209.0</ele><time>2026-05-03T13:17:59.59Z</time></trkpt><trkpt lat="39.7625818" lon="16.2209024"><ele>216.0</ele><time>2026-05-03T13:18:00.596Z</time></trkpt><trkpt lat="39.7628263" lon="16.2210219"><ele>225.0</ele><time>2026-05-03T13:18:01.604Z</time></trkpt><trkpt lat="39.7630659" lon="16.2211468"><ele>234.0</ele><time>2026-05-03T13:18:02.595Z</time></trkpt><trkpt lat="39.7633118" lon="16.2212692"><ele>236.5</ele><time>2026-05-03T13:18:03.602Z</time></trkpt><trkpt lat="39.7635551" lon="16.2213872"><ele>239.0</ele><time>2026-05-03T13:18:04.591Z</time></trkpt><trkpt lat="39.7637981" lon="16.2215049"><ele>239.0</ele><time>2026-05-03T13:18:05.6Z</time></trkpt><trkpt lat="39.7640437" lon="16.2216207"><ele>239.0</ele><time>2026-05-03T13:18:06.595Z</time></trkpt><trkpt lat="39.7642861" lon="16.2217407"><ele>245.0</ele><time>2026-05-03T13:18:07.586Z</time></trkpt><trkpt lat="39.7645295" lon="16.2218628"><ele>251.0</ele><time>2026-05-03T13:18:08.566Z</time></trkpt><trkpt lat="39.7647762" lon="16.2219889"><ele>251.0</ele><time>2026-05-03T13:18:09.557Z</time></trkpt><trkpt lat="39.7650246" lon="16.2221097"><ele>251.0</ele><time>2026-05-03T13:18:10.577Z</time></trkpt><trkpt lat="39.7652728" lon="16.2222322"><ele>245.0</ele><time>2026-05-03T13:18:11.576Z</time></trkpt><trkpt lat="39.7655165" lon="16.2223567"><ele>239.0</ele><time>2026-05-03T13:18:12.607Z</time></trkpt><trkpt lat="39.7657637" lon="16.2224831"><ele>239.0</ele><time>2026-05-03T13:18:13.583Z</time></trkpt><trkpt lat="39.7660113" lon="16.2226047"><ele>239.0</ele><time>2026-05-03T13:18:14.592Z</time></trkpt><trkpt lat="39.766254" lon="16.2227226"><ele>241.0</ele><time>2026-05-03T13:18:15.597Z</time></trkpt><trkpt lat="39.7664925" lon="16.2228387"><ele>243.0</ele><time>2026-05-03T13:18:16.587Z</time></trkpt><trkpt lat="39.7667287" lon="16.22296"><ele>235.5</ele><time>2026-05-03T13:18:17.582Z</time></trkpt><trkpt lat="39.7669656" lon="16.2230827"><ele>228.0</ele><time>2026-05-03T13:18:18.598Z</time></trkpt><trkpt lat="39.7672054" lon="16.2232033"><ele>228.0</ele><time>2026-05-03T13:18:19.6Z</time></trkpt><trkpt lat="39.7674361" lon="16.2233193"><ele>228.0</ele><time>2026-05-03T13:18:20.588Z</time></trkpt><trkpt lat="39.7676635" lon="16.2234324"><ele>240.5</ele><time>2026-05-03T13:18:21.581Z</time></trkpt><trkpt lat="39.7678945" lon="16.223548"><ele>253.0</ele><time>2026-05-03T13:18:22.598Z</time></trkpt><trkpt lat="39.7681256" lon="16.2236477"><ele>253.0</ele><time>2026-05-03T13:18:23.594Z</time></trkpt><trkpt lat="39.7683629" lon="16.2237405"><ele>253.0</ele><time>2026-05-03T13:18:24.61Z</time></trkpt><trkpt lat="39.7686022" lon="16.2238374"><ele>255.5</ele><time>2026-05-03T13:18:25.594Z</time></trkpt><trkpt lat="39.7688472" lon="16.2239171"><ele>258.0</ele><time>2026-05-03T13:18:26.596Z</time></trkpt><trkpt lat="39.7690919" lon="16.223994"><ele>258.0</ele><time>2026-05-03T13:18:27.607Z</time></trkpt><trkpt lat="39.7693401" lon="16.2240577"><ele>258.0</ele><time>2026-05-03T13:18:28.588Z</time></trkpt><trkpt lat="39.7695901" lon="16.2241159"><ele>260.5</ele><time>2026-05-03T13:18:29.604Z</time></trkpt><trkpt lat="39.7698402" lon="16.2241668"><ele>263.0</ele><time>2026-05-03T13:18:30.599Z</time></trkpt><trkpt lat="39.7700962" lon="16.2242108"><ele>265.0</ele><time>2026-05-03T13:18:31.613Z</time></trkpt><trkpt lat="39.7706083" lon="16.2242617"><ele>265.0</ele><time>2026-05-03T13:18:33.592Z</time></trkpt><trkpt lat="39.7708632" lon="16.2242782"><ele>265.0</ele><time>2026-05-03T13:18:34.6Z</time></trkpt><trkpt lat="39.7711265" lon="16.2242774"><ele>266.0</ele><time>2026-05-03T13:18:35.594Z</time></trkpt><trkpt lat="39.7713887" lon="16.2242637"><ele>267.0</ele><time>2026-05-03T13:18:36.6Z</time></trkpt><trkpt lat="39.771644" lon="16.2242419"><ele>268.0</ele><time>2026-05-03T13:18:37.591Z</time></trkpt><trkpt lat="39.7719018" lon="16.2242138"><ele>269.0</ele><time>2026-05-03T13:18:38.595Z</time></trkpt><trkpt lat="39.7721583" lon="16.2241782"><ele>269.0</ele><time>2026-05-03T13:18:39.593Z</time></trkpt><trkpt lat="39.7724103" lon="16.224138"><ele>269.0</ele><time>2026-05-03T13:18:40.604Z</time></trkpt><trkpt lat="39.7726628" lon="16.2240781"><ele>269.0</ele><time>2026-05-03T13:18:41.595Z</time></trkpt><trkpt lat="39.7729152" lon="16.2240132"><ele>269.0</ele><time>2026-05-03T13:18:42.591Z</time></trkpt><trkpt lat="39.7734147" lon="16.223869"><ele>268.0</ele><time>2026-05-03T13:18:44.577Z</time></trkpt><trkpt lat="39.7736633" lon="16.2237933"><ele>267.0</ele><time>2026-05-03T13:18:45.607Z</time></trkpt><trkpt lat="39.7739122" lon="16.2237168"><ele>267.0</ele><time>2026-05-03T13:18:46.594Z</time></trkpt><trkpt lat="39.7741579" lon="16.2236397"><ele>267.0</ele><time>2026-05-03T13:18:47.575Z</time></trkpt><trkpt lat="39.7744064" lon="16.2235574"><ele>260.5</ele><time>2026-05-03T13:18:48.601Z</time></trkpt><trkpt lat="39.7746491" lon="16.2234779"><ele>254.0</ele><time>2026-05-03T13:18:49.605Z</time></trkpt><trkpt lat="39.7748867" lon="16.2234095"><ele>254.0</ele><time>2026-05-03T13:18:50.608Z</time></trkpt><trkpt lat="39.7751106" lon="16.2233404"><ele>254.0</ele><time>2026-05-03T13:18:51.59Z</time></trkpt><trkpt lat="39.7753355" lon="16.2232811"><ele>258.0</ele><time>2026-05-03T13:18:52.593Z</time></trkpt><trkpt lat="39.7755624" lon="16.2232122"><ele>262.0</ele><time>2026-05-03T13:18:53.587Z</time></trkpt><trkpt lat="39.7760237" lon="16.2230887"><ele>266.0</ele><time>2026-05-03T13:18:55.575Z</time></trkpt><trkpt lat="39.7762614" lon="16.2230429"><ele>270.0</ele><time>2026-05-03T13:18:56.585Z</time></trkpt><trkpt lat="39.7765028" lon="16.2230101"><ele>270.0</ele><time>2026-05-03T13:18:57.6Z</time></trkpt><trkpt lat="39.7767442" lon="16.2229914"><ele>270.0</ele><time>2026-05-03T13:18:58.599Z</time></trkpt><trkpt lat="39.7769873" lon="16.2229877"><ele>271.0</ele><time>2026-05-03T13:18:59.599Z</time></trkpt><trkpt lat="39.7772333" lon="16.2229942"><ele>272.0</ele><time>2026-05-03T13:19:00.596Z</time></trkpt><trkpt lat="39.7774805" lon="16.2230131"><ele>271.0</ele><time>2026-05-03T13:19:01.569Z</time></trkpt><trkpt lat="39.7777256" lon="16.2230407"><ele>270.0</ele><time>2026-05-03T13:19:02.584Z</time></trkpt><trkpt lat="39.7779743" lon="16.2230774"><ele>270.0</ele><time>2026-05-03T13:19:03.582Z</time></trkpt><trkpt lat="39.7782223" lon="16.2231231"><ele>270.0</ele><time>2026-05-03T13:19:04.59Z</time></trkpt><trkpt lat="39.7784681" lon="16.2231851"><ele>255.5</ele><time>2026-05-03T13:19:05.607Z</time></trkpt><trkpt lat="39.7787144" lon="16.2232563"><ele>241.0</ele><time>2026-05-03T13:19:06.589Z</time></trkpt><trkpt lat="39.7789595" lon="16.2233387"><ele>241.0</ele><time>2026-05-03T13:19:07.587Z</time></trkpt><trkpt lat="39.7792071" lon="16.2234268"><ele>241.0</ele><time>2026-05-03T13:19:08.595Z</time></trkpt><trkpt lat="39.7794515" lon="16.2235199"><ele>233.0</ele><time>2026-05-03T13:19:09.588Z</time></trkpt><trkpt lat="39.7796937" lon="16.2236138"><ele>225.0</ele><time>2026-05-03T13:19:10.595Z</time></trkpt><trkpt lat="39.779929" lon="16.2237025"><ele>189.0</ele><time>2026-05-03T13:19:11.58Z</time></trkpt><trkpt lat="39.7803989" lon="16.223882"><ele>189.0</ele><time>2026-05-03T13:19:13.595Z</time></trkpt><trkpt lat="39.7806323" lon="16.223974"><ele>189.0</ele><time>2026-05-03T13:19:14.605Z</time></trkpt><trkpt lat="39.7808638" lon="16.2240655"><ele>184.0</ele><time>2026-05-03T13:19:15.602Z</time></trkpt><trkpt lat="39.7810903" lon="16.2241618"><ele>179.0</ele><time>2026-05-03T13:19:16.564Z</time></trkpt><trkpt lat="39.7813166" lon="16.2242523"><ele>179.0</ele><time>2026-05-03T13:19:17.583Z</time></trkpt><trkpt lat="39.7815411" lon="16.2243403"><ele>179.0</ele><time>2026-05-03T13:19:18.58Z</time></trkpt><trkpt lat="39.781763" lon="16.2244237"><ele>196.0</ele><time>2026-05-03T13:19:19.584Z</time></trkpt><trkpt lat="39.7819849" lon="16.2245035"><ele>213.0</ele><time>2026-05-03T13:19:20.59Z</time></trkpt><trkpt lat="39.7822051" lon="16.2245859"><ele>213.0</ele><time>2026-05-03T13:19:21.572Z</time></trkpt><trkpt lat="39.7824227" lon="16.2246749"><ele>213.0</ele><time>2026-05-03T13:19:22.58Z</time></trkpt><trkpt lat="39.7826421" lon="16.2247521"><ele>239.5</ele><time>2026-05-03T13:19:23.557Z</time></trkpt><trkpt lat="39.7828622" lon="16.224833"><ele>266.0</ele><time>2026-05-03T13:19:24.578Z</time></trkpt><trkpt lat="39.7830808" lon="16.2249164"><ele>266.0</ele><time>2026-05-03T13:19:25.588Z</time></trkpt><trkpt lat="39.7833028" lon="16.2249998"><ele>266.0</ele><time>2026-05-03T13:19:26.573Z</time></trkpt><trkpt lat="39.7835274" lon="16.2250738"><ele>283.5</ele><time>2026-05-03T13:19:27.567Z</time></trkpt><trkpt lat="39.7837489" lon="16.2251606"><ele>301.0</ele><time>2026-05-03T13:19:28.583Z</time></trkpt><trkpt lat="39.7839737" lon="16.2252476"><ele>301.0</ele><time>2026-05-03T13:19:29.566Z</time></trkpt><trkpt lat="39.784194" lon="16.2253338"><ele>301.0</ele><time>2026-05-03T13:19:30.573Z</time></trkpt><trkpt lat="39.7844177" lon="16.2254215"><ele>305.5</ele><time>2026-05-03T13:19:31.566Z</time></trkpt><trkpt lat="39.7846439" lon="16.2255043"><ele>310.0</ele><time>2026-05-03T13:19:32.591Z</time></trkpt><trkpt lat="39.7848741" lon="16.2255831"><ele>309.0</ele><time>2026-05-03T13:19:33.585Z</time></trkpt><trkpt lat="39.7851046" lon="16.2256633"><ele>308.0</ele><time>2026-05-03T13:19:34.602Z</time></trkpt><trkpt lat="39.7853341" lon="16.2257452"><ele>310.0</ele><time>2026-05-03T13:19:35.599Z</time></trkpt><trkpt lat="39.7855645" lon="16.2258324"><ele>312.0</ele><time>2026-05-03T13:19:36.611Z</time></trkpt><trkpt lat="39.7857918" lon="16.2259213"><ele>315.0</ele><time>2026-05-03T13:19:37.584Z</time></trkpt><trkpt lat="39.7860213" lon="16.2260078"><ele>318.0</ele><time>2026-05-03T13:19:38.574Z</time></trkpt><trkpt lat="39.7862535" lon="16.2260921"><ele>318.0</ele><time>2026-05-03T13:19:39.596Z</time></trkpt><trkpt lat="39.7864849" lon="16.2261771"><ele>318.0</ele><time>2026-05-03T13:19:40.6Z</time></trkpt><trkpt lat="39.7867173" lon="16.2262635"><ele>321.0</ele><time>2026-05-03T13:19:41.596Z</time></trkpt><trkpt lat="39.7869511" lon="16.2263492"><ele>324.0</ele><time>2026-05-03T13:19:42.587Z</time></trkpt><trkpt lat="39.7871849" lon="16.2264363"><ele>324.0</ele><time>2026-05-03T13:19:43.597Z</time></trkpt><trkpt lat="39.7874162" lon="16.2265281"><ele>324.0</ele><time>2026-05-03T13:19:44.604Z</time></trkpt><trkpt lat="39.7876497" lon="16.2266206"><ele>326.5</ele><time>2026-05-03T13:19:45.593Z</time></trkpt><trkpt lat="39.7878879" lon="16.2267051"><ele>329.0</ele><time>2026-05-03T13:19:46.612Z</time></trkpt><trkpt lat="39.7883656" lon="16.2268759"><ele>331.0</ele><time>2026-05-03T13:19:48.688Z</time></trkpt><trkpt lat="39.7886027" lon="16.2269622"><ele>333.0</ele><time>2026-05-03T13:19:49.592Z</time></trkpt><trkpt lat="39.7888389" lon="16.2270526"><ele>333.0</ele><time>2026-05-03T13:19:50.578Z</time></trkpt><trkpt lat="39.7890725" lon="16.2271402"><ele>333.0</ele><time>2026-05-03T13:19:51.579Z</time></trkpt><trkpt lat="39.7893083" lon="16.227223"><ele>334.5</ele><time>2026-05-03T13:19:52.593Z</time></trkpt><trkpt lat="39.7895445" lon="16.2273151"><ele>336.0</ele><time>2026-05-03T13:19:53.591Z</time></trkpt><trkpt lat="39.7897777" lon="16.2274011"><ele>336.0</ele><time>2026-05-03T13:19:54.591Z</time></trkpt><trkpt lat="39.7900143" lon="16.2274941"><ele>336.0</ele><time>2026-05-03T13:19:55.574Z</time></trkpt><trkpt lat="39.7902503" lon="16.2275849"><ele>334.5</ele><time>2026-05-03T13:19:56.578Z</time></trkpt><trkpt lat="39.7904859" lon="16.2276773"><ele>333.0</ele><time>2026-05-03T13:19:57.568Z</time></trkpt><trkpt lat="39.7907304" lon="16.2277605"><ele>333.0</ele><time>2026-05-03T13:19:58.592Z</time></trkpt><trkpt lat="39.79097" lon="16.2278421"><ele>333.0</ele><time>2026-05-03T13:19:59.576Z</time></trkpt><trkpt lat="39.7912078" lon="16.2279302"><ele>330.5</ele><time>2026-05-03T13:20:00.592Z</time></trkpt><trkpt lat="39.7914458" lon="16.2280205"><ele>328.0</ele><time>2026-05-03T13:20:01.566Z</time></trkpt><trkpt lat="39.7916802" lon="16.2281152"><ele>331.0</ele><time>2026-05-03T13:20:02.579Z</time></trkpt><trkpt lat="39.7919073" lon="16.2282197"><ele>334.0</ele><time>2026-05-03T13:20:03.589Z</time></trkpt><trkpt lat="39.7921313" lon="16.2283368"><ele>334.0</ele><time>2026-05-03T13:20:04.605Z</time></trkpt><trkpt lat="39.79235" lon="16.2284606"><ele>334.0</ele><time>2026-05-03T13:20:05.61Z</time></trkpt><trkpt lat="39.7925688" lon="16.2285937"><ele>333.5</ele><time>2026-05-03T13:20:06.597Z</time></trkpt><trkpt lat="39.7927825" lon="16.2287313"><ele>333.0</ele><time>2026-05-03T13:20:07.559Z</time></trkpt><trkpt lat="39.7929922" lon="16.2288714"><ele>335.0</ele><time>2026-05-03T13:20:08.573Z</time></trkpt><trkpt lat="39.7932043" lon="16.2290177"><ele>337.0</ele><time>2026-05-03T13:20:09.587Z</time></trkpt><trkpt lat="39.7934132" lon="16.2291731"><ele>336.5</ele><time>2026-05-03T13:20:10.594Z</time></trkpt><trkpt lat="39.7936166" lon="16.2293301"><ele>336.0</ele><time>2026-05-03T13:20:11.582Z</time></trkpt><trkpt lat="39.7938192" lon="16.2294992"><ele>336.0</ele><time>2026-05-03T13:20:12.579Z</time></trkpt><trkpt lat="39.7940166" lon="16.2296847"><ele>336.0</ele><time>2026-05-03T13:20:13.571Z</time></trkpt><trkpt lat="39.7942114" lon="16.2298789"><ele>338.0</ele><time>2026-05-03T13:20:14.561Z</time></trkpt><trkpt lat="39.7944036" lon="16.2300796"><ele>340.0</ele><time>2026-05-03T13:20:15.594Z</time></trkpt><trkpt lat="39.7945928" lon="16.2302891"><ele>340.0</ele><time>2026-05-03T13:20:16.587Z</time></trkpt><trkpt lat="39.7947807" lon="16.2305103"><ele>340.0</ele><time>2026-05-03T13:20:17.567Z</time></trkpt><trkpt lat="39.7949591" lon="16.2307405"><ele>341.5</ele><time>2026-05-03T13:20:18.589Z</time></trkpt><trkpt lat="39.7951355" lon="16.2309789"><ele>343.0</ele><time>2026-05-03T13:20:19.584Z</time></trkpt><trkpt lat="39.7953071" lon="16.2312234"><ele>343.0</ele><time>2026-05-03T13:20:20.603Z</time></trkpt><trkpt lat="39.7954796" lon="16.2314671"><ele>343.0</ele><time>2026-05-03T13:20:21.587Z</time></trkpt><trkpt lat="39.7956377" lon="16.2317241"><ele>346.0</ele><time>2026-05-03T13:20:22.577Z</time></trkpt><trkpt lat="39.795787" lon="16.231992"><ele>349.0</ele><time>2026-05-03T13:20:23.571Z</time></trkpt><trkpt lat="39.7959327" lon="16.2322692"><ele>350.0</ele><time>2026-05-03T13:20:24.575Z</time></trkpt><trkpt lat="39.7960783" lon="16.2325479"><ele>351.0</ele><time>2026-05-03T13:20:25.613Z</time></trkpt><trkpt lat="39.7962212" lon="16.2328282"><ele>351.0</ele><time>2026-05-03T13:20:26.602Z</time></trkpt><trkpt lat="39.7963503" lon="16.2331146"><ele>351.0</ele><time>2026-05-03T13:20:27.588Z</time></trkpt><trkpt lat="39.7964763" lon="16.2334063"><ele>350.5</ele><time>2026-05-03T13:20:28.594Z</time></trkpt><trkpt lat="39.796593" lon="16.233708"><ele>350.0</ele><time>2026-05-03T13:20:29.588Z</time></trkpt><trkpt lat="39.796704" lon="16.2340104"><ele>350.0</ele><time>2026-05-03T13:20:30.596Z</time></trkpt><trkpt lat="39.7968083" lon="16.2343229"><ele>350.0</ele><time>2026-05-03T13:20:31.573Z</time></trkpt><trkpt lat="39.7969017" lon="16.2346435"><ele>349.0</ele><time>2026-05-03T13:20:32.596Z</time></trkpt><trkpt lat="39.7969906" lon="16.234964"><ele>348.0</ele><time>2026-05-03T13:20:33.584Z</time></trkpt><trkpt lat="39.7970752" lon="16.2352833"><ele>348.0</ele><time>2026-05-03T13:20:34.593Z</time></trkpt><trkpt lat="39.7971714" lon="16.2355967"><ele>348.0</ele><time>2026-05-03T13:20:35.586Z</time></trkpt><trkpt lat="39.7972675" lon="16.2359101"><ele>352.0</ele><time>2026-05-03T13:20:36.667Z</time></trkpt><trkpt lat="39.7974599" lon="16.2365385"><ele>352.0</ele><time>2026-05-03T13:20:38.582Z</time></trkpt><trkpt lat="39.7975702" lon="16.2368477"><ele>352.0</ele><time>2026-05-03T13:20:39.593Z</time></trkpt><trkpt lat="39.7976985" lon="16.2371437"><ele>351.5</ele><time>2026-05-03T13:20:40.601Z</time></trkpt><trkpt lat="39.797835" lon="16.2374358"><ele>351.0</ele><time>2026-05-03T13:20:41.575Z</time></trkpt><trkpt lat="39.7979793" lon="16.2377283"><ele>351.0</ele><time>2026-05-03T13:20:42.582Z</time></trkpt><trkpt lat="39.7981382" lon="16.2380056"><ele>351.0</ele><time>2026-05-03T13:20:43.584Z</time></trkpt><trkpt lat="39.7983059" lon="16.2382744"><ele>350.0</ele><time>2026-05-03T13:20:44.597Z</time></trkpt><trkpt lat="39.7984874" lon="16.2385275"><ele>349.0</ele><time>2026-05-03T13:20:45.59Z</time></trkpt><trkpt lat="39.7986798" lon="16.2387667"><ele>349.0</ele><time>2026-05-03T13:20:46.592Z</time></trkpt><trkpt lat="39.7988786" lon="16.2389984"><ele>349.0</ele><time>2026-05-03T13:20:47.59Z</time></trkpt><trkpt lat="39.79908" lon="16.2392262"><ele>349.0</ele><time>2026-05-03T13:20:48.605Z</time></trkpt><trkpt lat="39.7992812" lon="16.2394593"><ele>349.0</ele><time>2026-05-03T13:20:49.601Z</time></trkpt><trkpt lat="39.7994779" lon="16.2396946"><ele>350.0</ele><time>2026-05-03T13:20:50.599Z</time></trkpt><trkpt lat="39.7996766" lon="16.2399288"><ele>351.0</ele><time>2026-05-03T13:20:51.591Z</time></trkpt><trkpt lat="39.7998741" lon="16.240168"><ele>351.0</ele><time>2026-05-03T13:20:52.596Z</time></trkpt><trkpt lat="39.8000699" lon="16.2404052"><ele>351.0</ele><time>2026-05-03T13:20:53.577Z</time></trkpt><trkpt lat="39.8002642" lon="16.2406392"><ele>352.5</ele><time>2026-05-03T13:20:54.602Z</time></trkpt><trkpt lat="39.8004629" lon="16.2408692"><ele>354.0</ele><time>2026-05-03T13:20:55.602Z</time></trkpt><trkpt lat="39.8006591" lon="16.2410995"><ele>355.0</ele><time>2026-05-03T13:20:56.6Z</time></trkpt><trkpt lat="39.8010482" lon="16.2415671"><ele>355.0</ele><time>2026-05-03T13:20:58.599Z</time></trkpt><trkpt lat="39.8012406" lon="16.2417941"><ele>355.0</ele><time>2026-05-03T13:20:59.586Z</time></trkpt><trkpt lat="39.8014354" lon="16.2420225"><ele>355.0</ele><time>2026-05-03T13:21:00.593Z</time></trkpt><trkpt lat="39.8016235" lon="16.2422526"><ele>355.0</ele><time>2026-05-03T13:21:01.59Z</time></trkpt><trkpt lat="39.8018154" lon="16.2424794"><ele>355.0</ele><time>2026-05-03T13:21:02.592Z</time></trkpt><trkpt lat="39.8020062" lon="16.2427069"><ele>355.0</ele><time>2026-05-03T13:21:03.582Z</time></trkpt><trkpt lat="39.8021957" lon="16.2429368"><ele>359.5</ele><time>2026-05-03T13:21:04.599Z</time></trkpt><trkpt lat="39.8023847" lon="16.243164"><ele>364.0</ele><time>2026-05-03T13:21:05.612Z</time></trkpt><trkpt lat="39.8025725" lon="16.2433881"><ele>359.5</ele><time>2026-05-03T13:21:06.597Z</time></trkpt><trkpt lat="39.8027585" lon="16.2436062"><ele>355.0</ele><time>2026-05-03T13:21:07.608Z</time></trkpt><trkpt lat="39.8029466" lon="16.2438249"><ele>359.0</ele><time>2026-05-03T13:21:08.597Z</time></trkpt><trkpt lat="39.803134" lon="16.2440453"><ele>363.0</ele><time>2026-05-03T13:21:09.606Z</time></trkpt><trkpt lat="39.8033168" lon="16.2442614"><ele>359.5</ele><time>2026-05-03T13:21:10.588Z</time></trkpt><trkpt lat="39.8034987" lon="16.244477"><ele>356.0</ele><time>2026-05-03T13:21:11.591Z</time></trkpt><trkpt lat="39.803681" lon="16.2446904"><ele>359.5</ele><time>2026-05-03T13:21:12.605Z</time></trkpt><trkpt lat="39.8038645" lon="16.244902"><ele>363.0</ele><time>2026-05-03T13:21:13.602Z</time></trkpt><trkpt lat="39.8040427" lon="16.2451167"><ele>363.0</ele><time>2026-05-03T13:21:14.603Z</time></trkpt><trkpt lat="39.8042194" lon="16.2453291"><ele>363.0</ele><time>2026-05-03T13:21:15.599Z</time></trkpt><trkpt lat="39.804395" lon="16.2455417"><ele>365.5</ele><time>2026-05-03T13:21:16.592Z</time></trkpt><trkpt lat="39.8045701" lon="16.2457545"><ele>368.0</ele><time>2026-05-03T13:21:17.597Z</time></trkpt><trkpt lat="39.8047489" lon="16.2459633"><ele>368.0</ele><time>2026-05-03T13:21:18.58Z</time></trkpt><trkpt lat="39.8049261" lon="16.246175"><ele>368.0</ele><time>2026-05-03T13:21:19.599Z</time></trkpt><trkpt lat="39.8051071" lon="16.2463874"><ele>369.0</ele><time>2026-05-03T13:21:20.594Z</time></trkpt><trkpt lat="39.8052846" lon="16.246599"><ele>370.0</ele><time>2026-05-03T13:21:21.597Z</time></trkpt><trkpt lat="39.8054655" lon="16.2468075"><ele>370.0</ele><time>2026-05-03T13:21:22.587Z</time></trkpt><trkpt lat="39.8056436" lon="16.2470185"><ele>370.0</ele><time>2026-05-03T13:21:23.593Z</time></trkpt><trkpt lat="39.8058212" lon="16.2472329"><ele>369.5</ele><time>2026-05-03T13:21:24.58Z</time></trkpt><trkpt lat="39.8060002" lon="16.2474392"><ele>369.0</ele><time>2026-05-03T13:21:25.591Z</time></trkpt><trkpt lat="39.8061745" lon="16.2476523"><ele>369.0</ele><time>2026-05-03T13:21:26.587Z</time></trkpt><trkpt lat="39.8063494" lon="16.2478606"><ele>369.0</ele><time>2026-05-03T13:21:27.597Z</time></trkpt><trkpt lat="39.8065247" lon="16.2480728"><ele>372.0</ele><time>2026-05-03T13:21:28.594Z</time></trkpt><trkpt lat="39.8067017" lon="16.2482814"><ele>375.0</ele><time>2026-05-03T13:21:29.581Z</time></trkpt><trkpt lat="39.8068766" lon="16.2484863"><ele>375.0</ele><time>2026-05-03T13:21:30.596Z</time></trkpt><trkpt lat="39.8070522" lon="16.2486882"><ele>375.0</ele><time>2026-05-03T13:21:31.569Z</time></trkpt><trkpt lat="39.8072286" lon="16.2488956"><ele>378.0</ele><time>2026-05-03T13:21:32.58Z</time></trkpt><trkpt lat="39.8074013" lon="16.2491043"><ele>381.0</ele><time>2026-05-03T13:21:33.595Z</time></trkpt><trkpt lat="39.8075722" lon="16.2493144"><ele>383.0</ele><time>2026-05-03T13:21:34.597Z</time></trkpt><trkpt lat="39.807742" lon="16.2495218"><ele>385.0</ele><time>2026-05-03T13:21:35.6Z</time></trkpt><trkpt lat="39.8079126" lon="16.2497151"><ele>385.6666666666667</ele><time>2026-05-03T13:21:36.605Z</time></trkpt><trkpt lat="39.8080683" lon="16.2499021"><ele>386.33333333333337</ele><time>2026-05-03T13:21:37.602Z</time></trkpt><trkpt lat="39.8082174" lon="16.2500727"><ele>387.0</ele><time>2026-05-03T13:21:38.594Z</time></trkpt><trkpt lat="39.8083643" lon="16.2502424"><ele>386.66666666666663</ele><time>2026-05-03T13:21:39.605Z</time></trkpt><trkpt lat="39.8085233" lon="16.250418"><ele>386.3333333333333</ele><time>2026-05-03T13:21:40.6Z</time></trkpt><trkpt lat="39.8086702" lon="16.2505998"><ele>386.0</ele><time>2026-05-03T13:21:41.606Z</time></trkpt><trkpt lat="39.8088212" lon="16.250784"><ele>385.66666666666663</ele><time>2026-05-03T13:21:42.611Z</time></trkpt><trkpt lat="39.8089712" lon="16.2509661"><ele>385.33333333333337</ele><time>2026-05-03T13:21:43.599Z</time></trkpt><trkpt lat="39.8091248" lon="16.2511469"><ele>385.0</ele><time>2026-05-03T13:21:44.598Z</time></trkpt><trkpt lat="39.8092871" lon="16.251321"><ele>382.33333333333337</ele><time>2026-05-03T13:21:45.583Z</time></trkpt><trkpt lat="39.80946" lon="16.2514875"><ele>379.6666666666667</ele><time>2026-05-03T13:21:46.584Z</time></trkpt><trkpt lat="39.8096386" lon="16.2516358"><ele>377.0</ele><time>2026-05-03T13:21:47.6Z</time></trkpt><trkpt lat="39.8098258" lon="16.2517729"><ele>377.0</ele><time>2026-05-03T13:21:48.588Z</time></trkpt><trkpt lat="39.8100187" lon="16.2519076"><ele>377.0</ele><time>2026-05-03T13:21:49.575Z</time></trkpt><trkpt lat="39.810219" lon="16.2520306"><ele>377.0</ele><time>2026-05-03T13:21:50.586Z</time></trkpt><trkpt lat="39.8104276" lon="16.2521489"><ele>371.5</ele><time>2026-05-03T13:21:51.585Z</time></trkpt><trkpt lat="39.8106456" lon="16.2522501"><ele>366.0</ele><time>2026-05-03T13:21:52.597Z</time></trkpt><trkpt lat="39.810871" lon="16.2523426"><ele>366.0</ele><time>2026-05-03T13:21:53.586Z</time></trkpt><trkpt lat="39.8110987" lon="16.2524362"><ele>366.0</ele><time>2026-05-03T13:21:54.594Z</time></trkpt><trkpt lat="39.8113316" lon="16.2525198"><ele>366.0</ele><time>2026-05-03T13:21:55.568Z</time></trkpt><trkpt lat="39.8115653" lon="16.2526051"><ele>366.0</ele><time>2026-05-03T13:21:56.58Z</time></trkpt><trkpt lat="39.8118006" lon="16.2526975"><ele>369.5</ele><time>2026-05-03T13:21:57.58Z</time></trkpt><trkpt lat="39.8120369" lon="16.2527838"><ele>373.0</ele><time>2026-05-03T13:21:58.593Z</time></trkpt><trkpt lat="39.8122725" lon="16.2528722"><ele>373.0</ele><time>2026-05-03T13:21:59.587Z</time></trkpt><trkpt lat="39.8125091" lon="16.2529584"><ele>373.0</ele><time>2026-05-03T13:22:00.594Z</time></trkpt><trkpt lat="39.8127453" lon="16.2530464"><ele>383.0</ele><time>2026-05-03T13:22:01.602Z</time></trkpt><trkpt lat="39.8129821" lon="16.2531376"><ele>393.0</ele><time>2026-05-03T13:22:02.6Z</time></trkpt><trkpt lat="39.8132185" lon="16.2532286"><ele>393.0</ele><time>2026-05-03T13:22:03.598Z</time></trkpt><trkpt lat="39.8134578" lon="16.2533134"><ele>393.0</ele><time>2026-05-03T13:22:04.587Z</time></trkpt><trkpt lat="39.8136994" lon="16.2533973"><ele>398.5</ele><time>2026-05-03T13:22:05.594Z</time></trkpt><trkpt lat="39.8139417" lon="16.2534794"><ele>404.0</ele><time>2026-05-03T13:22:06.604Z</time></trkpt><trkpt lat="39.8141829" lon="16.2535684"><ele>406.5</ele><time>2026-05-03T13:22:07.603Z</time></trkpt><trkpt lat="39.8144252" lon="16.2536629"><ele>409.0</ele><time>2026-05-03T13:22:08.601Z</time></trkpt><trkpt lat="39.8146693" lon="16.2537542"><ele>409.0</ele><time>2026-05-03T13:22:09.6Z</time></trkpt><trkpt lat="39.8149109" lon="16.2538464"><ele>409.0</ele><time>2026-05-03T13:22:10.597Z</time></trkpt><trkpt lat="39.8151553" lon="16.2539323"><ele>410.5</ele><time>2026-05-03T13:22:11.587Z</time></trkpt><trkpt lat="39.8153991" lon="16.2540195"><ele>412.0</ele><time>2026-05-03T13:22:12.594Z</time></trkpt><trkpt lat="39.8156412" lon="16.2541046"><ele>412.0</ele><time>2026-05-03T13:22:13.592Z</time></trkpt><trkpt lat="39.8158862" lon="16.2541941"><ele>412.0</ele><time>2026-05-03T13:22:14.573Z</time></trkpt><trkpt lat="39.8161268" lon="16.2542841"><ele>413.0</ele><time>2026-05-03T13:22:15.594Z</time></trkpt><trkpt lat="39.8163637" lon="16.254376"><ele>414.0</ele><time>2026-05-03T13:22:16.585Z</time></trkpt><trkpt lat="39.8165999" lon="16.2544668"><ele>415.0</ele><time>2026-05-03T13:22:17.606Z</time></trkpt><trkpt lat="39.8168366" lon="16.2545541"><ele>416.0</ele><time>2026-05-03T13:22:18.587Z</time></trkpt><trkpt lat="39.8170731" lon="16.2546395"><ele>416.0</ele><time>2026-05-03T13:22:19.582Z</time></trkpt><trkpt lat="39.817307" lon="16.2547232"><ele>416.0</ele><time>2026-05-03T13:22:20.584Z</time></trkpt><trkpt lat="39.8175418" lon="16.2548087"><ele>417.5</ele><time>2026-05-03T13:22:21.564Z</time></trkpt><trkpt lat="39.8177745" lon="16.2548922"><ele>419.0</ele><time>2026-05-03T13:22:22.605Z</time></trkpt><trkpt lat="39.8180058" lon="16.2549806"><ele>419.0</ele><time>2026-05-03T13:22:23.59Z</time></trkpt><trkpt lat="39.8182346" lon="16.2550676"><ele>419.0</ele><time>2026-05-03T13:22:24.603Z</time></trkpt><trkpt lat="39.8184636" lon="16.2551559"><ele>420.0</ele><time>2026-05-03T13:22:25.599Z</time></trkpt><trkpt lat="39.8186894" lon="16.2552483"><ele>421.0</ele><time>2026-05-03T13:22:26.596Z</time></trkpt><trkpt lat="39.8189121" lon="16.2553503"><ele>421.0</ele><time>2026-05-03T13:22:27.597Z</time></trkpt><trkpt lat="39.8191316" lon="16.2554588"><ele>421.0</ele><time>2026-05-03T13:22:28.603Z</time></trkpt><trkpt lat="39.8193516" lon="16.2555718"><ele>424.5</ele><time>2026-05-03T13:22:29.585Z</time></trkpt><trkpt lat="39.8195678" lon="16.2556939"><ele>428.0</ele><time>2026-05-03T13:22:30.613Z</time></trkpt><trkpt lat="39.8197849" lon="16.2558192"><ele>428.0</ele><time>2026-05-03T13:22:31.598Z</time></trkpt><trkpt lat="39.8199967" lon="16.255948"><ele>428.0</ele><time>2026-05-03T13:22:32.605Z</time></trkpt><trkpt lat="39.8202078" lon="16.2560795"><ele>431.5</ele><time>2026-05-03T13:22:33.591Z</time></trkpt><trkpt lat="39.8204163" lon="16.2562174"><ele>435.0</ele><time>2026-05-03T13:22:34.61Z</time></trkpt><trkpt lat="39.8206201" lon="16.2563623"><ele>435.5</ele><time>2026-05-03T13:22:35.594Z</time></trkpt><trkpt lat="39.8208224" lon="16.2565144"><ele>436.0</ele><time>2026-05-03T13:22:36.591Z</time></trkpt><trkpt lat="39.8210255" lon="16.2566714"><ele>439.5</ele><time>2026-05-03T13:22:37.59Z</time></trkpt><trkpt lat="39.8212244" lon="16.256832"><ele>443.0</ele><time>2026-05-03T13:22:38.597Z</time></trkpt><trkpt lat="39.8214268" lon="16.256991"><ele>443.0</ele><time>2026-05-03T13:22:39.596Z</time></trkpt><trkpt lat="39.8216259" lon="16.2571576"><ele>443.0</ele><time>2026-05-03T13:22:40.592Z</time></trkpt><trkpt lat="39.8218243" lon="16.2573284"><ele>447.0</ele><time>2026-05-03T13:22:41.585Z</time></trkpt><trkpt lat="39.8220247" lon="16.2574971"><ele>451.0</ele><time>2026-05-03T13:22:42.561Z</time></trkpt><trkpt lat="39.8222293" lon="16.2576556"><ele>451.0</ele><time>2026-05-03T13:22:43.602Z</time></trkpt><trkpt lat="39.8224338" lon="16.257819"><ele>451.0</ele><time>2026-05-03T13:22:44.562Z</time></trkpt><trkpt lat="39.8226374" lon="16.2579904"><ele>453.5</ele><time>2026-05-03T13:22:45.556Z</time></trkpt><trkpt lat="39.8228407" lon="16.2581617"><ele>456.0</ele><time>2026-05-03T13:22:46.569Z</time></trkpt><trkpt lat="39.8230446" lon="16.25833"><ele>456.0</ele><time>2026-05-03T13:22:47.568Z</time></trkpt><trkpt lat="39.8232548" lon="16.2584956"><ele>456.0</ele><time>2026-05-03T13:22:48.576Z</time></trkpt><trkpt lat="39.8234673" lon="16.258656"><ele>457.5</ele><time>2026-05-03T13:22:49.567Z</time></trkpt><trkpt lat="39.8236856" lon="16.2588084"><ele>459.0</ele><time>2026-05-03T13:22:50.594Z</time></trkpt><trkpt lat="39.8239103" lon="16.2589459"><ele>459.5</ele><time>2026-05-03T13:22:51.602Z</time></trkpt><trkpt lat="39.8241411" lon="16.2590743"><ele>460.0</ele><time>2026-05-03T13:22:52.603Z</time></trkpt><trkpt lat="39.8243767" lon="16.2591895"><ele>460.0</ele><time>2026-05-03T13:22:53.564Z</time></trkpt><trkpt lat="39.824614" lon="16.2592933"><ele>460.0</ele><time>2026-05-03T13:22:54.606Z</time></trkpt><trkpt lat="39.8248537" lon="16.2593853"><ele>460.0</ele><time>2026-05-03T13:22:55.591Z</time></trkpt><trkpt lat="39.825097" lon="16.25946"><ele>460.0</ele><time>2026-05-03T13:22:56.591Z</time></trkpt><trkpt lat="39.8253412" lon="16.2595295"><ele>461.0</ele><time>2026-05-03T13:22:57.588Z</time></trkpt><trkpt lat="39.8255857" lon="16.2595878"><ele>462.0</ele><time>2026-05-03T13:22:58.591Z</time></trkpt><trkpt lat="39.8258316" lon="16.259636"><ele>463.5</ele><time>2026-05-03T13:22:59.59Z</time></trkpt><trkpt lat="39.8260777" lon="16.2596763"><ele>465.0</ele><time>2026-05-03T13:23:00.605Z</time></trkpt><trkpt lat="39.8263249" lon="16.2596975"><ele>465.0</ele><time>2026-05-03T13:23:01.587Z</time></trkpt><trkpt lat="39.8265695" lon="16.2597082"><ele>465.0</ele><time>2026-05-03T13:23:02.589Z</time></trkpt><trkpt lat="39.8268157" lon="16.2597013"><ele>465.0</ele><time>2026-05-03T13:23:03.603Z</time></trkpt><trkpt lat="39.8270618" lon="16.2596821"><ele>465.0</ele><time>2026-05-03T13:23:04.59Z</time></trkpt><trkpt lat="39.8273042" lon="16.2596609"><ele>465.0</ele><time>2026-05-03T13:23:05.587Z</time></trkpt><trkpt lat="39.8275454" lon="16.2596306"><ele>465.0</ele><time>2026-05-03T13:23:06.594Z</time></trkpt><trkpt lat="39.8277923" lon="16.2595897"><ele>465.5</ele><time>2026-05-03T13:23:07.579Z</time></trkpt><trkpt lat="39.8280357" lon="16.2595393"><ele>466.0</ele><time>2026-05-03T13:23:08.61Z</time></trkpt><trkpt lat="39.8282776" lon="16.2594688"><ele>466.5</ele><time>2026-05-03T13:23:09.603Z</time></trkpt><trkpt lat="39.828517" lon="16.2593907"><ele>467.0</ele><time>2026-05-03T13:23:10.613Z</time></trkpt><trkpt lat="39.8289946" lon="16.2591976"><ele>467.0</ele><time>2026-05-03T13:23:12.614Z</time></trkpt><trkpt lat="39.8292331" lon="16.2590899"><ele>467.0</ele><time>2026-05-03T13:23:13.6Z</time></trkpt><trkpt lat="39.8294696" lon="16.2589717"><ele>466.5</ele><time>2026-05-03T13:23:14.578Z</time></trkpt><trkpt lat="39.8297043" lon="16.2588497"><ele>466.0</ele><time>2026-05-03T13:23:15.575Z</time></trkpt><trkpt lat="39.8299377" lon="16.2587278"><ele>467.0</ele><time>2026-05-03T13:23:16.596Z</time></trkpt><trkpt lat="39.830173" lon="16.2586131"><ele>468.0</ele><time>2026-05-03T13:23:17.583Z</time></trkpt><trkpt lat="39.8304087" lon="16.2584977"><ele>468.0</ele><time>2026-05-03T13:23:18.597Z</time></trkpt><trkpt lat="39.8306473" lon="16.2583862"><ele>468.0</ele><time>2026-05-03T13:23:19.591Z</time></trkpt><trkpt lat="39.830885" lon="16.2582719"><ele>469.0</ele><time>2026-05-03T13:23:20.59Z</time></trkpt><trkpt lat="39.8311263" lon="16.2581545"><ele>470.0</ele><time>2026-05-03T13:23:21.579Z</time></trkpt><trkpt lat="39.8313618" lon="16.2580373"><ele>470.0</ele><time>2026-05-03T13:23:22.577Z</time></trkpt><trkpt lat="39.8315973" lon="16.2579241"><ele>470.0</ele><time>2026-05-03T13:23:23.604Z</time></trkpt><trkpt lat="39.8318349" lon="16.2578117"><ele>471.5</ele><time>2026-05-03T13:23:24.609Z</time></trkpt><trkpt lat="39.8320746" lon="16.2577022"><ele>473.0</ele><time>2026-05-03T13:23:25.583Z</time></trkpt><trkpt lat="39.8323127" lon="16.2575963"><ele>473.0</ele><time>2026-05-03T13:23:26.598Z</time></trkpt><trkpt lat="39.8325483" lon="16.2574815"><ele>473.0</ele><time>2026-05-03T13:23:27.607Z</time></trkpt><trkpt lat="39.8327811" lon="16.2573635"><ele>475.0</ele><time>2026-05-03T13:23:28.585Z</time></trkpt><trkpt lat="39.8330164" lon="16.2572476"><ele>477.0</ele><time>2026-05-03T13:23:29.598Z</time></trkpt><trkpt lat="39.8332515" lon="16.2571329"><ele>479.5</ele><time>2026-05-03T13:23:30.587Z</time></trkpt><trkpt lat="39.8334852" lon="16.2570223"><ele>482.0</ele><time>2026-05-03T13:23:31.598Z</time></trkpt><trkpt lat="39.8337215" lon="16.2569097"><ele>482.0</ele><time>2026-05-03T13:23:32.6Z</time></trkpt><trkpt lat="39.8339572" lon="16.2567978"><ele>482.0</ele><time>2026-05-03T13:23:33.595Z</time></trkpt><trkpt lat="39.8341899" lon="16.2566813"><ele>483.5</ele><time>2026-05-03T13:23:34.59Z</time></trkpt><trkpt lat="39.8344202" lon="16.256564"><ele>485.0</ele><time>2026-05-03T13:23:35.592Z</time></trkpt><trkpt lat="39.834651" lon="16.2564406"><ele>485.0</ele><time>2026-05-03T13:23:36.605Z</time></trkpt><trkpt lat="39.8348805" lon="16.2563165"><ele>485.0</ele><time>2026-05-03T13:23:37.602Z</time></trkpt><trkpt lat="39.8351078" lon="16.2561862"><ele>488.0</ele><time>2026-05-03T13:23:38.589Z</time></trkpt><trkpt lat="39.8353328" lon="16.2560451"><ele>491.0</ele><time>2026-05-03T13:23:39.583Z</time></trkpt><trkpt lat="39.8355523" lon="16.2558982"><ele>491.0</ele><time>2026-05-03T13:23:40.589Z</time></trkpt><trkpt lat="39.8357714" lon="16.2557426"><ele>491.0</ele><time>2026-05-03T13:23:41.599Z</time></trkpt><trkpt lat="39.8359865" lon="16.2555734"><ele>494.0</ele><time>2026-05-03T13:23:42.606Z</time></trkpt><trkpt lat="39.836197" lon="16.2553981"><ele>497.0</ele><time>2026-05-03T13:23:43.589Z</time></trkpt><trkpt lat="39.8364055" lon="16.2552139"><ele>497.0</ele><time>2026-05-03T13:23:44.59Z</time></trkpt><trkpt lat="39.8366148" lon="16.2550269"><ele>497.0</ele><time>2026-05-03T13:23:45.588Z</time></trkpt><trkpt lat="39.836819" lon="16.2548259"><ele>499.5</ele><time>2026-05-03T13:23:46.588Z</time></trkpt><trkpt lat="39.8370134" lon="16.2546165"><ele>502.0</ele><time>2026-05-03T13:23:47.588Z</time></trkpt><trkpt lat="39.837204" lon="16.2544011"><ele>502.0</ele><time>2026-05-03T13:23:48.587Z</time></trkpt><trkpt lat="39.837391" lon="16.2541819"><ele>502.0</ele><time>2026-05-03T13:23:49.554Z</time></trkpt><trkpt lat="39.8375712" lon="16.2539548"><ele>506.5</ele><time>2026-05-03T13:23:50.572Z</time></trkpt><trkpt lat="39.8377484" lon="16.2537213"><ele>511.0</ele><time>2026-05-03T13:23:51.596Z</time></trkpt><trkpt lat="39.8379213" lon="16.2534851"><ele>511.0</ele><time>2026-05-03T13:23:52.603Z</time></trkpt><trkpt lat="39.8380901" lon="16.2532427"><ele>511.0</ele><time>2026-05-03T13:23:53.597Z</time></trkpt><trkpt lat="39.8382486" lon="16.2529903"><ele>511.5</ele><time>2026-05-03T13:23:54.591Z</time></trkpt><trkpt lat="39.8384073" lon="16.2527321"><ele>512.0</ele><time>2026-05-03T13:23:55.604Z</time></trkpt><trkpt lat="39.8385646" lon="16.2524718"><ele>516.5</ele><time>2026-05-03T13:23:56.588Z</time></trkpt><trkpt lat="39.8387171" lon="16.2522051"><ele>521.0</ele><time>2026-05-03T13:23:57.598Z</time></trkpt><trkpt lat="39.8388645" lon="16.2519355"><ele>521.0</ele><time>2026-05-03T13:23:58.571Z</time></trkpt><trkpt lat="39.839012" lon="16.2516657"><ele>521.0</ele><time>2026-05-03T13:23:59.58Z</time></trkpt><trkpt lat="39.8391666" lon="16.2514008"><ele>525.0</ele><time>2026-05-03T13:24:00.577Z</time></trkpt><trkpt lat="39.8393245" lon="16.2511401"><ele>529.0</ele><time>2026-05-03T13:24:01.582Z</time></trkpt><trkpt lat="39.8394792" lon="16.2508713"><ele>526.0</ele><time>2026-05-03T13:24:02.606Z</time></trkpt><trkpt lat="39.8396344" lon="16.2506045"><ele>523.0</ele><time>2026-05-03T13:24:03.593Z</time></trkpt><trkpt lat="39.839786" lon="16.250332"><ele>523.0</ele><time>2026-05-03T13:24:04.591Z</time></trkpt><trkpt lat="39.8399382" lon="16.2500582"><ele>523.0</ele><time>2026-05-03T13:24:05.601Z</time></trkpt><trkpt lat="39.8400895" lon="16.2497884"><ele>525.0</ele><time>2026-05-03T13:24:06.587Z</time></trkpt><trkpt lat="39.8402383" lon="16.2495194"><ele>527.0</ele><time>2026-05-03T13:24:07.602Z</time></trkpt><trkpt lat="39.840388" lon="16.2492526"><ele>527.0</ele><time>2026-05-03T13:24:08.592Z</time></trkpt><trkpt lat="39.8405335" lon="16.2489848"><ele>527.0</ele><time>2026-05-03T13:24:09.605Z</time></trkpt><trkpt lat="39.8406836" lon="16.2487228"><ele>526.5</ele><time>2026-05-03T13:24:10.601Z</time></trkpt><trkpt lat="39.8408342" lon="16.2484632"><ele>526.0</ele><time>2026-05-03T13:24:11.575Z</time></trkpt><trkpt lat="39.8409825" lon="16.2482019"><ele>530.5</ele><time>2026-05-03T13:24:12.604Z</time></trkpt><trkpt lat="39.8411307" lon="16.2479462"><ele>535.0</ele><time>2026-05-03T13:24:13.587Z</time></trkpt><trkpt lat="39.8412789" lon="16.2476867"><ele>535.0</ele><time>2026-05-03T13:24:14.584Z</time></trkpt><trkpt lat="39.841422" lon="16.2474271"><ele>535.0</ele><time>2026-05-03T13:24:15.584Z</time></trkpt><trkpt lat="39.8415649" lon="16.2471658"><ele>535.5</ele><time>2026-05-03T13:24:16.598Z</time></trkpt><trkpt lat="39.8417072" lon="16.2469059"><ele>536.0</ele><time>2026-05-03T13:24:17.586Z</time></trkpt><trkpt lat="39.8418475" lon="16.2466495"><ele>540.5</ele><time>2026-05-03T13:24:18.595Z</time></trkpt><trkpt lat="39.841981" lon="16.2463863"><ele>545.0</ele><time>2026-05-03T13:24:19.595Z</time></trkpt><trkpt lat="39.8421089" lon="16.2461156"><ele>545.0</ele><time>2026-05-03T13:24:20.602Z</time></trkpt><trkpt lat="39.8422329" lon="16.2458427"><ele>545.0</ele><time>2026-05-03T13:24:21.586Z</time></trkpt><trkpt lat="39.8423548" lon="16.2455658"><ele>544.0</ele><time>2026-05-03T13:24:22.58Z</time></trkpt><trkpt lat="39.8424747" lon="16.2452884"><ele>543.0</ele><time>2026-05-03T13:24:23.584Z</time></trkpt><trkpt lat="39.84259" lon="16.2450091"><ele>547.0</ele><time>2026-05-03T13:24:24.576Z</time></trkpt><trkpt lat="39.8427089" lon="16.2447274"><ele>551.0</ele><time>2026-05-03T13:24:25.564Z</time></trkpt><trkpt lat="39.8428242" lon="16.2444447"><ele>551.0</ele><time>2026-05-03T13:24:26.588Z</time></trkpt><trkpt lat="39.8429425" lon="16.2441645"><ele>551.0</ele><time>2026-05-03T13:24:27.602Z</time></trkpt><trkpt lat="39.8430621" lon="16.243882"><ele>551.0</ele><time>2026-05-03T13:24:28.595Z</time></trkpt><trkpt lat="39.8431825" lon="16.2436036"><ele>551.0</ele><time>2026-05-03T13:24:29.588Z</time></trkpt><trkpt lat="39.8433053" lon="16.2433184"><ele>550.5</ele><time>2026-05-03T13:24:30.584Z</time></trkpt><trkpt lat="39.8434268" lon="16.2430348"><ele>550.0</ele><time>2026-05-03T13:24:31.577Z</time></trkpt><trkpt lat="39.8435457" lon="16.242751"><ele>555.0</ele><time>2026-05-03T13:24:32.57Z</time></trkpt><trkpt lat="39.8436641" lon="16.2424649"><ele>560.0</ele><time>2026-05-03T13:24:33.582Z</time></trkpt><trkpt lat="39.8437866" lon="16.242175"><ele>560.0</ele><time>2026-05-03T13:24:34.594Z</time></trkpt><trkpt lat="39.8439053" lon="16.2418863"><ele>560.0</ele><time>2026-05-03T13:24:35.611Z</time></trkpt><trkpt lat="39.8440263" lon="16.2415966"><ele>560.5</ele><time>2026-05-03T13:24:36.611Z</time></trkpt><trkpt lat="39.8441504" lon="16.2413094"><ele>561.0</ele><time>2026-05-03T13:24:37.589Z</time></trkpt><trkpt lat="39.8442772" lon="16.2410214"><ele>565.5</ele><time>2026-05-03T13:24:38.592Z</time></trkpt><trkpt lat="39.844402" lon="16.2407334"><ele>570.0</ele><time>2026-05-03T13:24:39.588Z</time></trkpt><trkpt lat="39.8445267" lon="16.240442"><ele>570.5</ele><time>2026-05-03T13:24:40.606Z</time></trkpt><trkpt lat="39.8446486" lon="16.2401526"><ele>571.0</ele><time>2026-05-03T13:24:41.585Z</time></trkpt><trkpt lat="39.8447731" lon="16.2398573"><ele>572.0</ele><time>2026-05-03T13:24:42.609Z</time></trkpt><trkpt lat="39.8448976" lon="16.2395621"><ele>573.0</ele><time>2026-05-03T13:24:43.585Z</time></trkpt><trkpt lat="39.8450219" lon="16.2392673"><ele>576.5</ele><time>2026-05-03T13:24:44.607Z</time></trkpt><trkpt lat="39.8451503" lon="16.2389696"><ele>580.0</ele><time>2026-05-03T13:24:45.593Z</time></trkpt><trkpt lat="39.8452763" lon="16.2386742"><ele>581.0</ele><time>2026-05-03T13:24:46.593Z</time></trkpt><trkpt lat="39.8454028" lon="16.2383758"><ele>582.0</ele><time>2026-05-03T13:24:47.594Z</time></trkpt><trkpt lat="39.8455276" lon="16.2380775"><ele>582.0</ele><time>2026-05-03T13:24:48.575Z</time></trkpt><trkpt lat="39.8456557" lon="16.2377794"><ele>582.0</ele><time>2026-05-03T13:24:49.586Z</time></trkpt><trkpt lat="39.8457799" lon="16.2374826"><ele>580.0</ele><time>2026-05-03T13:24:50.596Z</time></trkpt><trkpt lat="39.8458983" lon="16.2371908"><ele>578.0</ele><time>2026-05-03T13:24:51.584Z</time></trkpt><trkpt lat="39.8460157" lon="16.2369097"><ele>575.0</ele><time>2026-05-03T13:24:52.61Z</time></trkpt><trkpt lat="39.846132" lon="16.2366286"><ele>572.0</ele><time>2026-05-03T13:24:53.59Z</time></trkpt><trkpt lat="39.8462477" lon="16.2363489"><ele>572.0</ele><time>2026-05-03T13:24:54.597Z</time></trkpt><trkpt lat="39.846359" lon="16.236068"><ele>572.0</ele><time>2026-05-03T13:24:55.604Z</time></trkpt><trkpt lat="39.8464631" lon="16.2357808"><ele>571.0</ele><time>2026-05-03T13:24:56.583Z</time></trkpt><trkpt lat="39.8465654" lon="16.2354892"><ele>570.0</ele><time>2026-05-03T13:24:57.586Z</time></trkpt><trkpt lat="39.8466657" lon="16.2351968"><ele>570.0</ele><time>2026-05-03T13:24:58.599Z</time></trkpt><trkpt lat="39.8467628" lon="16.2348958"><ele>570.0</ele><time>2026-05-03T13:24:59.584Z</time></trkpt><trkpt lat="39.8468558" lon="16.2345916"><ele>576.5</ele><time>2026-05-03T13:25:00.592Z</time></trkpt><trkpt lat="39.8469411" lon="16.2342828"><ele>583.0</ele><time>2026-05-03T13:25:01.586Z</time></trkpt><trkpt lat="39.8470246" lon="16.2339727"><ele>585.0</ele><time>2026-05-03T13:25:02.588Z</time></trkpt><trkpt lat="39.8471009" lon="16.2336592"><ele>587.0</ele><time>2026-05-03T13:25:03.597Z</time></trkpt><trkpt lat="39.8471709" lon="16.2333398"><ele>588.5</ele><time>2026-05-03T13:25:04.597Z</time></trkpt><trkpt lat="39.8472372" lon="16.2330168"><ele>590.0</ele><time>2026-05-03T13:25:05.582Z</time></trkpt><trkpt lat="39.8472973" lon="16.2326932"><ele>590.0</ele><time>2026-05-03T13:25:06.566Z</time></trkpt><trkpt lat="39.8473497" lon="16.232369"><ele>590.0</ele><time>2026-05-03T13:25:07.58Z</time></trkpt><trkpt lat="39.8473969" lon="16.2320434"><ele>590.5</ele><time>2026-05-03T13:25:08.586Z</time></trkpt><trkpt lat="39.8474369" lon="16.2317157"><ele>591.0</ele><time>2026-05-03T13:25:09.593Z</time></trkpt><trkpt lat="39.8474729" lon="16.2313916"><ele>593.0</ele><time>2026-05-03T13:25:10.587Z</time></trkpt><trkpt lat="39.8475019" lon="16.2310702"><ele>595.0</ele><time>2026-05-03T13:25:11.576Z</time></trkpt><trkpt lat="39.8475283" lon="16.2307502"><ele>596.5</ele><time>2026-05-03T13:25:12.59Z</time></trkpt><trkpt lat="39.8475484" lon="16.2304353"><ele>598.0</ele><time>2026-05-03T13:25:13.571Z</time></trkpt><trkpt lat="39.8475622" lon="16.2301229"><ele>599.5</ele><time>2026-05-03T13:25:14.603Z</time></trkpt><trkpt lat="39.8475729" lon="16.2298057"><ele>601.0</ele><time>2026-05-03T13:25:15.585Z</time></trkpt><trkpt lat="39.8475875" lon="16.2294835"><ele>601.0</ele><time>2026-05-03T13:25:16.586Z</time></trkpt><trkpt lat="39.8476082" lon="16.2291593"><ele>601.0</ele><time>2026-05-03T13:25:17.604Z</time></trkpt><trkpt lat="39.8476232" lon="16.2288356"><ele>608.0</ele><time>2026-05-03T13:25:18.581Z</time></trkpt><trkpt lat="39.8476343" lon="16.2285062"><ele>615.0</ele><time>2026-05-03T13:25:19.581Z</time></trkpt><trkpt lat="39.8476471" lon="16.228176"><ele>618.0</ele><time>2026-05-03T13:25:20.607Z</time></trkpt><trkpt lat="39.8476585" lon="16.2278431"><ele>621.0</ele><time>2026-05-03T13:25:21.602Z</time></trkpt><trkpt lat="39.8476758" lon="16.2275073"><ele>622.5</ele><time>2026-05-03T13:25:22.582Z</time></trkpt><trkpt lat="39.8476936" lon="16.2271693"><ele>624.0</ele><time>2026-05-03T13:25:23.61Z</time></trkpt><trkpt lat="39.8477115" lon="16.2268306"><ele>624.0</ele><time>2026-05-03T13:25:24.607Z</time></trkpt><trkpt lat="39.8477233" lon="16.2264906"><ele>624.0</ele><time>2026-05-03T13:25:25.589Z</time></trkpt><trkpt lat="39.8477377" lon="16.2261462"><ele>624.5</ele><time>2026-05-03T13:25:26.597Z</time></trkpt><trkpt lat="39.8477541" lon="16.2258034"><ele>625.0</ele><time>2026-05-03T13:25:27.598Z</time></trkpt><trkpt lat="39.8477675" lon="16.2254587"><ele>626.0</ele><time>2026-05-03T13:25:28.574Z</time></trkpt><trkpt lat="39.8477831" lon="16.2251112"><ele>627.0</ele><time>2026-05-03T13:25:29.584Z</time></trkpt><trkpt lat="39.8477942" lon="16.2247655"><ele>628.5</ele><time>2026-05-03T13:25:30.593Z</time></trkpt><trkpt lat="39.8478043" lon="16.2244199"><ele>630.0</ele><time>2026-05-03T13:25:31.595Z</time></trkpt><trkpt lat="39.8478176" lon="16.2240716"><ele>631.0</ele><time>2026-05-03T13:25:32.598Z</time></trkpt><trkpt lat="39.8478357" lon="16.2237227"><ele>632.0</ele><time>2026-05-03T13:25:33.603Z</time></trkpt><trkpt lat="39.847855" lon="16.2233771"><ele>633.0</ele><time>2026-05-03T13:25:34.583Z</time></trkpt><trkpt lat="39.8478769" lon="16.2230302"><ele>634.0</ele><time>2026-05-03T13:25:35.594Z</time></trkpt><trkpt lat="39.8479083" lon="16.2226854"><ele>634.0</ele><time>2026-05-03T13:25:36.612Z</time></trkpt><trkpt lat="39.8479455" lon="16.2223421"><ele>634.0</ele><time>2026-05-03T13:25:37.59Z</time></trkpt><trkpt lat="39.8479841" lon="16.2220051"><ele>634.0</ele><time>2026-05-03T13:25:38.571Z</time></trkpt><trkpt lat="39.8480244" lon="16.2216682"><ele>634.0</ele><time>2026-05-03T13:25:39.567Z</time></trkpt><trkpt lat="39.8480655" lon="16.221338"><ele>634.5</ele><time>2026-05-03T13:25:40.598Z</time></trkpt><trkpt lat="39.8481117" lon="16.2210143"><ele>635.0</ele><time>2026-05-03T13:25:41.6Z</time></trkpt><trkpt lat="39.84816" lon="16.220687"><ele>635.5</ele><time>2026-05-03T13:25:42.606Z</time></trkpt><trkpt lat="39.8482016" lon="16.2203638"><ele>636.0</ele><time>2026-05-03T13:25:43.609Z</time></trkpt><trkpt lat="39.8482446" lon="16.2200392"><ele>636.0</ele><time>2026-05-03T13:25:44.599Z</time></trkpt><trkpt lat="39.8482839" lon="16.2197113"><ele>636.0</ele><time>2026-05-03T13:25:45.607Z</time></trkpt><trkpt lat="39.8483334" lon="16.219385"><ele>636.0</ele><time>2026-05-03T13:25:46.597Z</time></trkpt><trkpt lat="39.8483808" lon="16.2190577"><ele>636.0</ele><time>2026-05-03T13:25:47.607Z</time></trkpt><trkpt lat="39.8484306" lon="16.2187281"><ele>639.5</ele><time>2026-05-03T13:25:48.6Z</time></trkpt><trkpt lat="39.8484775" lon="16.2183957"><ele>643.0</ele><time>2026-05-03T13:25:49.603Z</time></trkpt><trkpt lat="39.8485231" lon="16.2180612"><ele>645.0</ele><time>2026-05-03T13:25:50.592Z</time></trkpt><trkpt lat="39.8485628" lon="16.2177253"><ele>647.0</ele><time>2026-05-03T13:25:51.579Z</time></trkpt><trkpt lat="39.8486092" lon="16.2173898"><ele>646.5</ele><time>2026-05-03T13:25:52.604Z</time></trkpt><trkpt lat="39.8486575" lon="16.2170506"><ele>646.0</ele><time>2026-05-03T13:25:53.576Z</time></trkpt><trkpt lat="39.8487079" lon="16.2167121"><ele>644.0</ele><time>2026-05-03T13:25:54.591Z</time></trkpt><trkpt lat="39.8487559" lon="16.216373"><ele>642.0</ele><time>2026-05-03T13:25:55.59Z</time></trkpt><trkpt lat="39.8488004" lon="16.2160346"><ele>642.0</ele><time>2026-05-03T13:25:56.604Z</time></trkpt><trkpt lat="39.8488485" lon="16.2156944"><ele>642.0</ele><time>2026-05-03T13:25:57.586Z</time></trkpt><trkpt lat="39.8488981" lon="16.2153477"><ele>642.0</ele><time>2026-05-03T13:25:58.581Z</time></trkpt><trkpt lat="39.848947" lon="16.2150029"><ele>642.0</ele><time>2026-05-03T13:25:59.604Z</time></trkpt><trkpt lat="39.848996" lon="16.2146527"><ele>642.0</ele><time>2026-05-03T13:26:00.611Z</time></trkpt><trkpt lat="39.8490418" lon="16.2143035"><ele>642.0</ele><time>2026-05-03T13:26:01.611Z</time></trkpt><trkpt lat="39.8490936" lon="16.2139537"><ele>648.0</ele><time>2026-05-03T13:26:02.601Z</time></trkpt><trkpt lat="39.8491421" lon="16.2136024"><ele>654.0</ele><time>2026-05-03T13:26:03.585Z</time></trkpt><trkpt lat="39.8491935" lon="16.2132527"><ele>661.0</ele><time>2026-05-03T13:26:04.61Z</time></trkpt><trkpt lat="39.8492419" lon="16.2128975"><ele>668.0</ele><time>2026-05-03T13:26:05.587Z</time></trkpt><trkpt lat="39.8492924" lon="16.2125485"><ele>671.0</ele><time>2026-05-03T13:26:06.579Z</time></trkpt><trkpt lat="39.849342" lon="16.2121958"><ele>674.0</ele><time>2026-05-03T13:26:07.567Z</time></trkpt><trkpt lat="39.8503234" lon="16.2091387"><ele>668.5</ele><time>2026-05-03T13:26:16.562Z</time></trkpt><trkpt lat="39.8504816" lon="16.2088374"><ele>663.0</ele><time>2026-05-03T13:26:17.571Z</time></trkpt><trkpt lat="39.8506204" lon="16.2085037"><ele>663.0</ele><time>2026-05-03T13:26:18.569Z</time></trkpt><trkpt lat="39.8507468" lon="16.2081752"><ele>663.0</ele><time>2026-05-03T13:26:19.57Z</time></trkpt><trkpt lat="39.85089" lon="16.2078591"><ele>657.5</ele><time>2026-05-03T13:26:20.579Z</time></trkpt><trkpt lat="39.851031" lon="16.207548"><ele>652.0</ele><time>2026-05-03T13:26:21.585Z</time></trkpt><trkpt lat="39.8511783" lon="16.2072346"><ele>648.0</ele><time>2026-05-03T13:26:22.591Z</time></trkpt><trkpt lat="39.8513212" lon="16.2069233"><ele>644.0</ele><time>2026-05-03T13:26:23.593Z</time></trkpt><trkpt lat="39.851467" lon="16.2066176"><ele>646.5</ele><time>2026-05-03T13:26:24.589Z</time></trkpt><trkpt lat="39.8516094" lon="16.20631"><ele>649.0</ele><time>2026-05-03T13:26:25.584Z</time></trkpt><trkpt lat="39.8517474" lon="16.206008"><ele>664.5</ele><time>2026-05-03T13:26:26.58Z</time></trkpt><trkpt lat="39.8518881" lon="16.2057034"><ele>680.0</ele><time>2026-05-03T13:26:27.571Z</time></trkpt><trkpt lat="39.8520293" lon="16.2053967"><ele>681.5</ele><time>2026-05-03T13:26:28.589Z</time></trkpt><trkpt lat="39.8521706" lon="16.2050972"><ele>683.0</ele><time>2026-05-03T13:26:29.586Z</time></trkpt><trkpt lat="39.8523132" lon="16.2048023"><ele>679.0</ele><time>2026-05-03T13:26:30.581Z</time></trkpt><trkpt lat="39.8524646" lon="16.2045047"><ele>675.0</ele><time>2026-05-03T13:26:31.575Z</time></trkpt><trkpt lat="39.8526187" lon="16.2042172"><ele>677.0</ele><time>2026-05-03T13:26:32.59Z</time></trkpt><trkpt lat="39.8527853" lon="16.2039365"><ele>679.0</ele><time>2026-05-03T13:26:33.584Z</time></trkpt><trkpt lat="39.8529561" lon="16.2036682"><ele>679.0</ele><time>2026-05-03T13:26:34.575Z</time></trkpt><trkpt lat="39.8531277" lon="16.2033951"><ele>679.0</ele><time>2026-05-03T13:26:35.587Z</time></trkpt><trkpt lat="39.8533034" lon="16.2031265"><ele>679.5</ele><time>2026-05-03T13:26:36.6Z</time></trkpt><trkpt lat="39.8534851" lon="16.2028615"><ele>680.0</ele><time>2026-05-03T13:26:37.594Z</time></trkpt><trkpt lat="39.8536669" lon="16.2025981"><ele>680.0</ele><time>2026-05-03T13:26:38.607Z</time></trkpt><trkpt lat="39.8538465" lon="16.2023362"><ele>680.0</ele><time>2026-05-03T13:26:39.583Z</time></trkpt><trkpt lat="39.8540253" lon="16.2020713"><ele>680.5</ele><time>2026-05-03T13:26:40.605Z</time></trkpt><trkpt lat="39.8542043" lon="16.2018017"><ele>681.0</ele><time>2026-05-03T13:26:41.593Z</time></trkpt><trkpt lat="39.8543838" lon="16.2015361"><ele>683.5</ele><time>2026-05-03T13:26:42.61Z</time></trkpt><trkpt lat="39.8545682" lon="16.2012732"><ele>686.0</ele><time>2026-05-03T13:26:43.592Z</time></trkpt><trkpt lat="39.8547505" lon="16.2010121"><ele>686.0</ele><time>2026-05-03T13:26:44.564Z</time></trkpt><trkpt lat="39.8549313" lon="16.2007467"><ele>686.0</ele><time>2026-05-03T13:26:45.57Z</time></trkpt><trkpt lat="39.8551134" lon="16.2004716"><ele>691.0</ele><time>2026-05-03T13:26:46.591Z</time></trkpt><trkpt lat="39.8552931" lon="16.2001949"><ele>696.0</ele><time>2026-05-03T13:26:47.601Z</time></trkpt><trkpt lat="39.8554755" lon="16.1999213"><ele>696.5</ele><time>2026-05-03T13:26:48.582Z</time></trkpt><trkpt lat="39.8556592" lon="16.1996499"><ele>697.0</ele><time>2026-05-03T13:26:49.58Z</time></trkpt><trkpt lat="39.8558474" lon="16.1993774"><ele>700.5</ele><time>2026-05-03T13:26:50.6Z</time></trkpt><trkpt lat="39.8560375" lon="16.1991138"><ele>704.0</ele><time>2026-05-03T13:26:51.595Z</time></trkpt><trkpt lat="39.8562216" lon="16.1988527"><ele>704.0</ele><time>2026-05-03T13:26:52.598Z</time></trkpt><trkpt lat="39.8563995" lon="16.1985871"><ele>704.0</ele><time>2026-05-03T13:26:53.605Z</time></trkpt><trkpt lat="39.8565718" lon="16.1983249"><ele>704.5</ele><time>2026-05-03T13:26:54.593Z</time></trkpt><trkpt lat="39.8567412" lon="16.1980727"><ele>705.0</ele><time>2026-05-03T13:26:55.598Z</time></trkpt><trkpt lat="39.8569075" lon="16.1978148"><ele>707.0</ele><time>2026-05-03T13:26:56.591Z</time></trkpt><trkpt lat="39.8570825" lon="16.1975448"><ele>709.0</ele><time>2026-05-03T13:26:57.602Z</time></trkpt><trkpt lat="39.8572604" lon="16.1972766"><ele>709.0</ele><time>2026-05-03T13:26:58.599Z</time></trkpt><trkpt lat="39.857447" lon="16.1970137"><ele>709.0</ele><time>2026-05-03T13:26:59.591Z</time></trkpt><trkpt lat="39.8576386" lon="16.1967499"><ele>713.0</ele><time>2026-05-03T13:27:00.598Z</time></trkpt><trkpt lat="39.8578236" lon="16.1964765"><ele>717.0</ele><time>2026-05-03T13:27:01.59Z</time></trkpt><trkpt lat="39.8580079" lon="16.1962"><ele>717.0</ele><time>2026-05-03T13:27:02.598Z</time></trkpt><trkpt lat="39.8581967" lon="16.1959246"><ele>717.0</ele><time>2026-05-03T13:27:03.576Z</time></trkpt><trkpt lat="39.8583927" lon="16.1956433"><ele>720.5</ele><time>2026-05-03T13:27:04.603Z</time></trkpt><trkpt lat="39.8585885" lon="16.1953571"><ele>724.0</ele><time>2026-05-03T13:27:05.589Z</time></trkpt><trkpt lat="39.8587829" lon="16.1950677"><ele>719.5</ele><time>2026-05-03T13:27:06.581Z</time></trkpt><trkpt lat="39.8589742" lon="16.1947754"><ele>715.0</ele><time>2026-05-03T13:27:07.587Z</time></trkpt><trkpt lat="39.8591695" lon="16.1944775"><ele>717.0</ele><time>2026-05-03T13:27:08.574Z</time></trkpt><trkpt lat="39.8593715" lon="16.1941793"><ele>719.0</ele><time>2026-05-03T13:27:09.577Z</time></trkpt><trkpt lat="39.8595763" lon="16.1938875"><ele>719.0</ele><time>2026-05-03T13:27:10.591Z</time></trkpt><trkpt lat="39.8597783" lon="16.1935991"><ele>719.0</ele><time>2026-05-03T13:27:11.6Z</time></trkpt><trkpt lat="39.8599824" lon="16.1933085"><ele>721.0</ele><time>2026-05-03T13:27:12.594Z</time></trkpt><trkpt lat="39.8601851" lon="16.1930166"><ele>723.0</ele><time>2026-05-03T13:27:13.586Z</time></trkpt><trkpt lat="39.8603834" lon="16.1927241"><ele>723.0</ele><time>2026-05-03T13:27:14.603Z</time></trkpt><trkpt lat="39.8605758" lon="16.1924265"><ele>723.0</ele><time>2026-05-03T13:27:15.594Z</time></trkpt><trkpt lat="39.8607594" lon="16.1921248"><ele>723.5</ele><time>2026-05-03T13:27:16.596Z</time></trkpt><trkpt lat="39.8609399" lon="16.1918153"><ele>724.0</ele><time>2026-05-03T13:27:17.597Z</time></trkpt><trkpt lat="39.8611167" lon="16.1914985"><ele>724.0</ele><time>2026-05-03T13:27:18.598Z</time></trkpt><trkpt lat="39.8612879" lon="16.1911762"><ele>724.0</ele><time>2026-05-03T13:27:19.591Z</time></trkpt><trkpt lat="39.8614548" lon="16.1908465"><ele>721.5</ele><time>2026-05-03T13:27:20.596Z</time></trkpt><trkpt lat="39.8616157" lon="16.1905112"><ele>719.0</ele><time>2026-05-03T13:27:21.57Z</time></trkpt><trkpt lat="39.8617755" lon="16.1901746"><ele>723.5</ele><time>2026-05-03T13:27:22.582Z</time></trkpt><trkpt lat="39.8619369" lon="16.189838"><ele>728.0</ele><time>2026-05-03T13:27:23.597Z</time></trkpt><trkpt lat="39.8621015" lon="16.1895017"><ele>728.0</ele><time>2026-05-03T13:27:24.592Z</time></trkpt><trkpt lat="39.8622656" lon="16.1891651"><ele>728.0</ele><time>2026-05-03T13:27:25.568Z</time></trkpt><trkpt lat="39.8624263" lon="16.1888314"><ele>739.0</ele><time>2026-05-03T13:27:26.582Z</time></trkpt><trkpt lat="39.8627349" lon="16.1881622"><ele>739.0</ele><time>2026-05-03T13:27:28.595Z</time></trkpt><trkpt lat="39.8628878" lon="16.1878276"><ele>739.0</ele><time>2026-05-03T13:27:29.612Z</time></trkpt><trkpt lat="39.8630356" lon="16.1874936"><ele>734.0</ele><time>2026-05-03T13:27:30.591Z</time></trkpt><trkpt lat="39.8631884" lon="16.1871603"><ele>729.0</ele><time>2026-05-03T13:27:31.585Z</time></trkpt><trkpt lat="39.8633417" lon="16.1868378"><ele>729.0</ele><time>2026-05-03T13:27:32.597Z</time></trkpt><trkpt lat="39.8634963" lon="16.1865274"><ele>729.0</ele><time>2026-05-03T13:27:33.566Z</time></trkpt><trkpt lat="39.8636383" lon="16.1862342"><ele>729.0</ele><time>2026-05-03T13:27:34.594Z</time></trkpt><trkpt lat="39.863779" lon="16.1859467"><ele>729.0</ele><time>2026-05-03T13:27:35.601Z</time></trkpt><trkpt lat="39.8639211" lon="16.1856548"><ele>730.0</ele><time>2026-05-03T13:27:36.569Z</time></trkpt><trkpt lat="39.8640618" lon="16.1853626"><ele>731.0</ele><time>2026-05-03T13:27:37.586Z</time></trkpt><trkpt lat="39.8642019" lon="16.1850729"><ele>736.5</ele><time>2026-05-03T13:27:38.595Z</time></trkpt><trkpt lat="39.8643436" lon="16.1847821"><ele>742.0</ele><time>2026-05-03T13:27:39.603Z</time></trkpt><trkpt lat="39.8644809" lon="16.1844938"><ele>742.0</ele><time>2026-05-03T13:27:40.6Z</time></trkpt><trkpt lat="39.8646254" lon="16.1842013"><ele>742.0</ele><time>2026-05-03T13:27:41.61Z</time></trkpt><trkpt lat="39.8647798" lon="16.1839176"><ele>743.0</ele><time>2026-05-03T13:27:42.592Z</time></trkpt><trkpt lat="39.8649406" lon="16.1836372"><ele>744.0</ele><time>2026-05-03T13:27:43.583Z</time></trkpt><trkpt lat="39.8651053" lon="16.1833591"><ele>748.5</ele><time>2026-05-03T13:27:44.574Z</time></trkpt><trkpt lat="39.8652756" lon="16.1830903"><ele>753.0</ele><time>2026-05-03T13:27:45.583Z</time></trkpt><trkpt lat="39.8654469" lon="16.1828229"><ele>753.0</ele><time>2026-05-03T13:27:46.588Z</time></trkpt><trkpt lat="39.8656205" lon="16.1825571"><ele>753.0</ele><time>2026-05-03T13:27:47.582Z</time></trkpt><trkpt lat="39.8657931" lon="16.1822919"><ele>758.5</ele><time>2026-05-03T13:27:48.586Z</time></trkpt><trkpt lat="39.865966" lon="16.1820224"><ele>764.0</ele><time>2026-05-03T13:27:49.601Z</time></trkpt><trkpt lat="39.8661359" lon="16.1817535"><ele>761.5</ele><time>2026-05-03T13:27:50.592Z</time></trkpt><trkpt lat="39.8663091" lon="16.1814821"><ele>759.0</ele><time>2026-05-03T13:27:51.572Z</time></trkpt><trkpt lat="39.8664863" lon="16.1812099"><ele>759.0</ele><time>2026-05-03T13:27:52.591Z</time></trkpt><trkpt lat="39.8666626" lon="16.180936"><ele>759.0</ele><time>2026-05-03T13:27:53.599Z</time></trkpt><trkpt lat="39.8668419" lon="16.1806679"><ele>762.5</ele><time>2026-05-03T13:27:54.592Z</time></trkpt><trkpt lat="39.8670174" lon="16.1803979"><ele>766.0</ele><time>2026-05-03T13:27:55.587Z</time></trkpt><trkpt lat="39.8671915" lon="16.1801266"><ele>766.0</ele><time>2026-05-03T13:27:56.579Z</time></trkpt><trkpt lat="39.8673616" lon="16.1798562"><ele>766.0</ele><time>2026-05-03T13:27:57.569Z</time></trkpt><trkpt lat="39.8675356" lon="16.1795897"><ele>769.0</ele><time>2026-05-03T13:27:58.582Z</time></trkpt><trkpt lat="39.8677089" lon="16.1793253"><ele>772.0</ele><time>2026-05-03T13:27:59.587Z</time></trkpt><trkpt lat="39.8678832" lon="16.1790576"><ele>768.0</ele><time>2026-05-03T13:28:00.582Z</time></trkpt><trkpt lat="39.8680546" lon="16.1787912"><ele>764.0</ele><time>2026-05-03T13:28:01.577Z</time></trkpt><trkpt lat="39.8682259" lon="16.1785249"><ele>764.0</ele><time>2026-05-03T13:28:02.597Z</time></trkpt><trkpt lat="39.8683997" lon="16.1782639"><ele>764.0</ele><time>2026-05-03T13:28:03.601Z</time></trkpt><trkpt lat="39.8685695" lon="16.1780092"><ele>763.0</ele><time>2026-05-03T13:28:04.605Z</time></trkpt><trkpt lat="39.8687358" lon="16.1777557"><ele>762.0</ele><time>2026-05-03T13:28:05.596Z</time></trkpt><trkpt lat="39.8689006" lon="16.177505"><ele>759.5</ele><time>2026-05-03T13:28:06.594Z</time></trkpt><trkpt lat="39.8690673" lon="16.1772575"><ele>757.0</ele><time>2026-05-03T13:28:07.597Z</time></trkpt><trkpt lat="39.8692342" lon="16.1770081"><ele>761.5</ele><time>2026-05-03T13:28:08.599Z</time></trkpt><trkpt lat="39.8693958" lon="16.1767627"><ele>766.0</ele><time>2026-05-03T13:28:09.586Z</time></trkpt><trkpt lat="39.8695596" lon="16.1765151"><ele>766.0</ele><time>2026-05-03T13:28:10.613Z</time></trkpt><trkpt lat="39.8697205" lon="16.1762675"><ele>766.0</ele><time>2026-05-03T13:28:11.609Z</time></trkpt><trkpt lat="39.8698862" lon="16.1760171"><ele>766.0</ele><time>2026-05-03T13:28:12.581Z</time></trkpt><trkpt lat="39.8700481" lon="16.1757702"><ele>766.0</ele><time>2026-05-03T13:28:13.574Z</time></trkpt><trkpt lat="39.8702118" lon="16.1755173"><ele>772.0</ele><time>2026-05-03T13:28:14.583Z</time></trkpt><trkpt lat="39.8703697" lon="16.1752652"><ele>778.0</ele><time>2026-05-03T13:28:15.562Z</time></trkpt><trkpt lat="39.8705335" lon="16.175016"><ele>777.0</ele><time>2026-05-03T13:28:16.566Z</time></trkpt><trkpt lat="39.870699" lon="16.1747619"><ele>776.0</ele><time>2026-05-03T13:28:17.579Z</time></trkpt><trkpt lat="39.8708664" lon="16.1745094"><ele>781.0</ele><time>2026-05-03T13:28:18.571Z</time></trkpt><trkpt lat="39.8710344" lon="16.174253"><ele>786.0</ele><time>2026-05-03T13:28:19.577Z</time></trkpt><trkpt lat="39.8712041" lon="16.174001"><ele>786.0</ele><time>2026-05-03T13:28:20.567Z</time></trkpt><trkpt lat="39.8713711" lon="16.1737422"><ele>786.0</ele><time>2026-05-03T13:28:21.566Z</time></trkpt><trkpt lat="39.8715402" lon="16.1734822"><ele>786.0</ele><time>2026-05-03T13:28:22.575Z</time></trkpt><trkpt lat="39.8717059" lon="16.1732226"><ele>786.0</ele><time>2026-05-03T13:28:23.565Z</time></trkpt><trkpt lat="39.8718739" lon="16.1729692"><ele>786.0</ele><time>2026-05-03T13:28:24.565Z</time></trkpt><trkpt lat="39.8720515" lon="16.1727294"><ele>786.0</ele><time>2026-05-03T13:28:25.581Z</time></trkpt><trkpt lat="39.8722134" lon="16.172472"><ele>786.0</ele><time>2026-05-03T13:28:26.587Z</time></trkpt><trkpt lat="39.8723738" lon="16.1722125"><ele>786.0</ele><time>2026-05-03T13:28:27.573Z</time></trkpt><trkpt lat="39.8725351" lon="16.171953"><ele>789.0</ele><time>2026-05-03T13:28:28.589Z</time></trkpt><trkpt lat="39.8726972" lon="16.1716974"><ele>792.0</ele><time>2026-05-03T13:28:29.615Z</time></trkpt><trkpt lat="39.8728625" lon="16.1714515"><ele>792.0</ele><time>2026-05-03T13:28:30.596Z</time></trkpt><trkpt lat="39.8730265" lon="16.1712034"><ele>792.0</ele><time>2026-05-03T13:28:31.582Z</time></trkpt><trkpt lat="39.8731917" lon="16.1709594"><ele>792.0</ele><time>2026-05-03T13:28:32.589Z</time></trkpt><trkpt lat="39.8733521" lon="16.1707093"><ele>792.0</ele><time>2026-05-03T13:28:33.595Z</time></trkpt><trkpt lat="39.8735121" lon="16.170461"><ele>795.0</ele><time>2026-05-03T13:28:34.584Z</time></trkpt><trkpt lat="39.8736729" lon="16.1702128"><ele>798.0</ele><time>2026-05-03T13:28:35.591Z</time></trkpt><trkpt lat="39.8738322" lon="16.1699659"><ele>797.0</ele><time>2026-05-03T13:28:36.593Z</time></trkpt><trkpt lat="39.873989" lon="16.169719"><ele>796.0</ele><time>2026-05-03T13:28:37.598Z</time></trkpt><trkpt lat="39.8741494" lon="16.169475"><ele>798.5</ele><time>2026-05-03T13:28:38.597Z</time></trkpt><trkpt lat="39.8743113" lon="16.1692322"><ele>801.0</ele><time>2026-05-03T13:28:39.584Z</time></trkpt><trkpt lat="39.8744729" lon="16.1689867"><ele>801.0</ele><time>2026-05-03T13:28:40.606Z</time></trkpt><trkpt lat="39.8746381" lon="16.1687478"><ele>801.0</ele><time>2026-05-03T13:28:41.562Z</time></trkpt><trkpt lat="39.87481" lon="16.1685182"><ele>801.0</ele><time>2026-05-03T13:28:42.583Z</time></trkpt><trkpt lat="39.8749896" lon="16.1682994"><ele>801.0</ele><time>2026-05-03T13:28:43.592Z</time></trkpt><trkpt lat="39.8751754" lon="16.1680821"><ele>803.5</ele><time>2026-05-03T13:28:44.589Z</time></trkpt><trkpt lat="39.8753636" lon="16.1678651"><ele>806.0</ele><time>2026-05-03T13:28:45.595Z</time></trkpt><trkpt lat="39.8755566" lon="16.1676555"><ele>806.0</ele><time>2026-05-03T13:28:46.616Z</time></trkpt><trkpt lat="39.8757577" lon="16.1674549"><ele>806.0</ele><time>2026-05-03T13:28:47.591Z</time></trkpt><trkpt lat="39.8759675" lon="16.1672619"><ele>807.5</ele><time>2026-05-03T13:28:48.555Z</time></trkpt><trkpt lat="39.8761739" lon="16.16707"><ele>809.0</ele><time>2026-05-03T13:28:49.588Z</time></trkpt><trkpt lat="39.8763834" lon="16.1668796"><ele>809.0</ele><time>2026-05-03T13:28:50.577Z</time></trkpt><trkpt lat="39.8765945" lon="16.166688"><ele>809.0</ele><time>2026-05-03T13:28:51.577Z</time></trkpt><trkpt lat="39.8768031" lon="16.166496"><ele>809.0</ele><time>2026-05-03T13:28:52.598Z</time></trkpt><trkpt lat="39.8770087" lon="16.1663025"><ele>809.0</ele><time>2026-05-03T13:28:53.574Z</time></trkpt><trkpt lat="39.8772149" lon="16.1661076"><ele>809.0</ele><time>2026-05-03T13:28:54.582Z</time></trkpt><trkpt lat="39.8774248" lon="16.1659104"><ele>809.0</ele><time>2026-05-03T13:28:55.568Z</time></trkpt><trkpt lat="39.8776334" lon="16.1657229"><ele>812.5</ele><time>2026-05-03T13:28:56.576Z</time></trkpt><trkpt lat="39.8778447" lon="16.1655327"><ele>816.0</ele><time>2026-05-03T13:28:57.582Z</time></trkpt><trkpt lat="39.8780539" lon="16.1653413"><ele>816.0</ele><time>2026-05-03T13:28:58.579Z</time></trkpt><trkpt lat="39.8782641" lon="16.165148"><ele>816.0</ele><time>2026-05-03T13:28:59.564Z</time></trkpt><trkpt lat="39.8784717" lon="16.1649513"><ele>819.0</ele><time>2026-05-03T13:29:00.583Z</time></trkpt><trkpt lat="39.8786806" lon="16.1647541"><ele>822.0</ele><time>2026-05-03T13:29:01.583Z</time></trkpt><trkpt lat="39.8788922" lon="16.1645593"><ele>822.0</ele><time>2026-05-03T13:29:02.585Z</time></trkpt><trkpt lat="39.8791049" lon="16.1643651"><ele>822.0</ele><time>2026-05-03T13:29:03.589Z</time></trkpt><trkpt lat="39.8793197" lon="16.1641721"><ele>824.0</ele><time>2026-05-03T13:29:04.59Z</time></trkpt><trkpt lat="39.8795343" lon="16.1639753"><ele>826.0</ele><time>2026-05-03T13:29:05.576Z</time></trkpt><trkpt lat="39.8797444" lon="16.1637767"><ele>826.0</ele><time>2026-05-03T13:29:06.577Z</time></trkpt><trkpt lat="39.8799565" lon="16.163578"><ele>826.0</ele><time>2026-05-03T13:29:07.586Z</time></trkpt><trkpt lat="39.8801679" lon="16.1633775"><ele>826.0</ele><time>2026-05-03T13:29:08.591Z</time></trkpt><trkpt lat="39.8803807" lon="16.1631763"><ele>826.0</ele><time>2026-05-03T13:29:09.578Z</time></trkpt><trkpt lat="39.8805985" lon="16.1629758"><ele>826.0</ele><time>2026-05-03T13:29:10.569Z</time></trkpt><trkpt lat="39.8808136" lon="16.1627757"><ele>826.0</ele><time>2026-05-03T13:29:11.564Z</time></trkpt><trkpt lat="39.8810256" lon="16.1625678"><ele>830.0</ele><time>2026-05-03T13:29:12.574Z</time></trkpt><trkpt lat="39.8812429" lon="16.1623652"><ele>834.0</ele><time>2026-05-03T13:29:13.596Z</time></trkpt><trkpt lat="39.881463" lon="16.1621614"><ele>834.0</ele><time>2026-05-03T13:29:14.605Z</time></trkpt><trkpt lat="39.8816845" lon="16.1619555"><ele>834.0</ele><time>2026-05-03T13:29:15.606Z</time></trkpt><trkpt lat="39.8819073" lon="16.1617522"><ele>837.0</ele><time>2026-05-03T13:29:16.598Z</time></trkpt><trkpt lat="39.882128" lon="16.1615434"><ele>840.0</ele><time>2026-05-03T13:29:17.607Z</time></trkpt><trkpt lat="39.882347" lon="16.161333"><ele>840.0</ele><time>2026-05-03T13:29:18.602Z</time></trkpt><trkpt lat="39.8825693" lon="16.1611257"><ele>840.0</ele><time>2026-05-03T13:29:19.573Z</time></trkpt><trkpt lat="39.8827891" lon="16.1609133"><ele>842.5</ele><time>2026-05-03T13:29:20.591Z</time></trkpt><trkpt lat="39.8830086" lon="16.1607075"><ele>845.0</ele><time>2026-05-03T13:29:21.581Z</time></trkpt><trkpt lat="39.8832292" lon="16.1604992"><ele>850.0</ele><time>2026-05-03T13:29:22.577Z</time></trkpt><trkpt lat="39.8834609" lon="16.1602967"><ele>855.0</ele><time>2026-05-03T13:29:23.576Z</time></trkpt><trkpt lat="39.8836805" lon="16.1601009"><ele>855.0</ele><time>2026-05-03T13:29:24.597Z</time></trkpt><trkpt lat="39.8838978" lon="16.1599075"><ele>855.0</ele><time>2026-05-03T13:29:25.578Z</time></trkpt><trkpt lat="39.884116" lon="16.1597071"><ele>856.5</ele><time>2026-05-03T13:29:26.597Z</time></trkpt><trkpt lat="39.8843285" lon="16.1594922"><ele>858.0</ele><time>2026-05-03T13:29:27.587Z</time></trkpt><trkpt lat="39.8845354" lon="16.1592665"><ele>858.0</ele><time>2026-05-03T13:29:28.579Z</time></trkpt><trkpt lat="39.8847428" lon="16.1590372"><ele>858.0</ele><time>2026-05-03T13:29:29.605Z</time></trkpt><trkpt lat="39.8849438" lon="16.158801"><ele>865.5</ele><time>2026-05-03T13:29:30.601Z</time></trkpt><trkpt lat="39.8851381" lon="16.1585586"><ele>873.0</ele><time>2026-05-03T13:29:31.607Z</time></trkpt><trkpt lat="39.8853244" lon="16.1583065"><ele>864.5</ele><time>2026-05-03T13:29:32.599Z</time></trkpt><trkpt lat="39.8855119" lon="16.1580466"><ele>856.0</ele><time>2026-05-03T13:29:33.59Z</time></trkpt><trkpt lat="39.8856934" lon="16.1577807"><ele>856.0</ele><time>2026-05-03T13:29:34.586Z</time></trkpt><trkpt lat="39.8858692" lon="16.1575101"><ele>856.0</ele><time>2026-05-03T13:29:35.597Z</time></trkpt><trkpt lat="39.886037" lon="16.1572289"><ele>856.5</ele><time>2026-05-03T13:29:36.591Z</time></trkpt><trkpt lat="39.8862041" lon="16.1569431"><ele>857.0</ele><time>2026-05-03T13:29:37.576Z</time></trkpt><trkpt lat="39.8863742" lon="16.1566551"><ele>856.5</ele><time>2026-05-03T13:29:38.577Z</time></trkpt><trkpt lat="39.8865441" lon="16.1563691"><ele>856.0</ele><time>2026-05-03T13:29:39.598Z</time></trkpt><trkpt lat="39.8867171" lon="16.1560837"><ele>865.5</ele><time>2026-05-03T13:29:40.565Z</time></trkpt><trkpt lat="39.8868901" lon="16.1558026"><ele>875.0</ele><time>2026-05-03T13:29:41.555Z</time></trkpt><trkpt lat="39.8870649" lon="16.1555195"><ele>875.0</ele><time>2026-05-03T13:29:42.553Z</time></trkpt><trkpt lat="39.8872365" lon="16.1552335"><ele>875.0</ele><time>2026-05-03T13:29:43.556Z</time></trkpt><trkpt lat="39.8874005" lon="16.1549441"><ele>882.0</ele><time>2026-05-03T13:29:44.567Z</time></trkpt><trkpt lat="39.8875601" lon="16.1546462"><ele>889.0</ele><time>2026-05-03T13:29:45.586Z</time></trkpt><trkpt lat="39.8877103" lon="16.1543493"><ele>889.0</ele><time>2026-05-03T13:29:46.571Z</time></trkpt><trkpt lat="39.887861" lon="16.1540478"><ele>889.0</ele><time>2026-05-03T13:29:47.573Z</time></trkpt><trkpt lat="39.8880057" lon="16.1537433"><ele>882.0</ele><time>2026-05-03T13:29:48.593Z</time></trkpt><trkpt lat="39.8881442" lon="16.1534318"><ele>875.0</ele><time>2026-05-03T13:29:49.579Z</time></trkpt><trkpt lat="39.8882809" lon="16.1531193"><ele>874.5</ele><time>2026-05-03T13:29:50.589Z</time></trkpt><trkpt lat="39.888409" lon="16.1527937"><ele>874.0</ele><time>2026-05-03T13:29:51.567Z</time></trkpt><trkpt lat="39.8885281" lon="16.1524634"><ele>892.0</ele><time>2026-05-03T13:29:52.594Z</time></trkpt><trkpt lat="39.8886481" lon="16.1521123"><ele>910.0</ele><time>2026-05-03T13:29:53.591Z</time></trkpt><trkpt lat="39.8887693" lon="16.1517627"><ele>898.0</ele><time>2026-05-03T13:29:54.579Z</time></trkpt><trkpt lat="39.8893937" lon="16.1497094"><ele>899.0</ele><time>2026-05-03T13:30:00.576Z</time></trkpt><trkpt lat="39.8895532" lon="16.1489942"><ele>899.0</ele><time>2026-05-03T13:30:02.577Z</time></trkpt><trkpt lat="39.8896248" lon="16.1486373"><ele>899.0</ele><time>2026-05-03T13:30:03.6Z</time></trkpt><trkpt lat="39.8896919" lon="16.1482702"><ele>895.5</ele><time>2026-05-03T13:30:04.591Z</time></trkpt><trkpt lat="39.8897428" lon="16.147903"><ele>892.0</ele><time>2026-05-03T13:30:05.593Z</time></trkpt><trkpt lat="39.8897768" lon="16.1475306"><ele>891.0</ele><time>2026-05-03T13:30:06.597Z</time></trkpt><trkpt lat="39.8897989" lon="16.1471586"><ele>890.0</ele><time>2026-05-03T13:30:07.569Z</time></trkpt><trkpt lat="39.8898177" lon="16.1467855"><ele>895.5</ele><time>2026-05-03T13:30:08.605Z</time></trkpt><trkpt lat="39.8898466" lon="16.1464129"><ele>901.0</ele><time>2026-05-03T13:30:09.584Z</time></trkpt><trkpt lat="39.8898602" lon="16.146046"><ele>904.0</ele><time>2026-05-03T13:30:10.585Z</time></trkpt><trkpt lat="39.8898559" lon="16.1456841"><ele>907.0</ele><time>2026-05-03T13:30:11.604Z</time></trkpt><trkpt lat="39.8898475" lon="16.1453185"><ele>907.0</ele><time>2026-05-03T13:30:12.575Z</time></trkpt><trkpt lat="39.8898386" lon="16.1449486"><ele>907.0</ele><time>2026-05-03T13:30:13.556Z</time></trkpt><trkpt lat="39.8898245" lon="16.1445792"><ele>901.5</ele><time>2026-05-03T13:30:14.559Z</time></trkpt><trkpt lat="39.8898054" lon="16.1442057"><ele>896.0</ele><time>2026-05-03T13:30:15.569Z</time></trkpt><trkpt lat="39.8897746" lon="16.1438346"><ele>895.5</ele><time>2026-05-03T13:30:16.562Z</time></trkpt><trkpt lat="39.8897323" lon="16.1434658"><ele>895.0</ele><time>2026-05-03T13:30:17.556Z</time></trkpt><trkpt lat="39.8896835" lon="16.143099"><ele>900.5</ele><time>2026-05-03T13:30:18.588Z</time></trkpt><trkpt lat="39.8896267" lon="16.1427377"><ele>906.0</ele><time>2026-05-03T13:30:19.565Z</time></trkpt><trkpt lat="39.8895606" lon="16.1423831"><ele>904.0</ele><time>2026-05-03T13:30:20.597Z</time></trkpt><trkpt lat="39.8894912" lon="16.1420313"><ele>902.0</ele><time>2026-05-03T13:30:21.593Z</time></trkpt><trkpt lat="39.8894118" lon="16.1416859"><ele>895.5</ele><time>2026-05-03T13:30:22.601Z</time></trkpt><trkpt lat="39.8893285" lon="16.1413461"><ele>889.0</ele><time>2026-05-03T13:30:23.592Z</time></trkpt><trkpt lat="39.8892322" lon="16.141007"><ele>889.5</ele><time>2026-05-03T13:30:24.571Z</time></trkpt><trkpt lat="39.8891303" lon="16.140672"><ele>890.0</ele><time>2026-05-03T13:30:25.562Z</time></trkpt><trkpt lat="39.8890203" lon="16.1403443"><ele>890.0</ele><time>2026-05-03T13:30:26.565Z</time></trkpt><trkpt lat="39.8889052" lon="16.1400197"><ele>890.0</ele><time>2026-05-03T13:30:27.582Z</time></trkpt><trkpt lat="39.8887807" lon="16.1396992"><ele>903.5</ele><time>2026-05-03T13:30:28.556Z</time></trkpt><trkpt lat="39.8886481" lon="16.1393854"><ele>917.0</ele><time>2026-05-03T13:30:29.576Z</time></trkpt><trkpt lat="39.8885155" lon="16.1390681"><ele>935.0</ele><time>2026-05-03T13:30:30.561Z</time></trkpt><trkpt lat="39.8838079" lon="16.1332877"><ele>936.0</ele><time>2026-05-03T13:30:52.572Z</time></trkpt><trkpt lat="39.8836005" lon="16.1330867"><ele>937.0</ele><time>2026-05-03T13:30:53.577Z</time></trkpt><trkpt lat="39.8833533" lon="16.1328616"><ele>937.0</ele><time>2026-05-03T13:30:54.577Z</time></trkpt><trkpt lat="39.8831162" lon="16.1326431"><ele>937.0</ele><time>2026-05-03T13:30:55.581Z</time></trkpt><trkpt lat="39.8828937" lon="16.1324309"><ele>938.5</ele><time>2026-05-03T13:30:56.582Z</time></trkpt><trkpt lat="39.882678" lon="16.1322233"><ele>940.0</ele><time>2026-05-03T13:30:57.576Z</time></trkpt><trkpt lat="39.8824558" lon="16.1320063"><ele>940.0</ele><time>2026-05-03T13:30:58.596Z</time></trkpt><trkpt lat="39.8822419" lon="16.1317831"><ele>940.0</ele><time>2026-05-03T13:30:59.582Z</time></trkpt><trkpt lat="39.8820382" lon="16.131556"><ele>943.0</ele><time>2026-05-03T13:31:00.589Z</time></trkpt><trkpt lat="39.8818398" lon="16.1313211"><ele>946.0</ele><time>2026-05-03T13:31:01.572Z</time></trkpt><trkpt lat="39.8816423" lon="16.1310859"><ele>946.0</ele><time>2026-05-03T13:31:02.569Z</time></trkpt><trkpt lat="39.8814442" lon="16.1308499"><ele>946.0</ele><time>2026-05-03T13:31:03.58Z</time></trkpt><trkpt lat="39.8812467" lon="16.130607"><ele>937.5</ele><time>2026-05-03T13:31:04.568Z</time></trkpt><trkpt lat="39.8810453" lon="16.1303707"><ele>929.0</ele><time>2026-05-03T13:31:05.578Z</time></trkpt><trkpt lat="39.8808418" lon="16.1301352"><ele>929.0</ele><time>2026-05-03T13:31:06.598Z</time></trkpt><trkpt lat="39.8806391" lon="16.129906"><ele>929.0</ele><time>2026-05-03T13:31:07.591Z</time></trkpt><trkpt lat="39.8804309" lon="16.1296914"><ele>929.0</ele><time>2026-05-03T13:31:08.594Z</time></trkpt><trkpt lat="39.8802162" lon="16.1294897"><ele>929.0</ele><time>2026-05-03T13:31:09.591Z</time></trkpt><trkpt lat="39.879993" lon="16.1293022"><ele>905.5</ele><time>2026-05-03T13:31:10.582Z</time></trkpt><trkpt lat="39.8797718" lon="16.1291285"><ele>882.0</ele><time>2026-05-03T13:31:11.584Z</time></trkpt><trkpt lat="39.8795494" lon="16.1289512"><ele>878.0</ele><time>2026-05-03T13:31:12.595Z</time></trkpt><trkpt lat="39.8793308" lon="16.1287706"><ele>874.0</ele><time>2026-05-03T13:31:13.582Z</time></trkpt><trkpt lat="39.8791117" lon="16.1285808"><ele>874.0</ele><time>2026-05-03T13:31:14.604Z</time></trkpt><trkpt lat="39.878894" lon="16.1283952"><ele>874.0</ele><time>2026-05-03T13:31:15.578Z</time></trkpt><trkpt lat="39.878675" lon="16.1282137"><ele>891.0</ele><time>2026-05-03T13:31:16.591Z</time></trkpt><trkpt lat="39.878451" lon="16.1280372"><ele>908.0</ele><time>2026-05-03T13:31:17.586Z</time></trkpt><trkpt lat="39.8782192" lon="16.1278601"><ele>908.0</ele><time>2026-05-03T13:31:18.589Z</time></trkpt><trkpt lat="39.8779939" lon="16.1276714"><ele>908.0</ele><time>2026-05-03T13:31:19.564Z</time></trkpt><trkpt lat="39.8777661" lon="16.1274844"><ele>933.0</ele><time>2026-05-03T13:31:20.594Z</time></trkpt><trkpt lat="39.8775454" lon="16.1272943"><ele>958.0</ele><time>2026-05-03T13:31:21.598Z</time></trkpt><trkpt lat="39.8773228" lon="16.127103"><ele>958.0</ele><time>2026-05-03T13:31:22.588Z</time></trkpt><trkpt lat="39.877099" lon="16.1269203"><ele>958.0</ele><time>2026-05-03T13:31:23.591Z</time></trkpt><trkpt lat="39.8768644" lon="16.126748"><ele>953.5</ele><time>2026-05-03T13:31:24.607Z</time></trkpt><trkpt lat="39.8766214" lon="16.1265908"><ele>949.0</ele><time>2026-05-03T13:31:25.581Z</time></trkpt><trkpt lat="39.8700655" lon="16.1195708"><ele>949.0</ele><time>2026-05-03T13:31:56.574Z</time></trkpt><trkpt lat="39.8700132" lon="16.1193134"><ele>949.0</ele><time>2026-05-03T13:31:57.578Z</time></trkpt><trkpt lat="39.8699098" lon="16.1190191"><ele>951.0</ele><time>2026-05-03T13:31:58.569Z</time></trkpt><trkpt lat="39.8698147" lon="16.1186988"><ele>953.0</ele><time>2026-05-03T13:31:59.576Z</time></trkpt><trkpt lat="39.8697128" lon="16.1183861"><ele>964.5</ele><time>2026-05-03T13:32:00.593Z</time></trkpt><trkpt lat="39.8696207" lon="16.1180737"><ele>976.0</ele><time>2026-05-03T13:32:01.598Z</time></trkpt><trkpt lat="39.8695301" lon="16.1177599"><ele>976.0</ele><time>2026-05-03T13:32:02.575Z</time></trkpt><trkpt lat="39.8694551" lon="16.1174441"><ele>976.0</ele><time>2026-05-03T13:32:03.59Z</time></trkpt><trkpt lat="39.8693867" lon="16.1171237"><ele>978.0</ele><time>2026-05-03T13:32:04.589Z</time></trkpt><trkpt lat="39.8693266" lon="16.1167982"><ele>980.0</ele><time>2026-05-03T13:32:05.586Z</time></trkpt><trkpt lat="39.8692618" lon="16.1164718"><ele>980.0</ele><time>2026-05-03T13:32:06.589Z</time></trkpt><trkpt lat="39.8691944" lon="16.116142"><ele>980.0</ele><time>2026-05-03T13:32:07.598Z</time></trkpt><trkpt lat="39.8691255" lon="16.1158071"><ele>978.5</ele><time>2026-05-03T13:32:08.588Z</time></trkpt><trkpt lat="39.8690585" lon="16.1154743"><ele>977.0</ele><time>2026-05-03T13:32:09.598Z</time></trkpt><trkpt lat="39.8689892" lon="16.1151445"><ele>971.5</ele><time>2026-05-03T13:32:10.597Z</time></trkpt><trkpt lat="39.8689215" lon="16.1148123"><ele>966.0</ele><time>2026-05-03T13:32:11.592Z</time></trkpt><trkpt lat="39.8688573" lon="16.1144833"><ele>966.0</ele><time>2026-05-03T13:32:12.571Z</time></trkpt><trkpt lat="39.8687943" lon="16.114155"><ele>966.0</ele><time>2026-05-03T13:32:13.577Z</time></trkpt><trkpt lat="39.868731" lon="16.1138268"><ele>970.0</ele><time>2026-05-03T13:32:14.587Z</time></trkpt><trkpt lat="39.8686698" lon="16.1134928"><ele>974.0</ele><time>2026-05-03T13:32:15.579Z</time></trkpt><trkpt lat="39.868601" lon="16.1131683"><ele>982.0</ele><time>2026-05-03T13:32:16.581Z</time></trkpt><trkpt lat="39.8685473" lon="16.112834"><ele>990.0</ele><time>2026-05-03T13:32:17.579Z</time></trkpt><trkpt lat="39.8685038" lon="16.112495"><ele>988.0</ele><time>2026-05-03T13:32:18.583Z</time></trkpt><trkpt lat="39.8684584" lon="16.1121543"><ele>986.0</ele><time>2026-05-03T13:32:19.568Z</time></trkpt><trkpt lat="39.8684178" lon="16.1118146"><ele>986.0</ele><time>2026-05-03T13:32:20.557Z</time></trkpt><trkpt lat="39.8683784" lon="16.1114791"><ele>986.0</ele><time>2026-05-03T13:32:21.569Z</time></trkpt><trkpt lat="39.8683334" lon="16.1111433"><ele>986.0</ele><time>2026-05-03T13:32:22.572Z</time></trkpt><trkpt lat="39.8682959" lon="16.110806"><ele>986.0</ele><time>2026-05-03T13:32:23.615Z</time></trkpt><trkpt lat="39.868263" lon="16.1104729"><ele>986.0</ele><time>2026-05-03T13:32:24.561Z</time></trkpt><trkpt lat="39.868225" lon="16.1101403"><ele>986.0</ele><time>2026-05-03T13:32:25.553Z</time></trkpt><trkpt lat="39.8681862" lon="16.1098094"><ele>986.0</ele><time>2026-05-03T13:32:26.57Z</time></trkpt><trkpt lat="39.868151" lon="16.1094775"><ele>986.0</ele><time>2026-05-03T13:32:27.582Z</time></trkpt><trkpt lat="39.8681117" lon="16.109147"><ele>995.5</ele><time>2026-05-03T13:32:28.586Z</time></trkpt><trkpt lat="39.8680775" lon="16.1088125"><ele>1005.0</ele><time>2026-05-03T13:32:29.576Z</time></trkpt><trkpt lat="39.8680415" lon="16.1084815"><ele>1009.5</ele><time>2026-05-03T13:32:30.575Z</time></trkpt><trkpt lat="39.8680057" lon="16.1081507"><ele>1014.0</ele><time>2026-05-03T13:32:31.579Z</time></trkpt><trkpt lat="39.8679676" lon="16.1078156"><ele>1014.0</ele><time>2026-05-03T13:32:32.584Z</time></trkpt><trkpt lat="39.8679302" lon="16.1074855"><ele>1014.0</ele><time>2026-05-03T13:32:33.575Z</time></trkpt><trkpt lat="39.8678981" lon="16.1071556"><ele>1014.0</ele><time>2026-05-03T13:32:34.588Z</time></trkpt><trkpt lat="39.8678715" lon="16.1068275"><ele>1014.0</ele><time>2026-05-03T13:32:35.585Z</time></trkpt><trkpt lat="39.8678485" lon="16.1065017"><ele>1009.0</ele><time>2026-05-03T13:32:36.589Z</time></trkpt><trkpt lat="39.8678372" lon="16.1061766"><ele>1004.0</ele><time>2026-05-03T13:32:37.579Z</time></trkpt><trkpt lat="39.8678179" lon="16.1058598"><ele>1006.5</ele><time>2026-05-03T13:32:38.597Z</time></trkpt><trkpt lat="39.8678031" lon="16.1055366"><ele>1009.0</ele><time>2026-05-03T13:32:39.584Z</time></trkpt><trkpt lat="39.8677888" lon="16.1052105"><ele>1019.0</ele><time>2026-05-03T13:32:40.584Z</time></trkpt><trkpt lat="39.8677665" lon="16.1045606"><ele>1019.0</ele><time>2026-05-03T13:32:42.553Z</time></trkpt><trkpt lat="39.8677556" lon="16.104233"><ele>1019.0</ele><time>2026-05-03T13:32:43.574Z</time></trkpt><trkpt lat="39.8677428" lon="16.103906"><ele>1024.5</ele><time>2026-05-03T13:32:44.587Z</time></trkpt><trkpt lat="39.8677264" lon="16.1035833"><ele>1030.0</ele><time>2026-05-03T13:32:45.595Z</time></trkpt><trkpt lat="39.8677107" lon="16.1032601"><ele>1036.5</ele><time>2026-05-03T13:32:46.582Z</time></trkpt><trkpt lat="39.8676946" lon="16.1029365"><ele>1043.0</ele><time>2026-05-03T13:32:47.629Z</time></trkpt><trkpt lat="39.8676763" lon="16.1026168"><ele>1049.0</ele><time>2026-05-03T13:32:48.563Z</time></trkpt><trkpt lat="39.8676622" lon="16.1022946"><ele>1055.0</ele><time>2026-05-03T13:32:49.583Z</time></trkpt><trkpt lat="39.8676528" lon="16.10197"><ele>1055.0</ele><time>2026-05-03T13:32:50.584Z</time></trkpt><trkpt lat="39.8676405" lon="16.1016456"><ele>1055.0</ele><time>2026-05-03T13:32:51.574Z</time></trkpt><trkpt lat="39.8676253" lon="16.1013253"><ele>1056.5</ele><time>2026-05-03T13:32:52.6Z</time></trkpt><trkpt lat="39.867611" lon="16.1009981"><ele>1058.0</ele><time>2026-05-03T13:32:53.58Z</time></trkpt><trkpt lat="39.8675988" lon="16.1006699"><ele>1029.0</ele><time>2026-05-03T13:32:54.576Z</time></trkpt><trkpt lat="39.8675896" lon="16.1003383"><ele>1000.0</ele><time>2026-05-03T13:32:55.582Z</time></trkpt><trkpt lat="39.8675725" lon="16.1000116"><ele>997.5</ele><time>2026-05-03T13:32:56.588Z</time></trkpt><trkpt lat="39.8675523" lon="16.0996849"><ele>995.0</ele><time>2026-05-03T13:32:57.587Z</time></trkpt><trkpt lat="39.8674865" lon="16.0990366"><ele>1008.5</ele><time>2026-05-03T13:32:59.596Z</time></trkpt><trkpt lat="39.8674437" lon="16.0987062"><ele>1022.0</ele><time>2026-05-03T13:33:00.592Z</time></trkpt><trkpt lat="39.8673924" lon="16.0983854"><ele>1039.5</ele><time>2026-05-03T13:33:01.597Z</time></trkpt><trkpt lat="39.867328" lon="16.0980712"><ele>1057.0</ele><time>2026-05-03T13:33:02.581Z</time></trkpt><trkpt lat="39.8672507" lon="16.097762"><ele>1019.0</ele><time>2026-05-03T13:33:03.576Z</time></trkpt><trkpt lat="39.8650595" lon="16.0920761"><ele>1018.0</ele><time>2026-05-03T13:33:22.576Z</time></trkpt><trkpt lat="39.8648337" lon="16.0914937"><ele>1018.0</ele><time>2026-05-03T13:33:24.558Z</time></trkpt><trkpt lat="39.8647145" lon="16.0911869"><ele>1018.0</ele><time>2026-05-03T13:33:25.579Z</time></trkpt><trkpt lat="39.8646163" lon="16.090867"><ele>1017.0</ele><time>2026-05-03T13:33:26.577Z</time></trkpt><trkpt lat="39.8645238" lon="16.0905478"><ele>1016.0</ele><time>2026-05-03T13:33:27.588Z</time></trkpt><trkpt lat="39.8644375" lon="16.0902113"><ele>1015.0</ele><time>2026-05-03T13:33:28.564Z</time></trkpt><trkpt lat="39.8643541" lon="16.0898799"><ele>1014.0</ele><time>2026-05-03T13:33:29.557Z</time></trkpt><trkpt lat="39.8642827" lon="16.0895481"><ele>1012.0</ele><time>2026-05-03T13:33:30.581Z</time></trkpt><trkpt lat="39.8642262" lon="16.089206"><ele>1010.0</ele><time>2026-05-03T13:33:31.57Z</time></trkpt><trkpt lat="39.8641786" lon="16.0888612"><ele>1009.0</ele><time>2026-05-03T13:33:32.571Z</time></trkpt><trkpt lat="39.8641381" lon="16.0885129"><ele>1008.0</ele><time>2026-05-03T13:33:33.558Z</time></trkpt><trkpt lat="39.864106" lon="16.0881592"><ele>1007.5</ele><time>2026-05-03T13:33:34.592Z</time></trkpt><trkpt lat="39.864081" lon="16.0878007"><ele>1007.0</ele><time>2026-05-03T13:33:35.587Z</time></trkpt><trkpt lat="39.8640701" lon="16.0874379"><ele>1006.0</ele><time>2026-05-03T13:33:36.607Z</time></trkpt><trkpt lat="39.8640706" lon="16.0870723"><ele>1005.0</ele><time>2026-05-03T13:33:37.585Z</time></trkpt><trkpt lat="39.8640811" lon="16.0867059"><ele>1005.0</ele><time>2026-05-03T13:33:38.593Z</time></trkpt><trkpt lat="39.8641017" lon="16.0863427"><ele>1005.0</ele><time>2026-05-03T13:33:39.6Z</time></trkpt><trkpt lat="39.8641744" lon="16.0856207"><ele>1005.0</ele><time>2026-05-03T13:33:41.588Z</time></trkpt><trkpt lat="39.8642329" lon="16.0852661"><ele>1005.0</ele><time>2026-05-03T13:33:42.611Z</time></trkpt><trkpt lat="39.8643096" lon="16.0849161"><ele>1010.0</ele><time>2026-05-03T13:33:43.607Z</time></trkpt><trkpt lat="39.8643946" lon="16.0845673"><ele>1015.0</ele><time>2026-05-03T13:33:44.593Z</time></trkpt><trkpt lat="39.8644863" lon="16.0842329"><ele>1017.0</ele><time>2026-05-03T13:33:45.591Z</time></trkpt><trkpt lat="39.8645868" lon="16.0838962"><ele>1019.0</ele><time>2026-05-03T13:33:46.598Z</time></trkpt><trkpt lat="39.8646897" lon="16.0835638"><ele>1024.5</ele><time>2026-05-03T13:33:47.582Z</time></trkpt><trkpt lat="39.8648057" lon="16.0832327"><ele>1030.0</ele><time>2026-05-03T13:33:48.597Z</time></trkpt><trkpt lat="39.864937" lon="16.0829069"><ele>1030.0</ele><time>2026-05-03T13:33:49.562Z</time></trkpt><trkpt lat="39.8650746" lon="16.0825972"><ele>1030.0</ele><time>2026-05-03T13:33:50.564Z</time></trkpt><trkpt lat="39.8680583" lon="16.0790373"><ele>992.0</ele><time>2026-05-03T13:34:04.567Z</time></trkpt><trkpt lat="39.8685213" lon="16.0785803"><ele>992.0</ele><time>2026-05-03T13:34:06.579Z</time></trkpt><trkpt lat="39.8687542" lon="16.0783651"><ele>992.0</ele><time>2026-05-03T13:34:07.59Z</time></trkpt><trkpt lat="39.8689854" lon="16.0781359"><ele>989.0</ele><time>2026-05-03T13:34:08.576Z</time></trkpt><trkpt lat="39.8692166" lon="16.0779119"><ele>986.0</ele><time>2026-05-03T13:34:09.57Z</time></trkpt><trkpt lat="39.8694456" lon="16.077687"><ele>986.0</ele><time>2026-05-03T13:34:10.595Z</time></trkpt><trkpt lat="39.8696698" lon="16.0774501"><ele>986.0</ele><time>2026-05-03T13:34:11.584Z</time></trkpt><trkpt lat="39.8698828" lon="16.077206"><ele>984.5</ele><time>2026-05-03T13:34:12.603Z</time></trkpt><trkpt lat="39.8700916" lon="16.0769511"><ele>983.0</ele><time>2026-05-03T13:34:13.583Z</time></trkpt><trkpt lat="39.8702929" lon="16.0766883"><ele>982.0</ele><time>2026-05-03T13:34:14.615Z</time></trkpt><trkpt lat="39.8704885" lon="16.0764185"><ele>981.0</ele><time>2026-05-03T13:34:15.59Z</time></trkpt><trkpt lat="39.8706786" lon="16.0761367"><ele>981.0</ele><time>2026-05-03T13:34:16.61Z</time></trkpt><trkpt lat="39.8708609" lon="16.0758521"><ele>981.0</ele><time>2026-05-03T13:34:17.587Z</time></trkpt><trkpt lat="39.8710329" lon="16.0755627"><ele>983.0</ele><time>2026-05-03T13:34:18.573Z</time></trkpt><trkpt lat="39.8712021" lon="16.0752698"><ele>985.0</ele><time>2026-05-03T13:34:19.582Z</time></trkpt><trkpt lat="39.8713725" lon="16.0749789"><ele>984.5</ele><time>2026-05-03T13:34:20.6Z</time></trkpt><trkpt lat="39.8715402" lon="16.0746856"><ele>984.0</ele><time>2026-05-03T13:34:21.617Z</time></trkpt><trkpt lat="39.8717064" lon="16.0743904"><ele>986.5</ele><time>2026-05-03T13:34:22.595Z</time></trkpt><trkpt lat="39.8718716" lon="16.0740967"><ele>989.0</ele><time>2026-05-03T13:34:23.601Z</time></trkpt><trkpt lat="39.8721982" lon="16.0735099"><ele>988.0</ele><time>2026-05-03T13:34:25.604Z</time></trkpt><trkpt lat="39.8723588" lon="16.0732361"><ele>987.0</ele><time>2026-05-03T13:34:26.599Z</time></trkpt><trkpt lat="39.8725092" lon="16.0729817"><ele>990.5</ele><time>2026-05-03T13:34:27.602Z</time></trkpt><trkpt lat="39.8726553" lon="16.0727389"><ele>994.0</ele><time>2026-05-03T13:34:28.582Z</time></trkpt><trkpt lat="39.872806" lon="16.0725037"><ele>994.0</ele><time>2026-05-03T13:34:29.584Z</time></trkpt><trkpt lat="39.8729539" lon="16.0722749"><ele>994.0</ele><time>2026-05-03T13:34:30.593Z</time></trkpt><trkpt lat="39.8731018" lon="16.07205"><ele>994.0</ele><time>2026-05-03T13:34:31.601Z</time></trkpt><trkpt lat="39.8732515" lon="16.0718312"><ele>994.0</ele><time>2026-05-03T13:34:32.599Z</time></trkpt><trkpt lat="39.8734043" lon="16.0716145"><ele>995.5</ele><time>2026-05-03T13:34:33.587Z</time></trkpt><trkpt lat="39.8735532" lon="16.0713923"><ele>997.0</ele><time>2026-05-03T13:34:34.584Z</time></trkpt><trkpt lat="39.8737062" lon="16.0711668"><ele>997.0</ele><time>2026-05-03T13:34:35.61Z</time></trkpt><trkpt lat="39.8738597" lon="16.0709358"><ele>997.0</ele><time>2026-05-03T13:34:36.604Z</time></trkpt><trkpt lat="39.8740174" lon="16.0706991"><ele>996.0</ele><time>2026-05-03T13:34:37.587Z</time></trkpt><trkpt lat="39.8741821" lon="16.070464"><ele>995.0</ele><time>2026-05-03T13:34:38.584Z</time></trkpt><trkpt lat="39.8743523" lon="16.0702287"><ele>995.0</ele><time>2026-05-03T13:34:39.608Z</time></trkpt><trkpt lat="39.8745211" lon="16.0699869"><ele>995.0</ele><time>2026-05-03T13:34:40.598Z</time></trkpt><trkpt lat="39.874689" lon="16.0697387"><ele>990.0</ele><time>2026-05-03T13:34:41.585Z</time></trkpt><trkpt lat="39.8750225" lon="16.0692335"><ele>989.0</ele><time>2026-05-03T13:34:43.59Z</time></trkpt><trkpt lat="39.8751942" lon="16.0689786"><ele>988.0</ele><time>2026-05-03T13:34:44.602Z</time></trkpt><trkpt lat="39.8753699" lon="16.0687252"><ele>988.0</ele><time>2026-05-03T13:34:45.612Z</time></trkpt><trkpt lat="39.8755476" lon="16.068472"><ele>988.0</ele><time>2026-05-03T13:34:46.607Z</time></trkpt><trkpt lat="39.8757219" lon="16.0682137"><ele>986.5</ele><time>2026-05-03T13:34:47.593Z</time></trkpt><trkpt lat="39.8758867" lon="16.067943"><ele>985.0</ele><time>2026-05-03T13:34:48.587Z</time></trkpt><trkpt lat="39.8760458" lon="16.067663"><ele>982.5</ele><time>2026-05-03T13:34:49.604Z</time></trkpt><trkpt lat="39.8761995" lon="16.0673749"><ele>980.0</ele><time>2026-05-03T13:34:50.605Z</time></trkpt><trkpt lat="39.8763461" lon="16.0670813"><ele>980.0</ele><time>2026-05-03T13:34:51.595Z</time></trkpt><trkpt lat="39.8764924" lon="16.0667883"><ele>980.0</ele><time>2026-05-03T13:34:52.588Z</time></trkpt><trkpt lat="39.8767626" lon="16.0661748"><ele>982.0</ele><time>2026-05-03T13:34:54.607Z</time></trkpt><trkpt lat="39.8768855" lon="16.0658635"><ele>984.0</ele><time>2026-05-03T13:34:55.594Z</time></trkpt><trkpt lat="39.8770025" lon="16.0655505"><ele>984.0</ele><time>2026-05-03T13:34:56.585Z</time></trkpt><trkpt lat="39.8771065" lon="16.0652281"><ele>984.0</ele><time>2026-05-03T13:34:57.563Z</time></trkpt><trkpt lat="39.8772037" lon="16.0648977"><ele>983.0</ele><time>2026-05-03T13:34:58.592Z</time></trkpt><trkpt lat="39.8772962" lon="16.0645657"><ele>982.0</ele><time>2026-05-03T13:34:59.554Z</time></trkpt><trkpt lat="39.8773849" lon="16.0642339"><ele>980.5</ele><time>2026-05-03T13:35:00.603Z</time></trkpt><trkpt lat="39.8774717" lon="16.0638987"><ele>979.0</ele><time>2026-05-03T13:35:01.596Z</time></trkpt><trkpt lat="39.8775586" lon="16.0635644"><ele>981.0</ele><time>2026-05-03T13:35:02.603Z</time></trkpt><trkpt lat="39.8776468" lon="16.0632308"><ele>983.0</ele><time>2026-05-03T13:35:03.59Z</time></trkpt><trkpt lat="39.8777371" lon="16.0629009"><ele>983.0</ele><time>2026-05-03T13:35:04.582Z</time></trkpt><trkpt lat="39.8778344" lon="16.0625774"><ele>983.0</ele><time>2026-05-03T13:35:05.597Z</time></trkpt><trkpt lat="39.8779377" lon="16.062254"><ele>981.0</ele><time>2026-05-03T13:35:06.594Z</time></trkpt><trkpt lat="39.8780449" lon="16.0619333"><ele>979.0</ele><time>2026-05-03T13:35:07.599Z</time></trkpt><trkpt lat="39.8781567" lon="16.0616208"><ele>978.0</ele><time>2026-05-03T13:35:08.597Z</time></trkpt><trkpt lat="39.8782757" lon="16.0613075"><ele>977.0</ele><time>2026-05-03T13:35:09.603Z</time></trkpt><trkpt lat="39.878401" lon="16.0609978"><ele>976.0</ele><time>2026-05-03T13:35:10.584Z</time></trkpt><trkpt lat="39.8785373" lon="16.0606967"><ele>975.0</ele><time>2026-05-03T13:35:11.602Z</time></trkpt><trkpt lat="39.8786808" lon="16.0604031"><ele>975.0</ele><time>2026-05-03T13:35:12.591Z</time></trkpt><trkpt lat="39.8788331" lon="16.0601174"><ele>975.0</ele><time>2026-05-03T13:35:13.602Z</time></trkpt><trkpt lat="39.8789911" lon="16.059837"><ele>975.0</ele><time>2026-05-03T13:35:14.592Z</time></trkpt><trkpt lat="39.8791548" lon="16.0595617"><ele>975.0</ele><time>2026-05-03T13:35:15.599Z</time></trkpt><trkpt lat="39.879323" lon="16.0592875"><ele>971.0</ele><time>2026-05-03T13:35:16.566Z</time></trkpt><trkpt lat="39.8795009" lon="16.0590213"><ele>967.0</ele><time>2026-05-03T13:35:17.585Z</time></trkpt><trkpt lat="39.8796856" lon="16.0587598"><ele>967.0</ele><time>2026-05-03T13:35:18.586Z</time></trkpt><trkpt lat="39.8798768" lon="16.058511"><ele>967.0</ele><time>2026-05-03T13:35:19.592Z</time></trkpt><trkpt lat="39.8800746" lon="16.058269"><ele>966.0</ele><time>2026-05-03T13:35:20.587Z</time></trkpt><trkpt lat="39.8802781" lon="16.0580272"><ele>965.0</ele><time>2026-05-03T13:35:21.598Z</time></trkpt><trkpt lat="39.8804831" lon="16.057789"><ele>965.0</ele><time>2026-05-03T13:35:22.6Z</time></trkpt><trkpt lat="39.8806899" lon="16.0575532"><ele>965.0</ele><time>2026-05-03T13:35:23.614Z</time></trkpt><trkpt lat="39.8808976" lon="16.0573241"><ele>962.0</ele><time>2026-05-03T13:35:24.594Z</time></trkpt><trkpt lat="39.8811044" lon="16.0570905"><ele>959.0</ele><time>2026-05-03T13:35:25.619Z</time></trkpt><trkpt lat="39.8813131" lon="16.0568579"><ele>959.0</ele><time>2026-05-03T13:35:26.576Z</time></trkpt><trkpt lat="39.88152" lon="16.0566253"><ele>959.0</ele><time>2026-05-03T13:35:27.617Z</time></trkpt><trkpt lat="39.8819349" lon="16.056156"><ele>955.5</ele><time>2026-05-03T13:35:29.584Z</time></trkpt><trkpt lat="39.8821429" lon="16.0559208"><ele>952.0</ele><time>2026-05-03T13:35:30.593Z</time></trkpt><trkpt lat="39.8823493" lon="16.0556875"><ele>952.5</ele><time>2026-05-03T13:35:31.593Z</time></trkpt><trkpt lat="39.8825563" lon="16.055451"><ele>953.0</ele><time>2026-05-03T13:35:32.583Z</time></trkpt><trkpt lat="39.8827649" lon="16.055218"><ele>953.0</ele><time>2026-05-03T13:35:33.587Z</time></trkpt><trkpt lat="39.8829727" lon="16.0549847"><ele>953.0</ele><time>2026-05-03T13:35:34.609Z</time></trkpt><trkpt lat="39.8831826" lon="16.0547517"><ele>950.0</ele><time>2026-05-03T13:35:35.606Z</time></trkpt><trkpt lat="39.8833921" lon="16.0545173"><ele>947.0</ele><time>2026-05-03T13:35:36.598Z</time></trkpt><trkpt lat="39.8835977" lon="16.0542813"><ele>946.0</ele><time>2026-05-03T13:35:37.579Z</time></trkpt><trkpt lat="39.883804" lon="16.054043"><ele>945.0</ele><time>2026-05-03T13:35:38.612Z</time></trkpt><trkpt lat="39.8840106" lon="16.053811"><ele>945.0</ele><time>2026-05-03T13:35:39.599Z</time></trkpt><trkpt lat="39.8842157" lon="16.0535834"><ele>945.0</ele><time>2026-05-03T13:35:40.595Z</time></trkpt><trkpt lat="39.8844228" lon="16.0533559"><ele>946.0</ele><time>2026-05-03T13:35:41.593Z</time></trkpt><trkpt lat="39.8846295" lon="16.05313"><ele>947.0</ele><time>2026-05-03T13:35:42.592Z</time></trkpt><trkpt lat="39.884834" lon="16.0528991"><ele>957.0</ele><time>2026-05-03T13:35:43.585Z</time></trkpt><trkpt lat="39.8852461" lon="16.0524381"><ele>957.0</ele><time>2026-05-03T13:35:45.556Z</time></trkpt><trkpt lat="39.885454" lon="16.0522077"><ele>957.0</ele><time>2026-05-03T13:35:46.58Z</time></trkpt><trkpt lat="39.8856621" lon="16.0519764"><ele>957.0</ele><time>2026-05-03T13:35:47.592Z</time></trkpt><trkpt lat="39.885866" lon="16.0517407"><ele>957.0</ele><time>2026-05-03T13:35:48.597Z</time></trkpt><trkpt lat="39.8860719" lon="16.0515066"><ele>954.0</ele><time>2026-05-03T13:35:49.586Z</time></trkpt><trkpt lat="39.8862787" lon="16.0512747"><ele>951.0</ele><time>2026-05-03T13:35:50.582Z</time></trkpt><trkpt lat="39.889395" lon="16.0405103"><ele>947.0</ele><time>2026-05-03T13:36:22.58Z</time></trkpt><trkpt lat="39.889452" lon="16.0398681"><ele>947.0</ele><time>2026-05-03T13:36:24.574Z</time></trkpt><trkpt lat="39.8894287" lon="16.0396129"><ele>947.0</ele><time>2026-05-03T13:36:25.58Z</time></trkpt><trkpt lat="39.8893899" lon="16.0391906"><ele>951.0</ele><time>2026-05-03T13:36:26.573Z</time></trkpt><trkpt lat="39.8893637" lon="16.0388065"><ele>955.0</ele><time>2026-05-03T13:36:27.576Z</time></trkpt><trkpt lat="39.8893341" lon="16.038421"><ele>962.0</ele><time>2026-05-03T13:36:28.577Z</time></trkpt><trkpt lat="39.8893164" lon="16.0380452"><ele>969.0</ele><time>2026-05-03T13:36:29.586Z</time></trkpt><trkpt lat="39.8892909" lon="16.0376869"><ele>938.0</ele><time>2026-05-03T13:36:30.559Z</time></trkpt><trkpt lat="39.8887899" lon="16.0311977"><ele>938.0</ele><time>2026-05-03T13:36:48.577Z</time></trkpt><trkpt lat="39.8887327" lon="16.0308445"><ele>938.0</ele><time>2026-05-03T13:36:49.582Z</time></trkpt><trkpt lat="39.8886734" lon="16.0305141"><ele>938.0</ele><time>2026-05-03T13:36:50.591Z</time></trkpt><trkpt lat="39.8886095" lon="16.030189"><ele>938.0</ele><time>2026-05-03T13:36:51.575Z</time></trkpt><trkpt lat="39.8885404" lon="16.0298593"><ele>936.5</ele><time>2026-05-03T13:36:52.579Z</time></trkpt><trkpt lat="39.8884684" lon="16.0295401"><ele>935.0</ele><time>2026-05-03T13:36:53.574Z</time></trkpt><trkpt lat="39.8883849" lon="16.0292177"><ele>925.5</ele><time>2026-05-03T13:36:54.574Z</time></trkpt><trkpt lat="39.8882933" lon="16.0289045"><ele>916.0</ele><time>2026-05-03T13:36:55.587Z</time></trkpt><trkpt lat="39.8881923" lon="16.0285911"><ele>913.5</ele><time>2026-05-03T13:36:56.566Z</time></trkpt><trkpt lat="39.8880877" lon="16.0282803"><ele>911.0</ele><time>2026-05-03T13:36:57.578Z</time></trkpt><trkpt lat="39.8879745" lon="16.0279825"><ele>911.0</ele><time>2026-05-03T13:36:58.602Z</time></trkpt><trkpt lat="39.887856" lon="16.0276933"><ele>911.0</ele><time>2026-05-03T13:36:59.596Z</time></trkpt><trkpt lat="39.8877311" lon="16.027406"><ele>908.0</ele><time>2026-05-03T13:37:00.6Z</time></trkpt><trkpt lat="39.8875969" lon="16.0271253"><ele>905.0</ele><time>2026-05-03T13:37:01.591Z</time></trkpt><trkpt lat="39.887459" lon="16.0268481"><ele>906.0</ele><time>2026-05-03T13:37:02.598Z</time></trkpt><trkpt lat="39.8873227" lon="16.0265716"><ele>907.0</ele><time>2026-05-03T13:37:03.586Z</time></trkpt><trkpt lat="39.8871904" lon="16.0262958"><ele>907.0</ele><time>2026-05-03T13:37:04.566Z</time></trkpt><trkpt lat="39.8870616" lon="16.0260248"><ele>907.0</ele><time>2026-05-03T13:37:05.586Z</time></trkpt><trkpt lat="39.8869356" lon="16.0257605"><ele>910.5</ele><time>2026-05-03T13:37:06.581Z</time></trkpt><trkpt lat="39.8868088" lon="16.0254963"><ele>914.0</ele><time>2026-05-03T13:37:07.58Z</time></trkpt><trkpt lat="39.8866886" lon="16.0252211"><ele>906.0</ele><time>2026-05-03T13:37:08.589Z</time></trkpt><trkpt lat="39.8865785" lon="16.0249405"><ele>898.0</ele><time>2026-05-03T13:37:09.589Z</time></trkpt><trkpt lat="39.8864709" lon="16.0246571"><ele>898.0</ele><time>2026-05-03T13:37:10.561Z</time></trkpt><trkpt lat="39.8863701" lon="16.0243656"><ele>898.0</ele><time>2026-05-03T13:37:11.58Z</time></trkpt><trkpt lat="39.8862784" lon="16.0240694"><ele>898.5</ele><time>2026-05-03T13:37:12.59Z</time></trkpt><trkpt lat="39.8861891" lon="16.0237726"><ele>899.0</ele><time>2026-05-03T13:37:13.6Z</time></trkpt><trkpt lat="39.8861026" lon="16.0234701"><ele>896.0</ele><time>2026-05-03T13:37:14.603Z</time></trkpt><trkpt lat="39.8860127" lon="16.0231715"><ele>893.0</ele><time>2026-05-03T13:37:15.597Z</time></trkpt><trkpt lat="39.8859244" lon="16.0228701"><ele>888.0</ele><time>2026-05-03T13:37:16.593Z</time></trkpt><trkpt lat="39.8858366" lon="16.0225681"><ele>883.0</ele><time>2026-05-03T13:37:17.593Z</time></trkpt><trkpt lat="39.8857529" lon="16.0222632"><ele>880.0</ele><time>2026-05-03T13:37:18.592Z</time></trkpt><trkpt lat="39.8856665" lon="16.0219606"><ele>877.0</ele><time>2026-05-03T13:37:19.591Z</time></trkpt><trkpt lat="39.8855777" lon="16.0216561"><ele>878.0</ele><time>2026-05-03T13:37:20.59Z</time></trkpt><trkpt lat="39.8854918" lon="16.0213514"><ele>879.0</ele><time>2026-05-03T13:37:21.582Z</time></trkpt><trkpt lat="39.88541" lon="16.0210442"><ele>884.5</ele><time>2026-05-03T13:37:22.597Z</time></trkpt><trkpt lat="39.885332" lon="16.020737"><ele>890.0</ele><time>2026-05-03T13:37:23.586Z</time></trkpt><trkpt lat="39.8852505" lon="16.0204294"><ele>890.0</ele><time>2026-05-03T13:37:24.582Z</time></trkpt><trkpt lat="39.8851744" lon="16.0201154"><ele>890.0</ele><time>2026-05-03T13:37:25.57Z</time></trkpt><trkpt lat="39.8851012" lon="16.0198031"><ele>882.0</ele><time>2026-05-03T13:37:26.605Z</time></trkpt><trkpt lat="39.8850313" lon="16.019483"><ele>874.0</ele><time>2026-05-03T13:37:27.583Z</time></trkpt><trkpt lat="39.8849651" lon="16.0191601"><ele>877.5</ele><time>2026-05-03T13:37:28.597Z</time></trkpt><trkpt lat="39.8849069" lon="16.0188354"><ele>881.0</ele><time>2026-05-03T13:37:29.595Z</time></trkpt><trkpt lat="39.8848506" lon="16.0185098"><ele>884.5</ele><time>2026-05-03T13:37:30.592Z</time></trkpt><trkpt lat="39.8847961" lon="16.0181889"><ele>888.0</ele><time>2026-05-03T13:37:31.59Z</time></trkpt><trkpt lat="39.8847416" lon="16.0178617"><ele>888.0</ele><time>2026-05-03T13:37:32.587Z</time></trkpt><trkpt lat="39.8846869" lon="16.0175415"><ele>888.0</ele><time>2026-05-03T13:37:33.593Z</time></trkpt><trkpt lat="39.8846313" lon="16.0172179"><ele>892.5</ele><time>2026-05-03T13:37:34.605Z</time></trkpt><trkpt lat="39.8845717" lon="16.0168993"><ele>897.0</ele><time>2026-05-03T13:37:35.56Z</time></trkpt><trkpt lat="39.8845089" lon="16.0165785"><ele>902.5</ele><time>2026-05-03T13:37:36.582Z</time></trkpt><trkpt lat="39.8844569" lon="16.0162563"><ele>908.0</ele><time>2026-05-03T13:37:37.596Z</time></trkpt><trkpt lat="39.884409" lon="16.0159352"><ele>909.5</ele><time>2026-05-03T13:37:38.588Z</time></trkpt><trkpt lat="39.8843533" lon="16.0156175"><ele>911.0</ele><time>2026-05-03T13:37:39.609Z</time></trkpt><trkpt lat="39.8842945" lon="16.0152964"><ele>887.5</ele><time>2026-05-03T13:37:40.597Z</time></trkpt><trkpt lat="39.8842267" lon="16.014982"><ele>864.0</ele><time>2026-05-03T13:37:41.578Z</time></trkpt><trkpt lat="39.884148" lon="16.0146765"><ele>864.0</ele><time>2026-05-03T13:37:42.579Z</time></trkpt><trkpt lat="39.8840571" lon="16.0143728"><ele>864.0</ele><time>2026-05-03T13:37:43.593Z</time></trkpt><trkpt lat="39.8839539" lon="16.0140735"><ele>863.0</ele><time>2026-05-03T13:37:44.59Z</time></trkpt><trkpt lat="39.8838501" lon="16.0137756"><ele>862.0</ele><time>2026-05-03T13:37:45.584Z</time></trkpt><trkpt lat="39.88374" lon="16.0134828"><ele>856.0</ele><time>2026-05-03T13:37:46.58Z</time></trkpt><trkpt lat="39.8836184" lon="16.0131956"><ele>850.0</ele><time>2026-05-03T13:37:47.573Z</time></trkpt><trkpt lat="39.8834831" lon="16.0129175"><ele>846.0</ele><time>2026-05-03T13:37:48.573Z</time></trkpt><trkpt lat="39.8833362" lon="16.0126436"><ele>842.0</ele><time>2026-05-03T13:37:49.58Z</time></trkpt><trkpt lat="39.8830254" lon="16.0121083"><ele>842.0</ele><time>2026-05-03T13:37:51.577Z</time></trkpt><trkpt lat="39.882858" lon="16.0118516"><ele>842.0</ele><time>2026-05-03T13:37:52.568Z</time></trkpt><trkpt lat="39.8826793" lon="16.011606"><ele>840.5</ele><time>2026-05-03T13:37:53.581Z</time></trkpt><trkpt lat="39.882491" lon="16.0113708"><ele>839.0</ele><time>2026-05-03T13:37:54.582Z</time></trkpt><trkpt lat="39.8822983" lon="16.0111427"><ele>839.0</ele><time>2026-05-03T13:37:55.584Z</time></trkpt><trkpt lat="39.8820998" lon="16.0109195"><ele>839.0</ele><time>2026-05-03T13:37:56.588Z</time></trkpt><trkpt lat="39.8818938" lon="16.0106982"><ele>836.0</ele><time>2026-05-03T13:37:57.581Z</time></trkpt><trkpt lat="39.8816897" lon="16.01048"><ele>833.0</ele><time>2026-05-03T13:37:58.58Z</time></trkpt><trkpt lat="39.8814834" lon="16.0102598"><ele>833.0</ele><time>2026-05-03T13:37:59.597Z</time></trkpt><trkpt lat="39.8812728" lon="16.0100409"><ele>833.0</ele><time>2026-05-03T13:38:00.593Z</time></trkpt><trkpt lat="39.8810639" lon="16.0098164"><ele>831.5</ele><time>2026-05-03T13:38:01.59Z</time></trkpt><trkpt lat="39.8808611" lon="16.0095824"><ele>830.0</ele><time>2026-05-03T13:38:02.6Z</time></trkpt><trkpt lat="39.8806637" lon="16.0093434"><ele>833.5</ele><time>2026-05-03T13:38:03.609Z</time></trkpt><trkpt lat="39.880466" lon="16.0090948"><ele>837.0</ele><time>2026-05-03T13:38:04.579Z</time></trkpt><trkpt lat="39.8802754" lon="16.0088312"><ele>836.5</ele><time>2026-05-03T13:38:05.596Z</time></trkpt><trkpt lat="39.8800902" lon="16.0085571"><ele>836.0</ele><time>2026-05-03T13:38:06.585Z</time></trkpt><trkpt lat="39.8799182" lon="16.0082634"><ele>836.0</ele><time>2026-05-03T13:38:07.6Z</time></trkpt><trkpt lat="39.8797571" lon="16.0079612"><ele>836.0</ele><time>2026-05-03T13:38:08.595Z</time></trkpt><trkpt lat="39.879607" lon="16.0076538"><ele>842.0</ele><time>2026-05-03T13:38:09.594Z</time></trkpt><trkpt lat="39.8794646" lon="16.0073394"><ele>848.0</ele><time>2026-05-03T13:38:10.591Z</time></trkpt><trkpt lat="39.8793328" lon="16.0070189"><ele>836.0</ele><time>2026-05-03T13:38:11.6Z</time></trkpt><trkpt lat="39.879213" lon="16.0066959"><ele>824.0</ele><time>2026-05-03T13:38:12.605Z</time></trkpt><trkpt lat="39.8791069" lon="16.0063641"><ele>824.0</ele><time>2026-05-03T13:38:13.584Z</time></trkpt><trkpt lat="39.8790093" lon="16.0060297"><ele>824.0</ele><time>2026-05-03T13:38:14.607Z</time></trkpt><trkpt lat="39.8789207" lon="16.0056952"><ele>824.0</ele><time>2026-05-03T13:38:15.589Z</time></trkpt><trkpt lat="39.8788414" lon="16.0053538"><ele>824.0</ele><time>2026-05-03T13:38:16.599Z</time></trkpt><trkpt lat="39.8787704" lon="16.005006"><ele>821.5</ele><time>2026-05-03T13:38:17.569Z</time></trkpt><trkpt lat="39.8787113" lon="16.0046556"><ele>819.0</ele><time>2026-05-03T13:38:18.562Z</time></trkpt><trkpt lat="39.8786506" lon="16.0043163"><ele>817.0</ele><time>2026-05-03T13:38:19.559Z</time></trkpt><trkpt lat="39.8785865" lon="16.0039747"><ele>815.0</ele><time>2026-05-03T13:38:20.559Z</time></trkpt><trkpt lat="39.8785176" lon="16.0036353"><ele>816.0</ele><time>2026-05-03T13:38:21.603Z</time></trkpt><trkpt lat="39.8784507" lon="16.0032946"><ele>817.0</ele><time>2026-05-03T13:38:22.566Z</time></trkpt><trkpt lat="39.8783894" lon="16.0029511"><ele>806.5</ele><time>2026-05-03T13:38:23.551Z</time></trkpt><trkpt lat="39.8783309" lon="16.0026068"><ele>796.0</ele><time>2026-05-03T13:38:24.567Z</time></trkpt><trkpt lat="39.87827" lon="16.0022636"><ele>796.0</ele><time>2026-05-03T13:38:25.572Z</time></trkpt><trkpt lat="39.8782107" lon="16.0019199"><ele>796.0</ele><time>2026-05-03T13:38:26.577Z</time></trkpt><trkpt lat="39.8781464" lon="16.0015785"><ele>796.5</ele><time>2026-05-03T13:38:27.588Z</time></trkpt><trkpt lat="39.8780809" lon="16.0012365"><ele>797.0</ele><time>2026-05-03T13:38:28.59Z</time></trkpt><trkpt lat="39.8780224" lon="16.0008895"><ele>796.5</ele><time>2026-05-03T13:38:29.592Z</time></trkpt><trkpt lat="39.8779619" lon="16.0005414"><ele>796.0</ele><time>2026-05-03T13:38:30.584Z</time></trkpt><trkpt lat="39.8779032" lon="16.0001923"><ele>796.0</ele><time>2026-05-03T13:38:31.593Z</time></trkpt><trkpt lat="39.8778419" lon="15.9998464"><ele>796.0</ele><time>2026-05-03T13:38:32.573Z</time></trkpt><trkpt lat="39.8777798" lon="15.9994997"><ele>791.0</ele><time>2026-05-03T13:38:33.556Z</time></trkpt><trkpt lat="39.8777167" lon="15.9991572"><ele>786.0</ele><time>2026-05-03T13:38:34.59Z</time></trkpt><trkpt lat="39.8776515" lon="15.9988172"><ele>785.5</ele><time>2026-05-03T13:38:35.593Z</time></trkpt><trkpt lat="39.877586" lon="15.9984792"><ele>785.0</ele><time>2026-05-03T13:38:36.591Z</time></trkpt><trkpt lat="39.8775257" lon="15.9981403"><ele>785.0</ele><time>2026-05-03T13:38:37.575Z</time></trkpt><trkpt lat="39.8774656" lon="15.9978018"><ele>785.0</ele><time>2026-05-03T13:38:38.588Z</time></trkpt><trkpt lat="39.8774103" lon="15.99747"><ele>783.0</ele><time>2026-05-03T13:38:39.595Z</time></trkpt><trkpt lat="39.8773547" lon="15.9971333"><ele>781.0</ele><time>2026-05-03T13:38:40.584Z</time></trkpt><trkpt lat="39.8772954" lon="15.9967988"><ele>779.5</ele><time>2026-05-03T13:38:41.586Z</time></trkpt><trkpt lat="39.8772389" lon="15.9964627"><ele>778.0</ele><time>2026-05-03T13:38:42.599Z</time></trkpt><trkpt lat="39.8771814" lon="15.9961222"><ele>780.0</ele><time>2026-05-03T13:38:43.59Z</time></trkpt><trkpt lat="39.8771374" lon="15.9957731"><ele>782.0</ele><time>2026-05-03T13:38:44.583Z</time></trkpt><trkpt lat="39.8771011" lon="15.9954209"><ele>782.0</ele><time>2026-05-03T13:38:45.596Z</time></trkpt><trkpt lat="39.8770811" lon="15.9950645"><ele>782.0</ele><time>2026-05-03T13:38:46.581Z</time></trkpt><trkpt lat="39.8770719" lon="15.9947082"><ele>783.0</ele><time>2026-05-03T13:38:47.597Z</time></trkpt><trkpt lat="39.8770726" lon="15.9943569"><ele>784.0</ele><time>2026-05-03T13:38:48.578Z</time></trkpt><trkpt lat="39.8770876" lon="15.9939974"><ele>784.0</ele><time>2026-05-03T13:38:49.575Z</time></trkpt><trkpt lat="39.8771198" lon="15.993641"><ele>784.0</ele><time>2026-05-03T13:38:50.61Z</time></trkpt><trkpt lat="39.8771684" lon="15.9932887"><ele>782.5</ele><time>2026-05-03T13:38:51.59Z</time></trkpt><trkpt lat="39.8772335" lon="15.9929437"><ele>781.0</ele><time>2026-05-03T13:38:52.593Z</time></trkpt><trkpt lat="39.8773111" lon="15.9926073"><ele>778.5</ele><time>2026-05-03T13:38:53.556Z</time></trkpt><trkpt lat="39.8774064" lon="15.992275"><ele>776.0</ele><time>2026-05-03T13:38:54.59Z</time></trkpt><trkpt lat="39.8775156" lon="15.9919515"><ele>776.0</ele><time>2026-05-03T13:38:55.594Z</time></trkpt><trkpt lat="39.8776315" lon="15.9916366"><ele>776.0</ele><time>2026-05-03T13:38:56.584Z</time></trkpt><trkpt lat="39.8777616" lon="15.9913351"><ele>776.0</ele><time>2026-05-03T13:38:57.602Z</time></trkpt><trkpt lat="39.8779017" lon="15.9910457"><ele>776.0</ele><time>2026-05-03T13:38:58.573Z</time></trkpt><trkpt lat="39.8780513" lon="15.9907583"><ele>778.5</ele><time>2026-05-03T13:38:59.59Z</time></trkpt><trkpt lat="39.8782069" lon="15.9904744"><ele>781.0</ele><time>2026-05-03T13:39:00.578Z</time></trkpt><trkpt lat="39.8783676" lon="15.990189"><ele>783.0</ele><time>2026-05-03T13:39:01.574Z</time></trkpt><trkpt lat="39.878528" lon="15.9899015"><ele>785.0</ele><time>2026-05-03T13:39:02.586Z</time></trkpt><trkpt lat="39.8786969" lon="15.9896133"><ele>785.0</ele><time>2026-05-03T13:39:03.595Z</time></trkpt><trkpt lat="39.8788633" lon="15.989318"><ele>785.0</ele><time>2026-05-03T13:39:04.594Z</time></trkpt><trkpt lat="39.8790307" lon="15.989019"><ele>777.5</ele><time>2026-05-03T13:39:05.604Z</time></trkpt><trkpt lat="39.8792005" lon="15.9887144"><ele>770.0</ele><time>2026-05-03T13:39:06.585Z</time></trkpt><trkpt lat="39.8793726" lon="15.9884044"><ele>758.5</ele><time>2026-05-03T13:39:07.591Z</time></trkpt><trkpt lat="39.8795526" lon="15.9880978"><ele>747.0</ele><time>2026-05-03T13:39:08.593Z</time></trkpt><trkpt lat="39.879734" lon="15.987783"><ele>742.5</ele><time>2026-05-03T13:39:09.591Z</time></trkpt><trkpt lat="39.8799156" lon="15.987471"><ele>738.0</ele><time>2026-05-03T13:39:10.607Z</time></trkpt><trkpt lat="39.8800987" lon="15.9871592"><ele>742.0</ele><time>2026-05-03T13:39:11.594Z</time></trkpt><trkpt lat="39.8802781" lon="15.9868461"><ele>746.0</ele><time>2026-05-03T13:39:12.605Z</time></trkpt><trkpt lat="39.8804565" lon="15.9865172"><ele>756.5</ele><time>2026-05-03T13:39:13.594Z</time></trkpt><trkpt lat="39.8806445" lon="15.9862018"><ele>767.0</ele><time>2026-05-03T13:39:14.575Z</time></trkpt><trkpt lat="39.8990179" lon="15.9768579"><ele>651.0</ele><time>2026-05-03T13:40:21.558Z</time></trkpt><trkpt lat="39.8994582" lon="15.976227"><ele>651.0</ele><time>2026-05-03T13:40:23.572Z</time></trkpt><trkpt lat="39.89959" lon="15.976001"><ele>651.0</ele><time>2026-05-03T13:40:24.584Z</time></trkpt><trkpt lat="39.8997897" lon="15.975648"><ele>655.0</ele><time>2026-05-03T13:40:25.57Z</time></trkpt><trkpt lat="39.8999568" lon="15.9753137"><ele>659.0</ele><time>2026-05-03T13:40:26.579Z</time></trkpt><trkpt lat="39.9001082" lon="15.9749898"><ele>659.0</ele><time>2026-05-03T13:40:27.595Z</time></trkpt><trkpt lat="39.9002493" lon="15.9746636"><ele>659.0</ele><time>2026-05-03T13:40:28.594Z</time></trkpt><trkpt lat="39.9003881" lon="15.9743352"><ele>659.5</ele><time>2026-05-03T13:40:29.602Z</time></trkpt><trkpt lat="39.9005259" lon="15.9740121"><ele>660.0</ele><time>2026-05-03T13:40:30.572Z</time></trkpt><trkpt lat="39.9006629" lon="15.9736891"><ele>660.0</ele><time>2026-05-03T13:40:31.584Z</time></trkpt><trkpt lat="39.9008054" lon="15.9733666"><ele>660.0</ele><time>2026-05-03T13:40:32.591Z</time></trkpt><trkpt lat="39.9009545" lon="15.973031"><ele>659.5</ele><time>2026-05-03T13:40:33.573Z</time></trkpt><trkpt lat="39.9011075" lon="15.9727081"><ele>659.0</ele><time>2026-05-03T13:40:34.577Z</time></trkpt><trkpt lat="39.9044985" lon="15.9647664"><ele>645.5</ele><time>2026-05-03T13:40:57.557Z</time></trkpt><trkpt lat="39.904651" lon="15.9645536"><ele>632.0</ele><time>2026-05-03T13:40:58.569Z</time></trkpt><trkpt lat="39.9048419" lon="15.9643271"><ele>630.5</ele><time>2026-05-03T13:40:59.578Z</time></trkpt><trkpt lat="39.9050365" lon="15.964098"><ele>629.0</ele><time>2026-05-03T13:41:00.574Z</time></trkpt><trkpt lat="39.9052271" lon="15.9638795"><ele>629.0</ele><time>2026-05-03T13:41:01.579Z</time></trkpt><trkpt lat="39.9054287" lon="15.9636705"><ele>629.0</ele><time>2026-05-03T13:41:02.596Z</time></trkpt><trkpt lat="39.9056419" lon="15.9634792"><ele>623.5</ele><time>2026-05-03T13:41:03.583Z</time></trkpt><trkpt lat="39.9058605" lon="15.9633018"><ele>618.0</ele><time>2026-05-03T13:41:04.594Z</time></trkpt><trkpt lat="39.906086" lon="15.9631387"><ele>617.5</ele><time>2026-05-03T13:41:05.575Z</time></trkpt><trkpt lat="39.9063173" lon="15.9629911"><ele>617.0</ele><time>2026-05-03T13:41:06.586Z</time></trkpt><trkpt lat="39.9065539" lon="15.9628556"><ele>620.0</ele><time>2026-05-03T13:41:07.574Z</time></trkpt><trkpt lat="39.9067928" lon="15.9627247"><ele>623.0</ele><time>2026-05-03T13:41:08.583Z</time></trkpt><trkpt lat="39.907037" lon="15.9626071"><ele>618.0</ele><time>2026-05-03T13:41:09.589Z</time></trkpt><trkpt lat="39.907285" lon="15.9625212"><ele>613.0</ele><time>2026-05-03T13:41:10.594Z</time></trkpt><trkpt lat="39.9075335" lon="15.9624525"><ele>614.5</ele><time>2026-05-03T13:41:11.573Z</time></trkpt><trkpt lat="39.9077866" lon="15.9623972"><ele>616.0</ele><time>2026-05-03T13:41:12.57Z</time></trkpt><trkpt lat="39.9080427" lon="15.9623597"><ele>616.0</ele><time>2026-05-03T13:41:13.57Z</time></trkpt><trkpt lat="39.9083079" lon="15.9623405"><ele>616.0</ele><time>2026-05-03T13:41:14.58Z</time></trkpt><trkpt lat="39.9085734" lon="15.9623273"><ele>612.0</ele><time>2026-05-03T13:41:15.57Z</time></trkpt><trkpt lat="39.9088395" lon="15.962322"><ele>608.0</ele><time>2026-05-03T13:41:16.587Z</time></trkpt><trkpt lat="39.9091069" lon="15.9623365"><ele>603.5</ele><time>2026-05-03T13:41:17.587Z</time></trkpt><trkpt lat="39.9093782" lon="15.9623688"><ele>599.0</ele><time>2026-05-03T13:41:18.596Z</time></trkpt><trkpt lat="39.90965" lon="15.962419"><ele>599.0</ele><time>2026-05-03T13:41:19.583Z</time></trkpt><trkpt lat="39.9099247" lon="15.9624838"><ele>599.0</ele><time>2026-05-03T13:41:20.585Z</time></trkpt><trkpt lat="39.9101976" lon="15.9625705"><ele>603.5</ele><time>2026-05-03T13:41:21.591Z</time></trkpt><trkpt lat="39.9104682" lon="15.9626708"><ele>608.0</ele><time>2026-05-03T13:41:22.575Z</time></trkpt><trkpt lat="39.9107357" lon="15.962801"><ele>601.5</ele><time>2026-05-03T13:41:23.611Z</time></trkpt><trkpt lat="39.9109996" lon="15.9629426"><ele>595.0</ele><time>2026-05-03T13:41:24.569Z</time></trkpt><trkpt lat="39.9112648" lon="15.9630953"><ele>595.0</ele><time>2026-05-03T13:41:25.594Z</time></trkpt><trkpt lat="39.9115311" lon="15.9632528"><ele>595.0</ele><time>2026-05-03T13:41:26.599Z</time></trkpt><trkpt lat="39.9117987" lon="15.96341"><ele>594.5</ele><time>2026-05-03T13:41:27.59Z</time></trkpt><trkpt lat="39.9120644" lon="15.9635694"><ele>594.0</ele><time>2026-05-03T13:41:28.596Z</time></trkpt><trkpt lat="39.9123281" lon="15.9637394"><ele>590.5</ele><time>2026-05-03T13:41:29.598Z</time></trkpt><trkpt lat="39.91259" lon="15.9639142"><ele>587.0</ele><time>2026-05-03T13:41:30.586Z</time></trkpt><trkpt lat="39.9128547" lon="15.9640792"><ele>586.0</ele><time>2026-05-03T13:41:31.596Z</time></trkpt><trkpt lat="39.9131183" lon="15.9642384"><ele>585.0</ele><time>2026-05-03T13:41:32.594Z</time></trkpt><trkpt lat="39.9133846" lon="15.9644041"><ele>580.5</ele><time>2026-05-03T13:41:33.595Z</time></trkpt><trkpt lat="39.9136481" lon="15.9645695"><ele>576.0</ele><time>2026-05-03T13:41:34.585Z</time></trkpt><trkpt lat="39.9139109" lon="15.9647335"><ele>576.0</ele><time>2026-05-03T13:41:35.575Z</time></trkpt><trkpt lat="39.9141758" lon="15.9648995"><ele>576.0</ele><time>2026-05-03T13:41:36.558Z</time></trkpt><trkpt lat="39.914435" lon="15.9650664"><ele>577.0</ele><time>2026-05-03T13:41:37.57Z</time></trkpt><trkpt lat="39.9146952" lon="15.9652373"><ele>578.0</ele><time>2026-05-03T13:41:38.579Z</time></trkpt><trkpt lat="39.9149607" lon="15.965405"><ele>574.0</ele><time>2026-05-03T13:41:39.584Z</time></trkpt><trkpt lat="39.9152242" lon="15.96557"><ele>570.0</ele><time>2026-05-03T13:41:40.59Z</time></trkpt><trkpt lat="39.9154904" lon="15.9657366"><ele>571.5</ele><time>2026-05-03T13:41:41.581Z</time></trkpt><trkpt lat="39.9157532" lon="15.9659012"><ele>573.0</ele><time>2026-05-03T13:41:42.592Z</time></trkpt><trkpt lat="39.9160187" lon="15.9660654"><ele>573.0</ele><time>2026-05-03T13:41:43.549Z</time></trkpt><trkpt lat="39.9162839" lon="15.966228"><ele>573.0</ele><time>2026-05-03T13:41:44.591Z</time></trkpt><trkpt lat="39.9165501" lon="15.9663952"><ele>572.5</ele><time>2026-05-03T13:41:45.582Z</time></trkpt><trkpt lat="39.9168157" lon="15.9665666"><ele>572.0</ele><time>2026-05-03T13:41:46.586Z</time></trkpt><trkpt lat="39.9170827" lon="15.966735"><ele>572.0</ele><time>2026-05-03T13:41:47.588Z</time></trkpt><trkpt lat="39.9173537" lon="15.9668921"><ele>572.0</ele><time>2026-05-03T13:41:48.597Z</time></trkpt><trkpt lat="39.9176269" lon="15.9670432"><ele>568.5</ele><time>2026-05-03T13:41:49.589Z</time></trkpt><trkpt lat="39.9178991" lon="15.9671731"><ele>565.0</ele><time>2026-05-03T13:41:50.565Z</time></trkpt><trkpt lat="39.9181785" lon="15.9672919"><ele>560.5</ele><time>2026-05-03T13:41:51.55Z</time></trkpt><trkpt lat="39.9184608" lon="15.9673948"><ele>556.0</ele><time>2026-05-03T13:41:52.584Z</time></trkpt><trkpt lat="39.9187465" lon="15.9674892"><ele>563.5</ele><time>2026-05-03T13:41:53.592Z</time></trkpt><trkpt lat="39.9190399" lon="15.967574"><ele>571.0</ele><time>2026-05-03T13:41:54.58Z</time></trkpt><trkpt lat="39.9193272" lon="15.9676317"><ele>571.0</ele><time>2026-05-03T13:41:55.591Z</time></trkpt><trkpt lat="39.9196298" lon="15.9676878"><ele>571.0</ele><time>2026-05-03T13:41:56.576Z</time></trkpt><trkpt lat="39.9199257" lon="15.9677237"><ele>570.0</ele><time>2026-05-03T13:41:57.552Z</time></trkpt><trkpt lat="39.9202251" lon="15.9677488"><ele>569.0</ele><time>2026-05-03T13:41:58.563Z</time></trkpt><trkpt lat="39.920521" lon="15.9677598"><ele>569.0</ele><time>2026-05-03T13:41:59.552Z</time></trkpt><trkpt lat="39.9208169" lon="15.9677514"><ele>569.0</ele><time>2026-05-03T13:42:00.602Z</time></trkpt><trkpt lat="39.9211202" lon="15.9677265"><ele>570.0</ele><time>2026-05-03T13:42:01.575Z</time></trkpt><trkpt lat="39.9214211" lon="15.9676858"><ele>571.0</ele><time>2026-05-03T13:42:02.604Z</time></trkpt><trkpt lat="39.9217251" lon="15.9676372"><ele>571.0</ele><time>2026-05-03T13:42:03.602Z</time></trkpt><trkpt lat="39.9220283" lon="15.9675787"><ele>571.0</ele><time>2026-05-03T13:42:04.595Z</time></trkpt><trkpt lat="39.9223316" lon="15.9674963"><ele>560.5</ele><time>2026-05-03T13:42:05.604Z</time></trkpt><trkpt lat="39.9226306" lon="15.9673985"><ele>550.0</ele><time>2026-05-03T13:42:06.611Z</time></trkpt><trkpt lat="39.9229291" lon="15.9672903"><ele>550.0</ele><time>2026-05-03T13:42:07.6Z</time></trkpt><trkpt lat="39.9232273" lon="15.9671733"><ele>550.0</ele><time>2026-05-03T13:42:08.582Z</time></trkpt><trkpt lat="39.9235267" lon="15.967053"><ele>555.5</ele><time>2026-05-03T13:42:09.609Z</time></trkpt><trkpt lat="39.9238254" lon="15.9669306"><ele>561.0</ele><time>2026-05-03T13:42:10.587Z</time></trkpt><trkpt lat="39.9241235" lon="15.9668066"><ele>553.5</ele><time>2026-05-03T13:42:11.58Z</time></trkpt><trkpt lat="39.9244228" lon="15.9666931"><ele>546.0</ele><time>2026-05-03T13:42:12.571Z</time></trkpt><trkpt lat="39.9247183" lon="15.9665877"><ele>546.0</ele><time>2026-05-03T13:42:13.584Z</time></trkpt><trkpt lat="39.9250063" lon="15.9664786"><ele>546.0</ele><time>2026-05-03T13:42:14.595Z</time></trkpt><trkpt lat="39.9252964" lon="15.9663708"><ele>556.0</ele><time>2026-05-03T13:42:15.569Z</time></trkpt><trkpt lat="39.9255787" lon="15.9662573"><ele>566.0</ele><time>2026-05-03T13:42:16.554Z</time></trkpt><trkpt lat="39.9305594" lon="15.9639274"><ele>538.0</ele><time>2026-05-03T13:42:33.568Z</time></trkpt><trkpt lat="39.9308307" lon="15.9638473"><ele>510.0</ele><time>2026-05-03T13:42:34.568Z</time></trkpt><trkpt lat="39.9311173" lon="15.9636643"><ele>510.0</ele><time>2026-05-03T13:42:35.605Z</time></trkpt><trkpt lat="39.9313882" lon="15.9634508"><ele>510.0</ele><time>2026-05-03T13:42:36.581Z</time></trkpt><trkpt lat="39.9316481" lon="15.9632452"><ele>505.5</ele><time>2026-05-03T13:42:37.57Z</time></trkpt><trkpt lat="39.9319071" lon="15.963037"><ele>501.0</ele><time>2026-05-03T13:42:38.581Z</time></trkpt><trkpt lat="39.9321601" lon="15.9628273"><ele>501.0</ele><time>2026-05-03T13:42:39.586Z</time></trkpt><trkpt lat="39.9324028" lon="15.962612"><ele>501.0</ele><time>2026-05-03T13:42:40.597Z</time></trkpt><trkpt lat="39.9326468" lon="15.9623998"><ele>501.0</ele><time>2026-05-03T13:42:41.578Z</time></trkpt><trkpt lat="39.9328885" lon="15.9621941"><ele>501.0</ele><time>2026-05-03T13:42:42.587Z</time></trkpt><trkpt lat="39.9331317" lon="15.9620024"><ele>501.0</ele><time>2026-05-03T13:42:43.567Z</time></trkpt><trkpt lat="39.9333729" lon="15.9618102"><ele>501.0</ele><time>2026-05-03T13:42:44.571Z</time></trkpt><trkpt lat="39.9336124" lon="15.9616239"><ele>494.0</ele><time>2026-05-03T13:42:45.553Z</time></trkpt><trkpt lat="39.9338554" lon="15.961442"><ele>487.0</ele><time>2026-05-03T13:42:46.55Z</time></trkpt><trkpt lat="39.9341001" lon="15.9612716"><ele>471.5</ele><time>2026-05-03T13:42:47.559Z</time></trkpt><trkpt lat="39.9343518" lon="15.9611172"><ele>456.0</ele><time>2026-05-03T13:42:48.595Z</time></trkpt><trkpt lat="39.9346104" lon="15.9609832"><ele>456.0</ele><time>2026-05-03T13:42:49.596Z</time></trkpt><trkpt lat="39.934872" lon="15.9608599"><ele>456.0</ele><time>2026-05-03T13:42:50.574Z</time></trkpt><trkpt lat="39.9353974" lon="15.9606526"><ele>441.5</ele><time>2026-05-03T13:42:52.577Z</time></trkpt><trkpt lat="39.9356621" lon="15.9605629"><ele>427.0</ele><time>2026-05-03T13:42:53.584Z</time></trkpt><trkpt lat="39.9359278" lon="15.9604744"><ele>411.5</ele><time>2026-05-03T13:42:54.596Z</time></trkpt><trkpt lat="39.9361929" lon="15.9603903"><ele>396.0</ele><time>2026-05-03T13:42:55.584Z</time></trkpt><trkpt lat="39.9364556" lon="15.9603126"><ele>396.0</ele><time>2026-05-03T13:42:56.598Z</time></trkpt><trkpt lat="39.9367175" lon="15.960233"><ele>396.0</ele><time>2026-05-03T13:42:57.564Z</time></trkpt><trkpt lat="39.9369787" lon="15.9601491"><ele>385.0</ele><time>2026-05-03T13:42:58.583Z</time></trkpt><trkpt lat="39.9372377" lon="15.9600685"><ele>374.0</ele><time>2026-05-03T13:42:59.573Z</time></trkpt><trkpt lat="39.9375008" lon="15.9600001"><ele>359.5</ele><time>2026-05-03T13:43:00.573Z</time></trkpt><trkpt lat="39.9377603" lon="15.9599396"><ele>345.0</ele><time>2026-05-03T13:43:01.573Z</time></trkpt><trkpt lat="39.9380178" lon="15.9598674"><ele>345.0</ele><time>2026-05-03T13:43:02.59Z</time></trkpt><trkpt lat="39.9382747" lon="15.9597941"><ele>345.0</ele><time>2026-05-03T13:43:03.609Z</time></trkpt><trkpt lat="39.9385316" lon="15.9597226"><ele>331.0</ele><time>2026-05-03T13:43:04.606Z</time></trkpt><trkpt lat="39.9387883" lon="15.9596529"><ele>317.0</ele><time>2026-05-03T13:43:05.606Z</time></trkpt><trkpt lat="39.9390461" lon="15.9595777"><ele>321.0</ele><time>2026-05-03T13:43:06.605Z</time></trkpt><trkpt lat="39.9393066" lon="15.9595014"><ele>325.0</ele><time>2026-05-03T13:43:07.583Z</time></trkpt><trkpt lat="39.939566" lon="15.9594257"><ele>325.0</ele><time>2026-05-03T13:43:08.601Z</time></trkpt><trkpt lat="39.9398189" lon="15.9593541"><ele>325.0</ele><time>2026-05-03T13:43:09.589Z</time></trkpt><trkpt lat="39.9400648" lon="15.9592819"><ele>355.0</ele><time>2026-05-03T13:43:10.611Z</time></trkpt><trkpt lat="39.9403058" lon="15.9592151"><ele>385.0</ele><time>2026-05-03T13:43:11.603Z</time></trkpt><trkpt lat="39.9405541" lon="15.9591623"><ele>390.0</ele><time>2026-05-03T13:43:12.592Z</time></trkpt><trkpt lat="39.9408077" lon="15.9591353"><ele>395.0</ele><time>2026-05-03T13:43:13.561Z</time></trkpt><trkpt lat="39.9410677" lon="15.9591466"><ele>402.0</ele><time>2026-05-03T13:43:14.583Z</time></trkpt><trkpt lat="39.9413209" lon="15.959176"><ele>409.0</ele><time>2026-05-03T13:43:15.587Z</time></trkpt><trkpt lat="39.9415702" lon="15.9592111"><ele>425.5</ele><time>2026-05-03T13:43:16.599Z</time></trkpt><trkpt lat="39.9418195" lon="15.9592532"><ele>442.0</ele><time>2026-05-03T13:43:17.583Z</time></trkpt><trkpt lat="39.9420683" lon="15.9592921"><ele>442.0</ele><time>2026-05-03T13:43:18.59Z</time></trkpt><trkpt lat="39.9423181" lon="15.9593181"><ele>442.0</ele><time>2026-05-03T13:43:19.589Z</time></trkpt><trkpt lat="39.9425724" lon="15.9593426"><ele>461.5</ele><time>2026-05-03T13:43:20.574Z</time></trkpt><trkpt lat="39.9428279" lon="15.9593577"><ele>481.0</ele><time>2026-05-03T13:43:21.591Z</time></trkpt><trkpt lat="39.9430847" lon="15.9593648"><ele>481.0</ele><time>2026-05-03T13:43:22.586Z</time></trkpt><trkpt lat="39.943344" lon="15.9593586"><ele>481.0</ele><time>2026-05-03T13:43:23.595Z</time></trkpt><trkpt lat="39.943604" lon="15.959331"><ele>498.0</ele><time>2026-05-03T13:43:24.597Z</time></trkpt><trkpt lat="39.9438682" lon="15.9592923"><ele>515.0</ele><time>2026-05-03T13:43:25.576Z</time></trkpt><trkpt lat="39.944125" lon="15.9592542"><ele>527.0</ele><time>2026-05-03T13:43:26.576Z</time></trkpt><trkpt lat="39.9547167" lon="15.9371209"><ele>508.0</ele><time>2026-05-03T13:44:48.571Z</time></trkpt><trkpt lat="39.955117" lon="15.9367645"><ele>511.5</ele><time>2026-05-03T13:44:50.585Z</time></trkpt><trkpt lat="39.9553163" lon="15.9365886"><ele>515.0</ele><time>2026-05-03T13:44:51.6Z</time></trkpt><trkpt lat="39.9555207" lon="15.9364153"><ele>515.0</ele><time>2026-05-03T13:44:52.577Z</time></trkpt><trkpt lat="39.9557261" lon="15.9362463"><ele>515.0</ele><time>2026-05-03T13:44:53.587Z</time></trkpt><trkpt lat="39.9559383" lon="15.9360854"><ele>487.5</ele><time>2026-05-03T13:44:54.572Z</time></trkpt><trkpt lat="39.9561469" lon="15.9359393"><ele>460.0</ele><time>2026-05-03T13:44:55.586Z</time></trkpt><trkpt lat="39.9563485" lon="15.9358074"><ele>457.33333333333337</ele><time>2026-05-03T13:44:56.593Z</time></trkpt><trkpt lat="39.9565396" lon="15.9356841"><ele>454.66666666666663</ele><time>2026-05-03T13:44:57.587Z</time></trkpt><trkpt lat="39.9567224" lon="15.9355691"><ele>452.0</ele><time>2026-05-03T13:44:58.586Z</time></trkpt><trkpt lat="39.9568932" lon="15.9354611"><ele>438.66666666666663</ele><time>2026-05-03T13:44:59.601Z</time></trkpt><trkpt lat="39.9570518" lon="15.935356"><ele>425.33333333333337</ele><time>2026-05-03T13:45:00.591Z</time></trkpt><trkpt lat="39.9572033" lon="15.9352608"><ele>412.0</ele><time>2026-05-03T13:45:01.589Z</time></trkpt><trkpt lat="39.9573463" lon="15.9351721"><ele>412.0</ele><time>2026-05-03T13:45:02.599Z</time></trkpt><trkpt lat="39.957486" lon="15.9350898"><ele>412.0</ele><time>2026-05-03T13:45:03.595Z</time></trkpt><trkpt lat="39.957637" lon="15.9350079"><ele>412.0</ele><time>2026-05-03T13:45:04.595Z</time></trkpt><trkpt lat="39.9577927" lon="15.9349252"><ele>417.0</ele><time>2026-05-03T13:45:05.574Z</time></trkpt><trkpt lat="39.9579553" lon="15.9348409"><ele>422.0</ele><time>2026-05-03T13:45:06.597Z</time></trkpt><trkpt lat="39.9581209" lon="15.9347439"><ele>427.0</ele><time>2026-05-03T13:45:07.58Z</time></trkpt><trkpt lat="39.958288" lon="15.9346469"><ele>432.0</ele><time>2026-05-03T13:45:08.596Z</time></trkpt><trkpt lat="39.9584583" lon="15.9345411"><ele>437.0</ele><time>2026-05-03T13:45:09.596Z</time></trkpt><trkpt lat="39.9586348" lon="15.934431"><ele>442.0</ele><time>2026-05-03T13:45:10.591Z</time></trkpt><trkpt lat="39.9588185" lon="15.9343234"><ele>442.0</ele><time>2026-05-03T13:45:11.59Z</time></trkpt><trkpt lat="39.9590112" lon="15.9342226"><ele>442.0</ele><time>2026-05-03T13:45:12.587Z</time></trkpt><trkpt lat="39.9592058" lon="15.9341173"><ele>442.0</ele><time>2026-05-03T13:45:13.582Z</time></trkpt><trkpt lat="39.959403" lon="15.9340093"><ele>457.0</ele><time>2026-05-03T13:45:14.578Z</time></trkpt><trkpt lat="39.9596017" lon="15.9338985"><ele>472.0</ele><time>2026-05-03T13:45:15.59Z</time></trkpt><trkpt lat="39.9598044" lon="15.9337893"><ele>487.0</ele><time>2026-05-03T13:45:16.577Z</time></trkpt><trkpt lat="39.9600164" lon="15.9336903"><ele>497.5</ele><time>2026-05-03T13:45:17.581Z</time></trkpt><trkpt lat="39.9602329" lon="15.9336014"><ele>508.0</ele><time>2026-05-03T13:45:18.604Z</time></trkpt><trkpt lat="39.9604575" lon="15.9335219"><ele>508.0</ele><time>2026-05-03T13:45:19.573Z</time></trkpt><trkpt lat="39.9606841" lon="15.9334415"><ele>508.0</ele><time>2026-05-03T13:45:20.612Z</time></trkpt><trkpt lat="39.9609162" lon="15.9333658"><ele>519.0</ele><time>2026-05-03T13:45:21.584Z</time></trkpt><trkpt lat="39.9611589" lon="15.9333001"><ele>530.0</ele><time>2026-05-03T13:45:22.572Z</time></trkpt><trkpt lat="39.9614015" lon="15.9332482"><ele>530.0</ele><time>2026-05-03T13:45:23.588Z</time></trkpt><trkpt lat="39.9616466" lon="15.9332059"><ele>530.0</ele><time>2026-05-03T13:45:24.592Z</time></trkpt><trkpt lat="39.9618955" lon="15.9331618"><ele>533.0</ele><time>2026-05-03T13:45:25.584Z</time></trkpt><trkpt lat="39.9621392" lon="15.933116"><ele>536.0</ele><time>2026-05-03T13:45:26.575Z</time></trkpt><trkpt lat="39.9623833" lon="15.9330644"><ele>541.0</ele><time>2026-05-03T13:45:27.58Z</time></trkpt><trkpt lat="39.9626289" lon="15.9330134"><ele>546.0</ele><time>2026-05-03T13:45:28.598Z</time></trkpt><trkpt lat="39.9628821" lon="15.9329633"><ele>546.0</ele><time>2026-05-03T13:45:29.584Z</time></trkpt><trkpt lat="39.9631351" lon="15.9329125"><ele>546.0</ele><time>2026-05-03T13:45:30.603Z</time></trkpt><trkpt lat="39.9633901" lon="15.9328566"><ele>549.5</ele><time>2026-05-03T13:45:31.593Z</time></trkpt><trkpt lat="39.9636477" lon="15.9328058"><ele>553.0</ele><time>2026-05-03T13:45:32.573Z</time></trkpt><trkpt lat="39.9639068" lon="15.9327614"><ele>553.0</ele><time>2026-05-03T13:45:33.584Z</time></trkpt><trkpt lat="39.9641672" lon="15.932734"><ele>553.0</ele><time>2026-05-03T13:45:34.593Z</time></trkpt><trkpt lat="39.9644263" lon="15.9327149"><ele>554.0</ele><time>2026-05-03T13:45:35.58Z</time></trkpt><trkpt lat="39.9646846" lon="15.9327067"><ele>555.0</ele><time>2026-05-03T13:45:36.599Z</time></trkpt><trkpt lat="39.96494" lon="15.9326964"><ele>555.5</ele><time>2026-05-03T13:45:37.59Z</time></trkpt><trkpt lat="39.9651973" lon="15.9326883"><ele>556.0</ele><time>2026-05-03T13:45:38.563Z</time></trkpt><trkpt lat="39.9654536" lon="15.9326766"><ele>556.0</ele><time>2026-05-03T13:45:39.598Z</time></trkpt><trkpt lat="39.9657074" lon="15.9326674"><ele>556.0</ele><time>2026-05-03T13:45:40.592Z</time></trkpt><trkpt lat="39.9659623" lon="15.93266"><ele>557.5</ele><time>2026-05-03T13:45:41.594Z</time></trkpt><trkpt lat="39.9662157" lon="15.9326451"><ele>559.0</ele><time>2026-05-03T13:45:42.616Z</time></trkpt><trkpt lat="39.9664659" lon="15.9326334"><ele>560.0</ele><time>2026-05-03T13:45:43.597Z</time></trkpt><trkpt lat="39.9667171" lon="15.9326215"><ele>561.0</ele><time>2026-05-03T13:45:44.596Z</time></trkpt><trkpt lat="39.9669575" lon="15.9326128"><ele>561.0</ele><time>2026-05-03T13:45:45.584Z</time></trkpt><trkpt lat="39.9671746" lon="15.9326008"><ele>561.0</ele><time>2026-05-03T13:45:46.594Z</time></trkpt><trkpt lat="39.9673777" lon="15.9325956"><ele>561.0</ele><time>2026-05-03T13:45:47.597Z</time></trkpt><trkpt lat="39.9675669" lon="15.9325904"><ele>561.3333333333334</ele><time>2026-05-03T13:45:48.588Z</time></trkpt><trkpt lat="39.967749" lon="15.9325821"><ele>561.6666666666667</ele><time>2026-05-03T13:45:49.593Z</time></trkpt><trkpt lat="39.9679278" lon="15.9325764"><ele>562.0</ele><time>2026-05-03T13:45:50.603Z</time></trkpt><trkpt lat="39.9681069" lon="15.9325733"><ele>562.0</ele><time>2026-05-03T13:45:51.591Z</time></trkpt><trkpt lat="39.968298" lon="15.9325822"><ele>562.0</ele><time>2026-05-03T13:45:52.582Z</time></trkpt><trkpt lat="39.9684917" lon="15.9326077"><ele>562.0</ele><time>2026-05-03T13:45:53.588Z</time></trkpt><trkpt lat="39.9686886" lon="15.9326407"><ele>563.6666666666667</ele><time>2026-05-03T13:45:54.586Z</time></trkpt><trkpt lat="39.9688911" lon="15.9326849"><ele>565.3333333333334</ele><time>2026-05-03T13:45:55.586Z</time></trkpt><trkpt lat="39.9690922" lon="15.93275"><ele>567.0</ele><time>2026-05-03T13:45:56.551Z</time></trkpt><trkpt lat="39.9692919" lon="15.9328289"><ele>569.6666666666666</ele><time>2026-05-03T13:45:57.585Z</time></trkpt><trkpt lat="39.9694934" lon="15.9329312"><ele>572.3333333333333</ele><time>2026-05-03T13:45:58.595Z</time></trkpt><trkpt lat="39.9696872" lon="15.9330439"><ele>575.0</ele><time>2026-05-03T13:45:59.593Z</time></trkpt><trkpt lat="39.9698789" lon="15.9331795"><ele>575.0</ele><time>2026-05-03T13:46:00.595Z</time></trkpt><trkpt lat="39.9700673" lon="15.9333274"><ele>575.0</ele><time>2026-05-03T13:46:01.604Z</time></trkpt><trkpt lat="39.9702501" lon="15.933487"><ele>575.0</ele><time>2026-05-03T13:46:02.605Z</time></trkpt><trkpt lat="39.9704249" lon="15.9336682"><ele>575.0</ele><time>2026-05-03T13:46:03.583Z</time></trkpt><trkpt lat="39.9705932" lon="15.933861"><ele>575.0</ele><time>2026-05-03T13:46:04.601Z</time></trkpt><trkpt lat="39.9707599" lon="15.9340663"><ele>581.5</ele><time>2026-05-03T13:46:05.608Z</time></trkpt><trkpt lat="39.9709181" lon="15.9342782"><ele>588.0</ele><time>2026-05-03T13:46:06.596Z</time></trkpt><trkpt lat="39.9710798" lon="15.9344828"><ele>588.0</ele><time>2026-05-03T13:46:07.592Z</time></trkpt><trkpt lat="39.9712507" lon="15.934679"><ele>588.0</ele><time>2026-05-03T13:46:08.592Z</time></trkpt><trkpt lat="39.9714181" lon="15.9348786"><ele>586.0</ele><time>2026-05-03T13:46:09.588Z</time></trkpt><trkpt lat="39.9715832" lon="15.9350854"><ele>584.0</ele><time>2026-05-03T13:46:10.587Z</time></trkpt><trkpt lat="39.9717528" lon="15.9352939"><ele>589.0</ele><time>2026-05-03T13:46:11.59Z</time></trkpt><trkpt lat="39.9719356" lon="15.935494"><ele>594.0</ele><time>2026-05-03T13:46:12.607Z</time></trkpt><trkpt lat="39.9721356" lon="15.9356729"><ele>594.0</ele><time>2026-05-03T13:46:13.562Z</time></trkpt><trkpt lat="39.972349" lon="15.9358279"><ele>594.0</ele><time>2026-05-03T13:46:14.572Z</time></trkpt><trkpt lat="39.9725752" lon="15.9359592"><ele>594.0</ele><time>2026-05-03T13:46:15.585Z</time></trkpt><trkpt lat="39.9728196" lon="15.936069"><ele>594.0</ele><time>2026-05-03T13:46:16.586Z</time></trkpt><trkpt lat="39.9733161" lon="15.9362579"><ele>596.0</ele><time>2026-05-03T13:46:18.577Z</time></trkpt><trkpt lat="39.9735707" lon="15.9363232"><ele>598.0</ele><time>2026-05-03T13:46:19.59Z</time></trkpt><trkpt lat="39.9738264" lon="15.9363717"><ele>598.0</ele><time>2026-05-03T13:46:20.594Z</time></trkpt><trkpt lat="39.974086" lon="15.9363859"><ele>598.0</ele><time>2026-05-03T13:46:21.581Z</time></trkpt><trkpt lat="39.9743461" lon="15.9363773"><ele>601.5</ele><time>2026-05-03T13:46:22.582Z</time></trkpt><trkpt lat="39.9746074" lon="15.9363447"><ele>605.0</ele><time>2026-05-03T13:46:23.596Z</time></trkpt><trkpt lat="39.97487" lon="15.9363055"><ele>606.0</ele><time>2026-05-03T13:46:24.599Z</time></trkpt><trkpt lat="39.9751287" lon="15.9362581"><ele>607.0</ele><time>2026-05-03T13:46:25.572Z</time></trkpt><trkpt lat="39.9753886" lon="15.9362073"><ele>607.0</ele><time>2026-05-03T13:46:26.581Z</time></trkpt><trkpt lat="39.9756511" lon="15.9361496"><ele>607.0</ele><time>2026-05-03T13:46:27.583Z</time></trkpt><trkpt lat="39.9759114" lon="15.9360909"><ele>607.0</ele><time>2026-05-03T13:46:28.566Z</time></trkpt><trkpt lat="39.976171" lon="15.9360256"><ele>607.0</ele><time>2026-05-03T13:46:29.593Z</time></trkpt><trkpt lat="39.9764324" lon="15.9359636"><ele>606.5</ele><time>2026-05-03T13:46:30.599Z</time></trkpt><trkpt lat="39.9766942" lon="15.9359137"><ele>606.0</ele><time>2026-05-03T13:46:31.597Z</time></trkpt><trkpt lat="39.9769574" lon="15.9358601"><ele>611.5</ele><time>2026-05-03T13:46:32.591Z</time></trkpt><trkpt lat="39.9772239" lon="15.9358033"><ele>617.0</ele><time>2026-05-03T13:46:33.589Z</time></trkpt><trkpt lat="39.9774872" lon="15.9357443"><ele>620.0</ele><time>2026-05-03T13:46:34.572Z</time></trkpt><trkpt lat="39.9777489" lon="15.9356795"><ele>623.0</ele><time>2026-05-03T13:46:35.598Z</time></trkpt><trkpt lat="39.9780165" lon="15.935617"><ele>623.0</ele><time>2026-05-03T13:46:36.59Z</time></trkpt><trkpt lat="39.9782859" lon="15.9355551"><ele>623.0</ele><time>2026-05-03T13:46:37.593Z</time></trkpt><trkpt lat="39.9785504" lon="15.9354922"><ele>615.5</ele><time>2026-05-03T13:46:38.6Z</time></trkpt><trkpt lat="39.9788141" lon="15.9354362"><ele>608.0</ele><time>2026-05-03T13:46:39.59Z</time></trkpt><trkpt lat="39.9790802" lon="15.9353825"><ele>598.5</ele><time>2026-05-03T13:46:40.598Z</time></trkpt><trkpt lat="39.9793472" lon="15.9353275"><ele>589.0</ele><time>2026-05-03T13:46:41.58Z</time></trkpt><trkpt lat="39.9796171" lon="15.9352711"><ele>589.0</ele><time>2026-05-03T13:46:42.602Z</time></trkpt><trkpt lat="39.9798867" lon="15.9352238"><ele>589.0</ele><time>2026-05-03T13:46:43.582Z</time></trkpt><trkpt lat="39.9801615" lon="15.9351873"><ele>599.0</ele><time>2026-05-03T13:46:44.597Z</time></trkpt><trkpt lat="39.9804399" lon="15.9351558"><ele>609.0</ele><time>2026-05-03T13:46:45.592Z</time></trkpt><trkpt lat="39.9807195" lon="15.9351235"><ele>614.5</ele><time>2026-05-03T13:46:46.592Z</time></trkpt><trkpt lat="39.9809985" lon="15.9350892"><ele>620.0</ele><time>2026-05-03T13:46:47.595Z</time></trkpt><trkpt lat="39.9812784" lon="15.9350587"><ele>626.5</ele><time>2026-05-03T13:46:48.592Z</time></trkpt><trkpt lat="39.9815623" lon="15.9350328"><ele>633.0</ele><time>2026-05-03T13:46:49.568Z</time></trkpt><trkpt lat="39.9818459" lon="15.935005"><ele>633.0</ele><time>2026-05-03T13:46:50.59Z</time></trkpt><trkpt lat="39.9824155" lon="15.9349373"><ele>631.5</ele><time>2026-05-03T13:46:52.59Z</time></trkpt><trkpt lat="39.9827048" lon="15.9349106"><ele>630.0</ele><time>2026-05-03T13:46:53.583Z</time></trkpt><trkpt lat="39.9829922" lon="15.9348748"><ele>630.0</ele><time>2026-05-03T13:46:54.592Z</time></trkpt><trkpt lat="39.9832807" lon="15.9348366"><ele>630.0</ele><time>2026-05-03T13:46:55.592Z</time></trkpt><trkpt lat="39.9835711" lon="15.9348016"><ele>641.5</ele><time>2026-05-03T13:46:56.591Z</time></trkpt><trkpt lat="39.9838604" lon="15.934773"><ele>653.0</ele><time>2026-05-03T13:46:57.59Z</time></trkpt><trkpt lat="39.9841492" lon="15.9347448"><ele>657.0</ele><time>2026-05-03T13:46:58.589Z</time></trkpt><trkpt lat="39.9844393" lon="15.9347111"><ele>661.0</ele><time>2026-05-03T13:46:59.583Z</time></trkpt><trkpt lat="39.9847238" lon="15.9346785"><ele>661.0</ele><time>2026-05-03T13:47:00.597Z</time></trkpt><trkpt lat="39.9850105" lon="15.9346446"><ele>661.0</ele><time>2026-05-03T13:47:01.59Z</time></trkpt><trkpt lat="39.9852974" lon="15.9346097"><ele>653.5</ele><time>2026-05-03T13:47:02.601Z</time></trkpt><trkpt lat="39.9855853" lon="15.9345778"><ele>646.0</ele><time>2026-05-03T13:47:03.593Z</time></trkpt><trkpt lat="39.9858722" lon="15.9345474"><ele>637.5</ele><time>2026-05-03T13:47:04.608Z</time></trkpt><trkpt lat="39.9861576" lon="15.9345319"><ele>629.0</ele><time>2026-05-03T13:47:05.603Z</time></trkpt><trkpt lat="39.9864486" lon="15.9344931"><ele>631.5</ele><time>2026-05-03T13:47:06.598Z</time></trkpt><trkpt lat="39.986738" lon="15.934458"><ele>634.0</ele><time>2026-05-03T13:47:07.595Z</time></trkpt><trkpt lat="39.987025" lon="15.9344182"><ele>634.0</ele><time>2026-05-03T13:47:08.592Z</time></trkpt><trkpt lat="39.9873137" lon="15.9343736"><ele>634.0</ele><time>2026-05-03T13:47:09.562Z</time></trkpt><trkpt lat="39.9875977" lon="15.9343074"><ele>650.0</ele><time>2026-05-03T13:47:10.592Z</time></trkpt><trkpt lat="39.9878805" lon="15.9342158"><ele>666.0</ele><time>2026-05-03T13:47:11.589Z</time></trkpt><trkpt lat="39.9881573" lon="15.9341118"><ele>664.0</ele><time>2026-05-03T13:47:12.594Z</time></trkpt><trkpt lat="39.9884323" lon="15.9339985"><ele>662.0</ele><time>2026-05-03T13:47:13.59Z</time></trkpt><trkpt lat="39.9887078" lon="15.9338797"><ele>662.0</ele><time>2026-05-03T13:47:14.597Z</time></trkpt><trkpt lat="39.9889786" lon="15.9337455"><ele>662.0</ele><time>2026-05-03T13:47:15.574Z</time></trkpt><trkpt lat="39.9892419" lon="15.9335915"><ele>666.0</ele><time>2026-05-03T13:47:16.585Z</time></trkpt><trkpt lat="39.989495" lon="15.9334207"><ele>670.0</ele><time>2026-05-03T13:47:17.591Z</time></trkpt><trkpt lat="39.989742" lon="15.933241"><ele>671.0</ele><time>2026-05-03T13:47:18.573Z</time></trkpt><trkpt lat="39.9899807" lon="15.9330488"><ele>672.0</ele><time>2026-05-03T13:47:19.556Z</time></trkpt><trkpt lat="39.9902135" lon="15.9328497"><ele>679.0</ele><time>2026-05-03T13:47:20.555Z</time></trkpt><trkpt lat="39.9904386" lon="15.9326423"><ele>686.0</ele><time>2026-05-03T13:47:21.562Z</time></trkpt><trkpt lat="39.9906587" lon="15.9324275"><ele>699.5</ele><time>2026-05-03T13:47:22.565Z</time></trkpt><trkpt lat="39.9908726" lon="15.9322024"><ele>713.0</ele><time>2026-05-03T13:47:23.549Z</time></trkpt><trkpt lat="39.9910783" lon="15.931961"><ele>710.0</ele><time>2026-05-03T13:47:24.572Z</time></trkpt><trkpt lat="39.9912775" lon="15.9317107"><ele>707.0</ele><time>2026-05-03T13:47:25.557Z</time></trkpt><trkpt lat="39.9914646" lon="15.9314398"><ele>707.0</ele><time>2026-05-03T13:47:26.567Z</time></trkpt><trkpt lat="39.9916455" lon="15.9311828"><ele>707.0</ele><time>2026-05-03T13:47:27.588Z</time></trkpt><trkpt lat="39.9918154" lon="15.9309122"><ele>708.5</ele><time>2026-05-03T13:47:28.591Z</time></trkpt><trkpt lat="39.9919779" lon="15.9306287"><ele>710.0</ele><time>2026-05-03T13:47:29.595Z</time></trkpt><trkpt lat="39.9921477" lon="15.9303546"><ele>710.0</ele><time>2026-05-03T13:47:30.575Z</time></trkpt><trkpt lat="39.9923148" lon="15.930076"><ele>710.0</ele><time>2026-05-03T13:47:31.601Z</time></trkpt><trkpt lat="39.9924886" lon="15.9298004"><ele>720.0</ele><time>2026-05-03T13:47:32.599Z</time></trkpt><trkpt lat="39.992666" lon="15.9295251"><ele>730.0</ele><time>2026-05-03T13:47:33.597Z</time></trkpt><trkpt lat="39.9928389" lon="15.9292456"><ele>727.0</ele><time>2026-05-03T13:47:34.59Z</time></trkpt><trkpt lat="39.9930318" lon="15.9289669"><ele>724.0</ele><time>2026-05-03T13:47:35.549Z</time></trkpt><trkpt lat="40.0038822" lon="15.9117037"><ele>727.0</ele><time>2026-05-03T13:48:37.57Z</time></trkpt><trkpt lat="40.0043106" lon="15.9112116"><ele>727.0</ele><time>2026-05-03T13:48:39.568Z</time></trkpt><trkpt lat="40.0045122" lon="15.9109723"><ele>727.0</ele><time>2026-05-03T13:48:40.565Z</time></trkpt><trkpt lat="40.0047092" lon="15.910721"><ele>728.0</ele><time>2026-05-03T13:48:41.55Z</time></trkpt><trkpt lat="40.0049024" lon="15.9104701"><ele>729.0</ele><time>2026-05-03T13:48:42.571Z</time></trkpt><trkpt lat="40.005097" lon="15.9102243"><ele>727.0</ele><time>2026-05-03T13:48:43.562Z</time></trkpt><trkpt lat="40.0052892" lon="15.9099762"><ele>725.0</ele><time>2026-05-03T13:48:44.568Z</time></trkpt><trkpt lat="40.0054768" lon="15.9097222"><ele>725.0</ele><time>2026-05-03T13:48:45.578Z</time></trkpt><trkpt lat="40.0056626" lon="15.9094654"><ele>725.0</ele><time>2026-05-03T13:48:46.557Z</time></trkpt><trkpt lat="40.0058461" lon="15.9092086"><ele>723.0</ele><time>2026-05-03T13:48:47.565Z</time></trkpt><trkpt lat="40.0060229" lon="15.9089437"><ele>721.0</ele><time>2026-05-03T13:48:48.545Z</time></trkpt><trkpt lat="40.0061926" lon="15.9086811"><ele>721.0</ele><time>2026-05-03T13:48:49.575Z</time></trkpt><trkpt lat="40.0063591" lon="15.9084102"><ele>721.0</ele><time>2026-05-03T13:48:50.553Z</time></trkpt><trkpt lat="40.0065215" lon="15.9081409"><ele>721.0</ele><time>2026-05-03T13:48:51.573Z</time></trkpt><trkpt lat="40.0066792" lon="15.9078777"><ele>721.0</ele><time>2026-05-03T13:48:52.57Z</time></trkpt><trkpt lat="40.0068365" lon="15.9076099"><ele>726.0</ele><time>2026-05-03T13:48:53.569Z</time></trkpt><trkpt lat="40.0069803" lon="15.9073296"><ele>731.0</ele><time>2026-05-03T13:48:54.565Z</time></trkpt><trkpt lat="40.0071291" lon="15.9070427"><ele>731.0</ele><time>2026-05-03T13:48:55.556Z</time></trkpt><trkpt lat="40.0119756" lon="15.9004064"><ele>729.0</ele><time>2026-05-03T13:49:20.541Z</time></trkpt><trkpt lat="40.0123845" lon="15.8998977"><ele>726.5</ele><time>2026-05-03T13:49:22.565Z</time></trkpt><trkpt lat="40.0125823" lon="15.8996337"><ele>724.0</ele><time>2026-05-03T13:49:23.551Z</time></trkpt><trkpt lat="40.0127751" lon="15.8993565"><ele>724.0</ele><time>2026-05-03T13:49:24.561Z</time></trkpt><trkpt lat="40.0129628" lon="15.8990776"><ele>724.0</ele><time>2026-05-03T13:49:25.566Z</time></trkpt><trkpt lat="40.0131451" lon="15.898799"><ele>724.5</ele><time>2026-05-03T13:49:26.554Z</time></trkpt><trkpt lat="40.0133224" lon="15.8985176"><ele>725.0</ele><time>2026-05-03T13:49:27.558Z</time></trkpt><trkpt lat="40.0134898" lon="15.8982345"><ele>725.0</ele><time>2026-05-03T13:49:28.579Z</time></trkpt><trkpt lat="40.0136493" lon="15.8979446"><ele>725.0</ele><time>2026-05-03T13:49:29.572Z</time></trkpt><trkpt lat="40.0138123" lon="15.8976557"><ele>724.0</ele><time>2026-05-03T13:49:30.561Z</time></trkpt><trkpt lat="40.0139736" lon="15.8973628"><ele>723.0</ele><time>2026-05-03T13:49:31.569Z</time></trkpt><trkpt lat="40.0141313" lon="15.8970666"><ele>723.5</ele><time>2026-05-03T13:49:32.567Z</time></trkpt><trkpt lat="40.0142884" lon="15.8967704"><ele>724.0</ele><time>2026-05-03T13:49:33.575Z</time></trkpt><trkpt lat="40.0144503" lon="15.8964773"><ele>724.0</ele><time>2026-05-03T13:49:34.566Z</time></trkpt><trkpt lat="40.0146104" lon="15.8961803"><ele>724.0</ele><time>2026-05-03T13:49:35.574Z</time></trkpt><trkpt lat="40.0147732" lon="15.8958842"><ele>723.5</ele><time>2026-05-03T13:49:36.574Z</time></trkpt><trkpt lat="40.0149333" lon="15.8955822"><ele>723.0</ele><time>2026-05-03T13:49:37.587Z</time></trkpt><trkpt lat="40.0150892" lon="15.8952797"><ele>730.0</ele><time>2026-05-03T13:49:38.574Z</time></trkpt><trkpt lat="40.0154023" lon="15.8946845"><ele>730.0</ele><time>2026-05-03T13:49:40.569Z</time></trkpt><trkpt lat="40.0155581" lon="15.8943861"><ele>730.0</ele><time>2026-05-03T13:49:41.571Z</time></trkpt><trkpt lat="40.0157185" lon="15.8940901"><ele>729.0</ele><time>2026-05-03T13:49:42.55Z</time></trkpt><trkpt lat="40.0158799" lon="15.8937956"><ele>728.0</ele><time>2026-05-03T13:49:43.553Z</time></trkpt><trkpt lat="40.0160348" lon="15.893499"><ele>727.5</ele><time>2026-05-03T13:49:44.55Z</time></trkpt><trkpt lat="40.0161931" lon="15.8932031"><ele>727.0</ele><time>2026-05-03T13:49:45.557Z</time></trkpt><trkpt lat="40.0163484" lon="15.8929034"><ele>727.0</ele><time>2026-05-03T13:49:46.562Z</time></trkpt><trkpt lat="40.0165039" lon="15.8926017"><ele>727.0</ele><time>2026-05-03T13:49:47.56Z</time></trkpt><trkpt lat="40.0166574" lon="15.8923002"><ele>727.5</ele><time>2026-05-03T13:49:48.55Z</time></trkpt><trkpt lat="40.0168054" lon="15.8920007"><ele>728.0</ele><time>2026-05-03T13:49:49.561Z</time></trkpt><trkpt lat="40.0170624" lon="15.8913781"><ele>727.0</ele><time>2026-05-03T13:49:51.576Z</time></trkpt><trkpt lat="40.0171805" lon="15.891062"><ele>726.0</ele><time>2026-05-03T13:49:52.57Z</time></trkpt><trkpt lat="40.0172944" lon="15.8907414"><ele>725.5</ele><time>2026-05-03T13:49:53.547Z</time></trkpt><trkpt lat="40.0174019" lon="15.8904161"><ele>725.0</ele><time>2026-05-03T13:49:54.562Z</time></trkpt><trkpt lat="40.0175017" lon="15.8900875"><ele>724.5</ele><time>2026-05-03T13:49:55.551Z</time></trkpt><trkpt lat="40.0175976" lon="15.8897591"><ele>724.0</ele><time>2026-05-03T13:49:56.552Z</time></trkpt><trkpt lat="40.017689" lon="15.8894325"><ele>724.0</ele><time>2026-05-03T13:49:57.57Z</time></trkpt><trkpt lat="40.0177769" lon="15.8891017"><ele>724.0</ele><time>2026-05-03T13:49:58.557Z</time></trkpt><trkpt lat="40.017864" lon="15.8887723"><ele>724.0</ele><time>2026-05-03T13:49:59.563Z</time></trkpt><trkpt lat="40.0179571" lon="15.888445"><ele>724.0</ele><time>2026-05-03T13:50:00.572Z</time></trkpt><trkpt lat="40.0180625" lon="15.8881188"><ele>724.5</ele><time>2026-05-03T13:50:01.566Z</time></trkpt><trkpt lat="40.0181747" lon="15.8877983"><ele>725.0</ele><time>2026-05-03T13:50:02.561Z</time></trkpt><trkpt lat="40.0182946" lon="15.8874892"><ele>725.5</ele><time>2026-05-03T13:50:03.571Z</time></trkpt><trkpt lat="40.0184218" lon="15.8871822"><ele>726.0</ele><time>2026-05-03T13:50:04.569Z</time></trkpt><trkpt lat="40.0185486" lon="15.8868772"><ele>726.0</ele><time>2026-05-03T13:50:05.571Z</time></trkpt><trkpt lat="40.0186753" lon="15.8865689"><ele>726.0</ele><time>2026-05-03T13:50:06.569Z</time></trkpt><trkpt lat="40.0188012" lon="15.8862658"><ele>728.0</ele><time>2026-05-03T13:50:07.566Z</time></trkpt><trkpt lat="40.0190495" lon="15.8856903"><ele>728.6666666666666</ele><time>2026-05-03T13:50:09.553Z</time></trkpt><trkpt lat="40.0191615" lon="15.8854234"><ele>729.3333333333334</ele><time>2026-05-03T13:50:10.562Z</time></trkpt><trkpt lat="40.0192656" lon="15.8851759"><ele>730.0</ele><time>2026-05-03T13:50:11.565Z</time></trkpt><trkpt lat="40.0193689" lon="15.8849267"><ele>730.6666666666667</ele><time>2026-05-03T13:50:12.559Z</time></trkpt><trkpt lat="40.0194745" lon="15.8846759"><ele>731.3333333333334</ele><time>2026-05-03T13:50:13.571Z</time></trkpt><trkpt lat="40.0195811" lon="15.884425"><ele>732.0</ele><time>2026-05-03T13:50:14.562Z</time></trkpt><trkpt lat="40.0196891" lon="15.884172"><ele>732.0</ele><time>2026-05-03T13:50:15.56Z</time></trkpt><trkpt lat="40.0197957" lon="15.8839199"><ele>732.0</ele><time>2026-05-03T13:50:16.579Z</time></trkpt><trkpt lat="40.0199068" lon="15.8836685"><ele>732.0</ele><time>2026-05-03T13:50:17.57Z</time></trkpt><trkpt lat="40.0200198" lon="15.8834123"><ele>733.0</ele><time>2026-05-03T13:50:18.569Z</time></trkpt><trkpt lat="40.0201277" lon="15.8831549"><ele>734.0</ele><time>2026-05-03T13:50:19.572Z</time></trkpt><trkpt lat="40.0202316" lon="15.8829015"><ele>735.0</ele><time>2026-05-03T13:50:20.547Z</time></trkpt><trkpt lat="40.0203375" lon="15.8826497"><ele>734.3333333333334</ele><time>2026-05-03T13:50:21.566Z</time></trkpt><trkpt lat="40.0204465" lon="15.8823957"><ele>733.6666666666667</ele><time>2026-05-03T13:50:22.568Z</time></trkpt><trkpt lat="40.0205555" lon="15.8821418"><ele>733.0</ele><time>2026-05-03T13:50:23.574Z</time></trkpt><trkpt lat="40.0206664" lon="15.8818864"><ele>733.6666666666667</ele><time>2026-05-03T13:50:24.576Z</time></trkpt><trkpt lat="40.0207843" lon="15.8816401"><ele>734.3333333333334</ele><time>2026-05-03T13:50:25.566Z</time></trkpt><trkpt lat="40.0209137" lon="15.8814006"><ele>735.0</ele><time>2026-05-03T13:50:26.573Z</time></trkpt><trkpt lat="40.0210506" lon="15.8811704"><ele>736.3333333333334</ele><time>2026-05-03T13:50:27.57Z</time></trkpt><trkpt lat="40.0211937" lon="15.8809466"><ele>737.6666666666667</ele><time>2026-05-03T13:50:28.566Z</time></trkpt><trkpt lat="40.0213423" lon="15.8807293"><ele>739.0</ele><time>2026-05-03T13:50:29.568Z</time></trkpt><trkpt lat="40.021499" lon="15.8805215"><ele>746.0</ele><time>2026-05-03T13:50:30.573Z</time></trkpt><trkpt lat="40.0218416" lon="15.8801248"><ele>749.0</ele><time>2026-05-03T13:50:32.567Z</time></trkpt><trkpt lat="40.0220269" lon="15.8799236"><ele>752.0</ele><time>2026-05-03T13:50:33.56Z</time></trkpt><trkpt lat="40.0242365" lon="15.8784796"><ele>750.0</ele><time>2026-05-03T13:50:43.561Z</time></trkpt><trkpt lat="40.0247389" lon="15.8781496"><ele>750.0</ele><time>2026-05-03T13:50:45.533Z</time></trkpt><trkpt lat="40.0249746" lon="15.8780069"><ele>750.0</ele><time>2026-05-03T13:50:46.538Z</time></trkpt><trkpt lat="40.0252096" lon="15.8778469"><ele>747.0</ele><time>2026-05-03T13:50:47.544Z</time></trkpt><trkpt lat="40.025438" lon="15.8777044"><ele>744.0</ele><time>2026-05-03T13:50:48.537Z</time></trkpt><trkpt lat="40.0259185" lon="15.8774114"><ele>743.0</ele><time>2026-05-03T13:50:50.556Z</time></trkpt><trkpt lat="40.0261614" lon="15.877269"><ele>742.0</ele><time>2026-05-03T13:50:51.549Z</time></trkpt><trkpt lat="40.0263997" lon="15.8771286"><ele>742.0</ele><time>2026-05-03T13:50:52.571Z</time></trkpt><trkpt lat="40.0266305" lon="15.876964"><ele>742.0</ele><time>2026-05-03T13:50:53.563Z</time></trkpt><trkpt lat="40.0268758" lon="15.8768191"><ele>742.5</ele><time>2026-05-03T13:50:54.557Z</time></trkpt><trkpt lat="40.0271186" lon="15.8766721"><ele>743.0</ele><time>2026-05-03T13:50:55.558Z</time></trkpt><trkpt lat="40.0273607" lon="15.8765203"><ele>750.0</ele><time>2026-05-03T13:50:56.555Z</time></trkpt><trkpt lat="40.0276087" lon="15.8763622"><ele>757.0</ele><time>2026-05-03T13:50:57.554Z</time></trkpt><trkpt lat="40.0281155" lon="15.8760607"><ele>757.0</ele><time>2026-05-03T13:50:59.567Z</time></trkpt><trkpt lat="40.0283678" lon="15.8759071"><ele>757.0</ele><time>2026-05-03T13:51:00.579Z</time></trkpt><trkpt lat="40.0286192" lon="15.8757455"><ele>757.0</ele><time>2026-05-03T13:51:01.551Z</time></trkpt><trkpt lat="40.0288791" lon="15.8755929"><ele>757.0</ele><time>2026-05-03T13:51:02.538Z</time></trkpt><trkpt lat="40.0291446" lon="15.8754513"><ele>763.0</ele><time>2026-05-03T13:51:03.55Z</time></trkpt><trkpt lat="40.0294075" lon="15.8753135"><ele>769.0</ele><time>2026-05-03T13:51:04.562Z</time></trkpt><trkpt lat="40.0310366" lon="15.8747845"><ele>771.0</ele><time>2026-05-03T13:51:10.532Z</time></trkpt><trkpt lat="40.0313125" lon="15.8747141"><ele>773.0</ele><time>2026-05-03T13:51:11.541Z</time></trkpt><trkpt lat="40.0315979" lon="15.8747083"><ele>778.5</ele><time>2026-05-03T13:51:12.553Z</time></trkpt><trkpt lat="40.0318772" lon="15.8746569"><ele>784.0</ele><time>2026-05-03T13:51:13.557Z</time></trkpt><trkpt lat="40.0321521" lon="15.8746125"><ele>784.0</ele><time>2026-05-03T13:51:14.557Z</time></trkpt><trkpt lat="40.0324326" lon="15.8745794"><ele>784.0</ele><time>2026-05-03T13:51:15.575Z</time></trkpt><trkpt lat="40.0327112" lon="15.8745489"><ele>790.0</ele><time>2026-05-03T13:51:16.568Z</time></trkpt><trkpt lat="40.0329866" lon="15.8745171"><ele>796.0</ele><time>2026-05-03T13:51:17.533Z</time></trkpt><trkpt lat="40.0332564" lon="15.8744784"><ele>795.0</ele><time>2026-05-03T13:51:18.553Z</time></trkpt><trkpt lat="40.0335249" lon="15.8744459"><ele>794.0</ele><time>2026-05-03T13:51:19.56Z</time></trkpt><trkpt lat="40.0340644" lon="15.8743593"><ele>784.0</ele><time>2026-05-03T13:51:21.579Z</time></trkpt><trkpt lat="40.0343325" lon="15.8743002"><ele>774.0</ele><time>2026-05-03T13:51:22.574Z</time></trkpt><trkpt lat="40.0346023" lon="15.8742298"><ele>764.5</ele><time>2026-05-03T13:51:23.588Z</time></trkpt><trkpt lat="40.034869" lon="15.8741449"><ele>755.0</ele><time>2026-05-03T13:51:24.574Z</time></trkpt><trkpt lat="40.0351382" lon="15.8740543"><ele>745.5</ele><time>2026-05-03T13:51:25.542Z</time></trkpt><trkpt lat="40.035404" lon="15.8739575"><ele>736.0</ele><time>2026-05-03T13:51:26.563Z</time></trkpt><trkpt lat="40.035668" lon="15.8738536"><ele>729.5</ele><time>2026-05-03T13:51:27.57Z</time></trkpt><trkpt lat="40.0359329" lon="15.8737473"><ele>723.0</ele><time>2026-05-03T13:51:28.564Z</time></trkpt><trkpt lat="40.0361959" lon="15.8736336"><ele>723.0</ele><time>2026-05-03T13:51:29.576Z</time></trkpt><trkpt lat="40.0364573" lon="15.8735191"><ele>723.0</ele><time>2026-05-03T13:51:30.567Z</time></trkpt><trkpt lat="40.0367229" lon="15.8734051"><ele>720.5</ele><time>2026-05-03T13:51:31.545Z</time></trkpt><trkpt lat="40.0369871" lon="15.8732902"><ele>718.0</ele><time>2026-05-03T13:51:32.563Z</time></trkpt><trkpt lat="40.0372542" lon="15.8731741"><ele>730.5</ele><time>2026-05-03T13:51:33.557Z</time></trkpt><trkpt lat="40.0375215" lon="15.8730542"><ele>743.0</ele><time>2026-05-03T13:51:34.572Z</time></trkpt><trkpt lat="40.0377863" lon="15.8729322"><ele>743.0</ele><time>2026-05-03T13:51:35.561Z</time></trkpt><trkpt lat="40.0380465" lon="15.8728123"><ele>743.0</ele><time>2026-05-03T13:51:36.568Z</time></trkpt><trkpt lat="40.0383087" lon="15.8726861"><ele>866.0</ele><time>2026-05-03T13:51:37.548Z</time></trkpt><trkpt lat="40.0711692" lon="15.8672201"><ele>873.0</ele><time>2026-05-03T13:53:37.557Z</time></trkpt><trkpt lat="40.071744" lon="15.8663816"><ele>873.0</ele><time>2026-05-03T13:53:40.551Z</time></trkpt><trkpt lat="40.0719224" lon="15.8660821"><ele>873.0</ele><time>2026-05-03T13:53:41.544Z</time></trkpt><trkpt lat="40.0720933" lon="15.8657756"><ele>868.0</ele><time>2026-05-03T13:53:42.565Z</time></trkpt><trkpt lat="40.0722588" lon="15.8654641"><ele>863.0</ele><time>2026-05-03T13:53:43.573Z</time></trkpt><trkpt lat="40.0724148" lon="15.865147"><ele>863.0</ele><time>2026-05-03T13:53:44.569Z</time></trkpt><trkpt lat="40.0725634" lon="15.8648153"><ele>863.0</ele><time>2026-05-03T13:53:45.57Z</time></trkpt><trkpt lat="40.0727136" lon="15.8644883"><ele>857.5</ele><time>2026-05-03T13:53:46.569Z</time></trkpt><trkpt lat="40.0728634" lon="15.8641638"><ele>852.0</ele><time>2026-05-03T13:53:47.55Z</time></trkpt><trkpt lat="40.0730132" lon="15.8638404"><ele>852.0</ele><time>2026-05-03T13:53:48.578Z</time></trkpt><trkpt lat="40.0731625" lon="15.863516"><ele>852.0</ele><time>2026-05-03T13:53:49.573Z</time></trkpt><trkpt lat="40.0733105" lon="15.8631908"><ele>854.5</ele><time>2026-05-03T13:53:50.586Z</time></trkpt><trkpt lat="40.0734614" lon="15.8628635"><ele>857.0</ele><time>2026-05-03T13:53:51.553Z</time></trkpt><trkpt lat="40.0736083" lon="15.8625376"><ele>857.0</ele><time>2026-05-03T13:53:52.585Z</time></trkpt><trkpt lat="40.073755" lon="15.8622121"><ele>857.0</ele><time>2026-05-03T13:53:53.545Z</time></trkpt><trkpt lat="40.0739008" lon="15.861889"><ele>854.0</ele><time>2026-05-03T13:53:54.557Z</time></trkpt><trkpt lat="40.0740498" lon="15.8615712"><ele>851.0</ele><time>2026-05-03T13:53:55.549Z</time></trkpt><trkpt lat="40.0741968" lon="15.8612545"><ele>849.0</ele><time>2026-05-03T13:53:56.536Z</time></trkpt><trkpt lat="40.0743425" lon="15.8609408"><ele>847.0</ele><time>2026-05-03T13:53:57.572Z</time></trkpt><trkpt lat="40.0744815" lon="15.8606337"><ele>847.0</ele><time>2026-05-03T13:53:58.578Z</time></trkpt><trkpt lat="40.0746166" lon="15.8603439"><ele>847.0</ele><time>2026-05-03T13:53:59.576Z</time></trkpt><trkpt lat="40.0747445" lon="15.860075"><ele>846.3333333333333</ele><time>2026-05-03T13:54:00.573Z</time></trkpt><trkpt lat="40.074865" lon="15.8598243"><ele>845.6666666666667</ele><time>2026-05-03T13:54:01.563Z</time></trkpt><trkpt lat="40.0749752" lon="15.859594"><ele>845.0</ele><time>2026-05-03T13:54:02.574Z</time></trkpt><trkpt lat="40.0750836" lon="15.8593656"><ele>849.0</ele><time>2026-05-03T13:54:03.582Z</time></trkpt><trkpt lat="40.0752024" lon="15.8591374"><ele>853.0</ele><time>2026-05-03T13:54:04.584Z</time></trkpt><trkpt lat="40.0753145" lon="15.8589014"><ele>857.0</ele><time>2026-05-03T13:54:05.565Z</time></trkpt><trkpt lat="40.0754384" lon="15.858664"><ele>863.0</ele><time>2026-05-03T13:54:06.566Z</time></trkpt><trkpt lat="40.0755774" lon="15.8584291"><ele>869.0</ele><time>2026-05-03T13:54:07.575Z</time></trkpt><trkpt lat="40.0757302" lon="15.8582101"><ele>874.5</ele><time>2026-05-03T13:54:08.571Z</time></trkpt><trkpt lat="40.0758881" lon="15.8579986"><ele>880.0</ele><time>2026-05-03T13:54:09.583Z</time></trkpt><trkpt lat="40.0760525" lon="15.8577959"><ele>882.5</ele><time>2026-05-03T13:54:10.583Z</time></trkpt><trkpt lat="40.0762231" lon="15.8576016"><ele>885.0</ele><time>2026-05-03T13:54:11.582Z</time></trkpt><trkpt lat="40.0764048" lon="15.8574135"><ele>885.0</ele><time>2026-05-03T13:54:12.58Z</time></trkpt><trkpt lat="40.0765937" lon="15.8572347"><ele>885.0</ele><time>2026-05-03T13:54:13.547Z</time></trkpt><trkpt lat="40.0767839" lon="15.8570635"><ele>888.5</ele><time>2026-05-03T13:54:14.566Z</time></trkpt><trkpt lat="40.0769836" lon="15.8569039"><ele>892.0</ele><time>2026-05-03T13:54:15.573Z</time></trkpt><trkpt lat="40.0771846" lon="15.8567541"><ele>892.0</ele><time>2026-05-03T13:54:16.575Z</time></trkpt><trkpt lat="40.0773949" lon="15.8566092"><ele>892.0</ele><time>2026-05-03T13:54:17.541Z</time></trkpt><trkpt lat="40.0776074" lon="15.85648"><ele>896.5</ele><time>2026-05-03T13:54:18.554Z</time></trkpt><trkpt lat="40.077828" lon="15.8563637"><ele>901.0</ele><time>2026-05-03T13:54:19.576Z</time></trkpt><trkpt lat="40.0780507" lon="15.8562533"><ele>906.0</ele><time>2026-05-03T13:54:20.581Z</time></trkpt><trkpt lat="40.0782786" lon="15.8561487"><ele>911.0</ele><time>2026-05-03T13:54:21.575Z</time></trkpt><trkpt lat="40.0785128" lon="15.8560455"><ele>905.5</ele><time>2026-05-03T13:54:22.58Z</time></trkpt><trkpt lat="40.0787477" lon="15.8559472"><ele>900.0</ele><time>2026-05-03T13:54:23.543Z</time></trkpt><trkpt lat="40.078983" lon="15.8558485"><ele>900.5</ele><time>2026-05-03T13:54:24.572Z</time></trkpt><trkpt lat="40.0792173" lon="15.8557506"><ele>901.0</ele><time>2026-05-03T13:54:25.57Z</time></trkpt><trkpt lat="40.0794514" lon="15.8556422"><ele>901.0</ele><time>2026-05-03T13:54:26.584Z</time></trkpt><trkpt lat="40.0796829" lon="15.8555281"><ele>901.0</ele><time>2026-05-03T13:54:27.574Z</time></trkpt><trkpt lat="40.0799101" lon="15.8554037"><ele>903.5</ele><time>2026-05-03T13:54:28.579Z</time></trkpt><trkpt lat="40.0801343" lon="15.8552766"><ele>906.0</ele><time>2026-05-03T13:54:29.577Z</time></trkpt><trkpt lat="40.0803542" lon="15.8551386"><ele>902.0</ele><time>2026-05-03T13:54:30.588Z</time></trkpt><trkpt lat="40.0805707" lon="15.8549872"><ele>898.0</ele><time>2026-05-03T13:54:31.567Z</time></trkpt><trkpt lat="40.0807807" lon="15.8548231"><ele>898.0</ele><time>2026-05-03T13:54:32.586Z</time></trkpt><trkpt lat="40.0809881" lon="15.8546473"><ele>898.0</ele><time>2026-05-03T13:54:33.574Z</time></trkpt><trkpt lat="40.0811864" lon="15.8544548"><ele>894.5</ele><time>2026-05-03T13:54:34.573Z</time></trkpt><trkpt lat="40.0813815" lon="15.8542466"><ele>891.0</ele><time>2026-05-03T13:54:35.579Z</time></trkpt><trkpt lat="40.081573" lon="15.8540284"><ele>900.5</ele><time>2026-05-03T13:54:36.571Z</time></trkpt><trkpt lat="40.0817589" lon="15.8538023"><ele>910.0</ele><time>2026-05-03T13:54:37.569Z</time></trkpt><trkpt lat="40.0819407" lon="15.8535769"><ele>910.0</ele><time>2026-05-03T13:54:38.582Z</time></trkpt><trkpt lat="40.0821149" lon="15.8533308"><ele>910.0</ele><time>2026-05-03T13:54:39.575Z</time></trkpt><trkpt lat="40.0822819" lon="15.853075"><ele>911.0</ele><time>2026-05-03T13:54:40.569Z</time></trkpt><trkpt lat="40.0824459" lon="15.8528098"><ele>912.0</ele><time>2026-05-03T13:54:41.589Z</time></trkpt><trkpt lat="40.0826107" lon="15.8525503"><ele>912.0</ele><time>2026-05-03T13:54:42.565Z</time></trkpt><trkpt lat="40.0827795" lon="15.852298"><ele>912.0</ele><time>2026-05-03T13:54:43.574Z</time></trkpt><trkpt lat="40.082948" lon="15.8520421"><ele>914.0</ele><time>2026-05-03T13:54:44.549Z</time></trkpt><trkpt lat="40.0831097" lon="15.8517826"><ele>916.0</ele><time>2026-05-03T13:54:45.553Z</time></trkpt><trkpt lat="40.0832676" lon="15.8515268"><ele>925.0</ele><time>2026-05-03T13:54:46.555Z</time></trkpt><trkpt lat="40.0834296" lon="15.85127"><ele>934.0</ele><time>2026-05-03T13:54:47.536Z</time></trkpt><trkpt lat="40.0835954" lon="15.851011"><ele>936.5</ele><time>2026-05-03T13:54:48.537Z</time></trkpt><trkpt lat="40.083764" lon="15.8507455"><ele>939.0</ele><time>2026-05-03T13:54:49.546Z</time></trkpt><trkpt lat="40.0839299" lon="15.85047"><ele>939.0</ele><time>2026-05-03T13:54:50.551Z</time></trkpt><trkpt lat="40.0840782" lon="15.8502341"><ele>939.0</ele><time>2026-05-03T13:54:51.545Z</time></trkpt><trkpt lat="40.0842143" lon="15.8500153"><ele>939.0</ele><time>2026-05-03T13:54:52.55Z</time></trkpt><trkpt lat="40.0843373" lon="15.8498216"><ele>938.0</ele><time>2026-05-03T13:54:53.545Z</time></trkpt><trkpt lat="40.0844496" lon="15.8495812"><ele>937.0</ele><time>2026-05-03T13:54:54.545Z</time></trkpt><trkpt lat="40.0845768" lon="15.8492379"><ele>937.0</ele><time>2026-05-03T13:54:55.547Z</time></trkpt><trkpt lat="40.08466" lon="15.8487579"><ele>937.0</ele><time>2026-05-03T13:54:56.546Z</time></trkpt><trkpt lat="40.0847664" lon="15.8484143"><ele>934.0</ele><time>2026-05-03T13:54:57.551Z</time></trkpt><trkpt lat="40.0848931" lon="15.8480798"><ele>931.0</ele><time>2026-05-03T13:54:58.55Z</time></trkpt><trkpt lat="40.0850171" lon="15.8477595"><ele>932.5</ele><time>2026-05-03T13:54:59.571Z</time></trkpt><trkpt lat="40.0851502" lon="15.8474597"><ele>934.0</ele><time>2026-05-03T13:55:00.568Z</time></trkpt><trkpt lat="40.0852798" lon="15.847155"><ele>934.0</ele><time>2026-05-03T13:55:01.563Z</time></trkpt><trkpt lat="40.0854065" lon="15.8468539"><ele>934.0</ele><time>2026-05-03T13:55:02.573Z</time></trkpt><trkpt lat="40.085528" lon="15.8465474"><ele>930.5</ele><time>2026-05-03T13:55:03.563Z</time></trkpt><trkpt lat="40.0856488" lon="15.8462418"><ele>927.0</ele><time>2026-05-03T13:55:04.558Z</time></trkpt><trkpt lat="40.0857769" lon="15.8459303"><ele>937.0</ele><time>2026-05-03T13:55:05.556Z</time></trkpt><trkpt lat="40.0859049" lon="15.8456163"><ele>947.0</ele><time>2026-05-03T13:55:06.565Z</time></trkpt><trkpt lat="40.0860337" lon="15.8453"><ele>949.0</ele><time>2026-05-03T13:55:07.563Z</time></trkpt><trkpt lat="40.0861602" lon="15.8449801"><ele>951.0</ele><time>2026-05-03T13:55:08.56Z</time></trkpt><trkpt lat="40.0862893" lon="15.8446554"><ele>951.0</ele><time>2026-05-03T13:55:09.566Z</time></trkpt><trkpt lat="40.0864207" lon="15.8443326"><ele>951.0</ele><time>2026-05-03T13:55:10.572Z</time></trkpt><trkpt lat="40.0865569" lon="15.8440138"><ele>950.5</ele><time>2026-05-03T13:55:11.547Z</time></trkpt><trkpt lat="40.08669" lon="15.8436896"><ele>950.0</ele><time>2026-05-03T13:55:12.552Z</time></trkpt><trkpt lat="40.086825" lon="15.8433659"><ele>950.0</ele><time>2026-05-03T13:55:13.549Z</time></trkpt><trkpt lat="40.086958" lon="15.8430422"><ele>950.0</ele><time>2026-05-03T13:55:14.575Z</time></trkpt><trkpt lat="40.0870892" lon="15.8427168"><ele>946.0</ele><time>2026-05-03T13:55:15.576Z</time></trkpt><trkpt lat="40.08722" lon="15.8423945"><ele>942.0</ele><time>2026-05-03T13:55:16.555Z</time></trkpt><trkpt lat="40.087354" lon="15.8420703"><ele>950.0</ele><time>2026-05-03T13:55:17.577Z</time></trkpt><trkpt lat="40.0874882" lon="15.8417436"><ele>958.0</ele><time>2026-05-03T13:55:18.563Z</time></trkpt><trkpt lat="40.0876295" lon="15.8414188"><ele>958.0</ele><time>2026-05-03T13:55:19.549Z</time></trkpt><trkpt lat="40.0877834" lon="15.8411037"><ele>958.0</ele><time>2026-05-03T13:55:20.538Z</time></trkpt><trkpt lat="40.0879354" lon="15.8407842"><ele>955.0</ele><time>2026-05-03T13:55:21.548Z</time></trkpt><trkpt lat="40.0880912" lon="15.8404632"><ele>952.0</ele><time>2026-05-03T13:55:22.56Z</time></trkpt><trkpt lat="40.0882501" lon="15.8401523"><ele>951.5</ele><time>2026-05-03T13:55:23.552Z</time></trkpt><trkpt lat="40.0884186" lon="15.8398412"><ele>951.0</ele><time>2026-05-03T13:55:24.573Z</time></trkpt><trkpt lat="40.0885886" lon="15.8395301"><ele>943.0</ele><time>2026-05-03T13:55:25.558Z</time></trkpt><trkpt lat="40.0896561" lon="15.8377252"><ele>936.5</ele><time>2026-05-03T13:55:31.547Z</time></trkpt><trkpt lat="40.0898298" lon="15.8374863"><ele>930.0</ele><time>2026-05-03T13:55:32.564Z</time></trkpt><trkpt lat="40.0899981" lon="15.837237"><ele>925.0</ele><time>2026-05-03T13:55:33.565Z</time></trkpt><trkpt lat="40.090168" lon="15.8370055"><ele>920.0</ele><time>2026-05-03T13:55:34.546Z</time></trkpt><trkpt lat="40.0903389" lon="15.8367565"><ele>917.0</ele><time>2026-05-03T13:55:35.56Z</time></trkpt><trkpt lat="40.0905118" lon="15.8365141"><ele>914.0</ele><time>2026-05-03T13:55:36.574Z</time></trkpt><trkpt lat="40.0906932" lon="15.8362815"><ele>912.0</ele><time>2026-05-03T13:55:37.564Z</time></trkpt><trkpt lat="40.090876" lon="15.8360427"><ele>910.0</ele><time>2026-05-03T13:55:38.548Z</time></trkpt><trkpt lat="40.091057" lon="15.8358019"><ele>908.5</ele><time>2026-05-03T13:55:39.591Z</time></trkpt><trkpt lat="40.0912409" lon="15.8355556"><ele>907.0</ele><time>2026-05-03T13:55:40.574Z</time></trkpt><trkpt lat="40.0914268" lon="15.8353135"><ele>908.0</ele><time>2026-05-03T13:55:41.577Z</time></trkpt><trkpt lat="40.0916133" lon="15.8350683"><ele>909.0</ele><time>2026-05-03T13:55:42.571Z</time></trkpt><trkpt lat="40.0917998" lon="15.8348122"><ele>909.0</ele><time>2026-05-03T13:55:43.57Z</time></trkpt><trkpt lat="40.0919893" lon="15.8345631"><ele>909.0</ele><time>2026-05-03T13:55:44.561Z</time></trkpt><trkpt lat="40.0921756" lon="15.8343114"><ele>908.5</ele><time>2026-05-03T13:55:45.562Z</time></trkpt><trkpt lat="40.0923604" lon="15.8340538"><ele>908.0</ele><time>2026-05-03T13:55:46.56Z</time></trkpt><trkpt lat="40.0925423" lon="15.8337888"><ele>912.0</ele><time>2026-05-03T13:55:47.568Z</time></trkpt><trkpt lat="40.0927174" lon="15.8335135"><ele>916.0</ele><time>2026-05-03T13:55:48.558Z</time></trkpt><trkpt lat="40.0928808" lon="15.8332301"><ele>916.0</ele><time>2026-05-03T13:55:49.574Z</time></trkpt><trkpt lat="40.0930363" lon="15.8329314"><ele>916.0</ele><time>2026-05-03T13:55:50.562Z</time></trkpt><trkpt lat="40.0931828" lon="15.8326226"><ele>914.5</ele><time>2026-05-03T13:55:51.564Z</time></trkpt><trkpt lat="40.0933237" lon="15.832306"><ele>913.0</ele><time>2026-05-03T13:55:52.566Z</time></trkpt><trkpt lat="40.0934576" lon="15.8319777"><ele>911.0</ele><time>2026-05-03T13:55:53.583Z</time></trkpt><trkpt lat="40.0935718" lon="15.8316422"><ele>909.0</ele><time>2026-05-03T13:55:54.583Z</time></trkpt><trkpt lat="40.0936686" lon="15.8312931"><ele>903.5</ele><time>2026-05-03T13:55:55.581Z</time></trkpt><trkpt lat="40.0937512" lon="15.8309356"><ele>898.0</ele><time>2026-05-03T13:55:56.556Z</time></trkpt><trkpt lat="40.0938234" lon="15.8305715"><ele>890.0</ele><time>2026-05-03T13:55:57.554Z</time></trkpt><trkpt lat="40.0939263" lon="15.8298305"><ele>890.0</ele><time>2026-05-03T13:55:59.55Z</time></trkpt><trkpt lat="40.0939575" lon="15.8294603"><ele>890.0</ele><time>2026-05-03T13:56:00.557Z</time></trkpt><trkpt lat="40.0939789" lon="15.8290862"><ele>888.0</ele><time>2026-05-03T13:56:01.546Z</time></trkpt><trkpt lat="40.0939843" lon="15.8287114"><ele>886.0</ele><time>2026-05-03T13:56:02.585Z</time></trkpt><trkpt lat="40.0939704" lon="15.828339"><ele>886.0</ele><time>2026-05-03T13:56:03.584Z</time></trkpt><trkpt lat="40.0939418" lon="15.8279687"><ele>886.0</ele><time>2026-05-03T13:56:04.557Z</time></trkpt><trkpt lat="40.0938933" lon="15.8276023"><ele>886.5</ele><time>2026-05-03T13:56:05.581Z</time></trkpt><trkpt lat="40.0938366" lon="15.8272382"><ele>887.0</ele><time>2026-05-03T13:56:06.571Z</time></trkpt><trkpt lat="40.0937728" lon="15.8268753"><ele>888.0</ele><time>2026-05-03T13:56:07.57Z</time></trkpt><trkpt lat="40.0937028" lon="15.8265098"><ele>889.0</ele><time>2026-05-03T13:56:08.552Z</time></trkpt><trkpt lat="40.0936265" lon="15.8261448"><ele>889.0</ele><time>2026-05-03T13:56:09.573Z</time></trkpt><trkpt lat="40.0935578" lon="15.8257722"><ele>889.0</ele><time>2026-05-03T13:56:10.583Z</time></trkpt><trkpt lat="40.0934794" lon="15.8254023"><ele>882.0</ele><time>2026-05-03T13:56:11.561Z</time></trkpt><trkpt lat="40.0932939" lon="15.8211928"><ele>880.0</ele><time>2026-05-03T13:56:22.553Z</time></trkpt><trkpt lat="40.0933403" lon="15.8208113"><ele>878.0</ele><time>2026-05-03T13:56:23.56Z</time></trkpt><trkpt lat="40.093431" lon="15.8204524"><ele>871.5</ele><time>2026-05-03T13:56:24.563Z</time></trkpt><trkpt lat="40.0935139" lon="15.8200956"><ele>865.0</ele><time>2026-05-03T13:56:25.57Z</time></trkpt><trkpt lat="40.0936075" lon="15.8197295"><ele>865.0</ele><time>2026-05-03T13:56:26.565Z</time></trkpt><trkpt lat="40.0937039" lon="15.8193627"><ele>865.0</ele><time>2026-05-03T13:56:27.549Z</time></trkpt><trkpt lat="40.0938043" lon="15.8190061"><ele>862.5</ele><time>2026-05-03T13:56:28.568Z</time></trkpt><trkpt lat="40.093909" lon="15.8186474"><ele>860.0</ele><time>2026-05-03T13:56:29.549Z</time></trkpt><trkpt lat="40.0940194" lon="15.8182875"><ele>861.5</ele><time>2026-05-03T13:56:30.575Z</time></trkpt><trkpt lat="40.0941226" lon="15.8179367"><ele>863.0</ele><time>2026-05-03T13:56:31.565Z</time></trkpt><trkpt lat="40.0942209" lon="15.8175907"><ele>863.0</ele><time>2026-05-03T13:56:32.563Z</time></trkpt><trkpt lat="40.0943184" lon="15.8172412"><ele>863.0</ele><time>2026-05-03T13:56:33.551Z</time></trkpt><trkpt lat="40.0944229" lon="15.816892"><ele>858.5</ele><time>2026-05-03T13:56:34.564Z</time></trkpt><trkpt lat="40.0945278" lon="15.8165512"><ele>854.0</ele><time>2026-05-03T13:56:35.575Z</time></trkpt><trkpt lat="40.0946332" lon="15.8162132"><ele>854.5</ele><time>2026-05-03T13:56:36.575Z</time></trkpt><trkpt lat="40.0947397" lon="15.8158786"><ele>855.0</ele><time>2026-05-03T13:56:37.564Z</time></trkpt><trkpt lat="40.0948493" lon="15.8155419"><ele>864.5</ele><time>2026-05-03T13:56:38.547Z</time></trkpt><trkpt lat="40.094965" lon="15.8152104"><ele>874.0</ele><time>2026-05-03T13:56:39.559Z</time></trkpt><trkpt lat="40.0950895" lon="15.814887"><ele>874.0</ele><time>2026-05-03T13:56:40.558Z</time></trkpt><trkpt lat="40.0952228" lon="15.8145706"><ele>874.0</ele><time>2026-05-03T13:56:41.563Z</time></trkpt><trkpt lat="40.0953647" lon="15.8142549"><ele>873.5</ele><time>2026-05-03T13:56:42.571Z</time></trkpt><trkpt lat="40.0955047" lon="15.8139428"><ele>873.0</ele><time>2026-05-03T13:56:43.553Z</time></trkpt><trkpt lat="40.095638" lon="15.8136224"><ele>873.0</ele><time>2026-05-03T13:56:44.577Z</time></trkpt><trkpt lat="40.0957728" lon="15.81331"><ele>873.0</ele><time>2026-05-03T13:56:45.578Z</time></trkpt><trkpt lat="40.0959127" lon="15.8129998"><ele>873.0</ele><time>2026-05-03T13:56:46.565Z</time></trkpt><trkpt lat="40.0960523" lon="15.8126899"><ele>873.0</ele><time>2026-05-03T13:56:47.564Z</time></trkpt><trkpt lat="40.096195" lon="15.8123843"><ele>871.5</ele><time>2026-05-03T13:56:48.577Z</time></trkpt><trkpt lat="40.0963372" lon="15.8120816"><ele>870.0</ele><time>2026-05-03T13:56:49.579Z</time></trkpt><trkpt lat="40.0964816" lon="15.8117801"><ele>875.0</ele><time>2026-05-03T13:56:50.577Z</time></trkpt><trkpt lat="40.0966216" lon="15.8114838"><ele>880.0</ele><time>2026-05-03T13:56:51.56Z</time></trkpt><trkpt lat="40.0967633" lon="15.8111942"><ele>876.0</ele><time>2026-05-03T13:56:52.578Z</time></trkpt><trkpt lat="40.0969039" lon="15.8109118"><ele>872.0</ele><time>2026-05-03T13:56:53.573Z</time></trkpt><trkpt lat="40.0970444" lon="15.8106367"><ele>872.0</ele><time>2026-05-03T13:56:54.566Z</time></trkpt><trkpt lat="40.0971871" lon="15.8103522"><ele>872.0</ele><time>2026-05-03T13:56:55.572Z</time></trkpt><trkpt lat="40.0973301" lon="15.8100716"><ele>884.0</ele><time>2026-05-03T13:56:56.556Z</time></trkpt><trkpt lat="40.1005866" lon="15.8025033"><ele>884.0</ele><time>2026-05-03T13:57:21.54Z</time></trkpt><trkpt lat="40.1007383" lon="15.8022024"><ele>884.0</ele><time>2026-05-03T13:57:22.557Z</time></trkpt><trkpt lat="40.1008588" lon="15.8019399"><ele>888.5</ele><time>2026-05-03T13:57:23.558Z</time></trkpt><trkpt lat="40.1009827" lon="15.8016354"><ele>893.0</ele><time>2026-05-03T13:57:24.567Z</time></trkpt><trkpt lat="40.1010886" lon="15.8013247"><ele>893.0</ele><time>2026-05-03T13:57:25.584Z</time></trkpt><trkpt lat="40.1012086" lon="15.8010261"><ele>893.0</ele><time>2026-05-03T13:57:26.576Z</time></trkpt><trkpt lat="40.1013296" lon="15.8007289"><ele>894.0</ele><time>2026-05-03T13:57:27.565Z</time></trkpt><trkpt lat="40.1014563" lon="15.8004329"><ele>895.0</ele><time>2026-05-03T13:57:28.571Z</time></trkpt><trkpt lat="40.1015836" lon="15.8001337"><ele>899.5</ele><time>2026-05-03T13:57:29.573Z</time></trkpt><trkpt lat="40.1017105" lon="15.7998358"><ele>904.0</ele><time>2026-05-03T13:57:30.566Z</time></trkpt><trkpt lat="40.1018459" lon="15.7995479"><ele>903.5</ele><time>2026-05-03T13:57:31.579Z</time></trkpt><trkpt lat="40.1019891" lon="15.7992611"><ele>903.0</ele><time>2026-05-03T13:57:32.58Z</time></trkpt><trkpt lat="40.1021394" lon="15.7989798"><ele>903.0</ele><time>2026-05-03T13:57:33.557Z</time></trkpt><trkpt lat="40.1022969" lon="15.7987013"><ele>903.0</ele><time>2026-05-03T13:57:34.569Z</time></trkpt><trkpt lat="40.1024646" lon="15.7984299"><ele>900.0</ele><time>2026-05-03T13:57:35.554Z</time></trkpt><trkpt lat="40.1026335" lon="15.7981619"><ele>897.0</ele><time>2026-05-03T13:57:36.572Z</time></trkpt><trkpt lat="40.1028109" lon="15.7979077"><ele>888.0</ele><time>2026-05-03T13:57:37.583Z</time></trkpt><trkpt lat="40.1029954" lon="15.7976649"><ele>879.0</ele><time>2026-05-03T13:57:38.574Z</time></trkpt><trkpt lat="40.1031837" lon="15.7974295"><ele>882.5</ele><time>2026-05-03T13:57:39.584Z</time></trkpt><trkpt lat="40.1033815" lon="15.7972054"><ele>886.0</ele><time>2026-05-03T13:57:40.576Z</time></trkpt><trkpt lat="40.1035831" lon="15.7969902"><ele>880.5</ele><time>2026-05-03T13:57:41.563Z</time></trkpt><trkpt lat="40.1037888" lon="15.7967851"><ele>875.0</ele><time>2026-05-03T13:57:42.55Z</time></trkpt><trkpt lat="40.1039947" lon="15.7965808"><ele>877.5</ele><time>2026-05-03T13:57:43.554Z</time></trkpt><trkpt lat="40.1042061" lon="15.7963871"><ele>880.0</ele><time>2026-05-03T13:57:44.551Z</time></trkpt><trkpt lat="40.1044244" lon="15.7962073"><ele>880.0</ele><time>2026-05-03T13:57:45.561Z</time></trkpt><trkpt lat="40.1046488" lon="15.7960351"><ele>880.0</ele><time>2026-05-03T13:57:46.594Z</time></trkpt><trkpt lat="40.1048794" lon="15.7958702"><ele>877.5</ele><time>2026-05-03T13:57:47.568Z</time></trkpt><trkpt lat="40.1051154" lon="15.7957209"><ele>875.0</ele><time>2026-05-03T13:57:48.571Z</time></trkpt><trkpt lat="40.1053552" lon="15.7955759"><ele>875.0</ele><time>2026-05-03T13:57:49.556Z</time></trkpt><trkpt lat="40.1055982" lon="15.7954342"><ele>875.0</ele><time>2026-05-03T13:57:50.569Z</time></trkpt><trkpt lat="40.1058476" lon="15.7953046"><ele>873.0</ele><time>2026-05-03T13:57:51.59Z</time></trkpt><trkpt lat="40.1060998" lon="15.7951844"><ele>871.0</ele><time>2026-05-03T13:57:52.585Z</time></trkpt><trkpt lat="40.1063549" lon="15.7950639"><ele>870.0</ele><time>2026-05-03T13:57:53.587Z</time></trkpt><trkpt lat="40.106608" lon="15.7949474"><ele>869.0</ele><time>2026-05-03T13:57:54.581Z</time></trkpt><trkpt lat="40.1068628" lon="15.7948359"><ele>869.0</ele><time>2026-05-03T13:57:55.587Z</time></trkpt><trkpt lat="40.1071154" lon="15.7947199"><ele>869.0</ele><time>2026-05-03T13:57:56.58Z</time></trkpt><trkpt lat="40.1073667" lon="15.7946024"><ele>868.5</ele><time>2026-05-03T13:57:57.584Z</time></trkpt><trkpt lat="40.1076178" lon="15.7944753"><ele>868.0</ele><time>2026-05-03T13:57:58.578Z</time></trkpt><trkpt lat="40.1078654" lon="15.794342"><ele>863.0</ele><time>2026-05-03T13:57:59.582Z</time></trkpt><trkpt lat="40.1081124" lon="15.7942076"><ele>858.0</ele><time>2026-05-03T13:58:00.593Z</time></trkpt><trkpt lat="40.1083594" lon="15.7940672"><ele>858.0</ele><time>2026-05-03T13:58:01.571Z</time></trkpt><trkpt lat="40.1086011" lon="15.7939165"><ele>858.0</ele><time>2026-05-03T13:58:02.593Z</time></trkpt><trkpt lat="40.1088425" lon="15.7937554"><ele>859.5</ele><time>2026-05-03T13:58:03.574Z</time></trkpt><trkpt lat="40.1090798" lon="15.7935791"><ele>861.0</ele><time>2026-05-03T13:58:04.578Z</time></trkpt><trkpt lat="40.1093092" lon="15.7933879"><ele>861.0</ele><time>2026-05-03T13:58:05.579Z</time></trkpt><trkpt lat="40.1095389" lon="15.7931861"><ele>861.0</ele><time>2026-05-03T13:58:06.568Z</time></trkpt><trkpt lat="40.1097713" lon="15.7929836"><ele>863.0</ele><time>2026-05-03T13:58:07.563Z</time></trkpt><trkpt lat="40.1106155" lon="15.7920553"><ele>860.0</ele><time>2026-05-03T13:58:11.565Z</time></trkpt><trkpt lat="40.1107976" lon="15.7917614"><ele>857.0</ele><time>2026-05-03T13:58:12.55Z</time></trkpt><trkpt lat="40.110985" lon="15.7914259"><ele>857.0</ele><time>2026-05-03T13:58:13.564Z</time></trkpt><trkpt lat="40.1111862" lon="15.7911236"><ele>857.0</ele><time>2026-05-03T13:58:14.556Z</time></trkpt><trkpt lat="40.1147404" lon="15.7861448"><ele>843.0</ele><time>2026-05-03T13:58:32.57Z</time></trkpt><trkpt lat="40.115034" lon="15.7858727"><ele>829.0</ele><time>2026-05-03T13:58:33.562Z</time></trkpt><trkpt lat="40.1153321" lon="15.7856527"><ele>829.0</ele><time>2026-05-03T13:58:34.554Z</time></trkpt><trkpt lat="40.1156158" lon="15.7854851"><ele>829.0</ele><time>2026-05-03T13:58:35.563Z</time></trkpt><trkpt lat="40.1158911" lon="15.7853213"><ele>829.5</ele><time>2026-05-03T13:58:36.534Z</time></trkpt><trkpt lat="40.1161704" lon="15.7851677"><ele>830.0</ele><time>2026-05-03T13:58:37.538Z</time></trkpt><trkpt lat="40.1164699" lon="15.785049"><ele>831.0</ele><time>2026-05-03T13:58:38.553Z</time></trkpt><trkpt lat="40.1167649" lon="15.7849434"><ele>832.0</ele><time>2026-05-03T13:58:39.552Z</time></trkpt><trkpt lat="40.1170584" lon="15.7848586"><ele>832.0</ele><time>2026-05-03T13:58:40.562Z</time></trkpt><trkpt lat="40.1173584" lon="15.7847949"><ele>832.0</ele><time>2026-05-03T13:58:41.558Z</time></trkpt><trkpt lat="40.1176497" lon="15.7847329"><ele>830.5</ele><time>2026-05-03T13:58:42.556Z</time></trkpt><trkpt lat="40.1179437" lon="15.784688"><ele>829.0</ele><time>2026-05-03T13:58:43.543Z</time></trkpt><trkpt lat="40.1182359" lon="15.7846316"><ele>829.0</ele><time>2026-05-03T13:58:44.567Z</time></trkpt><trkpt lat="40.1185331" lon="15.7845696"><ele>829.0</ele><time>2026-05-03T13:58:45.573Z</time></trkpt><trkpt lat="40.1188339" lon="15.7845061"><ele>829.5</ele><time>2026-05-03T13:58:46.561Z</time></trkpt><trkpt lat="40.1191267" lon="15.7844484"><ele>830.0</ele><time>2026-05-03T13:58:47.554Z</time></trkpt><trkpt lat="40.1194215" lon="15.7843964"><ele>821.0</ele><time>2026-05-03T13:58:48.552Z</time></trkpt><trkpt lat="40.1197157" lon="15.7843385"><ele>812.0</ele><time>2026-05-03T13:58:49.583Z</time></trkpt><trkpt lat="40.1200068" lon="15.7842732"><ele>812.0</ele><time>2026-05-03T13:58:50.57Z</time></trkpt><trkpt lat="40.1202972" lon="15.7842014"><ele>812.0</ele><time>2026-05-03T13:58:51.575Z</time></trkpt><trkpt lat="40.1205855" lon="15.7841176"><ele>812.0</ele><time>2026-05-03T13:58:52.563Z</time></trkpt><trkpt lat="40.1208739" lon="15.7840212"><ele>812.0</ele><time>2026-05-03T13:58:53.582Z</time></trkpt><trkpt lat="40.1211551" lon="15.7839138"><ele>812.0</ele><time>2026-05-03T13:58:54.573Z</time></trkpt><trkpt lat="40.1214295" lon="15.7837815"><ele>812.0</ele><time>2026-05-03T13:58:55.57Z</time></trkpt><trkpt lat="40.1217034" lon="15.7836288"><ele>806.0</ele><time>2026-05-03T13:58:56.572Z</time></trkpt><trkpt lat="40.1219701" lon="15.7834558"><ele>800.0</ele><time>2026-05-03T13:58:57.572Z</time></trkpt><trkpt lat="40.1222294" lon="15.7832606"><ele>802.0</ele><time>2026-05-03T13:58:58.571Z</time></trkpt><trkpt lat="40.1224827" lon="15.7830502"><ele>804.0</ele><time>2026-05-03T13:58:59.588Z</time></trkpt><trkpt lat="40.1227267" lon="15.7828212"><ele>802.5</ele><time>2026-05-03T13:59:00.58Z</time></trkpt><trkpt lat="40.122963" lon="15.7825752"><ele>801.0</ele><time>2026-05-03T13:59:01.584Z</time></trkpt><trkpt lat="40.1231904" lon="15.7823164"><ele>800.0</ele><time>2026-05-03T13:59:02.581Z</time></trkpt><trkpt lat="40.1234039" lon="15.7820422"><ele>799.0</ele><time>2026-05-03T13:59:03.574Z</time></trkpt><trkpt lat="40.1236131" lon="15.7817635"><ele>796.0</ele><time>2026-05-03T13:59:04.574Z</time></trkpt><trkpt lat="40.1238193" lon="15.7814722"><ele>793.0</ele><time>2026-05-03T13:59:05.58Z</time></trkpt><trkpt lat="40.124021" lon="15.7811681"><ele>790.0</ele><time>2026-05-03T13:59:06.578Z</time></trkpt><trkpt lat="40.1242196" lon="15.7808711"><ele>787.0</ele><time>2026-05-03T13:59:07.579Z</time></trkpt><trkpt lat="40.1244167" lon="15.7805747"><ele>770.0</ele><time>2026-05-03T13:59:08.585Z</time></trkpt><trkpt lat="40.1247966" lon="15.7799704"><ele>775.0</ele><time>2026-05-03T13:59:10.582Z</time></trkpt><trkpt lat="40.1249856" lon="15.7796707"><ele>780.0</ele><time>2026-05-03T13:59:11.58Z</time></trkpt><trkpt lat="40.1251771" lon="15.7793737"><ele>779.0</ele><time>2026-05-03T13:59:12.578Z</time></trkpt><trkpt lat="40.125366" lon="15.7790764"><ele>778.0</ele><time>2026-05-03T13:59:13.571Z</time></trkpt><trkpt lat="40.125549" lon="15.7787727"><ele>794.0</ele><time>2026-05-03T13:59:14.595Z</time></trkpt><trkpt lat="40.1257366" lon="15.7784753"><ele>810.0</ele><time>2026-05-03T13:59:15.587Z</time></trkpt><trkpt lat="40.1259263" lon="15.7781742"><ele>810.0</ele><time>2026-05-03T13:59:16.566Z</time></trkpt><trkpt lat="40.1261214" lon="15.7778738"><ele>810.0</ele><time>2026-05-03T13:59:17.56Z</time></trkpt><trkpt lat="40.1272323" lon="15.7761137"><ele>784.0</ele><time>2026-05-03T13:59:23.542Z</time></trkpt><trkpt lat="40.1274393" lon="15.7758315"><ele>758.0</ele><time>2026-05-03T13:59:24.555Z</time></trkpt><trkpt lat="40.1276337" lon="15.7755368"><ele>758.0</ele><time>2026-05-03T13:59:25.552Z</time></trkpt><trkpt lat="40.1278132" lon="15.7752576"><ele>758.0</ele><time>2026-05-03T13:59:26.553Z</time></trkpt><trkpt lat="40.1280058" lon="15.7749727"><ele>763.0</ele><time>2026-05-03T13:59:27.567Z</time></trkpt><trkpt lat="40.1282005" lon="15.7746737"><ele>768.0</ele><time>2026-05-03T13:59:28.567Z</time></trkpt><trkpt lat="40.1283828" lon="15.7743733"><ele>783.0</ele><time>2026-05-03T13:59:29.572Z</time></trkpt><trkpt lat="40.1285525" lon="15.7740711"><ele>798.0</ele><time>2026-05-03T13:59:30.57Z</time></trkpt><trkpt lat="40.1287055" lon="15.7737487"><ele>794.5</ele><time>2026-05-03T13:59:31.577Z</time></trkpt><trkpt lat="40.1288346" lon="15.7734"><ele>791.0</ele><time>2026-05-03T13:59:32.57Z</time></trkpt><trkpt lat="40.1289498" lon="15.7730548"><ele>791.0</ele><time>2026-05-03T13:59:33.553Z</time></trkpt><trkpt lat="40.1290402" lon="15.7726977"><ele>791.0</ele><time>2026-05-03T13:59:34.568Z</time></trkpt><trkpt lat="40.1291262" lon="15.772329"><ele>802.5</ele><time>2026-05-03T13:59:35.571Z</time></trkpt><trkpt lat="40.1291934" lon="15.7719577"><ele>814.0</ele><time>2026-05-03T13:59:36.564Z</time></trkpt><trkpt lat="40.1292469" lon="15.7715809"><ele>813.0</ele><time>2026-05-03T13:59:37.563Z</time></trkpt><trkpt lat="40.1292931" lon="15.7711997"><ele>812.0</ele><time>2026-05-03T13:59:38.583Z</time></trkpt><trkpt lat="40.1293344" lon="15.7708162"><ele>812.0</ele><time>2026-05-03T13:59:39.572Z</time></trkpt><trkpt lat="40.1293848" lon="15.7704277"><ele>812.0</ele><time>2026-05-03T13:59:40.587Z</time></trkpt><trkpt lat="40.1294451" lon="15.770046"><ele>808.0</ele><time>2026-05-03T13:59:41.568Z</time></trkpt><trkpt lat="40.1295207" lon="15.769665"><ele>804.0</ele><time>2026-05-03T13:59:42.577Z</time></trkpt><trkpt lat="40.1296068" lon="15.7692873"><ele>796.5</ele><time>2026-05-03T13:59:43.577Z</time></trkpt><trkpt lat="40.129698" lon="15.7689138"><ele>789.0</ele><time>2026-05-03T13:59:44.571Z</time></trkpt><trkpt lat="40.1297773" lon="15.7685434"><ele>793.0</ele><time>2026-05-03T13:59:45.57Z</time></trkpt><trkpt lat="40.1298566" lon="15.7681751"><ele>797.0</ele><time>2026-05-03T13:59:46.575Z</time></trkpt><trkpt lat="40.1299359" lon="15.7678083"><ele>795.0</ele><time>2026-05-03T13:59:47.573Z</time></trkpt><trkpt lat="40.1300145" lon="15.7674422"><ele>793.0</ele><time>2026-05-03T13:59:48.557Z</time></trkpt><trkpt lat="40.1300943" lon="15.7670727"><ele>790.0</ele><time>2026-05-03T13:59:49.578Z</time></trkpt><trkpt lat="40.1301714" lon="15.766707"><ele>787.0</ele><time>2026-05-03T13:59:50.556Z</time></trkpt><trkpt lat="40.1302477" lon="15.7663439"><ele>780.5</ele><time>2026-05-03T13:59:51.58Z</time></trkpt><trkpt lat="40.1303256" lon="15.7659816"><ele>774.0</ele><time>2026-05-03T13:59:52.575Z</time></trkpt><trkpt lat="40.1304037" lon="15.7656185"><ele>774.0</ele><time>2026-05-03T13:59:53.568Z</time></trkpt><trkpt lat="40.1304814" lon="15.7652578"><ele>774.0</ele><time>2026-05-03T13:59:54.569Z</time></trkpt><trkpt lat="40.1305617" lon="15.764899"><ele>773.5</ele><time>2026-05-03T13:59:55.578Z</time></trkpt><trkpt lat="40.1306432" lon="15.7645406"><ele>773.0</ele><time>2026-05-03T13:59:56.56Z</time></trkpt><trkpt lat="40.1307367" lon="15.7641908"><ele>773.0</ele><time>2026-05-03T13:59:57.562Z</time></trkpt><trkpt lat="40.130852" lon="15.763858"><ele>773.0</ele><time>2026-05-03T13:59:58.576Z</time></trkpt><trkpt lat="40.1309809" lon="15.7635408"><ele>770.5</ele><time>2026-05-03T13:59:59.578Z</time></trkpt><trkpt lat="40.1311332" lon="15.7632433"><ele>768.0</ele><time>2026-05-03T14:00:00.582Z</time></trkpt><trkpt lat="40.1313096" lon="15.7629637"><ele>765.0</ele><time>2026-05-03T14:00:01.565Z</time></trkpt><trkpt lat="40.1315018" lon="15.7626917"><ele>762.0</ele><time>2026-05-03T14:00:02.568Z</time></trkpt><trkpt lat="40.1317126" lon="15.7624522"><ele>770.5</ele><time>2026-05-03T14:00:03.576Z</time></trkpt><trkpt lat="40.1319309" lon="15.7622259"><ele>779.0</ele><time>2026-05-03T14:00:04.59Z</time></trkpt><trkpt lat="40.132163" lon="15.7620228"><ele>782.0</ele><time>2026-05-03T14:00:05.56Z</time></trkpt><trkpt lat="40.1324093" lon="15.7618349"><ele>785.0</ele><time>2026-05-03T14:00:06.573Z</time></trkpt><trkpt lat="40.1326632" lon="15.7616719"><ele>785.0</ele><time>2026-05-03T14:00:07.583Z</time></trkpt><trkpt lat="40.1329259" lon="15.7615382"><ele>785.0</ele><time>2026-05-03T14:00:08.584Z</time></trkpt><trkpt lat="40.1331959" lon="15.7614233"><ele>787.5</ele><time>2026-05-03T14:00:09.566Z</time></trkpt><trkpt lat="40.1334618" lon="15.7613111"><ele>790.0</ele><time>2026-05-03T14:00:10.567Z</time></trkpt><trkpt lat="40.1337297" lon="15.7611881"><ele>790.0</ele><time>2026-05-03T14:00:11.57Z</time></trkpt><trkpt lat="40.1339947" lon="15.7610584"><ele>790.0</ele><time>2026-05-03T14:00:12.573Z</time></trkpt><trkpt lat="40.134264" lon="15.7609338"><ele>791.0</ele><time>2026-05-03T14:00:13.566Z</time></trkpt><trkpt lat="40.1345365" lon="15.7608048"><ele>792.0</ele><time>2026-05-03T14:00:14.579Z</time></trkpt><trkpt lat="40.1348098" lon="15.7606758"><ele>793.0</ele><time>2026-05-03T14:00:15.572Z</time></trkpt><trkpt lat="40.1350779" lon="15.7605503"><ele>794.0</ele><time>2026-05-03T14:00:16.572Z</time></trkpt><trkpt lat="40.1353534" lon="15.7604217"><ele>794.0</ele><time>2026-05-03T14:00:17.591Z</time></trkpt><trkpt lat="40.1356299" lon="15.7602987"><ele>794.0</ele><time>2026-05-03T14:00:18.562Z</time></trkpt><trkpt lat="40.1359074" lon="15.7601664"><ele>792.5</ele><time>2026-05-03T14:00:19.586Z</time></trkpt><trkpt lat="40.1361864" lon="15.7600309"><ele>791.0</ele><time>2026-05-03T14:00:20.582Z</time></trkpt><trkpt lat="40.1364638" lon="15.7598947"><ele>791.5</ele><time>2026-05-03T14:00:21.586Z</time></trkpt><trkpt lat="40.1367422" lon="15.7597527"><ele>792.0</ele><time>2026-05-03T14:00:22.586Z</time></trkpt><trkpt lat="40.1370222" lon="15.7596061"><ele>792.0</ele><time>2026-05-03T14:00:23.565Z</time></trkpt><trkpt lat="40.1373041" lon="15.7594578"><ele>792.0</ele><time>2026-05-03T14:00:24.577Z</time></trkpt><trkpt lat="40.1375827" lon="15.7593065"><ele>789.0</ele><time>2026-05-03T14:00:25.569Z</time></trkpt><trkpt lat="40.1378619" lon="15.7591446"><ele>786.0</ele><time>2026-05-03T14:00:26.591Z</time></trkpt><trkpt lat="40.1381419" lon="15.7589809"><ele>788.0</ele><time>2026-05-03T14:00:27.577Z</time></trkpt><trkpt lat="40.1384216" lon="15.758817"><ele>790.0</ele><time>2026-05-03T14:00:28.58Z</time></trkpt><trkpt lat="40.1387018" lon="15.7586514"><ele>791.0</ele><time>2026-05-03T14:00:29.581Z</time></trkpt><trkpt lat="40.1389817" lon="15.7584779"><ele>792.0</ele><time>2026-05-03T14:00:30.58Z</time></trkpt><trkpt lat="40.1392575" lon="15.7583065"><ele>792.0</ele><time>2026-05-03T14:00:31.583Z</time></trkpt><trkpt lat="40.1395353" lon="15.7581266"><ele>792.0</ele><time>2026-05-03T14:00:32.581Z</time></trkpt><trkpt lat="40.1398146" lon="15.757944"><ele>789.5</ele><time>2026-05-03T14:00:33.581Z</time></trkpt><trkpt lat="40.1400951" lon="15.7577607"><ele>787.0</ele><time>2026-05-03T14:00:34.549Z</time></trkpt><trkpt lat="40.1494183" lon="15.7510139"><ele>787.0</ele><time>2026-05-03T14:01:08.575Z</time></trkpt><trkpt lat="40.1497292" lon="15.7508421"><ele>787.0</ele><time>2026-05-03T14:01:09.549Z</time></trkpt><trkpt lat="40.1500067" lon="15.7506609"><ele>787.5</ele><time>2026-05-03T14:01:10.546Z</time></trkpt><trkpt lat="40.1502746" lon="15.7504664"><ele>788.0</ele><time>2026-05-03T14:01:11.546Z</time></trkpt><trkpt lat="40.150553" lon="15.750267"><ele>783.0</ele><time>2026-05-03T14:01:12.549Z</time></trkpt><trkpt lat="40.1508261" lon="15.750063"><ele>778.0</ele><time>2026-05-03T14:01:13.552Z</time></trkpt><trkpt lat="40.1510989" lon="15.7498668"><ele>778.0</ele><time>2026-05-03T14:01:14.56Z</time></trkpt><trkpt lat="40.1513702" lon="15.7496764"><ele>778.0</ele><time>2026-05-03T14:01:15.573Z</time></trkpt><trkpt lat="40.1516276" lon="15.7494749"><ele>773.0</ele><time>2026-05-03T14:01:16.567Z</time></trkpt><trkpt lat="40.1518745" lon="15.7492816"><ele>768.0</ele><time>2026-05-03T14:01:17.567Z</time></trkpt><trkpt lat="40.1521086" lon="15.7490722"><ele>768.0</ele><time>2026-05-03T14:01:18.566Z</time></trkpt><trkpt lat="40.1523318" lon="15.7488606"><ele>768.0</ele><time>2026-05-03T14:01:19.584Z</time></trkpt><trkpt lat="40.1525421" lon="15.7486373"><ele>764.5</ele><time>2026-05-03T14:01:20.576Z</time></trkpt><trkpt lat="40.1527475" lon="15.7484048"><ele>761.0</ele><time>2026-05-03T14:01:21.557Z</time></trkpt><trkpt lat="40.1529387" lon="15.7481514"><ele>761.0</ele><time>2026-05-03T14:01:22.574Z</time></trkpt><trkpt lat="40.1531301" lon="15.7478983"><ele>761.0</ele><time>2026-05-03T14:01:23.581Z</time></trkpt><trkpt lat="40.1533095" lon="15.747622"><ele>759.0</ele><time>2026-05-03T14:01:24.575Z</time></trkpt><trkpt lat="40.153483" lon="15.7473347"><ele>757.0</ele><time>2026-05-03T14:01:25.574Z</time></trkpt><trkpt lat="40.1536542" lon="15.747039"><ele>751.0</ele><time>2026-05-03T14:01:26.567Z</time></trkpt><trkpt lat="40.1538261" lon="15.7467363"><ele>745.0</ele><time>2026-05-03T14:01:27.577Z</time></trkpt><trkpt lat="40.153991" lon="15.7464275"><ele>743.5</ele><time>2026-05-03T14:01:28.588Z</time></trkpt><trkpt lat="40.1541518" lon="15.7461136"><ele>742.0</ele><time>2026-05-03T14:01:29.554Z</time></trkpt><trkpt lat="40.1543204" lon="15.7458009"><ele>742.0</ele><time>2026-05-03T14:01:30.566Z</time></trkpt><trkpt lat="40.1544877" lon="15.7454836"><ele>742.0</ele><time>2026-05-03T14:01:31.575Z</time></trkpt><trkpt lat="40.1546565" lon="15.7451628"><ele>740.5</ele><time>2026-05-03T14:01:32.54Z</time></trkpt><trkpt lat="40.1548216" lon="15.7448382"><ele>739.0</ele><time>2026-05-03T14:01:33.575Z</time></trkpt><trkpt lat="40.1549852" lon="15.7445096"><ele>735.5</ele><time>2026-05-03T14:01:34.578Z</time></trkpt><trkpt lat="40.1551483" lon="15.7441782"><ele>732.0</ele><time>2026-05-03T14:01:35.555Z</time></trkpt><trkpt lat="40.1553183" lon="15.7438493"><ele>728.0</ele><time>2026-05-03T14:01:36.579Z</time></trkpt><trkpt lat="40.1554907" lon="15.7435192"><ele>724.0</ele><time>2026-05-03T14:01:37.556Z</time></trkpt><trkpt lat="40.1556617" lon="15.74319"><ele>724.0</ele><time>2026-05-03T14:01:38.567Z</time></trkpt><trkpt lat="40.1558335" lon="15.7428611"><ele>724.0</ele><time>2026-05-03T14:01:39.573Z</time></trkpt><trkpt lat="40.1560062" lon="15.7425322"><ele>721.5</ele><time>2026-05-03T14:01:40.57Z</time></trkpt><trkpt lat="40.1561832" lon="15.7422056"><ele>719.0</ele><time>2026-05-03T14:01:41.556Z</time></trkpt><trkpt lat="40.1563573" lon="15.7418797"><ele>717.5</ele><time>2026-05-03T14:01:42.57Z</time></trkpt><trkpt lat="40.1565321" lon="15.741554"><ele>716.0</ele><time>2026-05-03T14:01:43.584Z</time></trkpt><trkpt lat="40.156708" lon="15.7412371"><ele>714.5</ele><time>2026-05-03T14:01:44.584Z</time></trkpt><trkpt lat="40.1568811" lon="15.7409257"><ele>713.0</ele><time>2026-05-03T14:01:45.579Z</time></trkpt><trkpt lat="40.1570523" lon="15.7406093"><ele>713.0</ele><time>2026-05-03T14:01:46.574Z</time></trkpt><trkpt lat="40.1572159" lon="15.7402894"><ele>713.0</ele><time>2026-05-03T14:01:47.558Z</time></trkpt><trkpt lat="40.1573769" lon="15.7399769"><ele>712.5</ele><time>2026-05-03T14:01:48.571Z</time></trkpt><trkpt lat="40.1575389" lon="15.7396722"><ele>712.0</ele><time>2026-05-03T14:01:49.576Z</time></trkpt><trkpt lat="40.1577082" lon="15.7393731"><ele>711.5</ele><time>2026-05-03T14:01:50.581Z</time></trkpt><trkpt lat="40.1578802" lon="15.7390878"><ele>711.0</ele><time>2026-05-03T14:01:51.569Z</time></trkpt><trkpt lat="40.1580509" lon="15.7388178"><ele>706.5</ele><time>2026-05-03T14:01:52.576Z</time></trkpt><trkpt lat="40.1582227" lon="15.7385511"><ele>702.0</ele><time>2026-05-03T14:01:53.579Z</time></trkpt><trkpt lat="40.1584002" lon="15.7382899"><ele>702.0</ele><time>2026-05-03T14:01:54.574Z</time></trkpt><trkpt lat="40.1585859" lon="15.7380329"><ele>702.0</ele><time>2026-05-03T14:01:55.579Z</time></trkpt><trkpt lat="40.1587811" lon="15.7377841"><ele>695.0</ele><time>2026-05-03T14:01:56.591Z</time></trkpt><trkpt lat="40.1589781" lon="15.7375254"><ele>688.0</ele><time>2026-05-03T14:01:57.586Z</time></trkpt><trkpt lat="40.1591808" lon="15.7372694"><ele>686.0</ele><time>2026-05-03T14:01:58.553Z</time></trkpt><trkpt lat="40.1593871" lon="15.737012"><ele>684.0</ele><time>2026-05-03T14:01:59.573Z</time></trkpt><trkpt lat="40.1595923" lon="15.7367512"><ele>682.5</ele><time>2026-05-03T14:02:00.57Z</time></trkpt><trkpt lat="40.1597959" lon="15.7364952"><ele>681.0</ele><time>2026-05-03T14:02:01.566Z</time></trkpt><trkpt lat="40.1600027" lon="15.7362372"><ele>681.0</ele><time>2026-05-03T14:02:02.599Z</time></trkpt><trkpt lat="40.1602092" lon="15.735981"><ele>681.0</ele><time>2026-05-03T14:02:03.584Z</time></trkpt><trkpt lat="40.1604169" lon="15.735722"><ele>681.0</ele><time>2026-05-03T14:02:04.574Z</time></trkpt><trkpt lat="40.1606197" lon="15.735458"><ele>681.0</ele><time>2026-05-03T14:02:05.579Z</time></trkpt><trkpt lat="40.1608221" lon="15.7351944"><ele>694.0</ele><time>2026-05-03T14:02:06.575Z</time></trkpt><trkpt lat="40.1610257" lon="15.7349252"><ele>707.0</ele><time>2026-05-03T14:02:07.574Z</time></trkpt><trkpt lat="40.1612356" lon="15.7346605"><ele>707.0</ele><time>2026-05-03T14:02:08.568Z</time></trkpt><trkpt lat="40.1614501" lon="15.7343933"><ele>707.0</ele><time>2026-05-03T14:02:09.577Z</time></trkpt><trkpt lat="40.1616668" lon="15.7341292"><ele>698.0</ele><time>2026-05-03T14:02:10.561Z</time></trkpt><trkpt lat="40.1654034" lon="15.7293672"><ele>698.0</ele><time>2026-05-03T14:02:27.541Z</time></trkpt><trkpt lat="40.1655752" lon="15.729158"><ele>698.0</ele><time>2026-05-03T14:02:28.548Z</time></trkpt><trkpt lat="40.1657525" lon="15.7289215"><ele>699.0</ele><time>2026-05-03T14:02:29.551Z</time></trkpt><trkpt lat="40.1659575" lon="15.7286856"><ele>700.0</ele><time>2026-05-03T14:02:30.569Z</time></trkpt><trkpt lat="40.1661614" lon="15.7284249"><ele>697.0</ele><time>2026-05-03T14:02:31.563Z</time></trkpt><trkpt lat="40.1663616" lon="15.7281709"><ele>694.0</ele><time>2026-05-03T14:02:32.571Z</time></trkpt><trkpt lat="40.1665805" lon="15.7279286"><ele>690.5</ele><time>2026-05-03T14:02:33.568Z</time></trkpt><trkpt lat="40.1667925" lon="15.7276798"><ele>687.0</ele><time>2026-05-03T14:02:34.547Z</time></trkpt><trkpt lat="40.1670088" lon="15.7274428"><ele>687.0</ele><time>2026-05-03T14:02:35.54Z</time></trkpt><trkpt lat="40.1672296" lon="15.727215"><ele>687.0</ele><time>2026-05-03T14:02:36.565Z</time></trkpt><trkpt lat="40.1674574" lon="15.7270027"><ele>689.5</ele><time>2026-05-03T14:02:37.539Z</time></trkpt><trkpt lat="40.1676891" lon="15.7267992"><ele>692.0</ele><time>2026-05-03T14:02:38.575Z</time></trkpt><trkpt lat="40.1679198" lon="15.7265923"><ele>692.0</ele><time>2026-05-03T14:02:39.583Z</time></trkpt><trkpt lat="40.1681543" lon="15.7263895"><ele>692.0</ele><time>2026-05-03T14:02:40.55Z</time></trkpt><trkpt lat="40.1683865" lon="15.7261826"><ele>689.0</ele><time>2026-05-03T14:02:41.564Z</time></trkpt><trkpt lat="40.168618" lon="15.7259823"><ele>686.0</ele><time>2026-05-03T14:02:42.581Z</time></trkpt><trkpt lat="40.1688463" lon="15.7257778"><ele>687.0</ele><time>2026-05-03T14:02:43.574Z</time></trkpt><trkpt lat="40.1690762" lon="15.7255746"><ele>688.0</ele><time>2026-05-03T14:02:44.577Z</time></trkpt><trkpt lat="40.1693094" lon="15.7253779"><ele>688.0</ele><time>2026-05-03T14:02:45.583Z</time></trkpt><trkpt lat="40.1695463" lon="15.7251844"><ele>688.0</ele><time>2026-05-03T14:02:46.58Z</time></trkpt><trkpt lat="40.1697792" lon="15.7249781"><ele>693.0</ele><time>2026-05-03T14:02:47.569Z</time></trkpt><trkpt lat="40.1700125" lon="15.724769"><ele>698.0</ele><time>2026-05-03T14:02:48.579Z</time></trkpt><trkpt lat="40.1702436" lon="15.7245565"><ele>696.5</ele><time>2026-05-03T14:02:49.575Z</time></trkpt><trkpt lat="40.1704694" lon="15.7243323"><ele>695.0</ele><time>2026-05-03T14:02:50.573Z</time></trkpt><trkpt lat="40.1706871" lon="15.7240954"><ele>690.5</ele><time>2026-05-03T14:02:51.585Z</time></trkpt><trkpt lat="40.1708939" lon="15.7238409"><ele>686.0</ele><time>2026-05-03T14:02:52.588Z</time></trkpt><trkpt lat="40.1710981" lon="15.7235699"><ele>685.0</ele><time>2026-05-03T14:02:53.555Z</time></trkpt><trkpt lat="40.1712907" lon="15.7232811"><ele>684.0</ele><time>2026-05-03T14:02:54.539Z</time></trkpt><trkpt lat="40.1714836" lon="15.7229853"><ele>675.5</ele><time>2026-05-03T14:02:55.575Z</time></trkpt><trkpt lat="40.1716676" lon="15.7226793"><ele>667.0</ele><time>2026-05-03T14:02:56.587Z</time></trkpt><trkpt lat="40.1718602" lon="15.7223752"><ele>667.0</ele><time>2026-05-03T14:02:57.559Z</time></trkpt><trkpt lat="40.1720502" lon="15.7220821"><ele>667.0</ele><time>2026-05-03T14:02:58.563Z</time></trkpt><trkpt lat="40.17224" lon="15.721781"><ele>668.5</ele><time>2026-05-03T14:02:59.572Z</time></trkpt><trkpt lat="40.1724276" lon="15.7214768"><ele>670.0</ele><time>2026-05-03T14:03:00.575Z</time></trkpt><trkpt lat="40.1726116" lon="15.7211667"><ele>671.5</ele><time>2026-05-03T14:03:01.559Z</time></trkpt><trkpt lat="40.1727941" lon="15.7208598"><ele>673.0</ele><time>2026-05-03T14:03:02.559Z</time></trkpt><trkpt lat="40.1729722" lon="15.7205523"><ele>673.0</ele><time>2026-05-03T14:03:03.559Z</time></trkpt><trkpt lat="40.1731564" lon="15.7202487"><ele>673.0</ele><time>2026-05-03T14:03:04.56Z</time></trkpt><trkpt lat="40.173351" lon="15.7199479"><ele>671.5</ele><time>2026-05-03T14:03:05.557Z</time></trkpt><trkpt lat="40.1735558" lon="15.7196505"><ele>670.0</ele><time>2026-05-03T14:03:06.554Z</time></trkpt><trkpt lat="40.1737698" lon="15.7193646"><ele>668.0</ele><time>2026-05-03T14:03:07.583Z</time></trkpt><trkpt lat="40.1739882" lon="15.7190988"><ele>666.0</ele><time>2026-05-03T14:03:08.596Z</time></trkpt><trkpt lat="40.1742124" lon="15.7188443"><ele>665.0</ele><time>2026-05-03T14:03:09.587Z</time></trkpt><trkpt lat="40.1744377" lon="15.7186027"><ele>664.0</ele><time>2026-05-03T14:03:10.59Z</time></trkpt><trkpt lat="40.1746677" lon="15.7183753"><ele>671.0</ele><time>2026-05-03T14:03:11.57Z</time></trkpt><trkpt lat="40.1748976" lon="15.7181511"><ele>678.0</ele><time>2026-05-03T14:03:12.581Z</time></trkpt><trkpt lat="40.1751339" lon="15.7179398"><ele>669.5</ele><time>2026-05-03T14:03:13.566Z</time></trkpt><trkpt lat="40.1753749" lon="15.7177338"><ele>661.0</ele><time>2026-05-03T14:03:14.572Z</time></trkpt><trkpt lat="40.1756158" lon="15.7175293"><ele>666.0</ele><time>2026-05-03T14:03:15.54Z</time></trkpt><trkpt lat="40.1758553" lon="15.717331"><ele>671.0</ele><time>2026-05-03T14:03:16.56Z</time></trkpt><trkpt lat="40.1761005" lon="15.7171262"><ele>671.0</ele><time>2026-05-03T14:03:17.564Z</time></trkpt><trkpt lat="40.176348" lon="15.7169212"><ele>671.0</ele><time>2026-05-03T14:03:18.569Z</time></trkpt><trkpt lat="40.1766004" lon="15.7167175"><ele>662.0</ele><time>2026-05-03T14:03:19.584Z</time></trkpt><trkpt lat="40.1768574" lon="15.7165139"><ele>653.0</ele><time>2026-05-03T14:03:20.577Z</time></trkpt><trkpt lat="40.1771154" lon="15.7163072"><ele>654.5</ele><time>2026-05-03T14:03:21.546Z</time></trkpt><trkpt lat="40.1773715" lon="15.716097"><ele>656.0</ele><time>2026-05-03T14:03:22.581Z</time></trkpt><trkpt lat="40.1776296" lon="15.7158834"><ele>656.0</ele><time>2026-05-03T14:03:23.571Z</time></trkpt><trkpt lat="40.177887" lon="15.7156689"><ele>656.0</ele><time>2026-05-03T14:03:24.574Z</time></trkpt><trkpt lat="40.1781445" lon="15.7154595"><ele>652.5</ele><time>2026-05-03T14:03:25.579Z</time></trkpt><trkpt lat="40.1784018" lon="15.715252"><ele>649.0</ele><time>2026-05-03T14:03:26.572Z</time></trkpt><trkpt lat="40.1786649" lon="15.7150479"><ele>653.0</ele><time>2026-05-03T14:03:27.573Z</time></trkpt><trkpt lat="40.1789259" lon="15.7148372"><ele>657.0</ele><time>2026-05-03T14:03:28.598Z</time></trkpt><trkpt lat="40.1791823" lon="15.7146226"><ele>652.5</ele><time>2026-05-03T14:03:29.588Z</time></trkpt><trkpt lat="40.1794379" lon="15.714403"><ele>648.0</ele><time>2026-05-03T14:03:30.582Z</time></trkpt><trkpt lat="40.17969" lon="15.7141852"><ele>655.0</ele><time>2026-05-03T14:03:31.586Z</time></trkpt><trkpt lat="40.1799414" lon="15.7139688"><ele>662.0</ele><time>2026-05-03T14:03:32.561Z</time></trkpt><trkpt lat="40.180194" lon="15.7137583"><ele>657.5</ele><time>2026-05-03T14:03:33.569Z</time></trkpt><trkpt lat="40.1804475" lon="15.7135479"><ele>653.0</ele><time>2026-05-03T14:03:34.574Z</time></trkpt><trkpt lat="40.1807016" lon="15.7133424"><ele>653.0</ele><time>2026-05-03T14:03:35.578Z</time></trkpt><trkpt lat="40.180957" lon="15.7131308"><ele>653.0</ele><time>2026-05-03T14:03:36.583Z</time></trkpt><trkpt lat="40.1812134" lon="15.7129177"><ele>649.0</ele><time>2026-05-03T14:03:37.581Z</time></trkpt><trkpt lat="40.1814671" lon="15.7127044"><ele>645.0</ele><time>2026-05-03T14:03:38.576Z</time></trkpt><trkpt lat="40.1817227" lon="15.7124903"><ele>645.0</ele><time>2026-05-03T14:03:39.578Z</time></trkpt><trkpt lat="40.1819807" lon="15.7122808"><ele>645.0</ele><time>2026-05-03T14:03:40.586Z</time></trkpt><trkpt lat="40.1822397" lon="15.7120711"><ele>644.5</ele><time>2026-05-03T14:03:41.581Z</time></trkpt><trkpt lat="40.1824937" lon="15.7118577"><ele>644.0</ele><time>2026-05-03T14:03:42.583Z</time></trkpt><trkpt lat="40.1827488" lon="15.7116468"><ele>644.0</ele><time>2026-05-03T14:03:43.589Z</time></trkpt><trkpt lat="40.1830034" lon="15.7114364"><ele>644.0</ele><time>2026-05-03T14:03:44.579Z</time></trkpt><trkpt lat="40.1832544" lon="15.7112209"><ele>645.5</ele><time>2026-05-03T14:03:45.582Z</time></trkpt><trkpt lat="40.1835062" lon="15.711009"><ele>647.0</ele><time>2026-05-03T14:03:46.574Z</time></trkpt><trkpt lat="40.183761" lon="15.7107972"><ele>651.0</ele><time>2026-05-03T14:03:47.593Z</time></trkpt><trkpt lat="40.1840162" lon="15.7105828"><ele>655.0</ele><time>2026-05-03T14:03:48.579Z</time></trkpt><trkpt lat="40.1842723" lon="15.7103729"><ele>650.5</ele><time>2026-05-03T14:03:49.591Z</time></trkpt><trkpt lat="40.1845279" lon="15.7101609"><ele>646.0</ele><time>2026-05-03T14:03:50.577Z</time></trkpt><trkpt lat="40.184782" lon="15.7099452"><ele>650.5</ele><time>2026-05-03T14:03:51.584Z</time></trkpt><trkpt lat="40.1850385" lon="15.7097265"><ele>655.0</ele><time>2026-05-03T14:03:52.578Z</time></trkpt><trkpt lat="40.1852989" lon="15.7095109"><ele>654.0</ele><time>2026-05-03T14:03:53.561Z</time></trkpt><trkpt lat="40.1855569" lon="15.7092954"><ele>653.0</ele><time>2026-05-03T14:03:54.562Z</time></trkpt><trkpt lat="40.1858184" lon="15.7090844"><ele>651.5</ele><time>2026-05-03T14:03:55.576Z</time></trkpt><trkpt lat="40.1860797" lon="15.7088823"><ele>650.0</ele><time>2026-05-03T14:03:56.585Z</time></trkpt><trkpt lat="40.1863411" lon="15.7086789"><ele>649.0</ele><time>2026-05-03T14:03:57.566Z</time></trkpt><trkpt lat="40.1866035" lon="15.7084817"><ele>648.0</ele><time>2026-05-03T14:03:58.569Z</time></trkpt><trkpt lat="40.1868699" lon="15.7082941"><ele>648.0</ele><time>2026-05-03T14:03:59.565Z</time></trkpt><trkpt lat="40.1871384" lon="15.7081191"><ele>648.0</ele><time>2026-05-03T14:04:00.562Z</time></trkpt><trkpt lat="40.1874145" lon="15.7079602"><ele>658.0</ele><time>2026-05-03T14:04:01.562Z</time></trkpt><trkpt lat="40.1918076" lon="15.7053653"><ele>656.5</ele><time>2026-05-03T14:04:17.544Z</time></trkpt><trkpt lat="40.1920219" lon="15.7049823"><ele>655.0</ele><time>2026-05-03T14:04:18.559Z</time></trkpt><trkpt lat="40.192274" lon="15.7047302"><ele>650.0</ele><time>2026-05-03T14:04:19.562Z</time></trkpt><trkpt lat="40.1925148" lon="15.7044982"><ele>645.0</ele><time>2026-05-03T14:04:20.57Z</time></trkpt><trkpt lat="40.1927256" lon="15.7042079"><ele>645.0</ele><time>2026-05-03T14:04:21.576Z</time></trkpt><trkpt lat="40.1929393" lon="15.70391"><ele>645.0</ele><time>2026-05-03T14:04:22.57Z</time></trkpt><trkpt lat="40.1931455" lon="15.7036192"><ele>640.5</ele><time>2026-05-03T14:04:23.563Z</time></trkpt><trkpt lat="40.1933495" lon="15.703323"><ele>636.0</ele><time>2026-05-03T14:04:24.568Z</time></trkpt><trkpt lat="40.1935504" lon="15.7030172"><ele>633.5</ele><time>2026-05-03T14:04:25.58Z</time></trkpt><trkpt lat="40.1937419" lon="15.7027061"><ele>631.0</ele><time>2026-05-03T14:04:26.58Z</time></trkpt><trkpt lat="40.1939264" lon="15.7023874"><ele>622.5</ele><time>2026-05-03T14:04:27.57Z</time></trkpt><trkpt lat="40.1941031" lon="15.7020594"><ele>614.0</ele><time>2026-05-03T14:04:28.541Z</time></trkpt><trkpt lat="40.194267" lon="15.7017232"><ele>613.0</ele><time>2026-05-03T14:04:29.534Z</time></trkpt><trkpt lat="40.1944184" lon="15.7013744"><ele>612.0</ele><time>2026-05-03T14:04:30.561Z</time></trkpt><trkpt lat="40.1945659" lon="15.7010228"><ele>607.5</ele><time>2026-05-03T14:04:31.556Z</time></trkpt><trkpt lat="40.1947075" lon="15.7006701"><ele>603.0</ele><time>2026-05-03T14:04:32.573Z</time></trkpt><trkpt lat="40.1948381" lon="15.7003124"><ele>610.0</ele><time>2026-05-03T14:04:33.554Z</time></trkpt><trkpt lat="40.1949658" lon="15.6999619"><ele>617.0</ele><time>2026-05-03T14:04:34.558Z</time></trkpt><trkpt lat="40.1950884" lon="15.6996041"><ele>619.0</ele><time>2026-05-03T14:04:35.535Z</time></trkpt><trkpt lat="40.1952122" lon="15.6992502"><ele>621.0</ele><time>2026-05-03T14:04:36.543Z</time></trkpt><trkpt lat="40.1953347" lon="15.6989022"><ele>626.5</ele><time>2026-05-03T14:04:37.549Z</time></trkpt><trkpt lat="40.195455" lon="15.6985513"><ele>632.0</ele><time>2026-05-03T14:04:38.566Z</time></trkpt><trkpt lat="40.1955711" lon="15.6982049"><ele>630.5</ele><time>2026-05-03T14:04:39.557Z</time></trkpt><trkpt lat="40.1956881" lon="15.6978606"><ele>629.0</ele><time>2026-05-03T14:04:40.565Z</time></trkpt><trkpt lat="40.1958084" lon="15.6975252"><ele>629.0</ele><time>2026-05-03T14:04:41.543Z</time></trkpt><trkpt lat="40.1959259" lon="15.6971877"><ele>629.0</ele><time>2026-05-03T14:04:42.562Z</time></trkpt><trkpt lat="40.1960447" lon="15.6968524"><ele>632.0</ele><time>2026-05-03T14:04:43.556Z</time></trkpt><trkpt lat="40.1961663" lon="15.6965257"><ele>635.0</ele><time>2026-05-03T14:04:44.57Z</time></trkpt><trkpt lat="40.1962921" lon="15.6962002"><ele>635.0</ele><time>2026-05-03T14:04:45.568Z</time></trkpt><trkpt lat="40.1964168" lon="15.6958792"><ele>635.0</ele><time>2026-05-03T14:04:46.558Z</time></trkpt><trkpt lat="40.1965361" lon="15.6955602"><ele>631.5</ele><time>2026-05-03T14:04:47.575Z</time></trkpt><trkpt lat="40.1966476" lon="15.695236"><ele>628.0</ele><time>2026-05-03T14:04:48.55Z</time></trkpt><trkpt lat="40.1967599" lon="15.6949132"><ele>628.0</ele><time>2026-05-03T14:04:49.565Z</time></trkpt><trkpt lat="40.1968722" lon="15.6945871"><ele>628.0</ele><time>2026-05-03T14:04:50.565Z</time></trkpt><trkpt lat="40.1969863" lon="15.6942646"><ele>633.5</ele><time>2026-05-03T14:04:51.575Z</time></trkpt><trkpt lat="40.1970992" lon="15.6939388"><ele>639.0</ele><time>2026-05-03T14:04:52.57Z</time></trkpt><trkpt lat="40.1972149" lon="15.6936131"><ele>635.5</ele><time>2026-05-03T14:04:53.555Z</time></trkpt><trkpt lat="40.1973313" lon="15.6932892"><ele>632.0</ele><time>2026-05-03T14:04:54.548Z</time></trkpt><trkpt lat="40.1974494" lon="15.6929652"><ele>636.0</ele><time>2026-05-03T14:04:55.568Z</time></trkpt><trkpt lat="40.197569" lon="15.6926381"><ele>640.0</ele><time>2026-05-03T14:04:56.564Z</time></trkpt><trkpt lat="40.1976852" lon="15.6923143"><ele>640.0</ele><time>2026-05-03T14:04:57.567Z</time></trkpt><trkpt lat="40.1977997" lon="15.6919864"><ele>640.0</ele><time>2026-05-03T14:04:58.541Z</time></trkpt><trkpt lat="40.1979101" lon="15.6916626"><ele>640.5</ele><time>2026-05-03T14:04:59.573Z</time></trkpt><trkpt lat="40.1980252" lon="15.6913475"><ele>641.0</ele><time>2026-05-03T14:05:00.579Z</time></trkpt><trkpt lat="40.1981488" lon="15.691036"><ele>646.0</ele><time>2026-05-03T14:05:01.56Z</time></trkpt><trkpt lat="40.1982708" lon="15.6907165"><ele>651.0</ele><time>2026-05-03T14:05:02.551Z</time></trkpt><trkpt lat="40.1984025" lon="15.6904041"><ele>652.5</ele><time>2026-05-03T14:05:03.563Z</time></trkpt><trkpt lat="40.1985385" lon="15.6900955"><ele>654.0</ele><time>2026-05-03T14:05:04.561Z</time></trkpt><trkpt lat="40.1986832" lon="15.6897954"><ele>654.0</ele><time>2026-05-03T14:05:05.566Z</time></trkpt><trkpt lat="40.1988357" lon="15.6895064"><ele>654.0</ele><time>2026-05-03T14:05:06.577Z</time></trkpt><trkpt lat="40.1989962" lon="15.6892254"><ele>656.5</ele><time>2026-05-03T14:05:07.567Z</time></trkpt><trkpt lat="40.1991629" lon="15.6889525"><ele>659.0</ele><time>2026-05-03T14:05:08.56Z</time></trkpt><trkpt lat="40.1993345" lon="15.6886824"><ele>656.0</ele><time>2026-05-03T14:05:09.559Z</time></trkpt><trkpt lat="40.1995099" lon="15.6884205"><ele>653.0</ele><time>2026-05-03T14:05:10.567Z</time></trkpt><trkpt lat="40.1996931" lon="15.6881669"><ele>652.0</ele><time>2026-05-03T14:05:11.565Z</time></trkpt><trkpt lat="40.199889" lon="15.6879215"><ele>651.0</ele><time>2026-05-03T14:05:12.568Z</time></trkpt><trkpt lat="40.2000919" lon="15.6876772"><ele>650.0</ele><time>2026-05-03T14:05:13.557Z</time></trkpt><trkpt lat="40.2002995" lon="15.6874292"><ele>649.0</ele><time>2026-05-03T14:05:14.568Z</time></trkpt><trkpt lat="40.200513" lon="15.6871929"><ele>647.0</ele><time>2026-05-03T14:05:15.557Z</time></trkpt><trkpt lat="40.2007309" lon="15.6869521"><ele>645.0</ele><time>2026-05-03T14:05:16.574Z</time></trkpt><trkpt lat="40.2009512" lon="15.6867134"><ele>645.0</ele><time>2026-05-03T14:05:17.544Z</time></trkpt><trkpt lat="40.2011699" lon="15.6864686"><ele>645.0</ele><time>2026-05-03T14:05:18.564Z</time></trkpt><trkpt lat="40.2013822" lon="15.6862197"><ele>653.0</ele><time>2026-05-03T14:05:19.56Z</time></trkpt><trkpt lat="40.2015996" lon="15.685975"><ele>661.0</ele><time>2026-05-03T14:05:20.556Z</time></trkpt><trkpt lat="40.2140215" lon="15.6731479"><ele>618.0</ele><time>2026-05-03T14:06:18.555Z</time></trkpt><trkpt lat="40.2142795" lon="15.6730093"><ele>575.0</ele><time>2026-05-03T14:06:19.556Z</time></trkpt><trkpt lat="40.2144759" lon="15.6729367"><ele>575.0</ele><time>2026-05-03T14:06:20.556Z</time></trkpt><trkpt lat="40.2147797" lon="15.6728115"><ele>575.0</ele><time>2026-05-03T14:06:21.56Z</time></trkpt><trkpt lat="40.2150459" lon="15.6727056"><ele>582.5</ele><time>2026-05-03T14:06:22.557Z</time></trkpt><trkpt lat="40.2153075" lon="15.6726025"><ele>590.0</ele><time>2026-05-03T14:06:23.556Z</time></trkpt><trkpt lat="40.2155748" lon="15.67251"><ele>593.0</ele><time>2026-05-03T14:06:24.549Z</time></trkpt><trkpt lat="40.2158355" lon="15.6724266"><ele>596.0</ele><time>2026-05-03T14:06:25.583Z</time></trkpt><trkpt lat="40.2160991" lon="15.6723427"><ele>596.0</ele><time>2026-05-03T14:06:26.562Z</time></trkpt><trkpt lat="40.2163658" lon="15.67227"><ele>596.0</ele><time>2026-05-03T14:06:27.56Z</time></trkpt><trkpt lat="40.2166347" lon="15.6722085"><ele>596.5</ele><time>2026-05-03T14:06:28.547Z</time></trkpt><trkpt lat="40.2169061" lon="15.6721588"><ele>597.0</ele><time>2026-05-03T14:06:29.56Z</time></trkpt><trkpt lat="40.2171784" lon="15.6721216"><ele>592.5</ele><time>2026-05-03T14:06:30.568Z</time></trkpt><trkpt lat="40.2174506" lon="15.6720888"><ele>588.0</ele><time>2026-05-03T14:06:31.578Z</time></trkpt><trkpt lat="40.2177261" lon="15.672067"><ele>588.0</ele><time>2026-05-03T14:06:32.57Z</time></trkpt><trkpt lat="40.2180012" lon="15.6720506"><ele>588.0</ele><time>2026-05-03T14:06:33.55Z</time></trkpt><trkpt lat="40.2182784" lon="15.6720431"><ele>586.5</ele><time>2026-05-03T14:06:34.564Z</time></trkpt><trkpt lat="40.2185581" lon="15.6720471"><ele>585.0</ele><time>2026-05-03T14:06:35.565Z</time></trkpt><trkpt lat="40.2191239" lon="15.672063"><ele>581.5</ele><time>2026-05-03T14:06:37.57Z</time></trkpt><trkpt lat="40.2194134" lon="15.6720768"><ele>578.0</ele><time>2026-05-03T14:06:38.565Z</time></trkpt><trkpt lat="40.2197059" lon="15.6720923"><ele>576.5</ele><time>2026-05-03T14:06:39.579Z</time></trkpt><trkpt lat="40.2199986" lon="15.6721213"><ele>575.0</ele><time>2026-05-03T14:06:40.576Z</time></trkpt><trkpt lat="40.2202923" lon="15.6721484"><ele>575.0</ele><time>2026-05-03T14:06:41.569Z</time></trkpt><trkpt lat="40.2205848" lon="15.672172"><ele>575.0</ele><time>2026-05-03T14:06:42.578Z</time></trkpt><trkpt lat="40.2208842" lon="15.6721878"><ele>573.0</ele><time>2026-05-03T14:06:43.574Z</time></trkpt><trkpt lat="40.2211874" lon="15.6721981"><ele>571.0</ele><time>2026-05-03T14:06:44.577Z</time></trkpt><trkpt lat="40.2214904" lon="15.6722105"><ele>568.5</ele><time>2026-05-03T14:06:45.581Z</time></trkpt><trkpt lat="40.221796" lon="15.6722132"><ele>566.0</ele><time>2026-05-03T14:06:46.566Z</time></trkpt><trkpt lat="40.2221014" lon="15.6722049"><ele>571.0</ele><time>2026-05-03T14:06:47.586Z</time></trkpt><trkpt lat="40.2224063" lon="15.6721805"><ele>576.0</ele><time>2026-05-03T14:06:48.581Z</time></trkpt><trkpt lat="40.2227052" lon="15.6721479"><ele>576.0</ele><time>2026-05-03T14:06:49.571Z</time></trkpt><trkpt lat="40.2230023" lon="15.6721087"><ele>576.0</ele><time>2026-05-03T14:06:50.568Z</time></trkpt><trkpt lat="40.227886" lon="15.6700866"><ele>575.5</ele><time>2026-05-03T14:07:07.543Z</time></trkpt><trkpt lat="40.2281698" lon="15.6699174"><ele>575.0</ele><time>2026-05-03T14:07:08.551Z</time></trkpt><trkpt lat="40.2283878" lon="15.6697885"><ele>575.0</ele><time>2026-05-03T14:07:09.557Z</time></trkpt><trkpt lat="40.2286786" lon="15.6695083"><ele>575.0</ele><time>2026-05-03T14:07:10.554Z</time></trkpt><trkpt lat="40.228946" lon="15.6692533"><ele>572.5</ele><time>2026-05-03T14:07:11.573Z</time></trkpt><trkpt lat="40.2292059" lon="15.6690227"><ele>570.0</ele><time>2026-05-03T14:07:12.561Z</time></trkpt><trkpt lat="40.2294607" lon="15.6687804"><ele>575.5</ele><time>2026-05-03T14:07:13.574Z</time></trkpt><trkpt lat="40.2297108" lon="15.6685384"><ele>581.0</ele><time>2026-05-03T14:07:14.579Z</time></trkpt><trkpt lat="40.2299564" lon="15.668306"><ele>569.5</ele><time>2026-05-03T14:07:15.576Z</time></trkpt><trkpt lat="40.2301989" lon="15.6680638"><ele>558.0</ele><time>2026-05-03T14:07:16.558Z</time></trkpt><trkpt lat="40.2304344" lon="15.6678176"><ele>558.5</ele><time>2026-05-03T14:07:17.564Z</time></trkpt><trkpt lat="40.2306746" lon="15.6675677"><ele>559.0</ele><time>2026-05-03T14:07:18.584Z</time></trkpt><trkpt lat="40.2309172" lon="15.6673359"><ele>559.0</ele><time>2026-05-03T14:07:19.578Z</time></trkpt><trkpt lat="40.2311565" lon="15.6671046"><ele>559.0</ele><time>2026-05-03T14:07:20.576Z</time></trkpt><trkpt lat="40.2313946" lon="15.6668747"><ele>572.5</ele><time>2026-05-03T14:07:21.577Z</time></trkpt><trkpt lat="40.2316259" lon="15.6666529"><ele>586.0</ele><time>2026-05-03T14:07:22.577Z</time></trkpt><trkpt lat="40.2318476" lon="15.6664318"><ele>586.0</ele><time>2026-05-03T14:07:23.565Z</time></trkpt><trkpt lat="40.2320722" lon="15.6662195"><ele>586.0</ele><time>2026-05-03T14:07:24.562Z</time></trkpt><trkpt lat="40.2338871" lon="15.6643942"><ele>576.0</ele><time>2026-05-03T14:07:32.568Z</time></trkpt><trkpt lat="40.234111" lon="15.6641742"><ele>566.0</ele><time>2026-05-03T14:07:33.559Z</time></trkpt><trkpt lat="40.2343325" lon="15.6639545"><ele>566.0</ele><time>2026-05-03T14:07:34.554Z</time></trkpt><trkpt lat="40.2345568" lon="15.6637364"><ele>566.0</ele><time>2026-05-03T14:07:35.557Z</time></trkpt><trkpt lat="40.2347797" lon="15.6635236"><ele>562.0</ele><time>2026-05-03T14:07:36.563Z</time></trkpt><trkpt lat="40.2350056" lon="15.663305"><ele>558.0</ele><time>2026-05-03T14:07:37.57Z</time></trkpt><trkpt lat="40.2352287" lon="15.6630903"><ele>558.0</ele><time>2026-05-03T14:07:38.569Z</time></trkpt><trkpt lat="40.2354513" lon="15.6628784"><ele>558.0</ele><time>2026-05-03T14:07:39.551Z</time></trkpt><trkpt lat="40.2356775" lon="15.6626557"><ele>565.5</ele><time>2026-05-03T14:07:40.569Z</time></trkpt><trkpt lat="40.235901" lon="15.6624259"><ele>573.0</ele><time>2026-05-03T14:07:41.571Z</time></trkpt><trkpt lat="40.2361282" lon="15.6622005"><ele>573.0</ele><time>2026-05-03T14:07:42.539Z</time></trkpt><trkpt lat="40.2363585" lon="15.6619743"><ele>573.0</ele><time>2026-05-03T14:07:43.558Z</time></trkpt><trkpt lat="40.2365911" lon="15.6617463"><ele>570.5</ele><time>2026-05-03T14:07:44.566Z</time></trkpt><trkpt lat="40.2368236" lon="15.6615238"><ele>568.0</ele><time>2026-05-03T14:07:45.566Z</time></trkpt><trkpt lat="40.2370672" lon="15.6613142"><ele>568.0</ele><time>2026-05-03T14:07:46.577Z</time></trkpt><trkpt lat="40.2373136" lon="15.6611077"><ele>568.0</ele><time>2026-05-03T14:07:47.557Z</time></trkpt><trkpt lat="40.2375655" lon="15.6609071"><ele>568.0</ele><time>2026-05-03T14:07:48.571Z</time></trkpt><trkpt lat="40.237821" lon="15.660717"><ele>568.0</ele><time>2026-05-03T14:07:49.554Z</time></trkpt><trkpt lat="40.2380816" lon="15.6605434"><ele>567.5</ele><time>2026-05-03T14:07:50.568Z</time></trkpt><trkpt lat="40.238348" lon="15.660386"><ele>567.0</ele><time>2026-05-03T14:07:51.574Z</time></trkpt><trkpt lat="40.2386185" lon="15.6602378"><ele>566.5</ele><time>2026-05-03T14:07:52.566Z</time></trkpt><trkpt lat="40.238892" lon="15.6601072"><ele>566.0</ele><time>2026-05-03T14:07:53.572Z</time></trkpt><trkpt lat="40.2391753" lon="15.6600077"><ele>566.0</ele><time>2026-05-03T14:07:54.558Z</time></trkpt><trkpt lat="40.2394546" lon="15.6599266"><ele>566.0</ele><time>2026-05-03T14:07:55.566Z</time></trkpt><trkpt lat="40.2397209" lon="15.6598711"><ele>566.5</ele><time>2026-05-03T14:07:56.562Z</time></trkpt><trkpt lat="40.2399851" lon="15.6598281"><ele>567.0</ele><time>2026-05-03T14:07:57.564Z</time></trkpt><trkpt lat="40.2402474" lon="15.6597901"><ele>567.0</ele><time>2026-05-03T14:07:58.562Z</time></trkpt><trkpt lat="40.2405071" lon="15.6597612"><ele>567.0</ele><time>2026-05-03T14:07:59.562Z</time></trkpt><trkpt lat="40.2407687" lon="15.6597474"><ele>572.5</ele><time>2026-05-03T14:08:00.576Z</time></trkpt><trkpt lat="40.2410322" lon="15.6597469"><ele>578.0</ele><time>2026-05-03T14:08:01.572Z</time></trkpt><trkpt lat="40.2412955" lon="15.6597446"><ele>579.5</ele><time>2026-05-03T14:08:02.577Z</time></trkpt><trkpt lat="40.2415566" lon="15.6597481"><ele>581.0</ele><time>2026-05-03T14:08:03.59Z</time></trkpt><trkpt lat="40.2418214" lon="15.6597594"><ele>581.0</ele><time>2026-05-03T14:08:04.57Z</time></trkpt><trkpt lat="40.2420867" lon="15.6597675"><ele>581.0</ele><time>2026-05-03T14:08:05.563Z</time></trkpt><trkpt lat="40.2423544" lon="15.6597799"><ele>580.0</ele><time>2026-05-03T14:08:06.572Z</time></trkpt><trkpt lat="40.2426236" lon="15.6597977"><ele>579.0</ele><time>2026-05-03T14:08:07.578Z</time></trkpt><trkpt lat="40.2428996" lon="15.6598153"><ele>580.5</ele><time>2026-05-03T14:08:08.592Z</time></trkpt><trkpt lat="40.2431778" lon="15.6598335"><ele>582.0</ele><time>2026-05-03T14:08:09.552Z</time></trkpt><trkpt lat="40.243457" lon="15.659845"><ele>582.0</ele><time>2026-05-03T14:08:10.542Z</time></trkpt><trkpt lat="40.243739" lon="15.6598606"><ele>582.0</ele><time>2026-05-03T14:08:11.555Z</time></trkpt><trkpt lat="40.2440223" lon="15.6598768"><ele>579.0</ele><time>2026-05-03T14:08:12.541Z</time></trkpt><trkpt lat="40.2443096" lon="15.6598865"><ele>576.0</ele><time>2026-05-03T14:08:13.548Z</time></trkpt><trkpt lat="40.2445956" lon="15.6598975"><ele>573.5</ele><time>2026-05-03T14:08:14.541Z</time></trkpt><trkpt lat="40.2448838" lon="15.6599094"><ele>571.0</ele><time>2026-05-03T14:08:15.551Z</time></trkpt><trkpt lat="40.2451811" lon="15.6599303"><ele>569.0</ele><time>2026-05-03T14:08:16.545Z</time></trkpt><trkpt lat="40.2457618" lon="15.6599648"><ele>569.0</ele><time>2026-05-03T14:08:18.554Z</time></trkpt><trkpt lat="40.2460592" lon="15.6599726"><ele>569.0</ele><time>2026-05-03T14:08:19.561Z</time></trkpt><trkpt lat="40.2463627" lon="15.6599969"><ele>569.5</ele><time>2026-05-03T14:08:20.562Z</time></trkpt><trkpt lat="40.246661" lon="15.6599986"><ele>570.0</ele><time>2026-05-03T14:08:21.578Z</time></trkpt><trkpt lat="40.2469539" lon="15.6600125"><ele>570.0</ele><time>2026-05-03T14:08:22.557Z</time></trkpt><trkpt lat="40.2472499" lon="15.6600362"><ele>570.0</ele><time>2026-05-03T14:08:23.565Z</time></trkpt><trkpt lat="40.247553" lon="15.6600503"><ele>565.5</ele><time>2026-05-03T14:08:24.558Z</time></trkpt><trkpt lat="40.2478494" lon="15.6600673"><ele>561.0</ele><time>2026-05-03T14:08:25.56Z</time></trkpt><trkpt lat="40.2481432" lon="15.6600848"><ele>559.0</ele><time>2026-05-03T14:08:26.567Z</time></trkpt><trkpt lat="40.2484405" lon="15.6601031"><ele>557.0</ele><time>2026-05-03T14:08:27.569Z</time></trkpt><trkpt lat="40.2487321" lon="15.6601246"><ele>556.0</ele><time>2026-05-03T14:08:28.571Z</time></trkpt><trkpt lat="40.249027" lon="15.6601497"><ele>555.0</ele><time>2026-05-03T14:08:29.555Z</time></trkpt><trkpt lat="40.2493203" lon="15.6601811"><ele>555.0</ele><time>2026-05-03T14:08:30.576Z</time></trkpt><trkpt lat="40.2496086" lon="15.6602051"><ele>555.0</ele><time>2026-05-03T14:08:31.569Z</time></trkpt><trkpt lat="40.2498988" lon="15.6602312"><ele>554.5</ele><time>2026-05-03T14:08:32.576Z</time></trkpt><trkpt lat="40.2501873" lon="15.6602606"><ele>554.0</ele><time>2026-05-03T14:08:33.582Z</time></trkpt><trkpt lat="40.2504688" lon="15.6602974"><ele>542.0</ele><time>2026-05-03T14:08:34.563Z</time></trkpt><trkpt lat="40.2507455" lon="15.6603346"><ele>530.0</ele><time>2026-05-03T14:08:35.565Z</time></trkpt><trkpt lat="40.2510192" lon="15.6603594"><ele>530.0</ele><time>2026-05-03T14:08:36.566Z</time></trkpt><trkpt lat="40.251289" lon="15.6603785"><ele>530.0</ele><time>2026-05-03T14:08:37.548Z</time></trkpt><trkpt lat="40.2515555" lon="15.660407"><ele>529.0</ele><time>2026-05-03T14:08:38.55Z</time></trkpt><trkpt lat="40.251822" lon="15.6604369"><ele>528.0</ele><time>2026-05-03T14:08:39.569Z</time></trkpt><trkpt lat="40.2520902" lon="15.6604569"><ele>534.0</ele><time>2026-05-03T14:08:40.559Z</time></trkpt><trkpt lat="40.2523549" lon="15.6604695"><ele>540.0</ele><time>2026-05-03T14:08:41.556Z</time></trkpt><trkpt lat="40.2526239" lon="15.6604818"><ele>540.0</ele><time>2026-05-03T14:08:42.578Z</time></trkpt><trkpt lat="40.2528901" lon="15.6604907"><ele>540.0</ele><time>2026-05-03T14:08:43.564Z</time></trkpt><trkpt lat="40.2531555" lon="15.6604996"><ele>547.5</ele><time>2026-05-03T14:08:44.552Z</time></trkpt><trkpt lat="40.2534209" lon="15.6605171"><ele>555.0</ele><time>2026-05-03T14:08:45.565Z</time></trkpt><trkpt lat="40.2604757" lon="15.6593661"><ele>529.5</ele><time>2026-05-03T14:09:11.57Z</time></trkpt><trkpt lat="40.2606981" lon="15.6593667"><ele>504.0</ele><time>2026-05-03T14:09:12.56Z</time></trkpt><trkpt lat="40.2610012" lon="15.6593324"><ele>504.0</ele><time>2026-05-03T14:09:13.543Z</time></trkpt><trkpt lat="40.2612737" lon="15.659293"><ele>504.0</ele><time>2026-05-03T14:09:14.57Z</time></trkpt><trkpt lat="40.2615509" lon="15.6592358"><ele>503.5</ele><time>2026-05-03T14:09:15.549Z</time></trkpt><trkpt lat="40.2618265" lon="15.6591868"><ele>503.0</ele><time>2026-05-03T14:09:16.552Z</time></trkpt><trkpt lat="40.2621032" lon="15.6591258"><ele>502.5</ele><time>2026-05-03T14:09:17.569Z</time></trkpt><trkpt lat="40.2623761" lon="15.6590697"><ele>502.0</ele><time>2026-05-03T14:09:18.553Z</time></trkpt><trkpt lat="40.2626427" lon="15.6590123"><ele>502.0</ele><time>2026-05-03T14:09:19.574Z</time></trkpt><trkpt lat="40.2629139" lon="15.6589429"><ele>502.0</ele><time>2026-05-03T14:09:20.572Z</time></trkpt><trkpt lat="40.2631829" lon="15.6588714"><ele>501.5</ele><time>2026-05-03T14:09:21.562Z</time></trkpt><trkpt lat="40.263445" lon="15.6587905"><ele>501.0</ele><time>2026-05-03T14:09:22.542Z</time></trkpt><trkpt lat="40.2637028" lon="15.6587042"><ele>500.5</ele><time>2026-05-03T14:09:23.56Z</time></trkpt><trkpt lat="40.2639653" lon="15.6586246"><ele>500.0</ele><time>2026-05-03T14:09:24.549Z</time></trkpt><trkpt lat="40.2642275" lon="15.658552"><ele>500.0</ele><time>2026-05-03T14:09:25.565Z</time></trkpt><trkpt lat="40.2644886" lon="15.6584748"><ele>500.0</ele><time>2026-05-03T14:09:26.563Z</time></trkpt><trkpt lat="40.2647483" lon="15.6584112"><ele>499.0</ele><time>2026-05-03T14:09:27.562Z</time></trkpt><trkpt lat="40.2650095" lon="15.6583594"><ele>498.0</ele><time>2026-05-03T14:09:28.562Z</time></trkpt><trkpt lat="40.2652653" lon="15.6583057"><ele>498.0</ele><time>2026-05-03T14:09:29.569Z</time></trkpt><trkpt lat="40.2655247" lon="15.658258"><ele>498.0</ele><time>2026-05-03T14:09:30.587Z</time></trkpt><trkpt lat="40.2657811" lon="15.6582046"><ele>497.5</ele><time>2026-05-03T14:09:31.588Z</time></trkpt><trkpt lat="40.2660363" lon="15.6581482"><ele>497.0</ele><time>2026-05-03T14:09:32.576Z</time></trkpt><trkpt lat="40.2662937" lon="15.6580938"><ele>496.0</ele><time>2026-05-03T14:09:33.572Z</time></trkpt><trkpt lat="40.2665517" lon="15.6580427"><ele>495.0</ele><time>2026-05-03T14:09:34.55Z</time></trkpt><trkpt lat="40.2668077" lon="15.6579875"><ele>495.0</ele><time>2026-05-03T14:09:35.575Z</time></trkpt><trkpt lat="40.2670658" lon="15.6579373"><ele>495.0</ele><time>2026-05-03T14:09:36.577Z</time></trkpt><trkpt lat="40.2673239" lon="15.6578861"><ele>495.0</ele><time>2026-05-03T14:09:37.573Z</time></trkpt><trkpt lat="40.2675832" lon="15.6578312"><ele>495.0</ele><time>2026-05-03T14:09:38.58Z</time></trkpt><trkpt lat="40.2678449" lon="15.6577699"><ele>495.0</ele><time>2026-05-03T14:09:39.581Z</time></trkpt><trkpt lat="40.2681067" lon="15.6577022"><ele>495.0</ele><time>2026-05-03T14:09:40.574Z</time></trkpt><trkpt lat="40.2683665" lon="15.657626"><ele>494.0</ele><time>2026-05-03T14:09:41.55Z</time></trkpt><trkpt lat="40.2686257" lon="15.6575359"><ele>493.0</ele><time>2026-05-03T14:09:42.574Z</time></trkpt><trkpt lat="40.2688841" lon="15.6574324"><ele>495.0</ele><time>2026-05-03T14:09:43.567Z</time></trkpt><trkpt lat="40.269144" lon="15.6573247"><ele>497.0</ele><time>2026-05-03T14:09:44.556Z</time></trkpt><trkpt lat="40.2694072" lon="15.6572225"><ele>497.0</ele><time>2026-05-03T14:09:45.561Z</time></trkpt><trkpt lat="40.2696683" lon="15.6571267"><ele>497.0</ele><time>2026-05-03T14:09:46.562Z</time></trkpt><trkpt lat="40.2699302" lon="15.6570294"><ele>496.0</ele><time>2026-05-03T14:09:47.584Z</time></trkpt><trkpt lat="40.2701882" lon="15.6569288"><ele>495.0</ele><time>2026-05-03T14:09:48.554Z</time></trkpt><trkpt lat="40.2704469" lon="15.656833"><ele>494.5</ele><time>2026-05-03T14:09:49.579Z</time></trkpt><trkpt lat="40.2707009" lon="15.6567454"><ele>494.0</ele><time>2026-05-03T14:09:50.585Z</time></trkpt><trkpt lat="40.2709581" lon="15.6566496"><ele>494.0</ele><time>2026-05-03T14:09:51.568Z</time></trkpt><trkpt lat="40.2712112" lon="15.6565504"><ele>494.0</ele><time>2026-05-03T14:09:52.586Z</time></trkpt><trkpt lat="40.2714663" lon="15.6564499"><ele>494.0</ele><time>2026-05-03T14:09:53.581Z</time></trkpt><trkpt lat="40.2717203" lon="15.6563471"><ele>494.0</ele><time>2026-05-03T14:09:54.587Z</time></trkpt><trkpt lat="40.2719789" lon="15.656242"><ele>494.0</ele><time>2026-05-03T14:09:55.582Z</time></trkpt><trkpt lat="40.2722423" lon="15.6561404"><ele>494.0</ele><time>2026-05-03T14:09:56.569Z</time></trkpt><trkpt lat="40.2725066" lon="15.6560452"><ele>494.0</ele><time>2026-05-03T14:09:57.588Z</time></trkpt><trkpt lat="40.2727714" lon="15.6559426"><ele>494.0</ele><time>2026-05-03T14:09:58.587Z</time></trkpt><trkpt lat="40.2730369" lon="15.6558493"><ele>495.5</ele><time>2026-05-03T14:09:59.578Z</time></trkpt><trkpt lat="40.273301" lon="15.6557457"><ele>497.0</ele><time>2026-05-03T14:10:00.549Z</time></trkpt><trkpt lat="40.2735676" lon="15.6556373"><ele>497.0</ele><time>2026-05-03T14:10:01.559Z</time></trkpt><trkpt lat="40.2738438" lon="15.6555182"><ele>497.0</ele><time>2026-05-03T14:10:02.557Z</time></trkpt><trkpt lat="40.2741232" lon="15.6554125"><ele>497.5</ele><time>2026-05-03T14:10:03.546Z</time></trkpt><trkpt lat="40.2744063" lon="15.6553061"><ele>498.0</ele><time>2026-05-03T14:10:04.571Z</time></trkpt><trkpt lat="40.2746915" lon="15.6552038"><ele>494.5</ele><time>2026-05-03T14:10:05.569Z</time></trkpt><trkpt lat="40.2749812" lon="15.655097"><ele>491.0</ele><time>2026-05-03T14:10:06.556Z</time></trkpt><trkpt lat="40.2752741" lon="15.6549901"><ele>491.0</ele><time>2026-05-03T14:10:07.551Z</time></trkpt><trkpt lat="40.2755617" lon="15.6548799"><ele>491.0</ele><time>2026-05-03T14:10:08.555Z</time></trkpt><trkpt lat="40.2758572" lon="15.6547708"><ele>491.5</ele><time>2026-05-03T14:10:09.557Z</time></trkpt><trkpt lat="40.2761521" lon="15.6546587"><ele>492.0</ele><time>2026-05-03T14:10:10.562Z</time></trkpt><trkpt lat="40.2764425" lon="15.6545446"><ele>490.5</ele><time>2026-05-03T14:10:11.561Z</time></trkpt><trkpt lat="40.2767341" lon="15.654429"><ele>489.0</ele><time>2026-05-03T14:10:12.565Z</time></trkpt><trkpt lat="40.2770258" lon="15.6543129"><ele>491.5</ele><time>2026-05-03T14:10:13.578Z</time></trkpt><trkpt lat="40.2773175" lon="15.654204"><ele>494.0</ele><time>2026-05-03T14:10:14.578Z</time></trkpt><trkpt lat="40.2776039" lon="15.6540978"><ele>494.0</ele><time>2026-05-03T14:10:15.587Z</time></trkpt><trkpt lat="40.2778836" lon="15.6539901"><ele>494.0</ele><time>2026-05-03T14:10:16.59Z</time></trkpt><trkpt lat="40.2781648" lon="15.653878"><ele>497.5</ele><time>2026-05-03T14:10:17.594Z</time></trkpt><trkpt lat="40.2784422" lon="15.6537636"><ele>501.0</ele><time>2026-05-03T14:10:18.579Z</time></trkpt><trkpt lat="40.2787209" lon="15.6536481"><ele>495.0</ele><time>2026-05-03T14:10:19.567Z</time></trkpt><trkpt lat="40.2789955" lon="15.6535353"><ele>489.0</ele><time>2026-05-03T14:10:20.565Z</time></trkpt><trkpt lat="40.2792768" lon="15.6534229"><ele>489.0</ele><time>2026-05-03T14:10:21.572Z</time></trkpt><trkpt lat="40.279556" lon="15.6533112"><ele>489.0</ele><time>2026-05-03T14:10:22.578Z</time></trkpt><trkpt lat="40.2798424" lon="15.6532047"><ele>490.5</ele><time>2026-05-03T14:10:23.567Z</time></trkpt><trkpt lat="40.2801243" lon="15.6530964"><ele>492.0</ele><time>2026-05-03T14:10:24.576Z</time></trkpt><trkpt lat="40.2804113" lon="15.6529825"><ele>491.5</ele><time>2026-05-03T14:10:25.559Z</time></trkpt><trkpt lat="40.2807029" lon="15.6528707"><ele>491.0</ele><time>2026-05-03T14:10:26.564Z</time></trkpt><trkpt lat="40.2809971" lon="15.6527641"><ele>489.5</ele><time>2026-05-03T14:10:27.586Z</time></trkpt><trkpt lat="40.2812929" lon="15.6526532"><ele>488.0</ele><time>2026-05-03T14:10:28.58Z</time></trkpt><trkpt lat="40.2815846" lon="15.6525428"><ele>488.0</ele><time>2026-05-03T14:10:29.566Z</time></trkpt><trkpt lat="40.2818757" lon="15.6524337"><ele>488.0</ele><time>2026-05-03T14:10:30.592Z</time></trkpt><trkpt lat="40.2821628" lon="15.6523232"><ele>487.5</ele><time>2026-05-03T14:10:31.576Z</time></trkpt><trkpt lat="40.2824505" lon="15.6522096"><ele>487.0</ele><time>2026-05-03T14:10:32.569Z</time></trkpt><trkpt lat="40.2827361" lon="15.6521016"><ele>487.0</ele><time>2026-05-03T14:10:33.57Z</time></trkpt><trkpt lat="40.2830227" lon="15.6519972"><ele>487.0</ele><time>2026-05-03T14:10:34.578Z</time></trkpt><trkpt lat="40.2833066" lon="15.6518941"><ele>485.5</ele><time>2026-05-03T14:10:35.582Z</time></trkpt><trkpt lat="40.2835885" lon="15.6517899"><ele>484.0</ele><time>2026-05-03T14:10:36.579Z</time></trkpt><trkpt lat="40.283875" lon="15.6516813"><ele>484.0</ele><time>2026-05-03T14:10:37.587Z</time></trkpt><trkpt lat="40.2841593" lon="15.6515729"><ele>484.0</ele><time>2026-05-03T14:10:38.593Z</time></trkpt><trkpt lat="40.2844449" lon="15.651461"><ele>484.0</ele><time>2026-05-03T14:10:39.574Z</time></trkpt><trkpt lat="40.2847335" lon="15.6513506"><ele>484.0</ele><time>2026-05-03T14:10:40.547Z</time></trkpt><trkpt lat="40.2850224" lon="15.6512387"><ele>484.5</ele><time>2026-05-03T14:10:41.566Z</time></trkpt><trkpt lat="40.2853091" lon="15.651127"><ele>485.0</ele><time>2026-05-03T14:10:42.574Z</time></trkpt><trkpt lat="40.2856002" lon="15.6510168"><ele>483.0</ele><time>2026-05-03T14:10:43.582Z</time></trkpt><trkpt lat="40.2858908" lon="15.6509094"><ele>481.0</ele><time>2026-05-03T14:10:44.571Z</time></trkpt><trkpt lat="40.2861796" lon="15.6508002"><ele>481.5</ele><time>2026-05-03T14:10:45.573Z</time></trkpt><trkpt lat="40.2864628" lon="15.6506915"><ele>482.0</ele><time>2026-05-03T14:10:46.568Z</time></trkpt><trkpt lat="40.2867444" lon="15.6505797"><ele>482.0</ele><time>2026-05-03T14:10:47.578Z</time></trkpt><trkpt lat="40.2870229" lon="15.6504713"><ele>482.0</ele><time>2026-05-03T14:10:48.582Z</time></trkpt><trkpt lat="40.2872982" lon="15.6503674"><ele>482.0</ele><time>2026-05-03T14:10:49.567Z</time></trkpt><trkpt lat="40.2875809" lon="15.6502645"><ele>482.0</ele><time>2026-05-03T14:10:50.589Z</time></trkpt><trkpt lat="40.2878591" lon="15.6501604"><ele>482.0</ele><time>2026-05-03T14:10:51.576Z</time></trkpt><trkpt lat="40.2881402" lon="15.6500549"><ele>482.0</ele><time>2026-05-03T14:10:52.576Z</time></trkpt><trkpt lat="40.2884194" lon="15.649941"><ele>482.0</ele><time>2026-05-03T14:10:53.578Z</time></trkpt><trkpt lat="40.2886997" lon="15.649833"><ele>482.0</ele><time>2026-05-03T14:10:54.584Z</time></trkpt><trkpt lat="40.2889774" lon="15.6497297"><ele>480.0</ele><time>2026-05-03T14:10:55.585Z</time></trkpt><trkpt lat="40.2892543" lon="15.6496269"><ele>478.0</ele><time>2026-05-03T14:10:56.587Z</time></trkpt><trkpt lat="40.2895268" lon="15.6495214"><ele>478.0</ele><time>2026-05-03T14:10:57.584Z</time></trkpt><trkpt lat="40.2897882" lon="15.6494233"><ele>478.0</ele><time>2026-05-03T14:10:58.588Z</time></trkpt><trkpt lat="40.2900412" lon="15.6493395"><ele>478.0</ele><time>2026-05-03T14:10:59.575Z</time></trkpt><trkpt lat="40.290291" lon="15.6492623"><ele>478.0</ele><time>2026-05-03T14:11:00.557Z</time></trkpt><trkpt lat="40.2905439" lon="15.6491974"><ele>478.0</ele><time>2026-05-03T14:11:01.574Z</time></trkpt><trkpt lat="40.2907953" lon="15.6491366"><ele>478.0</ele><time>2026-05-03T14:11:02.568Z</time></trkpt><trkpt lat="40.2910509" lon="15.6490769"><ele>478.0</ele><time>2026-05-03T14:11:03.584Z</time></trkpt><trkpt lat="40.2913065" lon="15.6490227"><ele>478.0</ele><time>2026-05-03T14:11:04.586Z</time></trkpt><trkpt lat="40.2915629" lon="15.6489716"><ele>478.5</ele><time>2026-05-03T14:11:05.594Z</time></trkpt><trkpt lat="40.2918196" lon="15.6489247"><ele>479.0</ele><time>2026-05-03T14:11:06.584Z</time></trkpt><trkpt lat="40.292081" lon="15.6488627"><ele>480.0</ele><time>2026-05-03T14:11:07.586Z</time></trkpt><trkpt lat="40.2923471" lon="15.6487991"><ele>481.0</ele><time>2026-05-03T14:11:08.57Z</time></trkpt><trkpt lat="40.2926121" lon="15.6487432"><ele>481.0</ele><time>2026-05-03T14:11:09.578Z</time></trkpt><trkpt lat="40.292881" lon="15.648695"><ele>481.0</ele><time>2026-05-03T14:11:10.578Z</time></trkpt><trkpt lat="40.2931522" lon="15.6486413"><ele>480.5</ele><time>2026-05-03T14:11:11.558Z</time></trkpt><trkpt lat="40.2934287" lon="15.6485793"><ele>480.0</ele><time>2026-05-03T14:11:12.546Z</time></trkpt><trkpt lat="40.2937023" lon="15.6485261"><ele>480.5</ele><time>2026-05-03T14:11:13.567Z</time></trkpt><trkpt lat="40.2939787" lon="15.6484709"><ele>481.0</ele><time>2026-05-03T14:11:14.557Z</time></trkpt><trkpt lat="40.2942554" lon="15.6484108"><ele>481.0</ele><time>2026-05-03T14:11:15.567Z</time></trkpt><trkpt lat="40.2945291" lon="15.6483504"><ele>481.0</ele><time>2026-05-03T14:11:16.55Z</time></trkpt><trkpt lat="40.2948051" lon="15.6482918"><ele>481.0</ele><time>2026-05-03T14:11:17.559Z</time></trkpt><trkpt lat="40.2950734" lon="15.6482362"><ele>481.0</ele><time>2026-05-03T14:11:18.58Z</time></trkpt><trkpt lat="40.2953224" lon="15.6481951"><ele>481.0</ele><time>2026-05-03T14:11:19.571Z</time></trkpt><trkpt lat="40.2955423" lon="15.6481406"><ele>481.0</ele><time>2026-05-03T14:11:20.571Z</time></trkpt><trkpt lat="40.2957507" lon="15.6481019"><ele>481.0</ele><time>2026-05-03T14:11:21.581Z</time></trkpt><trkpt lat="40.2959438" lon="15.648066"><ele>480.6666666666667</ele><time>2026-05-03T14:11:22.582Z</time></trkpt><trkpt lat="40.2961256" lon="15.6480312"><ele>480.33333333333337</ele><time>2026-05-03T14:11:23.579Z</time></trkpt><trkpt lat="40.2962942" lon="15.6479997"><ele>480.0</ele><time>2026-05-03T14:11:24.589Z</time></trkpt><trkpt lat="40.2964507" lon="15.647976"><ele>480.0</ele><time>2026-05-03T14:11:25.571Z</time></trkpt><trkpt lat="40.2965915" lon="15.6479573"><ele>480.0</ele><time>2026-05-03T14:11:26.583Z</time></trkpt><trkpt lat="40.2967149" lon="15.647933"><ele>480.0</ele><time>2026-05-03T14:11:27.582Z</time></trkpt><trkpt lat="40.2968299" lon="15.6479036"><ele>480.0</ele><time>2026-05-03T14:11:28.561Z</time></trkpt><trkpt lat="40.2969366" lon="15.6478819"><ele>480.0</ele><time>2026-05-03T14:11:29.589Z</time></trkpt><trkpt lat="40.29703" lon="15.6478688"><ele>480.0</ele><time>2026-05-03T14:11:30.573Z</time></trkpt><trkpt lat="40.2971197" lon="15.6478895"><ele>480.0</ele><time>2026-05-03T14:11:31.574Z</time></trkpt><trkpt lat="40.2972005" lon="15.6479273"><ele>480.0</ele><time>2026-05-03T14:11:32.579Z</time></trkpt><trkpt lat="40.2972835" lon="15.6479909"><ele>480.0</ele><time>2026-05-03T14:11:33.565Z</time></trkpt><trkpt lat="40.297361" lon="15.6480671"><ele>479.5</ele><time>2026-05-03T14:11:34.598Z</time></trkpt><trkpt lat="40.2974341" lon="15.6481727"><ele>479.0</ele><time>2026-05-03T14:11:35.582Z</time></trkpt><trkpt lat="40.2974914" lon="15.6483134"><ele>478.5</ele><time>2026-05-03T14:11:36.559Z</time></trkpt><trkpt lat="40.2975535" lon="15.6484466"><ele>478.0</ele><time>2026-05-03T14:11:37.58Z</time></trkpt><trkpt lat="40.2976398" lon="15.6485584"><ele>478.0</ele><time>2026-05-03T14:11:38.573Z</time></trkpt><trkpt lat="40.2977518" lon="15.6486393"><ele>478.0</ele><time>2026-05-03T14:11:39.574Z</time></trkpt><trkpt lat="40.2978806" lon="15.6486741"><ele>478.0</ele><time>2026-05-03T14:11:40.584Z</time></trkpt><trkpt lat="40.2980003" lon="15.6486669"><ele>478.0</ele><time>2026-05-03T14:11:41.581Z</time></trkpt><trkpt lat="40.2981151" lon="15.6486021"><ele>477.75</ele><time>2026-05-03T14:11:42.573Z</time></trkpt><trkpt lat="40.2982145" lon="15.6484971"><ele>477.5</ele><time>2026-05-03T14:11:43.581Z</time></trkpt><trkpt lat="40.2982936" lon="15.6483518"><ele>477.25</ele><time>2026-05-03T14:11:44.568Z</time></trkpt><trkpt lat="40.2983454" lon="15.6481521"><ele>477.0</ele><time>2026-05-03T14:11:45.58Z</time></trkpt><trkpt lat="40.2983914" lon="15.6479441"><ele>477.0</ele><time>2026-05-03T14:11:46.587Z</time></trkpt><trkpt lat="40.2984401" lon="15.6477254"><ele>477.0</ele><time>2026-05-03T14:11:47.569Z</time></trkpt><trkpt lat="40.2984834" lon="15.6475163"><ele>477.0</ele><time>2026-05-03T14:11:48.568Z</time></trkpt><trkpt lat="40.2985331" lon="15.6473081"><ele>477.0</ele><time>2026-05-03T14:11:49.567Z</time></trkpt><trkpt lat="40.2985814" lon="15.6470887"><ele>477.0</ele><time>2026-05-03T14:11:50.568Z</time></trkpt><trkpt lat="40.2986279" lon="15.6469107"><ele>477.0</ele><time>2026-05-03T14:11:51.567Z</time></trkpt><trkpt lat="40.2986745" lon="15.6467597"><ele>477.0</ele><time>2026-05-03T14:11:52.566Z</time></trkpt><trkpt lat="40.2987305" lon="15.6466214"><ele>477.0</ele><time>2026-05-03T14:11:53.564Z</time></trkpt><trkpt lat="40.2987929" lon="15.6464904"><ele>477.0</ele><time>2026-05-03T14:11:54.572Z</time></trkpt><trkpt lat="40.2988687" lon="15.6463587"><ele>477.0</ele><time>2026-05-03T14:11:55.572Z</time></trkpt><trkpt lat="40.2989506" lon="15.646236"><ele>477.0</ele><time>2026-05-03T14:11:56.578Z</time></trkpt><trkpt lat="40.2990365" lon="15.6461283"><ele>476.6666666666667</ele><time>2026-05-03T14:11:57.576Z</time></trkpt><trkpt lat="40.2991087" lon="15.6460471"><ele>476.33333333333337</ele><time>2026-05-03T14:11:58.576Z</time></trkpt><trkpt lat="40.2991654" lon="15.6459761"><ele>476.0</ele><time>2026-05-03T14:11:59.562Z</time></trkpt><trkpt lat="40.2992234" lon="15.6459089"><ele>475.6666666666667</ele><time>2026-05-03T14:12:00.572Z</time></trkpt><trkpt lat="40.2992869" lon="15.6458418"><ele>475.33333333333337</ele><time>2026-05-03T14:12:01.567Z</time></trkpt><trkpt lat="40.2993484" lon="15.6457721"><ele>475.0</ele><time>2026-05-03T14:12:02.571Z</time></trkpt><trkpt lat="40.2993933" lon="15.6456947"><ele>475.00000000000006</ele><time>2026-05-03T14:12:03.572Z</time></trkpt><trkpt lat="40.2994319" lon="15.6456107"><ele>475.0</ele><time>2026-05-03T14:12:04.577Z</time></trkpt><trkpt lat="40.2994636" lon="15.6455158"><ele>475.0</ele><time>2026-05-03T14:12:05.576Z</time></trkpt><trkpt lat="40.2994879" lon="15.6454062"><ele>475.0</ele><time>2026-05-03T14:12:06.572Z</time></trkpt><trkpt lat="40.2995052" lon="15.645291"><ele>475.00000000000006</ele><time>2026-05-03T14:12:07.581Z</time></trkpt><trkpt lat="40.2995103" lon="15.645192"><ele>475.0</ele><time>2026-05-03T14:12:08.566Z</time></trkpt><trkpt lat="40.2995061" lon="15.6451026"><ele>475.00000000000006</ele><time>2026-05-03T14:12:09.574Z</time></trkpt><trkpt lat="40.2994853" lon="15.6449794"><ele>475.0</ele><time>2026-05-03T14:12:11.567Z</time></trkpt><trkpt lat="40.2994591" lon="15.6448842"><ele>475.0</ele><time>2026-05-03T14:12:14.583Z</time></trkpt><trkpt lat="40.2993786" lon="15.644832"><ele>475.0</ele><time>2026-05-03T14:12:27.58Z</time></trkpt><trkpt lat="40.2993002" lon="15.6448436"><ele>475.00000000000006</ele><time>2026-05-03T14:12:29.561Z</time></trkpt><trkpt lat="40.2992428" lon="15.6448842"><ele>475.0</ele><time>2026-05-03T14:12:30.581Z</time></trkpt><trkpt lat="40.2991596" lon="15.6449571"><ele>475.0</ele><time>2026-05-03T14:12:31.585Z</time></trkpt><trkpt lat="40.2990636" lon="15.645056"><ele>475.0</ele><time>2026-05-03T14:12:32.571Z</time></trkpt><trkpt lat="40.2989602" lon="15.6451686"><ele>475.0</ele><time>2026-05-03T14:12:33.588Z</time></trkpt><trkpt lat="40.298853" lon="15.6452967"><ele>475.0</ele><time>2026-05-03T14:12:34.576Z</time></trkpt><trkpt lat="40.2987338" lon="15.6454476"><ele>475.33333333333337</ele><time>2026-05-03T14:12:35.571Z</time></trkpt><trkpt lat="40.2986054" lon="15.6456022"><ele>475.66666666666663</ele><time>2026-05-03T14:12:36.592Z</time></trkpt><trkpt lat="40.2984723" lon="15.6457522"><ele>476.0</ele><time>2026-05-03T14:12:37.586Z</time></trkpt><trkpt lat="40.2983424" lon="15.6458897"><ele>476.0</ele><time>2026-05-03T14:12:38.577Z</time></trkpt><trkpt lat="40.298223" lon="15.6460192"><ele>476.0</ele><time>2026-05-03T14:12:39.573Z</time></trkpt><trkpt lat="40.298117" lon="15.6461414"><ele>476.0</ele><time>2026-05-03T14:12:40.587Z</time></trkpt><trkpt lat="40.2980169" lon="15.6462645"><ele>476.0</ele><time>2026-05-03T14:12:41.582Z</time></trkpt><trkpt lat="40.2979168" lon="15.6463926"><ele>476.5</ele><time>2026-05-03T14:12:42.563Z</time></trkpt><trkpt lat="40.2978054" lon="15.6465065"><ele>477.0</ele><time>2026-05-03T14:12:43.59Z</time></trkpt><trkpt lat="40.2976823" lon="15.6465912"><ele>477.5</ele><time>2026-05-03T14:12:44.585Z</time></trkpt><trkpt lat="40.297554" lon="15.6466571"><ele>478.0</ele><time>2026-05-03T14:12:45.569Z</time></trkpt><trkpt lat="40.2974095" lon="15.6466981"><ele>478.0</ele><time>2026-05-03T14:12:46.575Z</time></trkpt><trkpt lat="40.297259" lon="15.6467366"><ele>478.0</ele><time>2026-05-03T14:12:47.582Z</time></trkpt><trkpt lat="40.2971127" lon="15.6467866"><ele>478.0</ele><time>2026-05-03T14:12:48.575Z</time></trkpt><trkpt lat="40.2969619" lon="15.6468301"><ele>478.0</ele><time>2026-05-03T14:12:49.567Z</time></trkpt><trkpt lat="40.2968191" lon="15.6468695"><ele>478.0</ele><time>2026-05-03T14:12:50.572Z</time></trkpt><trkpt lat="40.2966894" lon="15.6468986"><ele>478.0</ele><time>2026-05-03T14:12:51.555Z</time></trkpt><trkpt lat="40.2965636" lon="15.6469162"><ele>478.0</ele><time>2026-05-03T14:12:52.562Z</time></trkpt><trkpt lat="40.2964314" lon="15.6469012"><ele>477.75</ele><time>2026-05-03T14:12:53.569Z</time></trkpt><trkpt lat="40.2962958" lon="15.6468661"><ele>477.5</ele><time>2026-05-03T14:12:54.566Z</time></trkpt><trkpt lat="40.2961589" lon="15.6468053"><ele>477.25</ele><time>2026-05-03T14:12:55.556Z</time></trkpt><trkpt lat="40.2960266" lon="15.6467121"><ele>477.0</ele><time>2026-05-03T14:12:56.559Z</time></trkpt><trkpt lat="40.2958948" lon="15.6465988"><ele>477.0</ele><time>2026-05-03T14:12:57.552Z</time></trkpt><trkpt lat="40.2957576" lon="15.6464885"><ele>477.0</ele><time>2026-05-03T14:12:58.561Z</time></trkpt><trkpt lat="40.2956162" lon="15.6463687"><ele>477.0</ele><time>2026-05-03T14:12:59.552Z</time></trkpt><trkpt lat="40.2954764" lon="15.6462412"><ele>477.33333333333337</ele><time>2026-05-03T14:13:00.563Z</time></trkpt><trkpt lat="40.2953336" lon="15.6461138"><ele>477.6666666666667</ele><time>2026-05-03T14:13:01.573Z</time></trkpt><trkpt lat="40.2951884" lon="15.6459788"><ele>478.0</ele><time>2026-05-03T14:13:02.585Z</time></trkpt><trkpt lat="40.2950401" lon="15.6458462"><ele>478.0</ele><time>2026-05-03T14:13:03.576Z</time></trkpt><trkpt lat="40.2948914" lon="15.645706"><ele>478.0</ele><time>2026-05-03T14:13:04.576Z</time></trkpt><trkpt lat="40.294742" lon="15.6455684"><ele>478.0</ele><time>2026-05-03T14:13:05.569Z</time></trkpt><trkpt lat="40.294592" lon="15.6454343"><ele>478.0</ele><time>2026-05-03T14:13:06.586Z</time></trkpt><trkpt lat="40.2944394" lon="15.645302"><ele>478.0</ele><time>2026-05-03T14:13:07.587Z</time></trkpt><trkpt lat="40.2942889" lon="15.6451674"><ele>478.0</ele><time>2026-05-03T14:13:08.574Z</time></trkpt><trkpt lat="40.2941355" lon="15.6450292"><ele>478.0</ele><time>2026-05-03T14:13:09.576Z</time></trkpt><trkpt lat="40.2939871" lon="15.6448953"><ele>478.0</ele><time>2026-05-03T14:13:10.579Z</time></trkpt><trkpt lat="40.293844" lon="15.64477"><ele>478.0</ele><time>2026-05-03T14:13:11.565Z</time></trkpt><trkpt lat="40.2937047" lon="15.6446481"><ele>478.33333333333337</ele><time>2026-05-03T14:13:12.572Z</time></trkpt><trkpt lat="40.2935739" lon="15.644529"><ele>478.66666666666663</ele><time>2026-05-03T14:13:13.563Z</time></trkpt><trkpt lat="40.2934413" lon="15.644413"><ele>479.0</ele><time>2026-05-03T14:13:14.569Z</time></trkpt><trkpt lat="40.2933081" lon="15.6442903"><ele>479.3333333333333</ele><time>2026-05-03T14:13:15.585Z</time></trkpt><trkpt lat="40.2931732" lon="15.6441651"><ele>479.66666666666663</ele><time>2026-05-03T14:13:16.6Z</time></trkpt><trkpt lat="40.2930375" lon="15.6440386"><ele>480.0</ele><time>2026-05-03T14:13:17.581Z</time></trkpt><trkpt lat="40.2928984" lon="15.6439116"><ele>480.0</ele><time>2026-05-03T14:13:18.573Z</time></trkpt><trkpt lat="40.2927572" lon="15.6437836"><ele>480.0</ele><time>2026-05-03T14:13:19.579Z</time></trkpt><trkpt lat="40.2926129" lon="15.6436568"><ele>480.0</ele><time>2026-05-03T14:13:20.578Z</time></trkpt><trkpt lat="40.2924749" lon="15.6435308"><ele>479.33333333333337</ele><time>2026-05-03T14:13:21.583Z</time></trkpt><trkpt lat="40.292328" lon="15.64341"><ele>478.6666666666667</ele><time>2026-05-03T14:13:22.586Z</time></trkpt><trkpt lat="40.2921703" lon="15.6432883"><ele>478.0</ele><time>2026-05-03T14:13:23.591Z</time></trkpt><trkpt lat="40.2920091" lon="15.6431546"><ele>478.0</ele><time>2026-05-03T14:13:24.562Z</time></trkpt><trkpt lat="40.2918474" lon="15.6430145"><ele>478.0</ele><time>2026-05-03T14:13:25.581Z</time></trkpt><trkpt lat="40.2916866" lon="15.6428659"><ele>478.0</ele><time>2026-05-03T14:13:26.58Z</time></trkpt><trkpt lat="40.291525" lon="15.6427151"><ele>478.6666666666667</ele><time>2026-05-03T14:13:27.558Z</time></trkpt><trkpt lat="40.291362" lon="15.6425679"><ele>479.33333333333337</ele><time>2026-05-03T14:13:28.554Z</time></trkpt><trkpt lat="40.2911991" lon="15.6424234"><ele>480.0</ele><time>2026-05-03T14:13:29.579Z</time></trkpt><trkpt lat="40.2910371" lon="15.6422774"><ele>480.0</ele><time>2026-05-03T14:13:30.583Z</time></trkpt><trkpt lat="40.2908785" lon="15.6421272"><ele>480.0</ele><time>2026-05-03T14:13:31.559Z</time></trkpt><trkpt lat="40.2907153" lon="15.641973"><ele>480.0</ele><time>2026-05-03T14:13:32.569Z</time></trkpt><trkpt lat="40.2905508" lon="15.6418236"><ele>480.0</ele><time>2026-05-03T14:13:33.587Z</time></trkpt><trkpt lat="40.2903869" lon="15.641673"><ele>480.0</ele><time>2026-05-03T14:13:34.575Z</time></trkpt><trkpt lat="40.29022" lon="15.6415216"><ele>480.0</ele><time>2026-05-03T14:13:35.577Z</time></trkpt><trkpt lat="40.2900564" lon="15.6413728"><ele>480.0</ele><time>2026-05-03T14:13:36.578Z</time></trkpt><trkpt lat="40.289889" lon="15.6412262"><ele>480.0</ele><time>2026-05-03T14:13:37.579Z</time></trkpt><trkpt lat="40.2897254" lon="15.6410823"><ele>480.0</ele><time>2026-05-03T14:13:38.592Z</time></trkpt><trkpt lat="40.2895657" lon="15.6409401"><ele>480.33333333333337</ele><time>2026-05-03T14:13:39.581Z</time></trkpt><trkpt lat="40.2894041" lon="15.6407925"><ele>480.6666666666667</ele><time>2026-05-03T14:13:40.582Z</time></trkpt><trkpt lat="40.2892436" lon="15.6406462"><ele>481.0</ele><time>2026-05-03T14:13:41.583Z</time></trkpt><trkpt lat="40.2890812" lon="15.6405047"><ele>481.0</ele><time>2026-05-03T14:13:42.591Z</time></trkpt><trkpt lat="40.2889195" lon="15.6403632"><ele>481.0</ele><time>2026-05-03T14:13:43.583Z</time></trkpt><trkpt lat="40.2887608" lon="15.6402204"><ele>481.0</ele><time>2026-05-03T14:13:44.575Z</time></trkpt><trkpt lat="40.2885982" lon="15.640077"><ele>481.0</ele><time>2026-05-03T14:13:45.574Z</time></trkpt><trkpt lat="40.2884307" lon="15.6399292"><ele>481.0</ele><time>2026-05-03T14:13:46.574Z</time></trkpt><trkpt lat="40.2882664" lon="15.6397793"><ele>481.0</ele><time>2026-05-03T14:13:47.578Z</time></trkpt><trkpt lat="40.2880982" lon="15.6396244"><ele>481.0</ele><time>2026-05-03T14:13:48.556Z</time></trkpt><trkpt lat="40.2879266" lon="15.6394713"><ele>481.0</ele><time>2026-05-03T14:13:49.561Z</time></trkpt><trkpt lat="40.2877577" lon="15.6393204"><ele>481.0</ele><time>2026-05-03T14:13:50.563Z</time></trkpt><trkpt lat="40.2875926" lon="15.639175"><ele>481.0</ele><time>2026-05-03T14:13:51.569Z</time></trkpt><trkpt lat="40.2874427" lon="15.6390349"><ele>481.0</ele><time>2026-05-03T14:13:52.573Z</time></trkpt><trkpt lat="40.2872965" lon="15.6388995"><ele>481.0</ele><time>2026-05-03T14:13:53.576Z</time></trkpt><trkpt lat="40.2871582" lon="15.6387659"><ele>481.33333333333337</ele><time>2026-05-03T14:13:54.58Z</time></trkpt><trkpt lat="40.2870264" lon="15.6386426"><ele>481.66666666666663</ele><time>2026-05-03T14:13:55.568Z</time></trkpt><trkpt lat="40.2869056" lon="15.6385147"><ele>482.0</ele><time>2026-05-03T14:13:56.585Z</time></trkpt><trkpt lat="40.2867998" lon="15.6383866"><ele>482.0</ele><time>2026-05-03T14:13:57.57Z</time></trkpt><trkpt lat="40.2867151" lon="15.6382658"><ele>482.00000000000006</ele><time>2026-05-03T14:13:58.573Z</time></trkpt><trkpt lat="40.2866449" lon="15.6381498"><ele>482.00000000000006</ele><time>2026-05-03T14:13:59.568Z</time></trkpt><trkpt lat="40.286581" lon="15.6380441"><ele>482.0</ele><time>2026-05-03T14:14:00.565Z</time></trkpt><trkpt lat="40.2865253" lon="15.637943"><ele>482.0</ele><time>2026-05-03T14:14:01.577Z</time></trkpt><trkpt lat="40.2864689" lon="15.637841"><ele>482.0</ele><time>2026-05-03T14:14:02.565Z</time></trkpt><trkpt lat="40.2864204" lon="15.6377414"><ele>482.00000000000006</ele><time>2026-05-03T14:14:03.566Z</time></trkpt><trkpt lat="40.2863795" lon="15.63765"><ele>482.00000000000006</ele><time>2026-05-03T14:14:04.58Z</time></trkpt><trkpt lat="40.286337" lon="15.6375515"><ele>482.0</ele><time>2026-05-03T14:14:05.581Z</time></trkpt><trkpt lat="40.2862911" lon="15.6374327"><ele>482.0</ele><time>2026-05-03T14:14:06.565Z</time></trkpt><trkpt lat="40.2862381" lon="15.6373049"><ele>482.0</ele><time>2026-05-03T14:14:07.568Z</time></trkpt><trkpt lat="40.2861777" lon="15.6371574"><ele>482.0</ele><time>2026-05-03T14:14:08.56Z</time></trkpt><trkpt lat="40.2861169" lon="15.6370061"><ele>482.0</ele><time>2026-05-03T14:14:09.545Z</time></trkpt><trkpt lat="40.2860384" lon="15.6368476"><ele>482.0</ele><time>2026-05-03T14:14:10.561Z</time></trkpt><trkpt lat="40.2859512" lon="15.6367013"><ele>482.0</ele><time>2026-05-03T14:14:11.572Z</time></trkpt><trkpt lat="40.2858608" lon="15.6365855"><ele>482.00000000000006</ele><time>2026-05-03T14:14:12.578Z</time></trkpt><trkpt lat="40.2857811" lon="15.6364934"><ele>482.00000000000006</ele><time>2026-05-03T14:14:13.566Z</time></trkpt><trkpt lat="40.2857298" lon="15.6364071"><ele>482.0</ele><time>2026-05-03T14:14:14.572Z</time></trkpt><trkpt lat="40.2856887" lon="15.6363288"><ele>482.0</ele><time>2026-05-03T14:14:15.585Z</time></trkpt><trkpt lat="40.2856579" lon="15.6362519"><ele>482.66666666666663</ele><time>2026-05-03T14:14:16.571Z</time></trkpt><trkpt lat="40.2856172" lon="15.6360898"><ele>483.3333333333333</ele><time>2026-05-03T14:14:18.563Z</time></trkpt><trkpt lat="40.2855659" lon="15.6360086"><ele>484.0</ele><time>2026-05-03T14:14:19.567Z</time></trkpt><trkpt lat="40.285517" lon="15.6359472"><ele>484.66666666666663</ele><time>2026-05-03T14:14:20.574Z</time></trkpt><trkpt lat="40.2854595" lon="15.6358815"><ele>485.3333333333333</ele><time>2026-05-03T14:14:22.578Z</time></trkpt><trkpt lat="40.2854064" lon="15.6358367"><ele>486.0</ele><time>2026-05-03T14:14:24.587Z</time></trkpt><trkpt lat="40.2853437" lon="15.6357695"><ele>486.3333333333333</ele><time>2026-05-03T14:14:26.583Z</time></trkpt><trkpt lat="40.2852691" lon="15.6356953"><ele>486.66666666666663</ele><time>2026-05-03T14:14:28.584Z</time></trkpt><trkpt lat="40.2852131" lon="15.6356534"><ele>487.0</ele><time>2026-05-03T14:14:30.572Z</time></trkpt><trkpt lat="40.285138" lon="15.6356006"><ele>487.3333333333333</ele><time>2026-05-03T14:14:32.55Z</time></trkpt><trkpt lat="40.2850709" lon="15.6355676"><ele>487.66666666666663</ele><time>2026-05-03T14:14:33.559Z</time></trkpt><trkpt lat="40.2849876" lon="15.6355345"><ele>488.0</ele><time>2026-05-03T14:14:34.574Z</time></trkpt><trkpt lat="40.2848849" lon="15.6354904"><ele>488.0</ele><time>2026-05-03T14:14:35.578Z</time></trkpt><trkpt lat="40.2847709" lon="15.6354472"><ele>487.99999999999994</ele><time>2026-05-03T14:14:36.582Z</time></trkpt><trkpt lat="40.2846691" lon="15.6353981"><ele>487.99999999999994</ele><time>2026-05-03T14:14:37.584Z</time></trkpt><trkpt lat="40.2845674" lon="15.6353463"><ele>488.0</ele><time>2026-05-03T14:14:38.583Z</time></trkpt><trkpt lat="40.2844697" lon="15.6352841"><ele>488.0</ele><time>2026-05-03T14:14:39.576Z</time></trkpt><trkpt lat="40.2843792" lon="15.6352106"><ele>489.0</ele><time>2026-05-03T14:14:40.579Z</time></trkpt><trkpt lat="40.2842997" lon="15.6351266"><ele>489.99999999999994</ele><time>2026-05-03T14:14:41.566Z</time></trkpt><trkpt lat="40.2842193" lon="15.6350398"><ele>490.99999999999994</ele><time>2026-05-03T14:14:42.592Z</time></trkpt><trkpt lat="40.2841348" lon="15.6349558"><ele>492.0</ele><time>2026-05-03T14:14:43.54Z</time></trkpt><trkpt lat="40.2840511" lon="15.6348714"><ele>493.0</ele><time>2026-05-03T14:14:44.547Z</time></trkpt><trkpt lat="40.2839599" lon="15.6347903"><ele>492.79999999999995</ele><time>2026-05-03T14:14:45.545Z</time></trkpt><trkpt lat="40.2838667" lon="15.6347058"><ele>492.59999999999997</ele><time>2026-05-03T14:14:46.56Z</time></trkpt><trkpt lat="40.2837761" lon="15.6346218"><ele>492.40000000000003</ele><time>2026-05-03T14:14:47.587Z</time></trkpt><trkpt lat="40.2836836" lon="15.6345401"><ele>492.20000000000005</ele><time>2026-05-03T14:14:48.575Z</time></trkpt><trkpt lat="40.2835914" lon="15.6344643"><ele>492.0</ele><time>2026-05-03T14:14:49.555Z</time></trkpt><trkpt lat="40.2835025" lon="15.6343954"><ele>492.40000000000003</ele><time>2026-05-03T14:14:50.556Z</time></trkpt><trkpt lat="40.2834136" lon="15.6343275"><ele>492.80000000000007</ele><time>2026-05-03T14:14:51.556Z</time></trkpt><trkpt lat="40.2833197" lon="15.6342561"><ele>493.2</ele><time>2026-05-03T14:14:52.571Z</time></trkpt><trkpt lat="40.2832292" lon="15.6341794"><ele>493.6</ele><time>2026-05-03T14:14:53.565Z</time></trkpt><trkpt lat="40.2831415" lon="15.6341063"><ele>494.0</ele><time>2026-05-03T14:14:54.565Z</time></trkpt><trkpt lat="40.2830666" lon="15.6340428"><ele>494.3333333333333</ele><time>2026-05-03T14:14:55.586Z</time></trkpt><trkpt lat="40.2830093" lon="15.6339957"><ele>494.66666666666663</ele><time>2026-05-03T14:14:56.573Z</time></trkpt><trkpt lat="40.2829511" lon="15.6339395"><ele>495.0</ele><time>2026-05-03T14:14:58.581Z</time></trkpt><trkpt lat="40.282873" lon="15.6339233"><ele>495.33333333333337</ele><time>2026-05-03T14:15:55.572Z</time></trkpt><trkpt lat="40.282809" lon="15.633852"><ele>495.6666666666667</ele><time>2026-05-03T14:15:57.583Z</time></trkpt><trkpt lat="40.2827174" lon="15.6337402"><ele>496.0</ele><time>2026-05-03T14:15:59.566Z</time></trkpt><trkpt lat="40.2826487" lon="15.6336702"><ele>496.0</ele><time>2026-05-03T14:16:00.583Z</time></trkpt><trkpt lat="40.2825628" lon="15.6335882"><ele>496.0</ele><time>2026-05-03T14:16:01.585Z</time></trkpt><trkpt lat="40.2824666" lon="15.6334945"><ele>496.0</ele><time>2026-05-03T14:16:02.56Z</time></trkpt><trkpt lat="40.2823688" lon="15.6333833"><ele>496.0</ele><time>2026-05-03T14:16:03.575Z</time></trkpt><trkpt lat="40.2822712" lon="15.6332704"><ele>496.25</ele><time>2026-05-03T14:16:04.583Z</time></trkpt><trkpt lat="40.2821519" lon="15.6331722"><ele>496.5</ele><time>2026-05-03T14:16:05.586Z</time></trkpt><trkpt lat="40.2820228" lon="15.6330703"><ele>496.75</ele><time>2026-05-03T14:16:06.571Z</time></trkpt><trkpt lat="40.2819008" lon="15.6329702"><ele>497.0</ele><time>2026-05-03T14:16:07.576Z</time></trkpt><trkpt lat="40.2817827" lon="15.6328718"><ele>496.5</ele><time>2026-05-03T14:16:08.557Z</time></trkpt><trkpt lat="40.2816573" lon="15.6327728"><ele>496.0</ele><time>2026-05-03T14:16:09.575Z</time></trkpt><trkpt lat="40.2815338" lon="15.6326674"><ele>495.5</ele><time>2026-05-03T14:16:10.564Z</time></trkpt><trkpt lat="40.2814061" lon="15.6325666"><ele>495.0</ele><time>2026-05-03T14:16:11.563Z</time></trkpt><trkpt lat="40.2812819" lon="15.6324549"><ele>495.0</ele><time>2026-05-03T14:16:12.59Z</time></trkpt><trkpt lat="40.2811562" lon="15.6323286"><ele>495.0</ele><time>2026-05-03T14:16:13.553Z</time></trkpt><trkpt lat="40.2810353" lon="15.63219"><ele>495.0</ele><time>2026-05-03T14:16:14.552Z</time></trkpt><trkpt lat="40.2809149" lon="15.6320354"><ele>495.0</ele><time>2026-05-03T14:16:15.556Z</time></trkpt><trkpt lat="40.280795" lon="15.631869"><ele>495.0</ele><time>2026-05-03T14:16:16.544Z</time></trkpt><trkpt lat="40.2806759" lon="15.6316963"><ele>495.0</ele><time>2026-05-03T14:16:17.558Z</time></trkpt><trkpt lat="40.2805649" lon="15.6315207"><ele>495.0</ele><time>2026-05-03T14:16:18.553Z</time></trkpt><trkpt lat="40.2804578" lon="15.6313427"><ele>495.0</ele><time>2026-05-03T14:16:19.571Z</time></trkpt><trkpt lat="40.2803491" lon="15.6311564"><ele>495.0</ele><time>2026-05-03T14:16:20.569Z</time></trkpt><trkpt lat="40.2802295" lon="15.6309763"><ele>496.0</ele><time>2026-05-03T14:16:21.57Z</time></trkpt><trkpt lat="40.2801131" lon="15.6307909"><ele>497.0</ele><time>2026-05-03T14:16:22.564Z</time></trkpt><trkpt lat="40.2799994" lon="15.6306239"><ele>498.0</ele><time>2026-05-03T14:16:23.571Z</time></trkpt><trkpt lat="40.2798984" lon="15.6304668"><ele>498.0</ele><time>2026-05-03T14:16:24.568Z</time></trkpt><trkpt lat="40.2798017" lon="15.6303319"><ele>498.0</ele><time>2026-05-03T14:16:25.561Z</time></trkpt><trkpt lat="40.2797062" lon="15.6302041"><ele>498.0</ele><time>2026-05-03T14:16:26.567Z</time></trkpt><trkpt lat="40.2795983" lon="15.6300917"><ele>498.0</ele><time>2026-05-03T14:16:27.573Z</time></trkpt><trkpt lat="40.2794931" lon="15.6300022"><ele>497.6666666666667</ele><time>2026-05-03T14:16:28.565Z</time></trkpt><trkpt lat="40.2793931" lon="15.6299345"><ele>497.33333333333337</ele><time>2026-05-03T14:16:29.561Z</time></trkpt><trkpt lat="40.2793031" lon="15.6298742"><ele>497.0</ele><time>2026-05-03T14:16:30.569Z</time></trkpt><trkpt lat="40.2792221" lon="15.629834"><ele>496.6666666666667</ele><time>2026-05-03T14:16:31.559Z</time></trkpt><trkpt lat="40.279163" lon="15.6297933"><ele>496.33333333333337</ele><time>2026-05-03T14:16:32.572Z</time></trkpt><trkpt lat="40.2790951" lon="15.6297488"><ele>496.0</ele><time>2026-05-03T14:16:34.574Z</time></trkpt><trkpt lat="40.2790327" lon="15.6297255"><ele>496.0</ele><time>2026-05-03T14:17:58.566Z</time></trkpt><trkpt lat="40.2789583" lon="15.6296954"><ele>496.0</ele><time>2026-05-03T14:18:00.579Z</time></trkpt><trkpt lat="40.2788264" lon="15.6296285"><ele>496.0</ele><time>2026-05-03T14:18:02.593Z</time></trkpt><trkpt lat="40.2787345" lon="15.6295908"><ele>496.0</ele><time>2026-05-03T14:18:03.573Z</time></trkpt><trkpt lat="40.278629" lon="15.6295221"><ele>496.0</ele><time>2026-05-03T14:18:04.58Z</time></trkpt><trkpt lat="40.2785236" lon="15.6294323"><ele>494.25</ele><time>2026-05-03T14:18:05.588Z</time></trkpt><trkpt lat="40.2784265" lon="15.6293243"><ele>492.5</ele><time>2026-05-03T14:18:06.574Z</time></trkpt><trkpt lat="40.2783325" lon="15.6292033"><ele>490.75</ele><time>2026-05-03T14:18:07.557Z</time></trkpt><trkpt lat="40.2782444" lon="15.6290856"><ele>489.0</ele><time>2026-05-03T14:18:08.541Z</time></trkpt><trkpt lat="40.2781472" lon="15.6289664"><ele>489.25</ele><time>2026-05-03T14:18:09.561Z</time></trkpt><trkpt lat="40.2780356" lon="15.6288539"><ele>489.5</ele><time>2026-05-03T14:18:10.541Z</time></trkpt><trkpt lat="40.2779144" lon="15.6287589"><ele>489.75</ele><time>2026-05-03T14:18:11.549Z</time></trkpt><trkpt lat="40.2777965" lon="15.628676"><ele>490.0</ele><time>2026-05-03T14:18:12.576Z</time></trkpt><trkpt lat="40.2776946" lon="15.6286047"><ele>490.0</ele><time>2026-05-03T14:18:13.579Z</time></trkpt><trkpt lat="40.2776075" lon="15.628551"><ele>490.0</ele><time>2026-05-03T14:18:14.542Z</time></trkpt><trkpt lat="40.2775339" lon="15.6284878"><ele>490.0</ele><time>2026-05-03T14:18:15.568Z</time></trkpt><trkpt lat="40.2774785" lon="15.6283983"><ele>490.0</ele><time>2026-05-03T14:18:16.556Z</time></trkpt><trkpt lat="40.2774384" lon="15.628285"><ele>490.0</ele><time>2026-05-03T14:18:17.563Z</time></trkpt><trkpt lat="40.2774224" lon="15.6281581"><ele>490.0</ele><time>2026-05-03T14:18:18.573Z</time></trkpt><trkpt lat="40.277429" lon="15.6280238"><ele>490.0</ele><time>2026-05-03T14:18:19.582Z</time></trkpt><trkpt lat="40.2774654" lon="15.6278855"><ele>490.0</ele><time>2026-05-03T14:18:20.568Z</time></trkpt><trkpt lat="40.2775187" lon="15.6277498"><ele>490.0</ele><time>2026-05-03T14:18:21.58Z</time></trkpt><trkpt lat="40.2775728" lon="15.6276027"><ele>489.0</ele><time>2026-05-03T14:18:22.56Z</time></trkpt><trkpt lat="40.27763" lon="15.6274353"><ele>488.0</ele><time>2026-05-03T14:18:23.568Z</time></trkpt><trkpt lat="40.277695" lon="15.6272435"><ele>487.0</ele><time>2026-05-03T14:18:24.567Z</time></trkpt><trkpt lat="40.2777664" lon="15.62705"><ele>486.33333333333337</ele><time>2026-05-03T14:18:25.579Z</time></trkpt><trkpt lat="40.2778297" lon="15.6268502"><ele>485.66666666666663</ele><time>2026-05-03T14:18:26.581Z</time></trkpt><trkpt lat="40.2779009" lon="15.6266601"><ele>485.0</ele><time>2026-05-03T14:18:27.574Z</time></trkpt><trkpt lat="40.2779696" lon="15.626497"><ele>485.0</ele><time>2026-05-03T14:18:28.557Z</time></trkpt><trkpt lat="40.278027" lon="15.6263492"><ele>485.0</ele><time>2026-05-03T14:18:29.566Z</time></trkpt><trkpt lat="40.2780703" lon="15.6262238"><ele>485.0</ele><time>2026-05-03T14:18:30.553Z</time></trkpt><trkpt lat="40.2781129" lon="15.6261007"><ele>485.0</ele><time>2026-05-03T14:18:31.573Z</time></trkpt><trkpt lat="40.2781522" lon="15.6259687"><ele>485.0</ele><time>2026-05-03T14:18:32.572Z</time></trkpt><trkpt lat="40.2781855" lon="15.6258202"><ele>485.75</ele><time>2026-05-03T14:18:33.571Z</time></trkpt><trkpt lat="40.2781946" lon="15.625669"><ele>486.5</ele><time>2026-05-03T14:18:34.563Z</time></trkpt><trkpt lat="40.2781756" lon="15.6255108"><ele>487.25</ele><time>2026-05-03T14:18:35.574Z</time></trkpt><trkpt lat="40.2781358" lon="15.6253496"><ele>488.0</ele><time>2026-05-03T14:18:36.584Z</time></trkpt><trkpt lat="40.2780713" lon="15.6251922"><ele>488.0</ele><time>2026-05-03T14:18:37.554Z</time></trkpt><trkpt lat="40.2779858" lon="15.6250442"><ele>488.0</ele><time>2026-05-03T14:18:38.568Z</time></trkpt><trkpt lat="40.2778887" lon="15.6248959"><ele>488.0</ele><time>2026-05-03T14:18:39.576Z</time></trkpt><trkpt lat="40.2777752" lon="15.6247658"><ele>488.0</ele><time>2026-05-03T14:18:40.576Z</time></trkpt><trkpt lat="40.2776466" lon="15.6246452"><ele>488.0</ele><time>2026-05-03T14:18:41.569Z</time></trkpt><trkpt lat="40.2775094" lon="15.6245316"><ele>488.0</ele><time>2026-05-03T14:18:42.567Z</time></trkpt><trkpt lat="40.2773653" lon="15.6244142"><ele>488.0</ele><time>2026-05-03T14:18:43.584Z</time></trkpt><trkpt lat="40.2772163" lon="15.6242967"><ele>491.66666666666663</ele><time>2026-05-03T14:18:44.554Z</time></trkpt><trkpt lat="40.2770683" lon="15.6241784"><ele>495.33333333333337</ele><time>2026-05-03T14:18:45.586Z</time></trkpt><trkpt lat="40.2769186" lon="15.6240624"><ele>499.0</ele><time>2026-05-03T14:18:46.577Z</time></trkpt><trkpt lat="40.276765" lon="15.623948"><ele>499.0</ele><time>2026-05-03T14:18:47.575Z</time></trkpt><trkpt lat="40.2766137" lon="15.6238298"><ele>499.0</ele><time>2026-05-03T14:18:48.556Z</time></trkpt><trkpt lat="40.2764677" lon="15.6237083"><ele>499.0</ele><time>2026-05-03T14:18:49.561Z</time></trkpt><trkpt lat="40.2763286" lon="15.6235983"><ele>500.0</ele><time>2026-05-03T14:18:50.568Z</time></trkpt><trkpt lat="40.2761895" lon="15.6235016"><ele>501.0</ele><time>2026-05-03T14:18:51.578Z</time></trkpt><trkpt lat="40.2760416" lon="15.623418"><ele>502.0</ele><time>2026-05-03T14:18:52.572Z</time></trkpt><trkpt lat="40.2758859" lon="15.6233521"><ele>502.0</ele><time>2026-05-03T14:18:53.564Z</time></trkpt><trkpt lat="40.2757231" lon="15.6232896"><ele>502.0</ele><time>2026-05-03T14:18:54.568Z</time></trkpt><trkpt lat="40.2755573" lon="15.6232326"><ele>502.0</ele><time>2026-05-03T14:18:55.572Z</time></trkpt><trkpt lat="40.2753864" lon="15.6231882"><ele>502.25</ele><time>2026-05-03T14:18:56.568Z</time></trkpt><trkpt lat="40.2752345" lon="15.6231597"><ele>502.5</ele><time>2026-05-03T14:18:57.575Z</time></trkpt><trkpt lat="40.2751113" lon="15.623126"><ele>502.75</ele><time>2026-05-03T14:18:58.576Z</time></trkpt><trkpt lat="40.2750089" lon="15.6230869"><ele>503.0</ele><time>2026-05-03T14:18:59.562Z</time></trkpt><trkpt lat="40.2749137" lon="15.6230295"><ele>503.0</ele><time>2026-05-03T14:19:00.551Z</time></trkpt><trkpt lat="40.274821" lon="15.6229496"><ele>503.0</ele><time>2026-05-03T14:19:01.545Z</time></trkpt><trkpt lat="40.2747304" lon="15.6228435"><ele>503.0</ele><time>2026-05-03T14:19:02.561Z</time></trkpt><trkpt lat="40.2746317" lon="15.6227154"><ele>503.0</ele><time>2026-05-03T14:19:03.549Z</time></trkpt><trkpt lat="40.2745197" lon="15.6225856"><ele>506.0</ele><time>2026-05-03T14:19:04.559Z</time></trkpt><trkpt lat="40.2744027" lon="15.6224454"><ele>509.0</ele><time>2026-05-03T14:19:05.578Z</time></trkpt><trkpt lat="40.2742812" lon="15.6222956"><ele>512.0</ele><time>2026-05-03T14:19:06.557Z</time></trkpt><trkpt lat="40.2741475" lon="15.6221428"><ele>512.0</ele><time>2026-05-03T14:19:07.577Z</time></trkpt><trkpt lat="40.2740165" lon="15.6219878"><ele>512.0</ele><time>2026-05-03T14:19:08.579Z</time></trkpt><trkpt lat="40.2738814" lon="15.6218259"><ele>512.0</ele><time>2026-05-03T14:19:09.565Z</time></trkpt><trkpt lat="40.2737507" lon="15.6216684"><ele>513.3333333333333</ele><time>2026-05-03T14:19:10.571Z</time></trkpt><trkpt lat="40.2736203" lon="15.6215124"><ele>514.6666666666666</ele><time>2026-05-03T14:19:11.559Z</time></trkpt><trkpt lat="40.2734828" lon="15.6213532"><ele>516.0</ele><time>2026-05-03T14:19:12.568Z</time></trkpt><trkpt lat="40.2733455" lon="15.6211948"><ele>516.3333333333334</ele><time>2026-05-03T14:19:13.562Z</time></trkpt><trkpt lat="40.2732098" lon="15.6210276"><ele>516.6666666666667</ele><time>2026-05-03T14:19:14.547Z</time></trkpt><trkpt lat="40.2730719" lon="15.6208607"><ele>517.0</ele><time>2026-05-03T14:19:15.57Z</time></trkpt><trkpt lat="40.2729338" lon="15.6206945"><ele>517.6666666666667</ele><time>2026-05-03T14:19:16.578Z</time></trkpt><trkpt lat="40.2727989" lon="15.6205307"><ele>518.3333333333334</ele><time>2026-05-03T14:19:17.589Z</time></trkpt><trkpt lat="40.2726664" lon="15.6203694"><ele>519.0</ele><time>2026-05-03T14:19:18.563Z</time></trkpt><trkpt lat="40.2725384" lon="15.6202072"><ele>520.3333333333334</ele><time>2026-05-03T14:19:19.584Z</time></trkpt><trkpt lat="40.2724069" lon="15.6200548"><ele>521.6666666666667</ele><time>2026-05-03T14:19:20.576Z</time></trkpt><trkpt lat="40.2722597" lon="15.6199077"><ele>523.0</ele><time>2026-05-03T14:19:21.575Z</time></trkpt><trkpt lat="40.272104" lon="15.6197699"><ele>523.3333333333334</ele><time>2026-05-03T14:19:22.573Z</time></trkpt><trkpt lat="40.271945" lon="15.6196393"><ele>523.6666666666666</ele><time>2026-05-03T14:19:23.567Z</time></trkpt><trkpt lat="40.2717766" lon="15.6195268"><ele>524.0</ele><time>2026-05-03T14:19:24.562Z</time></trkpt><trkpt lat="40.2716005" lon="15.6194208"><ele>525.6666666666666</ele><time>2026-05-03T14:19:25.558Z</time></trkpt><trkpt lat="40.2714247" lon="15.6193331"><ele>527.3333333333334</ele><time>2026-05-03T14:19:26.584Z</time></trkpt><trkpt lat="40.2712414" lon="15.6192539"><ele>529.0</ele><time>2026-05-03T14:19:27.587Z</time></trkpt><trkpt lat="40.2710598" lon="15.6191792"><ele>529.0</ele><time>2026-05-03T14:19:28.577Z</time></trkpt><trkpt lat="40.2708897" lon="15.6191213"><ele>529.0</ele><time>2026-05-03T14:19:29.566Z</time></trkpt><trkpt lat="40.2707152" lon="15.6190779"><ele>529.0</ele><time>2026-05-03T14:19:30.586Z</time></trkpt><trkpt lat="40.2705343" lon="15.61905"><ele>526.6666666666667</ele><time>2026-05-03T14:19:31.572Z</time></trkpt><trkpt lat="40.270352" lon="15.6190161"><ele>524.3333333333334</ele><time>2026-05-03T14:19:32.568Z</time></trkpt><trkpt lat="40.2701648" lon="15.6189784"><ele>522.0</ele><time>2026-05-03T14:19:33.582Z</time></trkpt><trkpt lat="40.2699781" lon="15.6189369"><ele>522.0</ele><time>2026-05-03T14:19:34.572Z</time></trkpt><trkpt lat="40.269783" lon="15.6188938"><ele>522.0</ele><time>2026-05-03T14:19:35.567Z</time></trkpt><trkpt lat="40.2696021" lon="15.6188462"><ele>522.0</ele><time>2026-05-03T14:19:36.58Z</time></trkpt><trkpt lat="40.2694266" lon="15.6187875"><ele>522.6666666666666</ele><time>2026-05-03T14:19:37.562Z</time></trkpt><trkpt lat="40.2692606" lon="15.6187352"><ele>523.3333333333333</ele><time>2026-05-03T14:19:38.565Z</time></trkpt><trkpt lat="40.2690999" lon="15.6186877"><ele>524.0</ele><time>2026-05-03T14:19:39.575Z</time></trkpt><trkpt lat="40.2689401" lon="15.6186356"><ele>524.0</ele><time>2026-05-03T14:19:40.572Z</time></trkpt><trkpt lat="40.268787" lon="15.6185804"><ele>524.0</ele><time>2026-05-03T14:19:41.584Z</time></trkpt><trkpt lat="40.2686366" lon="15.618518"><ele>524.0</ele><time>2026-05-03T14:19:42.58Z</time></trkpt><trkpt lat="40.2684909" lon="15.6184654"><ele>524.0</ele><time>2026-05-03T14:19:43.586Z</time></trkpt><trkpt lat="40.2683585" lon="15.6184272"><ele>524.0</ele><time>2026-05-03T14:19:44.581Z</time></trkpt><trkpt lat="40.2682406" lon="15.6183887"><ele>524.0</ele><time>2026-05-03T14:19:45.566Z</time></trkpt><trkpt lat="40.2681394" lon="15.6183407"><ele>524.0</ele><time>2026-05-03T14:19:46.569Z</time></trkpt><trkpt lat="40.2680531" lon="15.6182803"><ele>522.2</ele><time>2026-05-03T14:19:47.584Z</time></trkpt><trkpt lat="40.2679858" lon="15.6181998"><ele>520.4</ele><time>2026-05-03T14:19:48.581Z</time></trkpt><trkpt lat="40.2679385" lon="15.6180952"><ele>518.6</ele><time>2026-05-03T14:19:49.585Z</time></trkpt><trkpt lat="40.2678915" lon="15.6179653"><ele>516.8</ele><time>2026-05-03T14:19:50.569Z</time></trkpt><trkpt lat="40.2678405" lon="15.6178211"><ele>515.0</ele><time>2026-05-03T14:19:51.572Z</time></trkpt><trkpt lat="40.2677948" lon="15.6176533"><ele>515.0</ele><time>2026-05-03T14:19:52.589Z</time></trkpt><trkpt lat="40.2677465" lon="15.6174694"><ele>515.0</ele><time>2026-05-03T14:19:53.575Z</time></trkpt><trkpt lat="40.2676832" lon="15.6172759"><ele>515.0</ele><time>2026-05-03T14:19:54.565Z</time></trkpt><trkpt lat="40.2676051" lon="15.617107"><ele>515.75</ele><time>2026-05-03T14:19:55.567Z</time></trkpt><trkpt lat="40.2675138" lon="15.6169544"><ele>516.5</ele><time>2026-05-03T14:19:56.573Z</time></trkpt><trkpt lat="40.2674258" lon="15.6168191"><ele>517.25</ele><time>2026-05-03T14:19:57.556Z</time></trkpt><trkpt lat="40.267345" lon="15.6166697"><ele>518.0</ele><time>2026-05-03T14:19:58.576Z</time></trkpt><trkpt lat="40.267282" lon="15.6164903"><ele>517.75</ele><time>2026-05-03T14:19:59.568Z</time></trkpt><trkpt lat="40.267253" lon="15.6163006"><ele>517.5</ele><time>2026-05-03T14:20:00.558Z</time></trkpt><trkpt lat="40.2672437" lon="15.6161152"><ele>517.25</ele><time>2026-05-03T14:20:01.551Z</time></trkpt><trkpt lat="40.267239" lon="15.6159959"><ele>517.0</ele><time>2026-05-03T14:20:02.548Z</time></trkpt><trkpt lat="40.2672003" lon="15.6158992"><ele>517.0</ele><time>2026-05-03T14:20:03.552Z</time></trkpt><trkpt lat="40.2671343" lon="15.6158444"><ele>517.0</ele><time>2026-05-03T14:20:04.568Z</time></trkpt><trkpt lat="40.2670551" lon="15.6158358"><ele>517.0</ele><time>2026-05-03T14:20:05.581Z</time></trkpt><trkpt lat="40.2669671" lon="15.6158725"><ele>517.0</ele><time>2026-05-03T14:20:06.556Z</time></trkpt><trkpt lat="40.2668855" lon="15.6159533"><ele>517.0</ele><time>2026-05-03T14:20:07.545Z</time></trkpt><trkpt lat="40.266817" lon="15.6160751"><ele>515.75</ele><time>2026-05-03T14:20:08.558Z</time></trkpt><trkpt lat="40.2667444" lon="15.6162"><ele>514.5</ele><time>2026-05-03T14:20:09.556Z</time></trkpt><trkpt lat="40.2666563" lon="15.6163053"><ele>513.25</ele><time>2026-05-03T14:20:10.565Z</time></trkpt><trkpt lat="40.2665427" lon="15.6163724"><ele>512.0</ele><time>2026-05-03T14:20:11.556Z</time></trkpt><trkpt lat="40.2664217" lon="15.6164123"><ele>515.0</ele><time>2026-05-03T14:20:12.569Z</time></trkpt><trkpt lat="40.2662914" lon="15.6164568"><ele>518.0</ele><time>2026-05-03T14:20:13.572Z</time></trkpt><trkpt lat="40.2661575" lon="15.6165149"><ele>521.0</ele><time>2026-05-03T14:20:14.564Z</time></trkpt><trkpt lat="40.2660239" lon="15.6166079"><ele>524.0</ele><time>2026-05-03T14:20:15.571Z</time></trkpt><trkpt lat="40.2659052" lon="15.6167395"><ele>524.0</ele><time>2026-05-03T14:20:16.577Z</time></trkpt><trkpt lat="40.2657933" lon="15.6168871"><ele>524.0</ele><time>2026-05-03T14:20:17.566Z</time></trkpt><trkpt lat="40.2656947" lon="15.6170633"><ele>524.0</ele><time>2026-05-03T14:20:18.572Z</time></trkpt><trkpt lat="40.2656099" lon="15.6172528"><ele>526.0</ele><time>2026-05-03T14:20:19.553Z</time></trkpt><trkpt lat="40.2655378" lon="15.6174387"><ele>528.0</ele><time>2026-05-03T14:20:20.578Z</time></trkpt><trkpt lat="40.2654692" lon="15.6176019"><ele>530.0</ele><time>2026-05-03T14:20:21.575Z</time></trkpt><trkpt lat="40.2653943" lon="15.6177471"><ele>532.0</ele><time>2026-05-03T14:20:22.579Z</time></trkpt><trkpt lat="40.265297" lon="15.6178943"><ele>532.0</ele><time>2026-05-03T14:20:23.57Z</time></trkpt><trkpt lat="40.2651852" lon="15.6180362"><ele>532.0</ele><time>2026-05-03T14:20:24.569Z</time></trkpt><trkpt lat="40.265066" lon="15.6181819"><ele>532.0</ele><time>2026-05-03T14:20:25.565Z</time></trkpt><trkpt lat="40.2649481" lon="15.6183358"><ele>532.0</ele><time>2026-05-03T14:20:26.571Z</time></trkpt><trkpt lat="40.2648238" lon="15.6184821"><ele>532.0</ele><time>2026-05-03T14:20:27.57Z</time></trkpt><trkpt lat="40.2647" lon="15.6186309"><ele>532.0</ele><time>2026-05-03T14:20:28.57Z</time></trkpt><trkpt lat="40.2645791" lon="15.6187782"><ele>534.3333333333334</ele><time>2026-05-03T14:20:29.566Z</time></trkpt><trkpt lat="40.2644583" lon="15.6189256"><ele>536.6666666666666</ele><time>2026-05-03T14:20:30.579Z</time></trkpt><trkpt lat="40.2643368" lon="15.6190658"><ele>539.0</ele><time>2026-05-03T14:20:31.576Z</time></trkpt><trkpt lat="40.2642014" lon="15.6191957"><ele>539.0</ele><time>2026-05-03T14:20:32.557Z</time></trkpt><trkpt lat="40.2640512" lon="15.6193054"><ele>539.0</ele><time>2026-05-03T14:20:33.55Z</time></trkpt><trkpt lat="40.2638943" lon="15.6194084"><ele>539.0</ele><time>2026-05-03T14:20:34.575Z</time></trkpt><trkpt lat="40.2637366" lon="15.6195054"><ele>540.5</ele><time>2026-05-03T14:20:35.557Z</time></trkpt><trkpt lat="40.2635965" lon="15.6195954"><ele>542.0</ele><time>2026-05-03T14:20:36.562Z</time></trkpt><trkpt lat="40.2634751" lon="15.619665"><ele>543.5</ele><time>2026-05-03T14:20:37.571Z</time></trkpt><trkpt lat="40.2633648" lon="15.6197186"><ele>545.0</ele><time>2026-05-03T14:20:38.584Z</time></trkpt><trkpt lat="40.2632479" lon="15.6197413"><ele>545.0</ele><time>2026-05-03T14:20:39.583Z</time></trkpt><trkpt lat="40.2631279" lon="15.6197427"><ele>545.0</ele><time>2026-05-03T14:20:40.573Z</time></trkpt><trkpt lat="40.2630204" lon="15.6197118"><ele>545.0</ele><time>2026-05-03T14:20:41.57Z</time></trkpt><trkpt lat="40.2629479" lon="15.6196599"><ele>545.0</ele><time>2026-05-03T14:20:42.572Z</time></trkpt><trkpt lat="40.2628664" lon="15.6195443"><ele>545.0</ele><time>2026-05-03T14:20:44.577Z</time></trkpt><trkpt lat="40.2628407" lon="15.6194673"><ele>545.8</ele><time>2026-05-03T14:20:45.573Z</time></trkpt><trkpt lat="40.2628189" lon="15.6193565"><ele>546.6</ele><time>2026-05-03T14:20:47.563Z</time></trkpt><trkpt lat="40.2627919" lon="15.6192536"><ele>547.4</ele><time>2026-05-03T14:20:57.548Z</time></trkpt><trkpt lat="40.2628131" lon="15.6190801"><ele>548.2</ele><time>2026-05-03T14:20:59.553Z</time></trkpt><trkpt lat="40.2628305" lon="15.6189612"><ele>549.0</ele><time>2026-05-03T14:21:00.574Z</time></trkpt><trkpt lat="40.262854" lon="15.6188338"><ele>549.0</ele><time>2026-05-03T14:21:01.567Z</time></trkpt><trkpt lat="40.2628876" lon="15.618686"><ele>549.0</ele><time>2026-05-03T14:21:02.569Z</time></trkpt><trkpt lat="40.2629271" lon="15.6185191"><ele>549.0</ele><time>2026-05-03T14:21:03.559Z</time></trkpt><trkpt lat="40.2629673" lon="15.6183364"><ele>549.0</ele><time>2026-05-03T14:21:04.575Z</time></trkpt><trkpt lat="40.2630124" lon="15.6181387"><ele>548.6666666666666</ele><time>2026-05-03T14:21:05.573Z</time></trkpt><trkpt lat="40.263077" lon="15.6179359"><ele>548.3333333333333</ele><time>2026-05-03T14:21:06.566Z</time></trkpt><trkpt lat="40.2631451" lon="15.6177316"><ele>548.0</ele><time>2026-05-03T14:21:07.565Z</time></trkpt><trkpt lat="40.2632019" lon="15.6175157"><ele>548.0</ele><time>2026-05-03T14:21:08.581Z</time></trkpt><trkpt lat="40.263262" lon="15.6172876"><ele>548.0</ele><time>2026-05-03T14:21:09.578Z</time></trkpt><trkpt lat="40.2633252" lon="15.6170503"><ele>548.0</ele><time>2026-05-03T14:21:10.575Z</time></trkpt><trkpt lat="40.2633913" lon="15.6168106"><ele>547.6666666666666</ele><time>2026-05-03T14:21:11.581Z</time></trkpt><trkpt lat="40.2634513" lon="15.6165686"><ele>547.3333333333334</ele><time>2026-05-03T14:21:12.604Z</time></trkpt><trkpt lat="40.2635016" lon="15.6163349"><ele>547.0</ele><time>2026-05-03T14:21:13.577Z</time></trkpt><trkpt lat="40.2635371" lon="15.6161128"><ele>547.0</ele><time>2026-05-03T14:21:14.58Z</time></trkpt><trkpt lat="40.2635555" lon="15.6159099"><ele>547.0</ele><time>2026-05-03T14:21:15.591Z</time></trkpt><trkpt lat="40.2635503" lon="15.6157119"><ele>547.0</ele><time>2026-05-03T14:21:16.576Z</time></trkpt><trkpt lat="40.2635267" lon="15.6155053"><ele>547.3333333333334</ele><time>2026-05-03T14:21:17.577Z</time></trkpt><trkpt lat="40.2634833" lon="15.6152874"><ele>547.6666666666666</ele><time>2026-05-03T14:21:18.586Z</time></trkpt><trkpt lat="40.2634276" lon="15.6150578"><ele>548.0</ele><time>2026-05-03T14:21:19.567Z</time></trkpt><trkpt lat="40.2633696" lon="15.6148156"><ele>548.0</ele><time>2026-05-03T14:21:20.584Z</time></trkpt><trkpt lat="40.263315" lon="15.6145831"><ele>548.0</ele><time>2026-05-03T14:21:21.584Z</time></trkpt><trkpt lat="40.2632658" lon="15.6143604"><ele>548.0</ele><time>2026-05-03T14:21:22.606Z</time></trkpt><trkpt lat="40.2632178" lon="15.6141447"><ele>548.3333333333333</ele><time>2026-05-03T14:21:23.587Z</time></trkpt><trkpt lat="40.2631678" lon="15.6139348"><ele>548.6666666666666</ele><time>2026-05-03T14:21:24.583Z</time></trkpt><trkpt lat="40.2631301" lon="15.6137091"><ele>549.0</ele><time>2026-05-03T14:21:25.587Z</time></trkpt><trkpt lat="40.2631079" lon="15.6134751"><ele>553.3333333333334</ele><time>2026-05-03T14:21:26.575Z</time></trkpt><trkpt lat="40.2630893" lon="15.6132297"><ele>557.6666666666667</ele><time>2026-05-03T14:21:27.574Z</time></trkpt><trkpt lat="40.2630736" lon="15.6129883"><ele>562.0</ele><time>2026-05-03T14:21:28.58Z</time></trkpt><trkpt lat="40.2630608" lon="15.6127273"><ele>563.3333333333334</ele><time>2026-05-03T14:21:29.573Z</time></trkpt><trkpt lat="40.2630506" lon="15.6124575"><ele>564.6666666666666</ele><time>2026-05-03T14:21:30.574Z</time></trkpt><trkpt lat="40.263036" lon="15.6121906"><ele>566.0</ele><time>2026-05-03T14:21:31.582Z</time></trkpt><trkpt lat="40.2630173" lon="15.6119246"><ele>567.3333333333333</ele><time>2026-05-03T14:21:32.58Z</time></trkpt><trkpt lat="40.2629989" lon="15.611662"><ele>568.6666666666666</ele><time>2026-05-03T14:21:33.567Z</time></trkpt><trkpt lat="40.2629894" lon="15.6113992"><ele>570.0</ele><time>2026-05-03T14:21:34.585Z</time></trkpt><trkpt lat="40.262984" lon="15.611141"><ele>570.6666666666666</ele><time>2026-05-03T14:21:35.587Z</time></trkpt><trkpt lat="40.2629717" lon="15.6109107"><ele>571.3333333333333</ele><time>2026-05-03T14:21:36.566Z</time></trkpt><trkpt lat="40.2629559" lon="15.6106944"><ele>572.0</ele><time>2026-05-03T14:21:37.567Z</time></trkpt><trkpt lat="40.2629413" lon="15.610469"><ele>571.6666666666666</ele><time>2026-05-03T14:21:38.554Z</time></trkpt><trkpt lat="40.2629141" lon="15.6102538"><ele>571.3333333333334</ele><time>2026-05-03T14:21:39.552Z</time></trkpt><trkpt lat="40.2628629" lon="15.6100329"><ele>571.0</ele><time>2026-05-03T14:21:40.549Z</time></trkpt><trkpt lat="40.2627835" lon="15.609818"><ele>571.0</ele><time>2026-05-03T14:21:41.545Z</time></trkpt><trkpt lat="40.2626866" lon="15.6096105"><ele>571.0</ele><time>2026-05-03T14:21:42.573Z</time></trkpt><trkpt lat="40.2625854" lon="15.6094003"><ele>571.0</ele><time>2026-05-03T14:21:43.551Z</time></trkpt><trkpt lat="40.2624953" lon="15.6091786"><ele>569.6666666666667</ele><time>2026-05-03T14:21:44.553Z</time></trkpt><trkpt lat="40.2624216" lon="15.6089547"><ele>568.3333333333334</ele><time>2026-05-03T14:21:45.56Z</time></trkpt><trkpt lat="40.262373" lon="15.6087223"><ele>567.0</ele><time>2026-05-03T14:21:46.549Z</time></trkpt><trkpt lat="40.2623464" lon="15.6084835"><ele>567.0</ele><time>2026-05-03T14:21:47.558Z</time></trkpt><trkpt lat="40.2623412" lon="15.6082464"><ele>567.0</ele><time>2026-05-03T14:21:48.558Z</time></trkpt><trkpt lat="40.2623503" lon="15.6080079"><ele>567.0</ele><time>2026-05-03T14:21:49.562Z</time></trkpt><trkpt lat="40.262363" lon="15.6077717"><ele>567.3333333333334</ele><time>2026-05-03T14:21:50.557Z</time></trkpt><trkpt lat="40.2623913" lon="15.6075268"><ele>567.6666666666667</ele><time>2026-05-03T14:21:51.556Z</time></trkpt><trkpt lat="40.2624323" lon="15.6072814"><ele>568.0</ele><time>2026-05-03T14:21:52.585Z</time></trkpt><trkpt lat="40.2624752" lon="15.6070386"><ele>569.3333333333334</ele><time>2026-05-03T14:21:53.565Z</time></trkpt><trkpt lat="40.262534" lon="15.6067965"><ele>570.6666666666666</ele><time>2026-05-03T14:21:54.566Z</time></trkpt><trkpt lat="40.2625926" lon="15.6065669"><ele>572.0</ele><time>2026-05-03T14:21:55.562Z</time></trkpt><trkpt lat="40.2626389" lon="15.6063674"><ele>572.0</ele><time>2026-05-03T14:21:56.547Z</time></trkpt><trkpt lat="40.2626668" lon="15.6061995"><ele>572.0</ele><time>2026-05-03T14:21:57.558Z</time></trkpt><trkpt lat="40.262662" lon="15.6060537"><ele>572.0</ele><time>2026-05-03T14:21:58.579Z</time></trkpt><trkpt lat="40.2626217" lon="15.6059234"><ele>572.0</ele><time>2026-05-03T14:21:59.591Z</time></trkpt><trkpt lat="40.2625326" lon="15.6058164"><ele>572.0</ele><time>2026-05-03T14:22:00.578Z</time></trkpt><trkpt lat="40.2624252" lon="15.6057348"><ele>572.0</ele><time>2026-05-03T14:22:01.554Z</time></trkpt><trkpt lat="40.2622925" lon="15.6056662"><ele>572.0</ele><time>2026-05-03T14:22:02.575Z</time></trkpt><trkpt lat="40.262138" lon="15.6055967"><ele>572.0</ele><time>2026-05-03T14:22:03.559Z</time></trkpt><trkpt lat="40.2619716" lon="15.605535"><ele>571.6666666666666</ele><time>2026-05-03T14:22:04.598Z</time></trkpt><trkpt lat="40.2617992" lon="15.6054831"><ele>571.3333333333334</ele><time>2026-05-03T14:22:05.547Z</time></trkpt><trkpt lat="40.2616371" lon="15.60543"><ele>571.0</ele><time>2026-05-03T14:22:06.568Z</time></trkpt><trkpt lat="40.2614934" lon="15.6053837"><ele>570.5</ele><time>2026-05-03T14:22:07.58Z</time></trkpt><trkpt lat="40.2613696" lon="15.6053199"><ele>570.0</ele><time>2026-05-03T14:22:08.562Z</time></trkpt><trkpt lat="40.2612589" lon="15.6052439"><ele>569.5</ele><time>2026-05-03T14:22:09.552Z</time></trkpt><trkpt lat="40.2611687" lon="15.6051508"><ele>569.0</ele><time>2026-05-03T14:22:10.56Z</time></trkpt><trkpt lat="40.2610941" lon="15.6050278"><ele>569.0</ele><time>2026-05-03T14:22:11.561Z</time></trkpt><trkpt lat="40.2610509" lon="15.6048795"><ele>569.0</ele><time>2026-05-03T14:22:12.565Z</time></trkpt><trkpt lat="40.2610509" lon="15.6047189"><ele>569.0</ele><time>2026-05-03T14:22:13.571Z</time></trkpt><trkpt lat="40.2610706" lon="15.6045471"><ele>569.0</ele><time>2026-05-03T14:22:14.582Z</time></trkpt><trkpt lat="40.26108" lon="15.6043689"><ele>567.6666666666666</ele><time>2026-05-03T14:22:15.571Z</time></trkpt><trkpt lat="40.2610476" lon="15.6041756"><ele>566.3333333333334</ele><time>2026-05-03T14:22:16.563Z</time></trkpt><trkpt lat="40.2609865" lon="15.6039849"><ele>565.0</ele><time>2026-05-03T14:22:17.579Z</time></trkpt><trkpt lat="40.2609037" lon="15.6038203"><ele>565.0</ele><time>2026-05-03T14:22:18.56Z</time></trkpt><trkpt lat="40.2608062" lon="15.6036879"><ele>565.0</ele><time>2026-05-03T14:22:19.573Z</time></trkpt><trkpt lat="40.2606842" lon="15.6035898"><ele>565.0</ele><time>2026-05-03T14:22:20.573Z</time></trkpt><trkpt lat="40.2605403" lon="15.603522"><ele>565.0</ele><time>2026-05-03T14:22:21.592Z</time></trkpt><trkpt lat="40.2603816" lon="15.6034576"><ele>563.6666666666667</ele><time>2026-05-03T14:22:22.59Z</time></trkpt><trkpt lat="40.2602038" lon="15.603398"><ele>562.3333333333334</ele><time>2026-05-03T14:22:23.582Z</time></trkpt><trkpt lat="40.2600208" lon="15.6033409"><ele>561.0</ele><time>2026-05-03T14:22:24.586Z</time></trkpt><trkpt lat="40.2598329" lon="15.6032751"><ele>560.0</ele><time>2026-05-03T14:22:25.559Z</time></trkpt><trkpt lat="40.2596461" lon="15.6032083"><ele>559.0</ele><time>2026-05-03T14:22:26.582Z</time></trkpt><trkpt lat="40.2594527" lon="15.6031294"><ele>558.0</ele><time>2026-05-03T14:22:27.578Z</time></trkpt><trkpt lat="40.2592553" lon="15.6030489"><ele>558.0</ele><time>2026-05-03T14:22:28.572Z</time></trkpt><trkpt lat="40.2590617" lon="15.6029833"><ele>558.0</ele><time>2026-05-03T14:22:29.579Z</time></trkpt><trkpt lat="40.2588831" lon="15.6029166"><ele>558.0</ele><time>2026-05-03T14:22:30.588Z</time></trkpt><trkpt lat="40.2587231" lon="15.6028557"><ele>555.0</ele><time>2026-05-03T14:22:31.58Z</time></trkpt><trkpt lat="40.2585844" lon="15.6027941"><ele>552.0</ele><time>2026-05-03T14:22:32.569Z</time></trkpt><trkpt lat="40.2584614" lon="15.6027453"><ele>549.0</ele><time>2026-05-03T14:22:33.571Z</time></trkpt><trkpt lat="40.2583539" lon="15.6026914"><ele>546.0</ele><time>2026-05-03T14:22:34.563Z</time></trkpt><trkpt lat="40.2582669" lon="15.6026104"><ele>546.0</ele><time>2026-05-03T14:22:35.571Z</time></trkpt><trkpt lat="40.2582059" lon="15.6025178"><ele>546.0</ele><time>2026-05-03T14:22:36.561Z</time></trkpt><trkpt lat="40.2581636" lon="15.6024028"><ele>546.0</ele><time>2026-05-03T14:22:37.566Z</time></trkpt><trkpt lat="40.2581451" lon="15.6022574"><ele>546.0</ele><time>2026-05-03T14:22:38.564Z</time></trkpt><trkpt lat="40.2581335" lon="15.6021007"><ele>546.0</ele><time>2026-05-03T14:22:39.583Z</time></trkpt><trkpt lat="40.2581451" lon="15.6019205"><ele>545.6666666666666</ele><time>2026-05-03T14:22:40.564Z</time></trkpt><trkpt lat="40.2581697" lon="15.601731"><ele>545.3333333333333</ele><time>2026-05-03T14:22:41.554Z</time></trkpt><trkpt lat="40.2582027" lon="15.6015263"><ele>545.0</ele><time>2026-05-03T14:22:42.579Z</time></trkpt><trkpt lat="40.25823" lon="15.6013023"><ele>545.3333333333333</ele><time>2026-05-03T14:22:43.585Z</time></trkpt><trkpt lat="40.2582566" lon="15.6010683"><ele>545.6666666666666</ele><time>2026-05-03T14:22:44.565Z</time></trkpt><trkpt lat="40.2582826" lon="15.6008294"><ele>546.0</ele><time>2026-05-03T14:22:45.583Z</time></trkpt><trkpt lat="40.2582952" lon="15.6005973"><ele>546.0</ele><time>2026-05-03T14:22:46.578Z</time></trkpt><trkpt lat="40.2582901" lon="15.6003722"><ele>546.0</ele><time>2026-05-03T14:22:47.6Z</time></trkpt><trkpt lat="40.2582601" lon="15.6001623"><ele>546.0</ele><time>2026-05-03T14:22:48.58Z</time></trkpt><trkpt lat="40.2582099" lon="15.5999579"><ele>547.0</ele><time>2026-05-03T14:22:49.566Z</time></trkpt><trkpt lat="40.2581423" lon="15.5997561"><ele>548.0</ele><time>2026-05-03T14:22:50.57Z</time></trkpt><trkpt lat="40.2580639" lon="15.5995446"><ele>549.0</ele><time>2026-05-03T14:22:51.576Z</time></trkpt><trkpt lat="40.2579821" lon="15.599324"><ele>549.3333333333334</ele><time>2026-05-03T14:22:52.582Z</time></trkpt><trkpt lat="40.2578906" lon="15.5991001"><ele>549.6666666666667</ele><time>2026-05-03T14:22:53.581Z</time></trkpt><trkpt lat="40.2577972" lon="15.5988766"><ele>550.0</ele><time>2026-05-03T14:22:54.589Z</time></trkpt><trkpt lat="40.2577087" lon="15.5986453"><ele>550.6666666666667</ele><time>2026-05-03T14:22:55.562Z</time></trkpt><trkpt lat="40.2576244" lon="15.5984097"><ele>551.3333333333334</ele><time>2026-05-03T14:22:56.546Z</time></trkpt><trkpt lat="40.2575364" lon="15.5981735"><ele>552.0</ele><time>2026-05-03T14:22:57.565Z</time></trkpt><trkpt lat="40.2574426" lon="15.5979459"><ele>553.0</ele><time>2026-05-03T14:22:58.57Z</time></trkpt><trkpt lat="40.2573587" lon="15.5977451"><ele>554.0</ele><time>2026-05-03T14:22:59.561Z</time></trkpt><trkpt lat="40.257267" lon="15.5975646"><ele>555.0</ele><time>2026-05-03T14:23:00.556Z</time></trkpt><trkpt lat="40.2571622" lon="15.5973927"><ele>555.0</ele><time>2026-05-03T14:23:01.559Z</time></trkpt><trkpt lat="40.2570433" lon="15.5972385"><ele>555.0</ele><time>2026-05-03T14:23:02.576Z</time></trkpt><trkpt lat="40.2568972" lon="15.5971143"><ele>555.0</ele><time>2026-05-03T14:23:03.575Z</time></trkpt><trkpt lat="40.2567384" lon="15.5970157"><ele>557.0</ele><time>2026-05-03T14:23:04.583Z</time></trkpt><trkpt lat="40.2565709" lon="15.596932"><ele>559.0</ele><time>2026-05-03T14:23:05.563Z</time></trkpt><trkpt lat="40.2564222" lon="15.5968339"><ele>561.0</ele><time>2026-05-03T14:23:06.54Z</time></trkpt><trkpt lat="40.2562786" lon="15.5967268"><ele>561.0</ele><time>2026-05-03T14:23:07.54Z</time></trkpt><trkpt lat="40.2561472" lon="15.5965872"><ele>561.0</ele><time>2026-05-03T14:23:08.555Z</time></trkpt><trkpt lat="40.2560146" lon="15.5964316"><ele>561.0</ele><time>2026-05-03T14:23:09.552Z</time></trkpt><trkpt lat="40.2558873" lon="15.5962627"><ele>560.3333333333334</ele><time>2026-05-03T14:23:10.549Z</time></trkpt><trkpt lat="40.2557553" lon="15.5961056"><ele>559.6666666666667</ele><time>2026-05-03T14:23:11.568Z</time></trkpt><trkpt lat="40.2556134" lon="15.5959547"><ele>559.0</ele><time>2026-05-03T14:23:12.553Z</time></trkpt><trkpt lat="40.2554659" lon="15.5957821"><ele>559.0</ele><time>2026-05-03T14:23:13.551Z</time></trkpt><trkpt lat="40.255317" lon="15.5956177"><ele>559.0</ele><time>2026-05-03T14:23:14.552Z</time></trkpt><trkpt lat="40.2551722" lon="15.5954508"><ele>559.0</ele><time>2026-05-03T14:23:15.556Z</time></trkpt><trkpt lat="40.255042" lon="15.5953143"><ele>559.75</ele><time>2026-05-03T14:23:16.556Z</time></trkpt><trkpt lat="40.2549373" lon="15.5951993"><ele>560.5</ele><time>2026-05-03T14:23:17.586Z</time></trkpt><trkpt lat="40.2548506" lon="15.5950794"><ele>561.25</ele><time>2026-05-03T14:23:18.547Z</time></trkpt><trkpt lat="40.2547879" lon="15.5949369"><ele>562.0</ele><time>2026-05-03T14:23:19.549Z</time></trkpt><trkpt lat="40.2547412" lon="15.5947577"><ele>562.0</ele><time>2026-05-03T14:23:20.562Z</time></trkpt><trkpt lat="40.2546994" lon="15.594575"><ele>562.0</ele><time>2026-05-03T14:23:21.581Z</time></trkpt><trkpt lat="40.2546442" lon="15.5944113"><ele>562.0</ele><time>2026-05-03T14:23:22.584Z</time></trkpt><trkpt lat="40.254561" lon="15.5942789"><ele>562.0</ele><time>2026-05-03T14:23:23.572Z</time></trkpt><trkpt lat="40.2544284" lon="15.5941732"><ele>566.0</ele><time>2026-05-03T14:23:24.566Z</time></trkpt><trkpt lat="40.2542777" lon="15.5940741"><ele>570.0</ele><time>2026-05-03T14:23:25.568Z</time></trkpt><trkpt lat="40.2541238" lon="15.5939679"><ele>574.0</ele><time>2026-05-03T14:23:26.562Z</time></trkpt><trkpt lat="40.2539726" lon="15.5938473"><ele>575.6666666666667</ele><time>2026-05-03T14:23:27.579Z</time></trkpt><trkpt lat="40.2538111" lon="15.5937272"><ele>577.3333333333334</ele><time>2026-05-03T14:23:28.574Z</time></trkpt><trkpt lat="40.2536506" lon="15.5936118"><ele>579.0</ele><time>2026-05-03T14:23:29.583Z</time></trkpt><trkpt lat="40.2535012" lon="15.5935089"><ele>579.0</ele><time>2026-05-03T14:23:30.591Z</time></trkpt><trkpt lat="40.2533671" lon="15.5934177"><ele>579.0</ele><time>2026-05-03T14:23:31.57Z</time></trkpt><trkpt lat="40.2532487" lon="15.5933303"><ele>579.0</ele><time>2026-05-03T14:23:32.577Z</time></trkpt><trkpt lat="40.2531446" lon="15.5932312"><ele>579.0</ele><time>2026-05-03T14:23:33.574Z</time></trkpt><trkpt lat="40.2530559" lon="15.5931236"><ele>577.0</ele><time>2026-05-03T14:23:34.565Z</time></trkpt><trkpt lat="40.2530002" lon="15.5929891"><ele>575.0</ele><time>2026-05-03T14:23:35.571Z</time></trkpt><trkpt lat="40.2529792" lon="15.5928362"><ele>573.0</ele><time>2026-05-03T14:23:36.576Z</time></trkpt><trkpt lat="40.2529883" lon="15.5926594"><ele>571.0</ele><time>2026-05-03T14:23:37.568Z</time></trkpt><trkpt lat="40.2530224" lon="15.5924761"><ele>571.0</ele><time>2026-05-03T14:23:38.584Z</time></trkpt><trkpt lat="40.2530927" lon="15.5922977"><ele>571.0</ele><time>2026-05-03T14:23:39.578Z</time></trkpt><trkpt lat="40.2531657" lon="15.5921428"><ele>571.0</ele><time>2026-05-03T14:23:40.581Z</time></trkpt><trkpt lat="40.2532203" lon="15.5920036"><ele>571.0</ele><time>2026-05-03T14:23:41.584Z</time></trkpt><trkpt lat="40.2532321" lon="15.5918522"><ele>572.0</ele><time>2026-05-03T14:23:42.592Z</time></trkpt><trkpt lat="40.2531911" lon="15.5916934"><ele>573.0</ele><time>2026-05-03T14:23:43.596Z</time></trkpt><trkpt lat="40.253114" lon="15.5915271"><ele>574.0</ele><time>2026-05-03T14:23:44.569Z</time></trkpt><trkpt lat="40.2530216" lon="15.5913643"><ele>575.0</ele><time>2026-05-03T14:23:45.579Z</time></trkpt><trkpt lat="40.2529138" lon="15.5911923"><ele>577.6666666666666</ele><time>2026-05-03T14:23:46.578Z</time></trkpt><trkpt lat="40.2528054" lon="15.5910172"><ele>580.3333333333334</ele><time>2026-05-03T14:23:47.581Z</time></trkpt><trkpt lat="40.2527052" lon="15.5908521"><ele>583.0</ele><time>2026-05-03T14:23:48.579Z</time></trkpt><trkpt lat="40.2526179" lon="15.5907046"><ele>583.0</ele><time>2026-05-03T14:23:49.551Z</time></trkpt><trkpt lat="40.2525449" lon="15.5905676"><ele>583.0</ele><time>2026-05-03T14:23:50.555Z</time></trkpt><trkpt lat="40.2524842" lon="15.5904242"><ele>583.0</ele><time>2026-05-03T14:23:51.564Z</time></trkpt><trkpt lat="40.2524432" lon="15.5902662"><ele>583.0</ele><time>2026-05-03T14:23:52.576Z</time></trkpt><trkpt lat="40.2524283" lon="15.5900991"><ele>585.25</ele><time>2026-05-03T14:23:53.586Z</time></trkpt><trkpt lat="40.2524279" lon="15.5899278"><ele>587.5</ele><time>2026-05-03T14:23:54.576Z</time></trkpt><trkpt lat="40.2524483" lon="15.5897519"><ele>589.75</ele><time>2026-05-03T14:23:55.559Z</time></trkpt><trkpt lat="40.2524785" lon="15.5895805"><ele>592.0</ele><time>2026-05-03T14:23:56.572Z</time></trkpt><trkpt lat="40.2524956" lon="15.5894057"><ele>593.0</ele><time>2026-05-03T14:23:57.586Z</time></trkpt><trkpt lat="40.2524823" lon="15.5892299"><ele>594.0</ele><time>2026-05-03T14:23:58.583Z</time></trkpt><trkpt lat="40.252433" lon="15.5890643"><ele>595.0</ele><time>2026-05-03T14:23:59.567Z</time></trkpt><trkpt lat="40.2523372" lon="15.5889172"><ele>596.0</ele><time>2026-05-03T14:24:00.574Z</time></trkpt><trkpt lat="40.2522161" lon="15.5887864"><ele>597.0</ele><time>2026-05-03T14:24:01.559Z</time></trkpt><trkpt lat="40.252078" lon="15.5886752"><ele>598.0</ele><time>2026-05-03T14:24:02.545Z</time></trkpt><trkpt lat="40.2519347" lon="15.5885765"><ele>599.0</ele><time>2026-05-03T14:24:03.566Z</time></trkpt><trkpt lat="40.2517894" lon="15.588475"><ele>599.0</ele><time>2026-05-03T14:24:04.558Z</time></trkpt><trkpt lat="40.2516376" lon="15.5883707"><ele>599.0</ele><time>2026-05-03T14:24:05.576Z</time></trkpt><trkpt lat="40.2514882" lon="15.5882703"><ele>599.0</ele><time>2026-05-03T14:24:06.574Z</time></trkpt><trkpt lat="40.2513443" lon="15.5881746"><ele>599.5</ele><time>2026-05-03T14:24:07.571Z</time></trkpt><trkpt lat="40.2512077" lon="15.5880881"><ele>600.0</ele><time>2026-05-03T14:24:08.573Z</time></trkpt><trkpt lat="40.2510798" lon="15.5880041"><ele>600.5</ele><time>2026-05-03T14:24:09.591Z</time></trkpt><trkpt lat="40.2509566" lon="15.5879204"><ele>601.0</ele><time>2026-05-03T14:24:10.603Z</time></trkpt><trkpt lat="40.2508448" lon="15.5878231"><ele>601.0</ele><time>2026-05-03T14:24:11.59Z</time></trkpt><trkpt lat="40.2507309" lon="15.5877083"><ele>601.0</ele><time>2026-05-03T14:24:12.566Z</time></trkpt><trkpt lat="40.2506253" lon="15.5875724"><ele>601.0</ele><time>2026-05-03T14:24:13.583Z</time></trkpt><trkpt lat="40.2505219" lon="15.5874175"><ele>601.0</ele><time>2026-05-03T14:24:14.569Z</time></trkpt><trkpt lat="40.2504331" lon="15.5872443"><ele>600.5</ele><time>2026-05-03T14:24:15.597Z</time></trkpt><trkpt lat="40.2503693" lon="15.5870715"><ele>600.0</ele><time>2026-05-03T14:24:16.586Z</time></trkpt><trkpt lat="40.2503343" lon="15.5869057"><ele>599.5</ele><time>2026-05-03T14:24:17.588Z</time></trkpt><trkpt lat="40.2503272" lon="15.5867514"><ele>599.0</ele><time>2026-05-03T14:24:18.574Z</time></trkpt><trkpt lat="40.2503419" lon="15.5865926"><ele>599.0</ele><time>2026-05-03T14:24:19.593Z</time></trkpt><trkpt lat="40.2503726" lon="15.5864347"><ele>599.0</ele><time>2026-05-03T14:24:20.595Z</time></trkpt><trkpt lat="40.2504136" lon="15.586259"><ele>599.0</ele><time>2026-05-03T14:24:21.557Z</time></trkpt><trkpt lat="40.2504779" lon="15.5860783"><ele>599.0</ele><time>2026-05-03T14:24:22.567Z</time></trkpt><trkpt lat="40.2505663" lon="15.5858985"><ele>600.0</ele><time>2026-05-03T14:24:23.59Z</time></trkpt><trkpt lat="40.250659" lon="15.5857413"><ele>601.0</ele><time>2026-05-03T14:24:24.594Z</time></trkpt><trkpt lat="40.2507391" lon="15.5856039"><ele>602.0</ele><time>2026-05-03T14:24:25.573Z</time></trkpt><trkpt lat="40.2507959" lon="15.5854862"><ele>603.0</ele><time>2026-05-03T14:24:26.581Z</time></trkpt><trkpt lat="40.2508181" lon="15.5853684"><ele>602.75</ele><time>2026-05-03T14:24:27.591Z</time></trkpt><trkpt lat="40.2508046" lon="15.5852377"><ele>602.5</ele><time>2026-05-03T14:24:28.594Z</time></trkpt><trkpt lat="40.2507583" lon="15.5851002"><ele>602.25</ele><time>2026-05-03T14:24:29.554Z</time></trkpt><trkpt lat="40.2506886" lon="15.5849612"><ele>602.0</ele><time>2026-05-03T14:24:30.581Z</time></trkpt><trkpt lat="40.2505979" lon="15.5848128"><ele>600.6666666666666</ele><time>2026-05-03T14:24:31.579Z</time></trkpt><trkpt lat="40.2504946" lon="15.5846597"><ele>599.3333333333334</ele><time>2026-05-03T14:24:32.577Z</time></trkpt><trkpt lat="40.2503873" lon="15.5844998"><ele>598.0</ele><time>2026-05-03T14:24:33.584Z</time></trkpt><trkpt lat="40.2502833" lon="15.5843346"><ele>598.0</ele><time>2026-05-03T14:24:34.594Z</time></trkpt><trkpt lat="40.2501709" lon="15.5841827"><ele>598.0</ele><time>2026-05-03T14:24:35.591Z</time></trkpt><trkpt lat="40.2500377" lon="15.5840409"><ele>598.0</ele><time>2026-05-03T14:24:36.599Z</time></trkpt><trkpt lat="40.2498813" lon="15.5839239"><ele>598.3333333333334</ele><time>2026-05-03T14:24:37.547Z</time></trkpt><trkpt lat="40.2497256" lon="15.5838174"><ele>598.6666666666666</ele><time>2026-05-03T14:24:38.587Z</time></trkpt><trkpt lat="40.2495828" lon="15.5837153"><ele>599.0</ele><time>2026-05-03T14:24:39.578Z</time></trkpt><trkpt lat="40.2494547" lon="15.5836288"><ele>599.0</ele><time>2026-05-03T14:24:40.576Z</time></trkpt><trkpt lat="40.2493339" lon="15.5835487"><ele>599.0</ele><time>2026-05-03T14:24:41.566Z</time></trkpt><trkpt lat="40.249226" lon="15.5834606"><ele>599.0</ele><time>2026-05-03T14:24:42.56Z</time></trkpt><trkpt lat="40.249131" lon="15.5833587"><ele>599.0</ele><time>2026-05-03T14:24:43.574Z</time></trkpt><trkpt lat="40.2490576" lon="15.5832281"><ele>599.0</ele><time>2026-05-03T14:24:44.573Z</time></trkpt><trkpt lat="40.2489997" lon="15.5830604"><ele>599.0</ele><time>2026-05-03T14:24:45.579Z</time></trkpt><trkpt lat="40.248955" lon="15.5828674"><ele>599.0</ele><time>2026-05-03T14:24:46.559Z</time></trkpt><trkpt lat="40.2489355" lon="15.5826622"><ele>600.0</ele><time>2026-05-03T14:24:47.578Z</time></trkpt><trkpt lat="40.2489253" lon="15.5824571"><ele>601.0</ele><time>2026-05-03T14:24:48.578Z</time></trkpt><trkpt lat="40.2489387" lon="15.5822532"><ele>602.0</ele><time>2026-05-03T14:24:49.588Z</time></trkpt><trkpt lat="40.2489604" lon="15.5820675"><ele>603.0</ele><time>2026-05-03T14:24:50.585Z</time></trkpt><trkpt lat="40.2489784" lon="15.5819071"><ele>604.0</ele><time>2026-05-03T14:24:51.593Z</time></trkpt><trkpt lat="40.2489604" lon="15.5817466"><ele>605.0</ele><time>2026-05-03T14:24:52.57Z</time></trkpt><trkpt lat="40.248895" lon="15.5815999"><ele>606.0</ele><time>2026-05-03T14:24:53.59Z</time></trkpt><trkpt lat="40.2488001" lon="15.5814598"><ele>602.0</ele><time>2026-05-03T14:24:54.584Z</time></trkpt><trkpt lat="40.2487095" lon="15.5813175"><ele>598.0</ele><time>2026-05-03T14:24:55.59Z</time></trkpt><trkpt lat="40.2486355" lon="15.5811746"><ele>594.0</ele><time>2026-05-03T14:24:56.586Z</time></trkpt><trkpt lat="40.2485938" lon="15.5810306"><ele>590.0</ele><time>2026-05-03T14:24:57.59Z</time></trkpt><trkpt lat="40.2485842" lon="15.5808564"><ele>590.0</ele><time>2026-05-03T14:24:58.583Z</time></trkpt><trkpt lat="40.2486069" lon="15.5806637"><ele>590.0</ele><time>2026-05-03T14:24:59.569Z</time></trkpt><trkpt lat="40.2486498" lon="15.580473"><ele>590.0</ele><time>2026-05-03T14:25:00.583Z</time></trkpt><trkpt lat="40.2487228" lon="15.5802838"><ele>588.0</ele><time>2026-05-03T14:25:01.548Z</time></trkpt><trkpt lat="40.2488111" lon="15.5800817"><ele>586.0</ele><time>2026-05-03T14:25:02.564Z</time></trkpt><trkpt lat="40.2489051" lon="15.5798788"><ele>584.0</ele><time>2026-05-03T14:25:03.549Z</time></trkpt><trkpt lat="40.2489809" lon="15.5796649"><ele>587.3333333333333</ele><time>2026-05-03T14:25:04.577Z</time></trkpt><trkpt lat="40.2490397" lon="15.579432"><ele>590.6666666666666</ele><time>2026-05-03T14:25:05.579Z</time></trkpt><trkpt lat="40.2490851" lon="15.5791858"><ele>594.0</ele><time>2026-05-03T14:25:06.574Z</time></trkpt><trkpt lat="40.2491295" lon="15.5789421"><ele>594.0</ele><time>2026-05-03T14:25:07.58Z</time></trkpt><trkpt lat="40.2491584" lon="15.5787035"><ele>594.0</ele><time>2026-05-03T14:25:08.586Z</time></trkpt><trkpt lat="40.2491771" lon="15.5784947"><ele>594.0</ele><time>2026-05-03T14:25:09.599Z</time></trkpt><trkpt lat="40.2492096" lon="15.5783001"><ele>593.75</ele><time>2026-05-03T14:25:10.582Z</time></trkpt><trkpt lat="40.2492558" lon="15.5781236"><ele>593.5</ele><time>2026-05-03T14:25:11.575Z</time></trkpt><trkpt lat="40.2493161" lon="15.5779747"><ele>593.25</ele><time>2026-05-03T14:25:12.583Z</time></trkpt><trkpt lat="40.2493353" lon="15.5778395"><ele>593.0</ele><time>2026-05-03T14:25:13.561Z</time></trkpt><trkpt lat="40.2492947" lon="15.5777203"><ele>594.0</ele><time>2026-05-03T14:25:14.587Z</time></trkpt><trkpt lat="40.2492249" lon="15.5776145"><ele>595.0</ele><time>2026-05-03T14:25:15.568Z</time></trkpt><trkpt lat="40.2491056" lon="15.5775437"><ele>596.0</ele><time>2026-05-03T14:25:16.574Z</time></trkpt><trkpt lat="40.2489678" lon="15.5774956"><ele>597.0</ele><time>2026-05-03T14:25:17.58Z</time></trkpt><trkpt lat="40.2488121" lon="15.5774731"><ele>592.25</ele><time>2026-05-03T14:25:18.574Z</time></trkpt><trkpt lat="40.2486551" lon="15.5774438"><ele>587.5</ele><time>2026-05-03T14:25:19.578Z</time></trkpt><trkpt lat="40.2485153" lon="15.5773827"><ele>582.75</ele><time>2026-05-03T14:25:20.576Z</time></trkpt><trkpt lat="40.2484063" lon="15.5773024"><ele>578.0</ele><time>2026-05-03T14:25:21.571Z</time></trkpt><trkpt lat="40.2483237" lon="15.577211"><ele>578.0</ele><time>2026-05-03T14:25:22.554Z</time></trkpt><trkpt lat="40.2482812" lon="15.5770895"><ele>578.0</ele><time>2026-05-03T14:25:23.566Z</time></trkpt><trkpt lat="40.248286" lon="15.5769533"><ele>578.0</ele><time>2026-05-03T14:25:24.573Z</time></trkpt><trkpt lat="40.2483263" lon="15.5767848"><ele>578.0</ele><time>2026-05-03T14:25:25.569Z</time></trkpt><trkpt lat="40.2483961" lon="15.5766207"><ele>579.25</ele><time>2026-05-03T14:25:26.574Z</time></trkpt><trkpt lat="40.248482" lon="15.5764654"><ele>580.5</ele><time>2026-05-03T14:25:27.566Z</time></trkpt><trkpt lat="40.2485695" lon="15.5763138"><ele>581.75</ele><time>2026-05-03T14:25:28.566Z</time></trkpt><trkpt lat="40.2486322" lon="15.5761517"><ele>583.0</ele><time>2026-05-03T14:25:29.578Z</time></trkpt><trkpt lat="40.2486261" lon="15.5759676"><ele>583.3333333333334</ele><time>2026-05-03T14:25:30.607Z</time></trkpt><trkpt lat="40.248589" lon="15.5757645"><ele>583.6666666666666</ele><time>2026-05-03T14:25:31.579Z</time></trkpt><trkpt lat="40.2485244" lon="15.5755598"><ele>584.0</ele><time>2026-05-03T14:25:32.575Z</time></trkpt><trkpt lat="40.2484112" lon="15.5753733"><ele>585.0</ele><time>2026-05-03T14:25:33.58Z</time></trkpt><trkpt lat="40.2482866" lon="15.5752096"><ele>586.0</ele><time>2026-05-03T14:25:34.575Z</time></trkpt><trkpt lat="40.2481755" lon="15.5750689"><ele>587.0</ele><time>2026-05-03T14:25:35.582Z</time></trkpt><trkpt lat="40.2480848" lon="15.5749387"><ele>582.0</ele><time>2026-05-03T14:25:36.559Z</time></trkpt><trkpt lat="40.2480269" lon="15.5747937"><ele>577.0</ele><time>2026-05-03T14:25:37.547Z</time></trkpt><trkpt lat="40.2480053" lon="15.5746249"><ele>572.0</ele><time>2026-05-03T14:25:38.582Z</time></trkpt><trkpt lat="40.2480174" lon="15.574429"><ele>567.0</ele><time>2026-05-03T14:25:39.545Z</time></trkpt><trkpt lat="40.2480506" lon="15.574242"><ele>566.75</ele><time>2026-05-03T14:25:40.552Z</time></trkpt><trkpt lat="40.2480999" lon="15.5740594"><ele>566.5</ele><time>2026-05-03T14:25:41.573Z</time></trkpt><trkpt lat="40.2481813" lon="15.5739109"><ele>566.25</ele><time>2026-05-03T14:25:42.556Z</time></trkpt><trkpt lat="40.2483062" lon="15.573788"><ele>566.0</ele><time>2026-05-03T14:25:43.566Z</time></trkpt><trkpt lat="40.2484342" lon="15.5736932"><ele>568.6</ele><time>2026-05-03T14:25:44.594Z</time></trkpt><trkpt lat="40.2485381" lon="15.5735995"><ele>571.2</ele><time>2026-05-03T14:25:45.567Z</time></trkpt><trkpt lat="40.2486112" lon="15.5734852"><ele>573.8</ele><time>2026-05-03T14:25:46.556Z</time></trkpt><trkpt lat="40.2486488" lon="15.5733586"><ele>576.4</ele><time>2026-05-03T14:25:47.585Z</time></trkpt><trkpt lat="40.2486355" lon="15.5732271"><ele>579.0</ele><time>2026-05-03T14:25:48.573Z</time></trkpt><trkpt lat="40.2485739" lon="15.5730868"><ele>579.0</ele><time>2026-05-03T14:25:49.583Z</time></trkpt><trkpt lat="40.2484912" lon="15.5729434"><ele>579.0</ele><time>2026-05-03T14:25:50.57Z</time></trkpt><trkpt lat="40.2483961" lon="15.5727881"><ele>579.0</ele><time>2026-05-03T14:25:51.571Z</time></trkpt><trkpt lat="40.2483026" lon="15.5726127"><ele>579.25</ele><time>2026-05-03T14:25:52.579Z</time></trkpt><trkpt lat="40.2482478" lon="15.5724441"><ele>579.5</ele><time>2026-05-03T14:25:53.582Z</time></trkpt><trkpt lat="40.2482251" lon="15.5722797"><ele>579.75</ele><time>2026-05-03T14:25:54.582Z</time></trkpt><trkpt lat="40.2482404" lon="15.5721168"><ele>580.0</ele><time>2026-05-03T14:25:55.566Z</time></trkpt><trkpt lat="40.2482928" lon="15.5719543"><ele>579.5</ele><time>2026-05-03T14:25:56.566Z</time></trkpt><trkpt lat="40.2483638" lon="15.5717918"><ele>579.0</ele><time>2026-05-03T14:25:57.555Z</time></trkpt><trkpt lat="40.248412" lon="15.5716396"><ele>578.5</ele><time>2026-05-03T14:25:58.579Z</time></trkpt><trkpt lat="40.2484209" lon="15.5714817"><ele>578.0</ele><time>2026-05-03T14:25:59.572Z</time></trkpt><trkpt lat="40.2483909" lon="15.5713397"><ele>578.0</ele><time>2026-05-03T14:26:00.573Z</time></trkpt><trkpt lat="40.2483232" lon="15.5711955"><ele>578.0</ele><time>2026-05-03T14:26:01.569Z</time></trkpt><trkpt lat="40.2482221" lon="15.5710648"><ele>578.0</ele><time>2026-05-03T14:26:02.577Z</time></trkpt><trkpt lat="40.2480861" lon="15.5709556"><ele>578.0</ele><time>2026-05-03T14:26:03.567Z</time></trkpt><trkpt lat="40.2479323" lon="15.5708777"><ele>576.0</ele><time>2026-05-03T14:26:04.569Z</time></trkpt><trkpt lat="40.2477884" lon="15.5708417"><ele>574.0</ele><time>2026-05-03T14:26:05.571Z</time></trkpt><trkpt lat="40.2476694" lon="15.5708101"><ele>572.0</ele><time>2026-05-03T14:26:06.579Z</time></trkpt><trkpt lat="40.2475748" lon="15.5707566"><ele>570.0</ele><time>2026-05-03T14:26:07.58Z</time></trkpt><trkpt lat="40.2475007" lon="15.5706518"><ele>570.0</ele><time>2026-05-03T14:26:08.6Z</time></trkpt><trkpt lat="40.2474535" lon="15.5704958"><ele>570.0</ele><time>2026-05-03T14:26:09.577Z</time></trkpt><trkpt lat="40.2474252" lon="15.5703118"><ele>570.0</ele><time>2026-05-03T14:26:10.571Z</time></trkpt><trkpt lat="40.2474103" lon="15.5701226"><ele>570.0</ele><time>2026-05-03T14:26:11.568Z</time></trkpt><trkpt lat="40.2474094" lon="15.5699264"><ele>571.0</ele><time>2026-05-03T14:26:12.581Z</time></trkpt><trkpt lat="40.2474396" lon="15.5697423"><ele>572.0</ele><time>2026-05-03T14:26:13.586Z</time></trkpt><trkpt lat="40.2474856" lon="15.569546"><ele>573.0</ele><time>2026-05-03T14:26:14.573Z</time></trkpt><trkpt lat="40.2475201" lon="15.569359"><ele>574.0</ele><time>2026-05-03T14:26:15.545Z</time></trkpt><trkpt lat="40.2475391" lon="15.5691903"><ele>574.0</ele><time>2026-05-03T14:26:16.565Z</time></trkpt><trkpt lat="40.2475161" lon="15.5690137"><ele>574.0</ele><time>2026-05-03T14:26:17.572Z</time></trkpt><trkpt lat="40.2474588" lon="15.5688293"><ele>574.0</ele><time>2026-05-03T14:26:18.582Z</time></trkpt><trkpt lat="40.2473924" lon="15.5686371"><ele>575.6666666666667</ele><time>2026-05-03T14:26:19.569Z</time></trkpt><trkpt lat="40.2473289" lon="15.5684424"><ele>577.3333333333334</ele><time>2026-05-03T14:26:20.575Z</time></trkpt><trkpt lat="40.2472921" lon="15.5682118"><ele>579.0</ele><time>2026-05-03T14:26:21.584Z</time></trkpt><trkpt lat="40.2472628" lon="15.5679634"><ele>578.3333333333334</ele><time>2026-05-03T14:26:22.548Z</time></trkpt><trkpt lat="40.2472681" lon="15.5677131"><ele>577.6666666666667</ele><time>2026-05-03T14:26:23.563Z</time></trkpt><trkpt lat="40.2472934" lon="15.567452"><ele>577.0</ele><time>2026-05-03T14:26:24.565Z</time></trkpt><trkpt lat="40.247315" lon="15.5671946"><ele>574.6666666666667</ele><time>2026-05-03T14:26:25.595Z</time></trkpt><trkpt lat="40.2473353" lon="15.5669438"><ele>572.3333333333334</ele><time>2026-05-03T14:26:26.583Z</time></trkpt><trkpt lat="40.2473556" lon="15.5667161"><ele>570.0</ele><time>2026-05-03T14:26:27.581Z</time></trkpt><trkpt lat="40.2473745" lon="15.5665243"><ele>570.0</ele><time>2026-05-03T14:26:28.584Z</time></trkpt><trkpt lat="40.2473744" lon="15.5663376"><ele>570.0</ele><time>2026-05-03T14:26:29.585Z</time></trkpt><trkpt lat="40.2473477" lon="15.5661438"><ele>570.0</ele><time>2026-05-03T14:26:30.573Z</time></trkpt><trkpt lat="40.2472936" lon="15.5659447"><ele>565.6666666666666</ele><time>2026-05-03T14:26:31.592Z</time></trkpt><trkpt lat="40.2472246" lon="15.565748"><ele>561.3333333333333</ele><time>2026-05-03T14:26:32.577Z</time></trkpt><trkpt lat="40.247145" lon="15.5655537"><ele>557.0</ele><time>2026-05-03T14:26:33.586Z</time></trkpt><trkpt lat="40.2470649" lon="15.5653514"><ele>556.3333333333333</ele><time>2026-05-03T14:26:34.58Z</time></trkpt><trkpt lat="40.2469948" lon="15.5651364"><ele>555.6666666666666</ele><time>2026-05-03T14:26:35.582Z</time></trkpt><trkpt lat="40.2469408" lon="15.5649447"><ele>555.0</ele><time>2026-05-03T14:26:36.576Z</time></trkpt><trkpt lat="40.246919" lon="15.5647694"><ele>555.0</ele><time>2026-05-03T14:26:37.602Z</time></trkpt><trkpt lat="40.246925" lon="15.5645888"><ele>555.0</ele><time>2026-05-03T14:26:38.582Z</time></trkpt><trkpt lat="40.2469506" lon="15.5644187"><ele>555.0</ele><time>2026-05-03T14:26:39.574Z</time></trkpt><trkpt lat="40.2469862" lon="15.5642514"><ele>555.0</ele><time>2026-05-03T14:26:40.57Z</time></trkpt><trkpt lat="40.2470267" lon="15.5640731"><ele>555.3333333333334</ele><time>2026-05-03T14:26:41.577Z</time></trkpt><trkpt lat="40.2470689" lon="15.5638816"><ele>555.6666666666667</ele><time>2026-05-03T14:26:42.583Z</time></trkpt><trkpt lat="40.2471115" lon="15.5636772"><ele>556.0</ele><time>2026-05-03T14:26:43.582Z</time></trkpt><trkpt lat="40.2471576" lon="15.5634914"><ele>556.0</ele><time>2026-05-03T14:26:44.576Z</time></trkpt><trkpt lat="40.2471936" lon="15.5633327"><ele>556.0</ele><time>2026-05-03T14:26:45.571Z</time></trkpt><trkpt lat="40.2472231" lon="15.5631941"><ele>556.0</ele><time>2026-05-03T14:26:46.582Z</time></trkpt><trkpt lat="40.2472623" lon="15.563086"><ele>556.0</ele><time>2026-05-03T14:26:47.588Z</time></trkpt><trkpt lat="40.2473283" lon="15.5630071"><ele>556.0</ele><time>2026-05-03T14:26:48.574Z</time></trkpt><trkpt lat="40.2474243" lon="15.5629659"><ele>557.75</ele><time>2026-05-03T14:26:49.573Z</time></trkpt><trkpt lat="40.2475301" lon="15.5629674"><ele>559.5</ele><time>2026-05-03T14:26:50.584Z</time></trkpt><trkpt lat="40.2476509" lon="15.5629879"><ele>561.25</ele><time>2026-05-03T14:26:51.592Z</time></trkpt><trkpt lat="40.247789" lon="15.5630153"><ele>563.0</ele><time>2026-05-03T14:26:52.581Z</time></trkpt><trkpt lat="40.2479349" lon="15.5630273"><ele>563.0</ele><time>2026-05-03T14:26:53.583Z</time></trkpt><trkpt lat="40.2480618" lon="15.5630342"><ele>563.0</ele><time>2026-05-03T14:26:54.574Z</time></trkpt><trkpt lat="40.2481751" lon="15.5630306"><ele>563.0</ele><time>2026-05-03T14:26:55.565Z</time></trkpt><trkpt lat="40.2482658" lon="15.5630217"><ele>563.0</ele><time>2026-05-03T14:26:56.565Z</time></trkpt><trkpt lat="40.2483273" lon="15.5630021"><ele>563.0</ele><time>2026-05-03T14:26:57.552Z</time></trkpt><trkpt lat="40.2483832" lon="15.5629564"><ele>563.0</ele><time>2026-05-03T14:26:59.566Z</time></trkpt><trkpt lat="40.248397" lon="15.5628468"><ele>563.0</ele><time>2026-05-03T14:27:16.565Z</time></trkpt><trkpt lat="40.2483991" lon="15.5626737"><ele>563.0</ele><time>2026-05-03T14:27:18.56Z</time></trkpt><trkpt lat="40.2483643" lon="15.562582"><ele>563.0</ele><time>2026-05-03T14:27:19.588Z</time></trkpt><trkpt lat="40.2483079" lon="15.5624925"><ele>563.0</ele><time>2026-05-03T14:27:20.596Z</time></trkpt><trkpt lat="40.2482169" lon="15.5624139"><ele>562.0</ele><time>2026-05-03T14:27:21.58Z</time></trkpt><trkpt lat="40.248108" lon="15.5623465"><ele>561.0</ele><time>2026-05-03T14:27:22.584Z</time></trkpt><trkpt lat="40.2479872" lon="15.5622696"><ele>560.0</ele><time>2026-05-03T14:27:23.574Z</time></trkpt><trkpt lat="40.2478511" lon="15.562193"><ele>559.0</ele><time>2026-05-03T14:27:24.578Z</time></trkpt><trkpt lat="40.2477193" lon="15.5621184"><ele>559.0</ele><time>2026-05-03T14:27:25.589Z</time></trkpt><trkpt lat="40.2475925" lon="15.5620563"><ele>559.0</ele><time>2026-05-03T14:27:26.583Z</time></trkpt><trkpt lat="40.2474812" lon="15.5620173"><ele>559.0</ele><time>2026-05-03T14:27:27.581Z</time></trkpt><trkpt lat="40.2473914" lon="15.5619936"><ele>559.0</ele><time>2026-05-03T14:27:28.582Z</time></trkpt><trkpt lat="40.2473093" lon="15.561967"><ele>559.0</ele><time>2026-05-03T14:27:29.574Z</time></trkpt><trkpt lat="40.2472212" lon="15.5619427"><ele>558.4</ele><time>2026-05-03T14:27:30.578Z</time></trkpt><trkpt lat="40.2471147" lon="15.5619152"><ele>557.8</ele><time>2026-05-03T14:27:31.567Z</time></trkpt><trkpt lat="40.2470024" lon="15.561881"><ele>557.2</ele><time>2026-05-03T14:27:32.538Z</time></trkpt><trkpt lat="40.2469031" lon="15.561845"><ele>556.6</ele><time>2026-05-03T14:27:33.546Z</time></trkpt><trkpt lat="40.246811" lon="15.5617985"><ele>556.0</ele><time>2026-05-03T14:27:34.556Z</time></trkpt><trkpt lat="40.2467274" lon="15.5617136"><ele>556.0</ele><time>2026-05-03T14:27:35.57Z</time></trkpt><trkpt lat="40.2466598" lon="15.5615836"><ele>556.0</ele><time>2026-05-03T14:27:36.568Z</time></trkpt><trkpt lat="40.2466104" lon="15.5614183"><ele>556.0</ele><time>2026-05-03T14:27:37.575Z</time></trkpt><trkpt lat="40.2465713" lon="15.5612453"><ele>556.0</ele><time>2026-05-03T14:27:38.57Z</time></trkpt><trkpt lat="40.246536" lon="15.5610745"><ele>557.25</ele><time>2026-05-03T14:27:39.581Z</time></trkpt><trkpt lat="40.2464996" lon="15.5609195"><ele>558.5</ele><time>2026-05-03T14:27:40.578Z</time></trkpt><trkpt lat="40.2464789" lon="15.5607649"><ele>559.75</ele><time>2026-05-03T14:27:41.584Z</time></trkpt><trkpt lat="40.2464726" lon="15.5606113"><ele>561.0</ele><time>2026-05-03T14:27:42.592Z</time></trkpt><trkpt lat="40.2464679" lon="15.5604478"><ele>561.75</ele><time>2026-05-03T14:27:43.592Z</time></trkpt><trkpt lat="40.2464745" lon="15.5602729"><ele>562.5</ele><time>2026-05-03T14:27:44.583Z</time></trkpt><trkpt lat="40.2464894" lon="15.5600956"><ele>563.25</ele><time>2026-05-03T14:27:45.553Z</time></trkpt><trkpt lat="40.2465041" lon="15.5599153"><ele>564.0</ele><time>2026-05-03T14:27:46.578Z</time></trkpt><trkpt lat="40.2465109" lon="15.5597335"><ele>564.0</ele><time>2026-05-03T14:27:47.594Z</time></trkpt><trkpt lat="40.2465114" lon="15.5595443"><ele>564.0</ele><time>2026-05-03T14:27:48.558Z</time></trkpt><trkpt lat="40.2465003" lon="15.5593487"><ele>564.0</ele><time>2026-05-03T14:27:49.581Z</time></trkpt><trkpt lat="40.246479" lon="15.5591421"><ele>557.6666666666666</ele><time>2026-05-03T14:27:50.576Z</time></trkpt><trkpt lat="40.2464502" lon="15.5589399"><ele>551.3333333333333</ele><time>2026-05-03T14:27:51.572Z</time></trkpt><trkpt lat="40.2464191" lon="15.5587457"><ele>545.0</ele><time>2026-05-03T14:27:52.571Z</time></trkpt><trkpt lat="40.2463952" lon="15.5585496"><ele>545.0</ele><time>2026-05-03T14:27:53.57Z</time></trkpt><trkpt lat="40.246377" lon="15.5583697"><ele>545.0</ele><time>2026-05-03T14:27:54.571Z</time></trkpt><trkpt lat="40.2463679" lon="15.5582042"><ele>545.0</ele><time>2026-05-03T14:27:55.558Z</time></trkpt><trkpt lat="40.2463559" lon="15.5580285"><ele>545.0</ele><time>2026-05-03T14:27:56.56Z</time></trkpt><trkpt lat="40.246349" lon="15.55785"><ele>545.5</ele><time>2026-05-03T14:27:57.585Z</time></trkpt><trkpt lat="40.2463306" lon="15.557673"><ele>546.0</ele><time>2026-05-03T14:27:58.572Z</time></trkpt><trkpt lat="40.2463094" lon="15.5574962"><ele>546.5</ele><time>2026-05-03T14:27:59.578Z</time></trkpt><trkpt lat="40.2462741" lon="15.5573256"><ele>547.0</ele><time>2026-05-03T14:28:00.586Z</time></trkpt><trkpt lat="40.2462358" lon="15.5571612"><ele>547.6</ele><time>2026-05-03T14:28:01.559Z</time></trkpt><trkpt lat="40.2461917" lon="15.5570064"><ele>548.2</ele><time>2026-05-03T14:28:02.572Z</time></trkpt><trkpt lat="40.2461518" lon="15.5568749"><ele>548.8</ele><time>2026-05-03T14:28:03.585Z</time></trkpt><trkpt lat="40.246119" lon="15.5567664"><ele>549.4</ele><time>2026-05-03T14:28:04.578Z</time></trkpt><trkpt lat="40.2460918" lon="15.5566736"><ele>550.0</ele><time>2026-05-03T14:28:05.579Z</time></trkpt><trkpt lat="40.246074" lon="15.5565898"><ele>550.0</ele><time>2026-05-03T14:28:06.571Z</time></trkpt><trkpt lat="40.2460495" lon="15.5564667"><ele>550.0</ele><time>2026-05-03T14:28:08.59Z</time></trkpt><trkpt lat="40.2460284" lon="15.5563802"><ele>550.0</ele><time>2026-05-03T14:28:17.563Z</time></trkpt><trkpt lat="40.2460044" lon="15.5562898"><ele>550.0</ele><time>2026-05-03T14:28:21.57Z</time></trkpt><trkpt lat="40.2459579" lon="15.5562131"><ele>550.0</ele><time>2026-05-03T14:29:07.582Z</time></trkpt><trkpt lat="40.2459115" lon="15.5560622"><ele>550.0</ele><time>2026-05-03T14:29:09.582Z</time></trkpt><trkpt lat="40.2458825" lon="15.5559533"><ele>550.6</ele><time>2026-05-03T14:29:10.563Z</time></trkpt><trkpt lat="40.24585" lon="15.5558267"><ele>551.2</ele><time>2026-05-03T14:29:11.571Z</time></trkpt><trkpt lat="40.2458121" lon="15.5557042"><ele>551.8</ele><time>2026-05-03T14:29:12.563Z</time></trkpt><trkpt lat="40.245773" lon="15.5555778"><ele>552.4</ele><time>2026-05-03T14:29:13.558Z</time></trkpt><trkpt lat="40.2457349" lon="15.5554551"><ele>553.0</ele><time>2026-05-03T14:29:14.559Z</time></trkpt><trkpt lat="40.245691" lon="15.5553434"><ele>554.1666666666667</ele><time>2026-05-03T14:29:15.563Z</time></trkpt><trkpt lat="40.2456444" lon="15.5552535"><ele>555.3333333333334</ele><time>2026-05-03T14:29:16.558Z</time></trkpt><trkpt lat="40.2456054" lon="15.5551679"><ele>556.5</ele><time>2026-05-03T14:29:17.581Z</time></trkpt><trkpt lat="40.245566" lon="15.5550674"><ele>557.6666666666666</ele><time>2026-05-03T14:29:18.566Z</time></trkpt><trkpt lat="40.2455236" lon="15.5549638"><ele>558.8333333333333</ele><time>2026-05-03T14:29:19.566Z</time></trkpt><trkpt lat="40.2454774" lon="15.5548486"><ele>560.0</ele><time>2026-05-03T14:29:20.558Z</time></trkpt><trkpt lat="40.245435" lon="15.5547194"><ele>557.25</ele><time>2026-05-03T14:29:21.572Z</time></trkpt><trkpt lat="40.2454023" lon="15.5545813"><ele>554.5</ele><time>2026-05-03T14:29:22.575Z</time></trkpt><trkpt lat="40.2453754" lon="15.5544428"><ele>551.75</ele><time>2026-05-03T14:29:23.56Z</time></trkpt><trkpt lat="40.245341" lon="15.5542909"><ele>549.0</ele><time>2026-05-03T14:29:24.572Z</time></trkpt><trkpt lat="40.2453055" lon="15.5541433"><ele>549.0</ele><time>2026-05-03T14:29:25.578Z</time></trkpt><trkpt lat="40.2452617" lon="15.5539871"><ele>549.0</ele><time>2026-05-03T14:29:26.558Z</time></trkpt><trkpt lat="40.2452078" lon="15.5538293"><ele>549.0</ele><time>2026-05-03T14:29:27.59Z</time></trkpt><trkpt lat="40.2451483" lon="15.5536676"><ele>549.0</ele><time>2026-05-03T14:29:28.59Z</time></trkpt><trkpt lat="40.2450799" lon="15.5535001"><ele>550.25</ele><time>2026-05-03T14:29:29.584Z</time></trkpt><trkpt lat="40.2450062" lon="15.5533334"><ele>551.5</ele><time>2026-05-03T14:29:30.58Z</time></trkpt><trkpt lat="40.2449336" lon="15.5531848"><ele>552.75</ele><time>2026-05-03T14:29:31.58Z</time></trkpt><trkpt lat="40.2448698" lon="15.5530469"><ele>554.0</ele><time>2026-05-03T14:29:32.582Z</time></trkpt><trkpt lat="40.24482" lon="15.5529226"><ele>555.2</ele><time>2026-05-03T14:29:33.584Z</time></trkpt><trkpt lat="40.2447836" lon="15.5528066"><ele>556.4</ele><time>2026-05-03T14:29:34.579Z</time></trkpt><trkpt lat="40.2447566" lon="15.5527001"><ele>557.6</ele><time>2026-05-03T14:29:35.582Z</time></trkpt><trkpt lat="40.2447425" lon="15.5525819"><ele>558.8</ele><time>2026-05-03T14:29:36.584Z</time></trkpt><trkpt lat="40.2447421" lon="15.5524422"><ele>560.0</ele><time>2026-05-03T14:29:37.583Z</time></trkpt><trkpt lat="40.2447504" lon="15.5522874"><ele>560.0</ele><time>2026-05-03T14:29:38.562Z</time></trkpt><trkpt lat="40.2447657" lon="15.5521218"><ele>560.0</ele><time>2026-05-03T14:29:39.598Z</time></trkpt><trkpt lat="40.2447812" lon="15.5519409"><ele>560.0</ele><time>2026-05-03T14:29:40.58Z</time></trkpt><trkpt lat="40.2447974" lon="15.5517564"><ele>560.0</ele><time>2026-05-03T14:29:41.559Z</time></trkpt><trkpt lat="40.2448172" lon="15.5515649"><ele>558.25</ele><time>2026-05-03T14:29:42.572Z</time></trkpt><trkpt lat="40.2448377" lon="15.5513723"><ele>556.5</ele><time>2026-05-03T14:29:43.568Z</time></trkpt><trkpt lat="40.2448627" lon="15.5511822"><ele>554.75</ele><time>2026-05-03T14:29:44.576Z</time></trkpt><trkpt lat="40.244887" lon="15.5510159"><ele>553.0</ele><time>2026-05-03T14:29:45.584Z</time></trkpt><trkpt lat="40.2448959" lon="15.5508642"><ele>552.4</ele><time>2026-05-03T14:29:46.588Z</time></trkpt><trkpt lat="40.2448903" lon="15.5507202"><ele>551.8</ele><time>2026-05-03T14:29:47.588Z</time></trkpt><trkpt lat="40.2448701" lon="15.5505808"><ele>551.2</ele><time>2026-05-03T14:29:48.576Z</time></trkpt><trkpt lat="40.2448338" lon="15.5504441"><ele>550.6</ele><time>2026-05-03T14:29:49.569Z</time></trkpt><trkpt lat="40.24478" lon="15.5503147"><ele>550.0</ele><time>2026-05-03T14:29:50.575Z</time></trkpt><trkpt lat="40.2447279" lon="15.5502064"><ele>549.0</ele><time>2026-05-03T14:29:51.577Z</time></trkpt><trkpt lat="40.2446576" lon="15.5501139"><ele>548.0</ele><time>2026-05-03T14:29:52.584Z</time></trkpt><trkpt lat="40.2445705" lon="15.5500309"><ele>547.0</ele><time>2026-05-03T14:29:53.574Z</time></trkpt><trkpt lat="40.2444575" lon="15.5499688"><ele>546.0</ele><time>2026-05-03T14:29:54.583Z</time></trkpt><trkpt lat="40.244332" lon="15.5499081"><ele>546.0</ele><time>2026-05-03T14:29:55.57Z</time></trkpt><trkpt lat="40.2442053" lon="15.5498478"><ele>546.0</ele><time>2026-05-03T14:29:56.589Z</time></trkpt><trkpt lat="40.2440799" lon="15.5497687"><ele>546.0</ele><time>2026-05-03T14:29:57.578Z</time></trkpt><trkpt lat="40.2439601" lon="15.5496549"><ele>546.0</ele><time>2026-05-03T14:29:58.58Z</time></trkpt><trkpt lat="40.2438355" lon="15.5495308"><ele>545.6666666666666</ele><time>2026-05-03T14:29:59.574Z</time></trkpt><trkpt lat="40.2437113" lon="15.5494028"><ele>545.3333333333333</ele><time>2026-05-03T14:30:00.585Z</time></trkpt><trkpt lat="40.2435817" lon="15.5492764"><ele>545.0</ele><time>2026-05-03T14:30:01.557Z</time></trkpt><trkpt lat="40.2434526" lon="15.5491421"><ele>545.0</ele><time>2026-05-03T14:30:02.586Z</time></trkpt><trkpt lat="40.2433151" lon="15.5490038"><ele>545.0</ele><time>2026-05-03T14:30:03.56Z</time></trkpt><trkpt lat="40.2431836" lon="15.548871"><ele>545.0</ele><time>2026-05-03T14:30:04.588Z</time></trkpt><trkpt lat="40.2430438" lon="15.5487413"><ele>540.6666666666666</ele><time>2026-05-03T14:30:05.593Z</time></trkpt><trkpt lat="40.2428983" lon="15.5486104"><ele>536.3333333333334</ele><time>2026-05-03T14:30:06.58Z</time></trkpt><trkpt lat="40.2427577" lon="15.5484747"><ele>532.0</ele><time>2026-05-03T14:30:07.594Z</time></trkpt><trkpt lat="40.24262" lon="15.5483461"><ele>532.0</ele><time>2026-05-03T14:30:08.567Z</time></trkpt><trkpt lat="40.2425001" lon="15.5482393"><ele>532.0</ele><time>2026-05-03T14:30:09.57Z</time></trkpt><trkpt lat="40.2423931" lon="15.5481463"><ele>532.0</ele><time>2026-05-03T14:30:10.588Z</time></trkpt><trkpt lat="40.2422863" lon="15.548049"><ele>532.0</ele><time>2026-05-03T14:30:11.581Z</time></trkpt><trkpt lat="40.2421705" lon="15.5479472"><ele>526.6666666666667</ele><time>2026-05-03T14:30:12.577Z</time></trkpt><trkpt lat="40.2420362" lon="15.5478458"><ele>521.3333333333334</ele><time>2026-05-03T14:30:13.583Z</time></trkpt><trkpt lat="40.2418916" lon="15.5477509"><ele>516.0</ele><time>2026-05-03T14:30:14.564Z</time></trkpt><trkpt lat="40.2417402" lon="15.5476546"><ele>516.0</ele><time>2026-05-03T14:30:15.579Z</time></trkpt><trkpt lat="40.2415916" lon="15.5475691"><ele>516.0</ele><time>2026-05-03T14:30:16.587Z</time></trkpt><trkpt lat="40.2414428" lon="15.5474998"><ele>516.0</ele><time>2026-05-03T14:30:17.578Z</time></trkpt><trkpt lat="40.2412872" lon="15.5474492"><ele>515.6666666666666</ele><time>2026-05-03T14:30:18.589Z</time></trkpt><trkpt lat="40.2411216" lon="15.547421"><ele>515.3333333333333</ele><time>2026-05-03T14:30:19.59Z</time></trkpt><trkpt lat="40.2409663" lon="15.5473935"><ele>515.0</ele><time>2026-05-03T14:30:20.575Z</time></trkpt><trkpt lat="40.2408221" lon="15.5473821"><ele>515.0</ele><time>2026-05-03T14:30:21.591Z</time></trkpt><trkpt lat="40.2406965" lon="15.5473833"><ele>515.0</ele><time>2026-05-03T14:30:22.606Z</time></trkpt><trkpt lat="40.2405709" lon="15.547408"><ele>515.0</ele><time>2026-05-03T14:30:23.576Z</time></trkpt><trkpt lat="40.2404445" lon="15.5474637"><ele>515.0</ele><time>2026-05-03T14:30:24.569Z</time></trkpt><trkpt lat="40.240316" lon="15.5475532"><ele>514.75</ele><time>2026-05-03T14:30:25.575Z</time></trkpt><trkpt lat="40.240198" lon="15.5476496"><ele>514.5</ele><time>2026-05-03T14:30:26.566Z</time></trkpt><trkpt lat="40.2400964" lon="15.5477632"><ele>514.25</ele><time>2026-05-03T14:30:27.58Z</time></trkpt><trkpt lat="40.2400132" lon="15.5478804"><ele>514.0</ele><time>2026-05-03T14:30:28.577Z</time></trkpt><trkpt lat="40.2399486" lon="15.5480089"><ele>514.0</ele><time>2026-05-03T14:30:29.552Z</time></trkpt><trkpt lat="40.239901" lon="15.5481592"><ele>514.0</ele><time>2026-05-03T14:30:30.562Z</time></trkpt><trkpt lat="40.2398668" lon="15.5483357"><ele>514.0</ele><time>2026-05-03T14:30:31.584Z</time></trkpt><trkpt lat="40.2398407" lon="15.5485193"><ele>514.0</ele><time>2026-05-03T14:30:32.582Z</time></trkpt><trkpt lat="40.2398169" lon="15.548722"><ele>503.6666666666667</ele><time>2026-05-03T14:30:33.553Z</time></trkpt><trkpt lat="40.2397964" lon="15.5489311"><ele>493.33333333333337</ele><time>2026-05-03T14:30:34.571Z</time></trkpt><trkpt lat="40.2397678" lon="15.54915"><ele>483.0</ele><time>2026-05-03T14:30:35.577Z</time></trkpt><trkpt lat="40.2397402" lon="15.5493775"><ele>483.33333333333337</ele><time>2026-05-03T14:30:36.572Z</time></trkpt><trkpt lat="40.2397217" lon="15.5496116"><ele>483.6666666666667</ele><time>2026-05-03T14:30:37.578Z</time></trkpt><trkpt lat="40.2397027" lon="15.5498485"><ele>484.0</ele><time>2026-05-03T14:30:38.582Z</time></trkpt><trkpt lat="40.2396825" lon="15.5500934"><ele>484.0</ele><time>2026-05-03T14:30:39.576Z</time></trkpt><trkpt lat="40.2396684" lon="15.5503306"><ele>484.0</ele><time>2026-05-03T14:30:40.55Z</time></trkpt><trkpt lat="40.2396545" lon="15.5505628"><ele>484.0</ele><time>2026-05-03T14:30:41.582Z</time></trkpt><trkpt lat="40.2396526" lon="15.5507956"><ele>484.0</ele><time>2026-05-03T14:30:42.563Z</time></trkpt><trkpt lat="40.2396628" lon="15.551033"><ele>484.0</ele><time>2026-05-03T14:30:43.584Z</time></trkpt><trkpt lat="40.2396719" lon="15.5512774"><ele>484.0</ele><time>2026-05-03T14:30:44.584Z</time></trkpt><trkpt lat="40.2396747" lon="15.5515235"><ele>484.0</ele><time>2026-05-03T14:30:45.578Z</time></trkpt><trkpt lat="40.2396678" lon="15.5517485"><ele>484.0</ele><time>2026-05-03T14:30:46.576Z</time></trkpt><trkpt lat="40.2396626" lon="15.5519668"><ele>484.0</ele><time>2026-05-03T14:30:47.574Z</time></trkpt><trkpt lat="40.2396604" lon="15.5521737"><ele>483.75</ele><time>2026-05-03T14:30:48.555Z</time></trkpt><trkpt lat="40.2396578" lon="15.5523752"><ele>483.5</ele><time>2026-05-03T14:30:49.58Z</time></trkpt><trkpt lat="40.2396577" lon="15.5525549"><ele>483.25</ele><time>2026-05-03T14:30:50.56Z</time></trkpt><trkpt lat="40.2396518" lon="15.552714"><ele>483.0</ele><time>2026-05-03T14:30:51.583Z</time></trkpt><trkpt lat="40.23965" lon="15.5528596"><ele>483.4</ele><time>2026-05-03T14:30:52.567Z</time></trkpt><trkpt lat="40.2396589" lon="15.5529878"><ele>483.79999999999995</ele><time>2026-05-03T14:30:53.578Z</time></trkpt><trkpt lat="40.2396837" lon="15.5531112"><ele>484.2</ele><time>2026-05-03T14:30:54.572Z</time></trkpt><trkpt lat="40.2397335" lon="15.5532351"><ele>484.6</ele><time>2026-05-03T14:30:55.579Z</time></trkpt><trkpt lat="40.2398042" lon="15.5533551"><ele>485.0</ele><time>2026-05-03T14:30:56.583Z</time></trkpt><trkpt lat="40.2398733" lon="15.553469"><ele>486.0</ele><time>2026-05-03T14:30:57.577Z</time></trkpt><trkpt lat="40.2399308" lon="15.553569"><ele>487.0</ele><time>2026-05-03T14:30:58.553Z</time></trkpt><trkpt lat="40.2399809" lon="15.5536557"><ele>488.0</ele><time>2026-05-03T14:30:59.576Z</time></trkpt><trkpt lat="40.2400379" lon="15.5537407"><ele>489.0</ele><time>2026-05-03T14:31:00.593Z</time></trkpt><trkpt lat="40.240108" lon="15.5538236"><ele>490.0</ele><time>2026-05-03T14:31:01.56Z</time></trkpt><trkpt lat="40.2401847" lon="15.5539138"><ele>490.0</ele><time>2026-05-03T14:31:02.569Z</time></trkpt><trkpt lat="40.2402831" lon="15.5539945"><ele>490.0</ele><time>2026-05-03T14:31:03.574Z</time></trkpt><trkpt lat="40.2403933" lon="15.5540807"><ele>490.0</ele><time>2026-05-03T14:31:04.574Z</time></trkpt><trkpt lat="40.2405088" lon="15.554175"><ele>490.0</ele><time>2026-05-03T14:31:05.571Z</time></trkpt><trkpt lat="40.2406234" lon="15.5542806"><ele>492.0</ele><time>2026-05-03T14:31:06.577Z</time></trkpt><trkpt lat="40.2407218" lon="15.5543903"><ele>494.0</ele><time>2026-05-03T14:31:07.572Z</time></trkpt><trkpt lat="40.2408066" lon="15.5545017"><ele>496.0</ele><time>2026-05-03T14:31:08.565Z</time></trkpt><trkpt lat="40.2408739" lon="15.5546196"><ele>498.0</ele><time>2026-05-03T14:31:09.566Z</time></trkpt><trkpt lat="40.2409253" lon="15.5547559"><ele>498.0</ele><time>2026-05-03T14:31:10.575Z</time></trkpt><trkpt lat="40.2409637" lon="15.5548964"><ele>498.0</ele><time>2026-05-03T14:31:11.567Z</time></trkpt><trkpt lat="40.2409859" lon="15.5550451"><ele>498.0</ele><time>2026-05-03T14:31:12.578Z</time></trkpt><trkpt lat="40.2409954" lon="15.5551953"><ele>498.0</ele><time>2026-05-03T14:31:13.576Z</time></trkpt><trkpt lat="40.2409922" lon="15.5553509"><ele>498.75</ele><time>2026-05-03T14:31:14.584Z</time></trkpt><trkpt lat="40.2409864" lon="15.5555172"><ele>499.5</ele><time>2026-05-03T14:31:15.573Z</time></trkpt><trkpt lat="40.240987" lon="15.5556943"><ele>500.25</ele><time>2026-05-03T14:31:16.572Z</time></trkpt><trkpt lat="40.2409925" lon="15.5558661"><ele>501.0</ele><time>2026-05-03T14:31:17.561Z</time></trkpt><trkpt lat="40.2409952" lon="15.5560192"><ele>501.0</ele><time>2026-05-03T14:31:18.575Z</time></trkpt><trkpt lat="40.2409929" lon="15.5561463"><ele>501.0</ele><time>2026-05-03T14:31:19.59Z</time></trkpt><trkpt lat="40.2409958" lon="15.5562668"><ele>501.0</ele><time>2026-05-03T14:31:20.57Z</time></trkpt><trkpt lat="40.2410112" lon="15.5563676"><ele>501.0</ele><time>2026-05-03T14:31:21.57Z</time></trkpt><trkpt lat="40.2410409" lon="15.5564484"><ele>501.0</ele><time>2026-05-03T14:31:22.571Z</time></trkpt><trkpt lat="40.2411379" lon="15.5565724"><ele>501.4</ele><time>2026-05-03T14:31:24.569Z</time></trkpt><trkpt lat="40.241192" lon="15.5566478"><ele>501.8</ele><time>2026-05-03T14:31:25.574Z</time></trkpt><trkpt lat="40.2412477" lon="15.5567436"><ele>502.19999999999993</ele><time>2026-05-03T14:31:26.585Z</time></trkpt><trkpt lat="40.2413033" lon="15.5568578"><ele>502.59999999999997</ele><time>2026-05-03T14:31:27.569Z</time></trkpt><trkpt lat="40.2413676" lon="15.5569743"><ele>503.0</ele><time>2026-05-03T14:31:28.574Z</time></trkpt><trkpt lat="40.2414431" lon="15.5570802"><ele>505.2</ele><time>2026-05-03T14:31:29.555Z</time></trkpt><trkpt lat="40.2415274" lon="15.5571904"><ele>507.4</ele><time>2026-05-03T14:31:30.547Z</time></trkpt><trkpt lat="40.2415913" lon="15.5572968"><ele>509.59999999999997</ele><time>2026-05-03T14:31:31.556Z</time></trkpt><trkpt lat="40.2416268" lon="15.5573864"><ele>511.79999999999995</ele><time>2026-05-03T14:31:32.575Z</time></trkpt><trkpt lat="40.2416205" lon="15.5575041"><ele>514.0</ele><time>2026-05-03T14:31:34.547Z</time></trkpt><trkpt lat="40.2415647" lon="15.5575434"><ele>514.0</ele><time>2026-05-03T14:31:35.548Z</time></trkpt><trkpt lat="40.2414726" lon="15.5576408"><ele>514.0</ele><time>2026-05-03T14:31:37.574Z</time></trkpt><trkpt lat="40.2413893" lon="15.557776"><ele>514.0</ele><time>2026-05-03T14:31:39.547Z</time></trkpt><trkpt lat="40.2413427" lon="15.5578527"><ele>514.0</ele><time>2026-05-03T14:31:40.547Z</time></trkpt><trkpt lat="40.2412937" lon="15.5579391"><ele>514.0</ele><time>2026-05-03T14:31:41.559Z</time></trkpt><trkpt lat="40.2412408" lon="15.5580345"><ele>512.8</ele><time>2026-05-03T14:31:42.55Z</time></trkpt><trkpt lat="40.2411803" lon="15.5581395"><ele>511.59999999999997</ele><time>2026-05-03T14:31:43.545Z</time></trkpt><trkpt lat="40.2411184" lon="15.5582522"><ele>510.4</ele><time>2026-05-03T14:31:44.54Z</time></trkpt><trkpt lat="40.2410601" lon="15.5583625"><ele>509.2</ele><time>2026-05-03T14:31:45.548Z</time></trkpt><trkpt lat="40.2410148" lon="15.5584565"><ele>508.0</ele><time>2026-05-03T14:31:46.538Z</time></trkpt><trkpt lat="40.2409942" lon="15.558563"><ele>508.0</ele><time>2026-05-03T14:31:47.546Z</time></trkpt><trkpt lat="40.2409884" lon="15.5586882"><ele>507.99999999999994</ele><time>2026-05-03T14:31:48.546Z</time></trkpt><trkpt lat="40.2409902" lon="15.5588141"><ele>507.99999999999994</ele><time>2026-05-03T14:31:49.571Z</time></trkpt><trkpt lat="40.2410083" lon="15.5589519"><ele>508.0</ele><time>2026-05-03T14:31:50.565Z</time></trkpt><trkpt lat="40.2410363" lon="15.5591063"><ele>508.0</ele><time>2026-05-03T14:31:51.578Z</time></trkpt><trkpt lat="40.2410681" lon="15.5592627"><ele>509.0</ele><time>2026-05-03T14:31:52.545Z</time></trkpt><trkpt lat="40.2411075" lon="15.5594362"><ele>510.0</ele><time>2026-05-03T14:31:53.552Z</time></trkpt><trkpt lat="40.2411442" lon="15.5596202"><ele>511.0</ele><time>2026-05-03T14:31:54.547Z</time></trkpt><trkpt lat="40.2411741" lon="15.5598053"><ele>512.0</ele><time>2026-05-03T14:31:55.545Z</time></trkpt><trkpt lat="40.2412096" lon="15.5599874"><ele>512.75</ele><time>2026-05-03T14:31:56.574Z</time></trkpt><trkpt lat="40.2412399" lon="15.560161"><ele>513.5</ele><time>2026-05-03T14:31:57.58Z</time></trkpt><trkpt lat="40.2412678" lon="15.5603292"><ele>514.25</ele><time>2026-05-03T14:31:58.594Z</time></trkpt><trkpt lat="40.2412865" lon="15.5604908"><ele>515.0</ele><time>2026-05-03T14:31:59.567Z</time></trkpt><trkpt lat="40.2412918" lon="15.560647"><ele>515.25</ele><time>2026-05-03T14:32:00.573Z</time></trkpt><trkpt lat="40.2412857" lon="15.5607941"><ele>515.5</ele><time>2026-05-03T14:32:01.589Z</time></trkpt><trkpt lat="40.2412746" lon="15.5609611"><ele>515.75</ele><time>2026-05-03T14:32:02.572Z</time></trkpt><trkpt lat="40.2412585" lon="15.5611459"><ele>516.0</ele><time>2026-05-03T14:32:03.577Z</time></trkpt><trkpt lat="40.2412352" lon="15.5613304"><ele>516.25</ele><time>2026-05-03T14:32:04.585Z</time></trkpt><trkpt lat="40.2412114" lon="15.561506"><ele>516.5</ele><time>2026-05-03T14:32:05.568Z</time></trkpt><trkpt lat="40.2411942" lon="15.5616722"><ele>516.75</ele><time>2026-05-03T14:32:06.591Z</time></trkpt><trkpt lat="40.2411829" lon="15.5618263"><ele>517.0</ele><time>2026-05-03T14:32:07.596Z</time></trkpt><trkpt lat="40.2411739" lon="15.5619755"><ele>517.4</ele><time>2026-05-03T14:32:08.58Z</time></trkpt><trkpt lat="40.2411554" lon="15.5621222"><ele>517.8000000000001</ele><time>2026-05-03T14:32:09.584Z</time></trkpt><trkpt lat="40.2411238" lon="15.5622532"><ele>518.2</ele><time>2026-05-03T14:32:10.581Z</time></trkpt><trkpt lat="40.2410729" lon="15.5623609"><ele>518.6</ele><time>2026-05-03T14:32:11.588Z</time></trkpt><trkpt lat="40.2410072" lon="15.5624386"><ele>519.0</ele><time>2026-05-03T14:32:12.58Z</time></trkpt><trkpt lat="40.2409343" lon="15.5624924"><ele>519.0</ele><time>2026-05-03T14:32:13.581Z</time></trkpt><trkpt lat="40.2408495" lon="15.5625287"><ele>519.0</ele><time>2026-05-03T14:32:14.585Z</time></trkpt><trkpt lat="40.2407583" lon="15.5625395"><ele>519.0</ele><time>2026-05-03T14:32:15.576Z</time></trkpt><trkpt lat="40.2406765" lon="15.5625278"><ele>519.0</ele><time>2026-05-03T14:32:16.574Z</time></trkpt><trkpt lat="40.2405894" lon="15.5624808"><ele>519.0</ele><time>2026-05-03T14:32:17.542Z</time></trkpt><trkpt lat="40.2405148" lon="15.5624106"><ele>519.0</ele><time>2026-05-03T14:32:18.577Z</time></trkpt><trkpt lat="40.240439" lon="15.5622898"><ele>523.75</ele><time>2026-05-03T14:32:19.588Z</time></trkpt><trkpt lat="40.240378" lon="15.5621432"><ele>528.5</ele><time>2026-05-03T14:32:20.58Z</time></trkpt><trkpt lat="40.2403312" lon="15.5619734"><ele>533.25</ele><time>2026-05-03T14:32:21.574Z</time></trkpt><trkpt lat="40.240288" lon="15.5617807"><ele>538.0</ele><time>2026-05-03T14:32:22.56Z</time></trkpt><trkpt lat="40.2402359" lon="15.5615734"><ele>538.0</ele><time>2026-05-03T14:32:23.566Z</time></trkpt><trkpt lat="40.2401937" lon="15.5613539"><ele>538.0</ele><time>2026-05-03T14:32:24.558Z</time></trkpt><trkpt lat="40.2401603" lon="15.5611339"><ele>538.0</ele><time>2026-05-03T14:32:25.561Z</time></trkpt><trkpt lat="40.2401225" lon="15.560911"><ele>535.0</ele><time>2026-05-03T14:32:26.569Z</time></trkpt><trkpt lat="40.2400816" lon="15.5606801"><ele>532.0</ele><time>2026-05-03T14:32:27.569Z</time></trkpt><trkpt lat="40.2400426" lon="15.5604401"><ele>529.0</ele><time>2026-05-03T14:32:28.575Z</time></trkpt><trkpt lat="40.2400063" lon="15.5601874"><ele>527.0</ele><time>2026-05-03T14:32:29.569Z</time></trkpt><trkpt lat="40.2399709" lon="15.5599247"><ele>525.0</ele><time>2026-05-03T14:32:30.567Z</time></trkpt><trkpt lat="40.2399336" lon="15.559661"><ele>523.0</ele><time>2026-05-03T14:32:31.567Z</time></trkpt><trkpt lat="40.2398962" lon="15.5593968"><ele>521.3333333333334</ele><time>2026-05-03T14:32:32.581Z</time></trkpt><trkpt lat="40.2398555" lon="15.5591311"><ele>519.6666666666666</ele><time>2026-05-03T14:32:33.571Z</time></trkpt><trkpt lat="40.2398159" lon="15.5588571"><ele>518.0</ele><time>2026-05-03T14:32:34.588Z</time></trkpt><trkpt lat="40.2397742" lon="15.5585749"><ele>524.0</ele><time>2026-05-03T14:32:35.584Z</time></trkpt><trkpt lat="40.239733" lon="15.5582906"><ele>530.0</ele><time>2026-05-03T14:32:36.582Z</time></trkpt><trkpt lat="40.2396882" lon="15.5580046"><ele>536.0</ele><time>2026-05-03T14:32:37.599Z</time></trkpt><trkpt lat="40.2396462" lon="15.5577154"><ele>536.0</ele><time>2026-05-03T14:32:38.59Z</time></trkpt><trkpt lat="40.2396074" lon="15.5574286"><ele>536.0</ele><time>2026-05-03T14:32:39.568Z</time></trkpt><trkpt lat="40.2395681" lon="15.5571436"><ele>536.0</ele><time>2026-05-03T14:32:40.589Z</time></trkpt><trkpt lat="40.2395271" lon="15.5568615"><ele>531.3333333333333</ele><time>2026-05-03T14:32:41.58Z</time></trkpt><trkpt lat="40.2394836" lon="15.5565783"><ele>526.6666666666666</ele><time>2026-05-03T14:32:42.597Z</time></trkpt><trkpt lat="40.2394408" lon="15.5562962"><ele>522.0</ele><time>2026-05-03T14:32:43.559Z</time></trkpt><trkpt lat="40.2394" lon="15.556013"><ele>520.6666666666666</ele><time>2026-05-03T14:32:44.563Z</time></trkpt><trkpt lat="40.2393583" lon="15.5557283"><ele>519.3333333333333</ele><time>2026-05-03T14:32:45.583Z</time></trkpt><trkpt lat="40.2393193" lon="15.5554411"><ele>518.0</ele><time>2026-05-03T14:32:46.589Z</time></trkpt><trkpt lat="40.2392678" lon="15.5551538"><ele>512.0</ele><time>2026-05-03T14:32:47.597Z</time></trkpt><trkpt lat="40.2392075" lon="15.5548694"><ele>506.0</ele><time>2026-05-03T14:32:48.578Z</time></trkpt><trkpt lat="40.2391348" lon="15.5545824"><ele>511.5</ele><time>2026-05-03T14:32:49.557Z</time></trkpt><trkpt lat="40.2390461" lon="15.554297"><ele>517.0</ele><time>2026-05-03T14:32:50.584Z</time></trkpt><trkpt lat="40.2389486" lon="15.5540059"><ele>517.0</ele><time>2026-05-03T14:32:51.59Z</time></trkpt><trkpt lat="40.238855" lon="15.5537149"><ele>517.0</ele><time>2026-05-03T14:32:52.584Z</time></trkpt><trkpt lat="40.2387635" lon="15.5534351"><ele>509.6666666666667</ele><time>2026-05-03T14:32:53.576Z</time></trkpt><trkpt lat="40.2386716" lon="15.5531678"><ele>502.33333333333337</ele><time>2026-05-03T14:32:54.592Z</time></trkpt><trkpt lat="40.2385822" lon="15.5529094"><ele>495.0</ele><time>2026-05-03T14:32:55.578Z</time></trkpt><trkpt lat="40.2384863" lon="15.5526475"><ele>490.5</ele><time>2026-05-03T14:32:56.578Z</time></trkpt><trkpt lat="40.2383953" lon="15.5523776"><ele>486.0</ele><time>2026-05-03T14:32:57.57Z</time></trkpt><trkpt lat="40.2382992" lon="15.5521095"><ele>482.5</ele><time>2026-05-03T14:32:58.603Z</time></trkpt><trkpt lat="40.2381929" lon="15.5518499"><ele>479.0</ele><time>2026-05-03T14:32:59.586Z</time></trkpt><trkpt lat="40.2380758" lon="15.5515972"><ele>486.5</ele><time>2026-05-03T14:33:00.583Z</time></trkpt><trkpt lat="40.2379464" lon="15.5513488"><ele>494.0</ele><time>2026-05-03T14:33:01.582Z</time></trkpt><trkpt lat="40.2378055" lon="15.5511133"><ele>494.0</ele><time>2026-05-03T14:33:02.579Z</time></trkpt><trkpt lat="40.2376514" lon="15.5508942"><ele>494.0</ele><time>2026-05-03T14:33:03.585Z</time></trkpt><trkpt lat="40.237487" lon="15.5506835"><ele>494.0</ele><time>2026-05-03T14:33:04.565Z</time></trkpt><trkpt lat="40.2373138" lon="15.5504943"><ele>494.0</ele><time>2026-05-03T14:33:05.572Z</time></trkpt><trkpt lat="40.2371279" lon="15.5503193"><ele>489.0</ele><time>2026-05-03T14:33:06.57Z</time></trkpt><trkpt lat="40.2369785" lon="15.550044"><ele>484.0</ele><time>2026-05-03T14:33:07.557Z</time></trkpt><trkpt lat="40.2340902" lon="15.5504162"><ele>471.0</ele><time>2026-05-03T14:33:20.55Z</time></trkpt><trkpt lat="40.233899" lon="15.5505866"><ele>458.0</ele><time>2026-05-03T14:33:21.554Z</time></trkpt><trkpt lat="40.2337044" lon="15.5507621"><ele>458.0</ele><time>2026-05-03T14:33:22.542Z</time></trkpt><trkpt lat="40.2335275" lon="15.5509884"><ele>458.0</ele><time>2026-05-03T14:33:23.545Z</time></trkpt><trkpt lat="40.2333484" lon="15.5511933"><ele>454.5</ele><time>2026-05-03T14:33:24.551Z</time></trkpt><trkpt lat="40.2331796" lon="15.5514075"><ele>451.0</ele><time>2026-05-03T14:33:25.546Z</time></trkpt><trkpt lat="40.232997" lon="15.5516252"><ele>451.0</ele><time>2026-05-03T14:33:26.556Z</time></trkpt><trkpt lat="40.2328259" lon="15.5518443"><ele>451.0</ele><time>2026-05-03T14:33:27.551Z</time></trkpt><trkpt lat="40.2326542" lon="15.5520772"><ele>458.5</ele><time>2026-05-03T14:33:28.562Z</time></trkpt><trkpt lat="40.2324838" lon="15.552309"><ele>466.0</ele><time>2026-05-03T14:33:29.563Z</time></trkpt><trkpt lat="40.2323112" lon="15.5525423"><ele>462.5</ele><time>2026-05-03T14:33:30.563Z</time></trkpt><trkpt lat="40.2321351" lon="15.5527769"><ele>459.0</ele><time>2026-05-03T14:33:31.569Z</time></trkpt><trkpt lat="40.2319593" lon="15.5530186"><ele>459.0</ele><time>2026-05-03T14:33:32.574Z</time></trkpt><trkpt lat="40.2317854" lon="15.5532521"><ele>459.0</ele><time>2026-05-03T14:33:33.565Z</time></trkpt><trkpt lat="40.2316083" lon="15.5534803"><ele>457.5</ele><time>2026-05-03T14:33:34.578Z</time></trkpt><trkpt lat="40.2314353" lon="15.5537146"><ele>456.0</ele><time>2026-05-03T14:33:35.575Z</time></trkpt><trkpt lat="40.2312635" lon="15.5539471"><ele>456.0</ele><time>2026-05-03T14:33:36.582Z</time></trkpt><trkpt lat="40.2310929" lon="15.5541734"><ele>456.0</ele><time>2026-05-03T14:33:37.57Z</time></trkpt><trkpt lat="40.2309213" lon="15.5543998"><ele>453.0</ele><time>2026-05-03T14:33:38.558Z</time></trkpt><trkpt lat="40.2307517" lon="15.5546306"><ele>450.0</ele><time>2026-05-03T14:33:39.563Z</time></trkpt><trkpt lat="40.2305832" lon="15.5548628"><ele>450.0</ele><time>2026-05-03T14:33:40.58Z</time></trkpt><trkpt lat="40.2304139" lon="15.5550955"><ele>450.0</ele><time>2026-05-03T14:33:41.579Z</time></trkpt><trkpt lat="40.2302375" lon="15.5553276"><ele>459.5</ele><time>2026-05-03T14:33:42.574Z</time></trkpt><trkpt lat="40.2300578" lon="15.5555653"><ele>469.0</ele><time>2026-05-03T14:33:43.569Z</time></trkpt><trkpt lat="40.2298818" lon="15.5558039"><ele>466.0</ele><time>2026-05-03T14:33:44.575Z</time></trkpt><trkpt lat="40.2297078" lon="15.5560387"><ele>463.0</ele><time>2026-05-03T14:33:45.573Z</time></trkpt><trkpt lat="40.2295335" lon="15.5562797"><ele>463.0</ele><time>2026-05-03T14:33:46.57Z</time></trkpt><trkpt lat="40.2293596" lon="15.5565144"><ele>463.0</ele><time>2026-05-03T14:33:47.575Z</time></trkpt><trkpt lat="40.2291855" lon="15.5567484"><ele>463.0</ele><time>2026-05-03T14:33:48.569Z</time></trkpt><trkpt lat="40.2290114" lon="15.5569798"><ele>463.0</ele><time>2026-05-03T14:33:49.571Z</time></trkpt><trkpt lat="40.2288365" lon="15.5572176"><ele>461.0</ele><time>2026-05-03T14:33:50.585Z</time></trkpt><trkpt lat="40.2286615" lon="15.5574517"><ele>459.0</ele><time>2026-05-03T14:33:51.581Z</time></trkpt><trkpt lat="40.2284918" lon="15.5576841"><ele>458.66666666666663</ele><time>2026-05-03T14:33:52.585Z</time></trkpt><trkpt lat="40.2283342" lon="15.5579004"><ele>458.3333333333333</ele><time>2026-05-03T14:33:53.586Z</time></trkpt><trkpt lat="40.2281903" lon="15.5580977"><ele>458.0</ele><time>2026-05-03T14:33:54.595Z</time></trkpt><trkpt lat="40.228054" lon="15.5582758"><ele>458.0</ele><time>2026-05-03T14:33:55.573Z</time></trkpt><trkpt lat="40.2279332" lon="15.5584428"><ele>458.0</ele><time>2026-05-03T14:33:56.584Z</time></trkpt><trkpt lat="40.2278259" lon="15.5585947"><ele>458.0</ele><time>2026-05-03T14:33:57.588Z</time></trkpt><trkpt lat="40.2277258" lon="15.5587258"><ele>461.0</ele><time>2026-05-03T14:33:58.592Z</time></trkpt><trkpt lat="40.2276278" lon="15.5588545"><ele>464.0</ele><time>2026-05-03T14:33:59.577Z</time></trkpt><trkpt lat="40.2275334" lon="15.5589717"><ele>467.0</ele><time>2026-05-03T14:34:00.57Z</time></trkpt><trkpt lat="40.2274401" lon="15.5590709"><ele>470.0</ele><time>2026-05-03T14:34:01.575Z</time></trkpt><trkpt lat="40.2273575" lon="15.559158"><ele>467.99999999999994</ele><time>2026-05-03T14:34:02.571Z</time></trkpt><trkpt lat="40.2272858" lon="15.5592326"><ele>466.0</ele><time>2026-05-03T14:34:03.585Z</time></trkpt><trkpt lat="40.2272263" lon="15.5592878"><ele>464.0</ele><time>2026-05-03T14:34:04.577Z</time></trkpt><trkpt lat="40.2271707" lon="15.5593331"><ele>462.0</ele><time>2026-05-03T14:34:05.573Z</time></trkpt><trkpt lat="40.2270776" lon="15.5593886"><ele>459.99999999999994</ele><time>2026-05-03T14:34:07.597Z</time></trkpt><trkpt lat="40.2270046" lon="15.5594062"><ele>458.0</ele><time>2026-05-03T14:34:09.572Z</time></trkpt><trkpt lat="40.2269221" lon="15.5594227"><ele>458.0</ele><time>2026-05-03T14:34:12.596Z</time></trkpt><trkpt lat="40.2268426" lon="15.559448"><ele>457.99999999999994</ele><time>2026-05-03T14:34:16.566Z</time></trkpt><trkpt lat="40.2267816" lon="15.5594735"><ele>457.99999999999994</ele><time>2026-05-03T14:34:19.567Z</time></trkpt><trkpt lat="40.2266984" lon="15.5595282"><ele>458.0</ele><time>2026-05-03T14:34:22.577Z</time></trkpt><trkpt lat="40.2266558" lon="15.5596346"><ele>458.0</ele><time>2026-05-03T14:49:28.557Z</time></trkpt><trkpt lat="40.2266575" lon="15.5598053"><ele>458.49999999999994</ele><time>2026-05-03T14:49:30.559Z</time></trkpt><trkpt lat="40.2266575" lon="15.559905"><ele>459.0</ele><time>2026-05-03T14:49:31.555Z</time></trkpt><trkpt lat="40.2266485" lon="15.5600029"><ele>459.5</ele><time>2026-05-03T14:49:32.554Z</time></trkpt><trkpt lat="40.2266292" lon="15.5601017"><ele>460.0</ele><time>2026-05-03T14:49:33.559Z</time></trkpt><trkpt lat="40.2265911" lon="15.560201"><ele>460.49999999999994</ele><time>2026-05-03T14:49:34.555Z</time></trkpt><trkpt lat="40.2265377" lon="15.560296"><ele>461.0</ele><time>2026-05-03T14:49:35.56Z</time></trkpt><trkpt lat="40.22647" lon="15.5603995"><ele>461.0</ele><time>2026-05-03T14:49:36.572Z</time></trkpt><trkpt lat="40.2263959" lon="15.5605094"><ele>461.0</ele><time>2026-05-03T14:49:37.55Z</time></trkpt><trkpt lat="40.2263154" lon="15.5606243"><ele>461.0</ele><time>2026-05-03T14:49:38.548Z</time></trkpt><trkpt lat="40.2262365" lon="15.5607484"><ele>461.0</ele><time>2026-05-03T14:49:39.568Z</time></trkpt><trkpt lat="40.2261519" lon="15.560878"><ele>461.0</ele><time>2026-05-03T14:49:40.552Z</time></trkpt><trkpt lat="40.2260591" lon="15.5610163"><ele>461.0</ele><time>2026-05-03T14:49:41.564Z</time></trkpt><trkpt lat="40.2259573" lon="15.5611599"><ele>461.0</ele><time>2026-05-03T14:49:42.547Z</time></trkpt><trkpt lat="40.2258495" lon="15.5613119"><ele>461.0</ele><time>2026-05-03T14:49:43.549Z</time></trkpt><trkpt lat="40.2257366" lon="15.5614693"><ele>457.3333333333333</ele><time>2026-05-03T14:49:44.559Z</time></trkpt><trkpt lat="40.2256199" lon="15.5616301"><ele>453.66666666666663</ele><time>2026-05-03T14:49:45.57Z</time></trkpt><trkpt lat="40.2255034" lon="15.561793"><ele>450.0</ele><time>2026-05-03T14:49:46.565Z</time></trkpt><trkpt lat="40.2253836" lon="15.5619549"><ele>455.0</ele><time>2026-05-03T14:49:47.545Z</time></trkpt><trkpt lat="40.2252616" lon="15.5621241"><ele>460.0</ele><time>2026-05-03T14:49:48.554Z</time></trkpt><trkpt lat="40.2251329" lon="15.5622941"><ele>465.0</ele><time>2026-05-03T14:49:49.571Z</time></trkpt><trkpt lat="40.2250036" lon="15.5624708"><ele>465.0</ele><time>2026-05-03T14:49:50.563Z</time></trkpt><trkpt lat="40.2248736" lon="15.5626501"><ele>465.0</ele><time>2026-05-03T14:49:51.555Z</time></trkpt><trkpt lat="40.2247389" lon="15.5628321"><ele>465.0</ele><time>2026-05-03T14:49:52.562Z</time></trkpt><trkpt lat="40.2246039" lon="15.5630164"><ele>463.0</ele><time>2026-05-03T14:49:53.57Z</time></trkpt><trkpt lat="40.2244709" lon="15.5632016"><ele>461.0</ele><time>2026-05-03T14:49:54.557Z</time></trkpt><trkpt lat="40.2243386" lon="15.5633818"><ele>459.0</ele><time>2026-05-03T14:49:55.574Z</time></trkpt><trkpt lat="40.224205" lon="15.5635638"><ele>456.66666666666663</ele><time>2026-05-03T14:49:56.582Z</time></trkpt><trkpt lat="40.2240686" lon="15.5637462"><ele>454.3333333333333</ele><time>2026-05-03T14:49:57.577Z</time></trkpt><trkpt lat="40.2239312" lon="15.5639284"><ele>452.0</ele><time>2026-05-03T14:49:58.554Z</time></trkpt><trkpt lat="40.2237937" lon="15.5641177"><ele>452.0</ele><time>2026-05-03T14:49:59.555Z</time></trkpt><trkpt lat="40.2236583" lon="15.564306"><ele>452.0</ele><time>2026-05-03T14:50:00.556Z</time></trkpt><trkpt lat="40.2235284" lon="15.5644878"><ele>452.0</ele><time>2026-05-03T14:50:01.545Z</time></trkpt><trkpt lat="40.2234048" lon="15.5646572"><ele>450.0</ele><time>2026-05-03T14:50:02.566Z</time></trkpt><trkpt lat="40.2232827" lon="15.5648273"><ele>448.0</ele><time>2026-05-03T14:50:03.57Z</time></trkpt><trkpt lat="40.2231601" lon="15.5649908"><ele>446.0</ele><time>2026-05-03T14:50:04.554Z</time></trkpt><trkpt lat="40.2230357" lon="15.5651615"><ele>446.0</ele><time>2026-05-03T14:50:05.554Z</time></trkpt><trkpt lat="40.2229106" lon="15.5653344"><ele>446.0</ele><time>2026-05-03T14:50:06.579Z</time></trkpt><trkpt lat="40.222784" lon="15.5655078"><ele>446.0</ele><time>2026-05-03T14:50:07.565Z</time></trkpt><trkpt lat="40.222653" lon="15.5656844"><ele>444.0</ele><time>2026-05-03T14:50:08.573Z</time></trkpt><trkpt lat="40.2225103" lon="15.5658541"><ele>442.0</ele><time>2026-05-03T14:50:09.575Z</time></trkpt><trkpt lat="40.222359" lon="15.5660114"><ele>440.0</ele><time>2026-05-03T14:50:10.56Z</time></trkpt><trkpt lat="40.2221959" lon="15.5661593"><ele>444.66666666666663</ele><time>2026-05-03T14:50:11.56Z</time></trkpt><trkpt lat="40.2220305" lon="15.5662888"><ele>449.33333333333337</ele><time>2026-05-03T14:50:12.573Z</time></trkpt><trkpt lat="40.221858" lon="15.5663985"><ele>454.0</ele><time>2026-05-03T14:50:13.571Z</time></trkpt><trkpt lat="40.2216792" lon="15.5664909"><ele>454.0</ele><time>2026-05-03T14:50:14.566Z</time></trkpt><trkpt lat="40.2214996" lon="15.5665713"><ele>454.0</ele><time>2026-05-03T14:50:15.591Z</time></trkpt><trkpt lat="40.2213094" lon="15.5666324"><ele>454.0</ele><time>2026-05-03T14:50:16.561Z</time></trkpt><trkpt lat="40.2211158" lon="15.5666764"><ele>449.33333333333337</ele><time>2026-05-03T14:50:17.55Z</time></trkpt><trkpt lat="40.2209217" lon="15.5666878"><ele>444.66666666666663</ele><time>2026-05-03T14:50:18.548Z</time></trkpt><trkpt lat="40.2207341" lon="15.5666918"><ele>440.0</ele><time>2026-05-03T14:50:19.563Z</time></trkpt><trkpt lat="40.2205528" lon="15.5666827"><ele>436.66666666666663</ele><time>2026-05-03T14:50:20.552Z</time></trkpt><trkpt lat="40.2203678" lon="15.5666572"><ele>433.33333333333337</ele><time>2026-05-03T14:50:21.564Z</time></trkpt><trkpt lat="40.2201802" lon="15.5666097"><ele>430.0</ele><time>2026-05-03T14:50:22.58Z</time></trkpt><trkpt lat="40.2199887" lon="15.5665434"><ele>428.0</ele><time>2026-05-03T14:50:23.579Z</time></trkpt><trkpt lat="40.219799" lon="15.5664606"><ele>426.0</ele><time>2026-05-03T14:50:24.568Z</time></trkpt><trkpt lat="40.219612" lon="15.5663607"><ele>424.0</ele><time>2026-05-03T14:50:25.583Z</time></trkpt><trkpt lat="40.2194253" lon="15.5662414"><ele>424.33333333333337</ele><time>2026-05-03T14:50:26.576Z</time></trkpt><trkpt lat="40.2192513" lon="15.5661043"><ele>424.66666666666663</ele><time>2026-05-03T14:50:27.58Z</time></trkpt><trkpt lat="40.2190864" lon="15.5659521"><ele>425.0</ele><time>2026-05-03T14:50:28.577Z</time></trkpt><trkpt lat="40.2189349" lon="15.5657788"><ele>417.3333333333333</ele><time>2026-05-03T14:50:29.572Z</time></trkpt><trkpt lat="40.2187894" lon="15.5655915"><ele>409.66666666666663</ele><time>2026-05-03T14:50:30.571Z</time></trkpt><trkpt lat="40.2186543" lon="15.5653941"><ele>402.0</ele><time>2026-05-03T14:50:31.563Z</time></trkpt><trkpt lat="40.218526" lon="15.565186"><ele>401.33333333333337</ele><time>2026-05-03T14:50:32.567Z</time></trkpt><trkpt lat="40.218399" lon="15.564978"><ele>400.6666666666667</ele><time>2026-05-03T14:50:33.565Z</time></trkpt><trkpt lat="40.2182679" lon="15.5647712"><ele>400.0</ele><time>2026-05-03T14:50:34.562Z</time></trkpt><trkpt lat="40.2181384" lon="15.5645702"><ele>409.0</ele><time>2026-05-03T14:50:35.59Z</time></trkpt><trkpt lat="40.2180021" lon="15.5643578"><ele>418.0</ele><time>2026-05-03T14:50:36.572Z</time></trkpt><trkpt lat="40.2178637" lon="15.564149"><ele>427.0</ele><time>2026-05-03T14:50:37.571Z</time></trkpt><trkpt lat="40.2177247" lon="15.5639344"><ele>427.0</ele><time>2026-05-03T14:50:38.593Z</time></trkpt><trkpt lat="40.2175857" lon="15.5637168"><ele>427.0</ele><time>2026-05-03T14:50:39.587Z</time></trkpt><trkpt lat="40.2174488" lon="15.5635024"><ele>427.0</ele><time>2026-05-03T14:50:40.583Z</time></trkpt><trkpt lat="40.2173118" lon="15.5632912"><ele>428.6666666666667</ele><time>2026-05-03T14:50:41.569Z</time></trkpt><trkpt lat="40.2171772" lon="15.5630722"><ele>430.33333333333337</ele><time>2026-05-03T14:50:42.585Z</time></trkpt><trkpt lat="40.2170407" lon="15.5628483"><ele>432.0</ele><time>2026-05-03T14:50:43.575Z</time></trkpt><trkpt lat="40.2169054" lon="15.5626228"><ele>432.0</ele><time>2026-05-03T14:50:44.56Z</time></trkpt><trkpt lat="40.216772" lon="15.5623961"><ele>432.0</ele><time>2026-05-03T14:50:45.548Z</time></trkpt><trkpt lat="40.2166398" lon="15.5621636"><ele>432.0</ele><time>2026-05-03T14:50:46.557Z</time></trkpt><trkpt lat="40.216514" lon="15.5619218"><ele>432.5</ele><time>2026-05-03T14:50:47.552Z</time></trkpt><trkpt lat="40.2163921" lon="15.561673"><ele>433.0</ele><time>2026-05-03T14:50:48.551Z</time></trkpt><trkpt lat="40.2162731" lon="15.5614216"><ele>431.6666666666667</ele><time>2026-05-03T14:50:49.554Z</time></trkpt><trkpt lat="40.2161616" lon="15.5611669"><ele>430.33333333333337</ele><time>2026-05-03T14:50:50.581Z</time></trkpt><trkpt lat="40.2160518" lon="15.5609099"><ele>429.0</ele><time>2026-05-03T14:50:51.568Z</time></trkpt><trkpt lat="40.2159378" lon="15.5606564"><ele>429.0</ele><time>2026-05-03T14:50:52.578Z</time></trkpt><trkpt lat="40.2158281" lon="15.5604132"><ele>429.0</ele><time>2026-05-03T14:50:53.578Z</time></trkpt><trkpt lat="40.2157209" lon="15.5601789"><ele>429.0</ele><time>2026-05-03T14:50:54.588Z</time></trkpt><trkpt lat="40.2156186" lon="15.5599442"><ele>425.33333333333337</ele><time>2026-05-03T14:50:55.575Z</time></trkpt><trkpt lat="40.2155181" lon="15.559709"><ele>421.6666666666667</ele><time>2026-05-03T14:50:56.574Z</time></trkpt><trkpt lat="40.2154169" lon="15.5594776"><ele>418.0</ele><time>2026-05-03T14:50:57.568Z</time></trkpt><trkpt lat="40.2153078" lon="15.5592518"><ele>418.0</ele><time>2026-05-03T14:50:58.567Z</time></trkpt><trkpt lat="40.2151952" lon="15.5590311"><ele>418.0</ele><time>2026-05-03T14:50:59.59Z</time></trkpt><trkpt lat="40.2150754" lon="15.5588145"><ele>418.0</ele><time>2026-05-03T14:51:00.587Z</time></trkpt><trkpt lat="40.2149504" lon="15.5586016"><ele>416.0</ele><time>2026-05-03T14:51:01.588Z</time></trkpt><trkpt lat="40.2148086" lon="15.5583985"><ele>414.0</ele><time>2026-05-03T14:51:02.559Z</time></trkpt><trkpt lat="40.2146565" lon="15.5582111"><ele>412.0</ele><time>2026-05-03T14:51:03.58Z</time></trkpt><trkpt lat="40.214495" lon="15.5580371"><ele>412.0</ele><time>2026-05-03T14:51:04.591Z</time></trkpt><trkpt lat="40.2143262" lon="15.5578721"><ele>412.0</ele><time>2026-05-03T14:51:05.593Z</time></trkpt><trkpt lat="40.2141486" lon="15.5577195"><ele>412.0</ele><time>2026-05-03T14:51:06.586Z</time></trkpt><trkpt lat="40.2139589" lon="15.5575802"><ele>413.6666666666667</ele><time>2026-05-03T14:51:07.561Z</time></trkpt><trkpt lat="40.2137657" lon="15.5574408"><ele>415.33333333333337</ele><time>2026-05-03T14:51:08.574Z</time></trkpt><trkpt lat="40.2135724" lon="15.5573115"><ele>417.0</ele><time>2026-05-03T14:51:09.574Z</time></trkpt><trkpt lat="40.2133766" lon="15.5571865"><ele>417.0</ele><time>2026-05-03T14:51:10.591Z</time></trkpt><trkpt lat="40.213178" lon="15.5570643"><ele>417.0</ele><time>2026-05-03T14:51:11.565Z</time></trkpt><trkpt lat="40.2129801" lon="15.5569386"><ele>417.0</ele><time>2026-05-03T14:51:12.578Z</time></trkpt><trkpt lat="40.2127831" lon="15.5568099"><ele>418.33333333333337</ele><time>2026-05-03T14:51:13.58Z</time></trkpt><trkpt lat="40.2125855" lon="15.5566837"><ele>419.6666666666667</ele><time>2026-05-03T14:51:14.576Z</time></trkpt><trkpt lat="40.2123933" lon="15.5565597"><ele>421.0</ele><time>2026-05-03T14:51:15.579Z</time></trkpt><trkpt lat="40.2122015" lon="15.5564361"><ele>421.0</ele><time>2026-05-03T14:51:16.567Z</time></trkpt><trkpt lat="40.2120086" lon="15.5563175"><ele>421.0</ele><time>2026-05-03T14:51:17.585Z</time></trkpt><trkpt lat="40.2118171" lon="15.5562007"><ele>421.0</ele><time>2026-05-03T14:51:18.579Z</time></trkpt><trkpt lat="40.2116306" lon="15.5560863"><ele>420.6666666666667</ele><time>2026-05-03T14:51:19.584Z</time></trkpt><trkpt lat="40.2114426" lon="15.5559723"><ele>420.33333333333337</ele><time>2026-05-03T14:51:20.587Z</time></trkpt><trkpt lat="40.211257" lon="15.5558521"><ele>420.0</ele><time>2026-05-03T14:51:21.591Z</time></trkpt><trkpt lat="40.2110715" lon="15.5557294"><ele>420.0</ele><time>2026-05-03T14:51:22.572Z</time></trkpt><trkpt lat="40.2108834" lon="15.5556014"><ele>420.0</ele><time>2026-05-03T14:51:23.586Z</time></trkpt><trkpt lat="40.2106923" lon="15.5554744"><ele>420.0</ele><time>2026-05-03T14:51:24.577Z</time></trkpt><trkpt lat="40.2104985" lon="15.5553494"><ele>420.0</ele><time>2026-05-03T14:51:25.572Z</time></trkpt><trkpt lat="40.2103085" lon="15.5552267"><ele>420.0</ele><time>2026-05-03T14:51:26.575Z</time></trkpt><trkpt lat="40.210123" lon="15.5551055"><ele>420.0</ele><time>2026-05-03T14:51:27.553Z</time></trkpt><trkpt lat="40.2099456" lon="15.5549917"><ele>417.33333333333337</ele><time>2026-05-03T14:51:28.589Z</time></trkpt><trkpt lat="40.2097741" lon="15.5548789"><ele>414.6666666666667</ele><time>2026-05-03T14:51:29.588Z</time></trkpt><trkpt lat="40.2095974" lon="15.5547859"><ele>412.0</ele><time>2026-05-03T14:51:30.549Z</time></trkpt><trkpt lat="40.2094188" lon="15.5547076"><ele>412.0</ele><time>2026-05-03T14:51:31.561Z</time></trkpt><trkpt lat="40.2092356" lon="15.5546467"><ele>412.0</ele><time>2026-05-03T14:51:32.579Z</time></trkpt><trkpt lat="40.2090513" lon="15.5546041"><ele>412.0</ele><time>2026-05-03T14:51:33.584Z</time></trkpt><trkpt lat="40.2088663" lon="15.5545753"><ele>409.33333333333337</ele><time>2026-05-03T14:51:34.584Z</time></trkpt><trkpt lat="40.2086796" lon="15.5545653"><ele>406.66666666666663</ele><time>2026-05-03T14:51:35.587Z</time></trkpt><trkpt lat="40.2084885" lon="15.5545553"><ele>404.0</ele><time>2026-05-03T14:51:36.548Z</time></trkpt><trkpt lat="40.2082931" lon="15.5545617"><ele>403.0</ele><time>2026-05-03T14:51:37.56Z</time></trkpt><trkpt lat="40.2080943" lon="15.5545862"><ele>402.0</ele><time>2026-05-03T14:51:38.563Z</time></trkpt><trkpt lat="40.2079009" lon="15.5546239"><ele>401.0</ele><time>2026-05-03T14:51:39.558Z</time></trkpt><trkpt lat="40.2077029" lon="15.5546519"><ele>401.0</ele><time>2026-05-03T14:51:40.558Z</time></trkpt><trkpt lat="40.2074988" lon="15.5546805"><ele>401.0</ele><time>2026-05-03T14:51:41.549Z</time></trkpt><trkpt lat="40.2072926" lon="15.5547108"><ele>401.0</ele><time>2026-05-03T14:51:42.578Z</time></trkpt><trkpt lat="40.2070846" lon="15.5547404"><ele>406.0</ele><time>2026-05-03T14:51:43.562Z</time></trkpt><trkpt lat="40.206878" lon="15.5547732"><ele>411.0</ele><time>2026-05-03T14:51:44.568Z</time></trkpt><trkpt lat="40.2066707" lon="15.5548044"><ele>416.0</ele><time>2026-05-03T14:51:45.584Z</time></trkpt><trkpt lat="40.2064718" lon="15.5548381"><ele>422.0</ele><time>2026-05-03T14:51:46.579Z</time></trkpt><trkpt lat="40.206273" lon="15.5548657"><ele>428.0</ele><time>2026-05-03T14:51:47.573Z</time></trkpt><trkpt lat="40.2060681" lon="15.5548948"><ele>434.0</ele><time>2026-05-03T14:51:48.578Z</time></trkpt><trkpt lat="40.2058619" lon="15.5549235"><ele>431.5</ele><time>2026-05-03T14:51:49.58Z</time></trkpt><trkpt lat="40.2056541" lon="15.5549426"><ele>429.0</ele><time>2026-05-03T14:51:50.57Z</time></trkpt><trkpt lat="40.2044879" lon="15.5547433"><ele>429.0</ele><time>2026-05-03T14:51:56.552Z</time></trkpt><trkpt lat="40.2043412" lon="15.5546212"><ele>429.0</ele><time>2026-05-03T14:51:57.568Z</time></trkpt><trkpt lat="40.2041809" lon="15.5545095"><ele>429.0</ele><time>2026-05-03T14:51:58.572Z</time></trkpt><trkpt lat="40.2040161" lon="15.5543816"><ele>428.33333333333337</ele><time>2026-05-03T14:51:59.538Z</time></trkpt><trkpt lat="40.2038659" lon="15.5542322"><ele>427.6666666666667</ele><time>2026-05-03T14:52:00.57Z</time></trkpt><trkpt lat="40.2037113" lon="15.5540724"><ele>427.0</ele><time>2026-05-03T14:52:01.565Z</time></trkpt><trkpt lat="40.2035686" lon="15.5539106"><ele>427.0</ele><time>2026-05-03T14:52:02.563Z</time></trkpt><trkpt lat="40.2034246" lon="15.5537566"><ele>427.0</ele><time>2026-05-03T14:52:03.532Z</time></trkpt><trkpt lat="40.2032856" lon="15.5536033"><ele>427.0</ele><time>2026-05-03T14:52:04.536Z</time></trkpt><trkpt lat="40.2031578" lon="15.5534401"><ele>422.33333333333337</ele><time>2026-05-03T14:52:05.551Z</time></trkpt><trkpt lat="40.203026" lon="15.5532778"><ele>417.66666666666663</ele><time>2026-05-03T14:52:06.551Z</time></trkpt><trkpt lat="40.2028881" lon="15.5531095"><ele>413.0</ele><time>2026-05-03T14:52:07.553Z</time></trkpt><trkpt lat="40.20275" lon="15.5529409"><ele>413.66666666666663</ele><time>2026-05-03T14:52:08.565Z</time></trkpt><trkpt lat="40.202604" lon="15.552773"><ele>414.33333333333337</ele><time>2026-05-03T14:52:09.583Z</time></trkpt><trkpt lat="40.2024575" lon="15.5526012"><ele>415.0</ele><time>2026-05-03T14:52:10.577Z</time></trkpt><trkpt lat="40.2023081" lon="15.5524301"><ele>410.6666666666667</ele><time>2026-05-03T14:52:11.555Z</time></trkpt><trkpt lat="40.2021571" lon="15.5522557"><ele>406.33333333333337</ele><time>2026-05-03T14:52:12.557Z</time></trkpt><trkpt lat="40.2020035" lon="15.5520774"><ele>402.0</ele><time>2026-05-03T14:52:13.542Z</time></trkpt><trkpt lat="40.201854" lon="15.5518958"><ele>404.66666666666663</ele><time>2026-05-03T14:52:14.583Z</time></trkpt><trkpt lat="40.2017055" lon="15.551723"><ele>407.3333333333333</ele><time>2026-05-03T14:52:15.57Z</time></trkpt><trkpt lat="40.2015579" lon="15.5515487"><ele>410.0</ele><time>2026-05-03T14:52:16.577Z</time></trkpt><trkpt lat="40.2014241" lon="15.5513752"><ele>415.66666666666663</ele><time>2026-05-03T14:52:17.583Z</time></trkpt><trkpt lat="40.2012955" lon="15.5512024"><ele>421.33333333333337</ele><time>2026-05-03T14:52:18.575Z</time></trkpt><trkpt lat="40.2011759" lon="15.5510197"><ele>427.0</ele><time>2026-05-03T14:52:19.562Z</time></trkpt><trkpt lat="40.2010708" lon="15.5508284"><ele>427.0</ele><time>2026-05-03T14:52:20.562Z</time></trkpt><trkpt lat="40.2009733" lon="15.5506341"><ele>427.0</ele><time>2026-05-03T14:52:21.579Z</time></trkpt><trkpt lat="40.2008875" lon="15.5504304"><ele>427.0</ele><time>2026-05-03T14:52:22.585Z</time></trkpt><trkpt lat="40.2008152" lon="15.5502168"><ele>430.33333333333337</ele><time>2026-05-03T14:52:23.566Z</time></trkpt><trkpt lat="40.2007473" lon="15.5500054"><ele>433.66666666666663</ele><time>2026-05-03T14:52:24.573Z</time></trkpt><trkpt lat="40.2006777" lon="15.5497846"><ele>437.0</ele><time>2026-05-03T14:52:25.554Z</time></trkpt><trkpt lat="40.2006133" lon="15.5495661"><ele>431.0</ele><time>2026-05-03T14:52:26.567Z</time></trkpt><trkpt lat="40.2005416" lon="15.549345"><ele>425.0</ele><time>2026-05-03T14:52:27.563Z</time></trkpt><trkpt lat="40.2004449" lon="15.5491327"><ele>419.0</ele><time>2026-05-03T14:52:28.567Z</time></trkpt><trkpt lat="40.2003387" lon="15.5489275"><ele>419.0</ele><time>2026-05-03T14:52:29.547Z</time></trkpt><trkpt lat="40.2002272" lon="15.5487205"><ele>419.0</ele><time>2026-05-03T14:52:30.565Z</time></trkpt><trkpt lat="40.2001065" lon="15.548529"><ele>419.0</ele><time>2026-05-03T14:52:31.559Z</time></trkpt><trkpt lat="40.1999721" lon="15.5483527"><ele>417.0</ele><time>2026-05-03T14:52:32.566Z</time></trkpt><trkpt lat="40.1998355" lon="15.548187"><ele>415.0</ele><time>2026-05-03T14:52:33.564Z</time></trkpt><trkpt lat="40.1996858" lon="15.5480374"><ele>413.0</ele><time>2026-05-03T14:52:34.561Z</time></trkpt><trkpt lat="40.1995282" lon="15.547901"><ele>418.0</ele><time>2026-05-03T14:52:35.555Z</time></trkpt><trkpt lat="40.1993619" lon="15.5477775"><ele>423.0</ele><time>2026-05-03T14:52:36.57Z</time></trkpt><trkpt lat="40.1991855" lon="15.547673"><ele>428.0</ele><time>2026-05-03T14:52:37.578Z</time></trkpt><trkpt lat="40.1990072" lon="15.5475735"><ele>426.3333333333333</ele><time>2026-05-03T14:52:38.572Z</time></trkpt><trkpt lat="40.1988217" lon="15.5474961"><ele>424.66666666666663</ele><time>2026-05-03T14:52:39.56Z</time></trkpt><trkpt lat="40.1986294" lon="15.5474366"><ele>423.0</ele><time>2026-05-03T14:52:40.564Z</time></trkpt><trkpt lat="40.1984331" lon="15.5473946"><ele>423.0</ele><time>2026-05-03T14:52:41.545Z</time></trkpt><trkpt lat="40.1982366" lon="15.5473641"><ele>423.0</ele><time>2026-05-03T14:52:42.575Z</time></trkpt><trkpt lat="40.1980361" lon="15.5473454"><ele>423.0</ele><time>2026-05-03T14:52:43.559Z</time></trkpt><trkpt lat="40.1978325" lon="15.5473297"><ele>423.0</ele><time>2026-05-03T14:52:44.578Z</time></trkpt><trkpt lat="40.1976311" lon="15.5473112"><ele>423.0</ele><time>2026-05-03T14:52:45.585Z</time></trkpt><trkpt lat="40.1974313" lon="15.547284"><ele>423.0</ele><time>2026-05-03T14:52:46.565Z</time></trkpt><trkpt lat="40.1972373" lon="15.5472412"><ele>421.66666666666663</ele><time>2026-05-03T14:52:47.582Z</time></trkpt><trkpt lat="40.1970526" lon="15.5471838"><ele>420.3333333333333</ele><time>2026-05-03T14:52:48.576Z</time></trkpt><trkpt lat="40.1968725" lon="15.5471153"><ele>419.0</ele><time>2026-05-03T14:52:49.562Z</time></trkpt><trkpt lat="40.1966974" lon="15.5470314"><ele>427.66666666666663</ele><time>2026-05-03T14:52:50.568Z</time></trkpt><trkpt lat="40.1965312" lon="15.5469299"><ele>436.33333333333337</ele><time>2026-05-03T14:52:51.575Z</time></trkpt><trkpt lat="40.1963729" lon="15.5468185"><ele>445.0</ele><time>2026-05-03T14:52:52.576Z</time></trkpt><trkpt lat="40.1962186" lon="15.5466983"><ele>445.33333333333337</ele><time>2026-05-03T14:52:53.562Z</time></trkpt><trkpt lat="40.1960834" lon="15.5465455"><ele>445.66666666666663</ele><time>2026-05-03T14:52:54.559Z</time></trkpt><trkpt lat="40.1959632" lon="15.5463867"><ele>446.0</ele><time>2026-05-03T14:52:55.555Z</time></trkpt><trkpt lat="40.1951558" lon="15.5449677"><ele>444.66666666666663</ele><time>2026-05-03T14:53:02.544Z</time></trkpt><trkpt lat="40.1951131" lon="15.544786"><ele>443.33333333333337</ele><time>2026-05-03T14:53:03.545Z</time></trkpt><trkpt lat="40.1950983" lon="15.5445916"><ele>442.0</ele><time>2026-05-03T14:53:04.539Z</time></trkpt><trkpt lat="40.1950671" lon="15.5443606"><ele>442.0</ele><time>2026-05-03T14:53:05.57Z</time></trkpt><trkpt lat="40.195025" lon="15.5441139"><ele>442.0</ele><time>2026-05-03T14:53:06.562Z</time></trkpt><trkpt lat="40.1950014" lon="15.5438591"><ele>442.0</ele><time>2026-05-03T14:53:07.556Z</time></trkpt><trkpt lat="40.1950009" lon="15.5436115"><ele>441.33333333333337</ele><time>2026-05-03T14:53:08.562Z</time></trkpt><trkpt lat="40.1950178" lon="15.5433592"><ele>440.66666666666663</ele><time>2026-05-03T14:53:09.579Z</time></trkpt><trkpt lat="40.1950393" lon="15.5431087"><ele>440.0</ele><time>2026-05-03T14:53:10.578Z</time></trkpt><trkpt lat="40.1950716" lon="15.5428666"><ele>437.3333333333333</ele><time>2026-05-03T14:53:11.584Z</time></trkpt><trkpt lat="40.1951286" lon="15.5426231"><ele>434.66666666666663</ele><time>2026-05-03T14:53:12.577Z</time></trkpt><trkpt lat="40.1951995" lon="15.542395"><ele>432.0</ele><time>2026-05-03T14:53:13.575Z</time></trkpt><trkpt lat="40.1952691" lon="15.5421554"><ele>430.66666666666663</ele><time>2026-05-03T14:53:14.57Z</time></trkpt><trkpt lat="40.1953371" lon="15.5419252"><ele>429.3333333333333</ele><time>2026-05-03T14:53:15.558Z</time></trkpt><trkpt lat="40.1953995" lon="15.5416792"><ele>428.0</ele><time>2026-05-03T14:53:16.575Z</time></trkpt><trkpt lat="40.1954653" lon="15.5414298"><ele>426.3333333333333</ele><time>2026-05-03T14:53:17.584Z</time></trkpt><trkpt lat="40.1955293" lon="15.5411797"><ele>424.66666666666663</ele><time>2026-05-03T14:53:18.578Z</time></trkpt><trkpt lat="40.1955911" lon="15.5409295"><ele>423.0</ele><time>2026-05-03T14:53:19.576Z</time></trkpt><trkpt lat="40.1956548" lon="15.5406827"><ele>426.33333333333337</ele><time>2026-05-03T14:53:20.584Z</time></trkpt><trkpt lat="40.1957088" lon="15.5404324"><ele>429.6666666666667</ele><time>2026-05-03T14:53:21.568Z</time></trkpt><trkpt lat="40.1957407" lon="15.5401738"><ele>433.0</ele><time>2026-05-03T14:53:22.569Z</time></trkpt><trkpt lat="40.1957565" lon="15.5399131"><ele>433.0</ele><time>2026-05-03T14:53:23.569Z</time></trkpt><trkpt lat="40.195763" lon="15.5396555"><ele>433.0</ele><time>2026-05-03T14:53:24.55Z</time></trkpt><trkpt lat="40.1957498" lon="15.5393996"><ele>433.0</ele><time>2026-05-03T14:53:25.543Z</time></trkpt><trkpt lat="40.1957263" lon="15.5391522"><ele>428.0</ele><time>2026-05-03T14:53:26.539Z</time></trkpt><trkpt lat="40.1956934" lon="15.5389101"><ele>423.0</ele><time>2026-05-03T14:53:27.544Z</time></trkpt><trkpt lat="40.1956453" lon="15.5386745"><ele>418.0</ele><time>2026-05-03T14:53:28.534Z</time></trkpt><trkpt lat="40.195589" lon="15.5384495"><ele>418.33333333333337</ele><time>2026-05-03T14:53:29.54Z</time></trkpt><trkpt lat="40.1955202" lon="15.5382237"><ele>418.66666666666663</ele><time>2026-05-03T14:53:30.543Z</time></trkpt><trkpt lat="40.1954337" lon="15.5380067"><ele>419.0</ele><time>2026-05-03T14:53:31.543Z</time></trkpt><trkpt lat="40.1953353" lon="15.5377893"><ele>419.0</ele><time>2026-05-03T14:53:32.539Z</time></trkpt><trkpt lat="40.1952212" lon="15.537585"><ele>419.0</ele><time>2026-05-03T14:53:33.539Z</time></trkpt><trkpt lat="40.1951004" lon="15.5373851"><ele>419.0</ele><time>2026-05-03T14:53:34.573Z</time></trkpt><trkpt lat="40.1949666" lon="15.5371982"><ele>421.0</ele><time>2026-05-03T14:53:35.561Z</time></trkpt><trkpt lat="40.1948226" lon="15.5370269"><ele>423.0</ele><time>2026-05-03T14:53:36.562Z</time></trkpt><trkpt lat="40.1946702" lon="15.5368701"><ele>425.0</ele><time>2026-05-03T14:53:37.567Z</time></trkpt><trkpt lat="40.1945093" lon="15.5367283"><ele>425.0</ele><time>2026-05-03T14:53:38.559Z</time></trkpt><trkpt lat="40.1943385" lon="15.5366012"><ele>425.0</ele><time>2026-05-03T14:53:39.549Z</time></trkpt><trkpt lat="40.1941683" lon="15.5364892"><ele>425.0</ele><time>2026-05-03T14:53:40.564Z</time></trkpt><trkpt lat="40.1939945" lon="15.5363879"><ele>423.66666666666663</ele><time>2026-05-03T14:53:41.577Z</time></trkpt><trkpt lat="40.1938176" lon="15.5362996"><ele>422.33333333333337</ele><time>2026-05-03T14:53:42.576Z</time></trkpt><trkpt lat="40.1936347" lon="15.5362434"><ele>421.0</ele><time>2026-05-03T14:53:43.536Z</time></trkpt><trkpt lat="40.1934469" lon="15.5361988"><ele>426.0</ele><time>2026-05-03T14:53:44.539Z</time></trkpt><trkpt lat="40.1932546" lon="15.5361744"><ele>431.0</ele><time>2026-05-03T14:53:45.545Z</time></trkpt><trkpt lat="40.1930578" lon="15.5361617"><ele>436.0</ele><time>2026-05-03T14:53:46.556Z</time></trkpt><trkpt lat="40.1928554" lon="15.5361672"><ele>437.33333333333337</ele><time>2026-05-03T14:53:47.546Z</time></trkpt><trkpt lat="40.1926526" lon="15.5361774"><ele>438.66666666666663</ele><time>2026-05-03T14:53:48.562Z</time></trkpt><trkpt lat="40.1924499" lon="15.5361821"><ele>440.0</ele><time>2026-05-03T14:53:49.541Z</time></trkpt><trkpt lat="40.1922486" lon="15.5361833"><ele>440.66666666666663</ele><time>2026-05-03T14:53:50.564Z</time></trkpt><trkpt lat="40.1920473" lon="15.5361782"><ele>441.33333333333337</ele><time>2026-05-03T14:53:51.564Z</time></trkpt><trkpt lat="40.1918413" lon="15.5361649"><ele>442.0</ele><time>2026-05-03T14:53:52.567Z</time></trkpt><trkpt lat="40.1916376" lon="15.5361403"><ele>443.33333333333337</ele><time>2026-05-03T14:53:53.561Z</time></trkpt><trkpt lat="40.1914371" lon="15.5360944"><ele>444.66666666666663</ele><time>2026-05-03T14:53:54.556Z</time></trkpt><trkpt lat="40.1912381" lon="15.5360374"><ele>446.0</ele><time>2026-05-03T14:53:55.551Z</time></trkpt><trkpt lat="40.1910431" lon="15.5359617"><ele>446.0</ele><time>2026-05-03T14:53:56.557Z</time></trkpt><trkpt lat="40.1908598" lon="15.5358674"><ele>446.0</ele><time>2026-05-03T14:53:57.548Z</time></trkpt><trkpt lat="40.1906825" lon="15.5357523"><ele>446.0</ele><time>2026-05-03T14:53:58.567Z</time></trkpt><trkpt lat="40.1905118" lon="15.5356143"><ele>447.66666666666663</ele><time>2026-05-03T14:53:59.561Z</time></trkpt><trkpt lat="40.1903496" lon="15.5354555"><ele>449.33333333333337</ele><time>2026-05-03T14:54:00.571Z</time></trkpt><trkpt lat="40.1901946" lon="15.5352835"><ele>451.0</ele><time>2026-05-03T14:54:01.562Z</time></trkpt><trkpt lat="40.1900548" lon="15.5350936"><ele>451.0</ele><time>2026-05-03T14:54:02.578Z</time></trkpt><trkpt lat="40.1899189" lon="15.5348947"><ele>451.0</ele><time>2026-05-03T14:54:03.575Z</time></trkpt><trkpt lat="40.1897909" lon="15.5346883"><ele>451.0</ele><time>2026-05-03T14:54:04.568Z</time></trkpt><trkpt lat="40.1896772" lon="15.5344667"><ele>448.0</ele><time>2026-05-03T14:54:05.556Z</time></trkpt><trkpt lat="40.1877857" lon="15.5312472"><ele>444.6666666666667</ele><time>2026-05-03T14:54:17.55Z</time></trkpt><trkpt lat="40.187666" lon="15.5309745"><ele>441.33333333333337</ele><time>2026-05-03T14:54:20.55Z</time></trkpt><trkpt lat="40.1875499" lon="15.5307556"><ele>438.0</ele><time>2026-05-03T14:54:21.556Z</time></trkpt><trkpt lat="40.1874171" lon="15.5305229"><ele>438.0</ele><time>2026-05-03T14:54:22.554Z</time></trkpt><trkpt lat="40.1872781" lon="15.5302934"><ele>438.0</ele><time>2026-05-03T14:54:23.571Z</time></trkpt><trkpt lat="40.1871477" lon="15.5300659"><ele>438.0</ele><time>2026-05-03T14:54:24.568Z</time></trkpt><trkpt lat="40.187011" lon="15.5298363"><ele>438.0</ele><time>2026-05-03T14:54:25.576Z</time></trkpt><trkpt lat="40.1868759" lon="15.5296134"><ele>438.0</ele><time>2026-05-03T14:54:26.549Z</time></trkpt><trkpt lat="40.1867532" lon="15.5293936"><ele>438.0</ele><time>2026-05-03T14:54:27.567Z</time></trkpt><trkpt lat="40.1866234" lon="15.5291818"><ele>436.66666666666663</ele><time>2026-05-03T14:54:28.576Z</time></trkpt><trkpt lat="40.1864863" lon="15.5289799"><ele>435.3333333333333</ele><time>2026-05-03T14:54:29.573Z</time></trkpt><trkpt lat="40.1863331" lon="15.5287846"><ele>434.0</ele><time>2026-05-03T14:54:30.568Z</time></trkpt><trkpt lat="40.1861829" lon="15.5286074"><ele>430.3333333333333</ele><time>2026-05-03T14:54:31.568Z</time></trkpt><trkpt lat="40.1860218" lon="15.5284303"><ele>426.66666666666663</ele><time>2026-05-03T14:54:32.554Z</time></trkpt><trkpt lat="40.1858526" lon="15.5282648"><ele>423.0</ele><time>2026-05-03T14:54:33.573Z</time></trkpt><trkpt lat="40.1856771" lon="15.5281097"><ele>423.0</ele><time>2026-05-03T14:54:34.569Z</time></trkpt><trkpt lat="40.1855011" lon="15.5279654"><ele>423.0</ele><time>2026-05-03T14:54:35.565Z</time></trkpt><trkpt lat="40.1853168" lon="15.5278334"><ele>423.0</ele><time>2026-05-03T14:54:36.578Z</time></trkpt><trkpt lat="40.1851269" lon="15.527707"><ele>421.0</ele><time>2026-05-03T14:54:37.567Z</time></trkpt><trkpt lat="40.1849319" lon="15.5275927"><ele>419.0</ele><time>2026-05-03T14:54:38.575Z</time></trkpt><trkpt lat="40.1847299" lon="15.5274849"><ele>417.0</ele><time>2026-05-03T14:54:39.554Z</time></trkpt><trkpt lat="40.1845238" lon="15.5273847"><ele>417.0</ele><time>2026-05-03T14:54:40.553Z</time></trkpt><trkpt lat="40.1843103" lon="15.5272992"><ele>417.0</ele><time>2026-05-03T14:54:41.537Z</time></trkpt><trkpt lat="40.1840883" lon="15.5272391"><ele>415.0</ele><time>2026-05-03T14:54:42.538Z</time></trkpt><trkpt lat="40.183869" lon="15.527187"><ele>413.0</ele><time>2026-05-03T14:54:43.545Z</time></trkpt><trkpt lat="40.1836465" lon="15.5271439"><ele>411.0</ele><time>2026-05-03T14:54:44.547Z</time></trkpt><trkpt lat="40.1834224" lon="15.5271218"><ele>411.0</ele><time>2026-05-03T14:54:45.564Z</time></trkpt><trkpt lat="40.1831891" lon="15.5271112"><ele>411.0</ele><time>2026-05-03T14:54:46.562Z</time></trkpt><trkpt lat="40.1829547" lon="15.5271135"><ele>408.0</ele><time>2026-05-03T14:54:47.552Z</time></trkpt><trkpt lat="40.1827228" lon="15.5271362"><ele>408.0</ele><time>2026-05-03T14:54:48.543Z</time></trkpt></trkseg></trk></gpx>